<?xml version="1.0" encoding="UTF-8" standalone="no" ?>
<gpx xmlns="http://www.topografix.com/GPX/1/1" xmlns:xsi="http://www.w3.org/2001/XMLSchema-instance" xsi:schemaLocation="http://www.topografix.com/GPX/1/1 http://www.topografix.com/GPX/1/1/gpx.xsd" version="1.1" creator="VisuGPX - https://www.visugpx.com">
  <metadata>
    <name>Autour de Limours</name>
  </metadata>
  <trk>
    <name><![CDATA[Autour de Limours_1]]></name>
    <trkseg>
      <trkpt lat="48.61488" lon="2.1078">
        <ele>107</ele>
        <time>2023-03-05T13:39:07Z</time>
      </trkpt>
      <trkpt lat="48.61489" lon="2.10777">
        <ele>107</ele>
        <time>2023-03-05T13:39:09Z</time>
      </trkpt>
      <trkpt lat="48.6149" lon="2.10773">
        <ele>107</ele>
        <time>2023-03-05T13:39:11Z</time>
      </trkpt>
      <trkpt lat="48.61492" lon="2.1077">
        <ele>116.6</ele>
        <time>2023-03-05T13:39:13Z</time>
      </trkpt>
      <trkpt lat="48.61492" lon="2.10767">
        <ele>116.2</ele>
        <time>2023-03-05T13:39:15Z</time>
      </trkpt>
      <trkpt lat="48.61493" lon="2.10763">
        <ele>115.8</ele>
        <time>2023-03-05T13:39:17Z</time>
      </trkpt>
      <trkpt lat="48.61493" lon="2.10759">
        <ele>115.6</ele>
        <time>2023-03-05T13:39:19Z</time>
      </trkpt>
      <trkpt lat="48.61494" lon="2.10756">
        <ele>115.4</ele>
        <time>2023-03-05T13:39:21Z</time>
      </trkpt>
      <trkpt lat="48.61495" lon="2.10752">
        <ele>115.2</ele>
        <time>2023-03-05T13:39:23Z</time>
      </trkpt>
      <trkpt lat="48.61496" lon="2.10749">
        <ele>115.2</ele>
        <time>2023-03-05T13:39:25Z</time>
      </trkpt>
      <trkpt lat="48.61498" lon="2.10745">
        <ele>115</ele>
        <time>2023-03-05T13:39:27Z</time>
      </trkpt>
      <trkpt lat="48.61499" lon="2.10741">
        <ele>115.2</ele>
        <time>2023-03-05T13:39:29Z</time>
      </trkpt>
      <trkpt lat="48.615" lon="2.10737">
        <ele>115.2</ele>
        <time>2023-03-05T13:39:31Z</time>
      </trkpt>
      <trkpt lat="48.61501" lon="2.10733">
        <ele>115.2</ele>
        <time>2023-03-05T13:39:33Z</time>
      </trkpt>
      <trkpt lat="48.61502" lon="2.10729">
        <ele>115.2</ele>
        <time>2023-03-05T13:39:35Z</time>
      </trkpt>
      <trkpt lat="48.61503" lon="2.10726">
        <ele>115.2</ele>
        <time>2023-03-05T13:39:37Z</time>
      </trkpt>
      <trkpt lat="48.61504" lon="2.10722">
        <ele>115.4</ele>
        <time>2023-03-05T13:39:39Z</time>
      </trkpt>
      <trkpt lat="48.61505" lon="2.10719">
        <ele>115.4</ele>
        <time>2023-03-05T13:39:41Z</time>
      </trkpt>
      <trkpt lat="48.61505" lon="2.10715">
        <ele>115.4</ele>
        <time>2023-03-05T13:39:43Z</time>
      </trkpt>
      <trkpt lat="48.61504" lon="2.10711">
        <ele>115.2</ele>
        <time>2023-03-05T13:39:45Z</time>
      </trkpt>
      <trkpt lat="48.61502" lon="2.10709">
        <ele>115</ele>
        <time>2023-03-05T13:39:47Z</time>
      </trkpt>
      <trkpt lat="48.615" lon="2.10706">
        <ele>114.8</ele>
        <time>2023-03-05T13:39:49Z</time>
      </trkpt>
      <trkpt lat="48.61498" lon="2.10704">
        <ele>114.4</ele>
        <time>2023-03-05T13:39:51Z</time>
      </trkpt>
      <trkpt lat="48.61496" lon="2.10701">
        <ele>114</ele>
        <time>2023-03-05T13:39:53Z</time>
      </trkpt>
      <trkpt lat="48.61494" lon="2.10699">
        <ele>113.8</ele>
        <time>2023-03-05T13:39:55Z</time>
      </trkpt>
      <trkpt lat="48.61492" lon="2.10697">
        <ele>113.4</ele>
        <time>2023-03-05T13:39:57Z</time>
      </trkpt>
      <trkpt lat="48.6149" lon="2.10696">
        <ele>113</ele>
        <time>2023-03-05T13:39:59Z</time>
      </trkpt>
      <trkpt lat="48.61487" lon="2.10694">
        <ele>112.4</ele>
        <time>2023-03-05T13:40:02Z</time>
      </trkpt>
      <trkpt lat="48.61484" lon="2.10693">
        <ele>112.2</ele>
        <time>2023-03-05T13:40:04Z</time>
      </trkpt>
      <trkpt lat="48.61482" lon="2.10692">
        <ele>112</ele>
        <time>2023-03-05T13:40:06Z</time>
      </trkpt>
      <trkpt lat="48.6148" lon="2.10691">
        <ele>111.8</ele>
        <time>2023-03-05T13:40:08Z</time>
      </trkpt>
      <trkpt lat="48.61478" lon="2.10689">
        <ele>111.6</ele>
        <time>2023-03-05T13:40:10Z</time>
      </trkpt>
      <trkpt lat="48.61477" lon="2.10687">
        <ele>111.2</ele>
        <time>2023-03-05T13:40:12Z</time>
      </trkpt>
      <trkpt lat="48.61475" lon="2.10685">
        <ele>111</ele>
        <time>2023-03-05T13:40:14Z</time>
      </trkpt>
      <trkpt lat="48.61473" lon="2.10682">
        <ele>110.8</ele>
        <time>2023-03-05T13:40:16Z</time>
      </trkpt>
      <trkpt lat="48.61471" lon="2.1068">
        <ele>110.6</ele>
        <time>2023-03-05T13:40:18Z</time>
      </trkpt>
      <trkpt lat="48.61469" lon="2.10677">
        <ele>110.6</ele>
        <time>2023-03-05T13:40:20Z</time>
      </trkpt>
      <trkpt lat="48.61468" lon="2.10674">
        <ele>110.4</ele>
        <time>2023-03-05T13:40:22Z</time>
      </trkpt>
      <trkpt lat="48.61466" lon="2.10672">
        <ele>110.6</ele>
        <time>2023-03-05T13:40:24Z</time>
      </trkpt>
      <trkpt lat="48.61464" lon="2.10669">
        <ele>110.4</ele>
        <time>2023-03-05T13:40:26Z</time>
      </trkpt>
      <trkpt lat="48.61463" lon="2.10667">
        <ele>110.4</ele>
        <time>2023-03-05T13:40:28Z</time>
      </trkpt>
      <trkpt lat="48.61461" lon="2.10665">
        <ele>110.2</ele>
        <time>2023-03-05T13:40:30Z</time>
      </trkpt>
      <trkpt lat="48.61459" lon="2.10662">
        <ele>110.2</ele>
        <time>2023-03-05T13:40:32Z</time>
      </trkpt>
      <trkpt lat="48.61458" lon="2.10659">
        <ele>110</ele>
        <time>2023-03-05T13:40:34Z</time>
      </trkpt>
      <trkpt lat="48.61456" lon="2.10656">
        <ele>110</ele>
        <time>2023-03-05T13:40:36Z</time>
      </trkpt>
      <trkpt lat="48.61454" lon="2.10653">
        <ele>109.8</ele>
        <time>2023-03-05T13:40:38Z</time>
      </trkpt>
      <trkpt lat="48.61452" lon="2.10648">
        <ele>109.6</ele>
        <time>2023-03-05T13:40:41Z</time>
      </trkpt>
      <trkpt lat="48.61451" lon="2.10646">
        <ele>109.6</ele>
        <time>2023-03-05T13:40:42Z</time>
      </trkpt>
      <trkpt lat="48.61449" lon="2.10643">
        <ele>109.6</ele>
        <time>2023-03-05T13:40:44Z</time>
      </trkpt>
      <trkpt lat="48.61448" lon="2.1064">
        <ele>109.4</ele>
        <time>2023-03-05T13:40:46Z</time>
      </trkpt>
      <trkpt lat="48.61446" lon="2.10638">
        <ele>109.2</ele>
        <time>2023-03-05T13:40:48Z</time>
      </trkpt>
      <trkpt lat="48.61444" lon="2.10635">
        <ele>109.2</ele>
        <time>2023-03-05T13:40:50Z</time>
      </trkpt>
      <trkpt lat="48.61443" lon="2.10632">
        <ele>109.2</ele>
        <time>2023-03-05T13:40:52Z</time>
      </trkpt>
      <trkpt lat="48.61441" lon="2.10629">
        <ele>109.2</ele>
        <time>2023-03-05T13:40:54Z</time>
      </trkpt>
      <trkpt lat="48.61439" lon="2.10627">
        <ele>109</ele>
        <time>2023-03-05T13:40:56Z</time>
      </trkpt>
      <trkpt lat="48.61438" lon="2.10624">
        <ele>109</ele>
        <time>2023-03-05T13:40:58Z</time>
      </trkpt>
      <trkpt lat="48.61436" lon="2.10621">
        <ele>108.8</ele>
        <time>2023-03-05T13:41:00Z</time>
      </trkpt>
      <trkpt lat="48.61435" lon="2.10618">
        <ele>108.6</ele>
        <time>2023-03-05T13:41:02Z</time>
      </trkpt>
      <trkpt lat="48.61433" lon="2.10615">
        <ele>108.6</ele>
        <time>2023-03-05T13:41:04Z</time>
      </trkpt>
      <trkpt lat="48.61431" lon="2.10612">
        <ele>108.4</ele>
        <time>2023-03-05T13:41:06Z</time>
      </trkpt>
      <trkpt lat="48.61429" lon="2.10609">
        <ele>108.6</ele>
        <time>2023-03-05T13:41:08Z</time>
      </trkpt>
      <trkpt lat="48.61428" lon="2.10606">
        <ele>108.6</ele>
        <time>2023-03-05T13:41:10Z</time>
      </trkpt>
      <trkpt lat="48.61426" lon="2.10603">
        <ele>108.8</ele>
        <time>2023-03-05T13:41:12Z</time>
      </trkpt>
      <trkpt lat="48.61424" lon="2.10601">
        <ele>109</ele>
        <time>2023-03-05T13:41:14Z</time>
      </trkpt>
      <trkpt lat="48.61422" lon="2.10598">
        <ele>109</ele>
        <time>2023-03-05T13:41:16Z</time>
      </trkpt>
      <trkpt lat="48.6142" lon="2.10595">
        <ele>109</ele>
        <time>2023-03-05T13:41:18Z</time>
      </trkpt>
      <trkpt lat="48.61418" lon="2.10592">
        <ele>109</ele>
        <time>2023-03-05T13:41:20Z</time>
      </trkpt>
      <trkpt lat="48.61416" lon="2.10589">
        <ele>109.2</ele>
        <time>2023-03-05T13:41:22Z</time>
      </trkpt>
      <trkpt lat="48.61415" lon="2.10585">
        <ele>109.2</ele>
        <time>2023-03-05T13:41:24Z</time>
      </trkpt>
      <trkpt lat="48.61413" lon="2.10582">
        <ele>109.4</ele>
        <time>2023-03-05T13:41:26Z</time>
      </trkpt>
      <trkpt lat="48.61412" lon="2.10578">
        <ele>109.4</ele>
        <time>2023-03-05T13:41:28Z</time>
      </trkpt>
      <trkpt lat="48.61411" lon="2.10574">
        <ele>109.6</ele>
        <time>2023-03-05T13:41:30Z</time>
      </trkpt>
      <trkpt lat="48.61411" lon="2.1057">
        <ele>109.6</ele>
        <time>2023-03-05T13:41:32Z</time>
      </trkpt>
      <trkpt lat="48.61411" lon="2.10566">
        <ele>109.8</ele>
        <time>2023-03-05T13:41:34Z</time>
      </trkpt>
      <trkpt lat="48.61411" lon="2.10562">
        <ele>110.2</ele>
        <time>2023-03-05T13:41:36Z</time>
      </trkpt>
      <trkpt lat="48.61411" lon="2.10558">
        <ele>110.2</ele>
        <time>2023-03-05T13:41:38Z</time>
      </trkpt>
      <trkpt lat="48.61411" lon="2.10554">
        <ele>110.2</ele>
        <time>2023-03-05T13:41:40Z</time>
      </trkpt>
      <trkpt lat="48.61411" lon="2.10549">
        <ele>110.4</ele>
        <time>2023-03-05T13:41:42Z</time>
      </trkpt>
      <trkpt lat="48.61411" lon="2.10545">
        <ele>110.4</ele>
        <time>2023-03-05T13:41:44Z</time>
      </trkpt>
      <trkpt lat="48.61411" lon="2.10541">
        <ele>110.4</ele>
        <time>2023-03-05T13:41:46Z</time>
      </trkpt>
      <trkpt lat="48.61412" lon="2.10537">
        <ele>110.4</ele>
        <time>2023-03-05T13:41:48Z</time>
      </trkpt>
      <trkpt lat="48.61412" lon="2.10532">
        <ele>110.4</ele>
        <time>2023-03-05T13:41:50Z</time>
      </trkpt>
      <trkpt lat="48.61413" lon="2.10528">
        <ele>110.6</ele>
        <time>2023-03-05T13:41:52Z</time>
      </trkpt>
      <trkpt lat="48.61415" lon="2.10524">
        <ele>110.6</ele>
        <time>2023-03-05T13:41:54Z</time>
      </trkpt>
      <trkpt lat="48.61415" lon="2.1052">
        <ele>110.6</ele>
        <time>2023-03-05T13:41:56Z</time>
      </trkpt>
      <trkpt lat="48.61416" lon="2.10516">
        <ele>110.8</ele>
        <time>2023-03-05T13:41:58Z</time>
      </trkpt>
      <trkpt lat="48.61417" lon="2.10512">
        <ele>110.8</ele>
        <time>2023-03-05T13:42:00Z</time>
      </trkpt>
      <trkpt lat="48.61419" lon="2.10508">
        <ele>111</ele>
        <time>2023-03-05T13:42:02Z</time>
      </trkpt>
      <trkpt lat="48.6142" lon="2.10504">
        <ele>111</ele>
        <time>2023-03-05T13:42:04Z</time>
      </trkpt>
      <trkpt lat="48.61421" lon="2.105">
        <ele>111</ele>
        <time>2023-03-05T13:42:06Z</time>
      </trkpt>
      <trkpt lat="48.61423" lon="2.10496">
        <ele>111.2</ele>
        <time>2023-03-05T13:42:08Z</time>
      </trkpt>
      <trkpt lat="48.61424" lon="2.10493">
        <ele>111.2</ele>
        <time>2023-03-05T13:42:10Z</time>
      </trkpt>
      <trkpt lat="48.61425" lon="2.10489">
        <ele>111.2</ele>
        <time>2023-03-05T13:42:12Z</time>
      </trkpt>
      <trkpt lat="48.61426" lon="2.10485">
        <ele>111.2</ele>
        <time>2023-03-05T13:42:14Z</time>
      </trkpt>
      <trkpt lat="48.61427" lon="2.10481">
        <ele>111.2</ele>
        <time>2023-03-05T13:42:16Z</time>
      </trkpt>
      <trkpt lat="48.61428" lon="2.10478">
        <ele>111.4</ele>
        <time>2023-03-05T13:42:18Z</time>
      </trkpt>
      <trkpt lat="48.61429" lon="2.10474">
        <ele>111.4</ele>
        <time>2023-03-05T13:42:20Z</time>
      </trkpt>
      <trkpt lat="48.6143" lon="2.10471">
        <ele>111.6</ele>
        <time>2023-03-05T13:42:22Z</time>
      </trkpt>
      <trkpt lat="48.61431" lon="2.10467">
        <ele>111.6</ele>
        <time>2023-03-05T13:42:24Z</time>
      </trkpt>
      <trkpt lat="48.61431" lon="2.10464">
        <ele>111.8</ele>
        <time>2023-03-05T13:42:26Z</time>
      </trkpt>
      <trkpt lat="48.61432" lon="2.1046">
        <ele>112</ele>
        <time>2023-03-05T13:42:28Z</time>
      </trkpt>
      <trkpt lat="48.61433" lon="2.10457">
        <ele>112.2</ele>
        <time>2023-03-05T13:42:30Z</time>
      </trkpt>
      <trkpt lat="48.61435" lon="2.10454">
        <ele>112.4</ele>
        <time>2023-03-05T13:42:32Z</time>
      </trkpt>
      <trkpt lat="48.61436" lon="2.10451">
        <ele>112.4</ele>
        <time>2023-03-05T13:42:34Z</time>
      </trkpt>
      <trkpt lat="48.61438" lon="2.10448">
        <ele>112.4</ele>
        <time>2023-03-05T13:42:36Z</time>
      </trkpt>
      <trkpt lat="48.6144" lon="2.10445">
        <ele>112.4</ele>
        <time>2023-03-05T13:42:38Z</time>
      </trkpt>
      <trkpt lat="48.61441" lon="2.10443">
        <ele>112.4</ele>
        <time>2023-03-05T13:42:40Z</time>
      </trkpt>
      <trkpt lat="48.61444" lon="2.1044">
        <ele>112.4</ele>
        <time>2023-03-05T13:42:42Z</time>
      </trkpt>
      <trkpt lat="48.61445" lon="2.10437">
        <ele>112.4</ele>
        <time>2023-03-05T13:42:44Z</time>
      </trkpt>
      <trkpt lat="48.61447" lon="2.10434">
        <ele>112.6</ele>
        <time>2023-03-05T13:42:46Z</time>
      </trkpt>
      <trkpt lat="48.61448" lon="2.10431">
        <ele>112.6</ele>
        <time>2023-03-05T13:42:48Z</time>
      </trkpt>
      <trkpt lat="48.6145" lon="2.10428">
        <ele>112.8</ele>
        <time>2023-03-05T13:42:50Z</time>
      </trkpt>
      <trkpt lat="48.61452" lon="2.10425">
        <ele>113</ele>
        <time>2023-03-05T13:42:52Z</time>
      </trkpt>
      <trkpt lat="48.61454" lon="2.10423">
        <ele>113</ele>
        <time>2023-03-05T13:42:54Z</time>
      </trkpt>
      <trkpt lat="48.61456" lon="2.10421">
        <ele>113.2</ele>
        <time>2023-03-05T13:42:56Z</time>
      </trkpt>
      <trkpt lat="48.61458" lon="2.10419">
        <ele>113.4</ele>
        <time>2023-03-05T13:42:58Z</time>
      </trkpt>
      <trkpt lat="48.6146" lon="2.10416">
        <ele>113.4</ele>
        <time>2023-03-05T13:43:00Z</time>
      </trkpt>
      <trkpt lat="48.61462" lon="2.10414">
        <ele>113.4</ele>
        <time>2023-03-05T13:43:02Z</time>
      </trkpt>
      <trkpt lat="48.61464" lon="2.10411">
        <ele>113.6</ele>
        <time>2023-03-05T13:43:04Z</time>
      </trkpt>
      <trkpt lat="48.61466" lon="2.10409">
        <ele>113.6</ele>
        <time>2023-03-05T13:43:06Z</time>
      </trkpt>
      <trkpt lat="48.61468" lon="2.10406">
        <ele>113.8</ele>
        <time>2023-03-05T13:43:08Z</time>
      </trkpt>
      <trkpt lat="48.61469" lon="2.10403">
        <ele>113.8</ele>
        <time>2023-03-05T13:43:10Z</time>
      </trkpt>
      <trkpt lat="48.61471" lon="2.104">
        <ele>113.8</ele>
        <time>2023-03-05T13:43:12Z</time>
      </trkpt>
      <trkpt lat="48.61473" lon="2.10397">
        <ele>114</ele>
        <time>2023-03-05T13:43:14Z</time>
      </trkpt>
      <trkpt lat="48.61474" lon="2.10395">
        <ele>114</ele>
        <time>2023-03-05T13:43:16Z</time>
      </trkpt>
      <trkpt lat="48.61476" lon="2.10392">
        <ele>114.2</ele>
        <time>2023-03-05T13:43:18Z</time>
      </trkpt>
      <trkpt lat="48.61477" lon="2.10389">
        <ele>114.2</ele>
        <time>2023-03-05T13:43:20Z</time>
      </trkpt>
      <trkpt lat="48.61479" lon="2.10387">
        <ele>114.2</ele>
        <time>2023-03-05T13:43:22Z</time>
      </trkpt>
      <trkpt lat="48.6148" lon="2.10384">
        <ele>114.4</ele>
        <time>2023-03-05T13:43:24Z</time>
      </trkpt>
      <trkpt lat="48.61482" lon="2.10382">
        <ele>114.4</ele>
        <time>2023-03-05T13:43:26Z</time>
      </trkpt>
      <trkpt lat="48.61483" lon="2.10379">
        <ele>114.6</ele>
        <time>2023-03-05T13:43:28Z</time>
      </trkpt>
      <trkpt lat="48.61484" lon="2.10376">
        <ele>114.8</ele>
        <time>2023-03-05T13:43:30Z</time>
      </trkpt>
      <trkpt lat="48.61485" lon="2.10373">
        <ele>114.8</ele>
        <time>2023-03-05T13:43:32Z</time>
      </trkpt>
      <trkpt lat="48.61486" lon="2.1037">
        <ele>114.8</ele>
        <time>2023-03-05T13:43:34Z</time>
      </trkpt>
      <trkpt lat="48.61488" lon="2.10367">
        <ele>115</ele>
        <time>2023-03-05T13:43:36Z</time>
      </trkpt>
      <trkpt lat="48.6149" lon="2.10364">
        <ele>115.2</ele>
        <time>2023-03-05T13:43:38Z</time>
      </trkpt>
      <trkpt lat="48.61491" lon="2.10362">
        <ele>115.4</ele>
        <time>2023-03-05T13:43:40Z</time>
      </trkpt>
      <trkpt lat="48.61492" lon="2.1036">
        <ele>115.6</ele>
        <time>2023-03-05T13:43:42Z</time>
      </trkpt>
      <trkpt lat="48.61494" lon="2.10357">
        <ele>115.8</ele>
        <time>2023-03-05T13:43:44Z</time>
      </trkpt>
      <trkpt lat="48.61495" lon="2.10354">
        <ele>116</ele>
        <time>2023-03-05T13:43:46Z</time>
      </trkpt>
      <trkpt lat="48.61496" lon="2.10352">
        <ele>116.2</ele>
        <time>2023-03-05T13:43:48Z</time>
      </trkpt>
      <trkpt lat="48.61498" lon="2.10349">
        <ele>116.2</ele>
        <time>2023-03-05T13:43:50Z</time>
      </trkpt>
      <trkpt lat="48.61499" lon="2.10346">
        <ele>116.4</ele>
        <time>2023-03-05T13:43:52Z</time>
      </trkpt>
      <trkpt lat="48.615" lon="2.10344">
        <ele>116.4</ele>
        <time>2023-03-05T13:43:54Z</time>
      </trkpt>
      <trkpt lat="48.61502" lon="2.10341">
        <ele>116.6</ele>
        <time>2023-03-05T13:43:56Z</time>
      </trkpt>
      <trkpt lat="48.61504" lon="2.10339">
        <ele>116.6</ele>
        <time>2023-03-05T13:43:58Z</time>
      </trkpt>
      <trkpt lat="48.61505" lon="2.10336">
        <ele>116.6</ele>
        <time>2023-03-05T13:44:00Z</time>
      </trkpt>
      <trkpt lat="48.61506" lon="2.10332">
        <ele>116.8</ele>
        <time>2023-03-05T13:44:02Z</time>
      </trkpt>
      <trkpt lat="48.61507" lon="2.10328">
        <ele>117</ele>
        <time>2023-03-05T13:44:04Z</time>
      </trkpt>
      <trkpt lat="48.61508" lon="2.10325">
        <ele>117</ele>
        <time>2023-03-05T13:44:06Z</time>
      </trkpt>
      <trkpt lat="48.6151" lon="2.10322">
        <ele>117.2</ele>
        <time>2023-03-05T13:44:08Z</time>
      </trkpt>
      <trkpt lat="48.61511" lon="2.10319">
        <ele>117.4</ele>
        <time>2023-03-05T13:44:10Z</time>
      </trkpt>
      <trkpt lat="48.61512" lon="2.10315">
        <ele>117.6</ele>
        <time>2023-03-05T13:44:12Z</time>
      </trkpt>
      <trkpt lat="48.61514" lon="2.10312">
        <ele>117.6</ele>
        <time>2023-03-05T13:44:14Z</time>
      </trkpt>
      <trkpt lat="48.61515" lon="2.10308">
        <ele>118</ele>
        <time>2023-03-05T13:44:16Z</time>
      </trkpt>
      <trkpt lat="48.61516" lon="2.10305">
        <ele>118.2</ele>
        <time>2023-03-05T13:44:18Z</time>
      </trkpt>
      <trkpt lat="48.61517" lon="2.10302">
        <ele>118.4</ele>
        <time>2023-03-05T13:44:20Z</time>
      </trkpt>
      <trkpt lat="48.61518" lon="2.10298">
        <ele>118.6</ele>
        <time>2023-03-05T13:44:22Z</time>
      </trkpt>
      <trkpt lat="48.61519" lon="2.10295">
        <ele>118.8</ele>
        <time>2023-03-05T13:44:24Z</time>
      </trkpt>
      <trkpt lat="48.6152" lon="2.10292">
        <ele>118.8</ele>
        <time>2023-03-05T13:44:26Z</time>
        <extensions>
          <gpxtpx:TrackPointExtension xmlns:gpxtpx="http://www.garmin.com/xmlschemas/TrackPointExtension/v1">
            <gpxtpx:hr>97</gpxtpx:hr>
          </gpxtpx:TrackPointExtension>
        </extensions>
      </trkpt>
      <trkpt lat="48.61521" lon="2.10288">
        <ele>118.8</ele>
        <time>2023-03-05T13:44:28Z</time>
        <extensions>
          <gpxtpx:TrackPointExtension xmlns:gpxtpx="http://www.garmin.com/xmlschemas/TrackPointExtension/v1">
            <gpxtpx:hr>96</gpxtpx:hr>
          </gpxtpx:TrackPointExtension>
        </extensions>
      </trkpt>
      <trkpt lat="48.61522" lon="2.10284">
        <ele>118.8</ele>
        <time>2023-03-05T13:44:30Z</time>
        <extensions>
          <gpxtpx:TrackPointExtension xmlns:gpxtpx="http://www.garmin.com/xmlschemas/TrackPointExtension/v1">
            <gpxtpx:hr>95</gpxtpx:hr>
          </gpxtpx:TrackPointExtension>
        </extensions>
      </trkpt>
      <trkpt lat="48.61523" lon="2.10281">
        <ele>119</ele>
        <time>2023-03-05T13:44:32Z</time>
        <extensions>
          <gpxtpx:TrackPointExtension xmlns:gpxtpx="http://www.garmin.com/xmlschemas/TrackPointExtension/v1">
            <gpxtpx:hr>93</gpxtpx:hr>
          </gpxtpx:TrackPointExtension>
        </extensions>
      </trkpt>
      <trkpt lat="48.61524" lon="2.10277">
        <ele>119</ele>
        <time>2023-03-05T13:44:34Z</time>
        <extensions>
          <gpxtpx:TrackPointExtension xmlns:gpxtpx="http://www.garmin.com/xmlschemas/TrackPointExtension/v1">
            <gpxtpx:hr>93</gpxtpx:hr>
          </gpxtpx:TrackPointExtension>
        </extensions>
      </trkpt>
      <trkpt lat="48.61525" lon="2.10273">
        <ele>118.8</ele>
        <time>2023-03-05T13:44:36Z</time>
        <extensions>
          <gpxtpx:TrackPointExtension xmlns:gpxtpx="http://www.garmin.com/xmlschemas/TrackPointExtension/v1">
            <gpxtpx:hr>94</gpxtpx:hr>
          </gpxtpx:TrackPointExtension>
        </extensions>
      </trkpt>
      <trkpt lat="48.61526" lon="2.1027">
        <ele>119</ele>
        <time>2023-03-05T13:44:38Z</time>
        <extensions>
          <gpxtpx:TrackPointExtension xmlns:gpxtpx="http://www.garmin.com/xmlschemas/TrackPointExtension/v1">
            <gpxtpx:hr>94</gpxtpx:hr>
          </gpxtpx:TrackPointExtension>
        </extensions>
      </trkpt>
      <trkpt lat="48.61528" lon="2.10266">
        <ele>119</ele>
        <time>2023-03-05T13:44:40Z</time>
        <extensions>
          <gpxtpx:TrackPointExtension xmlns:gpxtpx="http://www.garmin.com/xmlschemas/TrackPointExtension/v1">
            <gpxtpx:hr>94</gpxtpx:hr>
          </gpxtpx:TrackPointExtension>
        </extensions>
      </trkpt>
      <trkpt lat="48.61529" lon="2.10263">
        <ele>119.2</ele>
        <time>2023-03-05T13:44:42Z</time>
        <extensions>
          <gpxtpx:TrackPointExtension xmlns:gpxtpx="http://www.garmin.com/xmlschemas/TrackPointExtension/v1">
            <gpxtpx:hr>94</gpxtpx:hr>
          </gpxtpx:TrackPointExtension>
        </extensions>
      </trkpt>
      <trkpt lat="48.6153" lon="2.1026">
        <ele>119.2</ele>
        <time>2023-03-05T13:44:44Z</time>
        <extensions>
          <gpxtpx:TrackPointExtension xmlns:gpxtpx="http://www.garmin.com/xmlschemas/TrackPointExtension/v1">
            <gpxtpx:hr>95</gpxtpx:hr>
          </gpxtpx:TrackPointExtension>
        </extensions>
      </trkpt>
      <trkpt lat="48.61531" lon="2.10256">
        <ele>119.2</ele>
        <time>2023-03-05T13:44:46Z</time>
        <extensions>
          <gpxtpx:TrackPointExtension xmlns:gpxtpx="http://www.garmin.com/xmlschemas/TrackPointExtension/v1">
            <gpxtpx:hr>95</gpxtpx:hr>
          </gpxtpx:TrackPointExtension>
        </extensions>
      </trkpt>
      <trkpt lat="48.61532" lon="2.10253">
        <ele>119.2</ele>
        <time>2023-03-05T13:44:48Z</time>
        <extensions>
          <gpxtpx:TrackPointExtension xmlns:gpxtpx="http://www.garmin.com/xmlschemas/TrackPointExtension/v1">
            <gpxtpx:hr>95</gpxtpx:hr>
          </gpxtpx:TrackPointExtension>
        </extensions>
      </trkpt>
      <trkpt lat="48.61533" lon="2.10249">
        <ele>119.2</ele>
        <time>2023-03-05T13:44:50Z</time>
        <extensions>
          <gpxtpx:TrackPointExtension xmlns:gpxtpx="http://www.garmin.com/xmlschemas/TrackPointExtension/v1">
            <gpxtpx:hr>95</gpxtpx:hr>
          </gpxtpx:TrackPointExtension>
        </extensions>
      </trkpt>
      <trkpt lat="48.61534" lon="2.10246">
        <ele>119.4</ele>
        <time>2023-03-05T13:44:52Z</time>
        <extensions>
          <gpxtpx:TrackPointExtension xmlns:gpxtpx="http://www.garmin.com/xmlschemas/TrackPointExtension/v1">
            <gpxtpx:hr>95</gpxtpx:hr>
          </gpxtpx:TrackPointExtension>
        </extensions>
      </trkpt>
      <trkpt lat="48.61535" lon="2.10242">
        <ele>119.4</ele>
        <time>2023-03-05T13:44:54Z</time>
        <extensions>
          <gpxtpx:TrackPointExtension xmlns:gpxtpx="http://www.garmin.com/xmlschemas/TrackPointExtension/v1">
            <gpxtpx:hr>95</gpxtpx:hr>
          </gpxtpx:TrackPointExtension>
        </extensions>
      </trkpt>
      <trkpt lat="48.61536" lon="2.10239">
        <ele>119.4</ele>
        <time>2023-03-05T13:44:56Z</time>
        <extensions>
          <gpxtpx:TrackPointExtension xmlns:gpxtpx="http://www.garmin.com/xmlschemas/TrackPointExtension/v1">
            <gpxtpx:hr>95</gpxtpx:hr>
          </gpxtpx:TrackPointExtension>
        </extensions>
      </trkpt>
      <trkpt lat="48.61536" lon="2.10235">
        <ele>119.6</ele>
        <time>2023-03-05T13:44:58Z</time>
        <extensions>
          <gpxtpx:TrackPointExtension xmlns:gpxtpx="http://www.garmin.com/xmlschemas/TrackPointExtension/v1">
            <gpxtpx:hr>95</gpxtpx:hr>
          </gpxtpx:TrackPointExtension>
        </extensions>
      </trkpt>
      <trkpt lat="48.61538" lon="2.10231">
        <ele>119.6</ele>
        <time>2023-03-05T13:45:00Z</time>
        <extensions>
          <gpxtpx:TrackPointExtension xmlns:gpxtpx="http://www.garmin.com/xmlschemas/TrackPointExtension/v1">
            <gpxtpx:hr>95</gpxtpx:hr>
          </gpxtpx:TrackPointExtension>
        </extensions>
      </trkpt>
      <trkpt lat="48.61538" lon="2.10227">
        <ele>119.6</ele>
        <time>2023-03-05T13:45:02Z</time>
        <extensions>
          <gpxtpx:TrackPointExtension xmlns:gpxtpx="http://www.garmin.com/xmlschemas/TrackPointExtension/v1">
            <gpxtpx:hr>95</gpxtpx:hr>
          </gpxtpx:TrackPointExtension>
        </extensions>
      </trkpt>
      <trkpt lat="48.61539" lon="2.10223">
        <ele>119.6</ele>
        <time>2023-03-05T13:45:04Z</time>
        <extensions>
          <gpxtpx:TrackPointExtension xmlns:gpxtpx="http://www.garmin.com/xmlschemas/TrackPointExtension/v1">
            <gpxtpx:hr>95</gpxtpx:hr>
          </gpxtpx:TrackPointExtension>
        </extensions>
      </trkpt>
      <trkpt lat="48.6154" lon="2.1022">
        <ele>119.8</ele>
        <time>2023-03-05T13:45:06Z</time>
        <extensions>
          <gpxtpx:TrackPointExtension xmlns:gpxtpx="http://www.garmin.com/xmlschemas/TrackPointExtension/v1">
            <gpxtpx:hr>95</gpxtpx:hr>
          </gpxtpx:TrackPointExtension>
        </extensions>
      </trkpt>
      <trkpt lat="48.6154" lon="2.10216">
        <ele>119.6</ele>
        <time>2023-03-05T13:45:08Z</time>
        <extensions>
          <gpxtpx:TrackPointExtension xmlns:gpxtpx="http://www.garmin.com/xmlschemas/TrackPointExtension/v1">
            <gpxtpx:hr>95</gpxtpx:hr>
          </gpxtpx:TrackPointExtension>
        </extensions>
      </trkpt>
      <trkpt lat="48.61541" lon="2.10213">
        <ele>119.6</ele>
        <time>2023-03-05T13:45:10Z</time>
        <extensions>
          <gpxtpx:TrackPointExtension xmlns:gpxtpx="http://www.garmin.com/xmlschemas/TrackPointExtension/v1">
            <gpxtpx:hr>95</gpxtpx:hr>
          </gpxtpx:TrackPointExtension>
        </extensions>
      </trkpt>
      <trkpt lat="48.61542" lon="2.1021">
        <ele>119.4</ele>
        <time>2023-03-05T13:45:12Z</time>
        <extensions>
          <gpxtpx:TrackPointExtension xmlns:gpxtpx="http://www.garmin.com/xmlschemas/TrackPointExtension/v1">
            <gpxtpx:hr>95</gpxtpx:hr>
          </gpxtpx:TrackPointExtension>
        </extensions>
      </trkpt>
      <trkpt lat="48.61544" lon="2.10208">
        <ele>119.4</ele>
        <time>2023-03-05T13:45:14Z</time>
        <extensions>
          <gpxtpx:TrackPointExtension xmlns:gpxtpx="http://www.garmin.com/xmlschemas/TrackPointExtension/v1">
            <gpxtpx:hr>95</gpxtpx:hr>
          </gpxtpx:TrackPointExtension>
        </extensions>
      </trkpt>
      <trkpt lat="48.61545" lon="2.10205">
        <ele>119.4</ele>
        <time>2023-03-05T13:45:16Z</time>
        <extensions>
          <gpxtpx:TrackPointExtension xmlns:gpxtpx="http://www.garmin.com/xmlschemas/TrackPointExtension/v1">
            <gpxtpx:hr>95</gpxtpx:hr>
          </gpxtpx:TrackPointExtension>
        </extensions>
      </trkpt>
      <trkpt lat="48.61546" lon="2.10202">
        <ele>119.4</ele>
        <time>2023-03-05T13:45:18Z</time>
        <extensions>
          <gpxtpx:TrackPointExtension xmlns:gpxtpx="http://www.garmin.com/xmlschemas/TrackPointExtension/v1">
            <gpxtpx:hr>95</gpxtpx:hr>
          </gpxtpx:TrackPointExtension>
        </extensions>
      </trkpt>
      <trkpt lat="48.61548" lon="2.10199">
        <ele>119.4</ele>
        <time>2023-03-05T13:45:20Z</time>
        <extensions>
          <gpxtpx:TrackPointExtension xmlns:gpxtpx="http://www.garmin.com/xmlschemas/TrackPointExtension/v1">
            <gpxtpx:hr>96</gpxtpx:hr>
          </gpxtpx:TrackPointExtension>
        </extensions>
      </trkpt>
      <trkpt lat="48.61548" lon="2.10196">
        <ele>119.2</ele>
        <time>2023-03-05T13:45:22Z</time>
        <extensions>
          <gpxtpx:TrackPointExtension xmlns:gpxtpx="http://www.garmin.com/xmlschemas/TrackPointExtension/v1">
            <gpxtpx:hr>96</gpxtpx:hr>
          </gpxtpx:TrackPointExtension>
        </extensions>
      </trkpt>
      <trkpt lat="48.6155" lon="2.10193">
        <ele>119.2</ele>
        <time>2023-03-05T13:45:24Z</time>
        <extensions>
          <gpxtpx:TrackPointExtension xmlns:gpxtpx="http://www.garmin.com/xmlschemas/TrackPointExtension/v1">
            <gpxtpx:hr>95</gpxtpx:hr>
          </gpxtpx:TrackPointExtension>
        </extensions>
      </trkpt>
      <trkpt lat="48.61551" lon="2.1019">
        <ele>119</ele>
        <time>2023-03-05T13:45:26Z</time>
        <extensions>
          <gpxtpx:TrackPointExtension xmlns:gpxtpx="http://www.garmin.com/xmlschemas/TrackPointExtension/v1">
            <gpxtpx:hr>96</gpxtpx:hr>
          </gpxtpx:TrackPointExtension>
        </extensions>
      </trkpt>
      <trkpt lat="48.61553" lon="2.10187">
        <ele>119</ele>
        <time>2023-03-05T13:45:28Z</time>
        <extensions>
          <gpxtpx:TrackPointExtension xmlns:gpxtpx="http://www.garmin.com/xmlschemas/TrackPointExtension/v1">
            <gpxtpx:hr>96</gpxtpx:hr>
          </gpxtpx:TrackPointExtension>
        </extensions>
      </trkpt>
      <trkpt lat="48.61554" lon="2.10183">
        <ele>119</ele>
        <time>2023-03-05T13:45:30Z</time>
        <extensions>
          <gpxtpx:TrackPointExtension xmlns:gpxtpx="http://www.garmin.com/xmlschemas/TrackPointExtension/v1">
            <gpxtpx:hr>96</gpxtpx:hr>
          </gpxtpx:TrackPointExtension>
        </extensions>
      </trkpt>
      <trkpt lat="48.61555" lon="2.10179">
        <ele>118.8</ele>
        <time>2023-03-05T13:45:32Z</time>
        <extensions>
          <gpxtpx:TrackPointExtension xmlns:gpxtpx="http://www.garmin.com/xmlschemas/TrackPointExtension/v1">
            <gpxtpx:hr>96</gpxtpx:hr>
          </gpxtpx:TrackPointExtension>
        </extensions>
      </trkpt>
      <trkpt lat="48.61556" lon="2.10176">
        <ele>118.8</ele>
        <time>2023-03-05T13:45:34Z</time>
        <extensions>
          <gpxtpx:TrackPointExtension xmlns:gpxtpx="http://www.garmin.com/xmlschemas/TrackPointExtension/v1">
            <gpxtpx:hr>96</gpxtpx:hr>
          </gpxtpx:TrackPointExtension>
        </extensions>
      </trkpt>
      <trkpt lat="48.61557" lon="2.10172">
        <ele>119</ele>
        <time>2023-03-05T13:45:36Z</time>
        <extensions>
          <gpxtpx:TrackPointExtension xmlns:gpxtpx="http://www.garmin.com/xmlschemas/TrackPointExtension/v1">
            <gpxtpx:hr>96</gpxtpx:hr>
          </gpxtpx:TrackPointExtension>
        </extensions>
      </trkpt>
      <trkpt lat="48.61557" lon="2.10167">
        <ele>118.8</ele>
        <time>2023-03-05T13:45:38Z</time>
        <extensions>
          <gpxtpx:TrackPointExtension xmlns:gpxtpx="http://www.garmin.com/xmlschemas/TrackPointExtension/v1">
            <gpxtpx:hr>96</gpxtpx:hr>
          </gpxtpx:TrackPointExtension>
        </extensions>
      </trkpt>
      <trkpt lat="48.61558" lon="2.10164">
        <ele>118.8</ele>
        <time>2023-03-05T13:45:40Z</time>
        <extensions>
          <gpxtpx:TrackPointExtension xmlns:gpxtpx="http://www.garmin.com/xmlschemas/TrackPointExtension/v1">
            <gpxtpx:hr>96</gpxtpx:hr>
          </gpxtpx:TrackPointExtension>
        </extensions>
      </trkpt>
      <trkpt lat="48.61559" lon="2.1016">
        <ele>118.6</ele>
        <time>2023-03-05T13:45:42Z</time>
        <extensions>
          <gpxtpx:TrackPointExtension xmlns:gpxtpx="http://www.garmin.com/xmlschemas/TrackPointExtension/v1">
            <gpxtpx:hr>96</gpxtpx:hr>
          </gpxtpx:TrackPointExtension>
        </extensions>
      </trkpt>
      <trkpt lat="48.6156" lon="2.10156">
        <ele>118.8</ele>
        <time>2023-03-05T13:45:44Z</time>
        <extensions>
          <gpxtpx:TrackPointExtension xmlns:gpxtpx="http://www.garmin.com/xmlschemas/TrackPointExtension/v1">
            <gpxtpx:hr>96</gpxtpx:hr>
          </gpxtpx:TrackPointExtension>
        </extensions>
      </trkpt>
      <trkpt lat="48.6156" lon="2.10152">
        <ele>118.8</ele>
        <time>2023-03-05T13:45:46Z</time>
        <extensions>
          <gpxtpx:TrackPointExtension xmlns:gpxtpx="http://www.garmin.com/xmlschemas/TrackPointExtension/v1">
            <gpxtpx:hr>96</gpxtpx:hr>
          </gpxtpx:TrackPointExtension>
        </extensions>
      </trkpt>
      <trkpt lat="48.61561" lon="2.10148">
        <ele>119</ele>
        <time>2023-03-05T13:45:48Z</time>
        <extensions>
          <gpxtpx:TrackPointExtension xmlns:gpxtpx="http://www.garmin.com/xmlschemas/TrackPointExtension/v1">
            <gpxtpx:hr>96</gpxtpx:hr>
          </gpxtpx:TrackPointExtension>
        </extensions>
      </trkpt>
      <trkpt lat="48.61561" lon="2.10144">
        <ele>119.2</ele>
        <time>2023-03-05T13:45:50Z</time>
        <extensions>
          <gpxtpx:TrackPointExtension xmlns:gpxtpx="http://www.garmin.com/xmlschemas/TrackPointExtension/v1">
            <gpxtpx:hr>96</gpxtpx:hr>
          </gpxtpx:TrackPointExtension>
        </extensions>
      </trkpt>
      <trkpt lat="48.61562" lon="2.10139">
        <ele>119.2</ele>
        <time>2023-03-05T13:45:52Z</time>
        <extensions>
          <gpxtpx:TrackPointExtension xmlns:gpxtpx="http://www.garmin.com/xmlschemas/TrackPointExtension/v1">
            <gpxtpx:hr>96</gpxtpx:hr>
          </gpxtpx:TrackPointExtension>
        </extensions>
      </trkpt>
      <trkpt lat="48.61563" lon="2.10135">
        <ele>119.2</ele>
        <time>2023-03-05T13:45:54Z</time>
        <extensions>
          <gpxtpx:TrackPointExtension xmlns:gpxtpx="http://www.garmin.com/xmlschemas/TrackPointExtension/v1">
            <gpxtpx:hr>96</gpxtpx:hr>
          </gpxtpx:TrackPointExtension>
        </extensions>
      </trkpt>
      <trkpt lat="48.61564" lon="2.10131">
        <ele>119.2</ele>
        <time>2023-03-05T13:45:56Z</time>
        <extensions>
          <gpxtpx:TrackPointExtension xmlns:gpxtpx="http://www.garmin.com/xmlschemas/TrackPointExtension/v1">
            <gpxtpx:hr>96</gpxtpx:hr>
          </gpxtpx:TrackPointExtension>
        </extensions>
      </trkpt>
      <trkpt lat="48.61564" lon="2.10127">
        <ele>119</ele>
        <time>2023-03-05T13:45:58Z</time>
        <extensions>
          <gpxtpx:TrackPointExtension xmlns:gpxtpx="http://www.garmin.com/xmlschemas/TrackPointExtension/v1">
            <gpxtpx:hr>96</gpxtpx:hr>
          </gpxtpx:TrackPointExtension>
        </extensions>
      </trkpt>
      <trkpt lat="48.61564" lon="2.10122">
        <ele>119</ele>
        <time>2023-03-05T13:46:00Z</time>
        <extensions>
          <gpxtpx:TrackPointExtension xmlns:gpxtpx="http://www.garmin.com/xmlschemas/TrackPointExtension/v1">
            <gpxtpx:hr>96</gpxtpx:hr>
          </gpxtpx:TrackPointExtension>
        </extensions>
      </trkpt>
      <trkpt lat="48.61564" lon="2.10118">
        <ele>119</ele>
        <time>2023-03-05T13:46:02Z</time>
        <extensions>
          <gpxtpx:TrackPointExtension xmlns:gpxtpx="http://www.garmin.com/xmlschemas/TrackPointExtension/v1">
            <gpxtpx:hr>96</gpxtpx:hr>
          </gpxtpx:TrackPointExtension>
        </extensions>
      </trkpt>
      <trkpt lat="48.61565" lon="2.10114">
        <ele>119</ele>
        <time>2023-03-05T13:46:04Z</time>
        <extensions>
          <gpxtpx:TrackPointExtension xmlns:gpxtpx="http://www.garmin.com/xmlschemas/TrackPointExtension/v1">
            <gpxtpx:hr>97</gpxtpx:hr>
          </gpxtpx:TrackPointExtension>
        </extensions>
      </trkpt>
      <trkpt lat="48.61565" lon="2.1011">
        <ele>119</ele>
        <time>2023-03-05T13:46:06Z</time>
        <extensions>
          <gpxtpx:TrackPointExtension xmlns:gpxtpx="http://www.garmin.com/xmlschemas/TrackPointExtension/v1">
            <gpxtpx:hr>97</gpxtpx:hr>
          </gpxtpx:TrackPointExtension>
        </extensions>
      </trkpt>
      <trkpt lat="48.61566" lon="2.10106">
        <ele>119.2</ele>
        <time>2023-03-05T13:46:08Z</time>
        <extensions>
          <gpxtpx:TrackPointExtension xmlns:gpxtpx="http://www.garmin.com/xmlschemas/TrackPointExtension/v1">
            <gpxtpx:hr>97</gpxtpx:hr>
          </gpxtpx:TrackPointExtension>
        </extensions>
      </trkpt>
      <trkpt lat="48.61567" lon="2.10102">
        <ele>119.4</ele>
        <time>2023-03-05T13:46:10Z</time>
        <extensions>
          <gpxtpx:TrackPointExtension xmlns:gpxtpx="http://www.garmin.com/xmlschemas/TrackPointExtension/v1">
            <gpxtpx:hr>97</gpxtpx:hr>
          </gpxtpx:TrackPointExtension>
        </extensions>
      </trkpt>
      <trkpt lat="48.61567" lon="2.10099">
        <ele>119.6</ele>
        <time>2023-03-05T13:46:12Z</time>
        <extensions>
          <gpxtpx:TrackPointExtension xmlns:gpxtpx="http://www.garmin.com/xmlschemas/TrackPointExtension/v1">
            <gpxtpx:hr>97</gpxtpx:hr>
          </gpxtpx:TrackPointExtension>
        </extensions>
      </trkpt>
      <trkpt lat="48.61568" lon="2.10095">
        <ele>119.6</ele>
        <time>2023-03-05T13:46:14Z</time>
        <extensions>
          <gpxtpx:TrackPointExtension xmlns:gpxtpx="http://www.garmin.com/xmlschemas/TrackPointExtension/v1">
            <gpxtpx:hr>97</gpxtpx:hr>
          </gpxtpx:TrackPointExtension>
        </extensions>
      </trkpt>
      <trkpt lat="48.61568" lon="2.10092">
        <ele>119.8</ele>
        <time>2023-03-05T13:46:16Z</time>
        <extensions>
          <gpxtpx:TrackPointExtension xmlns:gpxtpx="http://www.garmin.com/xmlschemas/TrackPointExtension/v1">
            <gpxtpx:hr>97</gpxtpx:hr>
          </gpxtpx:TrackPointExtension>
        </extensions>
      </trkpt>
      <trkpt lat="48.61568" lon="2.10088">
        <ele>119.8</ele>
        <time>2023-03-05T13:46:18Z</time>
        <extensions>
          <gpxtpx:TrackPointExtension xmlns:gpxtpx="http://www.garmin.com/xmlschemas/TrackPointExtension/v1">
            <gpxtpx:hr>97</gpxtpx:hr>
          </gpxtpx:TrackPointExtension>
        </extensions>
      </trkpt>
      <trkpt lat="48.61569" lon="2.10084">
        <ele>119.8</ele>
        <time>2023-03-05T13:46:20Z</time>
        <extensions>
          <gpxtpx:TrackPointExtension xmlns:gpxtpx="http://www.garmin.com/xmlschemas/TrackPointExtension/v1">
            <gpxtpx:hr>97</gpxtpx:hr>
          </gpxtpx:TrackPointExtension>
        </extensions>
      </trkpt>
      <trkpt lat="48.6157" lon="2.1008">
        <ele>119.8</ele>
        <time>2023-03-05T13:46:22Z</time>
        <extensions>
          <gpxtpx:TrackPointExtension xmlns:gpxtpx="http://www.garmin.com/xmlschemas/TrackPointExtension/v1">
            <gpxtpx:hr>97</gpxtpx:hr>
          </gpxtpx:TrackPointExtension>
        </extensions>
      </trkpt>
      <trkpt lat="48.6157" lon="2.10076">
        <ele>119.8</ele>
        <time>2023-03-05T13:46:24Z</time>
        <extensions>
          <gpxtpx:TrackPointExtension xmlns:gpxtpx="http://www.garmin.com/xmlschemas/TrackPointExtension/v1">
            <gpxtpx:hr>97</gpxtpx:hr>
          </gpxtpx:TrackPointExtension>
        </extensions>
      </trkpt>
      <trkpt lat="48.6157" lon="2.10071">
        <ele>119.8</ele>
        <time>2023-03-05T13:46:26Z</time>
        <extensions>
          <gpxtpx:TrackPointExtension xmlns:gpxtpx="http://www.garmin.com/xmlschemas/TrackPointExtension/v1">
            <gpxtpx:hr>97</gpxtpx:hr>
          </gpxtpx:TrackPointExtension>
        </extensions>
      </trkpt>
      <trkpt lat="48.6157" lon="2.10067">
        <ele>119.8</ele>
        <time>2023-03-05T13:46:28Z</time>
        <extensions>
          <gpxtpx:TrackPointExtension xmlns:gpxtpx="http://www.garmin.com/xmlschemas/TrackPointExtension/v1">
            <gpxtpx:hr>97</gpxtpx:hr>
          </gpxtpx:TrackPointExtension>
        </extensions>
      </trkpt>
      <trkpt lat="48.61571" lon="2.10063">
        <ele>119.8</ele>
        <time>2023-03-05T13:46:30Z</time>
        <extensions>
          <gpxtpx:TrackPointExtension xmlns:gpxtpx="http://www.garmin.com/xmlschemas/TrackPointExtension/v1">
            <gpxtpx:hr>97</gpxtpx:hr>
          </gpxtpx:TrackPointExtension>
        </extensions>
      </trkpt>
      <trkpt lat="48.61572" lon="2.10059">
        <ele>120</ele>
        <time>2023-03-05T13:46:32Z</time>
        <extensions>
          <gpxtpx:TrackPointExtension xmlns:gpxtpx="http://www.garmin.com/xmlschemas/TrackPointExtension/v1">
            <gpxtpx:hr>97</gpxtpx:hr>
          </gpxtpx:TrackPointExtension>
        </extensions>
      </trkpt>
      <trkpt lat="48.61572" lon="2.10055">
        <ele>120.2</ele>
        <time>2023-03-05T13:46:34Z</time>
        <extensions>
          <gpxtpx:TrackPointExtension xmlns:gpxtpx="http://www.garmin.com/xmlschemas/TrackPointExtension/v1">
            <gpxtpx:hr>97</gpxtpx:hr>
          </gpxtpx:TrackPointExtension>
        </extensions>
      </trkpt>
      <trkpt lat="48.61572" lon="2.1005">
        <ele>120.4</ele>
        <time>2023-03-05T13:46:36Z</time>
        <extensions>
          <gpxtpx:TrackPointExtension xmlns:gpxtpx="http://www.garmin.com/xmlschemas/TrackPointExtension/v1">
            <gpxtpx:hr>97</gpxtpx:hr>
          </gpxtpx:TrackPointExtension>
        </extensions>
      </trkpt>
      <trkpt lat="48.61573" lon="2.10046">
        <ele>120.6</ele>
        <time>2023-03-05T13:46:38Z</time>
        <extensions>
          <gpxtpx:TrackPointExtension xmlns:gpxtpx="http://www.garmin.com/xmlschemas/TrackPointExtension/v1">
            <gpxtpx:hr>97</gpxtpx:hr>
          </gpxtpx:TrackPointExtension>
        </extensions>
      </trkpt>
      <trkpt lat="48.61573" lon="2.10041">
        <ele>120.8</ele>
        <time>2023-03-05T13:46:40Z</time>
        <extensions>
          <gpxtpx:TrackPointExtension xmlns:gpxtpx="http://www.garmin.com/xmlschemas/TrackPointExtension/v1">
            <gpxtpx:hr>97</gpxtpx:hr>
          </gpxtpx:TrackPointExtension>
        </extensions>
      </trkpt>
      <trkpt lat="48.61573" lon="2.10037">
        <ele>120.8</ele>
        <time>2023-03-05T13:46:42Z</time>
        <extensions>
          <gpxtpx:TrackPointExtension xmlns:gpxtpx="http://www.garmin.com/xmlschemas/TrackPointExtension/v1">
            <gpxtpx:hr>98</gpxtpx:hr>
          </gpxtpx:TrackPointExtension>
        </extensions>
      </trkpt>
      <trkpt lat="48.61574" lon="2.10033">
        <ele>121</ele>
        <time>2023-03-05T13:46:44Z</time>
      </trkpt>
      <trkpt lat="48.61574" lon="2.10029">
        <ele>120.8</ele>
        <time>2023-03-05T13:46:46Z</time>
      </trkpt>
      <trkpt lat="48.61574" lon="2.10024">
        <ele>120.8</ele>
        <time>2023-03-05T13:46:48Z</time>
      </trkpt>
      <trkpt lat="48.61575" lon="2.10019">
        <ele>120.8</ele>
        <time>2023-03-05T13:46:50Z</time>
      </trkpt>
      <trkpt lat="48.61575" lon="2.10015">
        <ele>120.6</ele>
        <time>2023-03-05T13:46:52Z</time>
      </trkpt>
      <trkpt lat="48.61576" lon="2.10011">
        <ele>120.6</ele>
        <time>2023-03-05T13:46:54Z</time>
      </trkpt>
      <trkpt lat="48.61576" lon="2.10006">
        <ele>120.6</ele>
        <time>2023-03-05T13:46:56Z</time>
      </trkpt>
      <trkpt lat="48.61576" lon="2.10002">
        <ele>120.6</ele>
        <time>2023-03-05T13:46:58Z</time>
      </trkpt>
      <trkpt lat="48.61576" lon="2.09998">
        <ele>120.4</ele>
        <time>2023-03-05T13:47:00Z</time>
      </trkpt>
      <trkpt lat="48.61577" lon="2.09993">
        <ele>120.4</ele>
        <time>2023-03-05T13:47:02Z</time>
      </trkpt>
      <trkpt lat="48.61578" lon="2.09989">
        <ele>120.2</ele>
        <time>2023-03-05T13:47:04Z</time>
      </trkpt>
      <trkpt lat="48.61578" lon="2.09984">
        <ele>120.2</ele>
        <time>2023-03-05T13:47:06Z</time>
      </trkpt>
      <trkpt lat="48.61579" lon="2.0998">
        <ele>120.2</ele>
        <time>2023-03-05T13:47:08Z</time>
      </trkpt>
      <trkpt lat="48.61579" lon="2.09975">
        <ele>120.2</ele>
        <time>2023-03-05T13:47:10Z</time>
      </trkpt>
      <trkpt lat="48.61579" lon="2.09971">
        <ele>120.4</ele>
        <time>2023-03-05T13:47:12Z</time>
      </trkpt>
      <trkpt lat="48.61579" lon="2.09967">
        <ele>120.4</ele>
        <time>2023-03-05T13:47:14Z</time>
      </trkpt>
      <trkpt lat="48.61579" lon="2.09963">
        <ele>120.6</ele>
        <time>2023-03-05T13:47:16Z</time>
      </trkpt>
      <trkpt lat="48.6158" lon="2.09959">
        <ele>120.4</ele>
        <time>2023-03-05T13:47:18Z</time>
      </trkpt>
      <trkpt lat="48.6158" lon="2.09955">
        <ele>120.4</ele>
        <time>2023-03-05T13:47:20Z</time>
      </trkpt>
      <trkpt lat="48.6158" lon="2.0995">
        <ele>120.4</ele>
        <time>2023-03-05T13:47:22Z</time>
      </trkpt>
      <trkpt lat="48.6158" lon="2.09946">
        <ele>120.2</ele>
        <time>2023-03-05T13:47:24Z</time>
      </trkpt>
      <trkpt lat="48.6158" lon="2.09942">
        <ele>120.2</ele>
        <time>2023-03-05T13:47:26Z</time>
      </trkpt>
      <trkpt lat="48.6158" lon="2.09938">
        <ele>120.2</ele>
        <time>2023-03-05T13:47:28Z</time>
      </trkpt>
      <trkpt lat="48.6158" lon="2.09935">
        <ele>120.4</ele>
        <time>2023-03-05T13:47:30Z</time>
      </trkpt>
      <trkpt lat="48.6158" lon="2.09931">
        <ele>120.6</ele>
        <time>2023-03-05T13:47:32Z</time>
      </trkpt>
      <trkpt lat="48.61581" lon="2.09927">
        <ele>120.6</ele>
        <time>2023-03-05T13:47:34Z</time>
      </trkpt>
      <trkpt lat="48.61581" lon="2.09923">
        <ele>120.6</ele>
        <time>2023-03-05T13:47:36Z</time>
      </trkpt>
      <trkpt lat="48.61581" lon="2.09919">
        <ele>120.6</ele>
        <time>2023-03-05T13:47:38Z</time>
      </trkpt>
      <trkpt lat="48.61581" lon="2.09915">
        <ele>120.4</ele>
        <time>2023-03-05T13:47:40Z</time>
      </trkpt>
      <trkpt lat="48.61581" lon="2.09911">
        <ele>120.4</ele>
        <time>2023-03-05T13:47:42Z</time>
      </trkpt>
      <trkpt lat="48.61581" lon="2.09906">
        <ele>120.2</ele>
        <time>2023-03-05T13:47:44Z</time>
      </trkpt>
      <trkpt lat="48.61581" lon="2.09902">
        <ele>120.2</ele>
        <time>2023-03-05T13:47:46Z</time>
      </trkpt>
      <trkpt lat="48.61581" lon="2.09898">
        <ele>120</ele>
        <time>2023-03-05T13:47:48Z</time>
      </trkpt>
      <trkpt lat="48.61581" lon="2.09894">
        <ele>120</ele>
        <time>2023-03-05T13:47:50Z</time>
      </trkpt>
      <trkpt lat="48.61581" lon="2.0989">
        <ele>119.8</ele>
        <time>2023-03-05T13:47:52Z</time>
      </trkpt>
      <trkpt lat="48.61581" lon="2.09886">
        <ele>119.8</ele>
        <time>2023-03-05T13:47:54Z</time>
      </trkpt>
      <trkpt lat="48.61581" lon="2.09882">
        <ele>120</ele>
        <time>2023-03-05T13:47:56Z</time>
      </trkpt>
      <trkpt lat="48.61581" lon="2.09878">
        <ele>120</ele>
        <time>2023-03-05T13:47:58Z</time>
      </trkpt>
      <trkpt lat="48.61581" lon="2.09874">
        <ele>120</ele>
        <time>2023-03-05T13:48:00Z</time>
      </trkpt>
      <trkpt lat="48.61581" lon="2.0987">
        <ele>120</ele>
        <time>2023-03-05T13:48:02Z</time>
      </trkpt>
      <trkpt lat="48.61581" lon="2.09865">
        <ele>120</ele>
        <time>2023-03-05T13:48:04Z</time>
      </trkpt>
      <trkpt lat="48.61581" lon="2.09861">
        <ele>120</ele>
        <time>2023-03-05T13:48:06Z</time>
      </trkpt>
      <trkpt lat="48.61581" lon="2.09857">
        <ele>120.2</ele>
        <time>2023-03-05T13:48:08Z</time>
      </trkpt>
      <trkpt lat="48.61581" lon="2.09852">
        <ele>120.2</ele>
        <time>2023-03-05T13:48:10Z</time>
      </trkpt>
      <trkpt lat="48.61581" lon="2.09848">
        <ele>120.2</ele>
        <time>2023-03-05T13:48:12Z</time>
      </trkpt>
      <trkpt lat="48.61581" lon="2.09844">
        <ele>120.4</ele>
        <time>2023-03-05T13:48:14Z</time>
      </trkpt>
      <trkpt lat="48.61581" lon="2.0984">
        <ele>120.4</ele>
        <time>2023-03-05T13:48:16Z</time>
      </trkpt>
      <trkpt lat="48.61581" lon="2.09836">
        <ele>120.4</ele>
        <time>2023-03-05T13:48:18Z</time>
      </trkpt>
      <trkpt lat="48.61581" lon="2.09832">
        <ele>120.4</ele>
        <time>2023-03-05T13:48:20Z</time>
      </trkpt>
      <trkpt lat="48.6158" lon="2.09828">
        <ele>120.6</ele>
        <time>2023-03-05T13:48:22Z</time>
      </trkpt>
      <trkpt lat="48.6158" lon="2.09824">
        <ele>120.8</ele>
        <time>2023-03-05T13:48:24Z</time>
      </trkpt>
      <trkpt lat="48.6158" lon="2.0982">
        <ele>120.8</ele>
        <time>2023-03-05T13:48:26Z</time>
      </trkpt>
      <trkpt lat="48.6158" lon="2.09816">
        <ele>120.8</ele>
        <time>2023-03-05T13:48:28Z</time>
      </trkpt>
      <trkpt lat="48.6158" lon="2.09812">
        <ele>120.8</ele>
        <time>2023-03-05T13:48:30Z</time>
      </trkpt>
      <trkpt lat="48.6158" lon="2.09808">
        <ele>120.8</ele>
        <time>2023-03-05T13:48:32Z</time>
      </trkpt>
      <trkpt lat="48.61579" lon="2.09805">
        <ele>120.8</ele>
        <time>2023-03-05T13:48:34Z</time>
      </trkpt>
      <trkpt lat="48.61579" lon="2.09802">
        <ele>120.8</ele>
        <time>2023-03-05T13:48:36Z</time>
      </trkpt>
      <trkpt lat="48.61579" lon="2.09798">
        <ele>120.6</ele>
        <time>2023-03-05T13:48:38Z</time>
      </trkpt>
      <trkpt lat="48.61578" lon="2.09794">
        <ele>120.8</ele>
        <time>2023-03-05T13:48:40Z</time>
      </trkpt>
      <trkpt lat="48.61578" lon="2.0979">
        <ele>121</ele>
        <time>2023-03-05T13:48:42Z</time>
      </trkpt>
      <trkpt lat="48.61577" lon="2.09786">
        <ele>121.2</ele>
        <time>2023-03-05T13:48:44Z</time>
      </trkpt>
      <trkpt lat="48.61577" lon="2.09782">
        <ele>121.4</ele>
        <time>2023-03-05T13:48:46Z</time>
      </trkpt>
      <trkpt lat="48.61576" lon="2.09777">
        <ele>121.6</ele>
        <time>2023-03-05T13:48:48Z</time>
      </trkpt>
      <trkpt lat="48.61576" lon="2.09773">
        <ele>121.8</ele>
        <time>2023-03-05T13:48:50Z</time>
      </trkpt>
      <trkpt lat="48.61575" lon="2.09768">
        <ele>121.8</ele>
        <time>2023-03-05T13:48:52Z</time>
      </trkpt>
      <trkpt lat="48.61575" lon="2.09764">
        <ele>122</ele>
        <time>2023-03-05T13:48:54Z</time>
      </trkpt>
      <trkpt lat="48.61575" lon="2.0976">
        <ele>122.2</ele>
        <time>2023-03-05T13:48:56Z</time>
      </trkpt>
      <trkpt lat="48.61574" lon="2.09756">
        <ele>122.2</ele>
        <time>2023-03-05T13:48:58Z</time>
      </trkpt>
      <trkpt lat="48.61574" lon="2.09752">
        <ele>122.2</ele>
        <time>2023-03-05T13:49:00Z</time>
      </trkpt>
      <trkpt lat="48.61573" lon="2.09747">
        <ele>122.2</ele>
        <time>2023-03-05T13:49:02Z</time>
      </trkpt>
      <trkpt lat="48.61573" lon="2.09743">
        <ele>122.4</ele>
        <time>2023-03-05T13:49:04Z</time>
      </trkpt>
      <trkpt lat="48.61572" lon="2.09738">
        <ele>122.6</ele>
        <time>2023-03-05T13:49:06Z</time>
      </trkpt>
      <trkpt lat="48.61571" lon="2.09734">
        <ele>122.8</ele>
        <time>2023-03-05T13:49:08Z</time>
      </trkpt>
      <trkpt lat="48.6157" lon="2.09729">
        <ele>123</ele>
        <time>2023-03-05T13:49:10Z</time>
      </trkpt>
      <trkpt lat="48.6157" lon="2.09725">
        <ele>123.4</ele>
        <time>2023-03-05T13:49:12Z</time>
      </trkpt>
      <trkpt lat="48.6157" lon="2.09721">
        <ele>123.6</ele>
        <time>2023-03-05T13:49:14Z</time>
      </trkpt>
      <trkpt lat="48.61569" lon="2.09717">
        <ele>123.8</ele>
        <time>2023-03-05T13:49:16Z</time>
      </trkpt>
      <trkpt lat="48.61568" lon="2.09713">
        <ele>124</ele>
        <time>2023-03-05T13:49:18Z</time>
      </trkpt>
      <trkpt lat="48.61568" lon="2.09709">
        <ele>124.2</ele>
        <time>2023-03-05T13:49:20Z</time>
      </trkpt>
      <trkpt lat="48.61567" lon="2.09705">
        <ele>124.2</ele>
        <time>2023-03-05T13:49:22Z</time>
      </trkpt>
      <trkpt lat="48.61566" lon="2.09701">
        <ele>124.4</ele>
        <time>2023-03-05T13:49:24Z</time>
      </trkpt>
      <trkpt lat="48.61565" lon="2.09697">
        <ele>124.6</ele>
        <time>2023-03-05T13:49:26Z</time>
      </trkpt>
      <trkpt lat="48.61564" lon="2.09692">
        <ele>124.6</ele>
        <time>2023-03-05T13:49:28Z</time>
      </trkpt>
      <trkpt lat="48.61564" lon="2.09688">
        <ele>124.8</ele>
        <time>2023-03-05T13:49:30Z</time>
      </trkpt>
      <trkpt lat="48.61564" lon="2.09684">
        <ele>124.8</ele>
        <time>2023-03-05T13:49:32Z</time>
      </trkpt>
      <trkpt lat="48.61563" lon="2.09681">
        <ele>124.8</ele>
        <time>2023-03-05T13:49:34Z</time>
      </trkpt>
      <trkpt lat="48.61562" lon="2.09677">
        <ele>124.8</ele>
        <time>2023-03-05T13:49:36Z</time>
      </trkpt>
      <trkpt lat="48.61561" lon="2.09673">
        <ele>124.8</ele>
        <time>2023-03-05T13:49:38Z</time>
      </trkpt>
      <trkpt lat="48.6156" lon="2.09669">
        <ele>124.8</ele>
        <time>2023-03-05T13:49:40Z</time>
      </trkpt>
      <trkpt lat="48.6156" lon="2.09665">
        <ele>124.8</ele>
        <time>2023-03-05T13:49:42Z</time>
      </trkpt>
      <trkpt lat="48.61559" lon="2.09661">
        <ele>125</ele>
        <time>2023-03-05T13:49:44Z</time>
      </trkpt>
      <trkpt lat="48.61558" lon="2.09657">
        <ele>125.2</ele>
        <time>2023-03-05T13:49:46Z</time>
      </trkpt>
      <trkpt lat="48.61557" lon="2.09653">
        <ele>125.4</ele>
        <time>2023-03-05T13:49:48Z</time>
      </trkpt>
      <trkpt lat="48.61556" lon="2.09649">
        <ele>125.6</ele>
        <time>2023-03-05T13:49:50Z</time>
      </trkpt>
      <trkpt lat="48.61556" lon="2.09644">
        <ele>125.8</ele>
        <time>2023-03-05T13:49:52Z</time>
      </trkpt>
      <trkpt lat="48.61555" lon="2.0964">
        <ele>126</ele>
        <time>2023-03-05T13:49:54Z</time>
      </trkpt>
      <trkpt lat="48.61554" lon="2.09636">
        <ele>126</ele>
        <time>2023-03-05T13:49:56Z</time>
      </trkpt>
      <trkpt lat="48.61554" lon="2.09632">
        <ele>126.2</ele>
        <time>2023-03-05T13:49:58Z</time>
      </trkpt>
      <trkpt lat="48.61553" lon="2.09628">
        <ele>126.4</ele>
        <time>2023-03-05T13:50:00Z</time>
      </trkpt>
      <trkpt lat="48.61552" lon="2.09624">
        <ele>126.6</ele>
        <time>2023-03-05T13:50:02Z</time>
      </trkpt>
      <trkpt lat="48.61551" lon="2.0962">
        <ele>126.8</ele>
        <time>2023-03-05T13:50:04Z</time>
      </trkpt>
      <trkpt lat="48.6155" lon="2.09616">
        <ele>126.8</ele>
        <time>2023-03-05T13:50:06Z</time>
      </trkpt>
      <trkpt lat="48.61549" lon="2.09612">
        <ele>127</ele>
        <time>2023-03-05T13:50:08Z</time>
      </trkpt>
      <trkpt lat="48.61548" lon="2.09608">
        <ele>127.2</ele>
        <time>2023-03-05T13:50:10Z</time>
      </trkpt>
      <trkpt lat="48.61548" lon="2.09604">
        <ele>127.4</ele>
        <time>2023-03-05T13:50:12Z</time>
      </trkpt>
      <trkpt lat="48.61546" lon="2.096">
        <ele>127.6</ele>
        <time>2023-03-05T13:50:14Z</time>
      </trkpt>
      <trkpt lat="48.61546" lon="2.09596">
        <ele>127.6</ele>
        <time>2023-03-05T13:50:16Z</time>
      </trkpt>
      <trkpt lat="48.61545" lon="2.09592">
        <ele>127.8</ele>
        <time>2023-03-05T13:50:18Z</time>
      </trkpt>
      <trkpt lat="48.61544" lon="2.09588">
        <ele>127.8</ele>
        <time>2023-03-05T13:50:20Z</time>
      </trkpt>
      <trkpt lat="48.61543" lon="2.09584">
        <ele>127.8</ele>
        <time>2023-03-05T13:50:22Z</time>
      </trkpt>
      <trkpt lat="48.61542" lon="2.0958">
        <ele>127.8</ele>
        <time>2023-03-05T13:50:24Z</time>
      </trkpt>
      <trkpt lat="48.61541" lon="2.09576">
        <ele>127.8</ele>
        <time>2023-03-05T13:50:26Z</time>
      </trkpt>
      <trkpt lat="48.6154" lon="2.09572">
        <ele>128</ele>
        <time>2023-03-05T13:50:28Z</time>
      </trkpt>
      <trkpt lat="48.61539" lon="2.09568">
        <ele>128.2</ele>
        <time>2023-03-05T13:50:30Z</time>
      </trkpt>
      <trkpt lat="48.61538" lon="2.09564">
        <ele>128.4</ele>
        <time>2023-03-05T13:50:32Z</time>
      </trkpt>
      <trkpt lat="48.61537" lon="2.0956">
        <ele>128.4</ele>
        <time>2023-03-05T13:50:34Z</time>
      </trkpt>
      <trkpt lat="48.61536" lon="2.09556">
        <ele>128.6</ele>
        <time>2023-03-05T13:50:36Z</time>
      </trkpt>
      <trkpt lat="48.61535" lon="2.09552">
        <ele>128.6</ele>
        <time>2023-03-05T13:50:38Z</time>
      </trkpt>
      <trkpt lat="48.61534" lon="2.09547">
        <ele>128.6</ele>
        <time>2023-03-05T13:50:40Z</time>
      </trkpt>
      <trkpt lat="48.61533" lon="2.09543">
        <ele>128.8</ele>
        <time>2023-03-05T13:50:42Z</time>
      </trkpt>
      <trkpt lat="48.61532" lon="2.09539">
        <ele>129</ele>
        <time>2023-03-05T13:50:44Z</time>
      </trkpt>
      <trkpt lat="48.61531" lon="2.09535">
        <ele>129.2</ele>
        <time>2023-03-05T13:50:46Z</time>
      </trkpt>
      <trkpt lat="48.6153" lon="2.09531">
        <ele>129.2</ele>
        <time>2023-03-05T13:50:48Z</time>
      </trkpt>
      <trkpt lat="48.61529" lon="2.09527">
        <ele>129.2</ele>
        <time>2023-03-05T13:50:50Z</time>
      </trkpt>
      <trkpt lat="48.61528" lon="2.09523">
        <ele>129.4</ele>
        <time>2023-03-05T13:50:52Z</time>
      </trkpt>
      <trkpt lat="48.61527" lon="2.09519">
        <ele>129.6</ele>
        <time>2023-03-05T13:50:54Z</time>
      </trkpt>
      <trkpt lat="48.61526" lon="2.09514">
        <ele>129.6</ele>
        <time>2023-03-05T13:50:56Z</time>
      </trkpt>
      <trkpt lat="48.61525" lon="2.0951">
        <ele>129.6</ele>
        <time>2023-03-05T13:50:58Z</time>
      </trkpt>
      <trkpt lat="48.61524" lon="2.09506">
        <ele>129.6</ele>
        <time>2023-03-05T13:51:00Z</time>
      </trkpt>
      <trkpt lat="48.61523" lon="2.09502">
        <ele>129.4</ele>
        <time>2023-03-05T13:51:02Z</time>
      </trkpt>
      <trkpt lat="48.61522" lon="2.09498">
        <ele>129.6</ele>
        <time>2023-03-05T13:51:04Z</time>
      </trkpt>
      <trkpt lat="48.61521" lon="2.09494">
        <ele>129.6</ele>
        <time>2023-03-05T13:51:06Z</time>
      </trkpt>
      <trkpt lat="48.6152" lon="2.0949">
        <ele>129.4</ele>
        <time>2023-03-05T13:51:08Z</time>
      </trkpt>
      <trkpt lat="48.61519" lon="2.09486">
        <ele>129.4</ele>
        <time>2023-03-05T13:51:10Z</time>
      </trkpt>
      <trkpt lat="48.61518" lon="2.09482">
        <ele>129.4</ele>
        <time>2023-03-05T13:51:12Z</time>
      </trkpt>
      <trkpt lat="48.61518" lon="2.09478">
        <ele>129.2</ele>
        <time>2023-03-05T13:51:14Z</time>
      </trkpt>
      <trkpt lat="48.61517" lon="2.09474">
        <ele>129</ele>
        <time>2023-03-05T13:51:16Z</time>
      </trkpt>
      <trkpt lat="48.61516" lon="2.0947">
        <ele>128.8</ele>
        <time>2023-03-05T13:51:18Z</time>
      </trkpt>
      <trkpt lat="48.61515" lon="2.09465">
        <ele>128.6</ele>
        <time>2023-03-05T13:51:20Z</time>
      </trkpt>
      <trkpt lat="48.61514" lon="2.09461">
        <ele>128.6</ele>
        <time>2023-03-05T13:51:22Z</time>
      </trkpt>
      <trkpt lat="48.61513" lon="2.09457">
        <ele>128.6</ele>
        <time>2023-03-05T13:51:24Z</time>
      </trkpt>
      <trkpt lat="48.61512" lon="2.09453">
        <ele>128.6</ele>
        <time>2023-03-05T13:51:26Z</time>
      </trkpt>
      <trkpt lat="48.61512" lon="2.09448">
        <ele>128.6</ele>
        <time>2023-03-05T13:51:28Z</time>
      </trkpt>
      <trkpt lat="48.61511" lon="2.09444">
        <ele>128.8</ele>
        <time>2023-03-05T13:51:30Z</time>
      </trkpt>
      <trkpt lat="48.6151" lon="2.0944">
        <ele>128.8</ele>
        <time>2023-03-05T13:51:32Z</time>
      </trkpt>
      <trkpt lat="48.61509" lon="2.09436">
        <ele>129</ele>
        <time>2023-03-05T13:51:34Z</time>
      </trkpt>
      <trkpt lat="48.61508" lon="2.09432">
        <ele>129</ele>
        <time>2023-03-05T13:51:36Z</time>
      </trkpt>
      <trkpt lat="48.61507" lon="2.09428">
        <ele>129.2</ele>
        <time>2023-03-05T13:51:38Z</time>
      </trkpt>
      <trkpt lat="48.61506" lon="2.09424">
        <ele>129.4</ele>
        <time>2023-03-05T13:51:40Z</time>
      </trkpt>
      <trkpt lat="48.61504" lon="2.09421">
        <ele>129.6</ele>
        <time>2023-03-05T13:51:42Z</time>
      </trkpt>
      <trkpt lat="48.61504" lon="2.09417">
        <ele>129.8</ele>
        <time>2023-03-05T13:51:44Z</time>
      </trkpt>
      <trkpt lat="48.61502" lon="2.09413">
        <ele>130</ele>
        <time>2023-03-05T13:51:46Z</time>
      </trkpt>
      <trkpt lat="48.61501" lon="2.09409">
        <ele>130.2</ele>
        <time>2023-03-05T13:51:48Z</time>
      </trkpt>
      <trkpt lat="48.615" lon="2.09405">
        <ele>130.2</ele>
        <time>2023-03-05T13:51:50Z</time>
      </trkpt>
      <trkpt lat="48.61499" lon="2.09401">
        <ele>130.4</ele>
        <time>2023-03-05T13:51:52Z</time>
      </trkpt>
      <trkpt lat="48.61498" lon="2.09397">
        <ele>130.4</ele>
        <time>2023-03-05T13:51:54Z</time>
      </trkpt>
      <trkpt lat="48.61497" lon="2.09393">
        <ele>130.4</ele>
        <time>2023-03-05T13:51:56Z</time>
      </trkpt>
      <trkpt lat="48.61496" lon="2.09389">
        <ele>130.4</ele>
        <time>2023-03-05T13:51:58Z</time>
      </trkpt>
      <trkpt lat="48.61496" lon="2.09385">
        <ele>130.2</ele>
        <time>2023-03-05T13:52:00Z</time>
      </trkpt>
      <trkpt lat="48.61495" lon="2.09381">
        <ele>130.2</ele>
        <time>2023-03-05T13:52:02Z</time>
      </trkpt>
      <trkpt lat="48.61494" lon="2.09377">
        <ele>130.2</ele>
        <time>2023-03-05T13:52:04Z</time>
      </trkpt>
      <trkpt lat="48.61493" lon="2.09374">
        <ele>130.4</ele>
        <time>2023-03-05T13:52:06Z</time>
      </trkpt>
      <trkpt lat="48.61492" lon="2.0937">
        <ele>130.2</ele>
        <time>2023-03-05T13:52:08Z</time>
      </trkpt>
      <trkpt lat="48.61492" lon="2.09366">
        <ele>130.4</ele>
        <time>2023-03-05T13:52:10Z</time>
      </trkpt>
      <trkpt lat="48.61491" lon="2.09362">
        <ele>130.6</ele>
        <time>2023-03-05T13:52:12Z</time>
      </trkpt>
      <trkpt lat="48.6149" lon="2.09358">
        <ele>130.8</ele>
        <time>2023-03-05T13:52:14Z</time>
      </trkpt>
      <trkpt lat="48.61488" lon="2.09354">
        <ele>131</ele>
        <time>2023-03-05T13:52:16Z</time>
      </trkpt>
      <trkpt lat="48.61488" lon="2.0935">
        <ele>131</ele>
        <time>2023-03-05T13:52:18Z</time>
      </trkpt>
      <trkpt lat="48.61487" lon="2.09345">
        <ele>131.2</ele>
        <time>2023-03-05T13:52:20Z</time>
      </trkpt>
      <trkpt lat="48.61486" lon="2.09341">
        <ele>131.2</ele>
        <time>2023-03-05T13:52:22Z</time>
      </trkpt>
      <trkpt lat="48.61485" lon="2.09336">
        <ele>131.2</ele>
        <time>2023-03-05T13:52:24Z</time>
      </trkpt>
      <trkpt lat="48.61484" lon="2.09332">
        <ele>131.2</ele>
        <time>2023-03-05T13:52:26Z</time>
      </trkpt>
      <trkpt lat="48.61484" lon="2.09328">
        <ele>131.4</ele>
        <time>2023-03-05T13:52:28Z</time>
      </trkpt>
      <trkpt lat="48.61483" lon="2.09324">
        <ele>131.6</ele>
        <time>2023-03-05T13:52:30Z</time>
      </trkpt>
      <trkpt lat="48.61482" lon="2.0932">
        <ele>131.6</ele>
        <time>2023-03-05T13:52:32Z</time>
      </trkpt>
      <trkpt lat="48.61481" lon="2.09316">
        <ele>131.8</ele>
        <time>2023-03-05T13:52:34Z</time>
      </trkpt>
      <trkpt lat="48.6148" lon="2.09312">
        <ele>131.8</ele>
        <time>2023-03-05T13:52:36Z</time>
      </trkpt>
      <trkpt lat="48.6148" lon="2.09307">
        <ele>132</ele>
        <time>2023-03-05T13:52:38Z</time>
      </trkpt>
      <trkpt lat="48.61479" lon="2.09303">
        <ele>132.2</ele>
        <time>2023-03-05T13:52:40Z</time>
      </trkpt>
      <trkpt lat="48.61478" lon="2.09299">
        <ele>132.4</ele>
        <time>2023-03-05T13:52:42Z</time>
      </trkpt>
      <trkpt lat="48.61477" lon="2.09296">
        <ele>132.4</ele>
        <time>2023-03-05T13:52:44Z</time>
      </trkpt>
      <trkpt lat="48.61476" lon="2.09292">
        <ele>132.4</ele>
        <time>2023-03-05T13:52:46Z</time>
      </trkpt>
      <trkpt lat="48.61475" lon="2.09288">
        <ele>132.6</ele>
        <time>2023-03-05T13:52:48Z</time>
      </trkpt>
      <trkpt lat="48.61474" lon="2.09284">
        <ele>132.6</ele>
        <time>2023-03-05T13:52:50Z</time>
      </trkpt>
      <trkpt lat="48.61474" lon="2.0928">
        <ele>132.6</ele>
        <time>2023-03-05T13:52:52Z</time>
      </trkpt>
      <trkpt lat="48.61473" lon="2.09275">
        <ele>132.8</ele>
        <time>2023-03-05T13:52:54Z</time>
      </trkpt>
      <trkpt lat="48.61472" lon="2.09271">
        <ele>132.8</ele>
        <time>2023-03-05T13:52:56Z</time>
      </trkpt>
      <trkpt lat="48.61472" lon="2.09266">
        <ele>133</ele>
        <time>2023-03-05T13:52:58Z</time>
      </trkpt>
      <trkpt lat="48.61471" lon="2.09262">
        <ele>133</ele>
        <time>2023-03-05T13:53:00Z</time>
      </trkpt>
      <trkpt lat="48.6147" lon="2.09258">
        <ele>133.2</ele>
        <time>2023-03-05T13:53:02Z</time>
      </trkpt>
      <trkpt lat="48.61469" lon="2.09254">
        <ele>133.4</ele>
        <time>2023-03-05T13:53:04Z</time>
      </trkpt>
      <trkpt lat="48.61469" lon="2.0925">
        <ele>133.4</ele>
        <time>2023-03-05T13:53:06Z</time>
      </trkpt>
      <trkpt lat="48.61468" lon="2.09246">
        <ele>133.4</ele>
        <time>2023-03-05T13:53:08Z</time>
      </trkpt>
      <trkpt lat="48.61468" lon="2.09241">
        <ele>133.4</ele>
        <time>2023-03-05T13:53:10Z</time>
      </trkpt>
      <trkpt lat="48.61467" lon="2.09238">
        <ele>133.6</ele>
        <time>2023-03-05T13:53:12Z</time>
      </trkpt>
      <trkpt lat="48.61466" lon="2.09234">
        <ele>133.6</ele>
        <time>2023-03-05T13:53:14Z</time>
      </trkpt>
      <trkpt lat="48.61466" lon="2.0923">
        <ele>133.6</ele>
        <time>2023-03-05T13:53:16Z</time>
      </trkpt>
      <trkpt lat="48.61465" lon="2.09226">
        <ele>133.8</ele>
        <time>2023-03-05T13:53:18Z</time>
      </trkpt>
      <trkpt lat="48.61464" lon="2.09221">
        <ele>134</ele>
        <time>2023-03-05T13:53:20Z</time>
      </trkpt>
      <trkpt lat="48.61464" lon="2.09217">
        <ele>134</ele>
        <time>2023-03-05T13:53:22Z</time>
      </trkpt>
      <trkpt lat="48.61463" lon="2.09213">
        <ele>134.2</ele>
        <time>2023-03-05T13:53:24Z</time>
      </trkpt>
      <trkpt lat="48.61462" lon="2.09208">
        <ele>134.2</ele>
        <time>2023-03-05T13:53:26Z</time>
      </trkpt>
      <trkpt lat="48.61462" lon="2.09204">
        <ele>134.2</ele>
        <time>2023-03-05T13:53:28Z</time>
      </trkpt>
      <trkpt lat="48.61461" lon="2.092">
        <ele>134.4</ele>
        <time>2023-03-05T13:53:30Z</time>
      </trkpt>
      <trkpt lat="48.6146" lon="2.09196">
        <ele>134.6</ele>
        <time>2023-03-05T13:53:32Z</time>
      </trkpt>
      <trkpt lat="48.61461" lon="2.09193">
        <ele>134.8</ele>
        <time>2023-03-05T13:53:34Z</time>
      </trkpt>
      <trkpt lat="48.61462" lon="2.09191">
        <ele>135</ele>
        <time>2023-03-05T13:53:36Z</time>
      </trkpt>
      <trkpt lat="48.61464" lon="2.0919">
        <ele>135</ele>
        <time>2023-03-05T13:53:38Z</time>
      </trkpt>
      <trkpt lat="48.61467" lon="2.09189">
        <ele>135.2</ele>
        <time>2023-03-05T13:53:40Z</time>
      </trkpt>
      <trkpt lat="48.6147" lon="2.0919">
        <ele>135.2</ele>
        <time>2023-03-05T13:53:42Z</time>
      </trkpt>
      <trkpt lat="48.61473" lon="2.0919">
        <ele>135.2</ele>
        <time>2023-03-05T13:53:44Z</time>
      </trkpt>
      <trkpt lat="48.61476" lon="2.09191">
        <ele>135.2</ele>
        <time>2023-03-05T13:53:46Z</time>
      </trkpt>
      <trkpt lat="48.61479" lon="2.09192">
        <ele>135.2</ele>
        <time>2023-03-05T13:53:48Z</time>
      </trkpt>
      <trkpt lat="48.61482" lon="2.09193">
        <ele>135.4</ele>
        <time>2023-03-05T13:53:50Z</time>
      </trkpt>
      <trkpt lat="48.61485" lon="2.09194">
        <ele>135.6</ele>
        <time>2023-03-05T13:53:52Z</time>
      </trkpt>
      <trkpt lat="48.61488" lon="2.09194">
        <ele>135.6</ele>
        <time>2023-03-05T13:53:54Z</time>
      </trkpt>
      <trkpt lat="48.61492" lon="2.09194">
        <ele>136</ele>
        <time>2023-03-05T13:53:56Z</time>
      </trkpt>
      <trkpt lat="48.61494" lon="2.09194">
        <ele>136.2</ele>
        <time>2023-03-05T13:53:58Z</time>
      </trkpt>
      <trkpt lat="48.61498" lon="2.09195">
        <ele>136.2</ele>
        <time>2023-03-05T13:54:00Z</time>
      </trkpt>
      <trkpt lat="48.615" lon="2.09195">
        <ele>136.4</ele>
        <time>2023-03-05T13:54:01Z</time>
      </trkpt>
      <trkpt lat="48.61502" lon="2.09196">
        <ele>136.4</ele>
        <time>2023-03-05T13:54:03Z</time>
      </trkpt>
      <trkpt lat="48.61506" lon="2.09197">
        <ele>136.4</ele>
        <time>2023-03-05T13:54:05Z</time>
      </trkpt>
      <trkpt lat="48.61508" lon="2.09198">
        <ele>136.8</ele>
        <time>2023-03-05T13:54:07Z</time>
      </trkpt>
      <trkpt lat="48.61511" lon="2.09199">
        <ele>137</ele>
        <time>2023-03-05T13:54:09Z</time>
      </trkpt>
      <trkpt lat="48.61514" lon="2.09199">
        <ele>137.2</ele>
        <time>2023-03-05T13:54:11Z</time>
      </trkpt>
      <trkpt lat="48.61516" lon="2.092">
        <ele>137.2</ele>
        <time>2023-03-05T13:54:13Z</time>
      </trkpt>
      <trkpt lat="48.61519" lon="2.092">
        <ele>137.4</ele>
        <time>2023-03-05T13:54:15Z</time>
      </trkpt>
      <trkpt lat="48.61522" lon="2.092">
        <ele>137.4</ele>
        <time>2023-03-05T13:54:17Z</time>
      </trkpt>
      <trkpt lat="48.61525" lon="2.09201">
        <ele>137.4</ele>
        <time>2023-03-05T13:54:19Z</time>
      </trkpt>
      <trkpt lat="48.61528" lon="2.09201">
        <ele>137.6</ele>
        <time>2023-03-05T13:54:21Z</time>
      </trkpt>
      <trkpt lat="48.6153" lon="2.09201">
        <ele>137.8</ele>
        <time>2023-03-05T13:54:23Z</time>
      </trkpt>
      <trkpt lat="48.61532" lon="2.09201">
        <ele>138.2</ele>
        <time>2023-03-05T13:54:25Z</time>
      </trkpt>
      <trkpt lat="48.61535" lon="2.092">
        <ele>138.4</ele>
        <time>2023-03-05T13:54:27Z</time>
      </trkpt>
      <trkpt lat="48.61537" lon="2.092">
        <ele>138.6</ele>
        <time>2023-03-05T13:54:29Z</time>
      </trkpt>
      <trkpt lat="48.6154" lon="2.092">
        <ele>139</ele>
        <time>2023-03-05T13:54:31Z</time>
      </trkpt>
      <trkpt lat="48.61542" lon="2.092">
        <ele>139.2</ele>
        <time>2023-03-05T13:54:33Z</time>
      </trkpt>
      <trkpt lat="48.61545" lon="2.092">
        <ele>139.4</ele>
        <time>2023-03-05T13:54:35Z</time>
      </trkpt>
      <trkpt lat="48.61547" lon="2.092">
        <ele>139.6</ele>
        <time>2023-03-05T13:54:37Z</time>
      </trkpt>
      <trkpt lat="48.61549" lon="2.09201">
        <ele>139.8</ele>
        <time>2023-03-05T13:54:39Z</time>
      </trkpt>
      <trkpt lat="48.61551" lon="2.09202">
        <ele>140.2</ele>
        <time>2023-03-05T13:54:41Z</time>
      </trkpt>
      <trkpt lat="48.61553" lon="2.09203">
        <ele>140.6</ele>
        <time>2023-03-05T13:54:43Z</time>
      </trkpt>
      <trkpt lat="48.61556" lon="2.09203">
        <ele>141</ele>
        <time>2023-03-05T13:54:45Z</time>
      </trkpt>
      <trkpt lat="48.61558" lon="2.09204">
        <ele>141.4</ele>
        <time>2023-03-05T13:54:47Z</time>
      </trkpt>
      <trkpt lat="48.61561" lon="2.09204">
        <ele>141.8</ele>
        <time>2023-03-05T13:54:49Z</time>
      </trkpt>
      <trkpt lat="48.61564" lon="2.09204">
        <ele>142.2</ele>
        <time>2023-03-05T13:54:51Z</time>
      </trkpt>
      <trkpt lat="48.61566" lon="2.09205">
        <ele>142.8</ele>
        <time>2023-03-05T13:54:53Z</time>
      </trkpt>
      <trkpt lat="48.61569" lon="2.09205">
        <ele>143.2</ele>
        <time>2023-03-05T13:54:55Z</time>
      </trkpt>
      <trkpt lat="48.61572" lon="2.09206">
        <ele>143.8</ele>
        <time>2023-03-05T13:54:57Z</time>
      </trkpt>
      <trkpt lat="48.61573" lon="2.09207">
        <ele>144.4</ele>
        <time>2023-03-05T13:54:59Z</time>
      </trkpt>
      <trkpt lat="48.61576" lon="2.09208">
        <ele>145</ele>
        <time>2023-03-05T13:55:01Z</time>
      </trkpt>
      <trkpt lat="48.61578" lon="2.09209">
        <ele>145.8</ele>
        <time>2023-03-05T13:55:04Z</time>
      </trkpt>
      <trkpt lat="48.6158" lon="2.0921">
        <ele>146.2</ele>
        <time>2023-03-05T13:55:06Z</time>
      </trkpt>
      <trkpt lat="48.61583" lon="2.09211">
        <ele>146.6</ele>
        <time>2023-03-05T13:55:08Z</time>
      </trkpt>
      <trkpt lat="48.61586" lon="2.09212">
        <ele>147</ele>
        <time>2023-03-05T13:55:10Z</time>
      </trkpt>
      <trkpt lat="48.61588" lon="2.09212">
        <ele>147.2</ele>
        <time>2023-03-05T13:55:11Z</time>
      </trkpt>
      <trkpt lat="48.6159" lon="2.09213">
        <ele>147.4</ele>
        <time>2023-03-05T13:55:12Z</time>
      </trkpt>
      <trkpt lat="48.61592" lon="2.09213">
        <ele>147.6</ele>
        <time>2023-03-05T13:55:13Z</time>
      </trkpt>
      <trkpt lat="48.61594" lon="2.09214">
        <ele>148</ele>
        <time>2023-03-05T13:55:14Z</time>
      </trkpt>
      <trkpt lat="48.61596" lon="2.09215">
        <ele>148.4</ele>
        <time>2023-03-05T13:55:16Z</time>
      </trkpt>
      <trkpt lat="48.61599" lon="2.09215">
        <ele>148.8</ele>
        <time>2023-03-05T13:55:18Z</time>
      </trkpt>
      <trkpt lat="48.61602" lon="2.09216">
        <ele>149.4</ele>
        <time>2023-03-05T13:55:20Z</time>
      </trkpt>
      <trkpt lat="48.61604" lon="2.09218">
        <ele>150</ele>
        <time>2023-03-05T13:55:22Z</time>
      </trkpt>
      <trkpt lat="48.61607" lon="2.09219">
        <ele>150.4</ele>
        <time>2023-03-05T13:55:24Z</time>
      </trkpt>
      <trkpt lat="48.6161" lon="2.0922">
        <ele>151</ele>
        <time>2023-03-05T13:55:26Z</time>
      </trkpt>
      <trkpt lat="48.61612" lon="2.09221">
        <ele>151.6</ele>
        <time>2023-03-05T13:55:28Z</time>
      </trkpt>
      <trkpt lat="48.61615" lon="2.09222">
        <ele>152</ele>
        <time>2023-03-05T13:55:30Z</time>
      </trkpt>
      <trkpt lat="48.61618" lon="2.09223">
        <ele>152.4</ele>
        <time>2023-03-05T13:55:32Z</time>
      </trkpt>
      <trkpt lat="48.6162" lon="2.09224">
        <ele>152.8</ele>
        <time>2023-03-05T13:55:34Z</time>
      </trkpt>
      <trkpt lat="48.61623" lon="2.09227">
        <ele>153.2</ele>
        <time>2023-03-05T13:55:36Z</time>
      </trkpt>
      <trkpt lat="48.61626" lon="2.09229">
        <ele>153.6</ele>
        <time>2023-03-05T13:55:38Z</time>
      </trkpt>
      <trkpt lat="48.61628" lon="2.0923">
        <ele>153.8</ele>
        <time>2023-03-05T13:55:39Z</time>
      </trkpt>
      <trkpt lat="48.61631" lon="2.09232">
        <ele>154.2</ele>
        <time>2023-03-05T13:55:41Z</time>
      </trkpt>
      <trkpt lat="48.61634" lon="2.09234">
        <ele>154.6</ele>
        <time>2023-03-05T13:55:43Z</time>
      </trkpt>
      <trkpt lat="48.61636" lon="2.09235">
        <ele>155</ele>
        <time>2023-03-05T13:55:45Z</time>
      </trkpt>
      <trkpt lat="48.61638" lon="2.09236">
        <ele>155.4</ele>
        <time>2023-03-05T13:55:47Z</time>
      </trkpt>
      <trkpt lat="48.61641" lon="2.09238">
        <ele>155.8</ele>
        <time>2023-03-05T13:55:49Z</time>
      </trkpt>
      <trkpt lat="48.61644" lon="2.0924">
        <ele>156.4</ele>
        <time>2023-03-05T13:55:51Z</time>
      </trkpt>
      <trkpt lat="48.61647" lon="2.09241">
        <ele>156.8</ele>
        <time>2023-03-05T13:55:53Z</time>
      </trkpt>
      <trkpt lat="48.6165" lon="2.09243">
        <ele>157.2</ele>
        <time>2023-03-05T13:55:55Z</time>
      </trkpt>
      <trkpt lat="48.61653" lon="2.09244">
        <ele>157.6</ele>
        <time>2023-03-05T13:55:57Z</time>
      </trkpt>
      <trkpt lat="48.61655" lon="2.09246">
        <ele>158.2</ele>
        <time>2023-03-05T13:55:59Z</time>
      </trkpt>
      <trkpt lat="48.61657" lon="2.09247">
        <ele>158.6</ele>
        <time>2023-03-05T13:56:01Z</time>
      </trkpt>
      <trkpt lat="48.61659" lon="2.09249">
        <ele>159.2</ele>
        <time>2023-03-05T13:56:03Z</time>
      </trkpt>
      <trkpt lat="48.61661" lon="2.0925">
        <ele>159.8</ele>
        <time>2023-03-05T13:56:05Z</time>
      </trkpt>
      <trkpt lat="48.61663" lon="2.09251">
        <ele>160.6</ele>
        <time>2023-03-05T13:56:07Z</time>
      </trkpt>
      <trkpt lat="48.61666" lon="2.09251">
        <ele>161.2</ele>
        <time>2023-03-05T13:56:09Z</time>
      </trkpt>
      <trkpt lat="48.61668" lon="2.09252">
        <ele>162</ele>
        <time>2023-03-05T13:56:11Z</time>
      </trkpt>
      <trkpt lat="48.61669" lon="2.09253">
        <ele>162.6</ele>
        <time>2023-03-05T13:56:13Z</time>
      </trkpt>
      <trkpt lat="48.61671" lon="2.09254">
        <ele>163</ele>
        <time>2023-03-05T13:56:15Z</time>
      </trkpt>
      <trkpt lat="48.61673" lon="2.09254">
        <ele>163.6</ele>
        <time>2023-03-05T13:56:17Z</time>
      </trkpt>
      <trkpt lat="48.61675" lon="2.09254">
        <ele>164</ele>
        <time>2023-03-05T13:56:19Z</time>
      </trkpt>
      <trkpt lat="48.61677" lon="2.09255">
        <ele>164.6</ele>
        <time>2023-03-05T13:56:21Z</time>
      </trkpt>
      <trkpt lat="48.61679" lon="2.09256">
        <ele>165</ele>
        <time>2023-03-05T13:56:23Z</time>
      </trkpt>
      <trkpt lat="48.61682" lon="2.09257">
        <ele>165.2</ele>
        <time>2023-03-05T13:56:25Z</time>
      </trkpt>
      <trkpt lat="48.61684" lon="2.09258">
        <ele>165.6</ele>
        <time>2023-03-05T13:56:27Z</time>
      </trkpt>
      <trkpt lat="48.61686" lon="2.09259">
        <ele>166</ele>
        <time>2023-03-05T13:56:29Z</time>
      </trkpt>
      <trkpt lat="48.61688" lon="2.0926">
        <ele>166.4</ele>
        <time>2023-03-05T13:56:31Z</time>
      </trkpt>
      <trkpt lat="48.6169" lon="2.0926">
        <ele>167</ele>
        <time>2023-03-05T13:56:33Z</time>
      </trkpt>
      <trkpt lat="48.61692" lon="2.09261">
        <ele>167.6</ele>
        <time>2023-03-05T13:56:36Z</time>
      </trkpt>
      <trkpt lat="48.61694" lon="2.09262">
        <ele>167.8</ele>
        <time>2023-03-05T13:56:39Z</time>
      </trkpt>
      <trkpt lat="48.61696" lon="2.09263">
        <ele>168</ele>
        <time>2023-03-05T13:56:41Z</time>
      </trkpt>
      <trkpt lat="48.61699" lon="2.09263">
        <ele>168.2</ele>
        <time>2023-03-05T13:56:43Z</time>
      </trkpt>
      <trkpt lat="48.61702" lon="2.09263">
        <ele>168.2</ele>
        <time>2023-03-05T13:56:45Z</time>
      </trkpt>
      <trkpt lat="48.61705" lon="2.09263">
        <ele>168.4</ele>
        <time>2023-03-05T13:56:47Z</time>
      </trkpt>
      <trkpt lat="48.61707" lon="2.09263">
        <ele>168.4</ele>
        <time>2023-03-05T13:56:49Z</time>
      </trkpt>
      <trkpt lat="48.61709" lon="2.09265">
        <ele>168.4</ele>
        <time>2023-03-05T13:56:51Z</time>
      </trkpt>
      <trkpt lat="48.61713" lon="2.09267">
        <ele>168.2</ele>
        <time>2023-03-05T13:56:53Z</time>
      </trkpt>
      <trkpt lat="48.61716" lon="2.09268">
        <ele>168</ele>
        <time>2023-03-05T13:56:55Z</time>
      </trkpt>
      <trkpt lat="48.61718" lon="2.09269">
        <ele>168</ele>
        <time>2023-03-05T13:56:56Z</time>
      </trkpt>
      <trkpt lat="48.61721" lon="2.09271">
        <ele>168</ele>
        <time>2023-03-05T13:56:58Z</time>
      </trkpt>
      <trkpt lat="48.61724" lon="2.09273">
        <ele>168</ele>
        <time>2023-03-05T13:57:00Z</time>
      </trkpt>
      <trkpt lat="48.61726" lon="2.09274">
        <ele>168</ele>
        <time>2023-03-05T13:57:02Z</time>
      </trkpt>
      <trkpt lat="48.61728" lon="2.09275">
        <ele>168.2</ele>
        <time>2023-03-05T13:57:04Z</time>
      </trkpt>
      <trkpt lat="48.61731" lon="2.09277">
        <ele>168.4</ele>
        <time>2023-03-05T13:57:06Z</time>
      </trkpt>
      <trkpt lat="48.61733" lon="2.09279">
        <ele>168.6</ele>
        <time>2023-03-05T13:57:08Z</time>
      </trkpt>
      <trkpt lat="48.61735" lon="2.09282">
        <ele>168.8</ele>
        <time>2023-03-05T13:57:10Z</time>
      </trkpt>
      <trkpt lat="48.61738" lon="2.09284">
        <ele>169</ele>
        <time>2023-03-05T13:57:12Z</time>
      </trkpt>
      <trkpt lat="48.6174" lon="2.09286">
        <ele>169.2</ele>
        <time>2023-03-05T13:57:14Z</time>
      </trkpt>
      <trkpt lat="48.61742" lon="2.09287">
        <ele>169.4</ele>
        <time>2023-03-05T13:57:16Z</time>
      </trkpt>
      <trkpt lat="48.61746" lon="2.09288">
        <ele>169.6</ele>
        <time>2023-03-05T13:57:18Z</time>
      </trkpt>
      <trkpt lat="48.61748" lon="2.09289">
        <ele>169.6</ele>
        <time>2023-03-05T13:57:20Z</time>
      </trkpt>
      <trkpt lat="48.61751" lon="2.0929">
        <ele>169.8</ele>
        <time>2023-03-05T13:57:22Z</time>
        <extensions>
          <gpxtpx:TrackPointExtension xmlns:gpxtpx="http://www.garmin.com/xmlschemas/TrackPointExtension/v1">
            <gpxtpx:hr>96</gpxtpx:hr>
          </gpxtpx:TrackPointExtension>
        </extensions>
      </trkpt>
      <trkpt lat="48.61753" lon="2.09291">
        <ele>169.8</ele>
        <time>2023-03-05T13:57:24Z</time>
        <extensions>
          <gpxtpx:TrackPointExtension xmlns:gpxtpx="http://www.garmin.com/xmlschemas/TrackPointExtension/v1">
            <gpxtpx:hr>96</gpxtpx:hr>
          </gpxtpx:TrackPointExtension>
        </extensions>
      </trkpt>
      <trkpt lat="48.61756" lon="2.09293">
        <ele>169.8</ele>
        <time>2023-03-05T13:57:26Z</time>
        <extensions>
          <gpxtpx:TrackPointExtension xmlns:gpxtpx="http://www.garmin.com/xmlschemas/TrackPointExtension/v1">
            <gpxtpx:hr>96</gpxtpx:hr>
          </gpxtpx:TrackPointExtension>
        </extensions>
      </trkpt>
      <trkpt lat="48.61759" lon="2.09295">
        <ele>169.8</ele>
        <time>2023-03-05T13:57:28Z</time>
        <extensions>
          <gpxtpx:TrackPointExtension xmlns:gpxtpx="http://www.garmin.com/xmlschemas/TrackPointExtension/v1">
            <gpxtpx:hr>96</gpxtpx:hr>
          </gpxtpx:TrackPointExtension>
        </extensions>
      </trkpt>
      <trkpt lat="48.61762" lon="2.09297">
        <ele>169.8</ele>
        <time>2023-03-05T13:57:30Z</time>
        <extensions>
          <gpxtpx:TrackPointExtension xmlns:gpxtpx="http://www.garmin.com/xmlschemas/TrackPointExtension/v1">
            <gpxtpx:hr>96</gpxtpx:hr>
          </gpxtpx:TrackPointExtension>
        </extensions>
      </trkpt>
      <trkpt lat="48.61765" lon="2.09299">
        <ele>169.8</ele>
        <time>2023-03-05T13:57:32Z</time>
        <extensions>
          <gpxtpx:TrackPointExtension xmlns:gpxtpx="http://www.garmin.com/xmlschemas/TrackPointExtension/v1">
            <gpxtpx:hr>96</gpxtpx:hr>
          </gpxtpx:TrackPointExtension>
        </extensions>
      </trkpt>
      <trkpt lat="48.61768" lon="2.09301">
        <ele>169.8</ele>
        <time>2023-03-05T13:57:34Z</time>
        <extensions>
          <gpxtpx:TrackPointExtension xmlns:gpxtpx="http://www.garmin.com/xmlschemas/TrackPointExtension/v1">
            <gpxtpx:hr>96</gpxtpx:hr>
          </gpxtpx:TrackPointExtension>
        </extensions>
      </trkpt>
      <trkpt lat="48.61771" lon="2.09304">
        <ele>170</ele>
        <time>2023-03-05T13:57:36Z</time>
        <extensions>
          <gpxtpx:TrackPointExtension xmlns:gpxtpx="http://www.garmin.com/xmlschemas/TrackPointExtension/v1">
            <gpxtpx:hr>97</gpxtpx:hr>
          </gpxtpx:TrackPointExtension>
        </extensions>
      </trkpt>
      <trkpt lat="48.61772" lon="2.09305">
        <ele>170</ele>
        <time>2023-03-05T13:57:38Z</time>
        <extensions>
          <gpxtpx:TrackPointExtension xmlns:gpxtpx="http://www.garmin.com/xmlschemas/TrackPointExtension/v1">
            <gpxtpx:hr>98</gpxtpx:hr>
          </gpxtpx:TrackPointExtension>
        </extensions>
      </trkpt>
      <trkpt lat="48.61774" lon="2.09307">
        <ele>170</ele>
        <time>2023-03-05T13:57:40Z</time>
        <extensions>
          <gpxtpx:TrackPointExtension xmlns:gpxtpx="http://www.garmin.com/xmlschemas/TrackPointExtension/v1">
            <gpxtpx:hr>99</gpxtpx:hr>
          </gpxtpx:TrackPointExtension>
        </extensions>
      </trkpt>
      <trkpt lat="48.61776" lon="2.09309">
        <ele>170</ele>
        <time>2023-03-05T13:57:42Z</time>
        <extensions>
          <gpxtpx:TrackPointExtension xmlns:gpxtpx="http://www.garmin.com/xmlschemas/TrackPointExtension/v1">
            <gpxtpx:hr>100</gpxtpx:hr>
          </gpxtpx:TrackPointExtension>
        </extensions>
      </trkpt>
      <trkpt lat="48.61778" lon="2.09312">
        <ele>170</ele>
        <time>2023-03-05T13:57:44Z</time>
        <extensions>
          <gpxtpx:TrackPointExtension xmlns:gpxtpx="http://www.garmin.com/xmlschemas/TrackPointExtension/v1">
            <gpxtpx:hr>100</gpxtpx:hr>
          </gpxtpx:TrackPointExtension>
        </extensions>
      </trkpt>
      <trkpt lat="48.6178" lon="2.09314">
        <ele>170</ele>
        <time>2023-03-05T13:57:46Z</time>
        <extensions>
          <gpxtpx:TrackPointExtension xmlns:gpxtpx="http://www.garmin.com/xmlschemas/TrackPointExtension/v1">
            <gpxtpx:hr>100</gpxtpx:hr>
          </gpxtpx:TrackPointExtension>
        </extensions>
      </trkpt>
      <trkpt lat="48.61782" lon="2.09315">
        <ele>170.2</ele>
        <time>2023-03-05T13:57:48Z</time>
        <extensions>
          <gpxtpx:TrackPointExtension xmlns:gpxtpx="http://www.garmin.com/xmlschemas/TrackPointExtension/v1">
            <gpxtpx:hr>100</gpxtpx:hr>
          </gpxtpx:TrackPointExtension>
        </extensions>
      </trkpt>
      <trkpt lat="48.61784" lon="2.09317">
        <ele>170.2</ele>
        <time>2023-03-05T13:57:50Z</time>
        <extensions>
          <gpxtpx:TrackPointExtension xmlns:gpxtpx="http://www.garmin.com/xmlschemas/TrackPointExtension/v1">
            <gpxtpx:hr>100</gpxtpx:hr>
          </gpxtpx:TrackPointExtension>
        </extensions>
      </trkpt>
      <trkpt lat="48.61786" lon="2.09319">
        <ele>170.2</ele>
        <time>2023-03-05T13:57:52Z</time>
        <extensions>
          <gpxtpx:TrackPointExtension xmlns:gpxtpx="http://www.garmin.com/xmlschemas/TrackPointExtension/v1">
            <gpxtpx:hr>100</gpxtpx:hr>
          </gpxtpx:TrackPointExtension>
        </extensions>
      </trkpt>
      <trkpt lat="48.61788" lon="2.09322">
        <ele>170.2</ele>
        <time>2023-03-05T13:57:54Z</time>
        <extensions>
          <gpxtpx:TrackPointExtension xmlns:gpxtpx="http://www.garmin.com/xmlschemas/TrackPointExtension/v1">
            <gpxtpx:hr>100</gpxtpx:hr>
          </gpxtpx:TrackPointExtension>
        </extensions>
      </trkpt>
      <trkpt lat="48.61789" lon="2.09325">
        <ele>170.2</ele>
        <time>2023-03-05T13:57:56Z</time>
        <extensions>
          <gpxtpx:TrackPointExtension xmlns:gpxtpx="http://www.garmin.com/xmlschemas/TrackPointExtension/v1">
            <gpxtpx:hr>100</gpxtpx:hr>
          </gpxtpx:TrackPointExtension>
        </extensions>
      </trkpt>
      <trkpt lat="48.61791" lon="2.09328">
        <ele>170.4</ele>
        <time>2023-03-05T13:57:58Z</time>
        <extensions>
          <gpxtpx:TrackPointExtension xmlns:gpxtpx="http://www.garmin.com/xmlschemas/TrackPointExtension/v1">
            <gpxtpx:hr>100</gpxtpx:hr>
          </gpxtpx:TrackPointExtension>
        </extensions>
      </trkpt>
      <trkpt lat="48.61793" lon="2.09331">
        <ele>170.4</ele>
        <time>2023-03-05T13:58:00Z</time>
        <extensions>
          <gpxtpx:TrackPointExtension xmlns:gpxtpx="http://www.garmin.com/xmlschemas/TrackPointExtension/v1">
            <gpxtpx:hr>99</gpxtpx:hr>
          </gpxtpx:TrackPointExtension>
        </extensions>
      </trkpt>
      <trkpt lat="48.61795" lon="2.09334">
        <ele>170.6</ele>
        <time>2023-03-05T13:58:02Z</time>
        <extensions>
          <gpxtpx:TrackPointExtension xmlns:gpxtpx="http://www.garmin.com/xmlschemas/TrackPointExtension/v1">
            <gpxtpx:hr>99</gpxtpx:hr>
          </gpxtpx:TrackPointExtension>
        </extensions>
      </trkpt>
      <trkpt lat="48.61797" lon="2.09336">
        <ele>170.8</ele>
        <time>2023-03-05T13:58:04Z</time>
        <extensions>
          <gpxtpx:TrackPointExtension xmlns:gpxtpx="http://www.garmin.com/xmlschemas/TrackPointExtension/v1">
            <gpxtpx:hr>99</gpxtpx:hr>
          </gpxtpx:TrackPointExtension>
        </extensions>
      </trkpt>
      <trkpt lat="48.618" lon="2.09339">
        <ele>171</ele>
        <time>2023-03-05T13:58:06Z</time>
        <extensions>
          <gpxtpx:TrackPointExtension xmlns:gpxtpx="http://www.garmin.com/xmlschemas/TrackPointExtension/v1">
            <gpxtpx:hr>99</gpxtpx:hr>
          </gpxtpx:TrackPointExtension>
        </extensions>
      </trkpt>
      <trkpt lat="48.61801" lon="2.09341">
        <ele>171</ele>
        <time>2023-03-05T13:58:07Z</time>
        <extensions>
          <gpxtpx:TrackPointExtension xmlns:gpxtpx="http://www.garmin.com/xmlschemas/TrackPointExtension/v1">
            <gpxtpx:hr>100</gpxtpx:hr>
          </gpxtpx:TrackPointExtension>
        </extensions>
      </trkpt>
      <trkpt lat="48.61804" lon="2.09344">
        <ele>171.2</ele>
        <time>2023-03-05T13:58:09Z</time>
        <extensions>
          <gpxtpx:TrackPointExtension xmlns:gpxtpx="http://www.garmin.com/xmlschemas/TrackPointExtension/v1">
            <gpxtpx:hr>101</gpxtpx:hr>
          </gpxtpx:TrackPointExtension>
        </extensions>
      </trkpt>
      <trkpt lat="48.61807" lon="2.09347">
        <ele>171.2</ele>
        <time>2023-03-05T13:58:11Z</time>
        <extensions>
          <gpxtpx:TrackPointExtension xmlns:gpxtpx="http://www.garmin.com/xmlschemas/TrackPointExtension/v1">
            <gpxtpx:hr>101</gpxtpx:hr>
          </gpxtpx:TrackPointExtension>
        </extensions>
      </trkpt>
      <trkpt lat="48.61808" lon="2.09348">
        <ele>171.4</ele>
        <time>2023-03-05T13:58:12Z</time>
        <extensions>
          <gpxtpx:TrackPointExtension xmlns:gpxtpx="http://www.garmin.com/xmlschemas/TrackPointExtension/v1">
            <gpxtpx:hr>101</gpxtpx:hr>
          </gpxtpx:TrackPointExtension>
        </extensions>
      </trkpt>
      <trkpt lat="48.61811" lon="2.09351">
        <ele>171.4</ele>
        <time>2023-03-05T13:58:14Z</time>
        <extensions>
          <gpxtpx:TrackPointExtension xmlns:gpxtpx="http://www.garmin.com/xmlschemas/TrackPointExtension/v1">
            <gpxtpx:hr>101</gpxtpx:hr>
          </gpxtpx:TrackPointExtension>
        </extensions>
      </trkpt>
      <trkpt lat="48.61813" lon="2.09353">
        <ele>171.4</ele>
        <time>2023-03-05T13:58:16Z</time>
        <extensions>
          <gpxtpx:TrackPointExtension xmlns:gpxtpx="http://www.garmin.com/xmlschemas/TrackPointExtension/v1">
            <gpxtpx:hr>101</gpxtpx:hr>
          </gpxtpx:TrackPointExtension>
        </extensions>
      </trkpt>
      <trkpt lat="48.61816" lon="2.09355">
        <ele>171.2</ele>
        <time>2023-03-05T13:58:18Z</time>
        <extensions>
          <gpxtpx:TrackPointExtension xmlns:gpxtpx="http://www.garmin.com/xmlschemas/TrackPointExtension/v1">
            <gpxtpx:hr>101</gpxtpx:hr>
          </gpxtpx:TrackPointExtension>
        </extensions>
      </trkpt>
      <trkpt lat="48.61819" lon="2.09356">
        <ele>171.2</ele>
        <time>2023-03-05T13:58:20Z</time>
        <extensions>
          <gpxtpx:TrackPointExtension xmlns:gpxtpx="http://www.garmin.com/xmlschemas/TrackPointExtension/v1">
            <gpxtpx:hr>101</gpxtpx:hr>
          </gpxtpx:TrackPointExtension>
        </extensions>
      </trkpt>
      <trkpt lat="48.61822" lon="2.09358">
        <ele>171</ele>
        <time>2023-03-05T13:58:22Z</time>
        <extensions>
          <gpxtpx:TrackPointExtension xmlns:gpxtpx="http://www.garmin.com/xmlschemas/TrackPointExtension/v1">
            <gpxtpx:hr>101</gpxtpx:hr>
          </gpxtpx:TrackPointExtension>
        </extensions>
      </trkpt>
      <trkpt lat="48.61826" lon="2.0936">
        <ele>171</ele>
        <time>2023-03-05T13:58:24Z</time>
        <extensions>
          <gpxtpx:TrackPointExtension xmlns:gpxtpx="http://www.garmin.com/xmlschemas/TrackPointExtension/v1">
            <gpxtpx:hr>101</gpxtpx:hr>
          </gpxtpx:TrackPointExtension>
        </extensions>
      </trkpt>
      <trkpt lat="48.61828" lon="2.09361">
        <ele>170.8</ele>
        <time>2023-03-05T13:58:25Z</time>
        <extensions>
          <gpxtpx:TrackPointExtension xmlns:gpxtpx="http://www.garmin.com/xmlschemas/TrackPointExtension/v1">
            <gpxtpx:hr>101</gpxtpx:hr>
          </gpxtpx:TrackPointExtension>
        </extensions>
      </trkpt>
      <trkpt lat="48.61829" lon="2.09362">
        <ele>170.6</ele>
        <time>2023-03-05T13:58:26Z</time>
        <extensions>
          <gpxtpx:TrackPointExtension xmlns:gpxtpx="http://www.garmin.com/xmlschemas/TrackPointExtension/v1">
            <gpxtpx:hr>101</gpxtpx:hr>
          </gpxtpx:TrackPointExtension>
        </extensions>
      </trkpt>
      <trkpt lat="48.61832" lon="2.09363">
        <ele>170.4</ele>
        <time>2023-03-05T13:58:28Z</time>
        <extensions>
          <gpxtpx:TrackPointExtension xmlns:gpxtpx="http://www.garmin.com/xmlschemas/TrackPointExtension/v1">
            <gpxtpx:hr>102</gpxtpx:hr>
          </gpxtpx:TrackPointExtension>
        </extensions>
      </trkpt>
      <trkpt lat="48.61835" lon="2.09365">
        <ele>170.2</ele>
        <time>2023-03-05T13:58:30Z</time>
        <extensions>
          <gpxtpx:TrackPointExtension xmlns:gpxtpx="http://www.garmin.com/xmlschemas/TrackPointExtension/v1">
            <gpxtpx:hr>102</gpxtpx:hr>
          </gpxtpx:TrackPointExtension>
        </extensions>
      </trkpt>
      <trkpt lat="48.61838" lon="2.09366">
        <ele>170</ele>
        <time>2023-03-05T13:58:32Z</time>
        <extensions>
          <gpxtpx:TrackPointExtension xmlns:gpxtpx="http://www.garmin.com/xmlschemas/TrackPointExtension/v1">
            <gpxtpx:hr>102</gpxtpx:hr>
          </gpxtpx:TrackPointExtension>
        </extensions>
      </trkpt>
      <trkpt lat="48.6184" lon="2.09368">
        <ele>169.6</ele>
        <time>2023-03-05T13:58:34Z</time>
        <extensions>
          <gpxtpx:TrackPointExtension xmlns:gpxtpx="http://www.garmin.com/xmlschemas/TrackPointExtension/v1">
            <gpxtpx:hr>102</gpxtpx:hr>
          </gpxtpx:TrackPointExtension>
        </extensions>
      </trkpt>
      <trkpt lat="48.61844" lon="2.09369">
        <ele>169.2</ele>
        <time>2023-03-05T13:58:36Z</time>
        <extensions>
          <gpxtpx:TrackPointExtension xmlns:gpxtpx="http://www.garmin.com/xmlschemas/TrackPointExtension/v1">
            <gpxtpx:hr>102</gpxtpx:hr>
          </gpxtpx:TrackPointExtension>
        </extensions>
      </trkpt>
      <trkpt lat="48.61846" lon="2.0937">
        <ele>168.8</ele>
        <time>2023-03-05T13:58:38Z</time>
        <extensions>
          <gpxtpx:TrackPointExtension xmlns:gpxtpx="http://www.garmin.com/xmlschemas/TrackPointExtension/v1">
            <gpxtpx:hr>102</gpxtpx:hr>
          </gpxtpx:TrackPointExtension>
        </extensions>
      </trkpt>
      <trkpt lat="48.61849" lon="2.09372">
        <ele>168.4</ele>
        <time>2023-03-05T13:58:40Z</time>
        <extensions>
          <gpxtpx:TrackPointExtension xmlns:gpxtpx="http://www.garmin.com/xmlschemas/TrackPointExtension/v1">
            <gpxtpx:hr>102</gpxtpx:hr>
          </gpxtpx:TrackPointExtension>
        </extensions>
      </trkpt>
      <trkpt lat="48.61852" lon="2.09374">
        <ele>168</ele>
        <time>2023-03-05T13:58:42Z</time>
        <extensions>
          <gpxtpx:TrackPointExtension xmlns:gpxtpx="http://www.garmin.com/xmlschemas/TrackPointExtension/v1">
            <gpxtpx:hr>102</gpxtpx:hr>
          </gpxtpx:TrackPointExtension>
        </extensions>
      </trkpt>
      <trkpt lat="48.61854" lon="2.09376">
        <ele>167.8</ele>
        <time>2023-03-05T13:58:44Z</time>
        <extensions>
          <gpxtpx:TrackPointExtension xmlns:gpxtpx="http://www.garmin.com/xmlschemas/TrackPointExtension/v1">
            <gpxtpx:hr>103</gpxtpx:hr>
          </gpxtpx:TrackPointExtension>
        </extensions>
      </trkpt>
      <trkpt lat="48.61857" lon="2.09379">
        <ele>167.4</ele>
        <time>2023-03-05T13:58:46Z</time>
        <extensions>
          <gpxtpx:TrackPointExtension xmlns:gpxtpx="http://www.garmin.com/xmlschemas/TrackPointExtension/v1">
            <gpxtpx:hr>103</gpxtpx:hr>
          </gpxtpx:TrackPointExtension>
        </extensions>
      </trkpt>
      <trkpt lat="48.6186" lon="2.09381">
        <ele>167</ele>
        <time>2023-03-05T13:58:48Z</time>
        <extensions>
          <gpxtpx:TrackPointExtension xmlns:gpxtpx="http://www.garmin.com/xmlschemas/TrackPointExtension/v1">
            <gpxtpx:hr>103</gpxtpx:hr>
          </gpxtpx:TrackPointExtension>
        </extensions>
      </trkpt>
      <trkpt lat="48.61861" lon="2.09383">
        <ele>166.6</ele>
        <time>2023-03-05T13:58:50Z</time>
        <extensions>
          <gpxtpx:TrackPointExtension xmlns:gpxtpx="http://www.garmin.com/xmlschemas/TrackPointExtension/v1">
            <gpxtpx:hr>103</gpxtpx:hr>
          </gpxtpx:TrackPointExtension>
        </extensions>
      </trkpt>
      <trkpt lat="48.61863" lon="2.09385">
        <ele>166.2</ele>
        <time>2023-03-05T13:58:52Z</time>
        <extensions>
          <gpxtpx:TrackPointExtension xmlns:gpxtpx="http://www.garmin.com/xmlschemas/TrackPointExtension/v1">
            <gpxtpx:hr>103</gpxtpx:hr>
          </gpxtpx:TrackPointExtension>
        </extensions>
      </trkpt>
      <trkpt lat="48.61863" lon="2.09389">
        <ele>165.2</ele>
        <time>2023-03-05T13:58:55Z</time>
        <extensions>
          <gpxtpx:TrackPointExtension xmlns:gpxtpx="http://www.garmin.com/xmlschemas/TrackPointExtension/v1">
            <gpxtpx:hr>103</gpxtpx:hr>
          </gpxtpx:TrackPointExtension>
        </extensions>
      </trkpt>
      <trkpt lat="48.61865" lon="2.09389">
        <ele>164</ele>
        <time>2023-03-05T13:58:59Z</time>
        <extensions>
          <gpxtpx:TrackPointExtension xmlns:gpxtpx="http://www.garmin.com/xmlschemas/TrackPointExtension/v1">
            <gpxtpx:hr>103</gpxtpx:hr>
          </gpxtpx:TrackPointExtension>
        </extensions>
      </trkpt>
      <trkpt lat="48.61868" lon="2.0939">
        <ele>163.4</ele>
        <time>2023-03-05T13:59:01Z</time>
        <extensions>
          <gpxtpx:TrackPointExtension xmlns:gpxtpx="http://www.garmin.com/xmlschemas/TrackPointExtension/v1">
            <gpxtpx:hr>104</gpxtpx:hr>
          </gpxtpx:TrackPointExtension>
        </extensions>
      </trkpt>
      <trkpt lat="48.6187" lon="2.09391">
        <ele>162.6</ele>
        <time>2023-03-05T13:59:03Z</time>
        <extensions>
          <gpxtpx:TrackPointExtension xmlns:gpxtpx="http://www.garmin.com/xmlschemas/TrackPointExtension/v1">
            <gpxtpx:hr>104</gpxtpx:hr>
          </gpxtpx:TrackPointExtension>
        </extensions>
      </trkpt>
      <trkpt lat="48.61872" lon="2.09392">
        <ele>162</ele>
        <time>2023-03-05T13:59:05Z</time>
      </trkpt>
      <trkpt lat="48.61874" lon="2.09393">
        <ele>161.4</ele>
        <time>2023-03-05T13:59:07Z</time>
      </trkpt>
      <trkpt lat="48.61875" lon="2.09395">
        <ele>160.6</ele>
        <time>2023-03-05T13:59:09Z</time>
      </trkpt>
      <trkpt lat="48.61877" lon="2.09396">
        <ele>159.8</ele>
        <time>2023-03-05T13:59:11Z</time>
      </trkpt>
      <trkpt lat="48.61879" lon="2.09397">
        <ele>158.8</ele>
        <time>2023-03-05T13:59:13Z</time>
      </trkpt>
      <trkpt lat="48.61881" lon="2.09399">
        <ele>158</ele>
        <time>2023-03-05T13:59:15Z</time>
      </trkpt>
      <trkpt lat="48.61884" lon="2.09401">
        <ele>157.2</ele>
        <time>2023-03-05T13:59:17Z</time>
      </trkpt>
      <trkpt lat="48.61887" lon="2.09403">
        <ele>156.4</ele>
        <time>2023-03-05T13:59:19Z</time>
      </trkpt>
      <trkpt lat="48.61889" lon="2.09406">
        <ele>155.8</ele>
        <time>2023-03-05T13:59:21Z</time>
      </trkpt>
      <trkpt lat="48.61892" lon="2.09408">
        <ele>155.2</ele>
        <time>2023-03-05T13:59:23Z</time>
      </trkpt>
      <trkpt lat="48.61895" lon="2.0941">
        <ele>154.8</ele>
        <time>2023-03-05T13:59:25Z</time>
      </trkpt>
      <trkpt lat="48.61897" lon="2.09412">
        <ele>154.4</ele>
        <time>2023-03-05T13:59:27Z</time>
      </trkpt>
      <trkpt lat="48.619" lon="2.09415">
        <ele>153.8</ele>
        <time>2023-03-05T13:59:29Z</time>
      </trkpt>
      <trkpt lat="48.61902" lon="2.09418">
        <ele>153.2</ele>
        <time>2023-03-05T13:59:31Z</time>
      </trkpt>
      <trkpt lat="48.61905" lon="2.09421">
        <ele>152.6</ele>
        <time>2023-03-05T13:59:33Z</time>
      </trkpt>
      <trkpt lat="48.61907" lon="2.09423">
        <ele>152</ele>
        <time>2023-03-05T13:59:35Z</time>
      </trkpt>
      <trkpt lat="48.61909" lon="2.09425">
        <ele>151.4</ele>
        <time>2023-03-05T13:59:37Z</time>
      </trkpt>
      <trkpt lat="48.61912" lon="2.09428">
        <ele>150.8</ele>
        <time>2023-03-05T13:59:39Z</time>
      </trkpt>
      <trkpt lat="48.61915" lon="2.0943">
        <ele>150.2</ele>
        <time>2023-03-05T13:59:41Z</time>
      </trkpt>
      <trkpt lat="48.61918" lon="2.09433">
        <ele>149.6</ele>
        <time>2023-03-05T13:59:43Z</time>
      </trkpt>
      <trkpt lat="48.61921" lon="2.09435">
        <ele>149</ele>
        <time>2023-03-05T13:59:45Z</time>
      </trkpt>
      <trkpt lat="48.61924" lon="2.09437">
        <ele>148.4</ele>
        <time>2023-03-05T13:59:47Z</time>
      </trkpt>
      <trkpt lat="48.61927" lon="2.09439">
        <ele>147.8</ele>
        <time>2023-03-05T13:59:49Z</time>
        <extensions>
          <gpxtpx:TrackPointExtension xmlns:gpxtpx="http://www.garmin.com/xmlschemas/TrackPointExtension/v1">
            <gpxtpx:hr>105</gpxtpx:hr>
          </gpxtpx:TrackPointExtension>
        </extensions>
      </trkpt>
      <trkpt lat="48.6193" lon="2.09441">
        <ele>147.2</ele>
        <time>2023-03-05T13:59:51Z</time>
        <extensions>
          <gpxtpx:TrackPointExtension xmlns:gpxtpx="http://www.garmin.com/xmlschemas/TrackPointExtension/v1">
            <gpxtpx:hr>105</gpxtpx:hr>
          </gpxtpx:TrackPointExtension>
        </extensions>
      </trkpt>
      <trkpt lat="48.61933" lon="2.09444">
        <ele>146.6</ele>
        <time>2023-03-05T13:59:53Z</time>
        <extensions>
          <gpxtpx:TrackPointExtension xmlns:gpxtpx="http://www.garmin.com/xmlschemas/TrackPointExtension/v1">
            <gpxtpx:hr>105</gpxtpx:hr>
          </gpxtpx:TrackPointExtension>
        </extensions>
      </trkpt>
      <trkpt lat="48.61936" lon="2.09445">
        <ele>146</ele>
        <time>2023-03-05T13:59:55Z</time>
        <extensions>
          <gpxtpx:TrackPointExtension xmlns:gpxtpx="http://www.garmin.com/xmlschemas/TrackPointExtension/v1">
            <gpxtpx:hr>105</gpxtpx:hr>
          </gpxtpx:TrackPointExtension>
        </extensions>
      </trkpt>
      <trkpt lat="48.61938" lon="2.09447">
        <ele>145.6</ele>
        <time>2023-03-05T13:59:57Z</time>
        <extensions>
          <gpxtpx:TrackPointExtension xmlns:gpxtpx="http://www.garmin.com/xmlschemas/TrackPointExtension/v1">
            <gpxtpx:hr>105</gpxtpx:hr>
          </gpxtpx:TrackPointExtension>
        </extensions>
      </trkpt>
      <trkpt lat="48.6194" lon="2.09448">
        <ele>145</ele>
        <time>2023-03-05T13:59:59Z</time>
        <extensions>
          <gpxtpx:TrackPointExtension xmlns:gpxtpx="http://www.garmin.com/xmlschemas/TrackPointExtension/v1">
            <gpxtpx:hr>105</gpxtpx:hr>
          </gpxtpx:TrackPointExtension>
        </extensions>
      </trkpt>
      <trkpt lat="48.61943" lon="2.0945">
        <ele>144.6</ele>
        <time>2023-03-05T14:00:01Z</time>
        <extensions>
          <gpxtpx:TrackPointExtension xmlns:gpxtpx="http://www.garmin.com/xmlschemas/TrackPointExtension/v1">
            <gpxtpx:hr>105</gpxtpx:hr>
          </gpxtpx:TrackPointExtension>
        </extensions>
      </trkpt>
      <trkpt lat="48.61946" lon="2.09452">
        <ele>144</ele>
        <time>2023-03-05T14:00:03Z</time>
        <extensions>
          <gpxtpx:TrackPointExtension xmlns:gpxtpx="http://www.garmin.com/xmlschemas/TrackPointExtension/v1">
            <gpxtpx:hr>104</gpxtpx:hr>
          </gpxtpx:TrackPointExtension>
        </extensions>
      </trkpt>
      <trkpt lat="48.61948" lon="2.09453">
        <ele>143.6</ele>
        <time>2023-03-05T14:00:05Z</time>
      </trkpt>
      <trkpt lat="48.61951" lon="2.09455">
        <ele>143.2</ele>
        <time>2023-03-05T14:00:07Z</time>
      </trkpt>
      <trkpt lat="48.61954" lon="2.09457">
        <ele>142.8</ele>
        <time>2023-03-05T14:00:09Z</time>
      </trkpt>
      <trkpt lat="48.61956" lon="2.09458">
        <ele>142.6</ele>
        <time>2023-03-05T14:00:11Z</time>
      </trkpt>
      <trkpt lat="48.61959" lon="2.0946">
        <ele>142.4</ele>
        <time>2023-03-05T14:00:13Z</time>
      </trkpt>
      <trkpt lat="48.61961" lon="2.09462">
        <ele>142</ele>
        <time>2023-03-05T14:00:15Z</time>
      </trkpt>
      <trkpt lat="48.61964" lon="2.09465">
        <ele>141.8</ele>
        <time>2023-03-05T14:00:17Z</time>
      </trkpt>
      <trkpt lat="48.61966" lon="2.09467">
        <ele>141.6</ele>
        <time>2023-03-05T14:00:19Z</time>
      </trkpt>
      <trkpt lat="48.61968" lon="2.0947">
        <ele>141.2</ele>
        <time>2023-03-05T14:00:21Z</time>
      </trkpt>
      <trkpt lat="48.6197" lon="2.09472">
        <ele>140.8</ele>
        <time>2023-03-05T14:00:23Z</time>
      </trkpt>
      <trkpt lat="48.61972" lon="2.09474">
        <ele>140.4</ele>
        <time>2023-03-05T14:00:25Z</time>
      </trkpt>
      <trkpt lat="48.61974" lon="2.09476">
        <ele>140.2</ele>
        <time>2023-03-05T14:00:27Z</time>
      </trkpt>
      <trkpt lat="48.61976" lon="2.09478">
        <ele>139.8</ele>
        <time>2023-03-05T14:00:29Z</time>
      </trkpt>
      <trkpt lat="48.61979" lon="2.09481">
        <ele>139.6</ele>
        <time>2023-03-05T14:00:31Z</time>
      </trkpt>
      <trkpt lat="48.61981" lon="2.09484">
        <ele>139.4</ele>
        <time>2023-03-05T14:00:33Z</time>
      </trkpt>
      <trkpt lat="48.61984" lon="2.09487">
        <ele>139.2</ele>
        <time>2023-03-05T14:00:35Z</time>
      </trkpt>
      <trkpt lat="48.61986" lon="2.0949">
        <ele>138.8</ele>
        <time>2023-03-05T14:00:37Z</time>
      </trkpt>
      <trkpt lat="48.61988" lon="2.09494">
        <ele>138.6</ele>
        <time>2023-03-05T14:00:39Z</time>
      </trkpt>
      <trkpt lat="48.6199" lon="2.09498">
        <ele>138.6</ele>
        <time>2023-03-05T14:00:41Z</time>
      </trkpt>
      <trkpt lat="48.61991" lon="2.09502">
        <ele>138.6</ele>
        <time>2023-03-05T14:00:43Z</time>
      </trkpt>
      <trkpt lat="48.61993" lon="2.09505">
        <ele>138.6</ele>
        <time>2023-03-05T14:00:45Z</time>
      </trkpt>
      <trkpt lat="48.61994" lon="2.09507">
        <ele>138.6</ele>
        <time>2023-03-05T14:00:46Z</time>
      </trkpt>
      <trkpt lat="48.61995" lon="2.09511">
        <ele>138.4</ele>
        <time>2023-03-05T14:00:48Z</time>
      </trkpt>
      <trkpt lat="48.61997" lon="2.09514">
        <ele>138.4</ele>
        <time>2023-03-05T14:00:50Z</time>
      </trkpt>
      <trkpt lat="48.61999" lon="2.09517">
        <ele>138.2</ele>
        <time>2023-03-05T14:00:52Z</time>
      </trkpt>
      <trkpt lat="48.62001" lon="2.0952">
        <ele>138.2</ele>
        <time>2023-03-05T14:00:54Z</time>
      </trkpt>
      <trkpt lat="48.62003" lon="2.09523">
        <ele>138</ele>
        <time>2023-03-05T14:00:56Z</time>
      </trkpt>
      <trkpt lat="48.62004" lon="2.09525">
        <ele>138</ele>
        <time>2023-03-05T14:00:58Z</time>
      </trkpt>
      <trkpt lat="48.62005" lon="2.09528">
        <ele>137.8</ele>
        <time>2023-03-05T14:01:00Z</time>
      </trkpt>
      <trkpt lat="48.62006" lon="2.0953">
        <ele>137.8</ele>
        <time>2023-03-05T14:01:02Z</time>
      </trkpt>
      <trkpt lat="48.62008" lon="2.09532">
        <ele>137.8</ele>
        <time>2023-03-05T14:01:04Z</time>
      </trkpt>
      <trkpt lat="48.6201" lon="2.09533">
        <ele>137.8</ele>
        <time>2023-03-05T14:01:07Z</time>
      </trkpt>
      <trkpt lat="48.62012" lon="2.09531">
        <ele>137.8</ele>
        <time>2023-03-05T14:01:10Z</time>
      </trkpt>
      <trkpt lat="48.62014" lon="2.09529">
        <ele>137.8</ele>
        <time>2023-03-05T14:01:12Z</time>
      </trkpt>
      <trkpt lat="48.62015" lon="2.09526">
        <ele>137.8</ele>
        <time>2023-03-05T14:01:14Z</time>
      </trkpt>
      <trkpt lat="48.62017" lon="2.09522">
        <ele>137.8</ele>
        <time>2023-03-05T14:01:16Z</time>
      </trkpt>
      <trkpt lat="48.62018" lon="2.09518">
        <ele>138</ele>
        <time>2023-03-05T14:01:18Z</time>
      </trkpt>
      <trkpt lat="48.62019" lon="2.09514">
        <ele>138.2</ele>
        <time>2023-03-05T14:01:20Z</time>
      </trkpt>
      <trkpt lat="48.6202" lon="2.09511">
        <ele>138.2</ele>
        <time>2023-03-05T14:01:22Z</time>
      </trkpt>
      <trkpt lat="48.62022" lon="2.09507">
        <ele>138.4</ele>
        <time>2023-03-05T14:01:24Z</time>
      </trkpt>
      <trkpt lat="48.62024" lon="2.09503">
        <ele>138.4</ele>
        <time>2023-03-05T14:01:26Z</time>
      </trkpt>
      <trkpt lat="48.62025" lon="2.095">
        <ele>138.4</ele>
        <time>2023-03-05T14:01:28Z</time>
      </trkpt>
      <trkpt lat="48.62026" lon="2.09498">
        <ele>138.6</ele>
        <time>2023-03-05T14:01:30Z</time>
      </trkpt>
      <trkpt lat="48.62027" lon="2.09495">
        <ele>138.8</ele>
        <time>2023-03-05T14:01:32Z</time>
      </trkpt>
      <trkpt lat="48.62029" lon="2.09491">
        <ele>139.2</ele>
        <time>2023-03-05T14:01:34Z</time>
      </trkpt>
      <trkpt lat="48.62031" lon="2.09487">
        <ele>139.2</ele>
        <time>2023-03-05T14:01:36Z</time>
      </trkpt>
      <trkpt lat="48.62033" lon="2.09484">
        <ele>139.2</ele>
        <time>2023-03-05T14:01:38Z</time>
      </trkpt>
      <trkpt lat="48.62036" lon="2.0948">
        <ele>139</ele>
        <time>2023-03-05T14:01:40Z</time>
      </trkpt>
      <trkpt lat="48.62038" lon="2.09476">
        <ele>139</ele>
        <time>2023-03-05T14:01:42Z</time>
      </trkpt>
      <trkpt lat="48.6204" lon="2.09472">
        <ele>139</ele>
        <time>2023-03-05T14:01:44Z</time>
      </trkpt>
      <trkpt lat="48.62042" lon="2.09468">
        <ele>138.8</ele>
        <time>2023-03-05T14:01:46Z</time>
      </trkpt>
      <trkpt lat="48.62044" lon="2.09464">
        <ele>138.8</ele>
        <time>2023-03-05T14:01:48Z</time>
      </trkpt>
      <trkpt lat="48.62044" lon="2.0946">
        <ele>138.6</ele>
        <time>2023-03-05T14:01:50Z</time>
      </trkpt>
      <trkpt lat="48.62045" lon="2.09457">
        <ele>138.4</ele>
        <time>2023-03-05T14:01:52Z</time>
      </trkpt>
      <trkpt lat="48.62046" lon="2.09453">
        <ele>138.4</ele>
        <time>2023-03-05T14:01:54Z</time>
      </trkpt>
      <trkpt lat="48.62048" lon="2.09449">
        <ele>138.4</ele>
        <time>2023-03-05T14:01:56Z</time>
      </trkpt>
      <trkpt lat="48.6205" lon="2.09445">
        <ele>138.2</ele>
        <time>2023-03-05T14:01:58Z</time>
      </trkpt>
      <trkpt lat="48.62052" lon="2.09441">
        <ele>138</ele>
        <time>2023-03-05T14:02:00Z</time>
      </trkpt>
      <trkpt lat="48.62054" lon="2.09437">
        <ele>137.8</ele>
        <time>2023-03-05T14:02:02Z</time>
      </trkpt>
      <trkpt lat="48.62055" lon="2.09434">
        <ele>137.6</ele>
        <time>2023-03-05T14:02:04Z</time>
      </trkpt>
      <trkpt lat="48.62057" lon="2.09431">
        <ele>137.2</ele>
        <time>2023-03-05T14:02:06Z</time>
      </trkpt>
      <trkpt lat="48.62058" lon="2.09429">
        <ele>137</ele>
        <time>2023-03-05T14:02:08Z</time>
      </trkpt>
      <trkpt lat="48.6206" lon="2.09426">
        <ele>136.8</ele>
        <time>2023-03-05T14:02:10Z</time>
      </trkpt>
      <trkpt lat="48.62061" lon="2.09423">
        <ele>136.4</ele>
        <time>2023-03-05T14:02:12Z</time>
      </trkpt>
      <trkpt lat="48.62062" lon="2.0942">
        <ele>136.4</ele>
        <time>2023-03-05T14:02:14Z</time>
      </trkpt>
      <trkpt lat="48.62064" lon="2.09417">
        <ele>136.2</ele>
        <time>2023-03-05T14:02:16Z</time>
      </trkpt>
      <trkpt lat="48.62066" lon="2.09415">
        <ele>136</ele>
        <time>2023-03-05T14:02:18Z</time>
      </trkpt>
      <trkpt lat="48.62068" lon="2.09412">
        <ele>136</ele>
        <time>2023-03-05T14:02:20Z</time>
      </trkpt>
      <trkpt lat="48.6207" lon="2.09409">
        <ele>136</ele>
        <time>2023-03-05T14:02:22Z</time>
      </trkpt>
      <trkpt lat="48.62072" lon="2.09405">
        <ele>136.2</ele>
        <time>2023-03-05T14:02:24Z</time>
      </trkpt>
      <trkpt lat="48.62074" lon="2.09402">
        <ele>136.2</ele>
        <time>2023-03-05T14:02:26Z</time>
      </trkpt>
      <trkpt lat="48.62075" lon="2.094">
        <ele>136.2</ele>
        <time>2023-03-05T14:02:27Z</time>
      </trkpt>
      <trkpt lat="48.62077" lon="2.09396">
        <ele>136.2</ele>
        <time>2023-03-05T14:02:29Z</time>
      </trkpt>
      <trkpt lat="48.62078" lon="2.09394">
        <ele>136.4</ele>
        <time>2023-03-05T14:02:30Z</time>
      </trkpt>
      <trkpt lat="48.6208" lon="2.0939">
        <ele>136.4</ele>
        <time>2023-03-05T14:02:32Z</time>
      </trkpt>
      <trkpt lat="48.62083" lon="2.09387">
        <ele>136.4</ele>
        <time>2023-03-05T14:02:34Z</time>
      </trkpt>
      <trkpt lat="48.62084" lon="2.09383">
        <ele>136.4</ele>
        <time>2023-03-05T14:02:36Z</time>
      </trkpt>
      <trkpt lat="48.62086" lon="2.09379">
        <ele>136.6</ele>
        <time>2023-03-05T14:02:38Z</time>
      </trkpt>
      <trkpt lat="48.62088" lon="2.09375">
        <ele>136.4</ele>
        <time>2023-03-05T14:02:40Z</time>
      </trkpt>
      <trkpt lat="48.6209" lon="2.09371">
        <ele>136.4</ele>
        <time>2023-03-05T14:02:42Z</time>
      </trkpt>
      <trkpt lat="48.62091" lon="2.09368">
        <ele>136.4</ele>
        <time>2023-03-05T14:02:44Z</time>
      </trkpt>
      <trkpt lat="48.62092" lon="2.09365">
        <ele>136.4</ele>
        <time>2023-03-05T14:02:46Z</time>
      </trkpt>
      <trkpt lat="48.62092" lon="2.09361">
        <ele>136.4</ele>
        <time>2023-03-05T14:02:48Z</time>
      </trkpt>
      <trkpt lat="48.62094" lon="2.09357">
        <ele>136.4</ele>
        <time>2023-03-05T14:02:50Z</time>
      </trkpt>
      <trkpt lat="48.62095" lon="2.09355">
        <ele>136.4</ele>
        <time>2023-03-05T14:02:51Z</time>
      </trkpt>
      <trkpt lat="48.62097" lon="2.09352">
        <ele>136.4</ele>
        <time>2023-03-05T14:02:53Z</time>
      </trkpt>
      <trkpt lat="48.62098" lon="2.09348">
        <ele>136.4</ele>
        <time>2023-03-05T14:02:55Z</time>
      </trkpt>
      <trkpt lat="48.62099" lon="2.09345">
        <ele>136.4</ele>
        <time>2023-03-05T14:02:57Z</time>
      </trkpt>
      <trkpt lat="48.621" lon="2.09341">
        <ele>136.4</ele>
        <time>2023-03-05T14:02:59Z</time>
      </trkpt>
      <trkpt lat="48.62103" lon="2.09338">
        <ele>136.4</ele>
        <time>2023-03-05T14:03:01Z</time>
      </trkpt>
      <trkpt lat="48.62105" lon="2.09334">
        <ele>136.6</ele>
        <time>2023-03-05T14:03:03Z</time>
      </trkpt>
      <trkpt lat="48.62108" lon="2.0933">
        <ele>136.6</ele>
        <time>2023-03-05T14:03:05Z</time>
      </trkpt>
      <trkpt lat="48.62108" lon="2.09327">
        <ele>136.4</ele>
        <time>2023-03-05T14:03:06Z</time>
      </trkpt>
      <trkpt lat="48.6211" lon="2.09325">
        <ele>136.4</ele>
        <time>2023-03-05T14:03:07Z</time>
      </trkpt>
      <trkpt lat="48.6211" lon="2.09322">
        <ele>136.4</ele>
        <time>2023-03-05T14:03:08Z</time>
      </trkpt>
      <trkpt lat="48.62111" lon="2.09319">
        <ele>136.4</ele>
        <time>2023-03-05T14:03:09Z</time>
      </trkpt>
      <trkpt lat="48.62113" lon="2.09314">
        <ele>136.2</ele>
        <time>2023-03-05T14:03:11Z</time>
      </trkpt>
      <trkpt lat="48.62114" lon="2.0931">
        <ele>136.2</ele>
        <time>2023-03-05T14:03:13Z</time>
      </trkpt>
      <trkpt lat="48.62116" lon="2.09307">
        <ele>136.2</ele>
        <time>2023-03-05T14:03:15Z</time>
      </trkpt>
      <trkpt lat="48.62117" lon="2.09304">
        <ele>136.4</ele>
        <time>2023-03-05T14:03:17Z</time>
      </trkpt>
      <trkpt lat="48.62119" lon="2.09301">
        <ele>136.4</ele>
        <time>2023-03-05T14:03:19Z</time>
      </trkpt>
      <trkpt lat="48.6212" lon="2.09299">
        <ele>136.4</ele>
        <time>2023-03-05T14:03:21Z</time>
      </trkpt>
      <trkpt lat="48.62121" lon="2.09296">
        <ele>136.4</ele>
        <time>2023-03-05T14:03:23Z</time>
      </trkpt>
      <trkpt lat="48.62122" lon="2.09293">
        <ele>136.4</ele>
        <time>2023-03-05T14:03:25Z</time>
      </trkpt>
      <trkpt lat="48.62123" lon="2.0929">
        <ele>136.4</ele>
        <time>2023-03-05T14:03:27Z</time>
      </trkpt>
      <trkpt lat="48.62124" lon="2.09286">
        <ele>136.4</ele>
        <time>2023-03-05T14:03:29Z</time>
      </trkpt>
      <trkpt lat="48.62126" lon="2.09283">
        <ele>136.4</ele>
        <time>2023-03-05T14:03:31Z</time>
      </trkpt>
      <trkpt lat="48.62128" lon="2.09279">
        <ele>136.6</ele>
        <time>2023-03-05T14:03:33Z</time>
      </trkpt>
      <trkpt lat="48.6213" lon="2.09277">
        <ele>136.6</ele>
        <time>2023-03-05T14:03:34Z</time>
      </trkpt>
      <trkpt lat="48.62131" lon="2.09274">
        <ele>136.6</ele>
        <time>2023-03-05T14:03:35Z</time>
      </trkpt>
      <trkpt lat="48.62133" lon="2.0927">
        <ele>136.8</ele>
        <time>2023-03-05T14:03:37Z</time>
      </trkpt>
      <trkpt lat="48.62134" lon="2.09266">
        <ele>136.8</ele>
        <time>2023-03-05T14:03:39Z</time>
      </trkpt>
      <trkpt lat="48.62136" lon="2.09262">
        <ele>136.8</ele>
        <time>2023-03-05T14:03:41Z</time>
      </trkpt>
      <trkpt lat="48.62137" lon="2.09259">
        <ele>137</ele>
        <time>2023-03-05T14:03:43Z</time>
      </trkpt>
      <trkpt lat="48.62138" lon="2.09256">
        <ele>137.2</ele>
        <time>2023-03-05T14:03:45Z</time>
      </trkpt>
      <trkpt lat="48.62139" lon="2.09253">
        <ele>137.6</ele>
        <time>2023-03-05T14:03:47Z</time>
      </trkpt>
      <trkpt lat="48.6214" lon="2.0925">
        <ele>137.8</ele>
        <time>2023-03-05T14:03:49Z</time>
      </trkpt>
      <trkpt lat="48.62142" lon="2.09247">
        <ele>138</ele>
        <time>2023-03-05T14:03:51Z</time>
      </trkpt>
      <trkpt lat="48.62143" lon="2.09244">
        <ele>138.2</ele>
        <time>2023-03-05T14:03:53Z</time>
      </trkpt>
      <trkpt lat="48.62145" lon="2.09241">
        <ele>138.6</ele>
        <time>2023-03-05T14:03:55Z</time>
      </trkpt>
      <trkpt lat="48.62146" lon="2.09238">
        <ele>138.8</ele>
        <time>2023-03-05T14:03:57Z</time>
      </trkpt>
      <trkpt lat="48.62148" lon="2.09234">
        <ele>139</ele>
        <time>2023-03-05T14:03:59Z</time>
      </trkpt>
      <trkpt lat="48.62149" lon="2.09231">
        <ele>139.2</ele>
        <time>2023-03-05T14:04:01Z</time>
      </trkpt>
      <trkpt lat="48.62151" lon="2.09227">
        <ele>139.4</ele>
        <time>2023-03-05T14:04:03Z</time>
      </trkpt>
      <trkpt lat="48.62153" lon="2.09224">
        <ele>139.4</ele>
        <time>2023-03-05T14:04:05Z</time>
      </trkpt>
      <trkpt lat="48.62154" lon="2.09221">
        <ele>139.6</ele>
        <time>2023-03-05T14:04:07Z</time>
      </trkpt>
      <trkpt lat="48.62156" lon="2.09217">
        <ele>139.6</ele>
        <time>2023-03-05T14:04:09Z</time>
      </trkpt>
      <trkpt lat="48.62157" lon="2.09213">
        <ele>139.4</ele>
        <time>2023-03-05T14:04:11Z</time>
      </trkpt>
      <trkpt lat="48.62159" lon="2.0921">
        <ele>139.4</ele>
        <time>2023-03-05T14:04:13Z</time>
      </trkpt>
      <trkpt lat="48.62161" lon="2.09207">
        <ele>139.4</ele>
        <time>2023-03-05T14:04:15Z</time>
      </trkpt>
      <trkpt lat="48.62164" lon="2.09205">
        <ele>139.4</ele>
        <time>2023-03-05T14:04:17Z</time>
      </trkpt>
      <trkpt lat="48.62166" lon="2.09204">
        <ele>139.8</ele>
        <time>2023-03-05T14:04:19Z</time>
      </trkpt>
      <trkpt lat="48.62169" lon="2.09204">
        <ele>140</ele>
        <time>2023-03-05T14:04:21Z</time>
      </trkpt>
      <trkpt lat="48.62172" lon="2.09205">
        <ele>140.4</ele>
        <time>2023-03-05T14:04:23Z</time>
      </trkpt>
      <trkpt lat="48.62174" lon="2.09207">
        <ele>140.6</ele>
        <time>2023-03-05T14:04:25Z</time>
      </trkpt>
      <trkpt lat="48.62177" lon="2.09209">
        <ele>140.8</ele>
        <time>2023-03-05T14:04:27Z</time>
      </trkpt>
      <trkpt lat="48.6218" lon="2.0921">
        <ele>141.2</ele>
        <time>2023-03-05T14:04:29Z</time>
      </trkpt>
      <trkpt lat="48.62184" lon="2.09212">
        <ele>141.4</ele>
        <time>2023-03-05T14:04:31Z</time>
      </trkpt>
      <trkpt lat="48.62187" lon="2.09213">
        <ele>141.6</ele>
        <time>2023-03-05T14:04:32Z</time>
      </trkpt>
      <trkpt lat="48.62188" lon="2.09214">
        <ele>141.8</ele>
        <time>2023-03-05T14:04:33Z</time>
      </trkpt>
      <trkpt lat="48.6219" lon="2.09215">
        <ele>142</ele>
        <time>2023-03-05T14:04:34Z</time>
      </trkpt>
      <trkpt lat="48.62193" lon="2.09217">
        <ele>142.4</ele>
        <time>2023-03-05T14:04:36Z</time>
      </trkpt>
      <trkpt lat="48.62196" lon="2.09219">
        <ele>142.6</ele>
        <time>2023-03-05T14:04:38Z</time>
      </trkpt>
      <trkpt lat="48.62199" lon="2.09221">
        <ele>143</ele>
        <time>2023-03-05T14:04:40Z</time>
      </trkpt>
      <trkpt lat="48.62202" lon="2.09223">
        <ele>143.2</ele>
        <time>2023-03-05T14:04:42Z</time>
      </trkpt>
      <trkpt lat="48.62204" lon="2.09226">
        <ele>143.6</ele>
        <time>2023-03-05T14:04:44Z</time>
      </trkpt>
      <trkpt lat="48.62207" lon="2.09229">
        <ele>143.8</ele>
        <time>2023-03-05T14:04:46Z</time>
      </trkpt>
      <trkpt lat="48.62209" lon="2.0923">
        <ele>144</ele>
        <time>2023-03-05T14:04:47Z</time>
      </trkpt>
      <trkpt lat="48.62211" lon="2.09233">
        <ele>144.2</ele>
        <time>2023-03-05T14:04:49Z</time>
      </trkpt>
      <trkpt lat="48.62212" lon="2.09234">
        <ele>144.4</ele>
        <time>2023-03-05T14:04:50Z</time>
      </trkpt>
      <trkpt lat="48.62215" lon="2.09237">
        <ele>144.8</ele>
        <time>2023-03-05T14:04:52Z</time>
      </trkpt>
      <trkpt lat="48.62216" lon="2.09238">
        <ele>145</ele>
        <time>2023-03-05T14:04:53Z</time>
      </trkpt>
      <trkpt lat="48.62219" lon="2.09241">
        <ele>145.2</ele>
        <time>2023-03-05T14:04:55Z</time>
      </trkpt>
      <trkpt lat="48.6222" lon="2.09244">
        <ele>145.4</ele>
        <time>2023-03-05T14:04:57Z</time>
      </trkpt>
      <trkpt lat="48.62223" lon="2.09246">
        <ele>145.8</ele>
        <time>2023-03-05T14:04:59Z</time>
      </trkpt>
      <trkpt lat="48.62226" lon="2.09248">
        <ele>146</ele>
        <time>2023-03-05T14:05:01Z</time>
      </trkpt>
      <trkpt lat="48.62229" lon="2.0925">
        <ele>146.2</ele>
        <time>2023-03-05T14:05:03Z</time>
      </trkpt>
      <trkpt lat="48.62232" lon="2.09253">
        <ele>146.4</ele>
        <time>2023-03-05T14:05:05Z</time>
      </trkpt>
      <trkpt lat="48.62235" lon="2.09256">
        <ele>146.6</ele>
        <time>2023-03-05T14:05:07Z</time>
      </trkpt>
      <trkpt lat="48.62237" lon="2.09257">
        <ele>146.6</ele>
        <time>2023-03-05T14:05:08Z</time>
      </trkpt>
      <trkpt lat="48.62238" lon="2.09259">
        <ele>146.6</ele>
        <time>2023-03-05T14:05:09Z</time>
      </trkpt>
      <trkpt lat="48.62241" lon="2.09262">
        <ele>146.8</ele>
        <time>2023-03-05T14:05:11Z</time>
      </trkpt>
      <trkpt lat="48.62243" lon="2.09264">
        <ele>146.8</ele>
        <time>2023-03-05T14:05:12Z</time>
      </trkpt>
      <trkpt lat="48.62245" lon="2.09267">
        <ele>146.8</ele>
        <time>2023-03-05T14:05:14Z</time>
      </trkpt>
      <trkpt lat="48.62248" lon="2.09269">
        <ele>147</ele>
        <time>2023-03-05T14:05:16Z</time>
      </trkpt>
      <trkpt lat="48.62251" lon="2.09272">
        <ele>147</ele>
        <time>2023-03-05T14:05:18Z</time>
      </trkpt>
      <trkpt lat="48.62253" lon="2.09274">
        <ele>147.2</ele>
        <time>2023-03-05T14:05:20Z</time>
      </trkpt>
      <trkpt lat="48.62256" lon="2.09276">
        <ele>147.2</ele>
        <time>2023-03-05T14:05:22Z</time>
      </trkpt>
      <trkpt lat="48.62259" lon="2.09278">
        <ele>147.2</ele>
        <time>2023-03-05T14:05:24Z</time>
      </trkpt>
      <trkpt lat="48.62261" lon="2.0928">
        <ele>147.2</ele>
        <time>2023-03-05T14:05:26Z</time>
      </trkpt>
      <trkpt lat="48.62263" lon="2.09282">
        <ele>147.4</ele>
        <time>2023-03-05T14:05:28Z</time>
      </trkpt>
      <trkpt lat="48.62265" lon="2.09285">
        <ele>147.4</ele>
        <time>2023-03-05T14:05:31Z</time>
      </trkpt>
      <trkpt lat="48.62267" lon="2.09288">
        <ele>147.2</ele>
        <time>2023-03-05T14:05:34Z</time>
      </trkpt>
      <trkpt lat="48.62268" lon="2.0929">
        <ele>146.8</ele>
        <time>2023-03-05T14:05:36Z</time>
      </trkpt>
      <trkpt lat="48.62268" lon="2.09293">
        <ele>146.4</ele>
        <time>2023-03-05T14:05:39Z</time>
      </trkpt>
      <trkpt lat="48.6227" lon="2.09294">
        <ele>146.4</ele>
        <time>2023-03-05T14:05:41Z</time>
      </trkpt>
      <trkpt lat="48.62272" lon="2.09297">
        <ele>146.2</ele>
        <time>2023-03-05T14:05:43Z</time>
      </trkpt>
      <trkpt lat="48.62274" lon="2.093">
        <ele>146</ele>
        <time>2023-03-05T14:05:45Z</time>
      </trkpt>
      <trkpt lat="48.62276" lon="2.09301">
        <ele>146</ele>
        <time>2023-03-05T14:05:46Z</time>
      </trkpt>
      <trkpt lat="48.62278" lon="2.09305">
        <ele>146</ele>
        <time>2023-03-05T14:05:48Z</time>
      </trkpt>
      <trkpt lat="48.62281" lon="2.09308">
        <ele>145.8</ele>
        <time>2023-03-05T14:05:50Z</time>
      </trkpt>
      <trkpt lat="48.62284" lon="2.09312">
        <ele>145.6</ele>
        <time>2023-03-05T14:05:52Z</time>
      </trkpt>
      <trkpt lat="48.62286" lon="2.09316">
        <ele>145.4</ele>
        <time>2023-03-05T14:05:54Z</time>
      </trkpt>
      <trkpt lat="48.62288" lon="2.09317">
        <ele>145.2</ele>
        <time>2023-03-05T14:05:55Z</time>
      </trkpt>
      <trkpt lat="48.62291" lon="2.09321">
        <ele>145</ele>
        <time>2023-03-05T14:05:57Z</time>
      </trkpt>
      <trkpt lat="48.62292" lon="2.09323">
        <ele>144.8</ele>
        <time>2023-03-05T14:05:58Z</time>
      </trkpt>
      <trkpt lat="48.62294" lon="2.09326">
        <ele>144.4</ele>
        <time>2023-03-05T14:06:00Z</time>
      </trkpt>
      <trkpt lat="48.62297" lon="2.09329">
        <ele>144</ele>
        <time>2023-03-05T14:06:02Z</time>
      </trkpt>
      <trkpt lat="48.62299" lon="2.09332">
        <ele>143.6</ele>
        <time>2023-03-05T14:06:04Z</time>
      </trkpt>
      <trkpt lat="48.62301" lon="2.09335">
        <ele>143.2</ele>
        <time>2023-03-05T14:06:06Z</time>
      </trkpt>
      <trkpt lat="48.62303" lon="2.09337">
        <ele>142.8</ele>
        <time>2023-03-05T14:06:08Z</time>
      </trkpt>
      <trkpt lat="48.62305" lon="2.0934">
        <ele>142.6</ele>
        <time>2023-03-05T14:06:10Z</time>
      </trkpt>
      <trkpt lat="48.62307" lon="2.09342">
        <ele>142.4</ele>
        <time>2023-03-05T14:06:12Z</time>
      </trkpt>
      <trkpt lat="48.6231" lon="2.09344">
        <ele>142</ele>
        <time>2023-03-05T14:06:14Z</time>
      </trkpt>
      <trkpt lat="48.62312" lon="2.09347">
        <ele>141.6</ele>
        <time>2023-03-05T14:06:16Z</time>
      </trkpt>
      <trkpt lat="48.62315" lon="2.0935">
        <ele>141.4</ele>
        <time>2023-03-05T14:06:18Z</time>
      </trkpt>
      <trkpt lat="48.62316" lon="2.09351">
        <ele>141.2</ele>
        <time>2023-03-05T14:06:19Z</time>
      </trkpt>
      <trkpt lat="48.62319" lon="2.09353">
        <ele>141</ele>
        <time>2023-03-05T14:06:21Z</time>
      </trkpt>
      <trkpt lat="48.62322" lon="2.09355">
        <ele>141</ele>
        <time>2023-03-05T14:06:23Z</time>
      </trkpt>
      <trkpt lat="48.62324" lon="2.09357">
        <ele>140.8</ele>
        <time>2023-03-05T14:06:25Z</time>
      </trkpt>
      <trkpt lat="48.62327" lon="2.09358">
        <ele>140.8</ele>
        <time>2023-03-05T14:06:27Z</time>
      </trkpt>
      <trkpt lat="48.62329" lon="2.09361">
        <ele>140.6</ele>
        <time>2023-03-05T14:06:29Z</time>
      </trkpt>
      <trkpt lat="48.62332" lon="2.09363">
        <ele>140.6</ele>
        <time>2023-03-05T14:06:31Z</time>
      </trkpt>
      <trkpt lat="48.62334" lon="2.09367">
        <ele>140.4</ele>
        <time>2023-03-05T14:06:33Z</time>
      </trkpt>
      <trkpt lat="48.62337" lon="2.0937">
        <ele>140.4</ele>
        <time>2023-03-05T14:06:35Z</time>
      </trkpt>
      <trkpt lat="48.62339" lon="2.09373">
        <ele>140.4</ele>
        <time>2023-03-05T14:06:37Z</time>
      </trkpt>
      <trkpt lat="48.62341" lon="2.09376">
        <ele>140.2</ele>
        <time>2023-03-05T14:06:39Z</time>
      </trkpt>
      <trkpt lat="48.62343" lon="2.09378">
        <ele>140.2</ele>
        <time>2023-03-05T14:06:41Z</time>
      </trkpt>
      <trkpt lat="48.62346" lon="2.09381">
        <ele>140.2</ele>
        <time>2023-03-05T14:06:43Z</time>
      </trkpt>
      <trkpt lat="48.62348" lon="2.09383">
        <ele>140</ele>
        <time>2023-03-05T14:06:45Z</time>
      </trkpt>
      <trkpt lat="48.6235" lon="2.09386">
        <ele>139.8</ele>
        <time>2023-03-05T14:06:47Z</time>
      </trkpt>
      <trkpt lat="48.62353" lon="2.09388">
        <ele>139.6</ele>
        <time>2023-03-05T14:06:49Z</time>
      </trkpt>
      <trkpt lat="48.62355" lon="2.09391">
        <ele>139.4</ele>
        <time>2023-03-05T14:06:51Z</time>
      </trkpt>
      <trkpt lat="48.62358" lon="2.09393">
        <ele>139.2</ele>
        <time>2023-03-05T14:06:53Z</time>
      </trkpt>
      <trkpt lat="48.62361" lon="2.09396">
        <ele>139</ele>
        <time>2023-03-05T14:06:55Z</time>
      </trkpt>
      <trkpt lat="48.62363" lon="2.09399">
        <ele>138.6</ele>
        <time>2023-03-05T14:06:57Z</time>
      </trkpt>
      <trkpt lat="48.62365" lon="2.09402">
        <ele>138.4</ele>
        <time>2023-03-05T14:06:59Z</time>
      </trkpt>
      <trkpt lat="48.62368" lon="2.09405">
        <ele>138.2</ele>
        <time>2023-03-05T14:07:01Z</time>
      </trkpt>
      <trkpt lat="48.62371" lon="2.09408">
        <ele>138</ele>
        <time>2023-03-05T14:07:03Z</time>
      </trkpt>
      <trkpt lat="48.62373" lon="2.09411">
        <ele>137.8</ele>
        <time>2023-03-05T14:07:05Z</time>
      </trkpt>
      <trkpt lat="48.62375" lon="2.09413">
        <ele>137.6</ele>
        <time>2023-03-05T14:07:07Z</time>
      </trkpt>
      <trkpt lat="48.62378" lon="2.09416">
        <ele>137.4</ele>
        <time>2023-03-05T14:07:09Z</time>
      </trkpt>
      <trkpt lat="48.6238" lon="2.09418">
        <ele>137.2</ele>
        <time>2023-03-05T14:07:11Z</time>
      </trkpt>
      <trkpt lat="48.62382" lon="2.09421">
        <ele>136.8</ele>
        <time>2023-03-05T14:07:13Z</time>
      </trkpt>
      <trkpt lat="48.62384" lon="2.09422">
        <ele>136.6</ele>
        <time>2023-03-05T14:07:14Z</time>
      </trkpt>
      <trkpt lat="48.62386" lon="2.09424">
        <ele>136.2</ele>
        <time>2023-03-05T14:07:16Z</time>
      </trkpt>
      <trkpt lat="48.62388" lon="2.09427">
        <ele>136</ele>
        <time>2023-03-05T14:07:18Z</time>
      </trkpt>
      <trkpt lat="48.62391" lon="2.0943">
        <ele>135.6</ele>
        <time>2023-03-05T14:07:20Z</time>
      </trkpt>
      <trkpt lat="48.62394" lon="2.09433">
        <ele>135.2</ele>
        <time>2023-03-05T14:07:22Z</time>
      </trkpt>
      <trkpt lat="48.62396" lon="2.09436">
        <ele>134.8</ele>
        <time>2023-03-05T14:07:24Z</time>
      </trkpt>
      <trkpt lat="48.62398" lon="2.09439">
        <ele>134.4</ele>
        <time>2023-03-05T14:07:26Z</time>
      </trkpt>
      <trkpt lat="48.624" lon="2.09441">
        <ele>134</ele>
        <time>2023-03-05T14:07:28Z</time>
      </trkpt>
      <trkpt lat="48.62403" lon="2.09443">
        <ele>133.6</ele>
        <time>2023-03-05T14:07:30Z</time>
      </trkpt>
      <trkpt lat="48.62405" lon="2.09446">
        <ele>133.4</ele>
        <time>2023-03-05T14:07:32Z</time>
      </trkpt>
      <trkpt lat="48.62408" lon="2.09448">
        <ele>133</ele>
        <time>2023-03-05T14:07:34Z</time>
      </trkpt>
      <trkpt lat="48.6241" lon="2.0945">
        <ele>132.8</ele>
        <time>2023-03-05T14:07:36Z</time>
      </trkpt>
      <trkpt lat="48.62412" lon="2.09452">
        <ele>132.6</ele>
        <time>2023-03-05T14:07:38Z</time>
      </trkpt>
      <trkpt lat="48.62414" lon="2.09455">
        <ele>132.4</ele>
        <time>2023-03-05T14:07:40Z</time>
      </trkpt>
      <trkpt lat="48.62416" lon="2.09457">
        <ele>132.2</ele>
        <time>2023-03-05T14:07:42Z</time>
      </trkpt>
      <trkpt lat="48.62418" lon="2.09459">
        <ele>132</ele>
        <time>2023-03-05T14:07:44Z</time>
      </trkpt>
      <trkpt lat="48.62421" lon="2.09461">
        <ele>131.8</ele>
        <time>2023-03-05T14:07:46Z</time>
      </trkpt>
      <trkpt lat="48.62423" lon="2.09463">
        <ele>131.6</ele>
        <time>2023-03-05T14:07:48Z</time>
      </trkpt>
      <trkpt lat="48.62426" lon="2.09466">
        <ele>131.4</ele>
        <time>2023-03-05T14:07:50Z</time>
      </trkpt>
      <trkpt lat="48.62428" lon="2.09468">
        <ele>131.2</ele>
        <time>2023-03-05T14:07:52Z</time>
      </trkpt>
      <trkpt lat="48.62431" lon="2.0947">
        <ele>131</ele>
        <time>2023-03-05T14:07:54Z</time>
      </trkpt>
      <trkpt lat="48.62433" lon="2.09473">
        <ele>130.8</ele>
        <time>2023-03-05T14:07:56Z</time>
      </trkpt>
      <trkpt lat="48.62435" lon="2.09476">
        <ele>130.6</ele>
        <time>2023-03-05T14:07:58Z</time>
      </trkpt>
      <trkpt lat="48.62437" lon="2.09477">
        <ele>130.6</ele>
        <time>2023-03-05T14:07:59Z</time>
      </trkpt>
      <trkpt lat="48.62439" lon="2.0948">
        <ele>130.4</ele>
        <time>2023-03-05T14:08:01Z</time>
      </trkpt>
      <trkpt lat="48.62441" lon="2.09481">
        <ele>130.2</ele>
        <time>2023-03-05T14:08:02Z</time>
      </trkpt>
      <trkpt lat="48.62443" lon="2.09484">
        <ele>130</ele>
        <time>2023-03-05T14:08:04Z</time>
      </trkpt>
      <trkpt lat="48.62445" lon="2.09487">
        <ele>129.8</ele>
        <time>2023-03-05T14:08:06Z</time>
      </trkpt>
      <trkpt lat="48.62447" lon="2.09489">
        <ele>129.8</ele>
        <time>2023-03-05T14:08:08Z</time>
      </trkpt>
      <trkpt lat="48.62449" lon="2.09491">
        <ele>129.6</ele>
        <time>2023-03-05T14:08:09Z</time>
      </trkpt>
      <trkpt lat="48.62452" lon="2.09493">
        <ele>129.4</ele>
        <time>2023-03-05T14:08:11Z</time>
      </trkpt>
      <trkpt lat="48.62453" lon="2.09494">
        <ele>129.4</ele>
        <time>2023-03-05T14:08:12Z</time>
      </trkpt>
      <trkpt lat="48.62457" lon="2.09497">
        <ele>129.2</ele>
        <time>2023-03-05T14:08:14Z</time>
      </trkpt>
      <trkpt lat="48.6246" lon="2.09499">
        <ele>129.2</ele>
        <time>2023-03-05T14:08:16Z</time>
      </trkpt>
      <trkpt lat="48.62463" lon="2.09502">
        <ele>129</ele>
        <time>2023-03-05T14:08:18Z</time>
      </trkpt>
      <trkpt lat="48.62465" lon="2.09504">
        <ele>129</ele>
        <time>2023-03-05T14:08:20Z</time>
      </trkpt>
      <trkpt lat="48.62468" lon="2.09506">
        <ele>128.8</ele>
        <time>2023-03-05T14:08:22Z</time>
      </trkpt>
      <trkpt lat="48.62471" lon="2.09508">
        <ele>128.8</ele>
        <time>2023-03-05T14:08:24Z</time>
      </trkpt>
      <trkpt lat="48.62473" lon="2.09511">
        <ele>128.6</ele>
        <time>2023-03-05T14:08:26Z</time>
      </trkpt>
      <trkpt lat="48.62475" lon="2.09513">
        <ele>128.6</ele>
        <time>2023-03-05T14:08:28Z</time>
      </trkpt>
      <trkpt lat="48.62477" lon="2.09515">
        <ele>128.4</ele>
        <time>2023-03-05T14:08:30Z</time>
      </trkpt>
      <trkpt lat="48.6248" lon="2.09518">
        <ele>128.4</ele>
        <time>2023-03-05T14:08:32Z</time>
      </trkpt>
      <trkpt lat="48.62483" lon="2.0952">
        <ele>128.4</ele>
        <time>2023-03-05T14:08:34Z</time>
      </trkpt>
      <trkpt lat="48.62486" lon="2.09522">
        <ele>128.4</ele>
        <time>2023-03-05T14:08:36Z</time>
      </trkpt>
      <trkpt lat="48.62489" lon="2.09524">
        <ele>128.4</ele>
        <time>2023-03-05T14:08:38Z</time>
      </trkpt>
      <trkpt lat="48.62491" lon="2.09525">
        <ele>128.4</ele>
        <time>2023-03-05T14:08:40Z</time>
      </trkpt>
      <trkpt lat="48.62492" lon="2.09526">
        <ele>128.4</ele>
        <time>2023-03-05T14:08:42Z</time>
      </trkpt>
      <trkpt lat="48.62494" lon="2.09528">
        <ele>128.4</ele>
        <time>2023-03-05T14:08:44Z</time>
      </trkpt>
      <trkpt lat="48.62496" lon="2.09531">
        <ele>128.4</ele>
        <time>2023-03-05T14:08:46Z</time>
      </trkpt>
      <trkpt lat="48.62499" lon="2.09533">
        <ele>128.4</ele>
        <time>2023-03-05T14:08:48Z</time>
      </trkpt>
      <trkpt lat="48.625" lon="2.09536">
        <ele>128.6</ele>
        <time>2023-03-05T14:08:50Z</time>
      </trkpt>
      <trkpt lat="48.62503" lon="2.09539">
        <ele>128.6</ele>
        <time>2023-03-05T14:08:52Z</time>
      </trkpt>
      <trkpt lat="48.62505" lon="2.09542">
        <ele>128.4</ele>
        <time>2023-03-05T14:08:54Z</time>
      </trkpt>
      <trkpt lat="48.62507" lon="2.09545">
        <ele>128.4</ele>
        <time>2023-03-05T14:08:56Z</time>
      </trkpt>
      <trkpt lat="48.62509" lon="2.09546">
        <ele>128.4</ele>
        <time>2023-03-05T14:08:57Z</time>
      </trkpt>
      <trkpt lat="48.6251" lon="2.09548">
        <ele>128.4</ele>
        <time>2023-03-05T14:08:58Z</time>
      </trkpt>
      <trkpt lat="48.62513" lon="2.0955">
        <ele>128.4</ele>
        <time>2023-03-05T14:09:00Z</time>
      </trkpt>
      <trkpt lat="48.62516" lon="2.09553">
        <ele>128.4</ele>
        <time>2023-03-05T14:09:02Z</time>
      </trkpt>
      <trkpt lat="48.62518" lon="2.09555">
        <ele>128.4</ele>
        <time>2023-03-05T14:09:04Z</time>
      </trkpt>
      <trkpt lat="48.62521" lon="2.09558">
        <ele>128.4</ele>
        <time>2023-03-05T14:09:06Z</time>
      </trkpt>
      <trkpt lat="48.62523" lon="2.09561">
        <ele>128.2</ele>
        <time>2023-03-05T14:09:08Z</time>
      </trkpt>
      <trkpt lat="48.62525" lon="2.09563">
        <ele>128.2</ele>
        <time>2023-03-05T14:09:10Z</time>
      </trkpt>
      <trkpt lat="48.62526" lon="2.09566">
        <ele>128.2</ele>
        <time>2023-03-05T14:09:12Z</time>
      </trkpt>
      <trkpt lat="48.62528" lon="2.09569">
        <ele>128.2</ele>
        <time>2023-03-05T14:09:14Z</time>
      </trkpt>
      <trkpt lat="48.6253" lon="2.09571">
        <ele>128.2</ele>
        <time>2023-03-05T14:09:16Z</time>
      </trkpt>
      <trkpt lat="48.62532" lon="2.09574">
        <ele>128.2</ele>
        <time>2023-03-05T14:09:18Z</time>
      </trkpt>
      <trkpt lat="48.62534" lon="2.09577">
        <ele>128.2</ele>
        <time>2023-03-05T14:09:20Z</time>
      </trkpt>
      <trkpt lat="48.62537" lon="2.0958">
        <ele>128</ele>
        <time>2023-03-05T14:09:22Z</time>
      </trkpt>
      <trkpt lat="48.62538" lon="2.09582">
        <ele>128</ele>
        <time>2023-03-05T14:09:23Z</time>
      </trkpt>
      <trkpt lat="48.6254" lon="2.09584">
        <ele>128</ele>
        <time>2023-03-05T14:09:25Z</time>
      </trkpt>
      <trkpt lat="48.62543" lon="2.09586">
        <ele>128</ele>
        <time>2023-03-05T14:09:27Z</time>
      </trkpt>
      <trkpt lat="48.62545" lon="2.09589">
        <ele>127.8</ele>
        <time>2023-03-05T14:09:29Z</time>
      </trkpt>
      <trkpt lat="48.62547" lon="2.09591">
        <ele>127.8</ele>
        <time>2023-03-05T14:09:31Z</time>
      </trkpt>
      <trkpt lat="48.62549" lon="2.09593">
        <ele>127.8</ele>
        <time>2023-03-05T14:09:33Z</time>
      </trkpt>
      <trkpt lat="48.62552" lon="2.09596">
        <ele>127.8</ele>
        <time>2023-03-05T14:09:35Z</time>
      </trkpt>
      <trkpt lat="48.62554" lon="2.09599">
        <ele>127.8</ele>
        <time>2023-03-05T14:09:37Z</time>
      </trkpt>
      <trkpt lat="48.62556" lon="2.09602">
        <ele>127.8</ele>
        <time>2023-03-05T14:09:39Z</time>
      </trkpt>
      <trkpt lat="48.62558" lon="2.09605">
        <ele>127.6</ele>
        <time>2023-03-05T14:09:41Z</time>
      </trkpt>
      <trkpt lat="48.6256" lon="2.09608">
        <ele>127.6</ele>
        <time>2023-03-05T14:09:43Z</time>
      </trkpt>
      <trkpt lat="48.62562" lon="2.09611">
        <ele>127.4</ele>
        <time>2023-03-05T14:09:45Z</time>
      </trkpt>
      <trkpt lat="48.62564" lon="2.09614">
        <ele>127.4</ele>
        <time>2023-03-05T14:09:47Z</time>
      </trkpt>
      <trkpt lat="48.62566" lon="2.09616">
        <ele>127.2</ele>
        <time>2023-03-05T14:09:49Z</time>
      </trkpt>
      <trkpt lat="48.62568" lon="2.09619">
        <ele>127.2</ele>
        <time>2023-03-05T14:09:51Z</time>
      </trkpt>
      <trkpt lat="48.6257" lon="2.09621">
        <ele>127</ele>
        <time>2023-03-05T14:09:53Z</time>
      </trkpt>
      <trkpt lat="48.62572" lon="2.09624">
        <ele>127</ele>
        <time>2023-03-05T14:09:55Z</time>
      </trkpt>
      <trkpt lat="48.62574" lon="2.09627">
        <ele>127</ele>
        <time>2023-03-05T14:09:57Z</time>
      </trkpt>
      <trkpt lat="48.62577" lon="2.0963">
        <ele>126.8</ele>
        <time>2023-03-05T14:09:59Z</time>
      </trkpt>
      <trkpt lat="48.62578" lon="2.09632">
        <ele>126.6</ele>
        <time>2023-03-05T14:10:00Z</time>
      </trkpt>
      <trkpt lat="48.62581" lon="2.09635">
        <ele>126.6</ele>
        <time>2023-03-05T14:10:02Z</time>
      </trkpt>
      <trkpt lat="48.62584" lon="2.09638">
        <ele>126.4</ele>
        <time>2023-03-05T14:10:04Z</time>
      </trkpt>
      <trkpt lat="48.62586" lon="2.09641">
        <ele>126.4</ele>
        <time>2023-03-05T14:10:06Z</time>
      </trkpt>
      <trkpt lat="48.62588" lon="2.09644">
        <ele>126.4</ele>
        <time>2023-03-05T14:10:08Z</time>
      </trkpt>
      <trkpt lat="48.62591" lon="2.09646">
        <ele>126.2</ele>
        <time>2023-03-05T14:10:10Z</time>
      </trkpt>
      <trkpt lat="48.62593" lon="2.09648">
        <ele>126.2</ele>
        <time>2023-03-05T14:10:12Z</time>
      </trkpt>
      <trkpt lat="48.62596" lon="2.09651">
        <ele>126.2</ele>
        <time>2023-03-05T14:10:14Z</time>
      </trkpt>
      <trkpt lat="48.62598" lon="2.09654">
        <ele>126</ele>
        <time>2023-03-05T14:10:16Z</time>
      </trkpt>
      <trkpt lat="48.626" lon="2.09657">
        <ele>126</ele>
        <time>2023-03-05T14:10:18Z</time>
      </trkpt>
      <trkpt lat="48.62603" lon="2.09659">
        <ele>126</ele>
        <time>2023-03-05T14:10:20Z</time>
      </trkpt>
      <trkpt lat="48.62605" lon="2.09661">
        <ele>125.8</ele>
        <time>2023-03-05T14:10:22Z</time>
      </trkpt>
      <trkpt lat="48.62607" lon="2.09664">
        <ele>125.8</ele>
        <time>2023-03-05T14:10:24Z</time>
      </trkpt>
      <trkpt lat="48.62609" lon="2.09667">
        <ele>125.6</ele>
        <time>2023-03-05T14:10:26Z</time>
      </trkpt>
      <trkpt lat="48.62611" lon="2.0967">
        <ele>125.4</ele>
        <time>2023-03-05T14:10:28Z</time>
      </trkpt>
      <trkpt lat="48.62613" lon="2.09673">
        <ele>125.4</ele>
        <time>2023-03-05T14:10:30Z</time>
      </trkpt>
      <trkpt lat="48.62615" lon="2.09675">
        <ele>125.2</ele>
        <time>2023-03-05T14:10:32Z</time>
      </trkpt>
      <trkpt lat="48.62617" lon="2.09678">
        <ele>125.2</ele>
        <time>2023-03-05T14:10:34Z</time>
      </trkpt>
      <trkpt lat="48.62619" lon="2.0968">
        <ele>125</ele>
        <time>2023-03-05T14:10:36Z</time>
      </trkpt>
      <trkpt lat="48.62621" lon="2.09682">
        <ele>125</ele>
        <time>2023-03-05T14:10:38Z</time>
      </trkpt>
      <trkpt lat="48.62623" lon="2.09685">
        <ele>125</ele>
        <time>2023-03-05T14:10:40Z</time>
      </trkpt>
      <trkpt lat="48.62625" lon="2.09687">
        <ele>125</ele>
        <time>2023-03-05T14:10:42Z</time>
      </trkpt>
      <trkpt lat="48.62628" lon="2.09689">
        <ele>124.8</ele>
        <time>2023-03-05T14:10:45Z</time>
      </trkpt>
      <trkpt lat="48.62629" lon="2.09691">
        <ele>124.8</ele>
        <time>2023-03-05T14:10:47Z</time>
      </trkpt>
      <trkpt lat="48.62632" lon="2.09693">
        <ele>124.8</ele>
        <time>2023-03-05T14:10:50Z</time>
      </trkpt>
      <trkpt lat="48.62634" lon="2.09695">
        <ele>124.8</ele>
        <time>2023-03-05T14:10:52Z</time>
      </trkpt>
      <trkpt lat="48.62636" lon="2.09698">
        <ele>124.8</ele>
        <time>2023-03-05T14:10:54Z</time>
      </trkpt>
      <trkpt lat="48.62638" lon="2.09699">
        <ele>124.8</ele>
        <time>2023-03-05T14:10:55Z</time>
      </trkpt>
      <trkpt lat="48.6264" lon="2.09702">
        <ele>125</ele>
        <time>2023-03-05T14:10:57Z</time>
      </trkpt>
      <trkpt lat="48.62643" lon="2.09704">
        <ele>125</ele>
        <time>2023-03-05T14:10:59Z</time>
      </trkpt>
      <trkpt lat="48.62645" lon="2.09707">
        <ele>125</ele>
        <time>2023-03-05T14:11:01Z</time>
      </trkpt>
      <trkpt lat="48.62648" lon="2.0971">
        <ele>124.8</ele>
        <time>2023-03-05T14:11:03Z</time>
      </trkpt>
      <trkpt lat="48.62649" lon="2.09712">
        <ele>124.8</ele>
        <time>2023-03-05T14:11:05Z</time>
      </trkpt>
      <trkpt lat="48.62652" lon="2.09715">
        <ele>124.6</ele>
        <time>2023-03-05T14:11:07Z</time>
      </trkpt>
      <trkpt lat="48.62653" lon="2.09718">
        <ele>124.6</ele>
        <time>2023-03-05T14:11:09Z</time>
      </trkpt>
      <trkpt lat="48.62655" lon="2.09721">
        <ele>124.6</ele>
        <time>2023-03-05T14:11:11Z</time>
      </trkpt>
      <trkpt lat="48.62657" lon="2.09723">
        <ele>124.6</ele>
        <time>2023-03-05T14:11:13Z</time>
      </trkpt>
      <trkpt lat="48.62659" lon="2.09726">
        <ele>124.4</ele>
        <time>2023-03-05T14:11:15Z</time>
      </trkpt>
      <trkpt lat="48.6266" lon="2.09729">
        <ele>124.2</ele>
        <time>2023-03-05T14:11:17Z</time>
      </trkpt>
      <trkpt lat="48.62662" lon="2.09731">
        <ele>124</ele>
        <time>2023-03-05T14:11:19Z</time>
      </trkpt>
      <trkpt lat="48.62664" lon="2.09734">
        <ele>123.8</ele>
        <time>2023-03-05T14:11:21Z</time>
      </trkpt>
      <trkpt lat="48.62666" lon="2.09736">
        <ele>123.4</ele>
        <time>2023-03-05T14:11:23Z</time>
      </trkpt>
      <trkpt lat="48.62668" lon="2.09739">
        <ele>123.2</ele>
        <time>2023-03-05T14:11:25Z</time>
      </trkpt>
      <trkpt lat="48.62671" lon="2.09741">
        <ele>122.8</ele>
        <time>2023-03-05T14:11:27Z</time>
      </trkpt>
      <trkpt lat="48.62673" lon="2.09743">
        <ele>122.6</ele>
        <time>2023-03-05T14:11:29Z</time>
      </trkpt>
      <trkpt lat="48.62674" lon="2.09745">
        <ele>122.4</ele>
        <time>2023-03-05T14:11:31Z</time>
      </trkpt>
      <trkpt lat="48.62676" lon="2.09747">
        <ele>122.2</ele>
        <time>2023-03-05T14:11:33Z</time>
      </trkpt>
      <trkpt lat="48.62678" lon="2.09749">
        <ele>122</ele>
        <time>2023-03-05T14:11:35Z</time>
      </trkpt>
      <trkpt lat="48.62681" lon="2.09751">
        <ele>121.8</ele>
        <time>2023-03-05T14:11:37Z</time>
      </trkpt>
      <trkpt lat="48.62684" lon="2.09754">
        <ele>121.6</ele>
        <time>2023-03-05T14:11:39Z</time>
      </trkpt>
      <trkpt lat="48.62686" lon="2.09756">
        <ele>121.2</ele>
        <time>2023-03-05T14:11:41Z</time>
      </trkpt>
      <trkpt lat="48.62688" lon="2.09758">
        <ele>121</ele>
        <time>2023-03-05T14:11:43Z</time>
      </trkpt>
      <trkpt lat="48.6269" lon="2.0976">
        <ele>120.8</ele>
        <time>2023-03-05T14:11:45Z</time>
      </trkpt>
      <trkpt lat="48.62692" lon="2.09761">
        <ele>120.6</ele>
        <time>2023-03-05T14:11:47Z</time>
      </trkpt>
      <trkpt lat="48.62694" lon="2.09762">
        <ele>120.4</ele>
        <time>2023-03-05T14:11:49Z</time>
      </trkpt>
      <trkpt lat="48.62697" lon="2.09764">
        <ele>120.4</ele>
        <time>2023-03-05T14:11:51Z</time>
      </trkpt>
      <trkpt lat="48.627" lon="2.09766">
        <ele>120.4</ele>
        <time>2023-03-05T14:11:53Z</time>
      </trkpt>
      <trkpt lat="48.62703" lon="2.09768">
        <ele>120.4</ele>
        <time>2023-03-05T14:11:55Z</time>
      </trkpt>
      <trkpt lat="48.62705" lon="2.09771">
        <ele>120.6</ele>
        <time>2023-03-05T14:11:57Z</time>
      </trkpt>
      <trkpt lat="48.62708" lon="2.09773">
        <ele>120.6</ele>
        <time>2023-03-05T14:11:59Z</time>
      </trkpt>
      <trkpt lat="48.62711" lon="2.09775">
        <ele>120.8</ele>
        <time>2023-03-05T14:12:01Z</time>
      </trkpt>
      <trkpt lat="48.62714" lon="2.09777">
        <ele>120.8</ele>
        <time>2023-03-05T14:12:03Z</time>
      </trkpt>
      <trkpt lat="48.62716" lon="2.09779">
        <ele>120.8</ele>
        <time>2023-03-05T14:12:05Z</time>
      </trkpt>
      <trkpt lat="48.62719" lon="2.09781">
        <ele>120.8</ele>
        <time>2023-03-05T14:12:07Z</time>
      </trkpt>
      <trkpt lat="48.62722" lon="2.09783">
        <ele>120.6</ele>
        <time>2023-03-05T14:12:09Z</time>
      </trkpt>
      <trkpt lat="48.62725" lon="2.09784">
        <ele>120.4</ele>
        <time>2023-03-05T14:12:11Z</time>
      </trkpt>
      <trkpt lat="48.62727" lon="2.09786">
        <ele>120.4</ele>
        <time>2023-03-05T14:12:13Z</time>
      </trkpt>
      <trkpt lat="48.6273" lon="2.09788">
        <ele>120.2</ele>
        <time>2023-03-05T14:12:15Z</time>
      </trkpt>
      <trkpt lat="48.62733" lon="2.0979">
        <ele>120</ele>
        <time>2023-03-05T14:12:17Z</time>
      </trkpt>
      <trkpt lat="48.62736" lon="2.09792">
        <ele>119.8</ele>
        <time>2023-03-05T14:12:19Z</time>
      </trkpt>
      <trkpt lat="48.62739" lon="2.09794">
        <ele>119.6</ele>
        <time>2023-03-05T14:12:21Z</time>
      </trkpt>
      <trkpt lat="48.62741" lon="2.09796">
        <ele>119.2</ele>
        <time>2023-03-05T14:12:23Z</time>
      </trkpt>
      <trkpt lat="48.62745" lon="2.09799">
        <ele>119</ele>
        <time>2023-03-05T14:12:25Z</time>
      </trkpt>
      <trkpt lat="48.62748" lon="2.09801">
        <ele>118.8</ele>
        <time>2023-03-05T14:12:27Z</time>
      </trkpt>
      <trkpt lat="48.6275" lon="2.09804">
        <ele>118.6</ele>
        <time>2023-03-05T14:12:29Z</time>
      </trkpt>
      <trkpt lat="48.62753" lon="2.09806">
        <ele>118.4</ele>
        <time>2023-03-05T14:12:31Z</time>
      </trkpt>
      <trkpt lat="48.62756" lon="2.09808">
        <ele>118.4</ele>
        <time>2023-03-05T14:12:33Z</time>
      </trkpt>
      <trkpt lat="48.62758" lon="2.09811">
        <ele>118.2</ele>
        <time>2023-03-05T14:12:35Z</time>
      </trkpt>
      <trkpt lat="48.6276" lon="2.09813">
        <ele>118.2</ele>
        <time>2023-03-05T14:12:37Z</time>
      </trkpt>
      <trkpt lat="48.62763" lon="2.09815">
        <ele>118.4</ele>
        <time>2023-03-05T14:12:39Z</time>
      </trkpt>
      <trkpt lat="48.62765" lon="2.09817">
        <ele>118.6</ele>
        <time>2023-03-05T14:12:41Z</time>
      </trkpt>
      <trkpt lat="48.62768" lon="2.09819">
        <ele>118.8</ele>
        <time>2023-03-05T14:12:43Z</time>
      </trkpt>
      <trkpt lat="48.62771" lon="2.09821">
        <ele>119</ele>
        <time>2023-03-05T14:12:45Z</time>
      </trkpt>
      <trkpt lat="48.62773" lon="2.09823">
        <ele>119.2</ele>
        <time>2023-03-05T14:12:47Z</time>
      </trkpt>
      <trkpt lat="48.62775" lon="2.09825">
        <ele>119.4</ele>
        <time>2023-03-05T14:12:49Z</time>
      </trkpt>
      <trkpt lat="48.62778" lon="2.09826">
        <ele>119.6</ele>
        <time>2023-03-05T14:12:51Z</time>
      </trkpt>
      <trkpt lat="48.62781" lon="2.09829">
        <ele>119.6</ele>
        <time>2023-03-05T14:12:53Z</time>
      </trkpt>
      <trkpt lat="48.62783" lon="2.09831">
        <ele>119.8</ele>
        <time>2023-03-05T14:12:55Z</time>
      </trkpt>
      <trkpt lat="48.62786" lon="2.09833">
        <ele>120</ele>
        <time>2023-03-05T14:12:57Z</time>
      </trkpt>
      <trkpt lat="48.62788" lon="2.09835">
        <ele>120</ele>
        <time>2023-03-05T14:12:59Z</time>
      </trkpt>
      <trkpt lat="48.62791" lon="2.09838">
        <ele>120.2</ele>
        <time>2023-03-05T14:13:01Z</time>
      </trkpt>
      <trkpt lat="48.62793" lon="2.0984">
        <ele>120</ele>
        <time>2023-03-05T14:13:03Z</time>
      </trkpt>
      <trkpt lat="48.62796" lon="2.09843">
        <ele>120</ele>
        <time>2023-03-05T14:13:05Z</time>
      </trkpt>
      <trkpt lat="48.62798" lon="2.09845">
        <ele>120</ele>
        <time>2023-03-05T14:13:07Z</time>
      </trkpt>
      <trkpt lat="48.62801" lon="2.09847">
        <ele>120</ele>
        <time>2023-03-05T14:13:10Z</time>
      </trkpt>
      <trkpt lat="48.62803" lon="2.09849">
        <ele>120</ele>
        <time>2023-03-05T14:13:16Z</time>
      </trkpt>
      <trkpt lat="48.62805" lon="2.09852">
        <ele>119.8</ele>
        <time>2023-03-05T14:13:19Z</time>
      </trkpt>
      <trkpt lat="48.62807" lon="2.09854">
        <ele>119.8</ele>
        <time>2023-03-05T14:13:21Z</time>
      </trkpt>
      <trkpt lat="48.6281" lon="2.09856">
        <ele>119.8</ele>
        <time>2023-03-05T14:13:23Z</time>
      </trkpt>
      <trkpt lat="48.62813" lon="2.09858">
        <ele>119.6</ele>
        <time>2023-03-05T14:13:25Z</time>
      </trkpt>
      <trkpt lat="48.62815" lon="2.0986">
        <ele>119.6</ele>
        <time>2023-03-05T14:13:27Z</time>
      </trkpt>
      <trkpt lat="48.62818" lon="2.09861">
        <ele>119.4</ele>
        <time>2023-03-05T14:13:29Z</time>
      </trkpt>
      <trkpt lat="48.62821" lon="2.09863">
        <ele>119.4</ele>
        <time>2023-03-05T14:13:31Z</time>
      </trkpt>
      <trkpt lat="48.62823" lon="2.09864">
        <ele>119.4</ele>
        <time>2023-03-05T14:13:33Z</time>
      </trkpt>
      <trkpt lat="48.62826" lon="2.09866">
        <ele>119.2</ele>
        <time>2023-03-05T14:13:35Z</time>
      </trkpt>
      <trkpt lat="48.62829" lon="2.09868">
        <ele>119.2</ele>
        <time>2023-03-05T14:13:37Z</time>
      </trkpt>
      <trkpt lat="48.62832" lon="2.09871">
        <ele>119.2</ele>
        <time>2023-03-05T14:13:39Z</time>
      </trkpt>
      <trkpt lat="48.62835" lon="2.09873">
        <ele>119.2</ele>
        <time>2023-03-05T14:13:41Z</time>
      </trkpt>
      <trkpt lat="48.62837" lon="2.09875">
        <ele>119.2</ele>
        <time>2023-03-05T14:13:43Z</time>
      </trkpt>
      <trkpt lat="48.6284" lon="2.09877">
        <ele>119.2</ele>
        <time>2023-03-05T14:13:45Z</time>
      </trkpt>
      <trkpt lat="48.62843" lon="2.09878">
        <ele>119.2</ele>
        <time>2023-03-05T14:13:47Z</time>
      </trkpt>
      <trkpt lat="48.62846" lon="2.09879">
        <ele>119.2</ele>
        <time>2023-03-05T14:13:49Z</time>
      </trkpt>
      <trkpt lat="48.62849" lon="2.0988">
        <ele>119.4</ele>
        <time>2023-03-05T14:13:51Z</time>
      </trkpt>
      <trkpt lat="48.62851" lon="2.09881">
        <ele>119.6</ele>
        <time>2023-03-05T14:13:53Z</time>
      </trkpt>
      <trkpt lat="48.62854" lon="2.09882">
        <ele>120</ele>
        <time>2023-03-05T14:13:55Z</time>
      </trkpt>
      <trkpt lat="48.62856" lon="2.09883">
        <ele>120.4</ele>
        <time>2023-03-05T14:13:57Z</time>
      </trkpt>
      <trkpt lat="48.62859" lon="2.09884">
        <ele>120.6</ele>
        <time>2023-03-05T14:13:59Z</time>
      </trkpt>
      <trkpt lat="48.62861" lon="2.09885">
        <ele>121</ele>
        <time>2023-03-05T14:14:01Z</time>
      </trkpt>
      <trkpt lat="48.62863" lon="2.09887">
        <ele>121</ele>
        <time>2023-03-05T14:14:03Z</time>
      </trkpt>
      <trkpt lat="48.62866" lon="2.09887">
        <ele>121</ele>
        <time>2023-03-05T14:14:05Z</time>
      </trkpt>
      <trkpt lat="48.62868" lon="2.09888">
        <ele>121.2</ele>
        <time>2023-03-05T14:14:07Z</time>
      </trkpt>
      <trkpt lat="48.62872" lon="2.09888">
        <ele>121.2</ele>
        <time>2023-03-05T14:14:09Z</time>
      </trkpt>
      <trkpt lat="48.62874" lon="2.09888">
        <ele>121.4</ele>
        <time>2023-03-05T14:14:11Z</time>
      </trkpt>
      <trkpt lat="48.62877" lon="2.09887">
        <ele>121.6</ele>
        <time>2023-03-05T14:14:13Z</time>
      </trkpt>
      <trkpt lat="48.6288" lon="2.09886">
        <ele>121.6</ele>
        <time>2023-03-05T14:14:15Z</time>
      </trkpt>
      <trkpt lat="48.62883" lon="2.09885">
        <ele>121.8</ele>
        <time>2023-03-05T14:14:17Z</time>
      </trkpt>
      <trkpt lat="48.62885" lon="2.09883">
        <ele>122</ele>
        <time>2023-03-05T14:14:19Z</time>
      </trkpt>
      <trkpt lat="48.62888" lon="2.09882">
        <ele>122</ele>
        <time>2023-03-05T14:14:21Z</time>
      </trkpt>
      <trkpt lat="48.62891" lon="2.0988">
        <ele>122</ele>
        <time>2023-03-05T14:14:23Z</time>
      </trkpt>
      <trkpt lat="48.62893" lon="2.09878">
        <ele>122</ele>
        <time>2023-03-05T14:14:25Z</time>
      </trkpt>
      <trkpt lat="48.62896" lon="2.09876">
        <ele>122.2</ele>
        <time>2023-03-05T14:14:27Z</time>
      </trkpt>
      <trkpt lat="48.62899" lon="2.09874">
        <ele>122.4</ele>
        <time>2023-03-05T14:14:29Z</time>
      </trkpt>
      <trkpt lat="48.62901" lon="2.09871">
        <ele>122.4</ele>
        <time>2023-03-05T14:14:31Z</time>
      </trkpt>
      <trkpt lat="48.62904" lon="2.09869">
        <ele>122.4</ele>
        <time>2023-03-05T14:14:33Z</time>
      </trkpt>
      <trkpt lat="48.62906" lon="2.09867">
        <ele>122.6</ele>
        <time>2023-03-05T14:14:35Z</time>
      </trkpt>
      <trkpt lat="48.62908" lon="2.09866">
        <ele>122.6</ele>
        <time>2023-03-05T14:14:37Z</time>
      </trkpt>
      <trkpt lat="48.62911" lon="2.09865">
        <ele>122.8</ele>
        <time>2023-03-05T14:14:39Z</time>
      </trkpt>
      <trkpt lat="48.62914" lon="2.09863">
        <ele>123</ele>
        <time>2023-03-05T14:14:41Z</time>
      </trkpt>
      <trkpt lat="48.62916" lon="2.09862">
        <ele>123</ele>
        <time>2023-03-05T14:14:43Z</time>
      </trkpt>
      <trkpt lat="48.62918" lon="2.0986">
        <ele>123.2</ele>
        <time>2023-03-05T14:14:45Z</time>
      </trkpt>
      <trkpt lat="48.62921" lon="2.09858">
        <ele>123.4</ele>
        <time>2023-03-05T14:14:47Z</time>
      </trkpt>
      <trkpt lat="48.62924" lon="2.09856">
        <ele>123.4</ele>
        <time>2023-03-05T14:14:49Z</time>
      </trkpt>
      <trkpt lat="48.62926" lon="2.09854">
        <ele>123.4</ele>
        <time>2023-03-05T14:14:51Z</time>
      </trkpt>
      <trkpt lat="48.6293" lon="2.09853">
        <ele>123.6</ele>
        <time>2023-03-05T14:14:53Z</time>
      </trkpt>
      <trkpt lat="48.62932" lon="2.09852">
        <ele>123.4</ele>
        <time>2023-03-05T14:14:55Z</time>
      </trkpt>
      <trkpt lat="48.62935" lon="2.09852">
        <ele>123.4</ele>
        <time>2023-03-05T14:14:57Z</time>
      </trkpt>
      <trkpt lat="48.62938" lon="2.09852">
        <ele>123.4</ele>
        <time>2023-03-05T14:14:59Z</time>
      </trkpt>
      <trkpt lat="48.62941" lon="2.09852">
        <ele>123.4</ele>
        <time>2023-03-05T14:15:01Z</time>
      </trkpt>
      <trkpt lat="48.62944" lon="2.09851">
        <ele>123.4</ele>
        <time>2023-03-05T14:15:03Z</time>
      </trkpt>
      <trkpt lat="48.62947" lon="2.09851">
        <ele>123.4</ele>
        <time>2023-03-05T14:15:05Z</time>
      </trkpt>
      <trkpt lat="48.6295" lon="2.09852">
        <ele>123.4</ele>
        <time>2023-03-05T14:15:07Z</time>
      </trkpt>
      <trkpt lat="48.62953" lon="2.09852">
        <ele>123.2</ele>
        <time>2023-03-05T14:15:09Z</time>
      </trkpt>
      <trkpt lat="48.62956" lon="2.09852">
        <ele>123.2</ele>
        <time>2023-03-05T14:15:11Z</time>
      </trkpt>
      <trkpt lat="48.62958" lon="2.09852">
        <ele>123.2</ele>
        <time>2023-03-05T14:15:13Z</time>
      </trkpt>
      <trkpt lat="48.62961" lon="2.09851">
        <ele>123.2</ele>
        <time>2023-03-05T14:15:15Z</time>
      </trkpt>
      <trkpt lat="48.62964" lon="2.09851">
        <ele>123.2</ele>
        <time>2023-03-05T14:15:17Z</time>
      </trkpt>
      <trkpt lat="48.62966" lon="2.09851">
        <ele>123.2</ele>
        <time>2023-03-05T14:15:19Z</time>
      </trkpt>
      <trkpt lat="48.6297" lon="2.0985">
        <ele>123.4</ele>
        <time>2023-03-05T14:15:21Z</time>
      </trkpt>
      <trkpt lat="48.62973" lon="2.0985">
        <ele>123.4</ele>
        <time>2023-03-05T14:15:23Z</time>
      </trkpt>
      <trkpt lat="48.62975" lon="2.09849">
        <ele>123.4</ele>
        <time>2023-03-05T14:15:25Z</time>
      </trkpt>
      <trkpt lat="48.62978" lon="2.09848">
        <ele>123.4</ele>
        <time>2023-03-05T14:15:27Z</time>
      </trkpt>
      <trkpt lat="48.62981" lon="2.09848">
        <ele>123.2</ele>
        <time>2023-03-05T14:15:29Z</time>
      </trkpt>
      <trkpt lat="48.62984" lon="2.09847">
        <ele>123.2</ele>
        <time>2023-03-05T14:15:31Z</time>
      </trkpt>
      <trkpt lat="48.62987" lon="2.09846">
        <ele>123.2</ele>
        <time>2023-03-05T14:15:33Z</time>
      </trkpt>
      <trkpt lat="48.6299" lon="2.09846">
        <ele>123.2</ele>
        <time>2023-03-05T14:15:35Z</time>
      </trkpt>
      <trkpt lat="48.62993" lon="2.09845">
        <ele>123.2</ele>
        <time>2023-03-05T14:15:37Z</time>
      </trkpt>
      <trkpt lat="48.62996" lon="2.09845">
        <ele>123.4</ele>
        <time>2023-03-05T14:15:39Z</time>
      </trkpt>
      <trkpt lat="48.62999" lon="2.09844">
        <ele>123.4</ele>
        <time>2023-03-05T14:15:41Z</time>
      </trkpt>
      <trkpt lat="48.63002" lon="2.09843">
        <ele>123.6</ele>
        <time>2023-03-05T14:15:43Z</time>
      </trkpt>
      <trkpt lat="48.63004" lon="2.09842">
        <ele>123.6</ele>
        <time>2023-03-05T14:15:45Z</time>
      </trkpt>
      <trkpt lat="48.63007" lon="2.09842">
        <ele>123.6</ele>
        <time>2023-03-05T14:15:47Z</time>
      </trkpt>
      <trkpt lat="48.63009" lon="2.09841">
        <ele>123.6</ele>
        <time>2023-03-05T14:15:49Z</time>
      </trkpt>
      <trkpt lat="48.63011" lon="2.0984">
        <ele>123.8</ele>
        <time>2023-03-05T14:15:51Z</time>
      </trkpt>
      <trkpt lat="48.63013" lon="2.09839">
        <ele>124</ele>
        <time>2023-03-05T14:15:53Z</time>
      </trkpt>
      <trkpt lat="48.63017" lon="2.09839">
        <ele>124</ele>
        <time>2023-03-05T14:15:55Z</time>
      </trkpt>
      <trkpt lat="48.6302" lon="2.09839">
        <ele>124.2</ele>
        <time>2023-03-05T14:15:57Z</time>
      </trkpt>
      <trkpt lat="48.63022" lon="2.09839">
        <ele>124.4</ele>
        <time>2023-03-05T14:15:59Z</time>
      </trkpt>
      <trkpt lat="48.63025" lon="2.09839">
        <ele>124.6</ele>
        <time>2023-03-05T14:16:01Z</time>
      </trkpt>
      <trkpt lat="48.63028" lon="2.09839">
        <ele>124.8</ele>
        <time>2023-03-05T14:16:03Z</time>
      </trkpt>
      <trkpt lat="48.63031" lon="2.09838">
        <ele>125</ele>
        <time>2023-03-05T14:16:05Z</time>
      </trkpt>
      <trkpt lat="48.63034" lon="2.09838">
        <ele>125.2</ele>
        <time>2023-03-05T14:16:07Z</time>
      </trkpt>
      <trkpt lat="48.63037" lon="2.09839">
        <ele>125.4</ele>
        <time>2023-03-05T14:16:09Z</time>
      </trkpt>
      <trkpt lat="48.63039" lon="2.09839">
        <ele>125.6</ele>
        <time>2023-03-05T14:16:11Z</time>
      </trkpt>
      <trkpt lat="48.63043" lon="2.09839">
        <ele>125.8</ele>
        <time>2023-03-05T14:16:13Z</time>
      </trkpt>
      <trkpt lat="48.63045" lon="2.0984">
        <ele>126.2</ele>
        <time>2023-03-05T14:16:15Z</time>
      </trkpt>
      <trkpt lat="48.63048" lon="2.09841">
        <ele>126.4</ele>
        <time>2023-03-05T14:16:17Z</time>
      </trkpt>
      <trkpt lat="48.63051" lon="2.09843">
        <ele>126.8</ele>
        <time>2023-03-05T14:16:19Z</time>
      </trkpt>
      <trkpt lat="48.63053" lon="2.09844">
        <ele>127.2</ele>
        <time>2023-03-05T14:16:21Z</time>
      </trkpt>
      <trkpt lat="48.63056" lon="2.09844">
        <ele>127.4</ele>
        <time>2023-03-05T14:16:23Z</time>
      </trkpt>
      <trkpt lat="48.63059" lon="2.09844">
        <ele>127.8</ele>
        <time>2023-03-05T14:16:25Z</time>
      </trkpt>
      <trkpt lat="48.63061" lon="2.09843">
        <ele>128</ele>
        <time>2023-03-05T14:16:27Z</time>
      </trkpt>
      <trkpt lat="48.63064" lon="2.09842">
        <ele>128.2</ele>
        <time>2023-03-05T14:16:29Z</time>
      </trkpt>
      <trkpt lat="48.63067" lon="2.09842">
        <ele>128.6</ele>
        <time>2023-03-05T14:16:31Z</time>
      </trkpt>
      <trkpt lat="48.6307" lon="2.09842">
        <ele>128.8</ele>
        <time>2023-03-05T14:16:33Z</time>
      </trkpt>
      <trkpt lat="48.63073" lon="2.09842">
        <ele>129</ele>
        <time>2023-03-05T14:16:35Z</time>
      </trkpt>
      <trkpt lat="48.63076" lon="2.09842">
        <ele>129.2</ele>
        <time>2023-03-05T14:16:37Z</time>
      </trkpt>
      <trkpt lat="48.63079" lon="2.09843">
        <ele>129.6</ele>
        <time>2023-03-05T14:16:39Z</time>
      </trkpt>
      <trkpt lat="48.63082" lon="2.09844">
        <ele>129.8</ele>
        <time>2023-03-05T14:16:41Z</time>
      </trkpt>
      <trkpt lat="48.63085" lon="2.09844">
        <ele>130</ele>
        <time>2023-03-05T14:16:43Z</time>
      </trkpt>
      <trkpt lat="48.63088" lon="2.09845">
        <ele>130.4</ele>
        <time>2023-03-05T14:16:45Z</time>
      </trkpt>
      <trkpt lat="48.63091" lon="2.09846">
        <ele>130.8</ele>
        <time>2023-03-05T14:16:47Z</time>
      </trkpt>
      <trkpt lat="48.63094" lon="2.09847">
        <ele>131</ele>
        <time>2023-03-05T14:16:49Z</time>
      </trkpt>
      <trkpt lat="48.63097" lon="2.09848">
        <ele>131.4</ele>
        <time>2023-03-05T14:16:51Z</time>
      </trkpt>
      <trkpt lat="48.631" lon="2.09849">
        <ele>131.6</ele>
        <time>2023-03-05T14:16:53Z</time>
      </trkpt>
      <trkpt lat="48.63102" lon="2.09849">
        <ele>131.8</ele>
        <time>2023-03-05T14:16:55Z</time>
      </trkpt>
      <trkpt lat="48.63105" lon="2.0985">
        <ele>132</ele>
        <time>2023-03-05T14:16:57Z</time>
      </trkpt>
      <trkpt lat="48.63108" lon="2.09851">
        <ele>132.2</ele>
        <time>2023-03-05T14:16:59Z</time>
      </trkpt>
      <trkpt lat="48.63111" lon="2.09853">
        <ele>132.4</ele>
        <time>2023-03-05T14:17:01Z</time>
      </trkpt>
      <trkpt lat="48.63114" lon="2.09855">
        <ele>132.4</ele>
        <time>2023-03-05T14:17:03Z</time>
      </trkpt>
      <trkpt lat="48.63117" lon="2.09857">
        <ele>132.6</ele>
        <time>2023-03-05T14:17:05Z</time>
      </trkpt>
      <trkpt lat="48.63119" lon="2.09858">
        <ele>132.8</ele>
        <time>2023-03-05T14:17:07Z</time>
      </trkpt>
      <trkpt lat="48.63121" lon="2.0986">
        <ele>133</ele>
        <time>2023-03-05T14:17:09Z</time>
      </trkpt>
      <trkpt lat="48.63123" lon="2.09861">
        <ele>133</ele>
        <time>2023-03-05T14:17:11Z</time>
      </trkpt>
      <trkpt lat="48.63125" lon="2.09862">
        <ele>133</ele>
        <time>2023-03-05T14:17:15Z</time>
      </trkpt>
      <trkpt lat="48.63127" lon="2.09862">
        <ele>132.6</ele>
        <time>2023-03-05T14:17:25Z</time>
      </trkpt>
      <trkpt lat="48.63129" lon="2.09864">
        <ele>132.6</ele>
        <time>2023-03-05T14:17:27Z</time>
      </trkpt>
      <trkpt lat="48.63132" lon="2.09866">
        <ele>132.6</ele>
        <time>2023-03-05T14:17:29Z</time>
      </trkpt>
      <trkpt lat="48.63135" lon="2.09868">
        <ele>132.8</ele>
        <time>2023-03-05T14:17:31Z</time>
      </trkpt>
      <trkpt lat="48.63138" lon="2.0987">
        <ele>132.8</ele>
        <time>2023-03-05T14:17:33Z</time>
      </trkpt>
      <trkpt lat="48.6314" lon="2.09872">
        <ele>133</ele>
        <time>2023-03-05T14:17:35Z</time>
      </trkpt>
      <trkpt lat="48.63144" lon="2.09874">
        <ele>133.2</ele>
        <time>2023-03-05T14:17:37Z</time>
      </trkpt>
      <trkpt lat="48.63146" lon="2.09876">
        <ele>133.4</ele>
        <time>2023-03-05T14:17:39Z</time>
      </trkpt>
      <trkpt lat="48.63149" lon="2.09877">
        <ele>133.8</ele>
        <time>2023-03-05T14:17:41Z</time>
      </trkpt>
      <trkpt lat="48.63151" lon="2.09879">
        <ele>134.2</ele>
        <time>2023-03-05T14:17:43Z</time>
      </trkpt>
      <trkpt lat="48.63154" lon="2.09881">
        <ele>134.6</ele>
        <time>2023-03-05T14:17:45Z</time>
      </trkpt>
      <trkpt lat="48.63157" lon="2.09882">
        <ele>134.8</ele>
        <time>2023-03-05T14:17:47Z</time>
      </trkpt>
      <trkpt lat="48.6316" lon="2.09883">
        <ele>135.4</ele>
        <time>2023-03-05T14:17:49Z</time>
      </trkpt>
      <trkpt lat="48.63163" lon="2.09885">
        <ele>135.8</ele>
        <time>2023-03-05T14:17:51Z</time>
      </trkpt>
      <trkpt lat="48.63166" lon="2.09886">
        <ele>136.4</ele>
        <time>2023-03-05T14:17:53Z</time>
      </trkpt>
      <trkpt lat="48.63169" lon="2.09888">
        <ele>136.8</ele>
        <time>2023-03-05T14:17:55Z</time>
      </trkpt>
      <trkpt lat="48.63172" lon="2.09889">
        <ele>137.2</ele>
        <time>2023-03-05T14:17:57Z</time>
      </trkpt>
      <trkpt lat="48.63175" lon="2.0989">
        <ele>137.6</ele>
        <time>2023-03-05T14:17:59Z</time>
      </trkpt>
      <trkpt lat="48.63177" lon="2.09891">
        <ele>137.6</ele>
        <time>2023-03-05T14:18:00Z</time>
      </trkpt>
      <trkpt lat="48.6318" lon="2.09893">
        <ele>138</ele>
        <time>2023-03-05T14:18:02Z</time>
      </trkpt>
      <trkpt lat="48.63182" lon="2.09894">
        <ele>138.2</ele>
        <time>2023-03-05T14:18:03Z</time>
      </trkpt>
      <trkpt lat="48.63184" lon="2.09896">
        <ele>138.4</ele>
        <time>2023-03-05T14:18:05Z</time>
      </trkpt>
      <trkpt lat="48.63188" lon="2.09896">
        <ele>138.8</ele>
        <time>2023-03-05T14:18:07Z</time>
      </trkpt>
      <trkpt lat="48.6319" lon="2.09897">
        <ele>138.8</ele>
        <time>2023-03-05T14:18:09Z</time>
      </trkpt>
      <trkpt lat="48.63193" lon="2.09898">
        <ele>139</ele>
        <time>2023-03-05T14:18:11Z</time>
      </trkpt>
      <trkpt lat="48.63196" lon="2.09899">
        <ele>139</ele>
        <time>2023-03-05T14:18:13Z</time>
      </trkpt>
      <trkpt lat="48.63198" lon="2.09901">
        <ele>139</ele>
        <time>2023-03-05T14:18:15Z</time>
      </trkpt>
      <trkpt lat="48.63201" lon="2.09903">
        <ele>139</ele>
        <time>2023-03-05T14:18:17Z</time>
      </trkpt>
      <trkpt lat="48.63204" lon="2.09904">
        <ele>139.2</ele>
        <time>2023-03-05T14:18:19Z</time>
      </trkpt>
      <trkpt lat="48.63207" lon="2.09906">
        <ele>139.2</ele>
        <time>2023-03-05T14:18:21Z</time>
      </trkpt>
      <trkpt lat="48.6321" lon="2.09907">
        <ele>139.4</ele>
        <time>2023-03-05T14:18:23Z</time>
      </trkpt>
      <trkpt lat="48.63212" lon="2.09908">
        <ele>139.4</ele>
        <time>2023-03-05T14:18:25Z</time>
      </trkpt>
      <trkpt lat="48.63216" lon="2.0991">
        <ele>139.4</ele>
        <time>2023-03-05T14:18:27Z</time>
      </trkpt>
      <trkpt lat="48.63218" lon="2.09911">
        <ele>139.6</ele>
        <time>2023-03-05T14:18:29Z</time>
      </trkpt>
      <trkpt lat="48.63221" lon="2.09912">
        <ele>139.8</ele>
        <time>2023-03-05T14:18:31Z</time>
      </trkpt>
      <trkpt lat="48.63224" lon="2.09914">
        <ele>139.8</ele>
        <time>2023-03-05T14:18:33Z</time>
      </trkpt>
      <trkpt lat="48.63226" lon="2.09916">
        <ele>139.8</ele>
        <time>2023-03-05T14:18:35Z</time>
      </trkpt>
      <trkpt lat="48.63229" lon="2.09917">
        <ele>140</ele>
        <time>2023-03-05T14:18:37Z</time>
      </trkpt>
      <trkpt lat="48.63232" lon="2.09918">
        <ele>140</ele>
        <time>2023-03-05T14:18:39Z</time>
      </trkpt>
      <trkpt lat="48.63235" lon="2.0992">
        <ele>140.2</ele>
        <time>2023-03-05T14:18:41Z</time>
      </trkpt>
      <trkpt lat="48.63237" lon="2.09922">
        <ele>140.4</ele>
        <time>2023-03-05T14:18:43Z</time>
      </trkpt>
      <trkpt lat="48.6324" lon="2.09923">
        <ele>140.6</ele>
        <time>2023-03-05T14:18:45Z</time>
      </trkpt>
      <trkpt lat="48.63243" lon="2.09925">
        <ele>140.8</ele>
        <time>2023-03-05T14:18:47Z</time>
      </trkpt>
      <trkpt lat="48.63246" lon="2.09927">
        <ele>141</ele>
        <time>2023-03-05T14:18:49Z</time>
      </trkpt>
      <trkpt lat="48.63249" lon="2.09928">
        <ele>141.2</ele>
        <time>2023-03-05T14:18:51Z</time>
      </trkpt>
      <trkpt lat="48.63252" lon="2.09929">
        <ele>141.6</ele>
        <time>2023-03-05T14:18:53Z</time>
      </trkpt>
      <trkpt lat="48.63254" lon="2.09931">
        <ele>141.8</ele>
        <time>2023-03-05T14:18:55Z</time>
      </trkpt>
      <trkpt lat="48.63257" lon="2.09932">
        <ele>142</ele>
        <time>2023-03-05T14:18:57Z</time>
      </trkpt>
      <trkpt lat="48.6326" lon="2.09933">
        <ele>142.2</ele>
        <time>2023-03-05T14:18:59Z</time>
      </trkpt>
      <trkpt lat="48.63263" lon="2.09935">
        <ele>142.4</ele>
        <time>2023-03-05T14:19:01Z</time>
      </trkpt>
      <trkpt lat="48.63266" lon="2.09936">
        <ele>142.6</ele>
        <time>2023-03-05T14:19:03Z</time>
      </trkpt>
      <trkpt lat="48.63269" lon="2.09938">
        <ele>142.8</ele>
        <time>2023-03-05T14:19:05Z</time>
      </trkpt>
      <trkpt lat="48.63272" lon="2.0994">
        <ele>143</ele>
        <time>2023-03-05T14:19:07Z</time>
      </trkpt>
      <trkpt lat="48.63275" lon="2.09941">
        <ele>143</ele>
        <time>2023-03-05T14:19:09Z</time>
      </trkpt>
      <trkpt lat="48.63278" lon="2.09942">
        <ele>143.2</ele>
        <time>2023-03-05T14:19:11Z</time>
      </trkpt>
      <trkpt lat="48.63281" lon="2.09943">
        <ele>143.4</ele>
        <time>2023-03-05T14:19:13Z</time>
      </trkpt>
      <trkpt lat="48.63284" lon="2.09945">
        <ele>143.6</ele>
        <time>2023-03-05T14:19:15Z</time>
      </trkpt>
      <trkpt lat="48.63287" lon="2.09946">
        <ele>143.8</ele>
        <time>2023-03-05T14:19:17Z</time>
      </trkpt>
      <trkpt lat="48.6329" lon="2.09946">
        <ele>143.8</ele>
        <time>2023-03-05T14:19:19Z</time>
      </trkpt>
      <trkpt lat="48.63292" lon="2.09947">
        <ele>144</ele>
        <time>2023-03-05T14:19:21Z</time>
      </trkpt>
      <trkpt lat="48.63295" lon="2.09949">
        <ele>144.2</ele>
        <time>2023-03-05T14:19:23Z</time>
      </trkpt>
      <trkpt lat="48.63298" lon="2.09949">
        <ele>144.2</ele>
        <time>2023-03-05T14:19:25Z</time>
      </trkpt>
      <trkpt lat="48.633" lon="2.0995">
        <ele>144.4</ele>
        <time>2023-03-05T14:19:27Z</time>
      </trkpt>
      <trkpt lat="48.63303" lon="2.09951">
        <ele>144.6</ele>
        <time>2023-03-05T14:19:29Z</time>
      </trkpt>
      <trkpt lat="48.63306" lon="2.09952">
        <ele>144.8</ele>
        <time>2023-03-05T14:19:31Z</time>
      </trkpt>
      <trkpt lat="48.63308" lon="2.09953">
        <ele>145</ele>
        <time>2023-03-05T14:19:32Z</time>
      </trkpt>
      <trkpt lat="48.63311" lon="2.09954">
        <ele>145.2</ele>
        <time>2023-03-05T14:19:34Z</time>
      </trkpt>
      <trkpt lat="48.63313" lon="2.09955">
        <ele>145.4</ele>
        <time>2023-03-05T14:19:35Z</time>
      </trkpt>
      <trkpt lat="48.63316" lon="2.09957">
        <ele>145.4</ele>
        <time>2023-03-05T14:19:37Z</time>
      </trkpt>
      <trkpt lat="48.63319" lon="2.09959">
        <ele>145.6</ele>
        <time>2023-03-05T14:19:39Z</time>
      </trkpt>
      <trkpt lat="48.63321" lon="2.0996">
        <ele>145.6</ele>
        <time>2023-03-05T14:19:41Z</time>
      </trkpt>
      <trkpt lat="48.63324" lon="2.09962">
        <ele>145.6</ele>
        <time>2023-03-05T14:19:43Z</time>
      </trkpt>
      <trkpt lat="48.63327" lon="2.09963">
        <ele>145.6</ele>
        <time>2023-03-05T14:19:45Z</time>
      </trkpt>
      <trkpt lat="48.63329" lon="2.09965">
        <ele>145.6</ele>
        <time>2023-03-05T14:19:47Z</time>
      </trkpt>
      <trkpt lat="48.63332" lon="2.09967">
        <ele>145.6</ele>
        <time>2023-03-05T14:19:49Z</time>
      </trkpt>
      <trkpt lat="48.63335" lon="2.09969">
        <ele>145.6</ele>
        <time>2023-03-05T14:19:51Z</time>
      </trkpt>
      <trkpt lat="48.63338" lon="2.0997">
        <ele>145.8</ele>
        <time>2023-03-05T14:19:53Z</time>
      </trkpt>
      <trkpt lat="48.63341" lon="2.09972">
        <ele>145.8</ele>
        <time>2023-03-05T14:19:55Z</time>
      </trkpt>
      <trkpt lat="48.63344" lon="2.09973">
        <ele>146</ele>
        <time>2023-03-05T14:19:57Z</time>
      </trkpt>
      <trkpt lat="48.63347" lon="2.09974">
        <ele>146.2</ele>
        <time>2023-03-05T14:19:59Z</time>
      </trkpt>
      <trkpt lat="48.6335" lon="2.09975">
        <ele>146.2</ele>
        <time>2023-03-05T14:20:01Z</time>
      </trkpt>
      <trkpt lat="48.63353" lon="2.09976">
        <ele>146.4</ele>
        <time>2023-03-05T14:20:03Z</time>
      </trkpt>
      <trkpt lat="48.63356" lon="2.09977">
        <ele>146.6</ele>
        <time>2023-03-05T14:20:05Z</time>
      </trkpt>
      <trkpt lat="48.63359" lon="2.09977">
        <ele>146.6</ele>
        <time>2023-03-05T14:20:07Z</time>
      </trkpt>
      <trkpt lat="48.63362" lon="2.09977">
        <ele>146.8</ele>
        <time>2023-03-05T14:20:09Z</time>
      </trkpt>
      <trkpt lat="48.63365" lon="2.09978">
        <ele>147</ele>
        <time>2023-03-05T14:20:11Z</time>
      </trkpt>
      <trkpt lat="48.63368" lon="2.09978">
        <ele>147</ele>
        <time>2023-03-05T14:20:13Z</time>
      </trkpt>
      <trkpt lat="48.63371" lon="2.09978">
        <ele>147.2</ele>
        <time>2023-03-05T14:20:15Z</time>
      </trkpt>
      <trkpt lat="48.63374" lon="2.09979">
        <ele>147.2</ele>
        <time>2023-03-05T14:20:17Z</time>
      </trkpt>
      <trkpt lat="48.63377" lon="2.09979">
        <ele>147.2</ele>
        <time>2023-03-05T14:20:19Z</time>
      </trkpt>
      <trkpt lat="48.6338" lon="2.09979">
        <ele>147.4</ele>
        <time>2023-03-05T14:20:21Z</time>
      </trkpt>
      <trkpt lat="48.63383" lon="2.09979">
        <ele>147.6</ele>
        <time>2023-03-05T14:20:23Z</time>
      </trkpt>
      <trkpt lat="48.63385" lon="2.09979">
        <ele>147.6</ele>
        <time>2023-03-05T14:20:24Z</time>
      </trkpt>
      <trkpt lat="48.63388" lon="2.09979">
        <ele>147.8</ele>
        <time>2023-03-05T14:20:26Z</time>
      </trkpt>
      <trkpt lat="48.63391" lon="2.09979">
        <ele>148</ele>
        <time>2023-03-05T14:20:28Z</time>
      </trkpt>
      <trkpt lat="48.63394" lon="2.09979">
        <ele>148</ele>
        <time>2023-03-05T14:20:30Z</time>
      </trkpt>
      <trkpt lat="48.63397" lon="2.0998">
        <ele>148</ele>
        <time>2023-03-05T14:20:32Z</time>
      </trkpt>
      <trkpt lat="48.63399" lon="2.0998">
        <ele>148</ele>
        <time>2023-03-05T14:20:34Z</time>
      </trkpt>
      <trkpt lat="48.63402" lon="2.0998">
        <ele>148</ele>
        <time>2023-03-05T14:20:36Z</time>
      </trkpt>
      <trkpt lat="48.63405" lon="2.0998">
        <ele>148</ele>
        <time>2023-03-05T14:20:38Z</time>
      </trkpt>
      <trkpt lat="48.63408" lon="2.09981">
        <ele>148</ele>
        <time>2023-03-05T14:20:40Z</time>
      </trkpt>
      <trkpt lat="48.63411" lon="2.09981">
        <ele>148</ele>
        <time>2023-03-05T14:20:42Z</time>
      </trkpt>
      <trkpt lat="48.63414" lon="2.09981">
        <ele>148</ele>
        <time>2023-03-05T14:20:44Z</time>
      </trkpt>
      <trkpt lat="48.63416" lon="2.09981">
        <ele>148</ele>
        <time>2023-03-05T14:20:45Z</time>
      </trkpt>
      <trkpt lat="48.63419" lon="2.0998">
        <ele>148.2</ele>
        <time>2023-03-05T14:20:47Z</time>
      </trkpt>
      <trkpt lat="48.63422" lon="2.0998">
        <ele>148.2</ele>
        <time>2023-03-05T14:20:49Z</time>
      </trkpt>
      <trkpt lat="48.63425" lon="2.0998">
        <ele>148.2</ele>
        <time>2023-03-05T14:20:51Z</time>
      </trkpt>
      <trkpt lat="48.63427" lon="2.0998">
        <ele>148</ele>
        <time>2023-03-05T14:20:53Z</time>
      </trkpt>
      <trkpt lat="48.6343" lon="2.0998">
        <ele>148</ele>
        <time>2023-03-05T14:20:55Z</time>
      </trkpt>
      <trkpt lat="48.63434" lon="2.0998">
        <ele>148.2</ele>
        <time>2023-03-05T14:20:57Z</time>
      </trkpt>
      <trkpt lat="48.63437" lon="2.0998">
        <ele>148.2</ele>
        <time>2023-03-05T14:20:59Z</time>
      </trkpt>
      <trkpt lat="48.6344" lon="2.0998">
        <ele>148.2</ele>
        <time>2023-03-05T14:21:01Z</time>
      </trkpt>
      <trkpt lat="48.63444" lon="2.0998">
        <ele>148.4</ele>
        <time>2023-03-05T14:21:03Z</time>
      </trkpt>
      <trkpt lat="48.63447" lon="2.0998">
        <ele>148.4</ele>
        <time>2023-03-05T14:21:05Z</time>
      </trkpt>
      <trkpt lat="48.6345" lon="2.09981">
        <ele>148.4</ele>
        <time>2023-03-05T14:21:07Z</time>
      </trkpt>
      <trkpt lat="48.63453" lon="2.09981">
        <ele>148.4</ele>
        <time>2023-03-05T14:21:09Z</time>
      </trkpt>
      <trkpt lat="48.63456" lon="2.09981">
        <ele>148.6</ele>
        <time>2023-03-05T14:21:11Z</time>
      </trkpt>
      <trkpt lat="48.6346" lon="2.0998">
        <ele>148.6</ele>
        <time>2023-03-05T14:21:13Z</time>
      </trkpt>
      <trkpt lat="48.63462" lon="2.09981">
        <ele>148.4</ele>
        <time>2023-03-05T14:21:15Z</time>
      </trkpt>
      <trkpt lat="48.63466" lon="2.09981">
        <ele>148.4</ele>
        <time>2023-03-05T14:21:17Z</time>
      </trkpt>
      <trkpt lat="48.63469" lon="2.09981">
        <ele>148.4</ele>
        <time>2023-03-05T14:21:19Z</time>
      </trkpt>
      <trkpt lat="48.63472" lon="2.0998">
        <ele>148.2</ele>
        <time>2023-03-05T14:21:21Z</time>
      </trkpt>
      <trkpt lat="48.63474" lon="2.0998">
        <ele>148.2</ele>
        <time>2023-03-05T14:21:23Z</time>
      </trkpt>
      <trkpt lat="48.63477" lon="2.09979">
        <ele>148.2</ele>
        <time>2023-03-05T14:21:25Z</time>
      </trkpt>
      <trkpt lat="48.6348" lon="2.0998">
        <ele>148.2</ele>
        <time>2023-03-05T14:21:27Z</time>
      </trkpt>
      <trkpt lat="48.63483" lon="2.09981">
        <ele>148.2</ele>
        <time>2023-03-05T14:21:29Z</time>
      </trkpt>
      <trkpt lat="48.63486" lon="2.09983">
        <ele>148</ele>
        <time>2023-03-05T14:21:31Z</time>
      </trkpt>
      <trkpt lat="48.63487" lon="2.09985">
        <ele>147.8</ele>
        <time>2023-03-05T14:21:32Z</time>
      </trkpt>
      <trkpt lat="48.6349" lon="2.09987">
        <ele>147.6</ele>
        <time>2023-03-05T14:21:34Z</time>
      </trkpt>
      <trkpt lat="48.63493" lon="2.09988">
        <ele>147.4</ele>
        <time>2023-03-05T14:21:36Z</time>
      </trkpt>
      <trkpt lat="48.63496" lon="2.09989">
        <ele>147.4</ele>
        <time>2023-03-05T14:21:38Z</time>
      </trkpt>
      <trkpt lat="48.63499" lon="2.0999">
        <ele>147.4</ele>
        <time>2023-03-05T14:21:40Z</time>
      </trkpt>
      <trkpt lat="48.63501" lon="2.0999">
        <ele>147.4</ele>
        <time>2023-03-05T14:21:42Z</time>
      </trkpt>
      <trkpt lat="48.63504" lon="2.09991">
        <ele>147.2</ele>
        <time>2023-03-05T14:21:44Z</time>
      </trkpt>
      <trkpt lat="48.63507" lon="2.09992">
        <ele>147.2</ele>
        <time>2023-03-05T14:21:46Z</time>
      </trkpt>
      <trkpt lat="48.6351" lon="2.09992">
        <ele>147</ele>
        <time>2023-03-05T14:21:48Z</time>
      </trkpt>
      <trkpt lat="48.63513" lon="2.09992">
        <ele>146.8</ele>
        <time>2023-03-05T14:21:50Z</time>
      </trkpt>
      <trkpt lat="48.63516" lon="2.09992">
        <ele>146.8</ele>
        <time>2023-03-05T14:21:52Z</time>
      </trkpt>
      <trkpt lat="48.6352" lon="2.09992">
        <ele>146.8</ele>
        <time>2023-03-05T14:21:54Z</time>
      </trkpt>
      <trkpt lat="48.63523" lon="2.09992">
        <ele>146.6</ele>
        <time>2023-03-05T14:21:56Z</time>
      </trkpt>
      <trkpt lat="48.63526" lon="2.09992">
        <ele>146.4</ele>
        <time>2023-03-05T14:21:58Z</time>
      </trkpt>
      <trkpt lat="48.63529" lon="2.09991">
        <ele>146.4</ele>
        <time>2023-03-05T14:22:00Z</time>
      </trkpt>
      <trkpt lat="48.63532" lon="2.09991">
        <ele>146.2</ele>
        <time>2023-03-05T14:22:02Z</time>
      </trkpt>
      <trkpt lat="48.63535" lon="2.09991">
        <ele>146.2</ele>
        <time>2023-03-05T14:22:04Z</time>
      </trkpt>
      <trkpt lat="48.63539" lon="2.09991">
        <ele>146</ele>
        <time>2023-03-05T14:22:06Z</time>
      </trkpt>
      <trkpt lat="48.63542" lon="2.09991">
        <ele>146</ele>
        <time>2023-03-05T14:22:08Z</time>
      </trkpt>
      <trkpt lat="48.63545" lon="2.09992">
        <ele>145.8</ele>
        <time>2023-03-05T14:22:10Z</time>
      </trkpt>
      <trkpt lat="48.63547" lon="2.09992">
        <ele>145.8</ele>
        <time>2023-03-05T14:22:11Z</time>
      </trkpt>
      <trkpt lat="48.6355" lon="2.09992">
        <ele>145.6</ele>
        <time>2023-03-05T14:22:13Z</time>
      </trkpt>
      <trkpt lat="48.63553" lon="2.09992">
        <ele>145.4</ele>
        <time>2023-03-05T14:22:15Z</time>
      </trkpt>
      <trkpt lat="48.63556" lon="2.09992">
        <ele>145.2</ele>
        <time>2023-03-05T14:22:17Z</time>
      </trkpt>
      <trkpt lat="48.6356" lon="2.09992">
        <ele>145</ele>
        <time>2023-03-05T14:22:19Z</time>
      </trkpt>
      <trkpt lat="48.63563" lon="2.09992">
        <ele>144.8</ele>
        <time>2023-03-05T14:22:21Z</time>
      </trkpt>
      <trkpt lat="48.63565" lon="2.09992">
        <ele>144.6</ele>
        <time>2023-03-05T14:22:22Z</time>
      </trkpt>
      <trkpt lat="48.63568" lon="2.09992">
        <ele>144.6</ele>
        <time>2023-03-05T14:22:24Z</time>
      </trkpt>
      <trkpt lat="48.6357" lon="2.09992">
        <ele>144.4</ele>
        <time>2023-03-05T14:22:25Z</time>
      </trkpt>
      <trkpt lat="48.63573" lon="2.09991">
        <ele>144.2</ele>
        <time>2023-03-05T14:22:27Z</time>
      </trkpt>
      <trkpt lat="48.63576" lon="2.09991">
        <ele>144</ele>
        <time>2023-03-05T14:22:29Z</time>
      </trkpt>
      <trkpt lat="48.63579" lon="2.09991">
        <ele>143.8</ele>
        <time>2023-03-05T14:22:31Z</time>
      </trkpt>
      <trkpt lat="48.63581" lon="2.09991">
        <ele>143.6</ele>
        <time>2023-03-05T14:22:32Z</time>
      </trkpt>
      <trkpt lat="48.63584" lon="2.09992">
        <ele>143.6</ele>
        <time>2023-03-05T14:22:34Z</time>
      </trkpt>
      <trkpt lat="48.63586" lon="2.09992">
        <ele>143.4</ele>
        <time>2023-03-05T14:22:35Z</time>
      </trkpt>
      <trkpt lat="48.63589" lon="2.09992">
        <ele>143.2</ele>
        <time>2023-03-05T14:22:37Z</time>
      </trkpt>
      <trkpt lat="48.63591" lon="2.09992">
        <ele>143</ele>
        <time>2023-03-05T14:22:39Z</time>
      </trkpt>
      <trkpt lat="48.63595" lon="2.09992">
        <ele>142.8</ele>
        <time>2023-03-05T14:22:41Z</time>
      </trkpt>
      <trkpt lat="48.63597" lon="2.09992">
        <ele>142.8</ele>
        <time>2023-03-05T14:22:43Z</time>
      </trkpt>
      <trkpt lat="48.636" lon="2.09993">
        <ele>142.8</ele>
        <time>2023-03-05T14:22:45Z</time>
      </trkpt>
      <trkpt lat="48.63603" lon="2.09992">
        <ele>142.2</ele>
        <time>2023-03-05T14:22:50Z</time>
      </trkpt>
      <trkpt lat="48.63605" lon="2.09993">
        <ele>141.8</ele>
        <time>2023-03-05T14:22:55Z</time>
      </trkpt>
      <trkpt lat="48.63607" lon="2.09993">
        <ele>141.8</ele>
        <time>2023-03-05T14:22:57Z</time>
      </trkpt>
      <trkpt lat="48.63611" lon="2.09993">
        <ele>141.6</ele>
        <time>2023-03-05T14:22:59Z</time>
      </trkpt>
      <trkpt lat="48.63613" lon="2.09994">
        <ele>141.4</ele>
        <time>2023-03-05T14:23:01Z</time>
      </trkpt>
      <trkpt lat="48.63617" lon="2.09994">
        <ele>141.4</ele>
        <time>2023-03-05T14:23:03Z</time>
      </trkpt>
      <trkpt lat="48.6362" lon="2.09993">
        <ele>141</ele>
        <time>2023-03-05T14:23:05Z</time>
      </trkpt>
      <trkpt lat="48.63623" lon="2.09993">
        <ele>140.8</ele>
        <time>2023-03-05T14:23:07Z</time>
      </trkpt>
      <trkpt lat="48.63625" lon="2.09993">
        <ele>140.6</ele>
        <time>2023-03-05T14:23:08Z</time>
      </trkpt>
      <trkpt lat="48.63628" lon="2.09993">
        <ele>140.4</ele>
        <time>2023-03-05T14:23:10Z</time>
      </trkpt>
      <trkpt lat="48.63631" lon="2.09993">
        <ele>140.2</ele>
        <time>2023-03-05T14:23:12Z</time>
      </trkpt>
      <trkpt lat="48.63634" lon="2.09993">
        <ele>140</ele>
        <time>2023-03-05T14:23:14Z</time>
      </trkpt>
      <trkpt lat="48.63636" lon="2.09992">
        <ele>140</ele>
        <time>2023-03-05T14:23:16Z</time>
      </trkpt>
      <trkpt lat="48.63639" lon="2.09991">
        <ele>140</ele>
        <time>2023-03-05T14:23:18Z</time>
      </trkpt>
      <trkpt lat="48.63642" lon="2.09991">
        <ele>140</ele>
        <time>2023-03-05T14:23:20Z</time>
      </trkpt>
      <trkpt lat="48.63645" lon="2.0999">
        <ele>140</ele>
        <time>2023-03-05T14:23:22Z</time>
      </trkpt>
      <trkpt lat="48.63648" lon="2.0999">
        <ele>140</ele>
        <time>2023-03-05T14:23:24Z</time>
      </trkpt>
      <trkpt lat="48.63651" lon="2.0999">
        <ele>139.8</ele>
        <time>2023-03-05T14:23:26Z</time>
      </trkpt>
      <trkpt lat="48.63653" lon="2.0999">
        <ele>139.6</ele>
        <time>2023-03-05T14:23:28Z</time>
      </trkpt>
      <trkpt lat="48.63656" lon="2.09991">
        <ele>139.6</ele>
        <time>2023-03-05T14:23:30Z</time>
      </trkpt>
      <trkpt lat="48.63659" lon="2.09991">
        <ele>139.6</ele>
        <time>2023-03-05T14:23:32Z</time>
      </trkpt>
      <trkpt lat="48.63662" lon="2.0999">
        <ele>139.4</ele>
        <time>2023-03-05T14:23:34Z</time>
      </trkpt>
      <trkpt lat="48.63665" lon="2.0999">
        <ele>139.2</ele>
        <time>2023-03-05T14:23:36Z</time>
      </trkpt>
      <trkpt lat="48.63668" lon="2.09989">
        <ele>139</ele>
        <time>2023-03-05T14:23:38Z</time>
      </trkpt>
      <trkpt lat="48.63671" lon="2.09989">
        <ele>139</ele>
        <time>2023-03-05T14:23:40Z</time>
      </trkpt>
      <trkpt lat="48.63674" lon="2.09988">
        <ele>139</ele>
        <time>2023-03-05T14:23:42Z</time>
      </trkpt>
      <trkpt lat="48.63677" lon="2.09987">
        <ele>138.8</ele>
        <time>2023-03-05T14:23:44Z</time>
      </trkpt>
      <trkpt lat="48.63679" lon="2.09987">
        <ele>138.6</ele>
        <time>2023-03-05T14:23:46Z</time>
      </trkpt>
      <trkpt lat="48.63682" lon="2.09987">
        <ele>138.6</ele>
        <time>2023-03-05T14:23:48Z</time>
      </trkpt>
      <trkpt lat="48.63685" lon="2.09986">
        <ele>138.2</ele>
        <time>2023-03-05T14:23:50Z</time>
      </trkpt>
      <trkpt lat="48.63688" lon="2.09986">
        <ele>138</ele>
        <time>2023-03-05T14:23:52Z</time>
      </trkpt>
      <trkpt lat="48.63691" lon="2.09985">
        <ele>137.8</ele>
        <time>2023-03-05T14:23:54Z</time>
      </trkpt>
      <trkpt lat="48.63694" lon="2.09985">
        <ele>137.6</ele>
        <time>2023-03-05T14:23:56Z</time>
      </trkpt>
      <trkpt lat="48.63697" lon="2.09984">
        <ele>137.6</ele>
        <time>2023-03-05T14:23:58Z</time>
      </trkpt>
      <trkpt lat="48.637" lon="2.09984">
        <ele>137.4</ele>
        <time>2023-03-05T14:24:00Z</time>
      </trkpt>
      <trkpt lat="48.63703" lon="2.09983">
        <ele>137.4</ele>
        <time>2023-03-05T14:24:02Z</time>
      </trkpt>
      <trkpt lat="48.63706" lon="2.09982">
        <ele>137.2</ele>
        <time>2023-03-05T14:24:04Z</time>
      </trkpt>
      <trkpt lat="48.63708" lon="2.09982">
        <ele>137</ele>
        <time>2023-03-05T14:24:05Z</time>
      </trkpt>
      <trkpt lat="48.63711" lon="2.09981">
        <ele>136.8</ele>
        <time>2023-03-05T14:24:07Z</time>
      </trkpt>
      <trkpt lat="48.63714" lon="2.09981">
        <ele>136.6</ele>
        <time>2023-03-05T14:24:09Z</time>
      </trkpt>
      <trkpt lat="48.63717" lon="2.0998">
        <ele>136.4</ele>
        <time>2023-03-05T14:24:11Z</time>
      </trkpt>
      <trkpt lat="48.6372" lon="2.0998">
        <ele>136.2</ele>
        <time>2023-03-05T14:24:13Z</time>
      </trkpt>
      <trkpt lat="48.63724" lon="2.09979">
        <ele>135.8</ele>
        <time>2023-03-05T14:24:15Z</time>
      </trkpt>
      <trkpt lat="48.63726" lon="2.09978">
        <ele>135.6</ele>
        <time>2023-03-05T14:24:17Z</time>
      </trkpt>
      <trkpt lat="48.6373" lon="2.09977">
        <ele>135.6</ele>
        <time>2023-03-05T14:24:19Z</time>
      </trkpt>
      <trkpt lat="48.63732" lon="2.09977">
        <ele>135.4</ele>
        <time>2023-03-05T14:24:21Z</time>
      </trkpt>
      <trkpt lat="48.63735" lon="2.09977">
        <ele>135</ele>
        <time>2023-03-05T14:24:23Z</time>
      </trkpt>
      <trkpt lat="48.63737" lon="2.09976">
        <ele>134.8</ele>
        <time>2023-03-05T14:24:24Z</time>
      </trkpt>
      <trkpt lat="48.6374" lon="2.09976">
        <ele>134.6</ele>
        <time>2023-03-05T14:24:26Z</time>
      </trkpt>
      <trkpt lat="48.63743" lon="2.09976">
        <ele>134.4</ele>
        <time>2023-03-05T14:24:28Z</time>
      </trkpt>
      <trkpt lat="48.63746" lon="2.09976">
        <ele>134</ele>
        <time>2023-03-05T14:24:30Z</time>
      </trkpt>
      <trkpt lat="48.63749" lon="2.09976">
        <ele>133.6</ele>
        <time>2023-03-05T14:24:32Z</time>
      </trkpt>
      <trkpt lat="48.63752" lon="2.09976">
        <ele>133.4</ele>
        <time>2023-03-05T14:24:34Z</time>
      </trkpt>
      <trkpt lat="48.63755" lon="2.09975">
        <ele>133</ele>
        <time>2023-03-05T14:24:36Z</time>
      </trkpt>
      <trkpt lat="48.63758" lon="2.09975">
        <ele>132.8</ele>
        <time>2023-03-05T14:24:38Z</time>
      </trkpt>
      <trkpt lat="48.63761" lon="2.09975">
        <ele>132.4</ele>
        <time>2023-03-05T14:24:40Z</time>
      </trkpt>
      <trkpt lat="48.63764" lon="2.09975">
        <ele>132.2</ele>
        <time>2023-03-05T14:24:42Z</time>
      </trkpt>
      <trkpt lat="48.63767" lon="2.09974">
        <ele>132</ele>
        <time>2023-03-05T14:24:44Z</time>
      </trkpt>
      <trkpt lat="48.63769" lon="2.09974">
        <ele>132</ele>
        <time>2023-03-05T14:24:45Z</time>
      </trkpt>
      <trkpt lat="48.63772" lon="2.09974">
        <ele>131.8</ele>
        <time>2023-03-05T14:24:47Z</time>
      </trkpt>
      <trkpt lat="48.63775" lon="2.09974">
        <ele>131.6</ele>
        <time>2023-03-05T14:24:49Z</time>
      </trkpt>
      <trkpt lat="48.63778" lon="2.09973">
        <ele>131.4</ele>
        <time>2023-03-05T14:24:51Z</time>
      </trkpt>
      <trkpt lat="48.63781" lon="2.09973">
        <ele>131.4</ele>
        <time>2023-03-05T14:24:53Z</time>
      </trkpt>
      <trkpt lat="48.63784" lon="2.09973">
        <ele>131.2</ele>
        <time>2023-03-05T14:24:55Z</time>
      </trkpt>
      <trkpt lat="48.63787" lon="2.09972">
        <ele>131</ele>
        <time>2023-03-05T14:24:57Z</time>
      </trkpt>
      <trkpt lat="48.6379" lon="2.09972">
        <ele>131</ele>
        <time>2023-03-05T14:24:59Z</time>
      </trkpt>
      <trkpt lat="48.63793" lon="2.09972">
        <ele>130.8</ele>
        <time>2023-03-05T14:25:01Z</time>
      </trkpt>
      <trkpt lat="48.63796" lon="2.09971">
        <ele>130.6</ele>
        <time>2023-03-05T14:25:03Z</time>
      </trkpt>
      <trkpt lat="48.63799" lon="2.09971">
        <ele>130.6</ele>
        <time>2023-03-05T14:25:05Z</time>
      </trkpt>
      <trkpt lat="48.63802" lon="2.0997">
        <ele>130.4</ele>
        <time>2023-03-05T14:25:07Z</time>
      </trkpt>
      <trkpt lat="48.63805" lon="2.09969">
        <ele>130.2</ele>
        <time>2023-03-05T14:25:09Z</time>
      </trkpt>
      <trkpt lat="48.63808" lon="2.09968">
        <ele>130.2</ele>
        <time>2023-03-05T14:25:11Z</time>
      </trkpt>
      <trkpt lat="48.63812" lon="2.09968">
        <ele>130</ele>
        <time>2023-03-05T14:25:13Z</time>
      </trkpt>
      <trkpt lat="48.63814" lon="2.09967">
        <ele>129.8</ele>
        <time>2023-03-05T14:25:15Z</time>
      </trkpt>
      <trkpt lat="48.63818" lon="2.09966">
        <ele>129.6</ele>
        <time>2023-03-05T14:25:17Z</time>
      </trkpt>
      <trkpt lat="48.63821" lon="2.09966">
        <ele>129.6</ele>
        <time>2023-03-05T14:25:19Z</time>
      </trkpt>
      <trkpt lat="48.63824" lon="2.09966">
        <ele>129.4</ele>
        <time>2023-03-05T14:25:21Z</time>
      </trkpt>
      <trkpt lat="48.63827" lon="2.09965">
        <ele>129.2</ele>
        <time>2023-03-05T14:25:23Z</time>
      </trkpt>
      <trkpt lat="48.6383" lon="2.09965">
        <ele>129</ele>
        <time>2023-03-05T14:25:25Z</time>
      </trkpt>
      <trkpt lat="48.63833" lon="2.09965">
        <ele>128.8</ele>
        <time>2023-03-05T14:25:27Z</time>
      </trkpt>
      <trkpt lat="48.63836" lon="2.09965">
        <ele>128.6</ele>
        <time>2023-03-05T14:25:29Z</time>
      </trkpt>
      <trkpt lat="48.63839" lon="2.09965">
        <ele>128.4</ele>
        <time>2023-03-05T14:25:31Z</time>
      </trkpt>
      <trkpt lat="48.63841" lon="2.09965">
        <ele>128.2</ele>
        <time>2023-03-05T14:25:33Z</time>
      </trkpt>
      <trkpt lat="48.63844" lon="2.09965">
        <ele>128.2</ele>
        <time>2023-03-05T14:25:35Z</time>
      </trkpt>
      <trkpt lat="48.63847" lon="2.09965">
        <ele>128</ele>
        <time>2023-03-05T14:25:37Z</time>
      </trkpt>
      <trkpt lat="48.6385" lon="2.09965">
        <ele>127.8</ele>
        <time>2023-03-05T14:25:39Z</time>
      </trkpt>
      <trkpt lat="48.63853" lon="2.09966">
        <ele>127.6</ele>
        <time>2023-03-05T14:25:41Z</time>
      </trkpt>
      <trkpt lat="48.63856" lon="2.09966">
        <ele>127.4</ele>
        <time>2023-03-05T14:25:43Z</time>
      </trkpt>
      <trkpt lat="48.63859" lon="2.09967">
        <ele>127.4</ele>
        <time>2023-03-05T14:25:45Z</time>
      </trkpt>
      <trkpt lat="48.63862" lon="2.09967">
        <ele>127.2</ele>
        <time>2023-03-05T14:25:47Z</time>
      </trkpt>
      <trkpt lat="48.63865" lon="2.09967">
        <ele>127</ele>
        <time>2023-03-05T14:25:49Z</time>
      </trkpt>
      <trkpt lat="48.63867" lon="2.09967">
        <ele>126.8</ele>
        <time>2023-03-05T14:25:51Z</time>
      </trkpt>
      <trkpt lat="48.63869" lon="2.09967">
        <ele>126.6</ele>
        <time>2023-03-05T14:25:53Z</time>
      </trkpt>
      <trkpt lat="48.63872" lon="2.09967">
        <ele>126.4</ele>
        <time>2023-03-05T14:25:55Z</time>
      </trkpt>
      <trkpt lat="48.63874" lon="2.09967">
        <ele>126.4</ele>
        <time>2023-03-05T14:25:57Z</time>
      </trkpt>
      <trkpt lat="48.63877" lon="2.09967">
        <ele>126.2</ele>
        <time>2023-03-05T14:25:59Z</time>
      </trkpt>
      <trkpt lat="48.63879" lon="2.09967">
        <ele>126</ele>
        <time>2023-03-05T14:26:01Z</time>
      </trkpt>
      <trkpt lat="48.63883" lon="2.09967">
        <ele>126</ele>
        <time>2023-03-05T14:26:03Z</time>
      </trkpt>
      <trkpt lat="48.63885" lon="2.09968">
        <ele>125.8</ele>
        <time>2023-03-05T14:26:05Z</time>
      </trkpt>
      <trkpt lat="48.63888" lon="2.09968">
        <ele>125.6</ele>
        <time>2023-03-05T14:26:07Z</time>
      </trkpt>
      <trkpt lat="48.63892" lon="2.09968">
        <ele>125.2</ele>
        <time>2023-03-05T14:26:09Z</time>
      </trkpt>
      <trkpt lat="48.63895" lon="2.09968">
        <ele>125</ele>
        <time>2023-03-05T14:26:11Z</time>
      </trkpt>
      <trkpt lat="48.63897" lon="2.09969">
        <ele>125</ele>
        <time>2023-03-05T14:26:12Z</time>
      </trkpt>
      <trkpt lat="48.639" lon="2.09969">
        <ele>124.8</ele>
        <time>2023-03-05T14:26:14Z</time>
      </trkpt>
      <trkpt lat="48.63902" lon="2.0997">
        <ele>124.6</ele>
        <time>2023-03-05T14:26:16Z</time>
      </trkpt>
      <trkpt lat="48.63905" lon="2.0997">
        <ele>124.6</ele>
        <time>2023-03-05T14:26:18Z</time>
      </trkpt>
      <trkpt lat="48.63907" lon="2.0997">
        <ele>124.6</ele>
        <time>2023-03-05T14:26:19Z</time>
      </trkpt>
      <trkpt lat="48.6391" lon="2.0997">
        <ele>124.4</ele>
        <time>2023-03-05T14:26:21Z</time>
      </trkpt>
      <trkpt lat="48.63913" lon="2.0997">
        <ele>124</ele>
        <time>2023-03-05T14:26:23Z</time>
      </trkpt>
      <trkpt lat="48.63916" lon="2.09971">
        <ele>123.8</ele>
        <time>2023-03-05T14:26:25Z</time>
      </trkpt>
      <trkpt lat="48.63919" lon="2.09971">
        <ele>123.6</ele>
        <time>2023-03-05T14:26:27Z</time>
      </trkpt>
      <trkpt lat="48.63922" lon="2.09972">
        <ele>123.6</ele>
        <time>2023-03-05T14:26:29Z</time>
      </trkpt>
      <trkpt lat="48.63925" lon="2.09972">
        <ele>123.4</ele>
        <time>2023-03-05T14:26:31Z</time>
      </trkpt>
      <trkpt lat="48.63928" lon="2.09973">
        <ele>123.4</ele>
        <time>2023-03-05T14:26:33Z</time>
      </trkpt>
      <trkpt lat="48.63931" lon="2.09973">
        <ele>123.2</ele>
        <time>2023-03-05T14:26:35Z</time>
      </trkpt>
      <trkpt lat="48.63933" lon="2.09973">
        <ele>123.2</ele>
        <time>2023-03-05T14:26:37Z</time>
      </trkpt>
      <trkpt lat="48.63935" lon="2.09973">
        <ele>123.2</ele>
        <time>2023-03-05T14:26:39Z</time>
      </trkpt>
      <trkpt lat="48.63938" lon="2.09973">
        <ele>123</ele>
        <time>2023-03-05T14:26:41Z</time>
      </trkpt>
      <trkpt lat="48.63941" lon="2.09974">
        <ele>123.2</ele>
        <time>2023-03-05T14:26:43Z</time>
      </trkpt>
      <trkpt lat="48.63944" lon="2.09974">
        <ele>123.4</ele>
        <time>2023-03-05T14:26:45Z</time>
      </trkpt>
      <trkpt lat="48.63947" lon="2.09974">
        <ele>123.4</ele>
        <time>2023-03-05T14:26:47Z</time>
      </trkpt>
      <trkpt lat="48.63949" lon="2.09975">
        <ele>123.4</ele>
        <time>2023-03-05T14:26:49Z</time>
      </trkpt>
      <trkpt lat="48.63952" lon="2.09976">
        <ele>123.2</ele>
        <time>2023-03-05T14:26:51Z</time>
      </trkpt>
      <trkpt lat="48.63955" lon="2.09977">
        <ele>123.2</ele>
        <time>2023-03-05T14:26:53Z</time>
      </trkpt>
      <trkpt lat="48.63958" lon="2.09977">
        <ele>122.8</ele>
        <time>2023-03-05T14:26:55Z</time>
      </trkpt>
      <trkpt lat="48.63961" lon="2.09978">
        <ele>122.6</ele>
        <time>2023-03-05T14:26:57Z</time>
      </trkpt>
      <trkpt lat="48.63964" lon="2.09978">
        <ele>122.2</ele>
        <time>2023-03-05T14:26:59Z</time>
      </trkpt>
      <trkpt lat="48.63966" lon="2.09978">
        <ele>122.2</ele>
        <time>2023-03-05T14:27:00Z</time>
      </trkpt>
      <trkpt lat="48.63969" lon="2.09979">
        <ele>122</ele>
        <time>2023-03-05T14:27:02Z</time>
      </trkpt>
      <trkpt lat="48.63971" lon="2.09979">
        <ele>121.8</ele>
        <time>2023-03-05T14:27:03Z</time>
      </trkpt>
      <trkpt lat="48.63975" lon="2.09979">
        <ele>121.6</ele>
        <time>2023-03-05T14:27:05Z</time>
      </trkpt>
      <trkpt lat="48.63978" lon="2.0998">
        <ele>121.4</ele>
        <time>2023-03-05T14:27:07Z</time>
      </trkpt>
      <trkpt lat="48.63981" lon="2.09981">
        <ele>121.2</ele>
        <time>2023-03-05T14:27:09Z</time>
      </trkpt>
      <trkpt lat="48.63984" lon="2.09982">
        <ele>121</ele>
        <time>2023-03-05T14:27:11Z</time>
      </trkpt>
      <trkpt lat="48.63987" lon="2.09983">
        <ele>120.6</ele>
        <time>2023-03-05T14:27:13Z</time>
      </trkpt>
      <trkpt lat="48.6399" lon="2.09984">
        <ele>120.2</ele>
        <time>2023-03-05T14:27:15Z</time>
      </trkpt>
      <trkpt lat="48.63992" lon="2.09985">
        <ele>120</ele>
        <time>2023-03-05T14:27:17Z</time>
      </trkpt>
      <trkpt lat="48.63995" lon="2.09985">
        <ele>119.8</ele>
        <time>2023-03-05T14:27:19Z</time>
      </trkpt>
      <trkpt lat="48.63998" lon="2.09985">
        <ele>119.6</ele>
        <time>2023-03-05T14:27:21Z</time>
      </trkpt>
      <trkpt lat="48.64001" lon="2.09985">
        <ele>119.6</ele>
        <time>2023-03-05T14:27:23Z</time>
      </trkpt>
      <trkpt lat="48.64004" lon="2.09984">
        <ele>119.4</ele>
        <time>2023-03-05T14:27:25Z</time>
      </trkpt>
      <trkpt lat="48.64006" lon="2.09984">
        <ele>119.4</ele>
        <time>2023-03-05T14:27:27Z</time>
      </trkpt>
      <trkpt lat="48.64008" lon="2.09985">
        <ele>119.4</ele>
        <time>2023-03-05T14:27:29Z</time>
      </trkpt>
      <trkpt lat="48.6401" lon="2.09986">
        <ele>119.4</ele>
        <time>2023-03-05T14:27:32Z</time>
      </trkpt>
      <trkpt lat="48.64012" lon="2.09986">
        <ele>119.2</ele>
        <time>2023-03-05T14:27:38Z</time>
      </trkpt>
      <trkpt lat="48.64014" lon="2.09986">
        <ele>117.6</ele>
        <time>2023-03-05T14:27:57Z</time>
      </trkpt>
      <trkpt lat="48.64016" lon="2.09987">
        <ele>117.2</ele>
        <time>2023-03-05T14:28:02Z</time>
      </trkpt>
      <trkpt lat="48.6402" lon="2.09986">
        <ele>117</ele>
        <time>2023-03-05T14:28:04Z</time>
      </trkpt>
      <trkpt lat="48.64021" lon="2.09986">
        <ele>117</ele>
        <time>2023-03-05T14:28:05Z</time>
      </trkpt>
      <trkpt lat="48.64023" lon="2.09986">
        <ele>117</ele>
        <time>2023-03-05T14:28:06Z</time>
      </trkpt>
      <trkpt lat="48.64026" lon="2.09986">
        <ele>117</ele>
        <time>2023-03-05T14:28:07Z</time>
      </trkpt>
      <trkpt lat="48.64028" lon="2.09985">
        <ele>117</ele>
        <time>2023-03-05T14:28:08Z</time>
      </trkpt>
      <trkpt lat="48.64029" lon="2.09985">
        <ele>117</ele>
        <time>2023-03-05T14:28:09Z</time>
      </trkpt>
      <trkpt lat="48.64033" lon="2.09984">
        <ele>117.2</ele>
        <time>2023-03-05T14:28:11Z</time>
      </trkpt>
      <trkpt lat="48.64036" lon="2.09982">
        <ele>117.4</ele>
        <time>2023-03-05T14:28:13Z</time>
      </trkpt>
      <trkpt lat="48.64038" lon="2.0998">
        <ele>117.4</ele>
        <time>2023-03-05T14:28:15Z</time>
      </trkpt>
      <trkpt lat="48.64041" lon="2.09979">
        <ele>117.4</ele>
        <time>2023-03-05T14:28:17Z</time>
      </trkpt>
      <trkpt lat="48.64044" lon="2.09978">
        <ele>117.4</ele>
        <time>2023-03-05T14:28:19Z</time>
      </trkpt>
      <trkpt lat="48.64046" lon="2.09977">
        <ele>117.4</ele>
        <time>2023-03-05T14:28:21Z</time>
      </trkpt>
      <trkpt lat="48.64049" lon="2.09977">
        <ele>117.4</ele>
        <time>2023-03-05T14:28:23Z</time>
      </trkpt>
      <trkpt lat="48.64052" lon="2.09975">
        <ele>117.2</ele>
        <time>2023-03-05T14:28:25Z</time>
      </trkpt>
      <trkpt lat="48.64053" lon="2.09974">
        <ele>117.2</ele>
        <time>2023-03-05T14:28:27Z</time>
      </trkpt>
      <trkpt lat="48.64055" lon="2.09973">
        <ele>117</ele>
        <time>2023-03-05T14:28:37Z</time>
      </trkpt>
      <trkpt lat="48.64058" lon="2.09974">
        <ele>117</ele>
        <time>2023-03-05T14:28:40Z</time>
      </trkpt>
      <trkpt lat="48.6406" lon="2.09974">
        <ele>116.8</ele>
        <time>2023-03-05T14:28:42Z</time>
      </trkpt>
      <trkpt lat="48.64062" lon="2.09976">
        <ele>116.6</ele>
        <time>2023-03-05T14:28:44Z</time>
      </trkpt>
      <trkpt lat="48.64064" lon="2.09977">
        <ele>116.4</ele>
        <time>2023-03-05T14:28:46Z</time>
      </trkpt>
      <trkpt lat="48.64067" lon="2.09978">
        <ele>116.2</ele>
        <time>2023-03-05T14:28:48Z</time>
      </trkpt>
      <trkpt lat="48.64069" lon="2.09979">
        <ele>116</ele>
        <time>2023-03-05T14:28:50Z</time>
      </trkpt>
      <trkpt lat="48.64073" lon="2.09979">
        <ele>116</ele>
        <time>2023-03-05T14:28:52Z</time>
      </trkpt>
      <trkpt lat="48.64076" lon="2.0998">
        <ele>115.8</ele>
        <time>2023-03-05T14:28:54Z</time>
      </trkpt>
      <trkpt lat="48.64079" lon="2.0998">
        <ele>115.8</ele>
        <time>2023-03-05T14:28:56Z</time>
      </trkpt>
      <trkpt lat="48.64082" lon="2.09981">
        <ele>115.6</ele>
        <time>2023-03-05T14:28:58Z</time>
      </trkpt>
      <trkpt lat="48.64084" lon="2.09982">
        <ele>115.6</ele>
        <time>2023-03-05T14:29:00Z</time>
      </trkpt>
      <trkpt lat="48.64087" lon="2.09984">
        <ele>115.4</ele>
        <time>2023-03-05T14:29:02Z</time>
      </trkpt>
      <trkpt lat="48.64089" lon="2.09985">
        <ele>115.4</ele>
        <time>2023-03-05T14:29:03Z</time>
      </trkpt>
      <trkpt lat="48.64091" lon="2.09988">
        <ele>115.2</ele>
        <time>2023-03-05T14:29:05Z</time>
      </trkpt>
      <trkpt lat="48.64093" lon="2.09992">
        <ele>115</ele>
        <time>2023-03-05T14:29:07Z</time>
      </trkpt>
      <trkpt lat="48.64095" lon="2.09995">
        <ele>114.8</ele>
        <time>2023-03-05T14:29:09Z</time>
      </trkpt>
      <trkpt lat="48.64097" lon="2.09997">
        <ele>114.6</ele>
        <time>2023-03-05T14:29:11Z</time>
      </trkpt>
      <trkpt lat="48.64099" lon="2.1">
        <ele>114.4</ele>
        <time>2023-03-05T14:29:13Z</time>
      </trkpt>
      <trkpt lat="48.64101" lon="2.10003">
        <ele>114.4</ele>
        <time>2023-03-05T14:29:15Z</time>
      </trkpt>
      <trkpt lat="48.64103" lon="2.10007">
        <ele>114.4</ele>
        <time>2023-03-05T14:29:17Z</time>
      </trkpt>
      <trkpt lat="48.64106" lon="2.1001">
        <ele>114.4</ele>
        <time>2023-03-05T14:29:19Z</time>
      </trkpt>
      <trkpt lat="48.64108" lon="2.10013">
        <ele>114.4</ele>
        <time>2023-03-05T14:29:21Z</time>
      </trkpt>
      <trkpt lat="48.64109" lon="2.10015">
        <ele>114.6</ele>
        <time>2023-03-05T14:29:22Z</time>
      </trkpt>
      <trkpt lat="48.64112" lon="2.10018">
        <ele>114.8</ele>
        <time>2023-03-05T14:29:24Z</time>
      </trkpt>
      <trkpt lat="48.64113" lon="2.1002">
        <ele>115</ele>
        <time>2023-03-05T14:29:25Z</time>
      </trkpt>
      <trkpt lat="48.64116" lon="2.10023">
        <ele>115.2</ele>
        <time>2023-03-05T14:29:27Z</time>
      </trkpt>
      <trkpt lat="48.64118" lon="2.10027">
        <ele>115.6</ele>
        <time>2023-03-05T14:29:29Z</time>
      </trkpt>
      <trkpt lat="48.6412" lon="2.10028">
        <ele>115.8</ele>
        <time>2023-03-05T14:29:30Z</time>
      </trkpt>
      <trkpt lat="48.64121" lon="2.1003">
        <ele>116</ele>
        <time>2023-03-05T14:29:31Z</time>
      </trkpt>
      <trkpt lat="48.64123" lon="2.10032">
        <ele>116.2</ele>
        <time>2023-03-05T14:29:32Z</time>
      </trkpt>
      <trkpt lat="48.64126" lon="2.10035">
        <ele>116.6</ele>
        <time>2023-03-05T14:29:34Z</time>
      </trkpt>
      <trkpt lat="48.64128" lon="2.10039">
        <ele>117</ele>
        <time>2023-03-05T14:29:36Z</time>
      </trkpt>
      <trkpt lat="48.6413" lon="2.10041">
        <ele>117.4</ele>
        <time>2023-03-05T14:29:38Z</time>
      </trkpt>
      <trkpt lat="48.64132" lon="2.10044">
        <ele>117.8</ele>
        <time>2023-03-05T14:29:40Z</time>
      </trkpt>
      <trkpt lat="48.64134" lon="2.10044">
        <ele>118</ele>
        <time>2023-03-05T14:29:42Z</time>
      </trkpt>
      <trkpt lat="48.64136" lon="2.10044">
        <ele>118.2</ele>
        <time>2023-03-05T14:29:44Z</time>
      </trkpt>
      <trkpt lat="48.64139" lon="2.10042">
        <ele>118.4</ele>
        <time>2023-03-05T14:29:46Z</time>
      </trkpt>
      <trkpt lat="48.64141" lon="2.10039">
        <ele>118.8</ele>
        <time>2023-03-05T14:29:48Z</time>
      </trkpt>
      <trkpt lat="48.64143" lon="2.10036">
        <ele>119</ele>
        <time>2023-03-05T14:29:50Z</time>
      </trkpt>
      <trkpt lat="48.64145" lon="2.10034">
        <ele>119.4</ele>
        <time>2023-03-05T14:29:52Z</time>
      </trkpt>
      <trkpt lat="48.64149" lon="2.10032">
        <ele>119.4</ele>
        <time>2023-03-05T14:29:54Z</time>
      </trkpt>
      <trkpt lat="48.64152" lon="2.1003">
        <ele>119.6</ele>
        <time>2023-03-05T14:29:55Z</time>
      </trkpt>
      <trkpt lat="48.64155" lon="2.10029">
        <ele>119.6</ele>
        <time>2023-03-05T14:29:56Z</time>
      </trkpt>
      <trkpt lat="48.64157" lon="2.10027">
        <ele>119.8</ele>
        <time>2023-03-05T14:29:57Z</time>
      </trkpt>
      <trkpt lat="48.64161" lon="2.10025">
        <ele>119.8</ele>
        <time>2023-03-05T14:29:58Z</time>
      </trkpt>
      <trkpt lat="48.64164" lon="2.10022">
        <ele>120</ele>
        <time>2023-03-05T14:29:59Z</time>
      </trkpt>
      <trkpt lat="48.64167" lon="2.1002">
        <ele>120</ele>
        <time>2023-03-05T14:30:00Z</time>
      </trkpt>
      <trkpt lat="48.64171" lon="2.10018">
        <ele>120</ele>
        <time>2023-03-05T14:30:01Z</time>
      </trkpt>
      <trkpt lat="48.64173" lon="2.10016">
        <ele>120.2</ele>
        <time>2023-03-05T14:30:02Z</time>
      </trkpt>
      <trkpt lat="48.64176" lon="2.10015">
        <ele>120.2</ele>
        <time>2023-03-05T14:30:03Z</time>
      </trkpt>
      <trkpt lat="48.64179" lon="2.10014">
        <ele>120.4</ele>
        <time>2023-03-05T14:30:04Z</time>
      </trkpt>
      <trkpt lat="48.64181" lon="2.10013">
        <ele>120.4</ele>
        <time>2023-03-05T14:30:05Z</time>
      </trkpt>
      <trkpt lat="48.64183" lon="2.10012">
        <ele>120.4</ele>
        <time>2023-03-05T14:30:06Z</time>
      </trkpt>
      <trkpt lat="48.64186" lon="2.10012">
        <ele>120.6</ele>
        <time>2023-03-05T14:30:07Z</time>
      </trkpt>
      <trkpt lat="48.64189" lon="2.10011">
        <ele>120.6</ele>
        <time>2023-03-05T14:30:08Z</time>
      </trkpt>
      <trkpt lat="48.64192" lon="2.1001">
        <ele>120.8</ele>
        <time>2023-03-05T14:30:09Z</time>
      </trkpt>
      <trkpt lat="48.64196" lon="2.1001">
        <ele>120.8</ele>
        <time>2023-03-05T14:30:10Z</time>
      </trkpt>
      <trkpt lat="48.64199" lon="2.10008">
        <ele>120.8</ele>
        <time>2023-03-05T14:30:11Z</time>
      </trkpt>
      <trkpt lat="48.64204" lon="2.10007">
        <ele>121</ele>
        <time>2023-03-05T14:30:12Z</time>
      </trkpt>
      <trkpt lat="48.64207" lon="2.10005">
        <ele>121</ele>
        <time>2023-03-05T14:30:13Z</time>
      </trkpt>
      <trkpt lat="48.64212" lon="2.10004">
        <ele>121.2</ele>
        <time>2023-03-05T14:30:14Z</time>
      </trkpt>
      <trkpt lat="48.64216" lon="2.10002">
        <ele>121.2</ele>
        <time>2023-03-05T14:30:15Z</time>
      </trkpt>
      <trkpt lat="48.64221" lon="2.1">
        <ele>121.2</ele>
        <time>2023-03-05T14:30:16Z</time>
      </trkpt>
      <trkpt lat="48.64225" lon="2.09998">
        <ele>121.4</ele>
        <time>2023-03-05T14:30:17Z</time>
      </trkpt>
      <trkpt lat="48.6423" lon="2.09996">
        <ele>121.4</ele>
        <time>2023-03-05T14:30:18Z</time>
      </trkpt>
      <trkpt lat="48.64235" lon="2.09994">
        <ele>121.4</ele>
        <time>2023-03-05T14:30:19Z</time>
      </trkpt>
      <trkpt lat="48.64239" lon="2.09992">
        <ele>121.6</ele>
        <time>2023-03-05T14:30:20Z</time>
      </trkpt>
      <trkpt lat="48.64244" lon="2.0999">
        <ele>121.6</ele>
        <time>2023-03-05T14:30:21Z</time>
      </trkpt>
      <trkpt lat="48.64248" lon="2.09988">
        <ele>121.8</ele>
        <time>2023-03-05T14:30:22Z</time>
      </trkpt>
      <trkpt lat="48.64252" lon="2.09986">
        <ele>121.8</ele>
        <time>2023-03-05T14:30:23Z</time>
      </trkpt>
      <trkpt lat="48.64256" lon="2.09984">
        <ele>122</ele>
        <time>2023-03-05T14:30:24Z</time>
      </trkpt>
      <trkpt lat="48.64259" lon="2.09982">
        <ele>122</ele>
        <time>2023-03-05T14:30:25Z</time>
      </trkpt>
      <trkpt lat="48.64263" lon="2.09979">
        <ele>122.2</ele>
        <time>2023-03-05T14:30:26Z</time>
      </trkpt>
      <trkpt lat="48.64266" lon="2.09976">
        <ele>122.4</ele>
        <time>2023-03-05T14:30:27Z</time>
      </trkpt>
      <trkpt lat="48.64268" lon="2.09972">
        <ele>122.6</ele>
        <time>2023-03-05T14:30:28Z</time>
      </trkpt>
      <trkpt lat="48.6427" lon="2.09969">
        <ele>122.8</ele>
        <time>2023-03-05T14:30:29Z</time>
      </trkpt>
      <trkpt lat="48.64272" lon="2.09965">
        <ele>123</ele>
        <time>2023-03-05T14:30:30Z</time>
      </trkpt>
      <trkpt lat="48.64274" lon="2.09961">
        <ele>123.2</ele>
        <time>2023-03-05T14:30:31Z</time>
      </trkpt>
      <trkpt lat="48.64276" lon="2.09956">
        <ele>123.4</ele>
        <time>2023-03-05T14:30:32Z</time>
      </trkpt>
      <trkpt lat="48.64276" lon="2.09952">
        <ele>123.6</ele>
        <time>2023-03-05T14:30:33Z</time>
      </trkpt>
      <trkpt lat="48.64278" lon="2.09948">
        <ele>123.8</ele>
        <time>2023-03-05T14:30:34Z</time>
      </trkpt>
      <trkpt lat="48.64279" lon="2.09943">
        <ele>124</ele>
        <time>2023-03-05T14:30:35Z</time>
      </trkpt>
      <trkpt lat="48.6428" lon="2.0994">
        <ele>124.4</ele>
        <time>2023-03-05T14:30:36Z</time>
      </trkpt>
      <trkpt lat="48.64281" lon="2.09936">
        <ele>124.6</ele>
        <time>2023-03-05T14:30:37Z</time>
      </trkpt>
      <trkpt lat="48.64282" lon="2.09933">
        <ele>124.8</ele>
        <time>2023-03-05T14:30:38Z</time>
      </trkpt>
      <trkpt lat="48.64282" lon="2.0993">
        <ele>125</ele>
        <time>2023-03-05T14:30:39Z</time>
      </trkpt>
      <trkpt lat="48.64283" lon="2.09927">
        <ele>125.4</ele>
        <time>2023-03-05T14:30:40Z</time>
      </trkpt>
      <trkpt lat="48.64284" lon="2.09925">
        <ele>125.6</ele>
        <time>2023-03-05T14:30:41Z</time>
      </trkpt>
      <trkpt lat="48.64284" lon="2.09922">
        <ele>126</ele>
        <time>2023-03-05T14:30:42Z</time>
      </trkpt>
      <trkpt lat="48.64284" lon="2.09919">
        <ele>126.2</ele>
        <time>2023-03-05T14:30:43Z</time>
        <extensions>
          <gpxtpx:TrackPointExtension xmlns:gpxtpx="http://www.garmin.com/xmlschemas/TrackPointExtension/v1">
            <gpxtpx:hr>108</gpxtpx:hr>
          </gpxtpx:TrackPointExtension>
        </extensions>
      </trkpt>
      <trkpt lat="48.64285" lon="2.09916">
        <ele>126.4</ele>
        <time>2023-03-05T14:30:44Z</time>
        <extensions>
          <gpxtpx:TrackPointExtension xmlns:gpxtpx="http://www.garmin.com/xmlschemas/TrackPointExtension/v1">
            <gpxtpx:hr>108</gpxtpx:hr>
          </gpxtpx:TrackPointExtension>
        </extensions>
      </trkpt>
      <trkpt lat="48.64286" lon="2.09913">
        <ele>126.6</ele>
        <time>2023-03-05T14:30:45Z</time>
        <extensions>
          <gpxtpx:TrackPointExtension xmlns:gpxtpx="http://www.garmin.com/xmlschemas/TrackPointExtension/v1">
            <gpxtpx:hr>108</gpxtpx:hr>
          </gpxtpx:TrackPointExtension>
        </extensions>
      </trkpt>
      <trkpt lat="48.64286" lon="2.0991">
        <ele>126.8</ele>
        <time>2023-03-05T14:30:46Z</time>
        <extensions>
          <gpxtpx:TrackPointExtension xmlns:gpxtpx="http://www.garmin.com/xmlschemas/TrackPointExtension/v1">
            <gpxtpx:hr>108</gpxtpx:hr>
          </gpxtpx:TrackPointExtension>
        </extensions>
      </trkpt>
      <trkpt lat="48.64287" lon="2.09905">
        <ele>127.4</ele>
        <time>2023-03-05T14:30:48Z</time>
        <extensions>
          <gpxtpx:TrackPointExtension xmlns:gpxtpx="http://www.garmin.com/xmlschemas/TrackPointExtension/v1">
            <gpxtpx:hr>108</gpxtpx:hr>
          </gpxtpx:TrackPointExtension>
        </extensions>
      </trkpt>
      <trkpt lat="48.64288" lon="2.09901">
        <ele>127.8</ele>
        <time>2023-03-05T14:30:50Z</time>
        <extensions>
          <gpxtpx:TrackPointExtension xmlns:gpxtpx="http://www.garmin.com/xmlschemas/TrackPointExtension/v1">
            <gpxtpx:hr>108</gpxtpx:hr>
          </gpxtpx:TrackPointExtension>
        </extensions>
      </trkpt>
      <trkpt lat="48.64288" lon="2.09896">
        <ele>128.4</ele>
        <time>2023-03-05T14:30:52Z</time>
        <extensions>
          <gpxtpx:TrackPointExtension xmlns:gpxtpx="http://www.garmin.com/xmlschemas/TrackPointExtension/v1">
            <gpxtpx:hr>108</gpxtpx:hr>
          </gpxtpx:TrackPointExtension>
        </extensions>
      </trkpt>
      <trkpt lat="48.64289" lon="2.09892">
        <ele>128.8</ele>
        <time>2023-03-05T14:30:54Z</time>
        <extensions>
          <gpxtpx:TrackPointExtension xmlns:gpxtpx="http://www.garmin.com/xmlschemas/TrackPointExtension/v1">
            <gpxtpx:hr>108</gpxtpx:hr>
          </gpxtpx:TrackPointExtension>
        </extensions>
      </trkpt>
      <trkpt lat="48.6429" lon="2.09887">
        <ele>129.6</ele>
        <time>2023-03-05T14:30:56Z</time>
        <extensions>
          <gpxtpx:TrackPointExtension xmlns:gpxtpx="http://www.garmin.com/xmlschemas/TrackPointExtension/v1">
            <gpxtpx:hr>109</gpxtpx:hr>
          </gpxtpx:TrackPointExtension>
        </extensions>
      </trkpt>
      <trkpt lat="48.64291" lon="2.09882">
        <ele>130.2</ele>
        <time>2023-03-05T14:30:58Z</time>
        <extensions>
          <gpxtpx:TrackPointExtension xmlns:gpxtpx="http://www.garmin.com/xmlschemas/TrackPointExtension/v1">
            <gpxtpx:hr>110</gpxtpx:hr>
          </gpxtpx:TrackPointExtension>
        </extensions>
      </trkpt>
      <trkpt lat="48.64292" lon="2.09876">
        <ele>130.8</ele>
        <time>2023-03-05T14:31:00Z</time>
        <extensions>
          <gpxtpx:TrackPointExtension xmlns:gpxtpx="http://www.garmin.com/xmlschemas/TrackPointExtension/v1">
            <gpxtpx:hr>110</gpxtpx:hr>
          </gpxtpx:TrackPointExtension>
        </extensions>
      </trkpt>
      <trkpt lat="48.64292" lon="2.09874">
        <ele>131</ele>
        <time>2023-03-05T14:31:01Z</time>
        <extensions>
          <gpxtpx:TrackPointExtension xmlns:gpxtpx="http://www.garmin.com/xmlschemas/TrackPointExtension/v1">
            <gpxtpx:hr>110</gpxtpx:hr>
          </gpxtpx:TrackPointExtension>
        </extensions>
      </trkpt>
      <trkpt lat="48.64292" lon="2.09869">
        <ele>131.6</ele>
        <time>2023-03-05T14:31:03Z</time>
        <extensions>
          <gpxtpx:TrackPointExtension xmlns:gpxtpx="http://www.garmin.com/xmlschemas/TrackPointExtension/v1">
            <gpxtpx:hr>110</gpxtpx:hr>
          </gpxtpx:TrackPointExtension>
        </extensions>
      </trkpt>
      <trkpt lat="48.64293" lon="2.09865">
        <ele>132.2</ele>
        <time>2023-03-05T14:31:05Z</time>
        <extensions>
          <gpxtpx:TrackPointExtension xmlns:gpxtpx="http://www.garmin.com/xmlschemas/TrackPointExtension/v1">
            <gpxtpx:hr>110</gpxtpx:hr>
          </gpxtpx:TrackPointExtension>
        </extensions>
      </trkpt>
      <trkpt lat="48.64294" lon="2.09861">
        <ele>132.8</ele>
        <time>2023-03-05T14:31:07Z</time>
        <extensions>
          <gpxtpx:TrackPointExtension xmlns:gpxtpx="http://www.garmin.com/xmlschemas/TrackPointExtension/v1">
            <gpxtpx:hr>110</gpxtpx:hr>
          </gpxtpx:TrackPointExtension>
        </extensions>
      </trkpt>
      <trkpt lat="48.64294" lon="2.09857">
        <ele>133.2</ele>
        <time>2023-03-05T14:31:09Z</time>
        <extensions>
          <gpxtpx:TrackPointExtension xmlns:gpxtpx="http://www.garmin.com/xmlschemas/TrackPointExtension/v1">
            <gpxtpx:hr>110</gpxtpx:hr>
          </gpxtpx:TrackPointExtension>
        </extensions>
      </trkpt>
      <trkpt lat="48.64295" lon="2.09852">
        <ele>133.6</ele>
        <time>2023-03-05T14:31:11Z</time>
        <extensions>
          <gpxtpx:TrackPointExtension xmlns:gpxtpx="http://www.garmin.com/xmlschemas/TrackPointExtension/v1">
            <gpxtpx:hr>110</gpxtpx:hr>
          </gpxtpx:TrackPointExtension>
        </extensions>
      </trkpt>
      <trkpt lat="48.64296" lon="2.0985">
        <ele>134</ele>
        <time>2023-03-05T14:31:12Z</time>
        <extensions>
          <gpxtpx:TrackPointExtension xmlns:gpxtpx="http://www.garmin.com/xmlschemas/TrackPointExtension/v1">
            <gpxtpx:hr>110</gpxtpx:hr>
          </gpxtpx:TrackPointExtension>
        </extensions>
      </trkpt>
      <trkpt lat="48.64296" lon="2.09847">
        <ele>134.2</ele>
        <time>2023-03-05T14:31:13Z</time>
        <extensions>
          <gpxtpx:TrackPointExtension xmlns:gpxtpx="http://www.garmin.com/xmlschemas/TrackPointExtension/v1">
            <gpxtpx:hr>110</gpxtpx:hr>
          </gpxtpx:TrackPointExtension>
        </extensions>
      </trkpt>
      <trkpt lat="48.64297" lon="2.09844">
        <ele>134.4</ele>
        <time>2023-03-05T14:31:14Z</time>
        <extensions>
          <gpxtpx:TrackPointExtension xmlns:gpxtpx="http://www.garmin.com/xmlschemas/TrackPointExtension/v1">
            <gpxtpx:hr>110</gpxtpx:hr>
          </gpxtpx:TrackPointExtension>
        </extensions>
      </trkpt>
      <trkpt lat="48.64297" lon="2.09841">
        <ele>134.4</ele>
        <time>2023-03-05T14:31:15Z</time>
        <extensions>
          <gpxtpx:TrackPointExtension xmlns:gpxtpx="http://www.garmin.com/xmlschemas/TrackPointExtension/v1">
            <gpxtpx:hr>111</gpxtpx:hr>
          </gpxtpx:TrackPointExtension>
        </extensions>
      </trkpt>
      <trkpt lat="48.64298" lon="2.09838">
        <ele>134.6</ele>
        <time>2023-03-05T14:31:16Z</time>
        <extensions>
          <gpxtpx:TrackPointExtension xmlns:gpxtpx="http://www.garmin.com/xmlschemas/TrackPointExtension/v1">
            <gpxtpx:hr>110</gpxtpx:hr>
          </gpxtpx:TrackPointExtension>
        </extensions>
      </trkpt>
      <trkpt lat="48.64299" lon="2.09834">
        <ele>135</ele>
        <time>2023-03-05T14:31:18Z</time>
        <extensions>
          <gpxtpx:TrackPointExtension xmlns:gpxtpx="http://www.garmin.com/xmlschemas/TrackPointExtension/v1">
            <gpxtpx:hr>110</gpxtpx:hr>
          </gpxtpx:TrackPointExtension>
        </extensions>
      </trkpt>
      <trkpt lat="48.64299" lon="2.0983">
        <ele>135.2</ele>
        <time>2023-03-05T14:31:20Z</time>
        <extensions>
          <gpxtpx:TrackPointExtension xmlns:gpxtpx="http://www.garmin.com/xmlschemas/TrackPointExtension/v1">
            <gpxtpx:hr>111</gpxtpx:hr>
          </gpxtpx:TrackPointExtension>
        </extensions>
      </trkpt>
      <trkpt lat="48.643" lon="2.09825">
        <ele>135.4</ele>
        <time>2023-03-05T14:31:22Z</time>
        <extensions>
          <gpxtpx:TrackPointExtension xmlns:gpxtpx="http://www.garmin.com/xmlschemas/TrackPointExtension/v1">
            <gpxtpx:hr>111</gpxtpx:hr>
          </gpxtpx:TrackPointExtension>
        </extensions>
      </trkpt>
      <trkpt lat="48.64301" lon="2.0982">
        <ele>135.6</ele>
        <time>2023-03-05T14:31:24Z</time>
        <extensions>
          <gpxtpx:TrackPointExtension xmlns:gpxtpx="http://www.garmin.com/xmlschemas/TrackPointExtension/v1">
            <gpxtpx:hr>111</gpxtpx:hr>
          </gpxtpx:TrackPointExtension>
        </extensions>
      </trkpt>
      <trkpt lat="48.64302" lon="2.09818">
        <ele>135.8</ele>
        <time>2023-03-05T14:31:25Z</time>
        <extensions>
          <gpxtpx:TrackPointExtension xmlns:gpxtpx="http://www.garmin.com/xmlschemas/TrackPointExtension/v1">
            <gpxtpx:hr>111</gpxtpx:hr>
          </gpxtpx:TrackPointExtension>
        </extensions>
      </trkpt>
      <trkpt lat="48.64303" lon="2.09813">
        <ele>136</ele>
        <time>2023-03-05T14:31:27Z</time>
        <extensions>
          <gpxtpx:TrackPointExtension xmlns:gpxtpx="http://www.garmin.com/xmlschemas/TrackPointExtension/v1">
            <gpxtpx:hr>111</gpxtpx:hr>
          </gpxtpx:TrackPointExtension>
        </extensions>
      </trkpt>
      <trkpt lat="48.64304" lon="2.09809">
        <ele>136.2</ele>
        <time>2023-03-05T14:31:29Z</time>
        <extensions>
          <gpxtpx:TrackPointExtension xmlns:gpxtpx="http://www.garmin.com/xmlschemas/TrackPointExtension/v1">
            <gpxtpx:hr>111</gpxtpx:hr>
          </gpxtpx:TrackPointExtension>
        </extensions>
      </trkpt>
      <trkpt lat="48.64305" lon="2.09804">
        <ele>136.4</ele>
        <time>2023-03-05T14:31:31Z</time>
        <extensions>
          <gpxtpx:TrackPointExtension xmlns:gpxtpx="http://www.garmin.com/xmlschemas/TrackPointExtension/v1">
            <gpxtpx:hr>111</gpxtpx:hr>
          </gpxtpx:TrackPointExtension>
        </extensions>
      </trkpt>
      <trkpt lat="48.64306" lon="2.098">
        <ele>136.6</ele>
        <time>2023-03-05T14:31:33Z</time>
        <extensions>
          <gpxtpx:TrackPointExtension xmlns:gpxtpx="http://www.garmin.com/xmlschemas/TrackPointExtension/v1">
            <gpxtpx:hr>111</gpxtpx:hr>
          </gpxtpx:TrackPointExtension>
        </extensions>
      </trkpt>
      <trkpt lat="48.64308" lon="2.09795">
        <ele>136.8</ele>
        <time>2023-03-05T14:31:35Z</time>
        <extensions>
          <gpxtpx:TrackPointExtension xmlns:gpxtpx="http://www.garmin.com/xmlschemas/TrackPointExtension/v1">
            <gpxtpx:hr>111</gpxtpx:hr>
          </gpxtpx:TrackPointExtension>
        </extensions>
      </trkpt>
      <trkpt lat="48.64309" lon="2.09792">
        <ele>137</ele>
        <time>2023-03-05T14:31:36Z</time>
        <extensions>
          <gpxtpx:TrackPointExtension xmlns:gpxtpx="http://www.garmin.com/xmlschemas/TrackPointExtension/v1">
            <gpxtpx:hr>111</gpxtpx:hr>
          </gpxtpx:TrackPointExtension>
        </extensions>
      </trkpt>
      <trkpt lat="48.6431" lon="2.0979">
        <ele>137</ele>
        <time>2023-03-05T14:31:37Z</time>
        <extensions>
          <gpxtpx:TrackPointExtension xmlns:gpxtpx="http://www.garmin.com/xmlschemas/TrackPointExtension/v1">
            <gpxtpx:hr>111</gpxtpx:hr>
          </gpxtpx:TrackPointExtension>
        </extensions>
      </trkpt>
      <trkpt lat="48.64311" lon="2.09787">
        <ele>137.2</ele>
        <time>2023-03-05T14:31:38Z</time>
        <extensions>
          <gpxtpx:TrackPointExtension xmlns:gpxtpx="http://www.garmin.com/xmlschemas/TrackPointExtension/v1">
            <gpxtpx:hr>111</gpxtpx:hr>
          </gpxtpx:TrackPointExtension>
        </extensions>
      </trkpt>
      <trkpt lat="48.64312" lon="2.09783">
        <ele>137.2</ele>
        <time>2023-03-05T14:31:39Z</time>
        <extensions>
          <gpxtpx:TrackPointExtension xmlns:gpxtpx="http://www.garmin.com/xmlschemas/TrackPointExtension/v1">
            <gpxtpx:hr>111</gpxtpx:hr>
          </gpxtpx:TrackPointExtension>
        </extensions>
      </trkpt>
      <trkpt lat="48.64314" lon="2.0978">
        <ele>137.2</ele>
        <time>2023-03-05T14:31:40Z</time>
        <extensions>
          <gpxtpx:TrackPointExtension xmlns:gpxtpx="http://www.garmin.com/xmlschemas/TrackPointExtension/v1">
            <gpxtpx:hr>111</gpxtpx:hr>
          </gpxtpx:TrackPointExtension>
        </extensions>
      </trkpt>
      <trkpt lat="48.64315" lon="2.09777">
        <ele>137.2</ele>
        <time>2023-03-05T14:31:41Z</time>
        <extensions>
          <gpxtpx:TrackPointExtension xmlns:gpxtpx="http://www.garmin.com/xmlschemas/TrackPointExtension/v1">
            <gpxtpx:hr>111</gpxtpx:hr>
          </gpxtpx:TrackPointExtension>
        </extensions>
      </trkpt>
      <trkpt lat="48.64316" lon="2.09774">
        <ele>137.2</ele>
        <time>2023-03-05T14:31:42Z</time>
        <extensions>
          <gpxtpx:TrackPointExtension xmlns:gpxtpx="http://www.garmin.com/xmlschemas/TrackPointExtension/v1">
            <gpxtpx:hr>111</gpxtpx:hr>
          </gpxtpx:TrackPointExtension>
        </extensions>
      </trkpt>
      <trkpt lat="48.64316" lon="2.09771">
        <ele>137</ele>
        <time>2023-03-05T14:31:43Z</time>
        <extensions>
          <gpxtpx:TrackPointExtension xmlns:gpxtpx="http://www.garmin.com/xmlschemas/TrackPointExtension/v1">
            <gpxtpx:hr>111</gpxtpx:hr>
          </gpxtpx:TrackPointExtension>
        </extensions>
      </trkpt>
      <trkpt lat="48.64317" lon="2.09768">
        <ele>137</ele>
        <time>2023-03-05T14:31:44Z</time>
        <extensions>
          <gpxtpx:TrackPointExtension xmlns:gpxtpx="http://www.garmin.com/xmlschemas/TrackPointExtension/v1">
            <gpxtpx:hr>111</gpxtpx:hr>
          </gpxtpx:TrackPointExtension>
        </extensions>
      </trkpt>
      <trkpt lat="48.64318" lon="2.09765">
        <ele>137</ele>
        <time>2023-03-05T14:31:45Z</time>
        <extensions>
          <gpxtpx:TrackPointExtension xmlns:gpxtpx="http://www.garmin.com/xmlschemas/TrackPointExtension/v1">
            <gpxtpx:hr>111</gpxtpx:hr>
          </gpxtpx:TrackPointExtension>
        </extensions>
      </trkpt>
      <trkpt lat="48.64318" lon="2.09763">
        <ele>137</ele>
        <time>2023-03-05T14:31:46Z</time>
        <extensions>
          <gpxtpx:TrackPointExtension xmlns:gpxtpx="http://www.garmin.com/xmlschemas/TrackPointExtension/v1">
            <gpxtpx:hr>111</gpxtpx:hr>
          </gpxtpx:TrackPointExtension>
        </extensions>
      </trkpt>
      <trkpt lat="48.64319" lon="2.0976">
        <ele>137</ele>
        <time>2023-03-05T14:31:47Z</time>
        <extensions>
          <gpxtpx:TrackPointExtension xmlns:gpxtpx="http://www.garmin.com/xmlschemas/TrackPointExtension/v1">
            <gpxtpx:hr>111</gpxtpx:hr>
          </gpxtpx:TrackPointExtension>
        </extensions>
      </trkpt>
      <trkpt lat="48.64319" lon="2.09757">
        <ele>136.8</ele>
        <time>2023-03-05T14:31:48Z</time>
        <extensions>
          <gpxtpx:TrackPointExtension xmlns:gpxtpx="http://www.garmin.com/xmlschemas/TrackPointExtension/v1">
            <gpxtpx:hr>112</gpxtpx:hr>
          </gpxtpx:TrackPointExtension>
        </extensions>
      </trkpt>
      <trkpt lat="48.6432" lon="2.09754">
        <ele>136.8</ele>
        <time>2023-03-05T14:31:49Z</time>
        <extensions>
          <gpxtpx:TrackPointExtension xmlns:gpxtpx="http://www.garmin.com/xmlschemas/TrackPointExtension/v1">
            <gpxtpx:hr>112</gpxtpx:hr>
          </gpxtpx:TrackPointExtension>
        </extensions>
      </trkpt>
      <trkpt lat="48.6432" lon="2.09752">
        <ele>136.8</ele>
        <time>2023-03-05T14:31:50Z</time>
        <extensions>
          <gpxtpx:TrackPointExtension xmlns:gpxtpx="http://www.garmin.com/xmlschemas/TrackPointExtension/v1">
            <gpxtpx:hr>112</gpxtpx:hr>
          </gpxtpx:TrackPointExtension>
        </extensions>
      </trkpt>
      <trkpt lat="48.64321" lon="2.09749">
        <ele>136.8</ele>
        <time>2023-03-05T14:31:51Z</time>
        <extensions>
          <gpxtpx:TrackPointExtension xmlns:gpxtpx="http://www.garmin.com/xmlschemas/TrackPointExtension/v1">
            <gpxtpx:hr>112</gpxtpx:hr>
          </gpxtpx:TrackPointExtension>
        </extensions>
      </trkpt>
      <trkpt lat="48.64322" lon="2.09746">
        <ele>136.6</ele>
        <time>2023-03-05T14:31:52Z</time>
        <extensions>
          <gpxtpx:TrackPointExtension xmlns:gpxtpx="http://www.garmin.com/xmlschemas/TrackPointExtension/v1">
            <gpxtpx:hr>113</gpxtpx:hr>
          </gpxtpx:TrackPointExtension>
        </extensions>
      </trkpt>
      <trkpt lat="48.64322" lon="2.09743">
        <ele>136.6</ele>
        <time>2023-03-05T14:31:53Z</time>
        <extensions>
          <gpxtpx:TrackPointExtension xmlns:gpxtpx="http://www.garmin.com/xmlschemas/TrackPointExtension/v1">
            <gpxtpx:hr>113</gpxtpx:hr>
          </gpxtpx:TrackPointExtension>
        </extensions>
      </trkpt>
      <trkpt lat="48.64323" lon="2.0974">
        <ele>136.6</ele>
        <time>2023-03-05T14:31:54Z</time>
        <extensions>
          <gpxtpx:TrackPointExtension xmlns:gpxtpx="http://www.garmin.com/xmlschemas/TrackPointExtension/v1">
            <gpxtpx:hr>113</gpxtpx:hr>
          </gpxtpx:TrackPointExtension>
        </extensions>
      </trkpt>
      <trkpt lat="48.64324" lon="2.09736">
        <ele>136.6</ele>
        <time>2023-03-05T14:31:55Z</time>
        <extensions>
          <gpxtpx:TrackPointExtension xmlns:gpxtpx="http://www.garmin.com/xmlschemas/TrackPointExtension/v1">
            <gpxtpx:hr>113</gpxtpx:hr>
          </gpxtpx:TrackPointExtension>
        </extensions>
      </trkpt>
      <trkpt lat="48.64324" lon="2.09733">
        <ele>136.4</ele>
        <time>2023-03-05T14:31:56Z</time>
        <extensions>
          <gpxtpx:TrackPointExtension xmlns:gpxtpx="http://www.garmin.com/xmlschemas/TrackPointExtension/v1">
            <gpxtpx:hr>113</gpxtpx:hr>
          </gpxtpx:TrackPointExtension>
        </extensions>
      </trkpt>
      <trkpt lat="48.64325" lon="2.09729">
        <ele>136.4</ele>
        <time>2023-03-05T14:31:57Z</time>
        <extensions>
          <gpxtpx:TrackPointExtension xmlns:gpxtpx="http://www.garmin.com/xmlschemas/TrackPointExtension/v1">
            <gpxtpx:hr>113</gpxtpx:hr>
          </gpxtpx:TrackPointExtension>
        </extensions>
      </trkpt>
      <trkpt lat="48.64326" lon="2.09726">
        <ele>136.4</ele>
        <time>2023-03-05T14:31:58Z</time>
        <extensions>
          <gpxtpx:TrackPointExtension xmlns:gpxtpx="http://www.garmin.com/xmlschemas/TrackPointExtension/v1">
            <gpxtpx:hr>113</gpxtpx:hr>
          </gpxtpx:TrackPointExtension>
        </extensions>
      </trkpt>
      <trkpt lat="48.64327" lon="2.09722">
        <ele>136.2</ele>
        <time>2023-03-05T14:31:59Z</time>
        <extensions>
          <gpxtpx:TrackPointExtension xmlns:gpxtpx="http://www.garmin.com/xmlschemas/TrackPointExtension/v1">
            <gpxtpx:hr>113</gpxtpx:hr>
          </gpxtpx:TrackPointExtension>
        </extensions>
      </trkpt>
      <trkpt lat="48.64328" lon="2.09719">
        <ele>136.2</ele>
        <time>2023-03-05T14:32:00Z</time>
        <extensions>
          <gpxtpx:TrackPointExtension xmlns:gpxtpx="http://www.garmin.com/xmlschemas/TrackPointExtension/v1">
            <gpxtpx:hr>113</gpxtpx:hr>
          </gpxtpx:TrackPointExtension>
        </extensions>
      </trkpt>
      <trkpt lat="48.64328" lon="2.09716">
        <ele>136</ele>
        <time>2023-03-05T14:32:01Z</time>
        <extensions>
          <gpxtpx:TrackPointExtension xmlns:gpxtpx="http://www.garmin.com/xmlschemas/TrackPointExtension/v1">
            <gpxtpx:hr>113</gpxtpx:hr>
          </gpxtpx:TrackPointExtension>
        </extensions>
      </trkpt>
      <trkpt lat="48.6433" lon="2.09713">
        <ele>136</ele>
        <time>2023-03-05T14:32:02Z</time>
        <extensions>
          <gpxtpx:TrackPointExtension xmlns:gpxtpx="http://www.garmin.com/xmlschemas/TrackPointExtension/v1">
            <gpxtpx:hr>113</gpxtpx:hr>
          </gpxtpx:TrackPointExtension>
        </extensions>
      </trkpt>
      <trkpt lat="48.6433" lon="2.0971">
        <ele>136</ele>
        <time>2023-03-05T14:32:03Z</time>
        <extensions>
          <gpxtpx:TrackPointExtension xmlns:gpxtpx="http://www.garmin.com/xmlschemas/TrackPointExtension/v1">
            <gpxtpx:hr>114</gpxtpx:hr>
          </gpxtpx:TrackPointExtension>
        </extensions>
      </trkpt>
      <trkpt lat="48.64332" lon="2.09707">
        <ele>136</ele>
        <time>2023-03-05T14:32:04Z</time>
        <extensions>
          <gpxtpx:TrackPointExtension xmlns:gpxtpx="http://www.garmin.com/xmlschemas/TrackPointExtension/v1">
            <gpxtpx:hr>114</gpxtpx:hr>
          </gpxtpx:TrackPointExtension>
        </extensions>
      </trkpt>
      <trkpt lat="48.64332" lon="2.09705">
        <ele>136</ele>
        <time>2023-03-05T14:32:05Z</time>
        <extensions>
          <gpxtpx:TrackPointExtension xmlns:gpxtpx="http://www.garmin.com/xmlschemas/TrackPointExtension/v1">
            <gpxtpx:hr>113</gpxtpx:hr>
          </gpxtpx:TrackPointExtension>
        </extensions>
      </trkpt>
      <trkpt lat="48.64333" lon="2.09702">
        <ele>136</ele>
        <time>2023-03-05T14:32:06Z</time>
        <extensions>
          <gpxtpx:TrackPointExtension xmlns:gpxtpx="http://www.garmin.com/xmlschemas/TrackPointExtension/v1">
            <gpxtpx:hr>113</gpxtpx:hr>
          </gpxtpx:TrackPointExtension>
        </extensions>
      </trkpt>
      <trkpt lat="48.64336" lon="2.09698">
        <ele>135.8</ele>
        <time>2023-03-05T14:32:08Z</time>
        <extensions>
          <gpxtpx:TrackPointExtension xmlns:gpxtpx="http://www.garmin.com/xmlschemas/TrackPointExtension/v1">
            <gpxtpx:hr>113</gpxtpx:hr>
          </gpxtpx:TrackPointExtension>
        </extensions>
      </trkpt>
      <trkpt lat="48.64338" lon="2.09695">
        <ele>135.8</ele>
        <time>2023-03-05T14:32:10Z</time>
        <extensions>
          <gpxtpx:TrackPointExtension xmlns:gpxtpx="http://www.garmin.com/xmlschemas/TrackPointExtension/v1">
            <gpxtpx:hr>113</gpxtpx:hr>
          </gpxtpx:TrackPointExtension>
        </extensions>
      </trkpt>
      <trkpt lat="48.6434" lon="2.09694">
        <ele>135.6</ele>
        <time>2023-03-05T14:32:11Z</time>
        <extensions>
          <gpxtpx:TrackPointExtension xmlns:gpxtpx="http://www.garmin.com/xmlschemas/TrackPointExtension/v1">
            <gpxtpx:hr>113</gpxtpx:hr>
          </gpxtpx:TrackPointExtension>
        </extensions>
      </trkpt>
      <trkpt lat="48.64342" lon="2.09692">
        <ele>135.4</ele>
        <time>2023-03-05T14:32:13Z</time>
        <extensions>
          <gpxtpx:TrackPointExtension xmlns:gpxtpx="http://www.garmin.com/xmlschemas/TrackPointExtension/v1">
            <gpxtpx:hr>113</gpxtpx:hr>
          </gpxtpx:TrackPointExtension>
        </extensions>
      </trkpt>
      <trkpt lat="48.64345" lon="2.09691">
        <ele>135.4</ele>
        <time>2023-03-05T14:32:15Z</time>
        <extensions>
          <gpxtpx:TrackPointExtension xmlns:gpxtpx="http://www.garmin.com/xmlschemas/TrackPointExtension/v1">
            <gpxtpx:hr>112</gpxtpx:hr>
          </gpxtpx:TrackPointExtension>
        </extensions>
      </trkpt>
      <trkpt lat="48.64348" lon="2.09691">
        <ele>135.2</ele>
        <time>2023-03-05T14:32:17Z</time>
        <extensions>
          <gpxtpx:TrackPointExtension xmlns:gpxtpx="http://www.garmin.com/xmlschemas/TrackPointExtension/v1">
            <gpxtpx:hr>112</gpxtpx:hr>
          </gpxtpx:TrackPointExtension>
        </extensions>
      </trkpt>
      <trkpt lat="48.64351" lon="2.09692">
        <ele>135.2</ele>
        <time>2023-03-05T14:32:19Z</time>
        <extensions>
          <gpxtpx:TrackPointExtension xmlns:gpxtpx="http://www.garmin.com/xmlschemas/TrackPointExtension/v1">
            <gpxtpx:hr>112</gpxtpx:hr>
          </gpxtpx:TrackPointExtension>
        </extensions>
      </trkpt>
      <trkpt lat="48.64354" lon="2.09693">
        <ele>135.2</ele>
        <time>2023-03-05T14:32:21Z</time>
        <extensions>
          <gpxtpx:TrackPointExtension xmlns:gpxtpx="http://www.garmin.com/xmlschemas/TrackPointExtension/v1">
            <gpxtpx:hr>112</gpxtpx:hr>
          </gpxtpx:TrackPointExtension>
        </extensions>
      </trkpt>
      <trkpt lat="48.64356" lon="2.09696">
        <ele>135.2</ele>
        <time>2023-03-05T14:32:23Z</time>
        <extensions>
          <gpxtpx:TrackPointExtension xmlns:gpxtpx="http://www.garmin.com/xmlschemas/TrackPointExtension/v1">
            <gpxtpx:hr>112</gpxtpx:hr>
          </gpxtpx:TrackPointExtension>
        </extensions>
      </trkpt>
      <trkpt lat="48.64358" lon="2.09698">
        <ele>135.2</ele>
        <time>2023-03-05T14:32:25Z</time>
        <extensions>
          <gpxtpx:TrackPointExtension xmlns:gpxtpx="http://www.garmin.com/xmlschemas/TrackPointExtension/v1">
            <gpxtpx:hr>112</gpxtpx:hr>
          </gpxtpx:TrackPointExtension>
        </extensions>
      </trkpt>
      <trkpt lat="48.64361" lon="2.097">
        <ele>135.2</ele>
        <time>2023-03-05T14:32:27Z</time>
        <extensions>
          <gpxtpx:TrackPointExtension xmlns:gpxtpx="http://www.garmin.com/xmlschemas/TrackPointExtension/v1">
            <gpxtpx:hr>112</gpxtpx:hr>
          </gpxtpx:TrackPointExtension>
        </extensions>
      </trkpt>
      <trkpt lat="48.64364" lon="2.09703">
        <ele>135.4</ele>
        <time>2023-03-05T14:32:29Z</time>
        <extensions>
          <gpxtpx:TrackPointExtension xmlns:gpxtpx="http://www.garmin.com/xmlschemas/TrackPointExtension/v1">
            <gpxtpx:hr>112</gpxtpx:hr>
          </gpxtpx:TrackPointExtension>
        </extensions>
      </trkpt>
      <trkpt lat="48.64366" lon="2.09706">
        <ele>135.4</ele>
        <time>2023-03-05T14:32:31Z</time>
        <extensions>
          <gpxtpx:TrackPointExtension xmlns:gpxtpx="http://www.garmin.com/xmlschemas/TrackPointExtension/v1">
            <gpxtpx:hr>112</gpxtpx:hr>
          </gpxtpx:TrackPointExtension>
        </extensions>
      </trkpt>
      <trkpt lat="48.64369" lon="2.09709">
        <ele>135.6</ele>
        <time>2023-03-05T14:32:33Z</time>
        <extensions>
          <gpxtpx:TrackPointExtension xmlns:gpxtpx="http://www.garmin.com/xmlschemas/TrackPointExtension/v1">
            <gpxtpx:hr>111</gpxtpx:hr>
          </gpxtpx:TrackPointExtension>
        </extensions>
      </trkpt>
      <trkpt lat="48.64371" lon="2.09711">
        <ele>135.8</ele>
        <time>2023-03-05T14:32:34Z</time>
        <extensions>
          <gpxtpx:TrackPointExtension xmlns:gpxtpx="http://www.garmin.com/xmlschemas/TrackPointExtension/v1">
            <gpxtpx:hr>111</gpxtpx:hr>
          </gpxtpx:TrackPointExtension>
        </extensions>
      </trkpt>
      <trkpt lat="48.64373" lon="2.09713">
        <ele>136.2</ele>
        <time>2023-03-05T14:32:36Z</time>
        <extensions>
          <gpxtpx:TrackPointExtension xmlns:gpxtpx="http://www.garmin.com/xmlschemas/TrackPointExtension/v1">
            <gpxtpx:hr>111</gpxtpx:hr>
          </gpxtpx:TrackPointExtension>
        </extensions>
      </trkpt>
      <trkpt lat="48.64375" lon="2.09715">
        <ele>136.2</ele>
        <time>2023-03-05T14:32:37Z</time>
        <extensions>
          <gpxtpx:TrackPointExtension xmlns:gpxtpx="http://www.garmin.com/xmlschemas/TrackPointExtension/v1">
            <gpxtpx:hr>111</gpxtpx:hr>
          </gpxtpx:TrackPointExtension>
        </extensions>
      </trkpt>
      <trkpt lat="48.64377" lon="2.09718">
        <ele>136.6</ele>
        <time>2023-03-05T14:32:39Z</time>
        <extensions>
          <gpxtpx:TrackPointExtension xmlns:gpxtpx="http://www.garmin.com/xmlschemas/TrackPointExtension/v1">
            <gpxtpx:hr>111</gpxtpx:hr>
          </gpxtpx:TrackPointExtension>
        </extensions>
      </trkpt>
      <trkpt lat="48.64378" lon="2.09721">
        <ele>136.8</ele>
        <time>2023-03-05T14:32:41Z</time>
        <extensions>
          <gpxtpx:TrackPointExtension xmlns:gpxtpx="http://www.garmin.com/xmlschemas/TrackPointExtension/v1">
            <gpxtpx:hr>111</gpxtpx:hr>
          </gpxtpx:TrackPointExtension>
        </extensions>
      </trkpt>
      <trkpt lat="48.64379" lon="2.09725">
        <ele>137.2</ele>
        <time>2023-03-05T14:32:43Z</time>
        <extensions>
          <gpxtpx:TrackPointExtension xmlns:gpxtpx="http://www.garmin.com/xmlschemas/TrackPointExtension/v1">
            <gpxtpx:hr>111</gpxtpx:hr>
          </gpxtpx:TrackPointExtension>
        </extensions>
      </trkpt>
      <trkpt lat="48.64381" lon="2.09729">
        <ele>137.4</ele>
        <time>2023-03-05T14:32:45Z</time>
        <extensions>
          <gpxtpx:TrackPointExtension xmlns:gpxtpx="http://www.garmin.com/xmlschemas/TrackPointExtension/v1">
            <gpxtpx:hr>111</gpxtpx:hr>
          </gpxtpx:TrackPointExtension>
        </extensions>
      </trkpt>
      <trkpt lat="48.64382" lon="2.09732">
        <ele>137.6</ele>
        <time>2023-03-05T14:32:46Z</time>
        <extensions>
          <gpxtpx:TrackPointExtension xmlns:gpxtpx="http://www.garmin.com/xmlschemas/TrackPointExtension/v1">
            <gpxtpx:hr>111</gpxtpx:hr>
          </gpxtpx:TrackPointExtension>
        </extensions>
      </trkpt>
      <trkpt lat="48.64384" lon="2.09734">
        <ele>137.6</ele>
        <time>2023-03-05T14:32:47Z</time>
        <extensions>
          <gpxtpx:TrackPointExtension xmlns:gpxtpx="http://www.garmin.com/xmlschemas/TrackPointExtension/v1">
            <gpxtpx:hr>112</gpxtpx:hr>
          </gpxtpx:TrackPointExtension>
        </extensions>
      </trkpt>
      <trkpt lat="48.64386" lon="2.09737">
        <ele>137.8</ele>
        <time>2023-03-05T14:32:48Z</time>
        <extensions>
          <gpxtpx:TrackPointExtension xmlns:gpxtpx="http://www.garmin.com/xmlschemas/TrackPointExtension/v1">
            <gpxtpx:hr>112</gpxtpx:hr>
          </gpxtpx:TrackPointExtension>
        </extensions>
      </trkpt>
      <trkpt lat="48.64387" lon="2.09739">
        <ele>138</ele>
        <time>2023-03-05T14:32:49Z</time>
        <extensions>
          <gpxtpx:TrackPointExtension xmlns:gpxtpx="http://www.garmin.com/xmlschemas/TrackPointExtension/v1">
            <gpxtpx:hr>112</gpxtpx:hr>
          </gpxtpx:TrackPointExtension>
        </extensions>
      </trkpt>
      <trkpt lat="48.64389" lon="2.09743">
        <ele>138.2</ele>
        <time>2023-03-05T14:32:51Z</time>
        <extensions>
          <gpxtpx:TrackPointExtension xmlns:gpxtpx="http://www.garmin.com/xmlschemas/TrackPointExtension/v1">
            <gpxtpx:hr>112</gpxtpx:hr>
          </gpxtpx:TrackPointExtension>
        </extensions>
      </trkpt>
      <trkpt lat="48.64391" lon="2.09745">
        <ele>138.4</ele>
        <time>2023-03-05T14:32:52Z</time>
        <extensions>
          <gpxtpx:TrackPointExtension xmlns:gpxtpx="http://www.garmin.com/xmlschemas/TrackPointExtension/v1">
            <gpxtpx:hr>112</gpxtpx:hr>
          </gpxtpx:TrackPointExtension>
        </extensions>
      </trkpt>
      <trkpt lat="48.64393" lon="2.0975">
        <ele>138.6</ele>
        <time>2023-03-05T14:32:54Z</time>
        <extensions>
          <gpxtpx:TrackPointExtension xmlns:gpxtpx="http://www.garmin.com/xmlschemas/TrackPointExtension/v1">
            <gpxtpx:hr>112</gpxtpx:hr>
          </gpxtpx:TrackPointExtension>
        </extensions>
      </trkpt>
      <trkpt lat="48.64395" lon="2.09753">
        <ele>139</ele>
        <time>2023-03-05T14:32:56Z</time>
        <extensions>
          <gpxtpx:TrackPointExtension xmlns:gpxtpx="http://www.garmin.com/xmlschemas/TrackPointExtension/v1">
            <gpxtpx:hr>112</gpxtpx:hr>
          </gpxtpx:TrackPointExtension>
        </extensions>
      </trkpt>
      <trkpt lat="48.64397" lon="2.09755">
        <ele>139.4</ele>
        <time>2023-03-05T14:32:59Z</time>
        <extensions>
          <gpxtpx:TrackPointExtension xmlns:gpxtpx="http://www.garmin.com/xmlschemas/TrackPointExtension/v1">
            <gpxtpx:hr>111</gpxtpx:hr>
          </gpxtpx:TrackPointExtension>
        </extensions>
      </trkpt>
      <trkpt lat="48.64398" lon="2.09758">
        <ele>139.8</ele>
        <time>2023-03-05T14:33:02Z</time>
        <extensions>
          <gpxtpx:TrackPointExtension xmlns:gpxtpx="http://www.garmin.com/xmlschemas/TrackPointExtension/v1">
            <gpxtpx:hr>111</gpxtpx:hr>
          </gpxtpx:TrackPointExtension>
        </extensions>
      </trkpt>
      <trkpt lat="48.64399" lon="2.0976">
        <ele>140</ele>
        <time>2023-03-05T14:33:04Z</time>
        <extensions>
          <gpxtpx:TrackPointExtension xmlns:gpxtpx="http://www.garmin.com/xmlschemas/TrackPointExtension/v1">
            <gpxtpx:hr>111</gpxtpx:hr>
          </gpxtpx:TrackPointExtension>
        </extensions>
      </trkpt>
      <trkpt lat="48.64401" lon="2.09762">
        <ele>140.2</ele>
        <time>2023-03-05T14:33:06Z</time>
        <extensions>
          <gpxtpx:TrackPointExtension xmlns:gpxtpx="http://www.garmin.com/xmlschemas/TrackPointExtension/v1">
            <gpxtpx:hr>111</gpxtpx:hr>
          </gpxtpx:TrackPointExtension>
        </extensions>
      </trkpt>
      <trkpt lat="48.64402" lon="2.09766">
        <ele>140.8</ele>
        <time>2023-03-05T14:33:09Z</time>
        <extensions>
          <gpxtpx:TrackPointExtension xmlns:gpxtpx="http://www.garmin.com/xmlschemas/TrackPointExtension/v1">
            <gpxtpx:hr>111</gpxtpx:hr>
          </gpxtpx:TrackPointExtension>
        </extensions>
      </trkpt>
      <trkpt lat="48.64404" lon="2.09768">
        <ele>141.4</ele>
        <time>2023-03-05T14:33:12Z</time>
        <extensions>
          <gpxtpx:TrackPointExtension xmlns:gpxtpx="http://www.garmin.com/xmlschemas/TrackPointExtension/v1">
            <gpxtpx:hr>111</gpxtpx:hr>
          </gpxtpx:TrackPointExtension>
        </extensions>
      </trkpt>
      <trkpt lat="48.64405" lon="2.0977">
        <ele>141.8</ele>
        <time>2023-03-05T14:33:14Z</time>
        <extensions>
          <gpxtpx:TrackPointExtension xmlns:gpxtpx="http://www.garmin.com/xmlschemas/TrackPointExtension/v1">
            <gpxtpx:hr>111</gpxtpx:hr>
          </gpxtpx:TrackPointExtension>
        </extensions>
      </trkpt>
      <trkpt lat="48.64407" lon="2.09772">
        <ele>142.2</ele>
        <time>2023-03-05T14:33:16Z</time>
      </trkpt>
      <trkpt lat="48.64408" lon="2.09775">
        <ele>142.6</ele>
        <time>2023-03-05T14:33:20Z</time>
        <extensions>
          <gpxtpx:TrackPointExtension xmlns:gpxtpx="http://www.garmin.com/xmlschemas/TrackPointExtension/v1">
            <gpxtpx:hr>110</gpxtpx:hr>
          </gpxtpx:TrackPointExtension>
        </extensions>
      </trkpt>
      <trkpt lat="48.64411" lon="2.09776">
        <ele>142.8</ele>
        <time>2023-03-05T14:33:23Z</time>
        <extensions>
          <gpxtpx:TrackPointExtension xmlns:gpxtpx="http://www.garmin.com/xmlschemas/TrackPointExtension/v1">
            <gpxtpx:hr>110</gpxtpx:hr>
          </gpxtpx:TrackPointExtension>
        </extensions>
      </trkpt>
      <trkpt lat="48.64413" lon="2.09777">
        <ele>143</ele>
        <time>2023-03-05T14:33:25Z</time>
        <extensions>
          <gpxtpx:TrackPointExtension xmlns:gpxtpx="http://www.garmin.com/xmlschemas/TrackPointExtension/v1">
            <gpxtpx:hr>110</gpxtpx:hr>
          </gpxtpx:TrackPointExtension>
        </extensions>
      </trkpt>
      <trkpt lat="48.64416" lon="2.09778">
        <ele>143.2</ele>
        <time>2023-03-05T14:33:27Z</time>
        <extensions>
          <gpxtpx:TrackPointExtension xmlns:gpxtpx="http://www.garmin.com/xmlschemas/TrackPointExtension/v1">
            <gpxtpx:hr>110</gpxtpx:hr>
          </gpxtpx:TrackPointExtension>
        </extensions>
      </trkpt>
      <trkpt lat="48.64419" lon="2.09779">
        <ele>143.6</ele>
        <time>2023-03-05T14:33:29Z</time>
        <extensions>
          <gpxtpx:TrackPointExtension xmlns:gpxtpx="http://www.garmin.com/xmlschemas/TrackPointExtension/v1">
            <gpxtpx:hr>110</gpxtpx:hr>
          </gpxtpx:TrackPointExtension>
        </extensions>
      </trkpt>
      <trkpt lat="48.64421" lon="2.09778">
        <ele>144</ele>
        <time>2023-03-05T14:33:32Z</time>
        <extensions>
          <gpxtpx:TrackPointExtension xmlns:gpxtpx="http://www.garmin.com/xmlschemas/TrackPointExtension/v1">
            <gpxtpx:hr>110</gpxtpx:hr>
          </gpxtpx:TrackPointExtension>
        </extensions>
      </trkpt>
      <trkpt lat="48.64423" lon="2.09777">
        <ele>144.6</ele>
        <time>2023-03-05T14:33:36Z</time>
        <extensions>
          <gpxtpx:TrackPointExtension xmlns:gpxtpx="http://www.garmin.com/xmlschemas/TrackPointExtension/v1">
            <gpxtpx:hr>110</gpxtpx:hr>
          </gpxtpx:TrackPointExtension>
        </extensions>
      </trkpt>
      <trkpt lat="48.64425" lon="2.09778">
        <ele>145</ele>
        <time>2023-03-05T14:33:39Z</time>
        <extensions>
          <gpxtpx:TrackPointExtension xmlns:gpxtpx="http://www.garmin.com/xmlschemas/TrackPointExtension/v1">
            <gpxtpx:hr>109</gpxtpx:hr>
          </gpxtpx:TrackPointExtension>
        </extensions>
      </trkpt>
      <trkpt lat="48.64427" lon="2.0978">
        <ele>145.2</ele>
        <time>2023-03-05T14:33:41Z</time>
        <extensions>
          <gpxtpx:TrackPointExtension xmlns:gpxtpx="http://www.garmin.com/xmlschemas/TrackPointExtension/v1">
            <gpxtpx:hr>109</gpxtpx:hr>
          </gpxtpx:TrackPointExtension>
        </extensions>
      </trkpt>
      <trkpt lat="48.64427" lon="2.09783">
        <ele>145.6</ele>
        <time>2023-03-05T14:33:44Z</time>
        <extensions>
          <gpxtpx:TrackPointExtension xmlns:gpxtpx="http://www.garmin.com/xmlschemas/TrackPointExtension/v1">
            <gpxtpx:hr>108</gpxtpx:hr>
          </gpxtpx:TrackPointExtension>
        </extensions>
      </trkpt>
      <trkpt lat="48.64425" lon="2.09785">
        <ele>145.8</ele>
        <time>2023-03-05T14:33:46Z</time>
        <extensions>
          <gpxtpx:TrackPointExtension xmlns:gpxtpx="http://www.garmin.com/xmlschemas/TrackPointExtension/v1">
            <gpxtpx:hr>108</gpxtpx:hr>
          </gpxtpx:TrackPointExtension>
        </extensions>
      </trkpt>
      <trkpt lat="48.64422" lon="2.09787">
        <ele>145.8</ele>
        <time>2023-03-05T14:33:48Z</time>
        <extensions>
          <gpxtpx:TrackPointExtension xmlns:gpxtpx="http://www.garmin.com/xmlschemas/TrackPointExtension/v1">
            <gpxtpx:hr>108</gpxtpx:hr>
          </gpxtpx:TrackPointExtension>
        </extensions>
      </trkpt>
      <trkpt lat="48.6442" lon="2.09788">
        <ele>145.8</ele>
        <time>2023-03-05T14:33:49Z</time>
        <extensions>
          <gpxtpx:TrackPointExtension xmlns:gpxtpx="http://www.garmin.com/xmlschemas/TrackPointExtension/v1">
            <gpxtpx:hr>108</gpxtpx:hr>
          </gpxtpx:TrackPointExtension>
        </extensions>
      </trkpt>
      <trkpt lat="48.64417" lon="2.09788">
        <ele>145.6</ele>
        <time>2023-03-05T14:33:51Z</time>
        <extensions>
          <gpxtpx:TrackPointExtension xmlns:gpxtpx="http://www.garmin.com/xmlschemas/TrackPointExtension/v1">
            <gpxtpx:hr>108</gpxtpx:hr>
          </gpxtpx:TrackPointExtension>
        </extensions>
      </trkpt>
      <trkpt lat="48.64415" lon="2.09789">
        <ele>145.6</ele>
        <time>2023-03-05T14:33:53Z</time>
        <extensions>
          <gpxtpx:TrackPointExtension xmlns:gpxtpx="http://www.garmin.com/xmlschemas/TrackPointExtension/v1">
            <gpxtpx:hr>108</gpxtpx:hr>
          </gpxtpx:TrackPointExtension>
        </extensions>
      </trkpt>
      <trkpt lat="48.64417" lon="2.09789">
        <ele>145</ele>
        <time>2023-03-05T14:33:59Z</time>
        <extensions>
          <gpxtpx:TrackPointExtension xmlns:gpxtpx="http://www.garmin.com/xmlschemas/TrackPointExtension/v1">
            <gpxtpx:hr>107</gpxtpx:hr>
          </gpxtpx:TrackPointExtension>
        </extensions>
      </trkpt>
      <trkpt lat="48.64419" lon="2.0979">
        <ele>144.4</ele>
        <time>2023-03-05T14:34:10Z</time>
        <extensions>
          <gpxtpx:TrackPointExtension xmlns:gpxtpx="http://www.garmin.com/xmlschemas/TrackPointExtension/v1">
            <gpxtpx:hr>106</gpxtpx:hr>
          </gpxtpx:TrackPointExtension>
        </extensions>
      </trkpt>
      <trkpt lat="48.64421" lon="2.0979">
        <ele>144.4</ele>
        <time>2023-03-05T14:34:16Z</time>
        <extensions>
          <gpxtpx:TrackPointExtension xmlns:gpxtpx="http://www.garmin.com/xmlschemas/TrackPointExtension/v1">
            <gpxtpx:hr>105</gpxtpx:hr>
          </gpxtpx:TrackPointExtension>
        </extensions>
      </trkpt>
      <trkpt lat="48.64422" lon="2.09788">
        <ele>144.6</ele>
        <time>2023-03-05T14:34:34Z</time>
        <extensions>
          <gpxtpx:TrackPointExtension xmlns:gpxtpx="http://www.garmin.com/xmlschemas/TrackPointExtension/v1">
            <gpxtpx:hr>103</gpxtpx:hr>
          </gpxtpx:TrackPointExtension>
        </extensions>
      </trkpt>
      <trkpt lat="48.64423" lon="2.09786">
        <ele>144.6</ele>
        <time>2023-03-05T14:34:36Z</time>
        <extensions>
          <gpxtpx:TrackPointExtension xmlns:gpxtpx="http://www.garmin.com/xmlschemas/TrackPointExtension/v1">
            <gpxtpx:hr>103</gpxtpx:hr>
          </gpxtpx:TrackPointExtension>
        </extensions>
      </trkpt>
      <trkpt lat="48.64425" lon="2.09782">
        <ele>144.8</ele>
        <time>2023-03-05T14:34:38Z</time>
        <extensions>
          <gpxtpx:TrackPointExtension xmlns:gpxtpx="http://www.garmin.com/xmlschemas/TrackPointExtension/v1">
            <gpxtpx:hr>103</gpxtpx:hr>
          </gpxtpx:TrackPointExtension>
        </extensions>
      </trkpt>
      <trkpt lat="48.64427" lon="2.09778">
        <ele>144.8</ele>
        <time>2023-03-05T14:34:40Z</time>
        <extensions>
          <gpxtpx:TrackPointExtension xmlns:gpxtpx="http://www.garmin.com/xmlschemas/TrackPointExtension/v1">
            <gpxtpx:hr>103</gpxtpx:hr>
          </gpxtpx:TrackPointExtension>
        </extensions>
      </trkpt>
      <trkpt lat="48.64429" lon="2.09774">
        <ele>144.6</ele>
        <time>2023-03-05T14:34:42Z</time>
        <extensions>
          <gpxtpx:TrackPointExtension xmlns:gpxtpx="http://www.garmin.com/xmlschemas/TrackPointExtension/v1">
            <gpxtpx:hr>103</gpxtpx:hr>
          </gpxtpx:TrackPointExtension>
        </extensions>
      </trkpt>
      <trkpt lat="48.6443" lon="2.09769">
        <ele>144.6</ele>
        <time>2023-03-05T14:34:44Z</time>
        <extensions>
          <gpxtpx:TrackPointExtension xmlns:gpxtpx="http://www.garmin.com/xmlschemas/TrackPointExtension/v1">
            <gpxtpx:hr>103</gpxtpx:hr>
          </gpxtpx:TrackPointExtension>
        </extensions>
      </trkpt>
      <trkpt lat="48.64431" lon="2.09765">
        <ele>144.8</ele>
        <time>2023-03-05T14:34:46Z</time>
        <extensions>
          <gpxtpx:TrackPointExtension xmlns:gpxtpx="http://www.garmin.com/xmlschemas/TrackPointExtension/v1">
            <gpxtpx:hr>103</gpxtpx:hr>
          </gpxtpx:TrackPointExtension>
        </extensions>
      </trkpt>
      <trkpt lat="48.64432" lon="2.09761">
        <ele>144.8</ele>
        <time>2023-03-05T14:34:48Z</time>
        <extensions>
          <gpxtpx:TrackPointExtension xmlns:gpxtpx="http://www.garmin.com/xmlschemas/TrackPointExtension/v1">
            <gpxtpx:hr>103</gpxtpx:hr>
          </gpxtpx:TrackPointExtension>
        </extensions>
      </trkpt>
      <trkpt lat="48.64433" lon="2.09757">
        <ele>145.2</ele>
        <time>2023-03-05T14:34:50Z</time>
        <extensions>
          <gpxtpx:TrackPointExtension xmlns:gpxtpx="http://www.garmin.com/xmlschemas/TrackPointExtension/v1">
            <gpxtpx:hr>103</gpxtpx:hr>
          </gpxtpx:TrackPointExtension>
        </extensions>
      </trkpt>
      <trkpt lat="48.64434" lon="2.09753">
        <ele>145.6</ele>
        <time>2023-03-05T14:34:52Z</time>
        <extensions>
          <gpxtpx:TrackPointExtension xmlns:gpxtpx="http://www.garmin.com/xmlschemas/TrackPointExtension/v1">
            <gpxtpx:hr>103</gpxtpx:hr>
          </gpxtpx:TrackPointExtension>
        </extensions>
      </trkpt>
      <trkpt lat="48.64435" lon="2.09749">
        <ele>146</ele>
        <time>2023-03-05T14:34:54Z</time>
        <extensions>
          <gpxtpx:TrackPointExtension xmlns:gpxtpx="http://www.garmin.com/xmlschemas/TrackPointExtension/v1">
            <gpxtpx:hr>103</gpxtpx:hr>
          </gpxtpx:TrackPointExtension>
        </extensions>
      </trkpt>
      <trkpt lat="48.64435" lon="2.09745">
        <ele>146.4</ele>
        <time>2023-03-05T14:34:56Z</time>
        <extensions>
          <gpxtpx:TrackPointExtension xmlns:gpxtpx="http://www.garmin.com/xmlschemas/TrackPointExtension/v1">
            <gpxtpx:hr>103</gpxtpx:hr>
          </gpxtpx:TrackPointExtension>
        </extensions>
      </trkpt>
      <trkpt lat="48.64437" lon="2.09741">
        <ele>146.8</ele>
        <time>2023-03-05T14:34:58Z</time>
        <extensions>
          <gpxtpx:TrackPointExtension xmlns:gpxtpx="http://www.garmin.com/xmlschemas/TrackPointExtension/v1">
            <gpxtpx:hr>103</gpxtpx:hr>
          </gpxtpx:TrackPointExtension>
        </extensions>
      </trkpt>
      <trkpt lat="48.64439" lon="2.09736">
        <ele>147.2</ele>
        <time>2023-03-05T14:35:00Z</time>
        <extensions>
          <gpxtpx:TrackPointExtension xmlns:gpxtpx="http://www.garmin.com/xmlschemas/TrackPointExtension/v1">
            <gpxtpx:hr>103</gpxtpx:hr>
          </gpxtpx:TrackPointExtension>
        </extensions>
      </trkpt>
      <trkpt lat="48.64441" lon="2.09731">
        <ele>147.6</ele>
        <time>2023-03-05T14:35:02Z</time>
        <extensions>
          <gpxtpx:TrackPointExtension xmlns:gpxtpx="http://www.garmin.com/xmlschemas/TrackPointExtension/v1">
            <gpxtpx:hr>103</gpxtpx:hr>
          </gpxtpx:TrackPointExtension>
        </extensions>
      </trkpt>
      <trkpt lat="48.64442" lon="2.09727">
        <ele>147.8</ele>
        <time>2023-03-05T14:35:04Z</time>
        <extensions>
          <gpxtpx:TrackPointExtension xmlns:gpxtpx="http://www.garmin.com/xmlschemas/TrackPointExtension/v1">
            <gpxtpx:hr>103</gpxtpx:hr>
          </gpxtpx:TrackPointExtension>
        </extensions>
      </trkpt>
      <trkpt lat="48.64444" lon="2.09722">
        <ele>148.2</ele>
        <time>2023-03-05T14:35:06Z</time>
        <extensions>
          <gpxtpx:TrackPointExtension xmlns:gpxtpx="http://www.garmin.com/xmlschemas/TrackPointExtension/v1">
            <gpxtpx:hr>103</gpxtpx:hr>
          </gpxtpx:TrackPointExtension>
        </extensions>
      </trkpt>
      <trkpt lat="48.64445" lon="2.09718">
        <ele>148.4</ele>
        <time>2023-03-05T14:35:08Z</time>
        <extensions>
          <gpxtpx:TrackPointExtension xmlns:gpxtpx="http://www.garmin.com/xmlschemas/TrackPointExtension/v1">
            <gpxtpx:hr>103</gpxtpx:hr>
          </gpxtpx:TrackPointExtension>
        </extensions>
      </trkpt>
      <trkpt lat="48.64445" lon="2.09714">
        <ele>148.6</ele>
        <time>2023-03-05T14:35:10Z</time>
        <extensions>
          <gpxtpx:TrackPointExtension xmlns:gpxtpx="http://www.garmin.com/xmlschemas/TrackPointExtension/v1">
            <gpxtpx:hr>103</gpxtpx:hr>
          </gpxtpx:TrackPointExtension>
        </extensions>
      </trkpt>
      <trkpt lat="48.64445" lon="2.0971">
        <ele>148.8</ele>
        <time>2023-03-05T14:35:12Z</time>
        <extensions>
          <gpxtpx:TrackPointExtension xmlns:gpxtpx="http://www.garmin.com/xmlschemas/TrackPointExtension/v1">
            <gpxtpx:hr>103</gpxtpx:hr>
          </gpxtpx:TrackPointExtension>
        </extensions>
      </trkpt>
      <trkpt lat="48.64446" lon="2.09705">
        <ele>149.2</ele>
        <time>2023-03-05T14:35:14Z</time>
        <extensions>
          <gpxtpx:TrackPointExtension xmlns:gpxtpx="http://www.garmin.com/xmlschemas/TrackPointExtension/v1">
            <gpxtpx:hr>103</gpxtpx:hr>
          </gpxtpx:TrackPointExtension>
        </extensions>
      </trkpt>
      <trkpt lat="48.64447" lon="2.09701">
        <ele>149.4</ele>
        <time>2023-03-05T14:35:16Z</time>
        <extensions>
          <gpxtpx:TrackPointExtension xmlns:gpxtpx="http://www.garmin.com/xmlschemas/TrackPointExtension/v1">
            <gpxtpx:hr>103</gpxtpx:hr>
          </gpxtpx:TrackPointExtension>
        </extensions>
      </trkpt>
      <trkpt lat="48.64448" lon="2.09697">
        <ele>149.8</ele>
        <time>2023-03-05T14:35:18Z</time>
        <extensions>
          <gpxtpx:TrackPointExtension xmlns:gpxtpx="http://www.garmin.com/xmlschemas/TrackPointExtension/v1">
            <gpxtpx:hr>103</gpxtpx:hr>
          </gpxtpx:TrackPointExtension>
        </extensions>
      </trkpt>
      <trkpt lat="48.6445" lon="2.09694">
        <ele>150</ele>
        <time>2023-03-05T14:35:20Z</time>
        <extensions>
          <gpxtpx:TrackPointExtension xmlns:gpxtpx="http://www.garmin.com/xmlschemas/TrackPointExtension/v1">
            <gpxtpx:hr>103</gpxtpx:hr>
          </gpxtpx:TrackPointExtension>
        </extensions>
      </trkpt>
      <trkpt lat="48.64451" lon="2.09691">
        <ele>150.2</ele>
        <time>2023-03-05T14:35:22Z</time>
        <extensions>
          <gpxtpx:TrackPointExtension xmlns:gpxtpx="http://www.garmin.com/xmlschemas/TrackPointExtension/v1">
            <gpxtpx:hr>103</gpxtpx:hr>
          </gpxtpx:TrackPointExtension>
        </extensions>
      </trkpt>
      <trkpt lat="48.64453" lon="2.09688">
        <ele>150.6</ele>
        <time>2023-03-05T14:35:24Z</time>
        <extensions>
          <gpxtpx:TrackPointExtension xmlns:gpxtpx="http://www.garmin.com/xmlschemas/TrackPointExtension/v1">
            <gpxtpx:hr>103</gpxtpx:hr>
          </gpxtpx:TrackPointExtension>
        </extensions>
      </trkpt>
      <trkpt lat="48.64454" lon="2.09685">
        <ele>151</ele>
        <time>2023-03-05T14:35:26Z</time>
        <extensions>
          <gpxtpx:TrackPointExtension xmlns:gpxtpx="http://www.garmin.com/xmlschemas/TrackPointExtension/v1">
            <gpxtpx:hr>104</gpxtpx:hr>
          </gpxtpx:TrackPointExtension>
        </extensions>
      </trkpt>
      <trkpt lat="48.64455" lon="2.09683">
        <ele>151.4</ele>
        <time>2023-03-05T14:35:28Z</time>
        <extensions>
          <gpxtpx:TrackPointExtension xmlns:gpxtpx="http://www.garmin.com/xmlschemas/TrackPointExtension/v1">
            <gpxtpx:hr>104</gpxtpx:hr>
          </gpxtpx:TrackPointExtension>
        </extensions>
      </trkpt>
      <trkpt lat="48.64457" lon="2.09679">
        <ele>151.6</ele>
        <time>2023-03-05T14:35:30Z</time>
        <extensions>
          <gpxtpx:TrackPointExtension xmlns:gpxtpx="http://www.garmin.com/xmlschemas/TrackPointExtension/v1">
            <gpxtpx:hr>104</gpxtpx:hr>
          </gpxtpx:TrackPointExtension>
        </extensions>
      </trkpt>
      <trkpt lat="48.64457" lon="2.09676">
        <ele>152</ele>
        <time>2023-03-05T14:35:32Z</time>
        <extensions>
          <gpxtpx:TrackPointExtension xmlns:gpxtpx="http://www.garmin.com/xmlschemas/TrackPointExtension/v1">
            <gpxtpx:hr>104</gpxtpx:hr>
          </gpxtpx:TrackPointExtension>
        </extensions>
      </trkpt>
      <trkpt lat="48.64457" lon="2.09673">
        <ele>152.4</ele>
        <time>2023-03-05T14:35:34Z</time>
        <extensions>
          <gpxtpx:TrackPointExtension xmlns:gpxtpx="http://www.garmin.com/xmlschemas/TrackPointExtension/v1">
            <gpxtpx:hr>104</gpxtpx:hr>
          </gpxtpx:TrackPointExtension>
        </extensions>
      </trkpt>
      <trkpt lat="48.64457" lon="2.09669">
        <ele>152.8</ele>
        <time>2023-03-05T14:35:36Z</time>
        <extensions>
          <gpxtpx:TrackPointExtension xmlns:gpxtpx="http://www.garmin.com/xmlschemas/TrackPointExtension/v1">
            <gpxtpx:hr>104</gpxtpx:hr>
          </gpxtpx:TrackPointExtension>
        </extensions>
      </trkpt>
      <trkpt lat="48.64457" lon="2.09666">
        <ele>153.2</ele>
        <time>2023-03-05T14:35:38Z</time>
        <extensions>
          <gpxtpx:TrackPointExtension xmlns:gpxtpx="http://www.garmin.com/xmlschemas/TrackPointExtension/v1">
            <gpxtpx:hr>105</gpxtpx:hr>
          </gpxtpx:TrackPointExtension>
        </extensions>
      </trkpt>
      <trkpt lat="48.64457" lon="2.09663">
        <ele>153.4</ele>
        <time>2023-03-05T14:35:40Z</time>
        <extensions>
          <gpxtpx:TrackPointExtension xmlns:gpxtpx="http://www.garmin.com/xmlschemas/TrackPointExtension/v1">
            <gpxtpx:hr>105</gpxtpx:hr>
          </gpxtpx:TrackPointExtension>
        </extensions>
      </trkpt>
      <trkpt lat="48.64457" lon="2.0966">
        <ele>153.6</ele>
        <time>2023-03-05T14:35:42Z</time>
        <extensions>
          <gpxtpx:TrackPointExtension xmlns:gpxtpx="http://www.garmin.com/xmlschemas/TrackPointExtension/v1">
            <gpxtpx:hr>106</gpxtpx:hr>
          </gpxtpx:TrackPointExtension>
        </extensions>
      </trkpt>
      <trkpt lat="48.64458" lon="2.09658">
        <ele>154</ele>
        <time>2023-03-05T14:35:44Z</time>
        <extensions>
          <gpxtpx:TrackPointExtension xmlns:gpxtpx="http://www.garmin.com/xmlschemas/TrackPointExtension/v1">
            <gpxtpx:hr>106</gpxtpx:hr>
          </gpxtpx:TrackPointExtension>
        </extensions>
      </trkpt>
      <trkpt lat="48.6446" lon="2.09655">
        <ele>154.2</ele>
        <time>2023-03-05T14:35:46Z</time>
        <extensions>
          <gpxtpx:TrackPointExtension xmlns:gpxtpx="http://www.garmin.com/xmlschemas/TrackPointExtension/v1">
            <gpxtpx:hr>106</gpxtpx:hr>
          </gpxtpx:TrackPointExtension>
        </extensions>
      </trkpt>
      <trkpt lat="48.64461" lon="2.09653">
        <ele>154.6</ele>
        <time>2023-03-05T14:35:48Z</time>
        <extensions>
          <gpxtpx:TrackPointExtension xmlns:gpxtpx="http://www.garmin.com/xmlschemas/TrackPointExtension/v1">
            <gpxtpx:hr>106</gpxtpx:hr>
          </gpxtpx:TrackPointExtension>
        </extensions>
      </trkpt>
      <trkpt lat="48.64462" lon="2.09649">
        <ele>154.8</ele>
        <time>2023-03-05T14:35:50Z</time>
        <extensions>
          <gpxtpx:TrackPointExtension xmlns:gpxtpx="http://www.garmin.com/xmlschemas/TrackPointExtension/v1">
            <gpxtpx:hr>106</gpxtpx:hr>
          </gpxtpx:TrackPointExtension>
        </extensions>
      </trkpt>
      <trkpt lat="48.64463" lon="2.09645">
        <ele>155</ele>
        <time>2023-03-05T14:35:52Z</time>
        <extensions>
          <gpxtpx:TrackPointExtension xmlns:gpxtpx="http://www.garmin.com/xmlschemas/TrackPointExtension/v1">
            <gpxtpx:hr>106</gpxtpx:hr>
          </gpxtpx:TrackPointExtension>
        </extensions>
      </trkpt>
      <trkpt lat="48.64464" lon="2.09641">
        <ele>155</ele>
        <time>2023-03-05T14:35:54Z</time>
        <extensions>
          <gpxtpx:TrackPointExtension xmlns:gpxtpx="http://www.garmin.com/xmlschemas/TrackPointExtension/v1">
            <gpxtpx:hr>107</gpxtpx:hr>
          </gpxtpx:TrackPointExtension>
        </extensions>
      </trkpt>
      <trkpt lat="48.64463" lon="2.09637">
        <ele>155.2</ele>
        <time>2023-03-05T14:35:56Z</time>
        <extensions>
          <gpxtpx:TrackPointExtension xmlns:gpxtpx="http://www.garmin.com/xmlschemas/TrackPointExtension/v1">
            <gpxtpx:hr>108</gpxtpx:hr>
          </gpxtpx:TrackPointExtension>
        </extensions>
      </trkpt>
      <trkpt lat="48.64463" lon="2.09633">
        <ele>155.2</ele>
        <time>2023-03-05T14:35:58Z</time>
        <extensions>
          <gpxtpx:TrackPointExtension xmlns:gpxtpx="http://www.garmin.com/xmlschemas/TrackPointExtension/v1">
            <gpxtpx:hr>108</gpxtpx:hr>
          </gpxtpx:TrackPointExtension>
        </extensions>
      </trkpt>
      <trkpt lat="48.64463" lon="2.0963">
        <ele>155.2</ele>
        <time>2023-03-05T14:36:00Z</time>
        <extensions>
          <gpxtpx:TrackPointExtension xmlns:gpxtpx="http://www.garmin.com/xmlschemas/TrackPointExtension/v1">
            <gpxtpx:hr>108</gpxtpx:hr>
          </gpxtpx:TrackPointExtension>
        </extensions>
      </trkpt>
      <trkpt lat="48.64463" lon="2.09626">
        <ele>155.2</ele>
        <time>2023-03-05T14:36:02Z</time>
        <extensions>
          <gpxtpx:TrackPointExtension xmlns:gpxtpx="http://www.garmin.com/xmlschemas/TrackPointExtension/v1">
            <gpxtpx:hr>108</gpxtpx:hr>
          </gpxtpx:TrackPointExtension>
        </extensions>
      </trkpt>
      <trkpt lat="48.64463" lon="2.09623">
        <ele>155.2</ele>
        <time>2023-03-05T14:36:04Z</time>
        <extensions>
          <gpxtpx:TrackPointExtension xmlns:gpxtpx="http://www.garmin.com/xmlschemas/TrackPointExtension/v1">
            <gpxtpx:hr>109</gpxtpx:hr>
          </gpxtpx:TrackPointExtension>
        </extensions>
      </trkpt>
      <trkpt lat="48.64462" lon="2.09621">
        <ele>155.4</ele>
        <time>2023-03-05T14:36:06Z</time>
        <extensions>
          <gpxtpx:TrackPointExtension xmlns:gpxtpx="http://www.garmin.com/xmlschemas/TrackPointExtension/v1">
            <gpxtpx:hr>109</gpxtpx:hr>
          </gpxtpx:TrackPointExtension>
        </extensions>
      </trkpt>
      <trkpt lat="48.64461" lon="2.09617">
        <ele>155.8</ele>
        <time>2023-03-05T14:36:09Z</time>
        <extensions>
          <gpxtpx:TrackPointExtension xmlns:gpxtpx="http://www.garmin.com/xmlschemas/TrackPointExtension/v1">
            <gpxtpx:hr>109</gpxtpx:hr>
          </gpxtpx:TrackPointExtension>
        </extensions>
      </trkpt>
      <trkpt lat="48.6446" lon="2.09614">
        <ele>155.8</ele>
        <time>2023-03-05T14:36:11Z</time>
        <extensions>
          <gpxtpx:TrackPointExtension xmlns:gpxtpx="http://www.garmin.com/xmlschemas/TrackPointExtension/v1">
            <gpxtpx:hr>109</gpxtpx:hr>
          </gpxtpx:TrackPointExtension>
        </extensions>
      </trkpt>
      <trkpt lat="48.64459" lon="2.09611">
        <ele>155.8</ele>
        <time>2023-03-05T14:36:13Z</time>
        <extensions>
          <gpxtpx:TrackPointExtension xmlns:gpxtpx="http://www.garmin.com/xmlschemas/TrackPointExtension/v1">
            <gpxtpx:hr>109</gpxtpx:hr>
          </gpxtpx:TrackPointExtension>
        </extensions>
      </trkpt>
      <trkpt lat="48.64457" lon="2.09608">
        <ele>155.8</ele>
        <time>2023-03-05T14:36:15Z</time>
        <extensions>
          <gpxtpx:TrackPointExtension xmlns:gpxtpx="http://www.garmin.com/xmlschemas/TrackPointExtension/v1">
            <gpxtpx:hr>109</gpxtpx:hr>
          </gpxtpx:TrackPointExtension>
        </extensions>
      </trkpt>
      <trkpt lat="48.64457" lon="2.09604">
        <ele>155.8</ele>
        <time>2023-03-05T14:36:17Z</time>
        <extensions>
          <gpxtpx:TrackPointExtension xmlns:gpxtpx="http://www.garmin.com/xmlschemas/TrackPointExtension/v1">
            <gpxtpx:hr>110</gpxtpx:hr>
          </gpxtpx:TrackPointExtension>
        </extensions>
      </trkpt>
      <trkpt lat="48.64458" lon="2.096">
        <ele>156</ele>
        <time>2023-03-05T14:36:19Z</time>
        <extensions>
          <gpxtpx:TrackPointExtension xmlns:gpxtpx="http://www.garmin.com/xmlschemas/TrackPointExtension/v1">
            <gpxtpx:hr>110</gpxtpx:hr>
          </gpxtpx:TrackPointExtension>
        </extensions>
      </trkpt>
      <trkpt lat="48.64459" lon="2.09595">
        <ele>156.2</ele>
        <time>2023-03-05T14:36:21Z</time>
        <extensions>
          <gpxtpx:TrackPointExtension xmlns:gpxtpx="http://www.garmin.com/xmlschemas/TrackPointExtension/v1">
            <gpxtpx:hr>110</gpxtpx:hr>
          </gpxtpx:TrackPointExtension>
        </extensions>
      </trkpt>
      <trkpt lat="48.64459" lon="2.09591">
        <ele>156.2</ele>
        <time>2023-03-05T14:36:23Z</time>
        <extensions>
          <gpxtpx:TrackPointExtension xmlns:gpxtpx="http://www.garmin.com/xmlschemas/TrackPointExtension/v1">
            <gpxtpx:hr>110</gpxtpx:hr>
          </gpxtpx:TrackPointExtension>
        </extensions>
      </trkpt>
      <trkpt lat="48.6446" lon="2.09587">
        <ele>156.4</ele>
        <time>2023-03-05T14:36:25Z</time>
        <extensions>
          <gpxtpx:TrackPointExtension xmlns:gpxtpx="http://www.garmin.com/xmlschemas/TrackPointExtension/v1">
            <gpxtpx:hr>110</gpxtpx:hr>
          </gpxtpx:TrackPointExtension>
        </extensions>
      </trkpt>
      <trkpt lat="48.64461" lon="2.09583">
        <ele>156.6</ele>
        <time>2023-03-05T14:36:27Z</time>
        <extensions>
          <gpxtpx:TrackPointExtension xmlns:gpxtpx="http://www.garmin.com/xmlschemas/TrackPointExtension/v1">
            <gpxtpx:hr>110</gpxtpx:hr>
          </gpxtpx:TrackPointExtension>
        </extensions>
      </trkpt>
      <trkpt lat="48.64461" lon="2.09578">
        <ele>156.8</ele>
        <time>2023-03-05T14:36:29Z</time>
        <extensions>
          <gpxtpx:TrackPointExtension xmlns:gpxtpx="http://www.garmin.com/xmlschemas/TrackPointExtension/v1">
            <gpxtpx:hr>110</gpxtpx:hr>
          </gpxtpx:TrackPointExtension>
        </extensions>
      </trkpt>
      <trkpt lat="48.64463" lon="2.09573">
        <ele>156.8</ele>
        <time>2023-03-05T14:36:31Z</time>
        <extensions>
          <gpxtpx:TrackPointExtension xmlns:gpxtpx="http://www.garmin.com/xmlschemas/TrackPointExtension/v1">
            <gpxtpx:hr>111</gpxtpx:hr>
          </gpxtpx:TrackPointExtension>
        </extensions>
      </trkpt>
      <trkpt lat="48.64464" lon="2.09568">
        <ele>156.8</ele>
        <time>2023-03-05T14:36:33Z</time>
        <extensions>
          <gpxtpx:TrackPointExtension xmlns:gpxtpx="http://www.garmin.com/xmlschemas/TrackPointExtension/v1">
            <gpxtpx:hr>111</gpxtpx:hr>
          </gpxtpx:TrackPointExtension>
        </extensions>
      </trkpt>
      <trkpt lat="48.64466" lon="2.09563">
        <ele>157</ele>
        <time>2023-03-05T14:36:35Z</time>
        <extensions>
          <gpxtpx:TrackPointExtension xmlns:gpxtpx="http://www.garmin.com/xmlschemas/TrackPointExtension/v1">
            <gpxtpx:hr>111</gpxtpx:hr>
          </gpxtpx:TrackPointExtension>
        </extensions>
      </trkpt>
      <trkpt lat="48.64468" lon="2.0956">
        <ele>157</ele>
        <time>2023-03-05T14:36:37Z</time>
        <extensions>
          <gpxtpx:TrackPointExtension xmlns:gpxtpx="http://www.garmin.com/xmlschemas/TrackPointExtension/v1">
            <gpxtpx:hr>111</gpxtpx:hr>
          </gpxtpx:TrackPointExtension>
        </extensions>
      </trkpt>
      <trkpt lat="48.64469" lon="2.09557">
        <ele>157</ele>
        <time>2023-03-05T14:36:39Z</time>
        <extensions>
          <gpxtpx:TrackPointExtension xmlns:gpxtpx="http://www.garmin.com/xmlschemas/TrackPointExtension/v1">
            <gpxtpx:hr>111</gpxtpx:hr>
          </gpxtpx:TrackPointExtension>
        </extensions>
      </trkpt>
      <trkpt lat="48.64469" lon="2.09553">
        <ele>156.8</ele>
        <time>2023-03-05T14:36:41Z</time>
        <extensions>
          <gpxtpx:TrackPointExtension xmlns:gpxtpx="http://www.garmin.com/xmlschemas/TrackPointExtension/v1">
            <gpxtpx:hr>111</gpxtpx:hr>
          </gpxtpx:TrackPointExtension>
        </extensions>
      </trkpt>
      <trkpt lat="48.64469" lon="2.0955">
        <ele>156.8</ele>
        <time>2023-03-05T14:36:43Z</time>
        <extensions>
          <gpxtpx:TrackPointExtension xmlns:gpxtpx="http://www.garmin.com/xmlschemas/TrackPointExtension/v1">
            <gpxtpx:hr>111</gpxtpx:hr>
          </gpxtpx:TrackPointExtension>
        </extensions>
      </trkpt>
      <trkpt lat="48.6447" lon="2.09547">
        <ele>156.8</ele>
        <time>2023-03-05T14:36:45Z</time>
        <extensions>
          <gpxtpx:TrackPointExtension xmlns:gpxtpx="http://www.garmin.com/xmlschemas/TrackPointExtension/v1">
            <gpxtpx:hr>111</gpxtpx:hr>
          </gpxtpx:TrackPointExtension>
        </extensions>
      </trkpt>
      <trkpt lat="48.6447" lon="2.09544">
        <ele>156.8</ele>
        <time>2023-03-05T14:36:47Z</time>
        <extensions>
          <gpxtpx:TrackPointExtension xmlns:gpxtpx="http://www.garmin.com/xmlschemas/TrackPointExtension/v1">
            <gpxtpx:hr>111</gpxtpx:hr>
          </gpxtpx:TrackPointExtension>
        </extensions>
      </trkpt>
      <trkpt lat="48.6447" lon="2.0954">
        <ele>156.8</ele>
        <time>2023-03-05T14:36:49Z</time>
        <extensions>
          <gpxtpx:TrackPointExtension xmlns:gpxtpx="http://www.garmin.com/xmlschemas/TrackPointExtension/v1">
            <gpxtpx:hr>111</gpxtpx:hr>
          </gpxtpx:TrackPointExtension>
        </extensions>
      </trkpt>
      <trkpt lat="48.64471" lon="2.09536">
        <ele>156.8</ele>
        <time>2023-03-05T14:36:51Z</time>
        <extensions>
          <gpxtpx:TrackPointExtension xmlns:gpxtpx="http://www.garmin.com/xmlschemas/TrackPointExtension/v1">
            <gpxtpx:hr>111</gpxtpx:hr>
          </gpxtpx:TrackPointExtension>
        </extensions>
      </trkpt>
      <trkpt lat="48.64472" lon="2.09533">
        <ele>156.6</ele>
        <time>2023-03-05T14:36:53Z</time>
        <extensions>
          <gpxtpx:TrackPointExtension xmlns:gpxtpx="http://www.garmin.com/xmlschemas/TrackPointExtension/v1">
            <gpxtpx:hr>111</gpxtpx:hr>
          </gpxtpx:TrackPointExtension>
        </extensions>
      </trkpt>
      <trkpt lat="48.64474" lon="2.0953">
        <ele>156.4</ele>
        <time>2023-03-05T14:36:55Z</time>
        <extensions>
          <gpxtpx:TrackPointExtension xmlns:gpxtpx="http://www.garmin.com/xmlschemas/TrackPointExtension/v1">
            <gpxtpx:hr>111</gpxtpx:hr>
          </gpxtpx:TrackPointExtension>
        </extensions>
      </trkpt>
      <trkpt lat="48.64475" lon="2.09527">
        <ele>156.2</ele>
        <time>2023-03-05T14:36:57Z</time>
        <extensions>
          <gpxtpx:TrackPointExtension xmlns:gpxtpx="http://www.garmin.com/xmlschemas/TrackPointExtension/v1">
            <gpxtpx:hr>111</gpxtpx:hr>
          </gpxtpx:TrackPointExtension>
        </extensions>
      </trkpt>
      <trkpt lat="48.64477" lon="2.09523">
        <ele>156.2</ele>
        <time>2023-03-05T14:36:59Z</time>
        <extensions>
          <gpxtpx:TrackPointExtension xmlns:gpxtpx="http://www.garmin.com/xmlschemas/TrackPointExtension/v1">
            <gpxtpx:hr>111</gpxtpx:hr>
          </gpxtpx:TrackPointExtension>
        </extensions>
      </trkpt>
      <trkpt lat="48.64478" lon="2.0952">
        <ele>156.2</ele>
        <time>2023-03-05T14:37:01Z</time>
        <extensions>
          <gpxtpx:TrackPointExtension xmlns:gpxtpx="http://www.garmin.com/xmlschemas/TrackPointExtension/v1">
            <gpxtpx:hr>111</gpxtpx:hr>
          </gpxtpx:TrackPointExtension>
        </extensions>
      </trkpt>
      <trkpt lat="48.6448" lon="2.09517">
        <ele>156.2</ele>
        <time>2023-03-05T14:37:03Z</time>
        <extensions>
          <gpxtpx:TrackPointExtension xmlns:gpxtpx="http://www.garmin.com/xmlschemas/TrackPointExtension/v1">
            <gpxtpx:hr>111</gpxtpx:hr>
          </gpxtpx:TrackPointExtension>
        </extensions>
      </trkpt>
      <trkpt lat="48.64482" lon="2.09515">
        <ele>156</ele>
        <time>2023-03-05T14:37:05Z</time>
        <extensions>
          <gpxtpx:TrackPointExtension xmlns:gpxtpx="http://www.garmin.com/xmlschemas/TrackPointExtension/v1">
            <gpxtpx:hr>111</gpxtpx:hr>
          </gpxtpx:TrackPointExtension>
        </extensions>
      </trkpt>
      <trkpt lat="48.64484" lon="2.09512">
        <ele>155.8</ele>
        <time>2023-03-05T14:37:07Z</time>
      </trkpt>
      <trkpt lat="48.64487" lon="2.0951">
        <ele>155.8</ele>
        <time>2023-03-05T14:37:09Z</time>
      </trkpt>
      <trkpt lat="48.64488" lon="2.09508">
        <ele>155.8</ele>
        <time>2023-03-05T14:37:10Z</time>
      </trkpt>
      <trkpt lat="48.64491" lon="2.09505">
        <ele>155.8</ele>
        <time>2023-03-05T14:37:12Z</time>
      </trkpt>
      <trkpt lat="48.64492" lon="2.09504">
        <ele>155.8</ele>
        <time>2023-03-05T14:37:13Z</time>
      </trkpt>
      <trkpt lat="48.64494" lon="2.09501">
        <ele>155.6</ele>
        <time>2023-03-05T14:37:15Z</time>
      </trkpt>
      <trkpt lat="48.64496" lon="2.09499">
        <ele>155.4</ele>
        <time>2023-03-05T14:37:17Z</time>
      </trkpt>
      <trkpt lat="48.64497" lon="2.09497">
        <ele>155.2</ele>
        <time>2023-03-05T14:37:19Z</time>
      </trkpt>
      <trkpt lat="48.64499" lon="2.09494">
        <ele>155</ele>
        <time>2023-03-05T14:37:21Z</time>
      </trkpt>
      <trkpt lat="48.64501" lon="2.0949">
        <ele>154.8</ele>
        <time>2023-03-05T14:37:23Z</time>
      </trkpt>
      <trkpt lat="48.64502" lon="2.09488">
        <ele>154.8</ele>
        <time>2023-03-05T14:37:24Z</time>
      </trkpt>
      <trkpt lat="48.64504" lon="2.09486">
        <ele>154.8</ele>
        <time>2023-03-05T14:37:25Z</time>
      </trkpt>
      <trkpt lat="48.64507" lon="2.09483">
        <ele>154.6</ele>
        <time>2023-03-05T14:37:27Z</time>
      </trkpt>
      <trkpt lat="48.64508" lon="2.09482">
        <ele>154.6</ele>
        <time>2023-03-05T14:37:28Z</time>
      </trkpt>
      <trkpt lat="48.6451" lon="2.09479">
        <ele>154.6</ele>
        <time>2023-03-05T14:37:30Z</time>
      </trkpt>
      <trkpt lat="48.64513" lon="2.09477">
        <ele>154.6</ele>
        <time>2023-03-05T14:37:32Z</time>
      </trkpt>
      <trkpt lat="48.64515" lon="2.09474">
        <ele>154.6</ele>
        <time>2023-03-05T14:37:34Z</time>
      </trkpt>
      <trkpt lat="48.64517" lon="2.09472">
        <ele>154.6</ele>
        <time>2023-03-05T14:37:35Z</time>
      </trkpt>
      <trkpt lat="48.64519" lon="2.0947">
        <ele>154.8</ele>
        <time>2023-03-05T14:37:37Z</time>
      </trkpt>
      <trkpt lat="48.64522" lon="2.09467">
        <ele>154.8</ele>
        <time>2023-03-05T14:37:39Z</time>
      </trkpt>
      <trkpt lat="48.64524" lon="2.09465">
        <ele>154.8</ele>
        <time>2023-03-05T14:37:41Z</time>
      </trkpt>
      <trkpt lat="48.64526" lon="2.09463">
        <ele>154.6</ele>
        <time>2023-03-05T14:37:43Z</time>
      </trkpt>
      <trkpt lat="48.64528" lon="2.09463">
        <ele>154.4</ele>
        <time>2023-03-05T14:37:46Z</time>
      </trkpt>
      <trkpt lat="48.6453" lon="2.09466">
        <ele>154.4</ele>
        <time>2023-03-05T14:37:49Z</time>
      </trkpt>
      <trkpt lat="48.64529" lon="2.09464">
        <ele>153.6</ele>
        <time>2023-03-05T14:38:18Z</time>
      </trkpt>
      <trkpt lat="48.6453" lon="2.09461">
        <ele>153.6</ele>
        <time>2023-03-05T14:38:22Z</time>
      </trkpt>
      <trkpt lat="48.64532" lon="2.09457">
        <ele>153.4</ele>
        <time>2023-03-05T14:38:24Z</time>
      </trkpt>
      <trkpt lat="48.64534" lon="2.09454">
        <ele>153.4</ele>
        <time>2023-03-05T14:38:26Z</time>
      </trkpt>
      <trkpt lat="48.64536" lon="2.09451">
        <ele>153.6</ele>
        <time>2023-03-05T14:38:28Z</time>
      </trkpt>
      <trkpt lat="48.64537" lon="2.09447">
        <ele>153.6</ele>
        <time>2023-03-05T14:38:30Z</time>
      </trkpt>
      <trkpt lat="48.64539" lon="2.09442">
        <ele>153.6</ele>
        <time>2023-03-05T14:38:32Z</time>
      </trkpt>
      <trkpt lat="48.6454" lon="2.09438">
        <ele>153.6</ele>
        <time>2023-03-05T14:38:34Z</time>
      </trkpt>
      <trkpt lat="48.64541" lon="2.09434">
        <ele>153.8</ele>
        <time>2023-03-05T14:38:36Z</time>
      </trkpt>
      <trkpt lat="48.64542" lon="2.0943">
        <ele>154.2</ele>
        <time>2023-03-05T14:38:38Z</time>
      </trkpt>
      <trkpt lat="48.64544" lon="2.09426">
        <ele>154.6</ele>
        <time>2023-03-05T14:38:40Z</time>
      </trkpt>
      <trkpt lat="48.64545" lon="2.09422">
        <ele>154.6</ele>
        <time>2023-03-05T14:38:42Z</time>
      </trkpt>
      <trkpt lat="48.64546" lon="2.09418">
        <ele>154.8</ele>
        <time>2023-03-05T14:38:44Z</time>
      </trkpt>
      <trkpt lat="48.64546" lon="2.09414">
        <ele>154.8</ele>
        <time>2023-03-05T14:38:46Z</time>
      </trkpt>
      <trkpt lat="48.64547" lon="2.0941">
        <ele>155</ele>
        <time>2023-03-05T14:38:48Z</time>
      </trkpt>
      <trkpt lat="48.64548" lon="2.09407">
        <ele>155.2</ele>
        <time>2023-03-05T14:38:50Z</time>
      </trkpt>
      <trkpt lat="48.64548" lon="2.09405">
        <ele>155.2</ele>
        <time>2023-03-05T14:38:52Z</time>
      </trkpt>
      <trkpt lat="48.6455" lon="2.09402">
        <ele>155.2</ele>
        <time>2023-03-05T14:38:54Z</time>
      </trkpt>
      <trkpt lat="48.64551" lon="2.09398">
        <ele>155.2</ele>
        <time>2023-03-05T14:38:56Z</time>
      </trkpt>
      <trkpt lat="48.64552" lon="2.09394">
        <ele>155.2</ele>
        <time>2023-03-05T14:38:58Z</time>
      </trkpt>
      <trkpt lat="48.64552" lon="2.09391">
        <ele>155.2</ele>
        <time>2023-03-05T14:39:00Z</time>
      </trkpt>
      <trkpt lat="48.64552" lon="2.09387">
        <ele>155.4</ele>
        <time>2023-03-05T14:39:02Z</time>
      </trkpt>
      <trkpt lat="48.64552" lon="2.09383">
        <ele>155.4</ele>
        <time>2023-03-05T14:39:04Z</time>
      </trkpt>
      <trkpt lat="48.64553" lon="2.0938">
        <ele>155.4</ele>
        <time>2023-03-05T14:39:06Z</time>
      </trkpt>
      <trkpt lat="48.64554" lon="2.09377">
        <ele>155.2</ele>
        <time>2023-03-05T14:39:08Z</time>
      </trkpt>
      <trkpt lat="48.64554" lon="2.09373">
        <ele>155.2</ele>
        <time>2023-03-05T14:39:11Z</time>
      </trkpt>
      <trkpt lat="48.64554" lon="2.0937">
        <ele>155.4</ele>
        <time>2023-03-05T14:39:13Z</time>
      </trkpt>
      <trkpt lat="48.64555" lon="2.09367">
        <ele>155.4</ele>
        <time>2023-03-05T14:39:15Z</time>
      </trkpt>
      <trkpt lat="48.64555" lon="2.09362">
        <ele>155.6</ele>
        <time>2023-03-05T14:39:17Z</time>
      </trkpt>
      <trkpt lat="48.64555" lon="2.09358">
        <ele>155.8</ele>
        <time>2023-03-05T14:39:19Z</time>
      </trkpt>
      <trkpt lat="48.64556" lon="2.09353">
        <ele>156</ele>
        <time>2023-03-05T14:39:21Z</time>
      </trkpt>
      <trkpt lat="48.64556" lon="2.09349">
        <ele>156.2</ele>
        <time>2023-03-05T14:39:23Z</time>
      </trkpt>
      <trkpt lat="48.64556" lon="2.09346">
        <ele>156.6</ele>
        <time>2023-03-05T14:39:25Z</time>
      </trkpt>
      <trkpt lat="48.64557" lon="2.09342">
        <ele>157</ele>
        <time>2023-03-05T14:39:27Z</time>
      </trkpt>
      <trkpt lat="48.64557" lon="2.09339">
        <ele>157.2</ele>
        <time>2023-03-05T14:39:29Z</time>
      </trkpt>
      <trkpt lat="48.64558" lon="2.09335">
        <ele>157.4</ele>
        <time>2023-03-05T14:39:31Z</time>
      </trkpt>
      <trkpt lat="48.64558" lon="2.09332">
        <ele>157.6</ele>
        <time>2023-03-05T14:39:33Z</time>
      </trkpt>
      <trkpt lat="48.64558" lon="2.09329">
        <ele>157.6</ele>
        <time>2023-03-05T14:39:35Z</time>
      </trkpt>
      <trkpt lat="48.64558" lon="2.09326">
        <ele>157.6</ele>
        <time>2023-03-05T14:39:37Z</time>
      </trkpt>
      <trkpt lat="48.64559" lon="2.09322">
        <ele>157.6</ele>
        <time>2023-03-05T14:39:39Z</time>
      </trkpt>
      <trkpt lat="48.6456" lon="2.09318">
        <ele>157.6</ele>
        <time>2023-03-05T14:39:41Z</time>
      </trkpt>
      <trkpt lat="48.6456" lon="2.09312">
        <ele>157.6</ele>
        <time>2023-03-05T14:39:43Z</time>
      </trkpt>
      <trkpt lat="48.6456" lon="2.09307">
        <ele>157.4</ele>
        <time>2023-03-05T14:39:45Z</time>
      </trkpt>
      <trkpt lat="48.6456" lon="2.09302">
        <ele>157</ele>
        <time>2023-03-05T14:39:47Z</time>
      </trkpt>
      <trkpt lat="48.64561" lon="2.09298">
        <ele>156.8</ele>
        <time>2023-03-05T14:39:49Z</time>
      </trkpt>
      <trkpt lat="48.64562" lon="2.09294">
        <ele>156.4</ele>
        <time>2023-03-05T14:39:51Z</time>
      </trkpt>
      <trkpt lat="48.64562" lon="2.0929">
        <ele>156.2</ele>
        <time>2023-03-05T14:39:53Z</time>
      </trkpt>
      <trkpt lat="48.64563" lon="2.09286">
        <ele>156</ele>
        <time>2023-03-05T14:39:55Z</time>
      </trkpt>
      <trkpt lat="48.64564" lon="2.09282">
        <ele>155.6</ele>
        <time>2023-03-05T14:39:57Z</time>
      </trkpt>
      <trkpt lat="48.64565" lon="2.09278">
        <ele>155.4</ele>
        <time>2023-03-05T14:39:59Z</time>
      </trkpt>
      <trkpt lat="48.64565" lon="2.09274">
        <ele>155</ele>
        <time>2023-03-05T14:40:01Z</time>
      </trkpt>
      <trkpt lat="48.64565" lon="2.0927">
        <ele>154.8</ele>
        <time>2023-03-05T14:40:03Z</time>
      </trkpt>
      <trkpt lat="48.64565" lon="2.09266">
        <ele>154.8</ele>
        <time>2023-03-05T14:40:05Z</time>
      </trkpt>
      <trkpt lat="48.64565" lon="2.09262">
        <ele>154.8</ele>
        <time>2023-03-05T14:40:07Z</time>
      </trkpt>
      <trkpt lat="48.64566" lon="2.09257">
        <ele>154.6</ele>
        <time>2023-03-05T14:40:09Z</time>
      </trkpt>
      <trkpt lat="48.64566" lon="2.09252">
        <ele>154.8</ele>
        <time>2023-03-05T14:40:11Z</time>
      </trkpt>
      <trkpt lat="48.64568" lon="2.09248">
        <ele>154.8</ele>
        <time>2023-03-05T14:40:13Z</time>
      </trkpt>
      <trkpt lat="48.64569" lon="2.09244">
        <ele>154.6</ele>
        <time>2023-03-05T14:40:15Z</time>
      </trkpt>
      <trkpt lat="48.6457" lon="2.0924">
        <ele>154.6</ele>
        <time>2023-03-05T14:40:17Z</time>
      </trkpt>
      <trkpt lat="48.6457" lon="2.09236">
        <ele>154.4</ele>
        <time>2023-03-05T14:40:19Z</time>
      </trkpt>
      <trkpt lat="48.64571" lon="2.09233">
        <ele>154.4</ele>
        <time>2023-03-05T14:40:21Z</time>
      </trkpt>
      <trkpt lat="48.64572" lon="2.09229">
        <ele>154.4</ele>
        <time>2023-03-05T14:40:23Z</time>
      </trkpt>
      <trkpt lat="48.64572" lon="2.09226">
        <ele>154.4</ele>
        <time>2023-03-05T14:40:25Z</time>
      </trkpt>
      <trkpt lat="48.64572" lon="2.09223">
        <ele>154.4</ele>
        <time>2023-03-05T14:40:28Z</time>
      </trkpt>
      <trkpt lat="48.64572" lon="2.0922">
        <ele>154.4</ele>
        <time>2023-03-05T14:40:30Z</time>
      </trkpt>
      <trkpt lat="48.64573" lon="2.09216">
        <ele>154.4</ele>
        <time>2023-03-05T14:40:32Z</time>
      </trkpt>
      <trkpt lat="48.64573" lon="2.09213">
        <ele>154.2</ele>
        <time>2023-03-05T14:40:34Z</time>
      </trkpt>
      <trkpt lat="48.64572" lon="2.09209">
        <ele>154.2</ele>
        <time>2023-03-05T14:40:37Z</time>
      </trkpt>
      <trkpt lat="48.64572" lon="2.09206">
        <ele>154</ele>
        <time>2023-03-05T14:40:40Z</time>
      </trkpt>
      <trkpt lat="48.64572" lon="2.09202">
        <ele>154</ele>
        <time>2023-03-05T14:40:43Z</time>
      </trkpt>
      <trkpt lat="48.64572" lon="2.09199">
        <ele>153.8</ele>
        <time>2023-03-05T14:40:45Z</time>
      </trkpt>
      <trkpt lat="48.64573" lon="2.09196">
        <ele>153.6</ele>
        <time>2023-03-05T14:40:47Z</time>
      </trkpt>
      <trkpt lat="48.64573" lon="2.09193">
        <ele>153.6</ele>
        <time>2023-03-05T14:40:49Z</time>
      </trkpt>
      <trkpt lat="48.64574" lon="2.09189">
        <ele>153.8</ele>
        <time>2023-03-05T14:40:51Z</time>
      </trkpt>
      <trkpt lat="48.64574" lon="2.09185">
        <ele>154</ele>
        <time>2023-03-05T14:40:53Z</time>
      </trkpt>
      <trkpt lat="48.64576" lon="2.0918">
        <ele>154.4</ele>
        <time>2023-03-05T14:40:55Z</time>
      </trkpt>
      <trkpt lat="48.64577" lon="2.09175">
        <ele>154.6</ele>
        <time>2023-03-05T14:40:57Z</time>
      </trkpt>
      <trkpt lat="48.64578" lon="2.09171">
        <ele>154.8</ele>
        <time>2023-03-05T14:40:59Z</time>
      </trkpt>
      <trkpt lat="48.64578" lon="2.09167">
        <ele>155</ele>
        <time>2023-03-05T14:41:01Z</time>
      </trkpt>
      <trkpt lat="48.64578" lon="2.09164">
        <ele>155.2</ele>
        <time>2023-03-05T14:41:03Z</time>
      </trkpt>
      <trkpt lat="48.64578" lon="2.0916">
        <ele>155.4</ele>
        <time>2023-03-05T14:41:05Z</time>
      </trkpt>
      <trkpt lat="48.64578" lon="2.09156">
        <ele>155.6</ele>
        <time>2023-03-05T14:41:07Z</time>
      </trkpt>
      <trkpt lat="48.64578" lon="2.09152">
        <ele>155.8</ele>
        <time>2023-03-05T14:41:09Z</time>
      </trkpt>
      <trkpt lat="48.64578" lon="2.09149">
        <ele>156</ele>
        <time>2023-03-05T14:41:11Z</time>
      </trkpt>
      <trkpt lat="48.64578" lon="2.09146">
        <ele>156</ele>
        <time>2023-03-05T14:41:13Z</time>
      </trkpt>
      <trkpt lat="48.64578" lon="2.09143">
        <ele>156.2</ele>
        <time>2023-03-05T14:41:15Z</time>
      </trkpt>
      <trkpt lat="48.64579" lon="2.09139">
        <ele>156.4</ele>
        <time>2023-03-05T14:41:18Z</time>
      </trkpt>
      <trkpt lat="48.64579" lon="2.09136">
        <ele>156.6</ele>
        <time>2023-03-05T14:41:21Z</time>
      </trkpt>
      <trkpt lat="48.64579" lon="2.09133">
        <ele>156.8</ele>
        <time>2023-03-05T14:41:25Z</time>
      </trkpt>
      <trkpt lat="48.64579" lon="2.09129">
        <ele>156.8</ele>
        <time>2023-03-05T14:41:30Z</time>
      </trkpt>
      <trkpt lat="48.6458" lon="2.09126">
        <ele>156.8</ele>
        <time>2023-03-05T14:41:32Z</time>
      </trkpt>
      <trkpt lat="48.6458" lon="2.09122">
        <ele>156.8</ele>
        <time>2023-03-05T14:41:34Z</time>
      </trkpt>
      <trkpt lat="48.64581" lon="2.09118">
        <ele>156.6</ele>
        <time>2023-03-05T14:41:36Z</time>
      </trkpt>
      <trkpt lat="48.64582" lon="2.09115">
        <ele>156.6</ele>
        <time>2023-03-05T14:41:38Z</time>
      </trkpt>
      <trkpt lat="48.64584" lon="2.09114">
        <ele>156.4</ele>
        <time>2023-03-05T14:41:40Z</time>
      </trkpt>
      <trkpt lat="48.64586" lon="2.09112">
        <ele>156</ele>
        <time>2023-03-05T14:41:42Z</time>
      </trkpt>
      <trkpt lat="48.64588" lon="2.0911">
        <ele>155.8</ele>
        <time>2023-03-05T14:41:44Z</time>
      </trkpt>
      <trkpt lat="48.64589" lon="2.09108">
        <ele>155.4</ele>
        <time>2023-03-05T14:41:46Z</time>
      </trkpt>
      <trkpt lat="48.64592" lon="2.09106">
        <ele>154.8</ele>
        <time>2023-03-05T14:41:49Z</time>
      </trkpt>
      <trkpt lat="48.64594" lon="2.09105">
        <ele>154.2</ele>
        <time>2023-03-05T14:41:52Z</time>
      </trkpt>
      <trkpt lat="48.64596" lon="2.09104">
        <ele>153.8</ele>
        <time>2023-03-05T14:41:54Z</time>
      </trkpt>
      <trkpt lat="48.64599" lon="2.09103">
        <ele>153.2</ele>
        <time>2023-03-05T14:41:56Z</time>
      </trkpt>
      <trkpt lat="48.646" lon="2.09102">
        <ele>152.8</ele>
        <time>2023-03-05T14:41:58Z</time>
      </trkpt>
      <trkpt lat="48.64602" lon="2.09099">
        <ele>152.4</ele>
        <time>2023-03-05T14:42:00Z</time>
      </trkpt>
      <trkpt lat="48.64604" lon="2.09096">
        <ele>151.8</ele>
        <time>2023-03-05T14:42:02Z</time>
      </trkpt>
      <trkpt lat="48.64604" lon="2.09093">
        <ele>151.2</ele>
        <time>2023-03-05T14:42:04Z</time>
      </trkpt>
      <trkpt lat="48.64606" lon="2.0909">
        <ele>150.8</ele>
        <time>2023-03-05T14:42:06Z</time>
      </trkpt>
      <trkpt lat="48.64608" lon="2.09087">
        <ele>150.4</ele>
        <time>2023-03-05T14:42:08Z</time>
      </trkpt>
      <trkpt lat="48.6461" lon="2.09084">
        <ele>150.2</ele>
        <time>2023-03-05T14:42:10Z</time>
      </trkpt>
      <trkpt lat="48.64612" lon="2.09081">
        <ele>150</ele>
        <time>2023-03-05T14:42:12Z</time>
      </trkpt>
      <trkpt lat="48.64614" lon="2.09078">
        <ele>149.6</ele>
        <time>2023-03-05T14:42:14Z</time>
      </trkpt>
      <trkpt lat="48.64616" lon="2.09075">
        <ele>149.2</ele>
        <time>2023-03-05T14:42:16Z</time>
      </trkpt>
      <trkpt lat="48.64618" lon="2.09073">
        <ele>148.8</ele>
        <time>2023-03-05T14:42:18Z</time>
      </trkpt>
      <trkpt lat="48.6462" lon="2.0907">
        <ele>148.4</ele>
        <time>2023-03-05T14:42:20Z</time>
      </trkpt>
      <trkpt lat="48.64622" lon="2.09067">
        <ele>147.8</ele>
        <time>2023-03-05T14:42:22Z</time>
      </trkpt>
      <trkpt lat="48.64625" lon="2.09064">
        <ele>147.4</ele>
        <time>2023-03-05T14:42:24Z</time>
      </trkpt>
      <trkpt lat="48.64627" lon="2.09062">
        <ele>147</ele>
        <time>2023-03-05T14:42:26Z</time>
      </trkpt>
      <trkpt lat="48.64628" lon="2.0906">
        <ele>146.8</ele>
        <time>2023-03-05T14:42:28Z</time>
      </trkpt>
      <trkpt lat="48.6463" lon="2.09057">
        <ele>146.8</ele>
        <time>2023-03-05T14:42:30Z</time>
      </trkpt>
      <trkpt lat="48.64631" lon="2.09055">
        <ele>146.6</ele>
        <time>2023-03-05T14:42:32Z</time>
      </trkpt>
      <trkpt lat="48.64633" lon="2.09052">
        <ele>146.4</ele>
        <time>2023-03-05T14:42:35Z</time>
      </trkpt>
      <trkpt lat="48.64634" lon="2.0905">
        <ele>146.4</ele>
        <time>2023-03-05T14:42:37Z</time>
      </trkpt>
      <trkpt lat="48.64636" lon="2.09046">
        <ele>146.2</ele>
        <time>2023-03-05T14:42:39Z</time>
      </trkpt>
      <trkpt lat="48.64638" lon="2.09042">
        <ele>146</ele>
        <time>2023-03-05T14:42:41Z</time>
      </trkpt>
      <trkpt lat="48.64639" lon="2.09039">
        <ele>146</ele>
        <time>2023-03-05T14:42:42Z</time>
      </trkpt>
      <trkpt lat="48.6464" lon="2.09037">
        <ele>146</ele>
        <time>2023-03-05T14:42:43Z</time>
      </trkpt>
      <trkpt lat="48.64641" lon="2.09034">
        <ele>145.8</ele>
        <time>2023-03-05T14:42:44Z</time>
      </trkpt>
      <trkpt lat="48.64642" lon="2.09032">
        <ele>145.8</ele>
        <time>2023-03-05T14:42:45Z</time>
      </trkpt>
      <trkpt lat="48.64643" lon="2.0903">
        <ele>145.8</ele>
        <time>2023-03-05T14:42:46Z</time>
      </trkpt>
      <trkpt lat="48.64644" lon="2.09027">
        <ele>145.8</ele>
        <time>2023-03-05T14:42:47Z</time>
      </trkpt>
      <trkpt lat="48.64646" lon="2.09024">
        <ele>146</ele>
        <time>2023-03-05T14:42:49Z</time>
      </trkpt>
      <trkpt lat="48.64648" lon="2.09021">
        <ele>146</ele>
        <time>2023-03-05T14:42:51Z</time>
      </trkpt>
      <trkpt lat="48.64649" lon="2.0902">
        <ele>146</ele>
        <time>2023-03-05T14:42:52Z</time>
      </trkpt>
      <trkpt lat="48.64652" lon="2.09017">
        <ele>146.2</ele>
        <time>2023-03-05T14:42:54Z</time>
      </trkpt>
      <trkpt lat="48.64654" lon="2.09016">
        <ele>146.2</ele>
        <time>2023-03-05T14:42:56Z</time>
      </trkpt>
      <trkpt lat="48.64656" lon="2.09014">
        <ele>146.2</ele>
        <time>2023-03-05T14:42:59Z</time>
      </trkpt>
      <trkpt lat="48.64658" lon="2.09013">
        <ele>146.2</ele>
        <time>2023-03-05T14:43:03Z</time>
      </trkpt>
      <trkpt lat="48.6466" lon="2.09012">
        <ele>146.4</ele>
        <time>2023-03-05T14:43:05Z</time>
      </trkpt>
      <trkpt lat="48.64662" lon="2.0901">
        <ele>146.4</ele>
        <time>2023-03-05T14:43:07Z</time>
      </trkpt>
      <trkpt lat="48.64664" lon="2.09008">
        <ele>146.6</ele>
        <time>2023-03-05T14:43:09Z</time>
      </trkpt>
      <trkpt lat="48.64666" lon="2.09006">
        <ele>146.8</ele>
        <time>2023-03-05T14:43:11Z</time>
      </trkpt>
      <trkpt lat="48.64668" lon="2.09004">
        <ele>147.2</ele>
        <time>2023-03-05T14:43:13Z</time>
      </trkpt>
      <trkpt lat="48.6467" lon="2.09003">
        <ele>147.4</ele>
        <time>2023-03-05T14:43:15Z</time>
      </trkpt>
      <trkpt lat="48.64673" lon="2.09002">
        <ele>147.6</ele>
        <time>2023-03-05T14:43:17Z</time>
      </trkpt>
      <trkpt lat="48.64676" lon="2.09001">
        <ele>148</ele>
        <time>2023-03-05T14:43:19Z</time>
      </trkpt>
      <trkpt lat="48.64679" lon="2.09">
        <ele>148.4</ele>
        <time>2023-03-05T14:43:21Z</time>
      </trkpt>
      <trkpt lat="48.64681" lon="2.08998">
        <ele>149</ele>
        <time>2023-03-05T14:43:23Z</time>
      </trkpt>
      <trkpt lat="48.64683" lon="2.08997">
        <ele>149.4</ele>
        <time>2023-03-05T14:43:25Z</time>
      </trkpt>
      <trkpt lat="48.64685" lon="2.08996">
        <ele>150</ele>
        <time>2023-03-05T14:43:27Z</time>
      </trkpt>
      <trkpt lat="48.64688" lon="2.08994">
        <ele>150.4</ele>
        <time>2023-03-05T14:43:29Z</time>
      </trkpt>
      <trkpt lat="48.64691" lon="2.08994">
        <ele>150.6</ele>
        <time>2023-03-05T14:43:31Z</time>
      </trkpt>
      <trkpt lat="48.64694" lon="2.08994">
        <ele>150.8</ele>
        <time>2023-03-05T14:43:33Z</time>
      </trkpt>
      <trkpt lat="48.64697" lon="2.08994">
        <ele>151.2</ele>
        <time>2023-03-05T14:43:35Z</time>
      </trkpt>
      <trkpt lat="48.64699" lon="2.08995">
        <ele>151.4</ele>
        <time>2023-03-05T14:43:37Z</time>
      </trkpt>
      <trkpt lat="48.64701" lon="2.08995">
        <ele>151.6</ele>
        <time>2023-03-05T14:43:39Z</time>
      </trkpt>
      <trkpt lat="48.64703" lon="2.08995">
        <ele>151.8</ele>
        <time>2023-03-05T14:43:41Z</time>
      </trkpt>
      <trkpt lat="48.64705" lon="2.08994">
        <ele>152</ele>
        <time>2023-03-05T14:43:43Z</time>
      </trkpt>
      <trkpt lat="48.64707" lon="2.08994">
        <ele>152.4</ele>
        <time>2023-03-05T14:43:45Z</time>
      </trkpt>
      <trkpt lat="48.64709" lon="2.08993">
        <ele>152.8</ele>
        <time>2023-03-05T14:43:47Z</time>
      </trkpt>
      <trkpt lat="48.64711" lon="2.08991">
        <ele>153.2</ele>
        <time>2023-03-05T14:43:49Z</time>
      </trkpt>
      <trkpt lat="48.64713" lon="2.0899">
        <ele>153.8</ele>
        <time>2023-03-05T14:43:51Z</time>
      </trkpt>
      <trkpt lat="48.64716" lon="2.08989">
        <ele>154.2</ele>
        <time>2023-03-05T14:43:53Z</time>
      </trkpt>
      <trkpt lat="48.64719" lon="2.0899">
        <ele>154.6</ele>
        <time>2023-03-05T14:43:55Z</time>
      </trkpt>
      <trkpt lat="48.64721" lon="2.0899">
        <ele>155</ele>
        <time>2023-03-05T14:43:56Z</time>
      </trkpt>
      <trkpt lat="48.64724" lon="2.08989">
        <ele>155.4</ele>
        <time>2023-03-05T14:43:58Z</time>
      </trkpt>
      <trkpt lat="48.64727" lon="2.08988">
        <ele>156</ele>
        <time>2023-03-05T14:44:00Z</time>
      </trkpt>
      <trkpt lat="48.6473" lon="2.08988">
        <ele>156.4</ele>
        <time>2023-03-05T14:44:02Z</time>
      </trkpt>
      <trkpt lat="48.64732" lon="2.08989">
        <ele>157</ele>
        <time>2023-03-05T14:44:04Z</time>
      </trkpt>
      <trkpt lat="48.64735" lon="2.0899">
        <ele>157.6</ele>
        <time>2023-03-05T14:44:06Z</time>
      </trkpt>
      <trkpt lat="48.64738" lon="2.08992">
        <ele>158</ele>
        <time>2023-03-05T14:44:08Z</time>
      </trkpt>
      <trkpt lat="48.6474" lon="2.08994">
        <ele>158.4</ele>
        <time>2023-03-05T14:44:10Z</time>
      </trkpt>
      <trkpt lat="48.64743" lon="2.08997">
        <ele>158.8</ele>
        <time>2023-03-05T14:44:12Z</time>
      </trkpt>
      <trkpt lat="48.64746" lon="2.08999">
        <ele>159</ele>
        <time>2023-03-05T14:44:14Z</time>
      </trkpt>
      <trkpt lat="48.64748" lon="2.09001">
        <ele>159.4</ele>
        <time>2023-03-05T14:44:16Z</time>
      </trkpt>
      <trkpt lat="48.64751" lon="2.09002">
        <ele>160</ele>
        <time>2023-03-05T14:44:20Z</time>
      </trkpt>
      <trkpt lat="48.64753" lon="2.09003">
        <ele>160.6</ele>
        <time>2023-03-05T14:44:23Z</time>
      </trkpt>
      <trkpt lat="48.64755" lon="2.09003">
        <ele>161</ele>
        <time>2023-03-05T14:44:25Z</time>
      </trkpt>
      <trkpt lat="48.64757" lon="2.09003">
        <ele>161.4</ele>
        <time>2023-03-05T14:44:27Z</time>
      </trkpt>
      <trkpt lat="48.64759" lon="2.09001">
        <ele>161.8</ele>
        <time>2023-03-05T14:44:29Z</time>
      </trkpt>
      <trkpt lat="48.64763" lon="2.08999">
        <ele>162.4</ele>
        <time>2023-03-05T14:44:31Z</time>
      </trkpt>
      <trkpt lat="48.64765" lon="2.08998">
        <ele>162.8</ele>
        <time>2023-03-05T14:44:33Z</time>
      </trkpt>
      <trkpt lat="48.64767" lon="2.08996">
        <ele>163.4</ele>
        <time>2023-03-05T14:44:35Z</time>
      </trkpt>
      <trkpt lat="48.64769" lon="2.08994">
        <ele>163.8</ele>
        <time>2023-03-05T14:44:37Z</time>
      </trkpt>
      <trkpt lat="48.64771" lon="2.08992">
        <ele>164.4</ele>
        <time>2023-03-05T14:44:39Z</time>
      </trkpt>
      <trkpt lat="48.64773" lon="2.08989">
        <ele>164.6</ele>
        <time>2023-03-05T14:44:41Z</time>
      </trkpt>
      <trkpt lat="48.64776" lon="2.08987">
        <ele>165</ele>
        <time>2023-03-05T14:44:43Z</time>
      </trkpt>
      <trkpt lat="48.64779" lon="2.08984">
        <ele>165.2</ele>
        <time>2023-03-05T14:44:45Z</time>
      </trkpt>
      <trkpt lat="48.64781" lon="2.08982">
        <ele>165.4</ele>
        <time>2023-03-05T14:44:46Z</time>
      </trkpt>
      <trkpt lat="48.64783" lon="2.0898">
        <ele>165.4</ele>
        <time>2023-03-05T14:44:47Z</time>
      </trkpt>
      <trkpt lat="48.64785" lon="2.08978">
        <ele>165.6</ele>
        <time>2023-03-05T14:44:48Z</time>
      </trkpt>
      <trkpt lat="48.64787" lon="2.08976">
        <ele>165.8</ele>
        <time>2023-03-05T14:44:49Z</time>
      </trkpt>
      <trkpt lat="48.64789" lon="2.08974">
        <ele>165.8</ele>
        <time>2023-03-05T14:44:50Z</time>
        <extensions>
          <gpxtpx:TrackPointExtension xmlns:gpxtpx="http://www.garmin.com/xmlschemas/TrackPointExtension/v1">
            <gpxtpx:hr>117</gpxtpx:hr>
          </gpxtpx:TrackPointExtension>
        </extensions>
      </trkpt>
      <trkpt lat="48.64792" lon="2.08972">
        <ele>166</ele>
        <time>2023-03-05T14:44:51Z</time>
        <extensions>
          <gpxtpx:TrackPointExtension xmlns:gpxtpx="http://www.garmin.com/xmlschemas/TrackPointExtension/v1">
            <gpxtpx:hr>117</gpxtpx:hr>
          </gpxtpx:TrackPointExtension>
        </extensions>
      </trkpt>
      <trkpt lat="48.64795" lon="2.0897">
        <ele>166.2</ele>
        <time>2023-03-05T14:44:52Z</time>
        <extensions>
          <gpxtpx:TrackPointExtension xmlns:gpxtpx="http://www.garmin.com/xmlschemas/TrackPointExtension/v1">
            <gpxtpx:hr>117</gpxtpx:hr>
          </gpxtpx:TrackPointExtension>
        </extensions>
      </trkpt>
      <trkpt lat="48.64797" lon="2.08968">
        <ele>166.4</ele>
        <time>2023-03-05T14:44:53Z</time>
        <extensions>
          <gpxtpx:TrackPointExtension xmlns:gpxtpx="http://www.garmin.com/xmlschemas/TrackPointExtension/v1">
            <gpxtpx:hr>117</gpxtpx:hr>
          </gpxtpx:TrackPointExtension>
        </extensions>
      </trkpt>
      <trkpt lat="48.648" lon="2.08966">
        <ele>166.4</ele>
        <time>2023-03-05T14:44:54Z</time>
        <extensions>
          <gpxtpx:TrackPointExtension xmlns:gpxtpx="http://www.garmin.com/xmlschemas/TrackPointExtension/v1">
            <gpxtpx:hr>116</gpxtpx:hr>
          </gpxtpx:TrackPointExtension>
        </extensions>
      </trkpt>
      <trkpt lat="48.64803" lon="2.08964">
        <ele>166.6</ele>
        <time>2023-03-05T14:44:55Z</time>
        <extensions>
          <gpxtpx:TrackPointExtension xmlns:gpxtpx="http://www.garmin.com/xmlschemas/TrackPointExtension/v1">
            <gpxtpx:hr>116</gpxtpx:hr>
          </gpxtpx:TrackPointExtension>
        </extensions>
      </trkpt>
      <trkpt lat="48.64806" lon="2.08963">
        <ele>166.6</ele>
        <time>2023-03-05T14:44:56Z</time>
        <extensions>
          <gpxtpx:TrackPointExtension xmlns:gpxtpx="http://www.garmin.com/xmlschemas/TrackPointExtension/v1">
            <gpxtpx:hr>115</gpxtpx:hr>
          </gpxtpx:TrackPointExtension>
        </extensions>
      </trkpt>
      <trkpt lat="48.64808" lon="2.08961">
        <ele>166.8</ele>
        <time>2023-03-05T14:44:57Z</time>
        <extensions>
          <gpxtpx:TrackPointExtension xmlns:gpxtpx="http://www.garmin.com/xmlschemas/TrackPointExtension/v1">
            <gpxtpx:hr>113</gpxtpx:hr>
          </gpxtpx:TrackPointExtension>
        </extensions>
      </trkpt>
      <trkpt lat="48.64811" lon="2.0896">
        <ele>167</ele>
        <time>2023-03-05T14:44:58Z</time>
        <extensions>
          <gpxtpx:TrackPointExtension xmlns:gpxtpx="http://www.garmin.com/xmlschemas/TrackPointExtension/v1">
            <gpxtpx:hr>110</gpxtpx:hr>
          </gpxtpx:TrackPointExtension>
        </extensions>
      </trkpt>
      <trkpt lat="48.64813" lon="2.08959">
        <ele>167</ele>
        <time>2023-03-05T14:44:59Z</time>
        <extensions>
          <gpxtpx:TrackPointExtension xmlns:gpxtpx="http://www.garmin.com/xmlschemas/TrackPointExtension/v1">
            <gpxtpx:hr>108</gpxtpx:hr>
          </gpxtpx:TrackPointExtension>
        </extensions>
      </trkpt>
      <trkpt lat="48.64816" lon="2.08958">
        <ele>167</ele>
        <time>2023-03-05T14:45:00Z</time>
        <extensions>
          <gpxtpx:TrackPointExtension xmlns:gpxtpx="http://www.garmin.com/xmlschemas/TrackPointExtension/v1">
            <gpxtpx:hr>106</gpxtpx:hr>
          </gpxtpx:TrackPointExtension>
        </extensions>
      </trkpt>
      <trkpt lat="48.64818" lon="2.08958">
        <ele>167.2</ele>
        <time>2023-03-05T14:45:01Z</time>
        <extensions>
          <gpxtpx:TrackPointExtension xmlns:gpxtpx="http://www.garmin.com/xmlschemas/TrackPointExtension/v1">
            <gpxtpx:hr>102</gpxtpx:hr>
          </gpxtpx:TrackPointExtension>
        </extensions>
      </trkpt>
      <trkpt lat="48.64821" lon="2.08957">
        <ele>167.2</ele>
        <time>2023-03-05T14:45:02Z</time>
        <extensions>
          <gpxtpx:TrackPointExtension xmlns:gpxtpx="http://www.garmin.com/xmlschemas/TrackPointExtension/v1">
            <gpxtpx:hr>100</gpxtpx:hr>
          </gpxtpx:TrackPointExtension>
        </extensions>
      </trkpt>
      <trkpt lat="48.64824" lon="2.08957">
        <ele>167.4</ele>
        <time>2023-03-05T14:45:03Z</time>
        <extensions>
          <gpxtpx:TrackPointExtension xmlns:gpxtpx="http://www.garmin.com/xmlschemas/TrackPointExtension/v1">
            <gpxtpx:hr>98</gpxtpx:hr>
          </gpxtpx:TrackPointExtension>
        </extensions>
      </trkpt>
      <trkpt lat="48.64826" lon="2.08956">
        <ele>167.4</ele>
        <time>2023-03-05T14:45:04Z</time>
        <extensions>
          <gpxtpx:TrackPointExtension xmlns:gpxtpx="http://www.garmin.com/xmlschemas/TrackPointExtension/v1">
            <gpxtpx:hr>98</gpxtpx:hr>
          </gpxtpx:TrackPointExtension>
        </extensions>
      </trkpt>
      <trkpt lat="48.64829" lon="2.08956">
        <ele>167.4</ele>
        <time>2023-03-05T14:45:05Z</time>
        <extensions>
          <gpxtpx:TrackPointExtension xmlns:gpxtpx="http://www.garmin.com/xmlschemas/TrackPointExtension/v1">
            <gpxtpx:hr>98</gpxtpx:hr>
          </gpxtpx:TrackPointExtension>
        </extensions>
      </trkpt>
      <trkpt lat="48.64832" lon="2.08955">
        <ele>167.6</ele>
        <time>2023-03-05T14:45:06Z</time>
        <extensions>
          <gpxtpx:TrackPointExtension xmlns:gpxtpx="http://www.garmin.com/xmlschemas/TrackPointExtension/v1">
            <gpxtpx:hr>98</gpxtpx:hr>
          </gpxtpx:TrackPointExtension>
        </extensions>
      </trkpt>
      <trkpt lat="48.64834" lon="2.08954">
        <ele>167.6</ele>
        <time>2023-03-05T14:45:07Z</time>
        <extensions>
          <gpxtpx:TrackPointExtension xmlns:gpxtpx="http://www.garmin.com/xmlschemas/TrackPointExtension/v1">
            <gpxtpx:hr>98</gpxtpx:hr>
          </gpxtpx:TrackPointExtension>
        </extensions>
      </trkpt>
      <trkpt lat="48.64837" lon="2.08954">
        <ele>167.8</ele>
        <time>2023-03-05T14:45:08Z</time>
        <extensions>
          <gpxtpx:TrackPointExtension xmlns:gpxtpx="http://www.garmin.com/xmlschemas/TrackPointExtension/v1">
            <gpxtpx:hr>99</gpxtpx:hr>
          </gpxtpx:TrackPointExtension>
        </extensions>
      </trkpt>
      <trkpt lat="48.6484" lon="2.08953">
        <ele>168</ele>
        <time>2023-03-05T14:45:09Z</time>
        <extensions>
          <gpxtpx:TrackPointExtension xmlns:gpxtpx="http://www.garmin.com/xmlschemas/TrackPointExtension/v1">
            <gpxtpx:hr>99</gpxtpx:hr>
          </gpxtpx:TrackPointExtension>
        </extensions>
      </trkpt>
      <trkpt lat="48.64842" lon="2.08952">
        <ele>168.2</ele>
        <time>2023-03-05T14:45:10Z</time>
        <extensions>
          <gpxtpx:TrackPointExtension xmlns:gpxtpx="http://www.garmin.com/xmlschemas/TrackPointExtension/v1">
            <gpxtpx:hr>99</gpxtpx:hr>
          </gpxtpx:TrackPointExtension>
        </extensions>
      </trkpt>
      <trkpt lat="48.64844" lon="2.08951">
        <ele>168.2</ele>
        <time>2023-03-05T14:45:11Z</time>
        <extensions>
          <gpxtpx:TrackPointExtension xmlns:gpxtpx="http://www.garmin.com/xmlschemas/TrackPointExtension/v1">
            <gpxtpx:hr>100</gpxtpx:hr>
          </gpxtpx:TrackPointExtension>
        </extensions>
      </trkpt>
      <trkpt lat="48.64847" lon="2.0895">
        <ele>168.4</ele>
        <time>2023-03-05T14:45:12Z</time>
        <extensions>
          <gpxtpx:TrackPointExtension xmlns:gpxtpx="http://www.garmin.com/xmlschemas/TrackPointExtension/v1">
            <gpxtpx:hr>100</gpxtpx:hr>
          </gpxtpx:TrackPointExtension>
        </extensions>
      </trkpt>
      <trkpt lat="48.6485" lon="2.0895">
        <ele>168.6</ele>
        <time>2023-03-05T14:45:13Z</time>
        <extensions>
          <gpxtpx:TrackPointExtension xmlns:gpxtpx="http://www.garmin.com/xmlschemas/TrackPointExtension/v1">
            <gpxtpx:hr>100</gpxtpx:hr>
          </gpxtpx:TrackPointExtension>
        </extensions>
      </trkpt>
      <trkpt lat="48.64852" lon="2.08949">
        <ele>168.6</ele>
        <time>2023-03-05T14:45:14Z</time>
        <extensions>
          <gpxtpx:TrackPointExtension xmlns:gpxtpx="http://www.garmin.com/xmlschemas/TrackPointExtension/v1">
            <gpxtpx:hr>101</gpxtpx:hr>
          </gpxtpx:TrackPointExtension>
        </extensions>
      </trkpt>
      <trkpt lat="48.64855" lon="2.08949">
        <ele>168.8</ele>
        <time>2023-03-05T14:45:15Z</time>
        <extensions>
          <gpxtpx:TrackPointExtension xmlns:gpxtpx="http://www.garmin.com/xmlschemas/TrackPointExtension/v1">
            <gpxtpx:hr>101</gpxtpx:hr>
          </gpxtpx:TrackPointExtension>
        </extensions>
      </trkpt>
      <trkpt lat="48.64858" lon="2.08949">
        <ele>169</ele>
        <time>2023-03-05T14:45:16Z</time>
        <extensions>
          <gpxtpx:TrackPointExtension xmlns:gpxtpx="http://www.garmin.com/xmlschemas/TrackPointExtension/v1">
            <gpxtpx:hr>101</gpxtpx:hr>
          </gpxtpx:TrackPointExtension>
        </extensions>
      </trkpt>
      <trkpt lat="48.64861" lon="2.08949">
        <ele>169</ele>
        <time>2023-03-05T14:45:17Z</time>
        <extensions>
          <gpxtpx:TrackPointExtension xmlns:gpxtpx="http://www.garmin.com/xmlschemas/TrackPointExtension/v1">
            <gpxtpx:hr>102</gpxtpx:hr>
          </gpxtpx:TrackPointExtension>
        </extensions>
      </trkpt>
      <trkpt lat="48.64864" lon="2.08949">
        <ele>169.2</ele>
        <time>2023-03-05T14:45:18Z</time>
        <extensions>
          <gpxtpx:TrackPointExtension xmlns:gpxtpx="http://www.garmin.com/xmlschemas/TrackPointExtension/v1">
            <gpxtpx:hr>102</gpxtpx:hr>
          </gpxtpx:TrackPointExtension>
        </extensions>
      </trkpt>
      <trkpt lat="48.64866" lon="2.08949">
        <ele>169.2</ele>
        <time>2023-03-05T14:45:19Z</time>
        <extensions>
          <gpxtpx:TrackPointExtension xmlns:gpxtpx="http://www.garmin.com/xmlschemas/TrackPointExtension/v1">
            <gpxtpx:hr>102</gpxtpx:hr>
          </gpxtpx:TrackPointExtension>
        </extensions>
      </trkpt>
      <trkpt lat="48.64869" lon="2.08949">
        <ele>169.4</ele>
        <time>2023-03-05T14:45:20Z</time>
        <extensions>
          <gpxtpx:TrackPointExtension xmlns:gpxtpx="http://www.garmin.com/xmlschemas/TrackPointExtension/v1">
            <gpxtpx:hr>102</gpxtpx:hr>
          </gpxtpx:TrackPointExtension>
        </extensions>
      </trkpt>
      <trkpt lat="48.64872" lon="2.0895">
        <ele>169.6</ele>
        <time>2023-03-05T14:45:21Z</time>
        <extensions>
          <gpxtpx:TrackPointExtension xmlns:gpxtpx="http://www.garmin.com/xmlschemas/TrackPointExtension/v1">
            <gpxtpx:hr>103</gpxtpx:hr>
          </gpxtpx:TrackPointExtension>
        </extensions>
      </trkpt>
      <trkpt lat="48.64875" lon="2.0895">
        <ele>169.6</ele>
        <time>2023-03-05T14:45:22Z</time>
        <extensions>
          <gpxtpx:TrackPointExtension xmlns:gpxtpx="http://www.garmin.com/xmlschemas/TrackPointExtension/v1">
            <gpxtpx:hr>103</gpxtpx:hr>
          </gpxtpx:TrackPointExtension>
        </extensions>
      </trkpt>
      <trkpt lat="48.64877" lon="2.08951">
        <ele>169.6</ele>
        <time>2023-03-05T14:45:23Z</time>
        <extensions>
          <gpxtpx:TrackPointExtension xmlns:gpxtpx="http://www.garmin.com/xmlschemas/TrackPointExtension/v1">
            <gpxtpx:hr>104</gpxtpx:hr>
          </gpxtpx:TrackPointExtension>
        </extensions>
      </trkpt>
      <trkpt lat="48.6488" lon="2.08952">
        <ele>169.8</ele>
        <time>2023-03-05T14:45:24Z</time>
        <extensions>
          <gpxtpx:TrackPointExtension xmlns:gpxtpx="http://www.garmin.com/xmlschemas/TrackPointExtension/v1">
            <gpxtpx:hr>104</gpxtpx:hr>
          </gpxtpx:TrackPointExtension>
        </extensions>
      </trkpt>
      <trkpt lat="48.64883" lon="2.08952">
        <ele>169.8</ele>
        <time>2023-03-05T14:45:25Z</time>
        <extensions>
          <gpxtpx:TrackPointExtension xmlns:gpxtpx="http://www.garmin.com/xmlschemas/TrackPointExtension/v1">
            <gpxtpx:hr>104</gpxtpx:hr>
          </gpxtpx:TrackPointExtension>
        </extensions>
      </trkpt>
      <trkpt lat="48.64885" lon="2.08953">
        <ele>170</ele>
        <time>2023-03-05T14:45:26Z</time>
        <extensions>
          <gpxtpx:TrackPointExtension xmlns:gpxtpx="http://www.garmin.com/xmlschemas/TrackPointExtension/v1">
            <gpxtpx:hr>104</gpxtpx:hr>
          </gpxtpx:TrackPointExtension>
        </extensions>
      </trkpt>
      <trkpt lat="48.64888" lon="2.08954">
        <ele>170</ele>
        <time>2023-03-05T14:45:27Z</time>
        <extensions>
          <gpxtpx:TrackPointExtension xmlns:gpxtpx="http://www.garmin.com/xmlschemas/TrackPointExtension/v1">
            <gpxtpx:hr>105</gpxtpx:hr>
          </gpxtpx:TrackPointExtension>
        </extensions>
      </trkpt>
      <trkpt lat="48.64892" lon="2.08955">
        <ele>170.2</ele>
        <time>2023-03-05T14:45:28Z</time>
        <extensions>
          <gpxtpx:TrackPointExtension xmlns:gpxtpx="http://www.garmin.com/xmlschemas/TrackPointExtension/v1">
            <gpxtpx:hr>105</gpxtpx:hr>
          </gpxtpx:TrackPointExtension>
        </extensions>
      </trkpt>
      <trkpt lat="48.64895" lon="2.08956">
        <ele>170.2</ele>
        <time>2023-03-05T14:45:29Z</time>
        <extensions>
          <gpxtpx:TrackPointExtension xmlns:gpxtpx="http://www.garmin.com/xmlschemas/TrackPointExtension/v1">
            <gpxtpx:hr>105</gpxtpx:hr>
          </gpxtpx:TrackPointExtension>
        </extensions>
      </trkpt>
      <trkpt lat="48.64898" lon="2.08956">
        <ele>170.4</ele>
        <time>2023-03-05T14:45:30Z</time>
        <extensions>
          <gpxtpx:TrackPointExtension xmlns:gpxtpx="http://www.garmin.com/xmlschemas/TrackPointExtension/v1">
            <gpxtpx:hr>106</gpxtpx:hr>
          </gpxtpx:TrackPointExtension>
        </extensions>
      </trkpt>
      <trkpt lat="48.64901" lon="2.08955">
        <ele>170.4</ele>
        <time>2023-03-05T14:45:31Z</time>
        <extensions>
          <gpxtpx:TrackPointExtension xmlns:gpxtpx="http://www.garmin.com/xmlschemas/TrackPointExtension/v1">
            <gpxtpx:hr>106</gpxtpx:hr>
          </gpxtpx:TrackPointExtension>
        </extensions>
      </trkpt>
      <trkpt lat="48.64904" lon="2.08954">
        <ele>170.6</ele>
        <time>2023-03-05T14:45:32Z</time>
        <extensions>
          <gpxtpx:TrackPointExtension xmlns:gpxtpx="http://www.garmin.com/xmlschemas/TrackPointExtension/v1">
            <gpxtpx:hr>106</gpxtpx:hr>
          </gpxtpx:TrackPointExtension>
        </extensions>
      </trkpt>
      <trkpt lat="48.64906" lon="2.08953">
        <ele>170.6</ele>
        <time>2023-03-05T14:45:33Z</time>
        <extensions>
          <gpxtpx:TrackPointExtension xmlns:gpxtpx="http://www.garmin.com/xmlschemas/TrackPointExtension/v1">
            <gpxtpx:hr>106</gpxtpx:hr>
          </gpxtpx:TrackPointExtension>
        </extensions>
      </trkpt>
      <trkpt lat="48.64908" lon="2.08951">
        <ele>170.8</ele>
        <time>2023-03-05T14:45:34Z</time>
        <extensions>
          <gpxtpx:TrackPointExtension xmlns:gpxtpx="http://www.garmin.com/xmlschemas/TrackPointExtension/v1">
            <gpxtpx:hr>106</gpxtpx:hr>
          </gpxtpx:TrackPointExtension>
        </extensions>
      </trkpt>
      <trkpt lat="48.64911" lon="2.08948">
        <ele>170.8</ele>
        <time>2023-03-05T14:45:35Z</time>
        <extensions>
          <gpxtpx:TrackPointExtension xmlns:gpxtpx="http://www.garmin.com/xmlschemas/TrackPointExtension/v1">
            <gpxtpx:hr>106</gpxtpx:hr>
          </gpxtpx:TrackPointExtension>
        </extensions>
      </trkpt>
      <trkpt lat="48.64913" lon="2.08945">
        <ele>171</ele>
        <time>2023-03-05T14:45:36Z</time>
        <extensions>
          <gpxtpx:TrackPointExtension xmlns:gpxtpx="http://www.garmin.com/xmlschemas/TrackPointExtension/v1">
            <gpxtpx:hr>107</gpxtpx:hr>
          </gpxtpx:TrackPointExtension>
        </extensions>
      </trkpt>
      <trkpt lat="48.64916" lon="2.08942">
        <ele>171.2</ele>
        <time>2023-03-05T14:45:37Z</time>
        <extensions>
          <gpxtpx:TrackPointExtension xmlns:gpxtpx="http://www.garmin.com/xmlschemas/TrackPointExtension/v1">
            <gpxtpx:hr>107</gpxtpx:hr>
          </gpxtpx:TrackPointExtension>
        </extensions>
      </trkpt>
      <trkpt lat="48.64917" lon="2.08939">
        <ele>171.2</ele>
        <time>2023-03-05T14:45:38Z</time>
        <extensions>
          <gpxtpx:TrackPointExtension xmlns:gpxtpx="http://www.garmin.com/xmlschemas/TrackPointExtension/v1">
            <gpxtpx:hr>107</gpxtpx:hr>
          </gpxtpx:TrackPointExtension>
        </extensions>
      </trkpt>
      <trkpt lat="48.64919" lon="2.08936">
        <ele>171.4</ele>
        <time>2023-03-05T14:45:39Z</time>
        <extensions>
          <gpxtpx:TrackPointExtension xmlns:gpxtpx="http://www.garmin.com/xmlschemas/TrackPointExtension/v1">
            <gpxtpx:hr>107</gpxtpx:hr>
          </gpxtpx:TrackPointExtension>
        </extensions>
      </trkpt>
      <trkpt lat="48.64921" lon="2.08932">
        <ele>171.6</ele>
        <time>2023-03-05T14:45:40Z</time>
        <extensions>
          <gpxtpx:TrackPointExtension xmlns:gpxtpx="http://www.garmin.com/xmlschemas/TrackPointExtension/v1">
            <gpxtpx:hr>107</gpxtpx:hr>
          </gpxtpx:TrackPointExtension>
        </extensions>
      </trkpt>
      <trkpt lat="48.64922" lon="2.08929">
        <ele>171.8</ele>
        <time>2023-03-05T14:45:41Z</time>
        <extensions>
          <gpxtpx:TrackPointExtension xmlns:gpxtpx="http://www.garmin.com/xmlschemas/TrackPointExtension/v1">
            <gpxtpx:hr>107</gpxtpx:hr>
          </gpxtpx:TrackPointExtension>
        </extensions>
      </trkpt>
      <trkpt lat="48.64924" lon="2.08925">
        <ele>172</ele>
        <time>2023-03-05T14:45:42Z</time>
        <extensions>
          <gpxtpx:TrackPointExtension xmlns:gpxtpx="http://www.garmin.com/xmlschemas/TrackPointExtension/v1">
            <gpxtpx:hr>107</gpxtpx:hr>
          </gpxtpx:TrackPointExtension>
        </extensions>
      </trkpt>
      <trkpt lat="48.64924" lon="2.08921">
        <ele>172.2</ele>
        <time>2023-03-05T14:45:43Z</time>
        <extensions>
          <gpxtpx:TrackPointExtension xmlns:gpxtpx="http://www.garmin.com/xmlschemas/TrackPointExtension/v1">
            <gpxtpx:hr>107</gpxtpx:hr>
          </gpxtpx:TrackPointExtension>
        </extensions>
      </trkpt>
      <trkpt lat="48.64926" lon="2.08917">
        <ele>172.4</ele>
        <time>2023-03-05T14:45:44Z</time>
        <extensions>
          <gpxtpx:TrackPointExtension xmlns:gpxtpx="http://www.garmin.com/xmlschemas/TrackPointExtension/v1">
            <gpxtpx:hr>107</gpxtpx:hr>
          </gpxtpx:TrackPointExtension>
        </extensions>
      </trkpt>
      <trkpt lat="48.64927" lon="2.08912">
        <ele>172.6</ele>
        <time>2023-03-05T14:45:45Z</time>
        <extensions>
          <gpxtpx:TrackPointExtension xmlns:gpxtpx="http://www.garmin.com/xmlschemas/TrackPointExtension/v1">
            <gpxtpx:hr>107</gpxtpx:hr>
          </gpxtpx:TrackPointExtension>
        </extensions>
      </trkpt>
      <trkpt lat="48.64928" lon="2.08908">
        <ele>172.8</ele>
        <time>2023-03-05T14:45:46Z</time>
        <extensions>
          <gpxtpx:TrackPointExtension xmlns:gpxtpx="http://www.garmin.com/xmlschemas/TrackPointExtension/v1">
            <gpxtpx:hr>108</gpxtpx:hr>
          </gpxtpx:TrackPointExtension>
        </extensions>
      </trkpt>
      <trkpt lat="48.64929" lon="2.08903">
        <ele>173</ele>
        <time>2023-03-05T14:45:47Z</time>
        <extensions>
          <gpxtpx:TrackPointExtension xmlns:gpxtpx="http://www.garmin.com/xmlschemas/TrackPointExtension/v1">
            <gpxtpx:hr>108</gpxtpx:hr>
          </gpxtpx:TrackPointExtension>
        </extensions>
      </trkpt>
      <trkpt lat="48.6493" lon="2.08899">
        <ele>173.2</ele>
        <time>2023-03-05T14:45:48Z</time>
        <extensions>
          <gpxtpx:TrackPointExtension xmlns:gpxtpx="http://www.garmin.com/xmlschemas/TrackPointExtension/v1">
            <gpxtpx:hr>108</gpxtpx:hr>
          </gpxtpx:TrackPointExtension>
        </extensions>
      </trkpt>
      <trkpt lat="48.64931" lon="2.08895">
        <ele>173.2</ele>
        <time>2023-03-05T14:45:49Z</time>
        <extensions>
          <gpxtpx:TrackPointExtension xmlns:gpxtpx="http://www.garmin.com/xmlschemas/TrackPointExtension/v1">
            <gpxtpx:hr>108</gpxtpx:hr>
          </gpxtpx:TrackPointExtension>
        </extensions>
      </trkpt>
      <trkpt lat="48.64932" lon="2.08891">
        <ele>173.4</ele>
        <time>2023-03-05T14:45:50Z</time>
        <extensions>
          <gpxtpx:TrackPointExtension xmlns:gpxtpx="http://www.garmin.com/xmlschemas/TrackPointExtension/v1">
            <gpxtpx:hr>108</gpxtpx:hr>
          </gpxtpx:TrackPointExtension>
        </extensions>
      </trkpt>
      <trkpt lat="48.64933" lon="2.08887">
        <ele>173.4</ele>
        <time>2023-03-05T14:45:51Z</time>
        <extensions>
          <gpxtpx:TrackPointExtension xmlns:gpxtpx="http://www.garmin.com/xmlschemas/TrackPointExtension/v1">
            <gpxtpx:hr>109</gpxtpx:hr>
          </gpxtpx:TrackPointExtension>
        </extensions>
      </trkpt>
      <trkpt lat="48.64935" lon="2.08883">
        <ele>173.6</ele>
        <time>2023-03-05T14:45:52Z</time>
        <extensions>
          <gpxtpx:TrackPointExtension xmlns:gpxtpx="http://www.garmin.com/xmlschemas/TrackPointExtension/v1">
            <gpxtpx:hr>109</gpxtpx:hr>
          </gpxtpx:TrackPointExtension>
        </extensions>
      </trkpt>
      <trkpt lat="48.64936" lon="2.08879">
        <ele>173.6</ele>
        <time>2023-03-05T14:45:53Z</time>
        <extensions>
          <gpxtpx:TrackPointExtension xmlns:gpxtpx="http://www.garmin.com/xmlschemas/TrackPointExtension/v1">
            <gpxtpx:hr>109</gpxtpx:hr>
          </gpxtpx:TrackPointExtension>
        </extensions>
      </trkpt>
      <trkpt lat="48.64937" lon="2.08876">
        <ele>173.8</ele>
        <time>2023-03-05T14:45:54Z</time>
        <extensions>
          <gpxtpx:TrackPointExtension xmlns:gpxtpx="http://www.garmin.com/xmlschemas/TrackPointExtension/v1">
            <gpxtpx:hr>109</gpxtpx:hr>
          </gpxtpx:TrackPointExtension>
        </extensions>
      </trkpt>
      <trkpt lat="48.64938" lon="2.08872">
        <ele>173.8</ele>
        <time>2023-03-05T14:45:55Z</time>
        <extensions>
          <gpxtpx:TrackPointExtension xmlns:gpxtpx="http://www.garmin.com/xmlschemas/TrackPointExtension/v1">
            <gpxtpx:hr>109</gpxtpx:hr>
          </gpxtpx:TrackPointExtension>
        </extensions>
      </trkpt>
      <trkpt lat="48.6494" lon="2.08868">
        <ele>174</ele>
        <time>2023-03-05T14:45:56Z</time>
        <extensions>
          <gpxtpx:TrackPointExtension xmlns:gpxtpx="http://www.garmin.com/xmlschemas/TrackPointExtension/v1">
            <gpxtpx:hr>109</gpxtpx:hr>
          </gpxtpx:TrackPointExtension>
        </extensions>
      </trkpt>
      <trkpt lat="48.64941" lon="2.08864">
        <ele>174.2</ele>
        <time>2023-03-05T14:45:57Z</time>
        <extensions>
          <gpxtpx:TrackPointExtension xmlns:gpxtpx="http://www.garmin.com/xmlschemas/TrackPointExtension/v1">
            <gpxtpx:hr>110</gpxtpx:hr>
          </gpxtpx:TrackPointExtension>
        </extensions>
      </trkpt>
      <trkpt lat="48.64942" lon="2.08861">
        <ele>174.4</ele>
        <time>2023-03-05T14:45:58Z</time>
        <extensions>
          <gpxtpx:TrackPointExtension xmlns:gpxtpx="http://www.garmin.com/xmlschemas/TrackPointExtension/v1">
            <gpxtpx:hr>110</gpxtpx:hr>
          </gpxtpx:TrackPointExtension>
        </extensions>
      </trkpt>
      <trkpt lat="48.64944" lon="2.08857">
        <ele>174.4</ele>
        <time>2023-03-05T14:45:59Z</time>
        <extensions>
          <gpxtpx:TrackPointExtension xmlns:gpxtpx="http://www.garmin.com/xmlschemas/TrackPointExtension/v1">
            <gpxtpx:hr>110</gpxtpx:hr>
          </gpxtpx:TrackPointExtension>
        </extensions>
      </trkpt>
      <trkpt lat="48.64946" lon="2.08854">
        <ele>174.6</ele>
        <time>2023-03-05T14:46:00Z</time>
        <extensions>
          <gpxtpx:TrackPointExtension xmlns:gpxtpx="http://www.garmin.com/xmlschemas/TrackPointExtension/v1">
            <gpxtpx:hr>110</gpxtpx:hr>
          </gpxtpx:TrackPointExtension>
        </extensions>
      </trkpt>
      <trkpt lat="48.64948" lon="2.0885">
        <ele>174.8</ele>
        <time>2023-03-05T14:46:01Z</time>
        <extensions>
          <gpxtpx:TrackPointExtension xmlns:gpxtpx="http://www.garmin.com/xmlschemas/TrackPointExtension/v1">
            <gpxtpx:hr>110</gpxtpx:hr>
          </gpxtpx:TrackPointExtension>
        </extensions>
      </trkpt>
      <trkpt lat="48.64949" lon="2.08847">
        <ele>175</ele>
        <time>2023-03-05T14:46:02Z</time>
        <extensions>
          <gpxtpx:TrackPointExtension xmlns:gpxtpx="http://www.garmin.com/xmlschemas/TrackPointExtension/v1">
            <gpxtpx:hr>110</gpxtpx:hr>
          </gpxtpx:TrackPointExtension>
        </extensions>
      </trkpt>
      <trkpt lat="48.64951" lon="2.08844">
        <ele>175</ele>
        <time>2023-03-05T14:46:03Z</time>
        <extensions>
          <gpxtpx:TrackPointExtension xmlns:gpxtpx="http://www.garmin.com/xmlschemas/TrackPointExtension/v1">
            <gpxtpx:hr>110</gpxtpx:hr>
          </gpxtpx:TrackPointExtension>
        </extensions>
      </trkpt>
      <trkpt lat="48.64953" lon="2.0884">
        <ele>175.2</ele>
        <time>2023-03-05T14:46:04Z</time>
        <extensions>
          <gpxtpx:TrackPointExtension xmlns:gpxtpx="http://www.garmin.com/xmlschemas/TrackPointExtension/v1">
            <gpxtpx:hr>110</gpxtpx:hr>
          </gpxtpx:TrackPointExtension>
        </extensions>
      </trkpt>
      <trkpt lat="48.64956" lon="2.08837">
        <ele>175.4</ele>
        <time>2023-03-05T14:46:05Z</time>
        <extensions>
          <gpxtpx:TrackPointExtension xmlns:gpxtpx="http://www.garmin.com/xmlschemas/TrackPointExtension/v1">
            <gpxtpx:hr>110</gpxtpx:hr>
          </gpxtpx:TrackPointExtension>
        </extensions>
      </trkpt>
      <trkpt lat="48.64958" lon="2.08833">
        <ele>175.4</ele>
        <time>2023-03-05T14:46:06Z</time>
        <extensions>
          <gpxtpx:TrackPointExtension xmlns:gpxtpx="http://www.garmin.com/xmlschemas/TrackPointExtension/v1">
            <gpxtpx:hr>111</gpxtpx:hr>
          </gpxtpx:TrackPointExtension>
        </extensions>
      </trkpt>
      <trkpt lat="48.6496" lon="2.0883">
        <ele>175.6</ele>
        <time>2023-03-05T14:46:07Z</time>
        <extensions>
          <gpxtpx:TrackPointExtension xmlns:gpxtpx="http://www.garmin.com/xmlschemas/TrackPointExtension/v1">
            <gpxtpx:hr>111</gpxtpx:hr>
          </gpxtpx:TrackPointExtension>
        </extensions>
      </trkpt>
      <trkpt lat="48.64962" lon="2.08826">
        <ele>175.8</ele>
        <time>2023-03-05T14:46:08Z</time>
        <extensions>
          <gpxtpx:TrackPointExtension xmlns:gpxtpx="http://www.garmin.com/xmlschemas/TrackPointExtension/v1">
            <gpxtpx:hr>111</gpxtpx:hr>
          </gpxtpx:TrackPointExtension>
        </extensions>
      </trkpt>
      <trkpt lat="48.64964" lon="2.08823">
        <ele>175.8</ele>
        <time>2023-03-05T14:46:09Z</time>
        <extensions>
          <gpxtpx:TrackPointExtension xmlns:gpxtpx="http://www.garmin.com/xmlschemas/TrackPointExtension/v1">
            <gpxtpx:hr>111</gpxtpx:hr>
          </gpxtpx:TrackPointExtension>
        </extensions>
      </trkpt>
      <trkpt lat="48.64967" lon="2.0882">
        <ele>176</ele>
        <time>2023-03-05T14:46:10Z</time>
        <extensions>
          <gpxtpx:TrackPointExtension xmlns:gpxtpx="http://www.garmin.com/xmlschemas/TrackPointExtension/v1">
            <gpxtpx:hr>111</gpxtpx:hr>
          </gpxtpx:TrackPointExtension>
        </extensions>
      </trkpt>
      <trkpt lat="48.64969" lon="2.08818">
        <ele>176</ele>
        <time>2023-03-05T14:46:11Z</time>
        <extensions>
          <gpxtpx:TrackPointExtension xmlns:gpxtpx="http://www.garmin.com/xmlschemas/TrackPointExtension/v1">
            <gpxtpx:hr>111</gpxtpx:hr>
          </gpxtpx:TrackPointExtension>
        </extensions>
      </trkpt>
      <trkpt lat="48.6497" lon="2.08815">
        <ele>176</ele>
        <time>2023-03-05T14:46:12Z</time>
        <extensions>
          <gpxtpx:TrackPointExtension xmlns:gpxtpx="http://www.garmin.com/xmlschemas/TrackPointExtension/v1">
            <gpxtpx:hr>111</gpxtpx:hr>
          </gpxtpx:TrackPointExtension>
        </extensions>
      </trkpt>
      <trkpt lat="48.64972" lon="2.08812">
        <ele>176.2</ele>
        <time>2023-03-05T14:46:13Z</time>
        <extensions>
          <gpxtpx:TrackPointExtension xmlns:gpxtpx="http://www.garmin.com/xmlschemas/TrackPointExtension/v1">
            <gpxtpx:hr>111</gpxtpx:hr>
          </gpxtpx:TrackPointExtension>
        </extensions>
      </trkpt>
      <trkpt lat="48.64975" lon="2.08809">
        <ele>176.2</ele>
        <time>2023-03-05T14:46:14Z</time>
        <extensions>
          <gpxtpx:TrackPointExtension xmlns:gpxtpx="http://www.garmin.com/xmlschemas/TrackPointExtension/v1">
            <gpxtpx:hr>111</gpxtpx:hr>
          </gpxtpx:TrackPointExtension>
        </extensions>
      </trkpt>
      <trkpt lat="48.64977" lon="2.08807">
        <ele>176.2</ele>
        <time>2023-03-05T14:46:15Z</time>
        <extensions>
          <gpxtpx:TrackPointExtension xmlns:gpxtpx="http://www.garmin.com/xmlschemas/TrackPointExtension/v1">
            <gpxtpx:hr>111</gpxtpx:hr>
          </gpxtpx:TrackPointExtension>
        </extensions>
      </trkpt>
      <trkpt lat="48.64979" lon="2.08803">
        <ele>176.4</ele>
        <time>2023-03-05T14:46:16Z</time>
        <extensions>
          <gpxtpx:TrackPointExtension xmlns:gpxtpx="http://www.garmin.com/xmlschemas/TrackPointExtension/v1">
            <gpxtpx:hr>111</gpxtpx:hr>
          </gpxtpx:TrackPointExtension>
        </extensions>
      </trkpt>
      <trkpt lat="48.64981" lon="2.088">
        <ele>176.4</ele>
        <time>2023-03-05T14:46:17Z</time>
        <extensions>
          <gpxtpx:TrackPointExtension xmlns:gpxtpx="http://www.garmin.com/xmlschemas/TrackPointExtension/v1">
            <gpxtpx:hr>111</gpxtpx:hr>
          </gpxtpx:TrackPointExtension>
        </extensions>
      </trkpt>
      <trkpt lat="48.64984" lon="2.08796">
        <ele>176.6</ele>
        <time>2023-03-05T14:46:18Z</time>
        <extensions>
          <gpxtpx:TrackPointExtension xmlns:gpxtpx="http://www.garmin.com/xmlschemas/TrackPointExtension/v1">
            <gpxtpx:hr>111</gpxtpx:hr>
          </gpxtpx:TrackPointExtension>
        </extensions>
      </trkpt>
      <trkpt lat="48.64987" lon="2.08793">
        <ele>176.6</ele>
        <time>2023-03-05T14:46:19Z</time>
        <extensions>
          <gpxtpx:TrackPointExtension xmlns:gpxtpx="http://www.garmin.com/xmlschemas/TrackPointExtension/v1">
            <gpxtpx:hr>111</gpxtpx:hr>
          </gpxtpx:TrackPointExtension>
        </extensions>
      </trkpt>
      <trkpt lat="48.64989" lon="2.08789">
        <ele>176.6</ele>
        <time>2023-03-05T14:46:20Z</time>
        <extensions>
          <gpxtpx:TrackPointExtension xmlns:gpxtpx="http://www.garmin.com/xmlschemas/TrackPointExtension/v1">
            <gpxtpx:hr>112</gpxtpx:hr>
          </gpxtpx:TrackPointExtension>
        </extensions>
      </trkpt>
      <trkpt lat="48.64991" lon="2.08785">
        <ele>176.8</ele>
        <time>2023-03-05T14:46:21Z</time>
        <extensions>
          <gpxtpx:TrackPointExtension xmlns:gpxtpx="http://www.garmin.com/xmlschemas/TrackPointExtension/v1">
            <gpxtpx:hr>112</gpxtpx:hr>
          </gpxtpx:TrackPointExtension>
        </extensions>
      </trkpt>
      <trkpt lat="48.64994" lon="2.08781">
        <ele>176.8</ele>
        <time>2023-03-05T14:46:22Z</time>
        <extensions>
          <gpxtpx:TrackPointExtension xmlns:gpxtpx="http://www.garmin.com/xmlschemas/TrackPointExtension/v1">
            <gpxtpx:hr>112</gpxtpx:hr>
          </gpxtpx:TrackPointExtension>
        </extensions>
      </trkpt>
      <trkpt lat="48.64996" lon="2.08778">
        <ele>176.8</ele>
        <time>2023-03-05T14:46:23Z</time>
        <extensions>
          <gpxtpx:TrackPointExtension xmlns:gpxtpx="http://www.garmin.com/xmlschemas/TrackPointExtension/v1">
            <gpxtpx:hr>112</gpxtpx:hr>
          </gpxtpx:TrackPointExtension>
        </extensions>
      </trkpt>
      <trkpt lat="48.64998" lon="2.08774">
        <ele>176.8</ele>
        <time>2023-03-05T14:46:24Z</time>
        <extensions>
          <gpxtpx:TrackPointExtension xmlns:gpxtpx="http://www.garmin.com/xmlschemas/TrackPointExtension/v1">
            <gpxtpx:hr>112</gpxtpx:hr>
          </gpxtpx:TrackPointExtension>
        </extensions>
      </trkpt>
      <trkpt lat="48.65001" lon="2.08771">
        <ele>176.8</ele>
        <time>2023-03-05T14:46:25Z</time>
        <extensions>
          <gpxtpx:TrackPointExtension xmlns:gpxtpx="http://www.garmin.com/xmlschemas/TrackPointExtension/v1">
            <gpxtpx:hr>112</gpxtpx:hr>
          </gpxtpx:TrackPointExtension>
        </extensions>
      </trkpt>
      <trkpt lat="48.65003" lon="2.08767">
        <ele>176.8</ele>
        <time>2023-03-05T14:46:26Z</time>
        <extensions>
          <gpxtpx:TrackPointExtension xmlns:gpxtpx="http://www.garmin.com/xmlschemas/TrackPointExtension/v1">
            <gpxtpx:hr>112</gpxtpx:hr>
          </gpxtpx:TrackPointExtension>
        </extensions>
      </trkpt>
      <trkpt lat="48.65005" lon="2.08764">
        <ele>176.8</ele>
        <time>2023-03-05T14:46:27Z</time>
        <extensions>
          <gpxtpx:TrackPointExtension xmlns:gpxtpx="http://www.garmin.com/xmlschemas/TrackPointExtension/v1">
            <gpxtpx:hr>113</gpxtpx:hr>
          </gpxtpx:TrackPointExtension>
        </extensions>
      </trkpt>
      <trkpt lat="48.65007" lon="2.08761">
        <ele>176.8</ele>
        <time>2023-03-05T14:46:28Z</time>
        <extensions>
          <gpxtpx:TrackPointExtension xmlns:gpxtpx="http://www.garmin.com/xmlschemas/TrackPointExtension/v1">
            <gpxtpx:hr>113</gpxtpx:hr>
          </gpxtpx:TrackPointExtension>
        </extensions>
      </trkpt>
      <trkpt lat="48.65009" lon="2.08758">
        <ele>177</ele>
        <time>2023-03-05T14:46:29Z</time>
        <extensions>
          <gpxtpx:TrackPointExtension xmlns:gpxtpx="http://www.garmin.com/xmlschemas/TrackPointExtension/v1">
            <gpxtpx:hr>113</gpxtpx:hr>
          </gpxtpx:TrackPointExtension>
        </extensions>
      </trkpt>
      <trkpt lat="48.65011" lon="2.08755">
        <ele>177</ele>
        <time>2023-03-05T14:46:30Z</time>
        <extensions>
          <gpxtpx:TrackPointExtension xmlns:gpxtpx="http://www.garmin.com/xmlschemas/TrackPointExtension/v1">
            <gpxtpx:hr>113</gpxtpx:hr>
          </gpxtpx:TrackPointExtension>
        </extensions>
      </trkpt>
      <trkpt lat="48.65013" lon="2.08751">
        <ele>177</ele>
        <time>2023-03-05T14:46:31Z</time>
        <extensions>
          <gpxtpx:TrackPointExtension xmlns:gpxtpx="http://www.garmin.com/xmlschemas/TrackPointExtension/v1">
            <gpxtpx:hr>113</gpxtpx:hr>
          </gpxtpx:TrackPointExtension>
        </extensions>
      </trkpt>
      <trkpt lat="48.65015" lon="2.08748">
        <ele>177.2</ele>
        <time>2023-03-05T14:46:32Z</time>
        <extensions>
          <gpxtpx:TrackPointExtension xmlns:gpxtpx="http://www.garmin.com/xmlschemas/TrackPointExtension/v1">
            <gpxtpx:hr>113</gpxtpx:hr>
          </gpxtpx:TrackPointExtension>
        </extensions>
      </trkpt>
      <trkpt lat="48.65017" lon="2.08744">
        <ele>177.2</ele>
        <time>2023-03-05T14:46:33Z</time>
        <extensions>
          <gpxtpx:TrackPointExtension xmlns:gpxtpx="http://www.garmin.com/xmlschemas/TrackPointExtension/v1">
            <gpxtpx:hr>113</gpxtpx:hr>
          </gpxtpx:TrackPointExtension>
        </extensions>
      </trkpt>
      <trkpt lat="48.65019" lon="2.0874">
        <ele>177.4</ele>
        <time>2023-03-05T14:46:34Z</time>
        <extensions>
          <gpxtpx:TrackPointExtension xmlns:gpxtpx="http://www.garmin.com/xmlschemas/TrackPointExtension/v1">
            <gpxtpx:hr>113</gpxtpx:hr>
          </gpxtpx:TrackPointExtension>
        </extensions>
      </trkpt>
      <trkpt lat="48.65021" lon="2.08736">
        <ele>177.6</ele>
        <time>2023-03-05T14:46:35Z</time>
        <extensions>
          <gpxtpx:TrackPointExtension xmlns:gpxtpx="http://www.garmin.com/xmlschemas/TrackPointExtension/v1">
            <gpxtpx:hr>113</gpxtpx:hr>
          </gpxtpx:TrackPointExtension>
        </extensions>
      </trkpt>
      <trkpt lat="48.65023" lon="2.08732">
        <ele>177.6</ele>
        <time>2023-03-05T14:46:36Z</time>
        <extensions>
          <gpxtpx:TrackPointExtension xmlns:gpxtpx="http://www.garmin.com/xmlschemas/TrackPointExtension/v1">
            <gpxtpx:hr>113</gpxtpx:hr>
          </gpxtpx:TrackPointExtension>
        </extensions>
      </trkpt>
      <trkpt lat="48.65025" lon="2.08728">
        <ele>177.6</ele>
        <time>2023-03-05T14:46:37Z</time>
        <extensions>
          <gpxtpx:TrackPointExtension xmlns:gpxtpx="http://www.garmin.com/xmlschemas/TrackPointExtension/v1">
            <gpxtpx:hr>113</gpxtpx:hr>
          </gpxtpx:TrackPointExtension>
        </extensions>
      </trkpt>
      <trkpt lat="48.65027" lon="2.08724">
        <ele>177.6</ele>
        <time>2023-03-05T14:46:38Z</time>
        <extensions>
          <gpxtpx:TrackPointExtension xmlns:gpxtpx="http://www.garmin.com/xmlschemas/TrackPointExtension/v1">
            <gpxtpx:hr>113</gpxtpx:hr>
          </gpxtpx:TrackPointExtension>
        </extensions>
      </trkpt>
      <trkpt lat="48.65029" lon="2.0872">
        <ele>177.8</ele>
        <time>2023-03-05T14:46:39Z</time>
        <extensions>
          <gpxtpx:TrackPointExtension xmlns:gpxtpx="http://www.garmin.com/xmlschemas/TrackPointExtension/v1">
            <gpxtpx:hr>114</gpxtpx:hr>
          </gpxtpx:TrackPointExtension>
        </extensions>
      </trkpt>
      <trkpt lat="48.65031" lon="2.08716">
        <ele>177.8</ele>
        <time>2023-03-05T14:46:40Z</time>
        <extensions>
          <gpxtpx:TrackPointExtension xmlns:gpxtpx="http://www.garmin.com/xmlschemas/TrackPointExtension/v1">
            <gpxtpx:hr>114</gpxtpx:hr>
          </gpxtpx:TrackPointExtension>
        </extensions>
      </trkpt>
      <trkpt lat="48.65033" lon="2.08712">
        <ele>178</ele>
        <time>2023-03-05T14:46:41Z</time>
        <extensions>
          <gpxtpx:TrackPointExtension xmlns:gpxtpx="http://www.garmin.com/xmlschemas/TrackPointExtension/v1">
            <gpxtpx:hr>114</gpxtpx:hr>
          </gpxtpx:TrackPointExtension>
        </extensions>
      </trkpt>
      <trkpt lat="48.65035" lon="2.08708">
        <ele>178</ele>
        <time>2023-03-05T14:46:42Z</time>
        <extensions>
          <gpxtpx:TrackPointExtension xmlns:gpxtpx="http://www.garmin.com/xmlschemas/TrackPointExtension/v1">
            <gpxtpx:hr>114</gpxtpx:hr>
          </gpxtpx:TrackPointExtension>
        </extensions>
      </trkpt>
      <trkpt lat="48.65037" lon="2.08705">
        <ele>178</ele>
        <time>2023-03-05T14:46:43Z</time>
        <extensions>
          <gpxtpx:TrackPointExtension xmlns:gpxtpx="http://www.garmin.com/xmlschemas/TrackPointExtension/v1">
            <gpxtpx:hr>114</gpxtpx:hr>
          </gpxtpx:TrackPointExtension>
        </extensions>
      </trkpt>
      <trkpt lat="48.65039" lon="2.08701">
        <ele>178.2</ele>
        <time>2023-03-05T14:46:44Z</time>
        <extensions>
          <gpxtpx:TrackPointExtension xmlns:gpxtpx="http://www.garmin.com/xmlschemas/TrackPointExtension/v1">
            <gpxtpx:hr>114</gpxtpx:hr>
          </gpxtpx:TrackPointExtension>
        </extensions>
      </trkpt>
      <trkpt lat="48.65042" lon="2.08697">
        <ele>178.2</ele>
        <time>2023-03-05T14:46:45Z</time>
        <extensions>
          <gpxtpx:TrackPointExtension xmlns:gpxtpx="http://www.garmin.com/xmlschemas/TrackPointExtension/v1">
            <gpxtpx:hr>114</gpxtpx:hr>
          </gpxtpx:TrackPointExtension>
        </extensions>
      </trkpt>
      <trkpt lat="48.65044" lon="2.08693">
        <ele>178.2</ele>
        <time>2023-03-05T14:46:46Z</time>
        <extensions>
          <gpxtpx:TrackPointExtension xmlns:gpxtpx="http://www.garmin.com/xmlschemas/TrackPointExtension/v1">
            <gpxtpx:hr>114</gpxtpx:hr>
          </gpxtpx:TrackPointExtension>
        </extensions>
      </trkpt>
      <trkpt lat="48.65047" lon="2.08689">
        <ele>178.2</ele>
        <time>2023-03-05T14:46:47Z</time>
        <extensions>
          <gpxtpx:TrackPointExtension xmlns:gpxtpx="http://www.garmin.com/xmlschemas/TrackPointExtension/v1">
            <gpxtpx:hr>114</gpxtpx:hr>
          </gpxtpx:TrackPointExtension>
        </extensions>
      </trkpt>
      <trkpt lat="48.65049" lon="2.08685">
        <ele>178.2</ele>
        <time>2023-03-05T14:46:48Z</time>
        <extensions>
          <gpxtpx:TrackPointExtension xmlns:gpxtpx="http://www.garmin.com/xmlschemas/TrackPointExtension/v1">
            <gpxtpx:hr>114</gpxtpx:hr>
          </gpxtpx:TrackPointExtension>
        </extensions>
      </trkpt>
      <trkpt lat="48.65052" lon="2.08681">
        <ele>178</ele>
        <time>2023-03-05T14:46:49Z</time>
        <extensions>
          <gpxtpx:TrackPointExtension xmlns:gpxtpx="http://www.garmin.com/xmlschemas/TrackPointExtension/v1">
            <gpxtpx:hr>114</gpxtpx:hr>
          </gpxtpx:TrackPointExtension>
        </extensions>
      </trkpt>
      <trkpt lat="48.65054" lon="2.08677">
        <ele>178</ele>
        <time>2023-03-05T14:46:50Z</time>
        <extensions>
          <gpxtpx:TrackPointExtension xmlns:gpxtpx="http://www.garmin.com/xmlschemas/TrackPointExtension/v1">
            <gpxtpx:hr>114</gpxtpx:hr>
          </gpxtpx:TrackPointExtension>
        </extensions>
      </trkpt>
      <trkpt lat="48.65057" lon="2.08673">
        <ele>178</ele>
        <time>2023-03-05T14:46:51Z</time>
        <extensions>
          <gpxtpx:TrackPointExtension xmlns:gpxtpx="http://www.garmin.com/xmlschemas/TrackPointExtension/v1">
            <gpxtpx:hr>115</gpxtpx:hr>
          </gpxtpx:TrackPointExtension>
        </extensions>
      </trkpt>
      <trkpt lat="48.6506" lon="2.08669">
        <ele>177.8</ele>
        <time>2023-03-05T14:46:52Z</time>
        <extensions>
          <gpxtpx:TrackPointExtension xmlns:gpxtpx="http://www.garmin.com/xmlschemas/TrackPointExtension/v1">
            <gpxtpx:hr>115</gpxtpx:hr>
          </gpxtpx:TrackPointExtension>
        </extensions>
      </trkpt>
      <trkpt lat="48.65062" lon="2.08666">
        <ele>177.8</ele>
        <time>2023-03-05T14:46:53Z</time>
        <extensions>
          <gpxtpx:TrackPointExtension xmlns:gpxtpx="http://www.garmin.com/xmlschemas/TrackPointExtension/v1">
            <gpxtpx:hr>115</gpxtpx:hr>
          </gpxtpx:TrackPointExtension>
        </extensions>
      </trkpt>
      <trkpt lat="48.65065" lon="2.08663">
        <ele>177.8</ele>
        <time>2023-03-05T14:46:54Z</time>
        <extensions>
          <gpxtpx:TrackPointExtension xmlns:gpxtpx="http://www.garmin.com/xmlschemas/TrackPointExtension/v1">
            <gpxtpx:hr>115</gpxtpx:hr>
          </gpxtpx:TrackPointExtension>
        </extensions>
      </trkpt>
      <trkpt lat="48.65068" lon="2.08661">
        <ele>177.6</ele>
        <time>2023-03-05T14:46:55Z</time>
        <extensions>
          <gpxtpx:TrackPointExtension xmlns:gpxtpx="http://www.garmin.com/xmlschemas/TrackPointExtension/v1">
            <gpxtpx:hr>115</gpxtpx:hr>
          </gpxtpx:TrackPointExtension>
        </extensions>
      </trkpt>
      <trkpt lat="48.65071" lon="2.08659">
        <ele>177.4</ele>
        <time>2023-03-05T14:46:56Z</time>
        <extensions>
          <gpxtpx:TrackPointExtension xmlns:gpxtpx="http://www.garmin.com/xmlschemas/TrackPointExtension/v1">
            <gpxtpx:hr>115</gpxtpx:hr>
          </gpxtpx:TrackPointExtension>
        </extensions>
      </trkpt>
      <trkpt lat="48.65074" lon="2.08658">
        <ele>177.4</ele>
        <time>2023-03-05T14:46:57Z</time>
        <extensions>
          <gpxtpx:TrackPointExtension xmlns:gpxtpx="http://www.garmin.com/xmlschemas/TrackPointExtension/v1">
            <gpxtpx:hr>115</gpxtpx:hr>
          </gpxtpx:TrackPointExtension>
        </extensions>
      </trkpt>
      <trkpt lat="48.65076" lon="2.08656">
        <ele>177.2</ele>
        <time>2023-03-05T14:46:58Z</time>
        <extensions>
          <gpxtpx:TrackPointExtension xmlns:gpxtpx="http://www.garmin.com/xmlschemas/TrackPointExtension/v1">
            <gpxtpx:hr>115</gpxtpx:hr>
          </gpxtpx:TrackPointExtension>
        </extensions>
      </trkpt>
      <trkpt lat="48.65079" lon="2.08655">
        <ele>177</ele>
        <time>2023-03-05T14:46:59Z</time>
        <extensions>
          <gpxtpx:TrackPointExtension xmlns:gpxtpx="http://www.garmin.com/xmlschemas/TrackPointExtension/v1">
            <gpxtpx:hr>115</gpxtpx:hr>
          </gpxtpx:TrackPointExtension>
        </extensions>
      </trkpt>
      <trkpt lat="48.65082" lon="2.08654">
        <ele>176.8</ele>
        <time>2023-03-05T14:47:00Z</time>
        <extensions>
          <gpxtpx:TrackPointExtension xmlns:gpxtpx="http://www.garmin.com/xmlschemas/TrackPointExtension/v1">
            <gpxtpx:hr>115</gpxtpx:hr>
          </gpxtpx:TrackPointExtension>
        </extensions>
      </trkpt>
      <trkpt lat="48.65085" lon="2.08652">
        <ele>176.8</ele>
        <time>2023-03-05T14:47:01Z</time>
        <extensions>
          <gpxtpx:TrackPointExtension xmlns:gpxtpx="http://www.garmin.com/xmlschemas/TrackPointExtension/v1">
            <gpxtpx:hr>116</gpxtpx:hr>
          </gpxtpx:TrackPointExtension>
        </extensions>
      </trkpt>
      <trkpt lat="48.65088" lon="2.08651">
        <ele>176.6</ele>
        <time>2023-03-05T14:47:02Z</time>
        <extensions>
          <gpxtpx:TrackPointExtension xmlns:gpxtpx="http://www.garmin.com/xmlschemas/TrackPointExtension/v1">
            <gpxtpx:hr>116</gpxtpx:hr>
          </gpxtpx:TrackPointExtension>
        </extensions>
      </trkpt>
      <trkpt lat="48.65091" lon="2.08649">
        <ele>176.4</ele>
        <time>2023-03-05T14:47:03Z</time>
        <extensions>
          <gpxtpx:TrackPointExtension xmlns:gpxtpx="http://www.garmin.com/xmlschemas/TrackPointExtension/v1">
            <gpxtpx:hr>116</gpxtpx:hr>
          </gpxtpx:TrackPointExtension>
        </extensions>
      </trkpt>
      <trkpt lat="48.65093" lon="2.08647">
        <ele>176.4</ele>
        <time>2023-03-05T14:47:04Z</time>
        <extensions>
          <gpxtpx:TrackPointExtension xmlns:gpxtpx="http://www.garmin.com/xmlschemas/TrackPointExtension/v1">
            <gpxtpx:hr>116</gpxtpx:hr>
          </gpxtpx:TrackPointExtension>
        </extensions>
      </trkpt>
      <trkpt lat="48.65096" lon="2.08646">
        <ele>176.2</ele>
        <time>2023-03-05T14:47:05Z</time>
        <extensions>
          <gpxtpx:TrackPointExtension xmlns:gpxtpx="http://www.garmin.com/xmlschemas/TrackPointExtension/v1">
            <gpxtpx:hr>116</gpxtpx:hr>
          </gpxtpx:TrackPointExtension>
        </extensions>
      </trkpt>
      <trkpt lat="48.65099" lon="2.08644">
        <ele>176.2</ele>
        <time>2023-03-05T14:47:06Z</time>
        <extensions>
          <gpxtpx:TrackPointExtension xmlns:gpxtpx="http://www.garmin.com/xmlschemas/TrackPointExtension/v1">
            <gpxtpx:hr>116</gpxtpx:hr>
          </gpxtpx:TrackPointExtension>
        </extensions>
      </trkpt>
      <trkpt lat="48.65101" lon="2.08643">
        <ele>176.2</ele>
        <time>2023-03-05T14:47:07Z</time>
        <extensions>
          <gpxtpx:TrackPointExtension xmlns:gpxtpx="http://www.garmin.com/xmlschemas/TrackPointExtension/v1">
            <gpxtpx:hr>116</gpxtpx:hr>
          </gpxtpx:TrackPointExtension>
        </extensions>
      </trkpt>
      <trkpt lat="48.65104" lon="2.08641">
        <ele>176</ele>
        <time>2023-03-05T14:47:08Z</time>
        <extensions>
          <gpxtpx:TrackPointExtension xmlns:gpxtpx="http://www.garmin.com/xmlschemas/TrackPointExtension/v1">
            <gpxtpx:hr>116</gpxtpx:hr>
          </gpxtpx:TrackPointExtension>
        </extensions>
      </trkpt>
      <trkpt lat="48.65107" lon="2.0864">
        <ele>176</ele>
        <time>2023-03-05T14:47:09Z</time>
        <extensions>
          <gpxtpx:TrackPointExtension xmlns:gpxtpx="http://www.garmin.com/xmlschemas/TrackPointExtension/v1">
            <gpxtpx:hr>116</gpxtpx:hr>
          </gpxtpx:TrackPointExtension>
        </extensions>
      </trkpt>
      <trkpt lat="48.6511" lon="2.08639">
        <ele>176</ele>
        <time>2023-03-05T14:47:10Z</time>
        <extensions>
          <gpxtpx:TrackPointExtension xmlns:gpxtpx="http://www.garmin.com/xmlschemas/TrackPointExtension/v1">
            <gpxtpx:hr>116</gpxtpx:hr>
          </gpxtpx:TrackPointExtension>
        </extensions>
      </trkpt>
      <trkpt lat="48.65112" lon="2.08637">
        <ele>175.8</ele>
        <time>2023-03-05T14:47:11Z</time>
        <extensions>
          <gpxtpx:TrackPointExtension xmlns:gpxtpx="http://www.garmin.com/xmlschemas/TrackPointExtension/v1">
            <gpxtpx:hr>116</gpxtpx:hr>
          </gpxtpx:TrackPointExtension>
        </extensions>
      </trkpt>
      <trkpt lat="48.65115" lon="2.08636">
        <ele>175.8</ele>
        <time>2023-03-05T14:47:12Z</time>
        <extensions>
          <gpxtpx:TrackPointExtension xmlns:gpxtpx="http://www.garmin.com/xmlschemas/TrackPointExtension/v1">
            <gpxtpx:hr>116</gpxtpx:hr>
          </gpxtpx:TrackPointExtension>
        </extensions>
      </trkpt>
      <trkpt lat="48.65118" lon="2.08635">
        <ele>175.6</ele>
        <time>2023-03-05T14:47:13Z</time>
        <extensions>
          <gpxtpx:TrackPointExtension xmlns:gpxtpx="http://www.garmin.com/xmlschemas/TrackPointExtension/v1">
            <gpxtpx:hr>116</gpxtpx:hr>
          </gpxtpx:TrackPointExtension>
        </extensions>
      </trkpt>
      <trkpt lat="48.6512" lon="2.08634">
        <ele>175.4</ele>
        <time>2023-03-05T14:47:14Z</time>
        <extensions>
          <gpxtpx:TrackPointExtension xmlns:gpxtpx="http://www.garmin.com/xmlschemas/TrackPointExtension/v1">
            <gpxtpx:hr>117</gpxtpx:hr>
          </gpxtpx:TrackPointExtension>
        </extensions>
      </trkpt>
      <trkpt lat="48.65123" lon="2.08633">
        <ele>175.4</ele>
        <time>2023-03-05T14:47:15Z</time>
        <extensions>
          <gpxtpx:TrackPointExtension xmlns:gpxtpx="http://www.garmin.com/xmlschemas/TrackPointExtension/v1">
            <gpxtpx:hr>117</gpxtpx:hr>
          </gpxtpx:TrackPointExtension>
        </extensions>
      </trkpt>
      <trkpt lat="48.65125" lon="2.08631">
        <ele>175.4</ele>
        <time>2023-03-05T14:47:16Z</time>
        <extensions>
          <gpxtpx:TrackPointExtension xmlns:gpxtpx="http://www.garmin.com/xmlschemas/TrackPointExtension/v1">
            <gpxtpx:hr>117</gpxtpx:hr>
          </gpxtpx:TrackPointExtension>
        </extensions>
      </trkpt>
      <trkpt lat="48.65127" lon="2.0863">
        <ele>175.4</ele>
        <time>2023-03-05T14:47:17Z</time>
        <extensions>
          <gpxtpx:TrackPointExtension xmlns:gpxtpx="http://www.garmin.com/xmlschemas/TrackPointExtension/v1">
            <gpxtpx:hr>117</gpxtpx:hr>
          </gpxtpx:TrackPointExtension>
        </extensions>
      </trkpt>
      <trkpt lat="48.6513" lon="2.08628">
        <ele>175.4</ele>
        <time>2023-03-05T14:47:18Z</time>
        <extensions>
          <gpxtpx:TrackPointExtension xmlns:gpxtpx="http://www.garmin.com/xmlschemas/TrackPointExtension/v1">
            <gpxtpx:hr>117</gpxtpx:hr>
          </gpxtpx:TrackPointExtension>
        </extensions>
      </trkpt>
      <trkpt lat="48.65132" lon="2.08626">
        <ele>175.4</ele>
        <time>2023-03-05T14:47:19Z</time>
        <extensions>
          <gpxtpx:TrackPointExtension xmlns:gpxtpx="http://www.garmin.com/xmlschemas/TrackPointExtension/v1">
            <gpxtpx:hr>117</gpxtpx:hr>
          </gpxtpx:TrackPointExtension>
        </extensions>
      </trkpt>
      <trkpt lat="48.65135" lon="2.08624">
        <ele>175.4</ele>
        <time>2023-03-05T14:47:20Z</time>
        <extensions>
          <gpxtpx:TrackPointExtension xmlns:gpxtpx="http://www.garmin.com/xmlschemas/TrackPointExtension/v1">
            <gpxtpx:hr>117</gpxtpx:hr>
          </gpxtpx:TrackPointExtension>
        </extensions>
      </trkpt>
      <trkpt lat="48.65137" lon="2.08622">
        <ele>175.4</ele>
        <time>2023-03-05T14:47:21Z</time>
        <extensions>
          <gpxtpx:TrackPointExtension xmlns:gpxtpx="http://www.garmin.com/xmlschemas/TrackPointExtension/v1">
            <gpxtpx:hr>118</gpxtpx:hr>
          </gpxtpx:TrackPointExtension>
        </extensions>
      </trkpt>
      <trkpt lat="48.6514" lon="2.0862">
        <ele>175.4</ele>
        <time>2023-03-05T14:47:22Z</time>
        <extensions>
          <gpxtpx:TrackPointExtension xmlns:gpxtpx="http://www.garmin.com/xmlschemas/TrackPointExtension/v1">
            <gpxtpx:hr>118</gpxtpx:hr>
          </gpxtpx:TrackPointExtension>
        </extensions>
      </trkpt>
      <trkpt lat="48.65141" lon="2.08618">
        <ele>175.4</ele>
        <time>2023-03-05T14:47:23Z</time>
        <extensions>
          <gpxtpx:TrackPointExtension xmlns:gpxtpx="http://www.garmin.com/xmlschemas/TrackPointExtension/v1">
            <gpxtpx:hr>118</gpxtpx:hr>
          </gpxtpx:TrackPointExtension>
        </extensions>
      </trkpt>
      <trkpt lat="48.65143" lon="2.08615">
        <ele>175.4</ele>
        <time>2023-03-05T14:47:24Z</time>
        <extensions>
          <gpxtpx:TrackPointExtension xmlns:gpxtpx="http://www.garmin.com/xmlschemas/TrackPointExtension/v1">
            <gpxtpx:hr>118</gpxtpx:hr>
          </gpxtpx:TrackPointExtension>
        </extensions>
      </trkpt>
      <trkpt lat="48.65145" lon="2.08613">
        <ele>175.4</ele>
        <time>2023-03-05T14:47:25Z</time>
        <extensions>
          <gpxtpx:TrackPointExtension xmlns:gpxtpx="http://www.garmin.com/xmlschemas/TrackPointExtension/v1">
            <gpxtpx:hr>118</gpxtpx:hr>
          </gpxtpx:TrackPointExtension>
        </extensions>
      </trkpt>
      <trkpt lat="48.65147" lon="2.0861">
        <ele>175.2</ele>
        <time>2023-03-05T14:47:26Z</time>
        <extensions>
          <gpxtpx:TrackPointExtension xmlns:gpxtpx="http://www.garmin.com/xmlschemas/TrackPointExtension/v1">
            <gpxtpx:hr>118</gpxtpx:hr>
          </gpxtpx:TrackPointExtension>
        </extensions>
      </trkpt>
      <trkpt lat="48.65148" lon="2.08608">
        <ele>175.2</ele>
        <time>2023-03-05T14:47:27Z</time>
        <extensions>
          <gpxtpx:TrackPointExtension xmlns:gpxtpx="http://www.garmin.com/xmlschemas/TrackPointExtension/v1">
            <gpxtpx:hr>118</gpxtpx:hr>
          </gpxtpx:TrackPointExtension>
        </extensions>
      </trkpt>
      <trkpt lat="48.65149" lon="2.08606">
        <ele>175.2</ele>
        <time>2023-03-05T14:47:28Z</time>
        <extensions>
          <gpxtpx:TrackPointExtension xmlns:gpxtpx="http://www.garmin.com/xmlschemas/TrackPointExtension/v1">
            <gpxtpx:hr>118</gpxtpx:hr>
          </gpxtpx:TrackPointExtension>
        </extensions>
      </trkpt>
      <trkpt lat="48.65151" lon="2.08601">
        <ele>175.2</ele>
        <time>2023-03-05T14:47:30Z</time>
        <extensions>
          <gpxtpx:TrackPointExtension xmlns:gpxtpx="http://www.garmin.com/xmlschemas/TrackPointExtension/v1">
            <gpxtpx:hr>117</gpxtpx:hr>
          </gpxtpx:TrackPointExtension>
        </extensions>
      </trkpt>
      <trkpt lat="48.65152" lon="2.08597">
        <ele>175</ele>
        <time>2023-03-05T14:47:32Z</time>
        <extensions>
          <gpxtpx:TrackPointExtension xmlns:gpxtpx="http://www.garmin.com/xmlschemas/TrackPointExtension/v1">
            <gpxtpx:hr>117</gpxtpx:hr>
          </gpxtpx:TrackPointExtension>
        </extensions>
      </trkpt>
      <trkpt lat="48.65154" lon="2.08594">
        <ele>174.8</ele>
        <time>2023-03-05T14:47:34Z</time>
        <extensions>
          <gpxtpx:TrackPointExtension xmlns:gpxtpx="http://www.garmin.com/xmlschemas/TrackPointExtension/v1">
            <gpxtpx:hr>116</gpxtpx:hr>
          </gpxtpx:TrackPointExtension>
        </extensions>
      </trkpt>
      <trkpt lat="48.65156" lon="2.0859">
        <ele>174.8</ele>
        <time>2023-03-05T14:47:36Z</time>
        <extensions>
          <gpxtpx:TrackPointExtension xmlns:gpxtpx="http://www.garmin.com/xmlschemas/TrackPointExtension/v1">
            <gpxtpx:hr>116</gpxtpx:hr>
          </gpxtpx:TrackPointExtension>
        </extensions>
      </trkpt>
      <trkpt lat="48.65156" lon="2.08584">
        <ele>174.8</ele>
        <time>2023-03-05T14:47:38Z</time>
        <extensions>
          <gpxtpx:TrackPointExtension xmlns:gpxtpx="http://www.garmin.com/xmlschemas/TrackPointExtension/v1">
            <gpxtpx:hr>115</gpxtpx:hr>
          </gpxtpx:TrackPointExtension>
        </extensions>
      </trkpt>
      <trkpt lat="48.65157" lon="2.08581">
        <ele>175</ele>
        <time>2023-03-05T14:47:39Z</time>
        <extensions>
          <gpxtpx:TrackPointExtension xmlns:gpxtpx="http://www.garmin.com/xmlschemas/TrackPointExtension/v1">
            <gpxtpx:hr>115</gpxtpx:hr>
          </gpxtpx:TrackPointExtension>
        </extensions>
      </trkpt>
      <trkpt lat="48.65157" lon="2.08578">
        <ele>175</ele>
        <time>2023-03-05T14:47:40Z</time>
        <extensions>
          <gpxtpx:TrackPointExtension xmlns:gpxtpx="http://www.garmin.com/xmlschemas/TrackPointExtension/v1">
            <gpxtpx:hr>115</gpxtpx:hr>
          </gpxtpx:TrackPointExtension>
        </extensions>
      </trkpt>
      <trkpt lat="48.65158" lon="2.08576">
        <ele>175.2</ele>
        <time>2023-03-05T14:47:41Z</time>
        <extensions>
          <gpxtpx:TrackPointExtension xmlns:gpxtpx="http://www.garmin.com/xmlschemas/TrackPointExtension/v1">
            <gpxtpx:hr>114</gpxtpx:hr>
          </gpxtpx:TrackPointExtension>
        </extensions>
      </trkpt>
      <trkpt lat="48.65158" lon="2.0857">
        <ele>175.4</ele>
        <time>2023-03-05T14:47:43Z</time>
        <extensions>
          <gpxtpx:TrackPointExtension xmlns:gpxtpx="http://www.garmin.com/xmlschemas/TrackPointExtension/v1">
            <gpxtpx:hr>114</gpxtpx:hr>
          </gpxtpx:TrackPointExtension>
        </extensions>
      </trkpt>
      <trkpt lat="48.65159" lon="2.08566">
        <ele>175.8</ele>
        <time>2023-03-05T14:47:45Z</time>
        <extensions>
          <gpxtpx:TrackPointExtension xmlns:gpxtpx="http://www.garmin.com/xmlschemas/TrackPointExtension/v1">
            <gpxtpx:hr>114</gpxtpx:hr>
          </gpxtpx:TrackPointExtension>
        </extensions>
      </trkpt>
      <trkpt lat="48.65159" lon="2.08562">
        <ele>175.8</ele>
        <time>2023-03-05T14:47:47Z</time>
        <extensions>
          <gpxtpx:TrackPointExtension xmlns:gpxtpx="http://www.garmin.com/xmlschemas/TrackPointExtension/v1">
            <gpxtpx:hr>113</gpxtpx:hr>
          </gpxtpx:TrackPointExtension>
        </extensions>
      </trkpt>
      <trkpt lat="48.6516" lon="2.08558">
        <ele>175.8</ele>
        <time>2023-03-05T14:47:49Z</time>
        <extensions>
          <gpxtpx:TrackPointExtension xmlns:gpxtpx="http://www.garmin.com/xmlschemas/TrackPointExtension/v1">
            <gpxtpx:hr>112</gpxtpx:hr>
          </gpxtpx:TrackPointExtension>
        </extensions>
      </trkpt>
      <trkpt lat="48.6516" lon="2.08554">
        <ele>175.8</ele>
        <time>2023-03-05T14:47:51Z</time>
        <extensions>
          <gpxtpx:TrackPointExtension xmlns:gpxtpx="http://www.garmin.com/xmlschemas/TrackPointExtension/v1">
            <gpxtpx:hr>112</gpxtpx:hr>
          </gpxtpx:TrackPointExtension>
        </extensions>
      </trkpt>
      <trkpt lat="48.65161" lon="2.0855">
        <ele>175.8</ele>
        <time>2023-03-05T14:47:53Z</time>
        <extensions>
          <gpxtpx:TrackPointExtension xmlns:gpxtpx="http://www.garmin.com/xmlschemas/TrackPointExtension/v1">
            <gpxtpx:hr>111</gpxtpx:hr>
          </gpxtpx:TrackPointExtension>
        </extensions>
      </trkpt>
      <trkpt lat="48.65161" lon="2.08545">
        <ele>175.8</ele>
        <time>2023-03-05T14:47:55Z</time>
        <extensions>
          <gpxtpx:TrackPointExtension xmlns:gpxtpx="http://www.garmin.com/xmlschemas/TrackPointExtension/v1">
            <gpxtpx:hr>111</gpxtpx:hr>
          </gpxtpx:TrackPointExtension>
        </extensions>
      </trkpt>
      <trkpt lat="48.65161" lon="2.08541">
        <ele>175.8</ele>
        <time>2023-03-05T14:47:57Z</time>
        <extensions>
          <gpxtpx:TrackPointExtension xmlns:gpxtpx="http://www.garmin.com/xmlschemas/TrackPointExtension/v1">
            <gpxtpx:hr>111</gpxtpx:hr>
          </gpxtpx:TrackPointExtension>
        </extensions>
      </trkpt>
      <trkpt lat="48.65161" lon="2.08536">
        <ele>175.8</ele>
        <time>2023-03-05T14:47:59Z</time>
        <extensions>
          <gpxtpx:TrackPointExtension xmlns:gpxtpx="http://www.garmin.com/xmlschemas/TrackPointExtension/v1">
            <gpxtpx:hr>110</gpxtpx:hr>
          </gpxtpx:TrackPointExtension>
        </extensions>
      </trkpt>
      <trkpt lat="48.6516" lon="2.08532">
        <ele>176</ele>
        <time>2023-03-05T14:48:01Z</time>
        <extensions>
          <gpxtpx:TrackPointExtension xmlns:gpxtpx="http://www.garmin.com/xmlschemas/TrackPointExtension/v1">
            <gpxtpx:hr>109</gpxtpx:hr>
          </gpxtpx:TrackPointExtension>
        </extensions>
      </trkpt>
      <trkpt lat="48.65159" lon="2.08527">
        <ele>176</ele>
        <time>2023-03-05T14:48:03Z</time>
        <extensions>
          <gpxtpx:TrackPointExtension xmlns:gpxtpx="http://www.garmin.com/xmlschemas/TrackPointExtension/v1">
            <gpxtpx:hr>109</gpxtpx:hr>
          </gpxtpx:TrackPointExtension>
        </extensions>
      </trkpt>
      <trkpt lat="48.65158" lon="2.08523">
        <ele>175.8</ele>
        <time>2023-03-05T14:48:05Z</time>
        <extensions>
          <gpxtpx:TrackPointExtension xmlns:gpxtpx="http://www.garmin.com/xmlschemas/TrackPointExtension/v1">
            <gpxtpx:hr>109</gpxtpx:hr>
          </gpxtpx:TrackPointExtension>
        </extensions>
      </trkpt>
      <trkpt lat="48.65158" lon="2.08518">
        <ele>175.8</ele>
        <time>2023-03-05T14:48:07Z</time>
        <extensions>
          <gpxtpx:TrackPointExtension xmlns:gpxtpx="http://www.garmin.com/xmlschemas/TrackPointExtension/v1">
            <gpxtpx:hr>109</gpxtpx:hr>
          </gpxtpx:TrackPointExtension>
        </extensions>
      </trkpt>
      <trkpt lat="48.65158" lon="2.08514">
        <ele>175.8</ele>
        <time>2023-03-05T14:48:09Z</time>
        <extensions>
          <gpxtpx:TrackPointExtension xmlns:gpxtpx="http://www.garmin.com/xmlschemas/TrackPointExtension/v1">
            <gpxtpx:hr>109</gpxtpx:hr>
          </gpxtpx:TrackPointExtension>
        </extensions>
      </trkpt>
      <trkpt lat="48.65158" lon="2.0851">
        <ele>175.8</ele>
        <time>2023-03-05T14:48:11Z</time>
        <extensions>
          <gpxtpx:TrackPointExtension xmlns:gpxtpx="http://www.garmin.com/xmlschemas/TrackPointExtension/v1">
            <gpxtpx:hr>109</gpxtpx:hr>
          </gpxtpx:TrackPointExtension>
        </extensions>
      </trkpt>
      <trkpt lat="48.65157" lon="2.08507">
        <ele>175.8</ele>
        <time>2023-03-05T14:48:13Z</time>
        <extensions>
          <gpxtpx:TrackPointExtension xmlns:gpxtpx="http://www.garmin.com/xmlschemas/TrackPointExtension/v1">
            <gpxtpx:hr>109</gpxtpx:hr>
          </gpxtpx:TrackPointExtension>
        </extensions>
      </trkpt>
      <trkpt lat="48.65156" lon="2.08504">
        <ele>175.8</ele>
        <time>2023-03-05T14:48:15Z</time>
        <extensions>
          <gpxtpx:TrackPointExtension xmlns:gpxtpx="http://www.garmin.com/xmlschemas/TrackPointExtension/v1">
            <gpxtpx:hr>109</gpxtpx:hr>
          </gpxtpx:TrackPointExtension>
        </extensions>
      </trkpt>
      <trkpt lat="48.65156" lon="2.08501">
        <ele>175.8</ele>
        <time>2023-03-05T14:48:17Z</time>
        <extensions>
          <gpxtpx:TrackPointExtension xmlns:gpxtpx="http://www.garmin.com/xmlschemas/TrackPointExtension/v1">
            <gpxtpx:hr>109</gpxtpx:hr>
          </gpxtpx:TrackPointExtension>
        </extensions>
      </trkpt>
      <trkpt lat="48.65156" lon="2.08499">
        <ele>175.8</ele>
        <time>2023-03-05T14:48:19Z</time>
        <extensions>
          <gpxtpx:TrackPointExtension xmlns:gpxtpx="http://www.garmin.com/xmlschemas/TrackPointExtension/v1">
            <gpxtpx:hr>109</gpxtpx:hr>
          </gpxtpx:TrackPointExtension>
        </extensions>
      </trkpt>
      <trkpt lat="48.65156" lon="2.08495">
        <ele>175.8</ele>
        <time>2023-03-05T14:48:21Z</time>
        <extensions>
          <gpxtpx:TrackPointExtension xmlns:gpxtpx="http://www.garmin.com/xmlschemas/TrackPointExtension/v1">
            <gpxtpx:hr>109</gpxtpx:hr>
          </gpxtpx:TrackPointExtension>
        </extensions>
      </trkpt>
      <trkpt lat="48.65156" lon="2.08491">
        <ele>175.8</ele>
        <time>2023-03-05T14:48:23Z</time>
        <extensions>
          <gpxtpx:TrackPointExtension xmlns:gpxtpx="http://www.garmin.com/xmlschemas/TrackPointExtension/v1">
            <gpxtpx:hr>108</gpxtpx:hr>
          </gpxtpx:TrackPointExtension>
        </extensions>
      </trkpt>
      <trkpt lat="48.65157" lon="2.08486">
        <ele>175.8</ele>
        <time>2023-03-05T14:48:25Z</time>
        <extensions>
          <gpxtpx:TrackPointExtension xmlns:gpxtpx="http://www.garmin.com/xmlschemas/TrackPointExtension/v1">
            <gpxtpx:hr>108</gpxtpx:hr>
          </gpxtpx:TrackPointExtension>
        </extensions>
      </trkpt>
      <trkpt lat="48.65158" lon="2.08484">
        <ele>175.8</ele>
        <time>2023-03-05T14:48:26Z</time>
        <extensions>
          <gpxtpx:TrackPointExtension xmlns:gpxtpx="http://www.garmin.com/xmlschemas/TrackPointExtension/v1">
            <gpxtpx:hr>108</gpxtpx:hr>
          </gpxtpx:TrackPointExtension>
        </extensions>
      </trkpt>
      <trkpt lat="48.65161" lon="2.08481">
        <ele>175.6</ele>
        <time>2023-03-05T14:48:28Z</time>
        <extensions>
          <gpxtpx:TrackPointExtension xmlns:gpxtpx="http://www.garmin.com/xmlschemas/TrackPointExtension/v1">
            <gpxtpx:hr>107</gpxtpx:hr>
          </gpxtpx:TrackPointExtension>
        </extensions>
      </trkpt>
      <trkpt lat="48.65162" lon="2.0848">
        <ele>175.6</ele>
        <time>2023-03-05T14:48:29Z</time>
        <extensions>
          <gpxtpx:TrackPointExtension xmlns:gpxtpx="http://www.garmin.com/xmlschemas/TrackPointExtension/v1">
            <gpxtpx:hr>107</gpxtpx:hr>
          </gpxtpx:TrackPointExtension>
        </extensions>
      </trkpt>
      <trkpt lat="48.65165" lon="2.08478">
        <ele>175.4</ele>
        <time>2023-03-05T14:48:31Z</time>
        <extensions>
          <gpxtpx:TrackPointExtension xmlns:gpxtpx="http://www.garmin.com/xmlschemas/TrackPointExtension/v1">
            <gpxtpx:hr>107</gpxtpx:hr>
          </gpxtpx:TrackPointExtension>
        </extensions>
      </trkpt>
      <trkpt lat="48.65168" lon="2.08478">
        <ele>175.2</ele>
        <time>2023-03-05T14:48:33Z</time>
        <extensions>
          <gpxtpx:TrackPointExtension xmlns:gpxtpx="http://www.garmin.com/xmlschemas/TrackPointExtension/v1">
            <gpxtpx:hr>107</gpxtpx:hr>
          </gpxtpx:TrackPointExtension>
        </extensions>
      </trkpt>
      <trkpt lat="48.65171" lon="2.08479">
        <ele>175.2</ele>
        <time>2023-03-05T14:48:35Z</time>
        <extensions>
          <gpxtpx:TrackPointExtension xmlns:gpxtpx="http://www.garmin.com/xmlschemas/TrackPointExtension/v1">
            <gpxtpx:hr>106</gpxtpx:hr>
          </gpxtpx:TrackPointExtension>
        </extensions>
      </trkpt>
      <trkpt lat="48.65174" lon="2.08481">
        <ele>175</ele>
        <time>2023-03-05T14:48:37Z</time>
        <extensions>
          <gpxtpx:TrackPointExtension xmlns:gpxtpx="http://www.garmin.com/xmlschemas/TrackPointExtension/v1">
            <gpxtpx:hr>106</gpxtpx:hr>
          </gpxtpx:TrackPointExtension>
        </extensions>
      </trkpt>
      <trkpt lat="48.65177" lon="2.08483">
        <ele>174.8</ele>
        <time>2023-03-05T14:48:39Z</time>
        <extensions>
          <gpxtpx:TrackPointExtension xmlns:gpxtpx="http://www.garmin.com/xmlschemas/TrackPointExtension/v1">
            <gpxtpx:hr>106</gpxtpx:hr>
          </gpxtpx:TrackPointExtension>
        </extensions>
      </trkpt>
      <trkpt lat="48.6518" lon="2.08484">
        <ele>174.6</ele>
        <time>2023-03-05T14:48:41Z</time>
        <extensions>
          <gpxtpx:TrackPointExtension xmlns:gpxtpx="http://www.garmin.com/xmlschemas/TrackPointExtension/v1">
            <gpxtpx:hr>106</gpxtpx:hr>
          </gpxtpx:TrackPointExtension>
        </extensions>
      </trkpt>
      <trkpt lat="48.65184" lon="2.08486">
        <ele>174.6</ele>
        <time>2023-03-05T14:48:43Z</time>
        <extensions>
          <gpxtpx:TrackPointExtension xmlns:gpxtpx="http://www.garmin.com/xmlschemas/TrackPointExtension/v1">
            <gpxtpx:hr>106</gpxtpx:hr>
          </gpxtpx:TrackPointExtension>
        </extensions>
      </trkpt>
      <trkpt lat="48.65187" lon="2.08487">
        <ele>174.4</ele>
        <time>2023-03-05T14:48:45Z</time>
        <extensions>
          <gpxtpx:TrackPointExtension xmlns:gpxtpx="http://www.garmin.com/xmlschemas/TrackPointExtension/v1">
            <gpxtpx:hr>106</gpxtpx:hr>
          </gpxtpx:TrackPointExtension>
        </extensions>
      </trkpt>
      <trkpt lat="48.65189" lon="2.08489">
        <ele>174.4</ele>
        <time>2023-03-05T14:48:47Z</time>
        <extensions>
          <gpxtpx:TrackPointExtension xmlns:gpxtpx="http://www.garmin.com/xmlschemas/TrackPointExtension/v1">
            <gpxtpx:hr>106</gpxtpx:hr>
          </gpxtpx:TrackPointExtension>
        </extensions>
      </trkpt>
      <trkpt lat="48.65192" lon="2.08491">
        <ele>174.4</ele>
        <time>2023-03-05T14:48:49Z</time>
        <extensions>
          <gpxtpx:TrackPointExtension xmlns:gpxtpx="http://www.garmin.com/xmlschemas/TrackPointExtension/v1">
            <gpxtpx:hr>106</gpxtpx:hr>
          </gpxtpx:TrackPointExtension>
        </extensions>
      </trkpt>
      <trkpt lat="48.65195" lon="2.08493">
        <ele>174.4</ele>
        <time>2023-03-05T14:48:51Z</time>
        <extensions>
          <gpxtpx:TrackPointExtension xmlns:gpxtpx="http://www.garmin.com/xmlschemas/TrackPointExtension/v1">
            <gpxtpx:hr>106</gpxtpx:hr>
          </gpxtpx:TrackPointExtension>
        </extensions>
      </trkpt>
      <trkpt lat="48.65197" lon="2.08494">
        <ele>174.2</ele>
        <time>2023-03-05T14:48:53Z</time>
        <extensions>
          <gpxtpx:TrackPointExtension xmlns:gpxtpx="http://www.garmin.com/xmlschemas/TrackPointExtension/v1">
            <gpxtpx:hr>106</gpxtpx:hr>
          </gpxtpx:TrackPointExtension>
        </extensions>
      </trkpt>
      <trkpt lat="48.652" lon="2.08495">
        <ele>174.2</ele>
        <time>2023-03-05T14:48:55Z</time>
        <extensions>
          <gpxtpx:TrackPointExtension xmlns:gpxtpx="http://www.garmin.com/xmlschemas/TrackPointExtension/v1">
            <gpxtpx:hr>106</gpxtpx:hr>
          </gpxtpx:TrackPointExtension>
        </extensions>
      </trkpt>
      <trkpt lat="48.65202" lon="2.08496">
        <ele>174.2</ele>
        <time>2023-03-05T14:48:57Z</time>
        <extensions>
          <gpxtpx:TrackPointExtension xmlns:gpxtpx="http://www.garmin.com/xmlschemas/TrackPointExtension/v1">
            <gpxtpx:hr>106</gpxtpx:hr>
          </gpxtpx:TrackPointExtension>
        </extensions>
      </trkpt>
      <trkpt lat="48.65205" lon="2.08498">
        <ele>174</ele>
        <time>2023-03-05T14:48:59Z</time>
        <extensions>
          <gpxtpx:TrackPointExtension xmlns:gpxtpx="http://www.garmin.com/xmlschemas/TrackPointExtension/v1">
            <gpxtpx:hr>106</gpxtpx:hr>
          </gpxtpx:TrackPointExtension>
        </extensions>
      </trkpt>
      <trkpt lat="48.65207" lon="2.085">
        <ele>173.8</ele>
        <time>2023-03-05T14:49:01Z</time>
        <extensions>
          <gpxtpx:TrackPointExtension xmlns:gpxtpx="http://www.garmin.com/xmlschemas/TrackPointExtension/v1">
            <gpxtpx:hr>106</gpxtpx:hr>
          </gpxtpx:TrackPointExtension>
        </extensions>
      </trkpt>
      <trkpt lat="48.6521" lon="2.08502">
        <ele>173.6</ele>
        <time>2023-03-05T14:49:03Z</time>
        <extensions>
          <gpxtpx:TrackPointExtension xmlns:gpxtpx="http://www.garmin.com/xmlschemas/TrackPointExtension/v1">
            <gpxtpx:hr>106</gpxtpx:hr>
          </gpxtpx:TrackPointExtension>
        </extensions>
      </trkpt>
      <trkpt lat="48.65213" lon="2.08503">
        <ele>173.4</ele>
        <time>2023-03-05T14:49:05Z</time>
        <extensions>
          <gpxtpx:TrackPointExtension xmlns:gpxtpx="http://www.garmin.com/xmlschemas/TrackPointExtension/v1">
            <gpxtpx:hr>106</gpxtpx:hr>
          </gpxtpx:TrackPointExtension>
        </extensions>
      </trkpt>
      <trkpt lat="48.65216" lon="2.08505">
        <ele>173.2</ele>
        <time>2023-03-05T14:49:07Z</time>
        <extensions>
          <gpxtpx:TrackPointExtension xmlns:gpxtpx="http://www.garmin.com/xmlschemas/TrackPointExtension/v1">
            <gpxtpx:hr>106</gpxtpx:hr>
          </gpxtpx:TrackPointExtension>
        </extensions>
      </trkpt>
      <trkpt lat="48.65218" lon="2.08507">
        <ele>173</ele>
        <time>2023-03-05T14:49:09Z</time>
        <extensions>
          <gpxtpx:TrackPointExtension xmlns:gpxtpx="http://www.garmin.com/xmlschemas/TrackPointExtension/v1">
            <gpxtpx:hr>107</gpxtpx:hr>
          </gpxtpx:TrackPointExtension>
        </extensions>
      </trkpt>
      <trkpt lat="48.65221" lon="2.08509">
        <ele>172.8</ele>
        <time>2023-03-05T14:49:11Z</time>
        <extensions>
          <gpxtpx:TrackPointExtension xmlns:gpxtpx="http://www.garmin.com/xmlschemas/TrackPointExtension/v1">
            <gpxtpx:hr>107</gpxtpx:hr>
          </gpxtpx:TrackPointExtension>
        </extensions>
      </trkpt>
      <trkpt lat="48.65224" lon="2.0851">
        <ele>172.8</ele>
        <time>2023-03-05T14:49:13Z</time>
        <extensions>
          <gpxtpx:TrackPointExtension xmlns:gpxtpx="http://www.garmin.com/xmlschemas/TrackPointExtension/v1">
            <gpxtpx:hr>107</gpxtpx:hr>
          </gpxtpx:TrackPointExtension>
        </extensions>
      </trkpt>
      <trkpt lat="48.65226" lon="2.08512">
        <ele>172.8</ele>
        <time>2023-03-05T14:49:15Z</time>
        <extensions>
          <gpxtpx:TrackPointExtension xmlns:gpxtpx="http://www.garmin.com/xmlschemas/TrackPointExtension/v1">
            <gpxtpx:hr>107</gpxtpx:hr>
          </gpxtpx:TrackPointExtension>
        </extensions>
      </trkpt>
      <trkpt lat="48.65228" lon="2.08514">
        <ele>172.6</ele>
        <time>2023-03-05T14:49:17Z</time>
        <extensions>
          <gpxtpx:TrackPointExtension xmlns:gpxtpx="http://www.garmin.com/xmlschemas/TrackPointExtension/v1">
            <gpxtpx:hr>107</gpxtpx:hr>
          </gpxtpx:TrackPointExtension>
        </extensions>
      </trkpt>
      <trkpt lat="48.65231" lon="2.08515">
        <ele>172.6</ele>
        <time>2023-03-05T14:49:19Z</time>
        <extensions>
          <gpxtpx:TrackPointExtension xmlns:gpxtpx="http://www.garmin.com/xmlschemas/TrackPointExtension/v1">
            <gpxtpx:hr>107</gpxtpx:hr>
          </gpxtpx:TrackPointExtension>
        </extensions>
      </trkpt>
      <trkpt lat="48.65234" lon="2.08516">
        <ele>172.6</ele>
        <time>2023-03-05T14:49:21Z</time>
        <extensions>
          <gpxtpx:TrackPointExtension xmlns:gpxtpx="http://www.garmin.com/xmlschemas/TrackPointExtension/v1">
            <gpxtpx:hr>107</gpxtpx:hr>
          </gpxtpx:TrackPointExtension>
        </extensions>
      </trkpt>
      <trkpt lat="48.65236" lon="2.08518">
        <ele>172.4</ele>
        <time>2023-03-05T14:49:23Z</time>
        <extensions>
          <gpxtpx:TrackPointExtension xmlns:gpxtpx="http://www.garmin.com/xmlschemas/TrackPointExtension/v1">
            <gpxtpx:hr>107</gpxtpx:hr>
          </gpxtpx:TrackPointExtension>
        </extensions>
      </trkpt>
      <trkpt lat="48.65239" lon="2.08519">
        <ele>172.4</ele>
        <time>2023-03-05T14:49:25Z</time>
        <extensions>
          <gpxtpx:TrackPointExtension xmlns:gpxtpx="http://www.garmin.com/xmlschemas/TrackPointExtension/v1">
            <gpxtpx:hr>107</gpxtpx:hr>
          </gpxtpx:TrackPointExtension>
        </extensions>
      </trkpt>
      <trkpt lat="48.65242" lon="2.0852">
        <ele>172.4</ele>
        <time>2023-03-05T14:49:27Z</time>
        <extensions>
          <gpxtpx:TrackPointExtension xmlns:gpxtpx="http://www.garmin.com/xmlschemas/TrackPointExtension/v1">
            <gpxtpx:hr>107</gpxtpx:hr>
          </gpxtpx:TrackPointExtension>
        </extensions>
      </trkpt>
      <trkpt lat="48.65244" lon="2.08521">
        <ele>172.4</ele>
        <time>2023-03-05T14:49:29Z</time>
        <extensions>
          <gpxtpx:TrackPointExtension xmlns:gpxtpx="http://www.garmin.com/xmlschemas/TrackPointExtension/v1">
            <gpxtpx:hr>107</gpxtpx:hr>
          </gpxtpx:TrackPointExtension>
        </extensions>
      </trkpt>
      <trkpt lat="48.65247" lon="2.08522">
        <ele>172.2</ele>
        <time>2023-03-05T14:49:31Z</time>
        <extensions>
          <gpxtpx:TrackPointExtension xmlns:gpxtpx="http://www.garmin.com/xmlschemas/TrackPointExtension/v1">
            <gpxtpx:hr>107</gpxtpx:hr>
          </gpxtpx:TrackPointExtension>
        </extensions>
      </trkpt>
      <trkpt lat="48.65249" lon="2.08524">
        <ele>172.2</ele>
        <time>2023-03-05T14:49:33Z</time>
        <extensions>
          <gpxtpx:TrackPointExtension xmlns:gpxtpx="http://www.garmin.com/xmlschemas/TrackPointExtension/v1">
            <gpxtpx:hr>107</gpxtpx:hr>
          </gpxtpx:TrackPointExtension>
        </extensions>
      </trkpt>
      <trkpt lat="48.65252" lon="2.08525">
        <ele>172.2</ele>
        <time>2023-03-05T14:49:35Z</time>
        <extensions>
          <gpxtpx:TrackPointExtension xmlns:gpxtpx="http://www.garmin.com/xmlschemas/TrackPointExtension/v1">
            <gpxtpx:hr>107</gpxtpx:hr>
          </gpxtpx:TrackPointExtension>
        </extensions>
      </trkpt>
      <trkpt lat="48.65254" lon="2.08527">
        <ele>172</ele>
        <time>2023-03-05T14:49:37Z</time>
        <extensions>
          <gpxtpx:TrackPointExtension xmlns:gpxtpx="http://www.garmin.com/xmlschemas/TrackPointExtension/v1">
            <gpxtpx:hr>107</gpxtpx:hr>
          </gpxtpx:TrackPointExtension>
        </extensions>
      </trkpt>
      <trkpt lat="48.65257" lon="2.08528">
        <ele>171.8</ele>
        <time>2023-03-05T14:49:39Z</time>
        <extensions>
          <gpxtpx:TrackPointExtension xmlns:gpxtpx="http://www.garmin.com/xmlschemas/TrackPointExtension/v1">
            <gpxtpx:hr>107</gpxtpx:hr>
          </gpxtpx:TrackPointExtension>
        </extensions>
      </trkpt>
      <trkpt lat="48.65259" lon="2.0853">
        <ele>171.8</ele>
        <time>2023-03-05T14:49:41Z</time>
        <extensions>
          <gpxtpx:TrackPointExtension xmlns:gpxtpx="http://www.garmin.com/xmlschemas/TrackPointExtension/v1">
            <gpxtpx:hr>108</gpxtpx:hr>
          </gpxtpx:TrackPointExtension>
        </extensions>
      </trkpt>
      <trkpt lat="48.65261" lon="2.08532">
        <ele>171.8</ele>
        <time>2023-03-05T14:49:43Z</time>
        <extensions>
          <gpxtpx:TrackPointExtension xmlns:gpxtpx="http://www.garmin.com/xmlschemas/TrackPointExtension/v1">
            <gpxtpx:hr>107</gpxtpx:hr>
          </gpxtpx:TrackPointExtension>
        </extensions>
      </trkpt>
      <trkpt lat="48.65263" lon="2.08534">
        <ele>171.8</ele>
        <time>2023-03-05T14:49:45Z</time>
        <extensions>
          <gpxtpx:TrackPointExtension xmlns:gpxtpx="http://www.garmin.com/xmlschemas/TrackPointExtension/v1">
            <gpxtpx:hr>107</gpxtpx:hr>
          </gpxtpx:TrackPointExtension>
        </extensions>
      </trkpt>
      <trkpt lat="48.65267" lon="2.08535">
        <ele>171.6</ele>
        <time>2023-03-05T14:49:47Z</time>
        <extensions>
          <gpxtpx:TrackPointExtension xmlns:gpxtpx="http://www.garmin.com/xmlschemas/TrackPointExtension/v1">
            <gpxtpx:hr>107</gpxtpx:hr>
          </gpxtpx:TrackPointExtension>
        </extensions>
      </trkpt>
      <trkpt lat="48.65269" lon="2.08537">
        <ele>171.6</ele>
        <time>2023-03-05T14:49:49Z</time>
        <extensions>
          <gpxtpx:TrackPointExtension xmlns:gpxtpx="http://www.garmin.com/xmlschemas/TrackPointExtension/v1">
            <gpxtpx:hr>107</gpxtpx:hr>
          </gpxtpx:TrackPointExtension>
        </extensions>
      </trkpt>
      <trkpt lat="48.65272" lon="2.08539">
        <ele>171.4</ele>
        <time>2023-03-05T14:49:51Z</time>
        <extensions>
          <gpxtpx:TrackPointExtension xmlns:gpxtpx="http://www.garmin.com/xmlschemas/TrackPointExtension/v1">
            <gpxtpx:hr>107</gpxtpx:hr>
          </gpxtpx:TrackPointExtension>
        </extensions>
      </trkpt>
      <trkpt lat="48.65274" lon="2.0854">
        <ele>171.4</ele>
        <time>2023-03-05T14:49:53Z</time>
        <extensions>
          <gpxtpx:TrackPointExtension xmlns:gpxtpx="http://www.garmin.com/xmlschemas/TrackPointExtension/v1">
            <gpxtpx:hr>107</gpxtpx:hr>
          </gpxtpx:TrackPointExtension>
        </extensions>
      </trkpt>
      <trkpt lat="48.65277" lon="2.08542">
        <ele>171.4</ele>
        <time>2023-03-05T14:49:55Z</time>
        <extensions>
          <gpxtpx:TrackPointExtension xmlns:gpxtpx="http://www.garmin.com/xmlschemas/TrackPointExtension/v1">
            <gpxtpx:hr>107</gpxtpx:hr>
          </gpxtpx:TrackPointExtension>
        </extensions>
      </trkpt>
      <trkpt lat="48.65279" lon="2.08543">
        <ele>171.4</ele>
        <time>2023-03-05T14:49:57Z</time>
        <extensions>
          <gpxtpx:TrackPointExtension xmlns:gpxtpx="http://www.garmin.com/xmlschemas/TrackPointExtension/v1">
            <gpxtpx:hr>107</gpxtpx:hr>
          </gpxtpx:TrackPointExtension>
        </extensions>
      </trkpt>
      <trkpt lat="48.65282" lon="2.08545">
        <ele>171.4</ele>
        <time>2023-03-05T14:49:59Z</time>
        <extensions>
          <gpxtpx:TrackPointExtension xmlns:gpxtpx="http://www.garmin.com/xmlschemas/TrackPointExtension/v1">
            <gpxtpx:hr>107</gpxtpx:hr>
          </gpxtpx:TrackPointExtension>
        </extensions>
      </trkpt>
      <trkpt lat="48.65285" lon="2.08546">
        <ele>171.6</ele>
        <time>2023-03-05T14:50:01Z</time>
        <extensions>
          <gpxtpx:TrackPointExtension xmlns:gpxtpx="http://www.garmin.com/xmlschemas/TrackPointExtension/v1">
            <gpxtpx:hr>107</gpxtpx:hr>
          </gpxtpx:TrackPointExtension>
        </extensions>
      </trkpt>
      <trkpt lat="48.65287" lon="2.08548">
        <ele>171.6</ele>
        <time>2023-03-05T14:50:03Z</time>
        <extensions>
          <gpxtpx:TrackPointExtension xmlns:gpxtpx="http://www.garmin.com/xmlschemas/TrackPointExtension/v1">
            <gpxtpx:hr>107</gpxtpx:hr>
          </gpxtpx:TrackPointExtension>
        </extensions>
      </trkpt>
      <trkpt lat="48.6529" lon="2.08551">
        <ele>171.4</ele>
        <time>2023-03-05T14:50:05Z</time>
        <extensions>
          <gpxtpx:TrackPointExtension xmlns:gpxtpx="http://www.garmin.com/xmlschemas/TrackPointExtension/v1">
            <gpxtpx:hr>107</gpxtpx:hr>
          </gpxtpx:TrackPointExtension>
        </extensions>
      </trkpt>
      <trkpt lat="48.65292" lon="2.08553">
        <ele>171.4</ele>
        <time>2023-03-05T14:50:07Z</time>
        <extensions>
          <gpxtpx:TrackPointExtension xmlns:gpxtpx="http://www.garmin.com/xmlschemas/TrackPointExtension/v1">
            <gpxtpx:hr>107</gpxtpx:hr>
          </gpxtpx:TrackPointExtension>
        </extensions>
      </trkpt>
      <trkpt lat="48.65295" lon="2.08555">
        <ele>171.4</ele>
        <time>2023-03-05T14:50:09Z</time>
        <extensions>
          <gpxtpx:TrackPointExtension xmlns:gpxtpx="http://www.garmin.com/xmlschemas/TrackPointExtension/v1">
            <gpxtpx:hr>107</gpxtpx:hr>
          </gpxtpx:TrackPointExtension>
        </extensions>
      </trkpt>
      <trkpt lat="48.65297" lon="2.08557">
        <ele>171.2</ele>
        <time>2023-03-05T14:50:11Z</time>
        <extensions>
          <gpxtpx:TrackPointExtension xmlns:gpxtpx="http://www.garmin.com/xmlschemas/TrackPointExtension/v1">
            <gpxtpx:hr>107</gpxtpx:hr>
          </gpxtpx:TrackPointExtension>
        </extensions>
      </trkpt>
      <trkpt lat="48.653" lon="2.0856">
        <ele>171.2</ele>
        <time>2023-03-05T14:50:13Z</time>
        <extensions>
          <gpxtpx:TrackPointExtension xmlns:gpxtpx="http://www.garmin.com/xmlschemas/TrackPointExtension/v1">
            <gpxtpx:hr>107</gpxtpx:hr>
          </gpxtpx:TrackPointExtension>
        </extensions>
      </trkpt>
      <trkpt lat="48.65302" lon="2.08562">
        <ele>171.2</ele>
        <time>2023-03-05T14:50:15Z</time>
        <extensions>
          <gpxtpx:TrackPointExtension xmlns:gpxtpx="http://www.garmin.com/xmlschemas/TrackPointExtension/v1">
            <gpxtpx:hr>107</gpxtpx:hr>
          </gpxtpx:TrackPointExtension>
        </extensions>
      </trkpt>
      <trkpt lat="48.65305" lon="2.08565">
        <ele>171.2</ele>
        <time>2023-03-05T14:50:17Z</time>
        <extensions>
          <gpxtpx:TrackPointExtension xmlns:gpxtpx="http://www.garmin.com/xmlschemas/TrackPointExtension/v1">
            <gpxtpx:hr>107</gpxtpx:hr>
          </gpxtpx:TrackPointExtension>
        </extensions>
      </trkpt>
      <trkpt lat="48.65307" lon="2.08568">
        <ele>171</ele>
        <time>2023-03-05T14:50:19Z</time>
        <extensions>
          <gpxtpx:TrackPointExtension xmlns:gpxtpx="http://www.garmin.com/xmlschemas/TrackPointExtension/v1">
            <gpxtpx:hr>107</gpxtpx:hr>
          </gpxtpx:TrackPointExtension>
        </extensions>
      </trkpt>
      <trkpt lat="48.65308" lon="2.0857">
        <ele>171.2</ele>
        <time>2023-03-05T14:50:21Z</time>
        <extensions>
          <gpxtpx:TrackPointExtension xmlns:gpxtpx="http://www.garmin.com/xmlschemas/TrackPointExtension/v1">
            <gpxtpx:hr>106</gpxtpx:hr>
          </gpxtpx:TrackPointExtension>
        </extensions>
      </trkpt>
      <trkpt lat="48.65309" lon="2.08572">
        <ele>171.2</ele>
        <time>2023-03-05T14:50:23Z</time>
        <extensions>
          <gpxtpx:TrackPointExtension xmlns:gpxtpx="http://www.garmin.com/xmlschemas/TrackPointExtension/v1">
            <gpxtpx:hr>106</gpxtpx:hr>
          </gpxtpx:TrackPointExtension>
        </extensions>
      </trkpt>
      <trkpt lat="48.65311" lon="2.08574">
        <ele>171.4</ele>
        <time>2023-03-05T14:50:25Z</time>
        <extensions>
          <gpxtpx:TrackPointExtension xmlns:gpxtpx="http://www.garmin.com/xmlschemas/TrackPointExtension/v1">
            <gpxtpx:hr>106</gpxtpx:hr>
          </gpxtpx:TrackPointExtension>
        </extensions>
      </trkpt>
      <trkpt lat="48.65313" lon="2.08575">
        <ele>171.4</ele>
        <time>2023-03-05T14:50:27Z</time>
        <extensions>
          <gpxtpx:TrackPointExtension xmlns:gpxtpx="http://www.garmin.com/xmlschemas/TrackPointExtension/v1">
            <gpxtpx:hr>106</gpxtpx:hr>
          </gpxtpx:TrackPointExtension>
        </extensions>
      </trkpt>
      <trkpt lat="48.65315" lon="2.08577">
        <ele>171.2</ele>
        <time>2023-03-05T14:50:30Z</time>
        <extensions>
          <gpxtpx:TrackPointExtension xmlns:gpxtpx="http://www.garmin.com/xmlschemas/TrackPointExtension/v1">
            <gpxtpx:hr>105</gpxtpx:hr>
          </gpxtpx:TrackPointExtension>
        </extensions>
      </trkpt>
      <trkpt lat="48.65316" lon="2.08579">
        <ele>171.2</ele>
        <time>2023-03-05T14:50:33Z</time>
        <extensions>
          <gpxtpx:TrackPointExtension xmlns:gpxtpx="http://www.garmin.com/xmlschemas/TrackPointExtension/v1">
            <gpxtpx:hr>105</gpxtpx:hr>
          </gpxtpx:TrackPointExtension>
        </extensions>
      </trkpt>
      <trkpt lat="48.65318" lon="2.08582">
        <ele>171</ele>
        <time>2023-03-05T14:50:35Z</time>
        <extensions>
          <gpxtpx:TrackPointExtension xmlns:gpxtpx="http://www.garmin.com/xmlschemas/TrackPointExtension/v1">
            <gpxtpx:hr>104</gpxtpx:hr>
          </gpxtpx:TrackPointExtension>
        </extensions>
      </trkpt>
      <trkpt lat="48.65319" lon="2.08585">
        <ele>171.2</ele>
        <time>2023-03-05T14:50:37Z</time>
        <extensions>
          <gpxtpx:TrackPointExtension xmlns:gpxtpx="http://www.garmin.com/xmlschemas/TrackPointExtension/v1">
            <gpxtpx:hr>104</gpxtpx:hr>
          </gpxtpx:TrackPointExtension>
        </extensions>
      </trkpt>
      <trkpt lat="48.65321" lon="2.08589">
        <ele>171.2</ele>
        <time>2023-03-05T14:50:39Z</time>
        <extensions>
          <gpxtpx:TrackPointExtension xmlns:gpxtpx="http://www.garmin.com/xmlschemas/TrackPointExtension/v1">
            <gpxtpx:hr>104</gpxtpx:hr>
          </gpxtpx:TrackPointExtension>
        </extensions>
      </trkpt>
      <trkpt lat="48.65323" lon="2.08592">
        <ele>171.4</ele>
        <time>2023-03-05T14:50:41Z</time>
        <extensions>
          <gpxtpx:TrackPointExtension xmlns:gpxtpx="http://www.garmin.com/xmlschemas/TrackPointExtension/v1">
            <gpxtpx:hr>104</gpxtpx:hr>
          </gpxtpx:TrackPointExtension>
        </extensions>
      </trkpt>
      <trkpt lat="48.65324" lon="2.08594">
        <ele>171.4</ele>
        <time>2023-03-05T14:50:43Z</time>
        <extensions>
          <gpxtpx:TrackPointExtension xmlns:gpxtpx="http://www.garmin.com/xmlschemas/TrackPointExtension/v1">
            <gpxtpx:hr>104</gpxtpx:hr>
          </gpxtpx:TrackPointExtension>
        </extensions>
      </trkpt>
      <trkpt lat="48.65327" lon="2.08596">
        <ele>171.4</ele>
        <time>2023-03-05T14:50:45Z</time>
        <extensions>
          <gpxtpx:TrackPointExtension xmlns:gpxtpx="http://www.garmin.com/xmlschemas/TrackPointExtension/v1">
            <gpxtpx:hr>104</gpxtpx:hr>
          </gpxtpx:TrackPointExtension>
        </extensions>
      </trkpt>
      <trkpt lat="48.65329" lon="2.08597">
        <ele>171.6</ele>
        <time>2023-03-05T14:50:47Z</time>
        <extensions>
          <gpxtpx:TrackPointExtension xmlns:gpxtpx="http://www.garmin.com/xmlschemas/TrackPointExtension/v1">
            <gpxtpx:hr>103</gpxtpx:hr>
          </gpxtpx:TrackPointExtension>
        </extensions>
      </trkpt>
      <trkpt lat="48.65331" lon="2.08598">
        <ele>171.8</ele>
        <time>2023-03-05T14:50:49Z</time>
        <extensions>
          <gpxtpx:TrackPointExtension xmlns:gpxtpx="http://www.garmin.com/xmlschemas/TrackPointExtension/v1">
            <gpxtpx:hr>103</gpxtpx:hr>
          </gpxtpx:TrackPointExtension>
        </extensions>
      </trkpt>
      <trkpt lat="48.65333" lon="2.08597">
        <ele>171.8</ele>
        <time>2023-03-05T14:50:51Z</time>
        <extensions>
          <gpxtpx:TrackPointExtension xmlns:gpxtpx="http://www.garmin.com/xmlschemas/TrackPointExtension/v1">
            <gpxtpx:hr>103</gpxtpx:hr>
          </gpxtpx:TrackPointExtension>
        </extensions>
      </trkpt>
      <trkpt lat="48.65335" lon="2.08596">
        <ele>171.8</ele>
        <time>2023-03-05T14:50:53Z</time>
        <extensions>
          <gpxtpx:TrackPointExtension xmlns:gpxtpx="http://www.garmin.com/xmlschemas/TrackPointExtension/v1">
            <gpxtpx:hr>103</gpxtpx:hr>
          </gpxtpx:TrackPointExtension>
        </extensions>
      </trkpt>
      <trkpt lat="48.65337" lon="2.08594">
        <ele>171.8</ele>
        <time>2023-03-05T14:50:55Z</time>
        <extensions>
          <gpxtpx:TrackPointExtension xmlns:gpxtpx="http://www.garmin.com/xmlschemas/TrackPointExtension/v1">
            <gpxtpx:hr>103</gpxtpx:hr>
          </gpxtpx:TrackPointExtension>
        </extensions>
      </trkpt>
      <trkpt lat="48.65338" lon="2.08591">
        <ele>171.6</ele>
        <time>2023-03-05T14:50:57Z</time>
        <extensions>
          <gpxtpx:TrackPointExtension xmlns:gpxtpx="http://www.garmin.com/xmlschemas/TrackPointExtension/v1">
            <gpxtpx:hr>103</gpxtpx:hr>
          </gpxtpx:TrackPointExtension>
        </extensions>
      </trkpt>
      <trkpt lat="48.65339" lon="2.08588">
        <ele>171.6</ele>
        <time>2023-03-05T14:50:59Z</time>
        <extensions>
          <gpxtpx:TrackPointExtension xmlns:gpxtpx="http://www.garmin.com/xmlschemas/TrackPointExtension/v1">
            <gpxtpx:hr>103</gpxtpx:hr>
          </gpxtpx:TrackPointExtension>
        </extensions>
      </trkpt>
      <trkpt lat="48.65339" lon="2.08585">
        <ele>171.4</ele>
        <time>2023-03-05T14:51:01Z</time>
        <extensions>
          <gpxtpx:TrackPointExtension xmlns:gpxtpx="http://www.garmin.com/xmlschemas/TrackPointExtension/v1">
            <gpxtpx:hr>103</gpxtpx:hr>
          </gpxtpx:TrackPointExtension>
        </extensions>
      </trkpt>
      <trkpt lat="48.65339" lon="2.08582">
        <ele>171.4</ele>
        <time>2023-03-05T14:51:03Z</time>
        <extensions>
          <gpxtpx:TrackPointExtension xmlns:gpxtpx="http://www.garmin.com/xmlschemas/TrackPointExtension/v1">
            <gpxtpx:hr>103</gpxtpx:hr>
          </gpxtpx:TrackPointExtension>
        </extensions>
      </trkpt>
      <trkpt lat="48.65339" lon="2.08579">
        <ele>171.4</ele>
        <time>2023-03-05T14:51:05Z</time>
        <extensions>
          <gpxtpx:TrackPointExtension xmlns:gpxtpx="http://www.garmin.com/xmlschemas/TrackPointExtension/v1">
            <gpxtpx:hr>103</gpxtpx:hr>
          </gpxtpx:TrackPointExtension>
        </extensions>
      </trkpt>
      <trkpt lat="48.65339" lon="2.08576">
        <ele>171.4</ele>
        <time>2023-03-05T14:51:07Z</time>
        <extensions>
          <gpxtpx:TrackPointExtension xmlns:gpxtpx="http://www.garmin.com/xmlschemas/TrackPointExtension/v1">
            <gpxtpx:hr>102</gpxtpx:hr>
          </gpxtpx:TrackPointExtension>
        </extensions>
      </trkpt>
      <trkpt lat="48.65338" lon="2.08573">
        <ele>171.6</ele>
        <time>2023-03-05T14:51:09Z</time>
        <extensions>
          <gpxtpx:TrackPointExtension xmlns:gpxtpx="http://www.garmin.com/xmlschemas/TrackPointExtension/v1">
            <gpxtpx:hr>102</gpxtpx:hr>
          </gpxtpx:TrackPointExtension>
        </extensions>
      </trkpt>
      <trkpt lat="48.65337" lon="2.0857">
        <ele>171.8</ele>
        <time>2023-03-05T14:51:11Z</time>
        <extensions>
          <gpxtpx:TrackPointExtension xmlns:gpxtpx="http://www.garmin.com/xmlschemas/TrackPointExtension/v1">
            <gpxtpx:hr>102</gpxtpx:hr>
          </gpxtpx:TrackPointExtension>
        </extensions>
      </trkpt>
      <trkpt lat="48.65337" lon="2.08566">
        <ele>171.8</ele>
        <time>2023-03-05T14:51:13Z</time>
        <extensions>
          <gpxtpx:TrackPointExtension xmlns:gpxtpx="http://www.garmin.com/xmlschemas/TrackPointExtension/v1">
            <gpxtpx:hr>102</gpxtpx:hr>
          </gpxtpx:TrackPointExtension>
        </extensions>
      </trkpt>
      <trkpt lat="48.65337" lon="2.08562">
        <ele>171.8</ele>
        <time>2023-03-05T14:51:15Z</time>
        <extensions>
          <gpxtpx:TrackPointExtension xmlns:gpxtpx="http://www.garmin.com/xmlschemas/TrackPointExtension/v1">
            <gpxtpx:hr>102</gpxtpx:hr>
          </gpxtpx:TrackPointExtension>
        </extensions>
      </trkpt>
      <trkpt lat="48.65337" lon="2.08558">
        <ele>171.8</ele>
        <time>2023-03-05T14:51:17Z</time>
        <extensions>
          <gpxtpx:TrackPointExtension xmlns:gpxtpx="http://www.garmin.com/xmlschemas/TrackPointExtension/v1">
            <gpxtpx:hr>103</gpxtpx:hr>
          </gpxtpx:TrackPointExtension>
        </extensions>
      </trkpt>
      <trkpt lat="48.65337" lon="2.08554">
        <ele>171.8</ele>
        <time>2023-03-05T14:51:19Z</time>
        <extensions>
          <gpxtpx:TrackPointExtension xmlns:gpxtpx="http://www.garmin.com/xmlschemas/TrackPointExtension/v1">
            <gpxtpx:hr>103</gpxtpx:hr>
          </gpxtpx:TrackPointExtension>
        </extensions>
      </trkpt>
      <trkpt lat="48.65338" lon="2.0855">
        <ele>171.8</ele>
        <time>2023-03-05T14:51:21Z</time>
        <extensions>
          <gpxtpx:TrackPointExtension xmlns:gpxtpx="http://www.garmin.com/xmlschemas/TrackPointExtension/v1">
            <gpxtpx:hr>103</gpxtpx:hr>
          </gpxtpx:TrackPointExtension>
        </extensions>
      </trkpt>
      <trkpt lat="48.65339" lon="2.08546">
        <ele>171.8</ele>
        <time>2023-03-05T14:51:23Z</time>
        <extensions>
          <gpxtpx:TrackPointExtension xmlns:gpxtpx="http://www.garmin.com/xmlschemas/TrackPointExtension/v1">
            <gpxtpx:hr>103</gpxtpx:hr>
          </gpxtpx:TrackPointExtension>
        </extensions>
      </trkpt>
      <trkpt lat="48.65339" lon="2.08542">
        <ele>171.8</ele>
        <time>2023-03-05T14:51:25Z</time>
        <extensions>
          <gpxtpx:TrackPointExtension xmlns:gpxtpx="http://www.garmin.com/xmlschemas/TrackPointExtension/v1">
            <gpxtpx:hr>103</gpxtpx:hr>
          </gpxtpx:TrackPointExtension>
        </extensions>
      </trkpt>
      <trkpt lat="48.6534" lon="2.08538">
        <ele>171.6</ele>
        <time>2023-03-05T14:51:27Z</time>
        <extensions>
          <gpxtpx:TrackPointExtension xmlns:gpxtpx="http://www.garmin.com/xmlschemas/TrackPointExtension/v1">
            <gpxtpx:hr>103</gpxtpx:hr>
          </gpxtpx:TrackPointExtension>
        </extensions>
      </trkpt>
      <trkpt lat="48.6534" lon="2.08534">
        <ele>171.6</ele>
        <time>2023-03-05T14:51:29Z</time>
        <extensions>
          <gpxtpx:TrackPointExtension xmlns:gpxtpx="http://www.garmin.com/xmlschemas/TrackPointExtension/v1">
            <gpxtpx:hr>104</gpxtpx:hr>
          </gpxtpx:TrackPointExtension>
        </extensions>
      </trkpt>
      <trkpt lat="48.65341" lon="2.08529">
        <ele>171.6</ele>
        <time>2023-03-05T14:51:31Z</time>
        <extensions>
          <gpxtpx:TrackPointExtension xmlns:gpxtpx="http://www.garmin.com/xmlschemas/TrackPointExtension/v1">
            <gpxtpx:hr>104</gpxtpx:hr>
          </gpxtpx:TrackPointExtension>
        </extensions>
      </trkpt>
      <trkpt lat="48.65341" lon="2.08525">
        <ele>171.8</ele>
        <time>2023-03-05T14:51:33Z</time>
        <extensions>
          <gpxtpx:TrackPointExtension xmlns:gpxtpx="http://www.garmin.com/xmlschemas/TrackPointExtension/v1">
            <gpxtpx:hr>104</gpxtpx:hr>
          </gpxtpx:TrackPointExtension>
        </extensions>
      </trkpt>
      <trkpt lat="48.65342" lon="2.08521">
        <ele>171.8</ele>
        <time>2023-03-05T14:51:35Z</time>
        <extensions>
          <gpxtpx:TrackPointExtension xmlns:gpxtpx="http://www.garmin.com/xmlschemas/TrackPointExtension/v1">
            <gpxtpx:hr>104</gpxtpx:hr>
          </gpxtpx:TrackPointExtension>
        </extensions>
      </trkpt>
      <trkpt lat="48.65343" lon="2.08517">
        <ele>172</ele>
        <time>2023-03-05T14:51:37Z</time>
        <extensions>
          <gpxtpx:TrackPointExtension xmlns:gpxtpx="http://www.garmin.com/xmlschemas/TrackPointExtension/v1">
            <gpxtpx:hr>104</gpxtpx:hr>
          </gpxtpx:TrackPointExtension>
        </extensions>
      </trkpt>
      <trkpt lat="48.65343" lon="2.08513">
        <ele>172</ele>
        <time>2023-03-05T14:51:39Z</time>
        <extensions>
          <gpxtpx:TrackPointExtension xmlns:gpxtpx="http://www.garmin.com/xmlschemas/TrackPointExtension/v1">
            <gpxtpx:hr>104</gpxtpx:hr>
          </gpxtpx:TrackPointExtension>
        </extensions>
      </trkpt>
      <trkpt lat="48.65344" lon="2.08509">
        <ele>172.2</ele>
        <time>2023-03-05T14:51:41Z</time>
        <extensions>
          <gpxtpx:TrackPointExtension xmlns:gpxtpx="http://www.garmin.com/xmlschemas/TrackPointExtension/v1">
            <gpxtpx:hr>105</gpxtpx:hr>
          </gpxtpx:TrackPointExtension>
        </extensions>
      </trkpt>
      <trkpt lat="48.65344" lon="2.08504">
        <ele>172.2</ele>
        <time>2023-03-05T14:51:43Z</time>
        <extensions>
          <gpxtpx:TrackPointExtension xmlns:gpxtpx="http://www.garmin.com/xmlschemas/TrackPointExtension/v1">
            <gpxtpx:hr>104</gpxtpx:hr>
          </gpxtpx:TrackPointExtension>
        </extensions>
      </trkpt>
      <trkpt lat="48.65345" lon="2.085">
        <ele>172.2</ele>
        <time>2023-03-05T14:51:45Z</time>
        <extensions>
          <gpxtpx:TrackPointExtension xmlns:gpxtpx="http://www.garmin.com/xmlschemas/TrackPointExtension/v1">
            <gpxtpx:hr>105</gpxtpx:hr>
          </gpxtpx:TrackPointExtension>
        </extensions>
      </trkpt>
      <trkpt lat="48.65345" lon="2.08496">
        <ele>172.2</ele>
        <time>2023-03-05T14:51:47Z</time>
        <extensions>
          <gpxtpx:TrackPointExtension xmlns:gpxtpx="http://www.garmin.com/xmlschemas/TrackPointExtension/v1">
            <gpxtpx:hr>105</gpxtpx:hr>
          </gpxtpx:TrackPointExtension>
        </extensions>
      </trkpt>
      <trkpt lat="48.65345" lon="2.08492">
        <ele>172.2</ele>
        <time>2023-03-05T14:51:49Z</time>
        <extensions>
          <gpxtpx:TrackPointExtension xmlns:gpxtpx="http://www.garmin.com/xmlschemas/TrackPointExtension/v1">
            <gpxtpx:hr>105</gpxtpx:hr>
          </gpxtpx:TrackPointExtension>
        </extensions>
      </trkpt>
      <trkpt lat="48.65346" lon="2.08489">
        <ele>172.2</ele>
        <time>2023-03-05T14:51:51Z</time>
        <extensions>
          <gpxtpx:TrackPointExtension xmlns:gpxtpx="http://www.garmin.com/xmlschemas/TrackPointExtension/v1">
            <gpxtpx:hr>105</gpxtpx:hr>
          </gpxtpx:TrackPointExtension>
        </extensions>
      </trkpt>
      <trkpt lat="48.65347" lon="2.08485">
        <ele>172</ele>
        <time>2023-03-05T14:51:53Z</time>
        <extensions>
          <gpxtpx:TrackPointExtension xmlns:gpxtpx="http://www.garmin.com/xmlschemas/TrackPointExtension/v1">
            <gpxtpx:hr>105</gpxtpx:hr>
          </gpxtpx:TrackPointExtension>
        </extensions>
      </trkpt>
      <trkpt lat="48.65347" lon="2.08481">
        <ele>171.8</ele>
        <time>2023-03-05T14:51:55Z</time>
        <extensions>
          <gpxtpx:TrackPointExtension xmlns:gpxtpx="http://www.garmin.com/xmlschemas/TrackPointExtension/v1">
            <gpxtpx:hr>105</gpxtpx:hr>
          </gpxtpx:TrackPointExtension>
        </extensions>
      </trkpt>
      <trkpt lat="48.65348" lon="2.08477">
        <ele>171.8</ele>
        <time>2023-03-05T14:51:57Z</time>
        <extensions>
          <gpxtpx:TrackPointExtension xmlns:gpxtpx="http://www.garmin.com/xmlschemas/TrackPointExtension/v1">
            <gpxtpx:hr>105</gpxtpx:hr>
          </gpxtpx:TrackPointExtension>
        </extensions>
      </trkpt>
      <trkpt lat="48.65348" lon="2.08473">
        <ele>171.8</ele>
        <time>2023-03-05T14:51:59Z</time>
        <extensions>
          <gpxtpx:TrackPointExtension xmlns:gpxtpx="http://www.garmin.com/xmlschemas/TrackPointExtension/v1">
            <gpxtpx:hr>105</gpxtpx:hr>
          </gpxtpx:TrackPointExtension>
        </extensions>
      </trkpt>
      <trkpt lat="48.65349" lon="2.08468">
        <ele>171.8</ele>
        <time>2023-03-05T14:52:01Z</time>
        <extensions>
          <gpxtpx:TrackPointExtension xmlns:gpxtpx="http://www.garmin.com/xmlschemas/TrackPointExtension/v1">
            <gpxtpx:hr>105</gpxtpx:hr>
          </gpxtpx:TrackPointExtension>
        </extensions>
      </trkpt>
      <trkpt lat="48.65349" lon="2.08464">
        <ele>171.6</ele>
        <time>2023-03-05T14:52:03Z</time>
        <extensions>
          <gpxtpx:TrackPointExtension xmlns:gpxtpx="http://www.garmin.com/xmlschemas/TrackPointExtension/v1">
            <gpxtpx:hr>105</gpxtpx:hr>
          </gpxtpx:TrackPointExtension>
        </extensions>
      </trkpt>
      <trkpt lat="48.6535" lon="2.0846">
        <ele>171.6</ele>
        <time>2023-03-05T14:52:05Z</time>
        <extensions>
          <gpxtpx:TrackPointExtension xmlns:gpxtpx="http://www.garmin.com/xmlschemas/TrackPointExtension/v1">
            <gpxtpx:hr>105</gpxtpx:hr>
          </gpxtpx:TrackPointExtension>
        </extensions>
      </trkpt>
      <trkpt lat="48.65351" lon="2.08456">
        <ele>171.6</ele>
        <time>2023-03-05T14:52:07Z</time>
        <extensions>
          <gpxtpx:TrackPointExtension xmlns:gpxtpx="http://www.garmin.com/xmlschemas/TrackPointExtension/v1">
            <gpxtpx:hr>105</gpxtpx:hr>
          </gpxtpx:TrackPointExtension>
        </extensions>
      </trkpt>
      <trkpt lat="48.65351" lon="2.08452">
        <ele>171.4</ele>
        <time>2023-03-05T14:52:09Z</time>
        <extensions>
          <gpxtpx:TrackPointExtension xmlns:gpxtpx="http://www.garmin.com/xmlschemas/TrackPointExtension/v1">
            <gpxtpx:hr>105</gpxtpx:hr>
          </gpxtpx:TrackPointExtension>
        </extensions>
      </trkpt>
      <trkpt lat="48.65352" lon="2.08449">
        <ele>171.2</ele>
        <time>2023-03-05T14:52:11Z</time>
        <extensions>
          <gpxtpx:TrackPointExtension xmlns:gpxtpx="http://www.garmin.com/xmlschemas/TrackPointExtension/v1">
            <gpxtpx:hr>105</gpxtpx:hr>
          </gpxtpx:TrackPointExtension>
        </extensions>
      </trkpt>
      <trkpt lat="48.65353" lon="2.08445">
        <ele>171.4</ele>
        <time>2023-03-05T14:52:13Z</time>
        <extensions>
          <gpxtpx:TrackPointExtension xmlns:gpxtpx="http://www.garmin.com/xmlschemas/TrackPointExtension/v1">
            <gpxtpx:hr>105</gpxtpx:hr>
          </gpxtpx:TrackPointExtension>
        </extensions>
      </trkpt>
      <trkpt lat="48.65353" lon="2.0844">
        <ele>171.4</ele>
        <time>2023-03-05T14:52:15Z</time>
        <extensions>
          <gpxtpx:TrackPointExtension xmlns:gpxtpx="http://www.garmin.com/xmlschemas/TrackPointExtension/v1">
            <gpxtpx:hr>105</gpxtpx:hr>
          </gpxtpx:TrackPointExtension>
        </extensions>
      </trkpt>
      <trkpt lat="48.65354" lon="2.08436">
        <ele>171.2</ele>
        <time>2023-03-05T14:52:17Z</time>
        <extensions>
          <gpxtpx:TrackPointExtension xmlns:gpxtpx="http://www.garmin.com/xmlschemas/TrackPointExtension/v1">
            <gpxtpx:hr>105</gpxtpx:hr>
          </gpxtpx:TrackPointExtension>
        </extensions>
      </trkpt>
      <trkpt lat="48.65355" lon="2.08432">
        <ele>171.2</ele>
        <time>2023-03-05T14:52:19Z</time>
      </trkpt>
      <trkpt lat="48.65355" lon="2.08427">
        <ele>171.2</ele>
        <time>2023-03-05T14:52:21Z</time>
        <extensions>
          <gpxtpx:TrackPointExtension xmlns:gpxtpx="http://www.garmin.com/xmlschemas/TrackPointExtension/v1">
            <gpxtpx:hr>105</gpxtpx:hr>
          </gpxtpx:TrackPointExtension>
        </extensions>
      </trkpt>
      <trkpt lat="48.65356" lon="2.08423">
        <ele>171.2</ele>
        <time>2023-03-05T14:52:23Z</time>
        <extensions>
          <gpxtpx:TrackPointExtension xmlns:gpxtpx="http://www.garmin.com/xmlschemas/TrackPointExtension/v1">
            <gpxtpx:hr>105</gpxtpx:hr>
          </gpxtpx:TrackPointExtension>
        </extensions>
      </trkpt>
      <trkpt lat="48.65356" lon="2.08418">
        <ele>171.2</ele>
        <time>2023-03-05T14:52:25Z</time>
        <extensions>
          <gpxtpx:TrackPointExtension xmlns:gpxtpx="http://www.garmin.com/xmlschemas/TrackPointExtension/v1">
            <gpxtpx:hr>105</gpxtpx:hr>
          </gpxtpx:TrackPointExtension>
        </extensions>
      </trkpt>
      <trkpt lat="48.65357" lon="2.08414">
        <ele>171.2</ele>
        <time>2023-03-05T14:52:27Z</time>
        <extensions>
          <gpxtpx:TrackPointExtension xmlns:gpxtpx="http://www.garmin.com/xmlschemas/TrackPointExtension/v1">
            <gpxtpx:hr>105</gpxtpx:hr>
          </gpxtpx:TrackPointExtension>
        </extensions>
      </trkpt>
      <trkpt lat="48.65358" lon="2.0841">
        <ele>171.4</ele>
        <time>2023-03-05T14:52:29Z</time>
        <extensions>
          <gpxtpx:TrackPointExtension xmlns:gpxtpx="http://www.garmin.com/xmlschemas/TrackPointExtension/v1">
            <gpxtpx:hr>106</gpxtpx:hr>
          </gpxtpx:TrackPointExtension>
        </extensions>
      </trkpt>
      <trkpt lat="48.65358" lon="2.08405">
        <ele>171.2</ele>
        <time>2023-03-05T14:52:31Z</time>
        <extensions>
          <gpxtpx:TrackPointExtension xmlns:gpxtpx="http://www.garmin.com/xmlschemas/TrackPointExtension/v1">
            <gpxtpx:hr>106</gpxtpx:hr>
          </gpxtpx:TrackPointExtension>
        </extensions>
      </trkpt>
      <trkpt lat="48.65359" lon="2.084">
        <ele>171.2</ele>
        <time>2023-03-05T14:52:33Z</time>
        <extensions>
          <gpxtpx:TrackPointExtension xmlns:gpxtpx="http://www.garmin.com/xmlschemas/TrackPointExtension/v1">
            <gpxtpx:hr>106</gpxtpx:hr>
          </gpxtpx:TrackPointExtension>
        </extensions>
      </trkpt>
      <trkpt lat="48.65359" lon="2.08396">
        <ele>171</ele>
        <time>2023-03-05T14:52:35Z</time>
        <extensions>
          <gpxtpx:TrackPointExtension xmlns:gpxtpx="http://www.garmin.com/xmlschemas/TrackPointExtension/v1">
            <gpxtpx:hr>106</gpxtpx:hr>
          </gpxtpx:TrackPointExtension>
        </extensions>
      </trkpt>
      <trkpt lat="48.6536" lon="2.08392">
        <ele>170.8</ele>
        <time>2023-03-05T14:52:37Z</time>
        <extensions>
          <gpxtpx:TrackPointExtension xmlns:gpxtpx="http://www.garmin.com/xmlschemas/TrackPointExtension/v1">
            <gpxtpx:hr>106</gpxtpx:hr>
          </gpxtpx:TrackPointExtension>
        </extensions>
      </trkpt>
      <trkpt lat="48.65361" lon="2.08388">
        <ele>170.8</ele>
        <time>2023-03-05T14:52:39Z</time>
        <extensions>
          <gpxtpx:TrackPointExtension xmlns:gpxtpx="http://www.garmin.com/xmlschemas/TrackPointExtension/v1">
            <gpxtpx:hr>106</gpxtpx:hr>
          </gpxtpx:TrackPointExtension>
        </extensions>
      </trkpt>
      <trkpt lat="48.65362" lon="2.08384">
        <ele>170.8</ele>
        <time>2023-03-05T14:52:41Z</time>
        <extensions>
          <gpxtpx:TrackPointExtension xmlns:gpxtpx="http://www.garmin.com/xmlschemas/TrackPointExtension/v1">
            <gpxtpx:hr>106</gpxtpx:hr>
          </gpxtpx:TrackPointExtension>
        </extensions>
      </trkpt>
      <trkpt lat="48.65363" lon="2.08379">
        <ele>170.8</ele>
        <time>2023-03-05T14:52:43Z</time>
        <extensions>
          <gpxtpx:TrackPointExtension xmlns:gpxtpx="http://www.garmin.com/xmlschemas/TrackPointExtension/v1">
            <gpxtpx:hr>106</gpxtpx:hr>
          </gpxtpx:TrackPointExtension>
        </extensions>
      </trkpt>
      <trkpt lat="48.65363" lon="2.08375">
        <ele>170.6</ele>
        <time>2023-03-05T14:52:45Z</time>
        <extensions>
          <gpxtpx:TrackPointExtension xmlns:gpxtpx="http://www.garmin.com/xmlschemas/TrackPointExtension/v1">
            <gpxtpx:hr>106</gpxtpx:hr>
          </gpxtpx:TrackPointExtension>
        </extensions>
      </trkpt>
      <trkpt lat="48.65364" lon="2.0837">
        <ele>170.6</ele>
        <time>2023-03-05T14:52:47Z</time>
        <extensions>
          <gpxtpx:TrackPointExtension xmlns:gpxtpx="http://www.garmin.com/xmlschemas/TrackPointExtension/v1">
            <gpxtpx:hr>106</gpxtpx:hr>
          </gpxtpx:TrackPointExtension>
        </extensions>
      </trkpt>
      <trkpt lat="48.65365" lon="2.08366">
        <ele>170.8</ele>
        <time>2023-03-05T14:52:49Z</time>
        <extensions>
          <gpxtpx:TrackPointExtension xmlns:gpxtpx="http://www.garmin.com/xmlschemas/TrackPointExtension/v1">
            <gpxtpx:hr>106</gpxtpx:hr>
          </gpxtpx:TrackPointExtension>
        </extensions>
      </trkpt>
      <trkpt lat="48.65366" lon="2.08362">
        <ele>170.8</ele>
        <time>2023-03-05T14:52:51Z</time>
        <extensions>
          <gpxtpx:TrackPointExtension xmlns:gpxtpx="http://www.garmin.com/xmlschemas/TrackPointExtension/v1">
            <gpxtpx:hr>106</gpxtpx:hr>
          </gpxtpx:TrackPointExtension>
        </extensions>
      </trkpt>
      <trkpt lat="48.65367" lon="2.08358">
        <ele>171</ele>
        <time>2023-03-05T14:52:53Z</time>
        <extensions>
          <gpxtpx:TrackPointExtension xmlns:gpxtpx="http://www.garmin.com/xmlschemas/TrackPointExtension/v1">
            <gpxtpx:hr>106</gpxtpx:hr>
          </gpxtpx:TrackPointExtension>
        </extensions>
      </trkpt>
      <trkpt lat="48.65367" lon="2.08354">
        <ele>171.2</ele>
        <time>2023-03-05T14:52:55Z</time>
        <extensions>
          <gpxtpx:TrackPointExtension xmlns:gpxtpx="http://www.garmin.com/xmlschemas/TrackPointExtension/v1">
            <gpxtpx:hr>106</gpxtpx:hr>
          </gpxtpx:TrackPointExtension>
        </extensions>
      </trkpt>
      <trkpt lat="48.65368" lon="2.08349">
        <ele>171.4</ele>
        <time>2023-03-05T14:52:57Z</time>
        <extensions>
          <gpxtpx:TrackPointExtension xmlns:gpxtpx="http://www.garmin.com/xmlschemas/TrackPointExtension/v1">
            <gpxtpx:hr>106</gpxtpx:hr>
          </gpxtpx:TrackPointExtension>
        </extensions>
      </trkpt>
      <trkpt lat="48.65369" lon="2.08344">
        <ele>171.4</ele>
        <time>2023-03-05T14:52:59Z</time>
        <extensions>
          <gpxtpx:TrackPointExtension xmlns:gpxtpx="http://www.garmin.com/xmlschemas/TrackPointExtension/v1">
            <gpxtpx:hr>106</gpxtpx:hr>
          </gpxtpx:TrackPointExtension>
        </extensions>
      </trkpt>
      <trkpt lat="48.65369" lon="2.08339">
        <ele>171.6</ele>
        <time>2023-03-05T14:53:01Z</time>
        <extensions>
          <gpxtpx:TrackPointExtension xmlns:gpxtpx="http://www.garmin.com/xmlschemas/TrackPointExtension/v1">
            <gpxtpx:hr>106</gpxtpx:hr>
          </gpxtpx:TrackPointExtension>
        </extensions>
      </trkpt>
      <trkpt lat="48.6537" lon="2.08335">
        <ele>171.6</ele>
        <time>2023-03-05T14:53:03Z</time>
        <extensions>
          <gpxtpx:TrackPointExtension xmlns:gpxtpx="http://www.garmin.com/xmlschemas/TrackPointExtension/v1">
            <gpxtpx:hr>106</gpxtpx:hr>
          </gpxtpx:TrackPointExtension>
        </extensions>
      </trkpt>
      <trkpt lat="48.65371" lon="2.0833">
        <ele>171.4</ele>
        <time>2023-03-05T14:53:05Z</time>
        <extensions>
          <gpxtpx:TrackPointExtension xmlns:gpxtpx="http://www.garmin.com/xmlschemas/TrackPointExtension/v1">
            <gpxtpx:hr>106</gpxtpx:hr>
          </gpxtpx:TrackPointExtension>
        </extensions>
      </trkpt>
      <trkpt lat="48.65372" lon="2.08326">
        <ele>171.4</ele>
        <time>2023-03-05T14:53:07Z</time>
        <extensions>
          <gpxtpx:TrackPointExtension xmlns:gpxtpx="http://www.garmin.com/xmlschemas/TrackPointExtension/v1">
            <gpxtpx:hr>106</gpxtpx:hr>
          </gpxtpx:TrackPointExtension>
        </extensions>
      </trkpt>
      <trkpt lat="48.65372" lon="2.08322">
        <ele>171.4</ele>
        <time>2023-03-05T14:53:09Z</time>
        <extensions>
          <gpxtpx:TrackPointExtension xmlns:gpxtpx="http://www.garmin.com/xmlschemas/TrackPointExtension/v1">
            <gpxtpx:hr>106</gpxtpx:hr>
          </gpxtpx:TrackPointExtension>
        </extensions>
      </trkpt>
      <trkpt lat="48.65373" lon="2.08318">
        <ele>171.4</ele>
        <time>2023-03-05T14:53:11Z</time>
        <extensions>
          <gpxtpx:TrackPointExtension xmlns:gpxtpx="http://www.garmin.com/xmlschemas/TrackPointExtension/v1">
            <gpxtpx:hr>106</gpxtpx:hr>
          </gpxtpx:TrackPointExtension>
        </extensions>
      </trkpt>
      <trkpt lat="48.65374" lon="2.08314">
        <ele>171.4</ele>
        <time>2023-03-05T14:53:13Z</time>
        <extensions>
          <gpxtpx:TrackPointExtension xmlns:gpxtpx="http://www.garmin.com/xmlschemas/TrackPointExtension/v1">
            <gpxtpx:hr>106</gpxtpx:hr>
          </gpxtpx:TrackPointExtension>
        </extensions>
      </trkpt>
      <trkpt lat="48.65374" lon="2.08309">
        <ele>171.6</ele>
        <time>2023-03-05T14:53:15Z</time>
        <extensions>
          <gpxtpx:TrackPointExtension xmlns:gpxtpx="http://www.garmin.com/xmlschemas/TrackPointExtension/v1">
            <gpxtpx:hr>106</gpxtpx:hr>
          </gpxtpx:TrackPointExtension>
        </extensions>
      </trkpt>
      <trkpt lat="48.65375" lon="2.08305">
        <ele>171.6</ele>
        <time>2023-03-05T14:53:17Z</time>
        <extensions>
          <gpxtpx:TrackPointExtension xmlns:gpxtpx="http://www.garmin.com/xmlschemas/TrackPointExtension/v1">
            <gpxtpx:hr>106</gpxtpx:hr>
          </gpxtpx:TrackPointExtension>
        </extensions>
      </trkpt>
      <trkpt lat="48.65376" lon="2.08301">
        <ele>171.6</ele>
        <time>2023-03-05T14:53:19Z</time>
        <extensions>
          <gpxtpx:TrackPointExtension xmlns:gpxtpx="http://www.garmin.com/xmlschemas/TrackPointExtension/v1">
            <gpxtpx:hr>106</gpxtpx:hr>
          </gpxtpx:TrackPointExtension>
        </extensions>
      </trkpt>
      <trkpt lat="48.65377" lon="2.08296">
        <ele>171.8</ele>
        <time>2023-03-05T14:53:21Z</time>
        <extensions>
          <gpxtpx:TrackPointExtension xmlns:gpxtpx="http://www.garmin.com/xmlschemas/TrackPointExtension/v1">
            <gpxtpx:hr>106</gpxtpx:hr>
          </gpxtpx:TrackPointExtension>
        </extensions>
      </trkpt>
      <trkpt lat="48.65377" lon="2.08292">
        <ele>171.8</ele>
        <time>2023-03-05T14:53:23Z</time>
        <extensions>
          <gpxtpx:TrackPointExtension xmlns:gpxtpx="http://www.garmin.com/xmlschemas/TrackPointExtension/v1">
            <gpxtpx:hr>107</gpxtpx:hr>
          </gpxtpx:TrackPointExtension>
        </extensions>
      </trkpt>
      <trkpt lat="48.65378" lon="2.08288">
        <ele>171.8</ele>
        <time>2023-03-05T14:53:25Z</time>
        <extensions>
          <gpxtpx:TrackPointExtension xmlns:gpxtpx="http://www.garmin.com/xmlschemas/TrackPointExtension/v1">
            <gpxtpx:hr>107</gpxtpx:hr>
          </gpxtpx:TrackPointExtension>
        </extensions>
      </trkpt>
      <trkpt lat="48.65379" lon="2.08284">
        <ele>171.8</ele>
        <time>2023-03-05T14:53:27Z</time>
        <extensions>
          <gpxtpx:TrackPointExtension xmlns:gpxtpx="http://www.garmin.com/xmlschemas/TrackPointExtension/v1">
            <gpxtpx:hr>107</gpxtpx:hr>
          </gpxtpx:TrackPointExtension>
        </extensions>
      </trkpt>
      <trkpt lat="48.65379" lon="2.08279">
        <ele>172</ele>
        <time>2023-03-05T14:53:29Z</time>
        <extensions>
          <gpxtpx:TrackPointExtension xmlns:gpxtpx="http://www.garmin.com/xmlschemas/TrackPointExtension/v1">
            <gpxtpx:hr>107</gpxtpx:hr>
          </gpxtpx:TrackPointExtension>
        </extensions>
      </trkpt>
      <trkpt lat="48.6538" lon="2.08274">
        <ele>172</ele>
        <time>2023-03-05T14:53:31Z</time>
        <extensions>
          <gpxtpx:TrackPointExtension xmlns:gpxtpx="http://www.garmin.com/xmlschemas/TrackPointExtension/v1">
            <gpxtpx:hr>107</gpxtpx:hr>
          </gpxtpx:TrackPointExtension>
        </extensions>
      </trkpt>
      <trkpt lat="48.6538" lon="2.08269">
        <ele>172.2</ele>
        <time>2023-03-05T14:53:33Z</time>
        <extensions>
          <gpxtpx:TrackPointExtension xmlns:gpxtpx="http://www.garmin.com/xmlschemas/TrackPointExtension/v1">
            <gpxtpx:hr>107</gpxtpx:hr>
          </gpxtpx:TrackPointExtension>
        </extensions>
      </trkpt>
      <trkpt lat="48.65381" lon="2.08265">
        <ele>172.2</ele>
        <time>2023-03-05T14:53:35Z</time>
        <extensions>
          <gpxtpx:TrackPointExtension xmlns:gpxtpx="http://www.garmin.com/xmlschemas/TrackPointExtension/v1">
            <gpxtpx:hr>107</gpxtpx:hr>
          </gpxtpx:TrackPointExtension>
        </extensions>
      </trkpt>
      <trkpt lat="48.65381" lon="2.08261">
        <ele>172.2</ele>
        <time>2023-03-05T14:53:37Z</time>
        <extensions>
          <gpxtpx:TrackPointExtension xmlns:gpxtpx="http://www.garmin.com/xmlschemas/TrackPointExtension/v1">
            <gpxtpx:hr>107</gpxtpx:hr>
          </gpxtpx:TrackPointExtension>
        </extensions>
      </trkpt>
      <trkpt lat="48.65382" lon="2.08258">
        <ele>172</ele>
        <time>2023-03-05T14:53:39Z</time>
        <extensions>
          <gpxtpx:TrackPointExtension xmlns:gpxtpx="http://www.garmin.com/xmlschemas/TrackPointExtension/v1">
            <gpxtpx:hr>107</gpxtpx:hr>
          </gpxtpx:TrackPointExtension>
        </extensions>
      </trkpt>
      <trkpt lat="48.65383" lon="2.08255">
        <ele>172</ele>
        <time>2023-03-05T14:53:41Z</time>
        <extensions>
          <gpxtpx:TrackPointExtension xmlns:gpxtpx="http://www.garmin.com/xmlschemas/TrackPointExtension/v1">
            <gpxtpx:hr>107</gpxtpx:hr>
          </gpxtpx:TrackPointExtension>
        </extensions>
      </trkpt>
      <trkpt lat="48.65384" lon="2.08251">
        <ele>171.8</ele>
        <time>2023-03-05T14:53:43Z</time>
        <extensions>
          <gpxtpx:TrackPointExtension xmlns:gpxtpx="http://www.garmin.com/xmlschemas/TrackPointExtension/v1">
            <gpxtpx:hr>107</gpxtpx:hr>
          </gpxtpx:TrackPointExtension>
        </extensions>
      </trkpt>
      <trkpt lat="48.65384" lon="2.08247">
        <ele>171.8</ele>
        <time>2023-03-05T14:53:45Z</time>
        <extensions>
          <gpxtpx:TrackPointExtension xmlns:gpxtpx="http://www.garmin.com/xmlschemas/TrackPointExtension/v1">
            <gpxtpx:hr>107</gpxtpx:hr>
          </gpxtpx:TrackPointExtension>
        </extensions>
      </trkpt>
      <trkpt lat="48.65385" lon="2.08243">
        <ele>171.6</ele>
        <time>2023-03-05T14:53:47Z</time>
        <extensions>
          <gpxtpx:TrackPointExtension xmlns:gpxtpx="http://www.garmin.com/xmlschemas/TrackPointExtension/v1">
            <gpxtpx:hr>107</gpxtpx:hr>
          </gpxtpx:TrackPointExtension>
        </extensions>
      </trkpt>
      <trkpt lat="48.65386" lon="2.08239">
        <ele>171.8</ele>
        <time>2023-03-05T14:53:49Z</time>
        <extensions>
          <gpxtpx:TrackPointExtension xmlns:gpxtpx="http://www.garmin.com/xmlschemas/TrackPointExtension/v1">
            <gpxtpx:hr>107</gpxtpx:hr>
          </gpxtpx:TrackPointExtension>
        </extensions>
      </trkpt>
      <trkpt lat="48.65386" lon="2.08236">
        <ele>172</ele>
        <time>2023-03-05T14:53:51Z</time>
        <extensions>
          <gpxtpx:TrackPointExtension xmlns:gpxtpx="http://www.garmin.com/xmlschemas/TrackPointExtension/v1">
            <gpxtpx:hr>107</gpxtpx:hr>
          </gpxtpx:TrackPointExtension>
        </extensions>
      </trkpt>
      <trkpt lat="48.65387" lon="2.08231">
        <ele>172.2</ele>
        <time>2023-03-05T14:53:53Z</time>
        <extensions>
          <gpxtpx:TrackPointExtension xmlns:gpxtpx="http://www.garmin.com/xmlschemas/TrackPointExtension/v1">
            <gpxtpx:hr>107</gpxtpx:hr>
          </gpxtpx:TrackPointExtension>
        </extensions>
      </trkpt>
      <trkpt lat="48.65387" lon="2.08227">
        <ele>172.2</ele>
        <time>2023-03-05T14:53:55Z</time>
        <extensions>
          <gpxtpx:TrackPointExtension xmlns:gpxtpx="http://www.garmin.com/xmlschemas/TrackPointExtension/v1">
            <gpxtpx:hr>107</gpxtpx:hr>
          </gpxtpx:TrackPointExtension>
        </extensions>
      </trkpt>
      <trkpt lat="48.65387" lon="2.08223">
        <ele>172.4</ele>
        <time>2023-03-05T14:53:57Z</time>
        <extensions>
          <gpxtpx:TrackPointExtension xmlns:gpxtpx="http://www.garmin.com/xmlschemas/TrackPointExtension/v1">
            <gpxtpx:hr>107</gpxtpx:hr>
          </gpxtpx:TrackPointExtension>
        </extensions>
      </trkpt>
      <trkpt lat="48.65388" lon="2.08219">
        <ele>172.6</ele>
        <time>2023-03-05T14:53:59Z</time>
        <extensions>
          <gpxtpx:TrackPointExtension xmlns:gpxtpx="http://www.garmin.com/xmlschemas/TrackPointExtension/v1">
            <gpxtpx:hr>107</gpxtpx:hr>
          </gpxtpx:TrackPointExtension>
        </extensions>
      </trkpt>
      <trkpt lat="48.65388" lon="2.08215">
        <ele>172.8</ele>
        <time>2023-03-05T14:54:01Z</time>
        <extensions>
          <gpxtpx:TrackPointExtension xmlns:gpxtpx="http://www.garmin.com/xmlschemas/TrackPointExtension/v1">
            <gpxtpx:hr>107</gpxtpx:hr>
          </gpxtpx:TrackPointExtension>
        </extensions>
      </trkpt>
      <trkpt lat="48.65388" lon="2.08212">
        <ele>173</ele>
        <time>2023-03-05T14:54:03Z</time>
        <extensions>
          <gpxtpx:TrackPointExtension xmlns:gpxtpx="http://www.garmin.com/xmlschemas/TrackPointExtension/v1">
            <gpxtpx:hr>107</gpxtpx:hr>
          </gpxtpx:TrackPointExtension>
        </extensions>
      </trkpt>
      <trkpt lat="48.65389" lon="2.08208">
        <ele>173</ele>
        <time>2023-03-05T14:54:05Z</time>
        <extensions>
          <gpxtpx:TrackPointExtension xmlns:gpxtpx="http://www.garmin.com/xmlschemas/TrackPointExtension/v1">
            <gpxtpx:hr>107</gpxtpx:hr>
          </gpxtpx:TrackPointExtension>
        </extensions>
      </trkpt>
      <trkpt lat="48.6539" lon="2.08204">
        <ele>173</ele>
        <time>2023-03-05T14:54:07Z</time>
        <extensions>
          <gpxtpx:TrackPointExtension xmlns:gpxtpx="http://www.garmin.com/xmlschemas/TrackPointExtension/v1">
            <gpxtpx:hr>107</gpxtpx:hr>
          </gpxtpx:TrackPointExtension>
        </extensions>
      </trkpt>
      <trkpt lat="48.65391" lon="2.082">
        <ele>173</ele>
        <time>2023-03-05T14:54:09Z</time>
        <extensions>
          <gpxtpx:TrackPointExtension xmlns:gpxtpx="http://www.garmin.com/xmlschemas/TrackPointExtension/v1">
            <gpxtpx:hr>107</gpxtpx:hr>
          </gpxtpx:TrackPointExtension>
        </extensions>
      </trkpt>
      <trkpt lat="48.65392" lon="2.08196">
        <ele>173</ele>
        <time>2023-03-05T14:54:11Z</time>
        <extensions>
          <gpxtpx:TrackPointExtension xmlns:gpxtpx="http://www.garmin.com/xmlschemas/TrackPointExtension/v1">
            <gpxtpx:hr>107</gpxtpx:hr>
          </gpxtpx:TrackPointExtension>
        </extensions>
      </trkpt>
      <trkpt lat="48.65392" lon="2.08191">
        <ele>173</ele>
        <time>2023-03-05T14:54:13Z</time>
        <extensions>
          <gpxtpx:TrackPointExtension xmlns:gpxtpx="http://www.garmin.com/xmlschemas/TrackPointExtension/v1">
            <gpxtpx:hr>107</gpxtpx:hr>
          </gpxtpx:TrackPointExtension>
        </extensions>
      </trkpt>
      <trkpt lat="48.65392" lon="2.08187">
        <ele>173</ele>
        <time>2023-03-05T14:54:15Z</time>
        <extensions>
          <gpxtpx:TrackPointExtension xmlns:gpxtpx="http://www.garmin.com/xmlschemas/TrackPointExtension/v1">
            <gpxtpx:hr>107</gpxtpx:hr>
          </gpxtpx:TrackPointExtension>
        </extensions>
      </trkpt>
      <trkpt lat="48.65393" lon="2.08182">
        <ele>173.2</ele>
        <time>2023-03-05T14:54:17Z</time>
        <extensions>
          <gpxtpx:TrackPointExtension xmlns:gpxtpx="http://www.garmin.com/xmlschemas/TrackPointExtension/v1">
            <gpxtpx:hr>107</gpxtpx:hr>
          </gpxtpx:TrackPointExtension>
        </extensions>
      </trkpt>
      <trkpt lat="48.65393" lon="2.08177">
        <ele>173.2</ele>
        <time>2023-03-05T14:54:19Z</time>
        <extensions>
          <gpxtpx:TrackPointExtension xmlns:gpxtpx="http://www.garmin.com/xmlschemas/TrackPointExtension/v1">
            <gpxtpx:hr>108</gpxtpx:hr>
          </gpxtpx:TrackPointExtension>
        </extensions>
      </trkpt>
      <trkpt lat="48.65394" lon="2.08172">
        <ele>173.4</ele>
        <time>2023-03-05T14:54:21Z</time>
        <extensions>
          <gpxtpx:TrackPointExtension xmlns:gpxtpx="http://www.garmin.com/xmlschemas/TrackPointExtension/v1">
            <gpxtpx:hr>108</gpxtpx:hr>
          </gpxtpx:TrackPointExtension>
        </extensions>
      </trkpt>
      <trkpt lat="48.65394" lon="2.08167">
        <ele>173.4</ele>
        <time>2023-03-05T14:54:23Z</time>
        <extensions>
          <gpxtpx:TrackPointExtension xmlns:gpxtpx="http://www.garmin.com/xmlschemas/TrackPointExtension/v1">
            <gpxtpx:hr>108</gpxtpx:hr>
          </gpxtpx:TrackPointExtension>
        </extensions>
      </trkpt>
      <trkpt lat="48.65395" lon="2.08162">
        <ele>173.6</ele>
        <time>2023-03-05T14:54:25Z</time>
        <extensions>
          <gpxtpx:TrackPointExtension xmlns:gpxtpx="http://www.garmin.com/xmlschemas/TrackPointExtension/v1">
            <gpxtpx:hr>108</gpxtpx:hr>
          </gpxtpx:TrackPointExtension>
        </extensions>
      </trkpt>
      <trkpt lat="48.65396" lon="2.08158">
        <ele>173.4</ele>
        <time>2023-03-05T14:54:27Z</time>
        <extensions>
          <gpxtpx:TrackPointExtension xmlns:gpxtpx="http://www.garmin.com/xmlschemas/TrackPointExtension/v1">
            <gpxtpx:hr>108</gpxtpx:hr>
          </gpxtpx:TrackPointExtension>
        </extensions>
      </trkpt>
      <trkpt lat="48.65396" lon="2.08154">
        <ele>173.4</ele>
        <time>2023-03-05T14:54:29Z</time>
        <extensions>
          <gpxtpx:TrackPointExtension xmlns:gpxtpx="http://www.garmin.com/xmlschemas/TrackPointExtension/v1">
            <gpxtpx:hr>108</gpxtpx:hr>
          </gpxtpx:TrackPointExtension>
        </extensions>
      </trkpt>
      <trkpt lat="48.65397" lon="2.0815">
        <ele>173.4</ele>
        <time>2023-03-05T14:54:31Z</time>
        <extensions>
          <gpxtpx:TrackPointExtension xmlns:gpxtpx="http://www.garmin.com/xmlschemas/TrackPointExtension/v1">
            <gpxtpx:hr>108</gpxtpx:hr>
          </gpxtpx:TrackPointExtension>
        </extensions>
      </trkpt>
      <trkpt lat="48.65397" lon="2.08146">
        <ele>173.4</ele>
        <time>2023-03-05T14:54:33Z</time>
        <extensions>
          <gpxtpx:TrackPointExtension xmlns:gpxtpx="http://www.garmin.com/xmlschemas/TrackPointExtension/v1">
            <gpxtpx:hr>108</gpxtpx:hr>
          </gpxtpx:TrackPointExtension>
        </extensions>
      </trkpt>
      <trkpt lat="48.65398" lon="2.08142">
        <ele>173.2</ele>
        <time>2023-03-05T14:54:35Z</time>
        <extensions>
          <gpxtpx:TrackPointExtension xmlns:gpxtpx="http://www.garmin.com/xmlschemas/TrackPointExtension/v1">
            <gpxtpx:hr>108</gpxtpx:hr>
          </gpxtpx:TrackPointExtension>
        </extensions>
      </trkpt>
      <trkpt lat="48.65399" lon="2.08138">
        <ele>173.2</ele>
        <time>2023-03-05T14:54:37Z</time>
        <extensions>
          <gpxtpx:TrackPointExtension xmlns:gpxtpx="http://www.garmin.com/xmlschemas/TrackPointExtension/v1">
            <gpxtpx:hr>108</gpxtpx:hr>
          </gpxtpx:TrackPointExtension>
        </extensions>
      </trkpt>
      <trkpt lat="48.654" lon="2.08133">
        <ele>173</ele>
        <time>2023-03-05T14:54:39Z</time>
        <extensions>
          <gpxtpx:TrackPointExtension xmlns:gpxtpx="http://www.garmin.com/xmlschemas/TrackPointExtension/v1">
            <gpxtpx:hr>108</gpxtpx:hr>
          </gpxtpx:TrackPointExtension>
        </extensions>
      </trkpt>
      <trkpt lat="48.65401" lon="2.08128">
        <ele>173</ele>
        <time>2023-03-05T14:54:41Z</time>
        <extensions>
          <gpxtpx:TrackPointExtension xmlns:gpxtpx="http://www.garmin.com/xmlschemas/TrackPointExtension/v1">
            <gpxtpx:hr>109</gpxtpx:hr>
          </gpxtpx:TrackPointExtension>
        </extensions>
      </trkpt>
      <trkpt lat="48.65402" lon="2.08124">
        <ele>173</ele>
        <time>2023-03-05T14:54:43Z</time>
        <extensions>
          <gpxtpx:TrackPointExtension xmlns:gpxtpx="http://www.garmin.com/xmlschemas/TrackPointExtension/v1">
            <gpxtpx:hr>108</gpxtpx:hr>
          </gpxtpx:TrackPointExtension>
        </extensions>
      </trkpt>
      <trkpt lat="48.65403" lon="2.08119">
        <ele>173</ele>
        <time>2023-03-05T14:54:45Z</time>
        <extensions>
          <gpxtpx:TrackPointExtension xmlns:gpxtpx="http://www.garmin.com/xmlschemas/TrackPointExtension/v1">
            <gpxtpx:hr>108</gpxtpx:hr>
          </gpxtpx:TrackPointExtension>
        </extensions>
      </trkpt>
      <trkpt lat="48.65404" lon="2.08114">
        <ele>173</ele>
        <time>2023-03-05T14:54:47Z</time>
        <extensions>
          <gpxtpx:TrackPointExtension xmlns:gpxtpx="http://www.garmin.com/xmlschemas/TrackPointExtension/v1">
            <gpxtpx:hr>108</gpxtpx:hr>
          </gpxtpx:TrackPointExtension>
        </extensions>
      </trkpt>
      <trkpt lat="48.65404" lon="2.08109">
        <ele>173</ele>
        <time>2023-03-05T14:54:49Z</time>
        <extensions>
          <gpxtpx:TrackPointExtension xmlns:gpxtpx="http://www.garmin.com/xmlschemas/TrackPointExtension/v1">
            <gpxtpx:hr>108</gpxtpx:hr>
          </gpxtpx:TrackPointExtension>
        </extensions>
      </trkpt>
      <trkpt lat="48.65404" lon="2.08105">
        <ele>173</ele>
        <time>2023-03-05T14:54:51Z</time>
        <extensions>
          <gpxtpx:TrackPointExtension xmlns:gpxtpx="http://www.garmin.com/xmlschemas/TrackPointExtension/v1">
            <gpxtpx:hr>108</gpxtpx:hr>
          </gpxtpx:TrackPointExtension>
        </extensions>
      </trkpt>
      <trkpt lat="48.65405" lon="2.081">
        <ele>173</ele>
        <time>2023-03-05T14:54:53Z</time>
        <extensions>
          <gpxtpx:TrackPointExtension xmlns:gpxtpx="http://www.garmin.com/xmlschemas/TrackPointExtension/v1">
            <gpxtpx:hr>108</gpxtpx:hr>
          </gpxtpx:TrackPointExtension>
        </extensions>
      </trkpt>
      <trkpt lat="48.65406" lon="2.08096">
        <ele>173</ele>
        <time>2023-03-05T14:54:55Z</time>
        <extensions>
          <gpxtpx:TrackPointExtension xmlns:gpxtpx="http://www.garmin.com/xmlschemas/TrackPointExtension/v1">
            <gpxtpx:hr>108</gpxtpx:hr>
          </gpxtpx:TrackPointExtension>
        </extensions>
      </trkpt>
      <trkpt lat="48.65406" lon="2.08092">
        <ele>173</ele>
        <time>2023-03-05T14:54:57Z</time>
        <extensions>
          <gpxtpx:TrackPointExtension xmlns:gpxtpx="http://www.garmin.com/xmlschemas/TrackPointExtension/v1">
            <gpxtpx:hr>108</gpxtpx:hr>
          </gpxtpx:TrackPointExtension>
        </extensions>
      </trkpt>
      <trkpt lat="48.65407" lon="2.08087">
        <ele>172.8</ele>
        <time>2023-03-05T14:54:59Z</time>
        <extensions>
          <gpxtpx:TrackPointExtension xmlns:gpxtpx="http://www.garmin.com/xmlschemas/TrackPointExtension/v1">
            <gpxtpx:hr>108</gpxtpx:hr>
          </gpxtpx:TrackPointExtension>
        </extensions>
      </trkpt>
      <trkpt lat="48.65408" lon="2.08083">
        <ele>173</ele>
        <time>2023-03-05T14:55:01Z</time>
        <extensions>
          <gpxtpx:TrackPointExtension xmlns:gpxtpx="http://www.garmin.com/xmlschemas/TrackPointExtension/v1">
            <gpxtpx:hr>108</gpxtpx:hr>
          </gpxtpx:TrackPointExtension>
        </extensions>
      </trkpt>
      <trkpt lat="48.65408" lon="2.08079">
        <ele>172.8</ele>
        <time>2023-03-05T14:55:03Z</time>
        <extensions>
          <gpxtpx:TrackPointExtension xmlns:gpxtpx="http://www.garmin.com/xmlschemas/TrackPointExtension/v1">
            <gpxtpx:hr>108</gpxtpx:hr>
          </gpxtpx:TrackPointExtension>
        </extensions>
      </trkpt>
      <trkpt lat="48.65409" lon="2.08075">
        <ele>172.8</ele>
        <time>2023-03-05T14:55:05Z</time>
        <extensions>
          <gpxtpx:TrackPointExtension xmlns:gpxtpx="http://www.garmin.com/xmlschemas/TrackPointExtension/v1">
            <gpxtpx:hr>108</gpxtpx:hr>
          </gpxtpx:TrackPointExtension>
        </extensions>
      </trkpt>
      <trkpt lat="48.6541" lon="2.08071">
        <ele>172.8</ele>
        <time>2023-03-05T14:55:07Z</time>
        <extensions>
          <gpxtpx:TrackPointExtension xmlns:gpxtpx="http://www.garmin.com/xmlschemas/TrackPointExtension/v1">
            <gpxtpx:hr>108</gpxtpx:hr>
          </gpxtpx:TrackPointExtension>
        </extensions>
      </trkpt>
      <trkpt lat="48.65411" lon="2.08066">
        <ele>172.8</ele>
        <time>2023-03-05T14:55:09Z</time>
        <extensions>
          <gpxtpx:TrackPointExtension xmlns:gpxtpx="http://www.garmin.com/xmlschemas/TrackPointExtension/v1">
            <gpxtpx:hr>108</gpxtpx:hr>
          </gpxtpx:TrackPointExtension>
        </extensions>
      </trkpt>
      <trkpt lat="48.65412" lon="2.08062">
        <ele>172.6</ele>
        <time>2023-03-05T14:55:11Z</time>
        <extensions>
          <gpxtpx:TrackPointExtension xmlns:gpxtpx="http://www.garmin.com/xmlschemas/TrackPointExtension/v1">
            <gpxtpx:hr>108</gpxtpx:hr>
          </gpxtpx:TrackPointExtension>
        </extensions>
      </trkpt>
      <trkpt lat="48.65412" lon="2.08057">
        <ele>172.6</ele>
        <time>2023-03-05T14:55:13Z</time>
        <extensions>
          <gpxtpx:TrackPointExtension xmlns:gpxtpx="http://www.garmin.com/xmlschemas/TrackPointExtension/v1">
            <gpxtpx:hr>108</gpxtpx:hr>
          </gpxtpx:TrackPointExtension>
        </extensions>
      </trkpt>
      <trkpt lat="48.65413" lon="2.08052">
        <ele>172.4</ele>
        <time>2023-03-05T14:55:15Z</time>
        <extensions>
          <gpxtpx:TrackPointExtension xmlns:gpxtpx="http://www.garmin.com/xmlschemas/TrackPointExtension/v1">
            <gpxtpx:hr>108</gpxtpx:hr>
          </gpxtpx:TrackPointExtension>
        </extensions>
      </trkpt>
      <trkpt lat="48.65414" lon="2.0805">
        <ele>172.2</ele>
        <time>2023-03-05T14:55:16Z</time>
        <extensions>
          <gpxtpx:TrackPointExtension xmlns:gpxtpx="http://www.garmin.com/xmlschemas/TrackPointExtension/v1">
            <gpxtpx:hr>108</gpxtpx:hr>
          </gpxtpx:TrackPointExtension>
        </extensions>
      </trkpt>
      <trkpt lat="48.65414" lon="2.08045">
        <ele>172</ele>
        <time>2023-03-05T14:55:18Z</time>
        <extensions>
          <gpxtpx:TrackPointExtension xmlns:gpxtpx="http://www.garmin.com/xmlschemas/TrackPointExtension/v1">
            <gpxtpx:hr>108</gpxtpx:hr>
          </gpxtpx:TrackPointExtension>
        </extensions>
      </trkpt>
      <trkpt lat="48.65415" lon="2.0804">
        <ele>172</ele>
        <time>2023-03-05T14:55:20Z</time>
        <extensions>
          <gpxtpx:TrackPointExtension xmlns:gpxtpx="http://www.garmin.com/xmlschemas/TrackPointExtension/v1">
            <gpxtpx:hr>108</gpxtpx:hr>
          </gpxtpx:TrackPointExtension>
        </extensions>
      </trkpt>
      <trkpt lat="48.65416" lon="2.08035">
        <ele>172</ele>
        <time>2023-03-05T14:55:22Z</time>
        <extensions>
          <gpxtpx:TrackPointExtension xmlns:gpxtpx="http://www.garmin.com/xmlschemas/TrackPointExtension/v1">
            <gpxtpx:hr>108</gpxtpx:hr>
          </gpxtpx:TrackPointExtension>
        </extensions>
      </trkpt>
      <trkpt lat="48.65417" lon="2.08031">
        <ele>172</ele>
        <time>2023-03-05T14:55:24Z</time>
        <extensions>
          <gpxtpx:TrackPointExtension xmlns:gpxtpx="http://www.garmin.com/xmlschemas/TrackPointExtension/v1">
            <gpxtpx:hr>108</gpxtpx:hr>
          </gpxtpx:TrackPointExtension>
        </extensions>
      </trkpt>
      <trkpt lat="48.65418" lon="2.08027">
        <ele>172</ele>
        <time>2023-03-05T14:55:26Z</time>
        <extensions>
          <gpxtpx:TrackPointExtension xmlns:gpxtpx="http://www.garmin.com/xmlschemas/TrackPointExtension/v1">
            <gpxtpx:hr>108</gpxtpx:hr>
          </gpxtpx:TrackPointExtension>
        </extensions>
      </trkpt>
      <trkpt lat="48.65419" lon="2.08022">
        <ele>172</ele>
        <time>2023-03-05T14:55:28Z</time>
        <extensions>
          <gpxtpx:TrackPointExtension xmlns:gpxtpx="http://www.garmin.com/xmlschemas/TrackPointExtension/v1">
            <gpxtpx:hr>108</gpxtpx:hr>
          </gpxtpx:TrackPointExtension>
        </extensions>
      </trkpt>
      <trkpt lat="48.6542" lon="2.08018">
        <ele>172</ele>
        <time>2023-03-05T14:55:30Z</time>
        <extensions>
          <gpxtpx:TrackPointExtension xmlns:gpxtpx="http://www.garmin.com/xmlschemas/TrackPointExtension/v1">
            <gpxtpx:hr>108</gpxtpx:hr>
          </gpxtpx:TrackPointExtension>
        </extensions>
      </trkpt>
      <trkpt lat="48.6542" lon="2.08013">
        <ele>172</ele>
        <time>2023-03-05T14:55:32Z</time>
        <extensions>
          <gpxtpx:TrackPointExtension xmlns:gpxtpx="http://www.garmin.com/xmlschemas/TrackPointExtension/v1">
            <gpxtpx:hr>108</gpxtpx:hr>
          </gpxtpx:TrackPointExtension>
        </extensions>
      </trkpt>
      <trkpt lat="48.6542" lon="2.08009">
        <ele>172</ele>
        <time>2023-03-05T14:55:34Z</time>
        <extensions>
          <gpxtpx:TrackPointExtension xmlns:gpxtpx="http://www.garmin.com/xmlschemas/TrackPointExtension/v1">
            <gpxtpx:hr>108</gpxtpx:hr>
          </gpxtpx:TrackPointExtension>
        </extensions>
      </trkpt>
      <trkpt lat="48.65421" lon="2.08004">
        <ele>172</ele>
        <time>2023-03-05T14:55:36Z</time>
        <extensions>
          <gpxtpx:TrackPointExtension xmlns:gpxtpx="http://www.garmin.com/xmlschemas/TrackPointExtension/v1">
            <gpxtpx:hr>108</gpxtpx:hr>
          </gpxtpx:TrackPointExtension>
        </extensions>
      </trkpt>
      <trkpt lat="48.65421" lon="2.08">
        <ele>172</ele>
        <time>2023-03-05T14:55:38Z</time>
        <extensions>
          <gpxtpx:TrackPointExtension xmlns:gpxtpx="http://www.garmin.com/xmlschemas/TrackPointExtension/v1">
            <gpxtpx:hr>108</gpxtpx:hr>
          </gpxtpx:TrackPointExtension>
        </extensions>
      </trkpt>
      <trkpt lat="48.65422" lon="2.07995">
        <ele>172.2</ele>
        <time>2023-03-05T14:55:40Z</time>
        <extensions>
          <gpxtpx:TrackPointExtension xmlns:gpxtpx="http://www.garmin.com/xmlschemas/TrackPointExtension/v1">
            <gpxtpx:hr>108</gpxtpx:hr>
          </gpxtpx:TrackPointExtension>
        </extensions>
      </trkpt>
      <trkpt lat="48.65422" lon="2.07991">
        <ele>172.2</ele>
        <time>2023-03-05T14:55:42Z</time>
        <extensions>
          <gpxtpx:TrackPointExtension xmlns:gpxtpx="http://www.garmin.com/xmlschemas/TrackPointExtension/v1">
            <gpxtpx:hr>108</gpxtpx:hr>
          </gpxtpx:TrackPointExtension>
        </extensions>
      </trkpt>
      <trkpt lat="48.65423" lon="2.07987">
        <ele>172.2</ele>
        <time>2023-03-05T14:55:44Z</time>
        <extensions>
          <gpxtpx:TrackPointExtension xmlns:gpxtpx="http://www.garmin.com/xmlschemas/TrackPointExtension/v1">
            <gpxtpx:hr>107</gpxtpx:hr>
          </gpxtpx:TrackPointExtension>
        </extensions>
      </trkpt>
      <trkpt lat="48.65424" lon="2.07983">
        <ele>172</ele>
        <time>2023-03-05T14:55:46Z</time>
        <extensions>
          <gpxtpx:TrackPointExtension xmlns:gpxtpx="http://www.garmin.com/xmlschemas/TrackPointExtension/v1">
            <gpxtpx:hr>107</gpxtpx:hr>
          </gpxtpx:TrackPointExtension>
        </extensions>
      </trkpt>
      <trkpt lat="48.65425" lon="2.07979">
        <ele>172</ele>
        <time>2023-03-05T14:55:48Z</time>
        <extensions>
          <gpxtpx:TrackPointExtension xmlns:gpxtpx="http://www.garmin.com/xmlschemas/TrackPointExtension/v1">
            <gpxtpx:hr>107</gpxtpx:hr>
          </gpxtpx:TrackPointExtension>
        </extensions>
      </trkpt>
      <trkpt lat="48.65426" lon="2.07975">
        <ele>171.8</ele>
        <time>2023-03-05T14:55:50Z</time>
        <extensions>
          <gpxtpx:TrackPointExtension xmlns:gpxtpx="http://www.garmin.com/xmlschemas/TrackPointExtension/v1">
            <gpxtpx:hr>107</gpxtpx:hr>
          </gpxtpx:TrackPointExtension>
        </extensions>
      </trkpt>
      <trkpt lat="48.65426" lon="2.07971">
        <ele>171.8</ele>
        <time>2023-03-05T14:55:52Z</time>
        <extensions>
          <gpxtpx:TrackPointExtension xmlns:gpxtpx="http://www.garmin.com/xmlschemas/TrackPointExtension/v1">
            <gpxtpx:hr>107</gpxtpx:hr>
          </gpxtpx:TrackPointExtension>
        </extensions>
      </trkpt>
      <trkpt lat="48.65427" lon="2.07967">
        <ele>171.6</ele>
        <time>2023-03-05T14:55:54Z</time>
        <extensions>
          <gpxtpx:TrackPointExtension xmlns:gpxtpx="http://www.garmin.com/xmlschemas/TrackPointExtension/v1">
            <gpxtpx:hr>107</gpxtpx:hr>
          </gpxtpx:TrackPointExtension>
        </extensions>
      </trkpt>
      <trkpt lat="48.65427" lon="2.07963">
        <ele>171.6</ele>
        <time>2023-03-05T14:55:56Z</time>
        <extensions>
          <gpxtpx:TrackPointExtension xmlns:gpxtpx="http://www.garmin.com/xmlschemas/TrackPointExtension/v1">
            <gpxtpx:hr>107</gpxtpx:hr>
          </gpxtpx:TrackPointExtension>
        </extensions>
      </trkpt>
      <trkpt lat="48.65428" lon="2.07958">
        <ele>171.6</ele>
        <time>2023-03-05T14:55:58Z</time>
        <extensions>
          <gpxtpx:TrackPointExtension xmlns:gpxtpx="http://www.garmin.com/xmlschemas/TrackPointExtension/v1">
            <gpxtpx:hr>107</gpxtpx:hr>
          </gpxtpx:TrackPointExtension>
        </extensions>
      </trkpt>
      <trkpt lat="48.65428" lon="2.07954">
        <ele>171.4</ele>
        <time>2023-03-05T14:56:00Z</time>
        <extensions>
          <gpxtpx:TrackPointExtension xmlns:gpxtpx="http://www.garmin.com/xmlschemas/TrackPointExtension/v1">
            <gpxtpx:hr>107</gpxtpx:hr>
          </gpxtpx:TrackPointExtension>
        </extensions>
      </trkpt>
      <trkpt lat="48.65428" lon="2.0795">
        <ele>171.4</ele>
        <time>2023-03-05T14:56:02Z</time>
        <extensions>
          <gpxtpx:TrackPointExtension xmlns:gpxtpx="http://www.garmin.com/xmlschemas/TrackPointExtension/v1">
            <gpxtpx:hr>107</gpxtpx:hr>
          </gpxtpx:TrackPointExtension>
        </extensions>
      </trkpt>
      <trkpt lat="48.65429" lon="2.07946">
        <ele>171.4</ele>
        <time>2023-03-05T14:56:04Z</time>
        <extensions>
          <gpxtpx:TrackPointExtension xmlns:gpxtpx="http://www.garmin.com/xmlschemas/TrackPointExtension/v1">
            <gpxtpx:hr>107</gpxtpx:hr>
          </gpxtpx:TrackPointExtension>
        </extensions>
      </trkpt>
      <trkpt lat="48.6543" lon="2.07942">
        <ele>171.6</ele>
        <time>2023-03-05T14:56:06Z</time>
        <extensions>
          <gpxtpx:TrackPointExtension xmlns:gpxtpx="http://www.garmin.com/xmlschemas/TrackPointExtension/v1">
            <gpxtpx:hr>107</gpxtpx:hr>
          </gpxtpx:TrackPointExtension>
        </extensions>
      </trkpt>
      <trkpt lat="48.65431" lon="2.07937">
        <ele>171.6</ele>
        <time>2023-03-05T14:56:08Z</time>
        <extensions>
          <gpxtpx:TrackPointExtension xmlns:gpxtpx="http://www.garmin.com/xmlschemas/TrackPointExtension/v1">
            <gpxtpx:hr>108</gpxtpx:hr>
          </gpxtpx:TrackPointExtension>
        </extensions>
      </trkpt>
      <trkpt lat="48.65432" lon="2.07932">
        <ele>171.6</ele>
        <time>2023-03-05T14:56:10Z</time>
        <extensions>
          <gpxtpx:TrackPointExtension xmlns:gpxtpx="http://www.garmin.com/xmlschemas/TrackPointExtension/v1">
            <gpxtpx:hr>107</gpxtpx:hr>
          </gpxtpx:TrackPointExtension>
        </extensions>
      </trkpt>
      <trkpt lat="48.65432" lon="2.07927">
        <ele>171.8</ele>
        <time>2023-03-05T14:56:12Z</time>
        <extensions>
          <gpxtpx:TrackPointExtension xmlns:gpxtpx="http://www.garmin.com/xmlschemas/TrackPointExtension/v1">
            <gpxtpx:hr>107</gpxtpx:hr>
          </gpxtpx:TrackPointExtension>
        </extensions>
      </trkpt>
      <trkpt lat="48.65434" lon="2.07922">
        <ele>171.8</ele>
        <time>2023-03-05T14:56:14Z</time>
        <extensions>
          <gpxtpx:TrackPointExtension xmlns:gpxtpx="http://www.garmin.com/xmlschemas/TrackPointExtension/v1">
            <gpxtpx:hr>107</gpxtpx:hr>
          </gpxtpx:TrackPointExtension>
        </extensions>
      </trkpt>
      <trkpt lat="48.65434" lon="2.07918">
        <ele>171.8</ele>
        <time>2023-03-05T14:56:16Z</time>
        <extensions>
          <gpxtpx:TrackPointExtension xmlns:gpxtpx="http://www.garmin.com/xmlschemas/TrackPointExtension/v1">
            <gpxtpx:hr>107</gpxtpx:hr>
          </gpxtpx:TrackPointExtension>
        </extensions>
      </trkpt>
      <trkpt lat="48.65435" lon="2.07913">
        <ele>171.8</ele>
        <time>2023-03-05T14:56:18Z</time>
        <extensions>
          <gpxtpx:TrackPointExtension xmlns:gpxtpx="http://www.garmin.com/xmlschemas/TrackPointExtension/v1">
            <gpxtpx:hr>108</gpxtpx:hr>
          </gpxtpx:TrackPointExtension>
        </extensions>
      </trkpt>
      <trkpt lat="48.65436" lon="2.07909">
        <ele>171.8</ele>
        <time>2023-03-05T14:56:20Z</time>
        <extensions>
          <gpxtpx:TrackPointExtension xmlns:gpxtpx="http://www.garmin.com/xmlschemas/TrackPointExtension/v1">
            <gpxtpx:hr>108</gpxtpx:hr>
          </gpxtpx:TrackPointExtension>
        </extensions>
      </trkpt>
      <trkpt lat="48.65436" lon="2.07905">
        <ele>171.8</ele>
        <time>2023-03-05T14:56:22Z</time>
        <extensions>
          <gpxtpx:TrackPointExtension xmlns:gpxtpx="http://www.garmin.com/xmlschemas/TrackPointExtension/v1">
            <gpxtpx:hr>108</gpxtpx:hr>
          </gpxtpx:TrackPointExtension>
        </extensions>
      </trkpt>
      <trkpt lat="48.65436" lon="2.07901">
        <ele>171.8</ele>
        <time>2023-03-05T14:56:24Z</time>
        <extensions>
          <gpxtpx:TrackPointExtension xmlns:gpxtpx="http://www.garmin.com/xmlschemas/TrackPointExtension/v1">
            <gpxtpx:hr>108</gpxtpx:hr>
          </gpxtpx:TrackPointExtension>
        </extensions>
      </trkpt>
      <trkpt lat="48.65437" lon="2.07897">
        <ele>171.8</ele>
        <time>2023-03-05T14:56:26Z</time>
        <extensions>
          <gpxtpx:TrackPointExtension xmlns:gpxtpx="http://www.garmin.com/xmlschemas/TrackPointExtension/v1">
            <gpxtpx:hr>107</gpxtpx:hr>
          </gpxtpx:TrackPointExtension>
        </extensions>
      </trkpt>
      <trkpt lat="48.65437" lon="2.07893">
        <ele>171.8</ele>
        <time>2023-03-05T14:56:28Z</time>
        <extensions>
          <gpxtpx:TrackPointExtension xmlns:gpxtpx="http://www.garmin.com/xmlschemas/TrackPointExtension/v1">
            <gpxtpx:hr>107</gpxtpx:hr>
          </gpxtpx:TrackPointExtension>
        </extensions>
      </trkpt>
      <trkpt lat="48.65438" lon="2.07889">
        <ele>171.8</ele>
        <time>2023-03-05T14:56:30Z</time>
        <extensions>
          <gpxtpx:TrackPointExtension xmlns:gpxtpx="http://www.garmin.com/xmlschemas/TrackPointExtension/v1">
            <gpxtpx:hr>107</gpxtpx:hr>
          </gpxtpx:TrackPointExtension>
        </extensions>
      </trkpt>
      <trkpt lat="48.65438" lon="2.07884">
        <ele>171.6</ele>
        <time>2023-03-05T14:56:32Z</time>
        <extensions>
          <gpxtpx:TrackPointExtension xmlns:gpxtpx="http://www.garmin.com/xmlschemas/TrackPointExtension/v1">
            <gpxtpx:hr>107</gpxtpx:hr>
          </gpxtpx:TrackPointExtension>
        </extensions>
      </trkpt>
      <trkpt lat="48.65439" lon="2.0788">
        <ele>171.6</ele>
        <time>2023-03-05T14:56:34Z</time>
        <extensions>
          <gpxtpx:TrackPointExtension xmlns:gpxtpx="http://www.garmin.com/xmlschemas/TrackPointExtension/v1">
            <gpxtpx:hr>107</gpxtpx:hr>
          </gpxtpx:TrackPointExtension>
        </extensions>
      </trkpt>
      <trkpt lat="48.6544" lon="2.07876">
        <ele>171.6</ele>
        <time>2023-03-05T14:56:36Z</time>
        <extensions>
          <gpxtpx:TrackPointExtension xmlns:gpxtpx="http://www.garmin.com/xmlschemas/TrackPointExtension/v1">
            <gpxtpx:hr>107</gpxtpx:hr>
          </gpxtpx:TrackPointExtension>
        </extensions>
      </trkpt>
      <trkpt lat="48.65441" lon="2.07872">
        <ele>171.6</ele>
        <time>2023-03-05T14:56:38Z</time>
        <extensions>
          <gpxtpx:TrackPointExtension xmlns:gpxtpx="http://www.garmin.com/xmlschemas/TrackPointExtension/v1">
            <gpxtpx:hr>107</gpxtpx:hr>
          </gpxtpx:TrackPointExtension>
        </extensions>
      </trkpt>
      <trkpt lat="48.65441" lon="2.07868">
        <ele>171.4</ele>
        <time>2023-03-05T14:56:40Z</time>
        <extensions>
          <gpxtpx:TrackPointExtension xmlns:gpxtpx="http://www.garmin.com/xmlschemas/TrackPointExtension/v1">
            <gpxtpx:hr>107</gpxtpx:hr>
          </gpxtpx:TrackPointExtension>
        </extensions>
      </trkpt>
      <trkpt lat="48.65442" lon="2.07864">
        <ele>171.4</ele>
        <time>2023-03-05T14:56:42Z</time>
        <extensions>
          <gpxtpx:TrackPointExtension xmlns:gpxtpx="http://www.garmin.com/xmlschemas/TrackPointExtension/v1">
            <gpxtpx:hr>107</gpxtpx:hr>
          </gpxtpx:TrackPointExtension>
        </extensions>
      </trkpt>
      <trkpt lat="48.65442" lon="2.0786">
        <ele>171.2</ele>
        <time>2023-03-05T14:56:44Z</time>
        <extensions>
          <gpxtpx:TrackPointExtension xmlns:gpxtpx="http://www.garmin.com/xmlschemas/TrackPointExtension/v1">
            <gpxtpx:hr>107</gpxtpx:hr>
          </gpxtpx:TrackPointExtension>
        </extensions>
      </trkpt>
      <trkpt lat="48.65443" lon="2.07856">
        <ele>171.4</ele>
        <time>2023-03-05T14:56:46Z</time>
        <extensions>
          <gpxtpx:TrackPointExtension xmlns:gpxtpx="http://www.garmin.com/xmlschemas/TrackPointExtension/v1">
            <gpxtpx:hr>107</gpxtpx:hr>
          </gpxtpx:TrackPointExtension>
        </extensions>
      </trkpt>
      <trkpt lat="48.65444" lon="2.07852">
        <ele>171.4</ele>
        <time>2023-03-05T14:56:48Z</time>
        <extensions>
          <gpxtpx:TrackPointExtension xmlns:gpxtpx="http://www.garmin.com/xmlschemas/TrackPointExtension/v1">
            <gpxtpx:hr>107</gpxtpx:hr>
          </gpxtpx:TrackPointExtension>
        </extensions>
      </trkpt>
      <trkpt lat="48.65444" lon="2.07848">
        <ele>171.6</ele>
        <time>2023-03-05T14:56:50Z</time>
        <extensions>
          <gpxtpx:TrackPointExtension xmlns:gpxtpx="http://www.garmin.com/xmlschemas/TrackPointExtension/v1">
            <gpxtpx:hr>107</gpxtpx:hr>
          </gpxtpx:TrackPointExtension>
        </extensions>
      </trkpt>
      <trkpt lat="48.65444" lon="2.07843">
        <ele>171.8</ele>
        <time>2023-03-05T14:56:52Z</time>
        <extensions>
          <gpxtpx:TrackPointExtension xmlns:gpxtpx="http://www.garmin.com/xmlschemas/TrackPointExtension/v1">
            <gpxtpx:hr>107</gpxtpx:hr>
          </gpxtpx:TrackPointExtension>
        </extensions>
      </trkpt>
      <trkpt lat="48.65444" lon="2.07839">
        <ele>171.8</ele>
        <time>2023-03-05T14:56:54Z</time>
        <extensions>
          <gpxtpx:TrackPointExtension xmlns:gpxtpx="http://www.garmin.com/xmlschemas/TrackPointExtension/v1">
            <gpxtpx:hr>107</gpxtpx:hr>
          </gpxtpx:TrackPointExtension>
        </extensions>
      </trkpt>
      <trkpt lat="48.65444" lon="2.07836">
        <ele>171.8</ele>
        <time>2023-03-05T14:56:56Z</time>
        <extensions>
          <gpxtpx:TrackPointExtension xmlns:gpxtpx="http://www.garmin.com/xmlschemas/TrackPointExtension/v1">
            <gpxtpx:hr>106</gpxtpx:hr>
          </gpxtpx:TrackPointExtension>
        </extensions>
      </trkpt>
      <trkpt lat="48.65445" lon="2.07832">
        <ele>171.8</ele>
        <time>2023-03-05T14:56:58Z</time>
        <extensions>
          <gpxtpx:TrackPointExtension xmlns:gpxtpx="http://www.garmin.com/xmlschemas/TrackPointExtension/v1">
            <gpxtpx:hr>106</gpxtpx:hr>
          </gpxtpx:TrackPointExtension>
        </extensions>
      </trkpt>
      <trkpt lat="48.65446" lon="2.07828">
        <ele>171.8</ele>
        <time>2023-03-05T14:57:00Z</time>
        <extensions>
          <gpxtpx:TrackPointExtension xmlns:gpxtpx="http://www.garmin.com/xmlschemas/TrackPointExtension/v1">
            <gpxtpx:hr>106</gpxtpx:hr>
          </gpxtpx:TrackPointExtension>
        </extensions>
      </trkpt>
      <trkpt lat="48.65446" lon="2.07825">
        <ele>171.8</ele>
        <time>2023-03-05T14:57:02Z</time>
        <extensions>
          <gpxtpx:TrackPointExtension xmlns:gpxtpx="http://www.garmin.com/xmlschemas/TrackPointExtension/v1">
            <gpxtpx:hr>106</gpxtpx:hr>
          </gpxtpx:TrackPointExtension>
        </extensions>
      </trkpt>
      <trkpt lat="48.65447" lon="2.07821">
        <ele>171.6</ele>
        <time>2023-03-05T14:57:04Z</time>
        <extensions>
          <gpxtpx:TrackPointExtension xmlns:gpxtpx="http://www.garmin.com/xmlschemas/TrackPointExtension/v1">
            <gpxtpx:hr>106</gpxtpx:hr>
          </gpxtpx:TrackPointExtension>
        </extensions>
      </trkpt>
      <trkpt lat="48.65448" lon="2.07816">
        <ele>171.6</ele>
        <time>2023-03-05T14:57:06Z</time>
        <extensions>
          <gpxtpx:TrackPointExtension xmlns:gpxtpx="http://www.garmin.com/xmlschemas/TrackPointExtension/v1">
            <gpxtpx:hr>107</gpxtpx:hr>
          </gpxtpx:TrackPointExtension>
        </extensions>
      </trkpt>
      <trkpt lat="48.65448" lon="2.07812">
        <ele>171.6</ele>
        <time>2023-03-05T14:57:08Z</time>
        <extensions>
          <gpxtpx:TrackPointExtension xmlns:gpxtpx="http://www.garmin.com/xmlschemas/TrackPointExtension/v1">
            <gpxtpx:hr>107</gpxtpx:hr>
          </gpxtpx:TrackPointExtension>
        </extensions>
      </trkpt>
      <trkpt lat="48.65449" lon="2.07808">
        <ele>171.8</ele>
        <time>2023-03-05T14:57:10Z</time>
        <extensions>
          <gpxtpx:TrackPointExtension xmlns:gpxtpx="http://www.garmin.com/xmlschemas/TrackPointExtension/v1">
            <gpxtpx:hr>107</gpxtpx:hr>
          </gpxtpx:TrackPointExtension>
        </extensions>
      </trkpt>
      <trkpt lat="48.6545" lon="2.07805">
        <ele>171.8</ele>
        <time>2023-03-05T14:57:12Z</time>
        <extensions>
          <gpxtpx:TrackPointExtension xmlns:gpxtpx="http://www.garmin.com/xmlschemas/TrackPointExtension/v1">
            <gpxtpx:hr>107</gpxtpx:hr>
          </gpxtpx:TrackPointExtension>
        </extensions>
      </trkpt>
      <trkpt lat="48.6545" lon="2.07801">
        <ele>171.8</ele>
        <time>2023-03-05T14:57:14Z</time>
        <extensions>
          <gpxtpx:TrackPointExtension xmlns:gpxtpx="http://www.garmin.com/xmlschemas/TrackPointExtension/v1">
            <gpxtpx:hr>107</gpxtpx:hr>
          </gpxtpx:TrackPointExtension>
        </extensions>
      </trkpt>
      <trkpt lat="48.6545" lon="2.07798">
        <ele>172</ele>
        <time>2023-03-05T14:57:16Z</time>
        <extensions>
          <gpxtpx:TrackPointExtension xmlns:gpxtpx="http://www.garmin.com/xmlschemas/TrackPointExtension/v1">
            <gpxtpx:hr>107</gpxtpx:hr>
          </gpxtpx:TrackPointExtension>
        </extensions>
      </trkpt>
      <trkpt lat="48.65451" lon="2.07794">
        <ele>172</ele>
        <time>2023-03-05T14:57:18Z</time>
        <extensions>
          <gpxtpx:TrackPointExtension xmlns:gpxtpx="http://www.garmin.com/xmlschemas/TrackPointExtension/v1">
            <gpxtpx:hr>107</gpxtpx:hr>
          </gpxtpx:TrackPointExtension>
        </extensions>
      </trkpt>
      <trkpt lat="48.65452" lon="2.0779">
        <ele>172</ele>
        <time>2023-03-05T14:57:20Z</time>
        <extensions>
          <gpxtpx:TrackPointExtension xmlns:gpxtpx="http://www.garmin.com/xmlschemas/TrackPointExtension/v1">
            <gpxtpx:hr>107</gpxtpx:hr>
          </gpxtpx:TrackPointExtension>
        </extensions>
      </trkpt>
      <trkpt lat="48.65452" lon="2.07787">
        <ele>172</ele>
        <time>2023-03-05T14:57:22Z</time>
        <extensions>
          <gpxtpx:TrackPointExtension xmlns:gpxtpx="http://www.garmin.com/xmlschemas/TrackPointExtension/v1">
            <gpxtpx:hr>107</gpxtpx:hr>
          </gpxtpx:TrackPointExtension>
        </extensions>
      </trkpt>
      <trkpt lat="48.65452" lon="2.07783">
        <ele>172</ele>
        <time>2023-03-05T14:57:24Z</time>
        <extensions>
          <gpxtpx:TrackPointExtension xmlns:gpxtpx="http://www.garmin.com/xmlschemas/TrackPointExtension/v1">
            <gpxtpx:hr>107</gpxtpx:hr>
          </gpxtpx:TrackPointExtension>
        </extensions>
      </trkpt>
      <trkpt lat="48.65453" lon="2.07779">
        <ele>172</ele>
        <time>2023-03-05T14:57:26Z</time>
        <extensions>
          <gpxtpx:TrackPointExtension xmlns:gpxtpx="http://www.garmin.com/xmlschemas/TrackPointExtension/v1">
            <gpxtpx:hr>107</gpxtpx:hr>
          </gpxtpx:TrackPointExtension>
        </extensions>
      </trkpt>
      <trkpt lat="48.65454" lon="2.07776">
        <ele>172</ele>
        <time>2023-03-05T14:57:28Z</time>
        <extensions>
          <gpxtpx:TrackPointExtension xmlns:gpxtpx="http://www.garmin.com/xmlschemas/TrackPointExtension/v1">
            <gpxtpx:hr>107</gpxtpx:hr>
          </gpxtpx:TrackPointExtension>
        </extensions>
      </trkpt>
      <trkpt lat="48.65454" lon="2.07772">
        <ele>172</ele>
        <time>2023-03-05T14:57:30Z</time>
        <extensions>
          <gpxtpx:TrackPointExtension xmlns:gpxtpx="http://www.garmin.com/xmlschemas/TrackPointExtension/v1">
            <gpxtpx:hr>107</gpxtpx:hr>
          </gpxtpx:TrackPointExtension>
        </extensions>
      </trkpt>
      <trkpt lat="48.65456" lon="2.07769">
        <ele>172</ele>
        <time>2023-03-05T14:57:32Z</time>
        <extensions>
          <gpxtpx:TrackPointExtension xmlns:gpxtpx="http://www.garmin.com/xmlschemas/TrackPointExtension/v1">
            <gpxtpx:hr>107</gpxtpx:hr>
          </gpxtpx:TrackPointExtension>
        </extensions>
      </trkpt>
      <trkpt lat="48.65456" lon="2.07765">
        <ele>172</ele>
        <time>2023-03-05T14:57:34Z</time>
        <extensions>
          <gpxtpx:TrackPointExtension xmlns:gpxtpx="http://www.garmin.com/xmlschemas/TrackPointExtension/v1">
            <gpxtpx:hr>107</gpxtpx:hr>
          </gpxtpx:TrackPointExtension>
        </extensions>
      </trkpt>
      <trkpt lat="48.65457" lon="2.07761">
        <ele>172</ele>
        <time>2023-03-05T14:57:36Z</time>
        <extensions>
          <gpxtpx:TrackPointExtension xmlns:gpxtpx="http://www.garmin.com/xmlschemas/TrackPointExtension/v1">
            <gpxtpx:hr>107</gpxtpx:hr>
          </gpxtpx:TrackPointExtension>
        </extensions>
      </trkpt>
      <trkpt lat="48.65458" lon="2.07757">
        <ele>171.8</ele>
        <time>2023-03-05T14:57:38Z</time>
        <extensions>
          <gpxtpx:TrackPointExtension xmlns:gpxtpx="http://www.garmin.com/xmlschemas/TrackPointExtension/v1">
            <gpxtpx:hr>107</gpxtpx:hr>
          </gpxtpx:TrackPointExtension>
        </extensions>
      </trkpt>
      <trkpt lat="48.65459" lon="2.07753">
        <ele>171.8</ele>
        <time>2023-03-05T14:57:40Z</time>
        <extensions>
          <gpxtpx:TrackPointExtension xmlns:gpxtpx="http://www.garmin.com/xmlschemas/TrackPointExtension/v1">
            <gpxtpx:hr>107</gpxtpx:hr>
          </gpxtpx:TrackPointExtension>
        </extensions>
      </trkpt>
      <trkpt lat="48.6546" lon="2.07749">
        <ele>171.8</ele>
        <time>2023-03-05T14:57:42Z</time>
        <extensions>
          <gpxtpx:TrackPointExtension xmlns:gpxtpx="http://www.garmin.com/xmlschemas/TrackPointExtension/v1">
            <gpxtpx:hr>106</gpxtpx:hr>
          </gpxtpx:TrackPointExtension>
        </extensions>
      </trkpt>
      <trkpt lat="48.6546" lon="2.07745">
        <ele>171.8</ele>
        <time>2023-03-05T14:57:44Z</time>
        <extensions>
          <gpxtpx:TrackPointExtension xmlns:gpxtpx="http://www.garmin.com/xmlschemas/TrackPointExtension/v1">
            <gpxtpx:hr>106</gpxtpx:hr>
          </gpxtpx:TrackPointExtension>
        </extensions>
      </trkpt>
      <trkpt lat="48.65461" lon="2.07741">
        <ele>171.8</ele>
        <time>2023-03-05T14:57:46Z</time>
        <extensions>
          <gpxtpx:TrackPointExtension xmlns:gpxtpx="http://www.garmin.com/xmlschemas/TrackPointExtension/v1">
            <gpxtpx:hr>106</gpxtpx:hr>
          </gpxtpx:TrackPointExtension>
        </extensions>
      </trkpt>
      <trkpt lat="48.65462" lon="2.07739">
        <ele>172</ele>
        <time>2023-03-05T14:57:48Z</time>
        <extensions>
          <gpxtpx:TrackPointExtension xmlns:gpxtpx="http://www.garmin.com/xmlschemas/TrackPointExtension/v1">
            <gpxtpx:hr>106</gpxtpx:hr>
          </gpxtpx:TrackPointExtension>
        </extensions>
      </trkpt>
      <trkpt lat="48.65464" lon="2.07737">
        <ele>171.8</ele>
        <time>2023-03-05T14:57:50Z</time>
        <extensions>
          <gpxtpx:TrackPointExtension xmlns:gpxtpx="http://www.garmin.com/xmlschemas/TrackPointExtension/v1">
            <gpxtpx:hr>106</gpxtpx:hr>
          </gpxtpx:TrackPointExtension>
        </extensions>
      </trkpt>
      <trkpt lat="48.65467" lon="2.07737">
        <ele>172</ele>
        <time>2023-03-05T14:57:52Z</time>
        <extensions>
          <gpxtpx:TrackPointExtension xmlns:gpxtpx="http://www.garmin.com/xmlschemas/TrackPointExtension/v1">
            <gpxtpx:hr>106</gpxtpx:hr>
          </gpxtpx:TrackPointExtension>
        </extensions>
      </trkpt>
      <trkpt lat="48.65469" lon="2.07738">
        <ele>172.2</ele>
        <time>2023-03-05T14:57:54Z</time>
        <extensions>
          <gpxtpx:TrackPointExtension xmlns:gpxtpx="http://www.garmin.com/xmlschemas/TrackPointExtension/v1">
            <gpxtpx:hr>106</gpxtpx:hr>
          </gpxtpx:TrackPointExtension>
        </extensions>
      </trkpt>
      <trkpt lat="48.65472" lon="2.0774">
        <ele>172.2</ele>
        <time>2023-03-05T14:57:56Z</time>
        <extensions>
          <gpxtpx:TrackPointExtension xmlns:gpxtpx="http://www.garmin.com/xmlschemas/TrackPointExtension/v1">
            <gpxtpx:hr>106</gpxtpx:hr>
          </gpxtpx:TrackPointExtension>
        </extensions>
      </trkpt>
      <trkpt lat="48.65476" lon="2.07742">
        <ele>172.2</ele>
        <time>2023-03-05T14:57:58Z</time>
        <extensions>
          <gpxtpx:TrackPointExtension xmlns:gpxtpx="http://www.garmin.com/xmlschemas/TrackPointExtension/v1">
            <gpxtpx:hr>106</gpxtpx:hr>
          </gpxtpx:TrackPointExtension>
        </extensions>
      </trkpt>
      <trkpt lat="48.65478" lon="2.07745">
        <ele>172.2</ele>
        <time>2023-03-05T14:58:00Z</time>
        <extensions>
          <gpxtpx:TrackPointExtension xmlns:gpxtpx="http://www.garmin.com/xmlschemas/TrackPointExtension/v1">
            <gpxtpx:hr>106</gpxtpx:hr>
          </gpxtpx:TrackPointExtension>
        </extensions>
      </trkpt>
      <trkpt lat="48.65481" lon="2.07747">
        <ele>172.2</ele>
        <time>2023-03-05T14:58:02Z</time>
        <extensions>
          <gpxtpx:TrackPointExtension xmlns:gpxtpx="http://www.garmin.com/xmlschemas/TrackPointExtension/v1">
            <gpxtpx:hr>106</gpxtpx:hr>
          </gpxtpx:TrackPointExtension>
        </extensions>
      </trkpt>
      <trkpt lat="48.65484" lon="2.07749">
        <ele>172.2</ele>
        <time>2023-03-05T14:58:04Z</time>
        <extensions>
          <gpxtpx:TrackPointExtension xmlns:gpxtpx="http://www.garmin.com/xmlschemas/TrackPointExtension/v1">
            <gpxtpx:hr>106</gpxtpx:hr>
          </gpxtpx:TrackPointExtension>
        </extensions>
      </trkpt>
      <trkpt lat="48.65486" lon="2.07752">
        <ele>172.2</ele>
        <time>2023-03-05T14:58:06Z</time>
        <extensions>
          <gpxtpx:TrackPointExtension xmlns:gpxtpx="http://www.garmin.com/xmlschemas/TrackPointExtension/v1">
            <gpxtpx:hr>106</gpxtpx:hr>
          </gpxtpx:TrackPointExtension>
        </extensions>
      </trkpt>
      <trkpt lat="48.65488" lon="2.07753">
        <ele>172.6</ele>
        <time>2023-03-05T14:58:08Z</time>
        <extensions>
          <gpxtpx:TrackPointExtension xmlns:gpxtpx="http://www.garmin.com/xmlschemas/TrackPointExtension/v1">
            <gpxtpx:hr>106</gpxtpx:hr>
          </gpxtpx:TrackPointExtension>
        </extensions>
      </trkpt>
      <trkpt lat="48.65491" lon="2.07755">
        <ele>172.6</ele>
        <time>2023-03-05T14:58:10Z</time>
        <extensions>
          <gpxtpx:TrackPointExtension xmlns:gpxtpx="http://www.garmin.com/xmlschemas/TrackPointExtension/v1">
            <gpxtpx:hr>106</gpxtpx:hr>
          </gpxtpx:TrackPointExtension>
        </extensions>
      </trkpt>
      <trkpt lat="48.65493" lon="2.07757">
        <ele>172.6</ele>
        <time>2023-03-05T14:58:12Z</time>
        <extensions>
          <gpxtpx:TrackPointExtension xmlns:gpxtpx="http://www.garmin.com/xmlschemas/TrackPointExtension/v1">
            <gpxtpx:hr>106</gpxtpx:hr>
          </gpxtpx:TrackPointExtension>
        </extensions>
      </trkpt>
      <trkpt lat="48.65496" lon="2.07759">
        <ele>172.6</ele>
        <time>2023-03-05T14:58:14Z</time>
        <extensions>
          <gpxtpx:TrackPointExtension xmlns:gpxtpx="http://www.garmin.com/xmlschemas/TrackPointExtension/v1">
            <gpxtpx:hr>107</gpxtpx:hr>
          </gpxtpx:TrackPointExtension>
        </extensions>
      </trkpt>
      <trkpt lat="48.65498" lon="2.0776">
        <ele>172.8</ele>
        <time>2023-03-05T14:58:16Z</time>
        <extensions>
          <gpxtpx:TrackPointExtension xmlns:gpxtpx="http://www.garmin.com/xmlschemas/TrackPointExtension/v1">
            <gpxtpx:hr>107</gpxtpx:hr>
          </gpxtpx:TrackPointExtension>
        </extensions>
      </trkpt>
      <trkpt lat="48.655" lon="2.07762">
        <ele>173</ele>
        <time>2023-03-05T14:58:18Z</time>
        <extensions>
          <gpxtpx:TrackPointExtension xmlns:gpxtpx="http://www.garmin.com/xmlschemas/TrackPointExtension/v1">
            <gpxtpx:hr>107</gpxtpx:hr>
          </gpxtpx:TrackPointExtension>
        </extensions>
      </trkpt>
      <trkpt lat="48.65501" lon="2.07764">
        <ele>173</ele>
        <time>2023-03-05T14:58:20Z</time>
        <extensions>
          <gpxtpx:TrackPointExtension xmlns:gpxtpx="http://www.garmin.com/xmlschemas/TrackPointExtension/v1">
            <gpxtpx:hr>107</gpxtpx:hr>
          </gpxtpx:TrackPointExtension>
        </extensions>
      </trkpt>
      <trkpt lat="48.65503" lon="2.07765">
        <ele>172.8</ele>
        <time>2023-03-05T14:58:22Z</time>
        <extensions>
          <gpxtpx:TrackPointExtension xmlns:gpxtpx="http://www.garmin.com/xmlschemas/TrackPointExtension/v1">
            <gpxtpx:hr>107</gpxtpx:hr>
          </gpxtpx:TrackPointExtension>
        </extensions>
      </trkpt>
      <trkpt lat="48.65505" lon="2.07764">
        <ele>172.8</ele>
        <time>2023-03-05T14:58:24Z</time>
        <extensions>
          <gpxtpx:TrackPointExtension xmlns:gpxtpx="http://www.garmin.com/xmlschemas/TrackPointExtension/v1">
            <gpxtpx:hr>107</gpxtpx:hr>
          </gpxtpx:TrackPointExtension>
        </extensions>
      </trkpt>
      <trkpt lat="48.65507" lon="2.07762">
        <ele>172.8</ele>
        <time>2023-03-05T14:58:27Z</time>
        <extensions>
          <gpxtpx:TrackPointExtension xmlns:gpxtpx="http://www.garmin.com/xmlschemas/TrackPointExtension/v1">
            <gpxtpx:hr>108</gpxtpx:hr>
          </gpxtpx:TrackPointExtension>
        </extensions>
      </trkpt>
      <trkpt lat="48.65506" lon="2.07759">
        <ele>172.2</ele>
        <time>2023-03-05T14:58:32Z</time>
        <extensions>
          <gpxtpx:TrackPointExtension xmlns:gpxtpx="http://www.garmin.com/xmlschemas/TrackPointExtension/v1">
            <gpxtpx:hr>108</gpxtpx:hr>
          </gpxtpx:TrackPointExtension>
        </extensions>
      </trkpt>
      <trkpt lat="48.65505" lon="2.07756">
        <ele>171.4</ele>
        <time>2023-03-05T14:58:37Z</time>
        <extensions>
          <gpxtpx:TrackPointExtension xmlns:gpxtpx="http://www.garmin.com/xmlschemas/TrackPointExtension/v1">
            <gpxtpx:hr>108</gpxtpx:hr>
          </gpxtpx:TrackPointExtension>
        </extensions>
      </trkpt>
      <trkpt lat="48.65504" lon="2.07753">
        <ele>171</ele>
        <time>2023-03-05T14:58:39Z</time>
        <extensions>
          <gpxtpx:TrackPointExtension xmlns:gpxtpx="http://www.garmin.com/xmlschemas/TrackPointExtension/v1">
            <gpxtpx:hr>108</gpxtpx:hr>
          </gpxtpx:TrackPointExtension>
        </extensions>
      </trkpt>
      <trkpt lat="48.65503" lon="2.0775">
        <ele>170.8</ele>
        <time>2023-03-05T14:58:41Z</time>
        <extensions>
          <gpxtpx:TrackPointExtension xmlns:gpxtpx="http://www.garmin.com/xmlschemas/TrackPointExtension/v1">
            <gpxtpx:hr>108</gpxtpx:hr>
          </gpxtpx:TrackPointExtension>
        </extensions>
      </trkpt>
      <trkpt lat="48.65502" lon="2.07746">
        <ele>171</ele>
        <time>2023-03-05T14:58:43Z</time>
        <extensions>
          <gpxtpx:TrackPointExtension xmlns:gpxtpx="http://www.garmin.com/xmlschemas/TrackPointExtension/v1">
            <gpxtpx:hr>108</gpxtpx:hr>
          </gpxtpx:TrackPointExtension>
        </extensions>
      </trkpt>
      <trkpt lat="48.65501" lon="2.07742">
        <ele>171.2</ele>
        <time>2023-03-05T14:58:45Z</time>
        <extensions>
          <gpxtpx:TrackPointExtension xmlns:gpxtpx="http://www.garmin.com/xmlschemas/TrackPointExtension/v1">
            <gpxtpx:hr>108</gpxtpx:hr>
          </gpxtpx:TrackPointExtension>
        </extensions>
      </trkpt>
      <trkpt lat="48.655" lon="2.07737">
        <ele>171.6</ele>
        <time>2023-03-05T14:58:47Z</time>
        <extensions>
          <gpxtpx:TrackPointExtension xmlns:gpxtpx="http://www.garmin.com/xmlschemas/TrackPointExtension/v1">
            <gpxtpx:hr>107</gpxtpx:hr>
          </gpxtpx:TrackPointExtension>
        </extensions>
      </trkpt>
      <trkpt lat="48.65499" lon="2.07732">
        <ele>171.8</ele>
        <time>2023-03-05T14:58:49Z</time>
        <extensions>
          <gpxtpx:TrackPointExtension xmlns:gpxtpx="http://www.garmin.com/xmlschemas/TrackPointExtension/v1">
            <gpxtpx:hr>108</gpxtpx:hr>
          </gpxtpx:TrackPointExtension>
        </extensions>
      </trkpt>
      <trkpt lat="48.65498" lon="2.0773">
        <ele>171.8</ele>
        <time>2023-03-05T14:58:50Z</time>
        <extensions>
          <gpxtpx:TrackPointExtension xmlns:gpxtpx="http://www.garmin.com/xmlschemas/TrackPointExtension/v1">
            <gpxtpx:hr>108</gpxtpx:hr>
          </gpxtpx:TrackPointExtension>
        </extensions>
      </trkpt>
      <trkpt lat="48.65496" lon="2.07726">
        <ele>172</ele>
        <time>2023-03-05T14:58:52Z</time>
        <extensions>
          <gpxtpx:TrackPointExtension xmlns:gpxtpx="http://www.garmin.com/xmlschemas/TrackPointExtension/v1">
            <gpxtpx:hr>108</gpxtpx:hr>
          </gpxtpx:TrackPointExtension>
        </extensions>
      </trkpt>
      <trkpt lat="48.65495" lon="2.07723">
        <ele>172</ele>
        <time>2023-03-05T14:58:53Z</time>
        <extensions>
          <gpxtpx:TrackPointExtension xmlns:gpxtpx="http://www.garmin.com/xmlschemas/TrackPointExtension/v1">
            <gpxtpx:hr>108</gpxtpx:hr>
          </gpxtpx:TrackPointExtension>
        </extensions>
      </trkpt>
      <trkpt lat="48.65494" lon="2.07721">
        <ele>172</ele>
        <time>2023-03-05T14:58:54Z</time>
        <extensions>
          <gpxtpx:TrackPointExtension xmlns:gpxtpx="http://www.garmin.com/xmlschemas/TrackPointExtension/v1">
            <gpxtpx:hr>108</gpxtpx:hr>
          </gpxtpx:TrackPointExtension>
        </extensions>
      </trkpt>
      <trkpt lat="48.65492" lon="2.07716">
        <ele>171.8</ele>
        <time>2023-03-05T14:58:56Z</time>
        <extensions>
          <gpxtpx:TrackPointExtension xmlns:gpxtpx="http://www.garmin.com/xmlschemas/TrackPointExtension/v1">
            <gpxtpx:hr>108</gpxtpx:hr>
          </gpxtpx:TrackPointExtension>
        </extensions>
      </trkpt>
      <trkpt lat="48.65491" lon="2.07713">
        <ele>171.8</ele>
        <time>2023-03-05T14:58:57Z</time>
        <extensions>
          <gpxtpx:TrackPointExtension xmlns:gpxtpx="http://www.garmin.com/xmlschemas/TrackPointExtension/v1">
            <gpxtpx:hr>108</gpxtpx:hr>
          </gpxtpx:TrackPointExtension>
        </extensions>
      </trkpt>
      <trkpt lat="48.6549" lon="2.07711">
        <ele>171.8</ele>
        <time>2023-03-05T14:58:58Z</time>
        <extensions>
          <gpxtpx:TrackPointExtension xmlns:gpxtpx="http://www.garmin.com/xmlschemas/TrackPointExtension/v1">
            <gpxtpx:hr>108</gpxtpx:hr>
          </gpxtpx:TrackPointExtension>
        </extensions>
      </trkpt>
      <trkpt lat="48.65489" lon="2.07706">
        <ele>171.6</ele>
        <time>2023-03-05T14:59:00Z</time>
        <extensions>
          <gpxtpx:TrackPointExtension xmlns:gpxtpx="http://www.garmin.com/xmlschemas/TrackPointExtension/v1">
            <gpxtpx:hr>108</gpxtpx:hr>
          </gpxtpx:TrackPointExtension>
        </extensions>
      </trkpt>
      <trkpt lat="48.65487" lon="2.07702">
        <ele>171.4</ele>
        <time>2023-03-05T14:59:02Z</time>
        <extensions>
          <gpxtpx:TrackPointExtension xmlns:gpxtpx="http://www.garmin.com/xmlschemas/TrackPointExtension/v1">
            <gpxtpx:hr>109</gpxtpx:hr>
          </gpxtpx:TrackPointExtension>
        </extensions>
      </trkpt>
      <trkpt lat="48.65486" lon="2.07698">
        <ele>171.6</ele>
        <time>2023-03-05T14:59:04Z</time>
        <extensions>
          <gpxtpx:TrackPointExtension xmlns:gpxtpx="http://www.garmin.com/xmlschemas/TrackPointExtension/v1">
            <gpxtpx:hr>109</gpxtpx:hr>
          </gpxtpx:TrackPointExtension>
        </extensions>
      </trkpt>
      <trkpt lat="48.65484" lon="2.07695">
        <ele>171.8</ele>
        <time>2023-03-05T14:59:06Z</time>
        <extensions>
          <gpxtpx:TrackPointExtension xmlns:gpxtpx="http://www.garmin.com/xmlschemas/TrackPointExtension/v1">
            <gpxtpx:hr>109</gpxtpx:hr>
          </gpxtpx:TrackPointExtension>
        </extensions>
      </trkpt>
      <trkpt lat="48.65483" lon="2.07691">
        <ele>171.8</ele>
        <time>2023-03-05T14:59:08Z</time>
        <extensions>
          <gpxtpx:TrackPointExtension xmlns:gpxtpx="http://www.garmin.com/xmlschemas/TrackPointExtension/v1">
            <gpxtpx:hr>109</gpxtpx:hr>
          </gpxtpx:TrackPointExtension>
        </extensions>
      </trkpt>
      <trkpt lat="48.65482" lon="2.07687">
        <ele>171.8</ele>
        <time>2023-03-05T14:59:10Z</time>
        <extensions>
          <gpxtpx:TrackPointExtension xmlns:gpxtpx="http://www.garmin.com/xmlschemas/TrackPointExtension/v1">
            <gpxtpx:hr>109</gpxtpx:hr>
          </gpxtpx:TrackPointExtension>
        </extensions>
      </trkpt>
      <trkpt lat="48.65481" lon="2.07683">
        <ele>171.8</ele>
        <time>2023-03-05T14:59:12Z</time>
        <extensions>
          <gpxtpx:TrackPointExtension xmlns:gpxtpx="http://www.garmin.com/xmlschemas/TrackPointExtension/v1">
            <gpxtpx:hr>109</gpxtpx:hr>
          </gpxtpx:TrackPointExtension>
        </extensions>
      </trkpt>
      <trkpt lat="48.6548" lon="2.07679">
        <ele>171.8</ele>
        <time>2023-03-05T14:59:14Z</time>
        <extensions>
          <gpxtpx:TrackPointExtension xmlns:gpxtpx="http://www.garmin.com/xmlschemas/TrackPointExtension/v1">
            <gpxtpx:hr>109</gpxtpx:hr>
          </gpxtpx:TrackPointExtension>
        </extensions>
      </trkpt>
      <trkpt lat="48.65478" lon="2.07675">
        <ele>171.8</ele>
        <time>2023-03-05T14:59:16Z</time>
        <extensions>
          <gpxtpx:TrackPointExtension xmlns:gpxtpx="http://www.garmin.com/xmlschemas/TrackPointExtension/v1">
            <gpxtpx:hr>109</gpxtpx:hr>
          </gpxtpx:TrackPointExtension>
        </extensions>
      </trkpt>
      <trkpt lat="48.65477" lon="2.07671">
        <ele>172</ele>
        <time>2023-03-05T14:59:18Z</time>
        <extensions>
          <gpxtpx:TrackPointExtension xmlns:gpxtpx="http://www.garmin.com/xmlschemas/TrackPointExtension/v1">
            <gpxtpx:hr>109</gpxtpx:hr>
          </gpxtpx:TrackPointExtension>
        </extensions>
      </trkpt>
      <trkpt lat="48.65476" lon="2.07666">
        <ele>172</ele>
        <time>2023-03-05T14:59:20Z</time>
        <extensions>
          <gpxtpx:TrackPointExtension xmlns:gpxtpx="http://www.garmin.com/xmlschemas/TrackPointExtension/v1">
            <gpxtpx:hr>109</gpxtpx:hr>
          </gpxtpx:TrackPointExtension>
        </extensions>
      </trkpt>
      <trkpt lat="48.65475" lon="2.07662">
        <ele>171.8</ele>
        <time>2023-03-05T14:59:22Z</time>
        <extensions>
          <gpxtpx:TrackPointExtension xmlns:gpxtpx="http://www.garmin.com/xmlschemas/TrackPointExtension/v1">
            <gpxtpx:hr>109</gpxtpx:hr>
          </gpxtpx:TrackPointExtension>
        </extensions>
      </trkpt>
      <trkpt lat="48.65473" lon="2.07658">
        <ele>172</ele>
        <time>2023-03-05T14:59:24Z</time>
        <extensions>
          <gpxtpx:TrackPointExtension xmlns:gpxtpx="http://www.garmin.com/xmlschemas/TrackPointExtension/v1">
            <gpxtpx:hr>109</gpxtpx:hr>
          </gpxtpx:TrackPointExtension>
        </extensions>
      </trkpt>
      <trkpt lat="48.65472" lon="2.07654">
        <ele>172</ele>
        <time>2023-03-05T14:59:26Z</time>
        <extensions>
          <gpxtpx:TrackPointExtension xmlns:gpxtpx="http://www.garmin.com/xmlschemas/TrackPointExtension/v1">
            <gpxtpx:hr>109</gpxtpx:hr>
          </gpxtpx:TrackPointExtension>
        </extensions>
      </trkpt>
      <trkpt lat="48.6547" lon="2.07652">
        <ele>172</ele>
        <time>2023-03-05T14:59:27Z</time>
        <extensions>
          <gpxtpx:TrackPointExtension xmlns:gpxtpx="http://www.garmin.com/xmlschemas/TrackPointExtension/v1">
            <gpxtpx:hr>109</gpxtpx:hr>
          </gpxtpx:TrackPointExtension>
        </extensions>
      </trkpt>
      <trkpt lat="48.65468" lon="2.07647">
        <ele>172</ele>
        <time>2023-03-05T14:59:29Z</time>
        <extensions>
          <gpxtpx:TrackPointExtension xmlns:gpxtpx="http://www.garmin.com/xmlschemas/TrackPointExtension/v1">
            <gpxtpx:hr>109</gpxtpx:hr>
          </gpxtpx:TrackPointExtension>
        </extensions>
      </trkpt>
      <trkpt lat="48.65467" lon="2.07643">
        <ele>172</ele>
        <time>2023-03-05T14:59:31Z</time>
        <extensions>
          <gpxtpx:TrackPointExtension xmlns:gpxtpx="http://www.garmin.com/xmlschemas/TrackPointExtension/v1">
            <gpxtpx:hr>110</gpxtpx:hr>
          </gpxtpx:TrackPointExtension>
        </extensions>
      </trkpt>
      <trkpt lat="48.65465" lon="2.07638">
        <ele>172</ele>
        <time>2023-03-05T14:59:33Z</time>
        <extensions>
          <gpxtpx:TrackPointExtension xmlns:gpxtpx="http://www.garmin.com/xmlschemas/TrackPointExtension/v1">
            <gpxtpx:hr>110</gpxtpx:hr>
          </gpxtpx:TrackPointExtension>
        </extensions>
      </trkpt>
      <trkpt lat="48.65464" lon="2.07635">
        <ele>172</ele>
        <time>2023-03-05T14:59:34Z</time>
        <extensions>
          <gpxtpx:TrackPointExtension xmlns:gpxtpx="http://www.garmin.com/xmlschemas/TrackPointExtension/v1">
            <gpxtpx:hr>110</gpxtpx:hr>
          </gpxtpx:TrackPointExtension>
        </extensions>
      </trkpt>
      <trkpt lat="48.65462" lon="2.07631">
        <ele>171.8</ele>
        <time>2023-03-05T14:59:36Z</time>
        <extensions>
          <gpxtpx:TrackPointExtension xmlns:gpxtpx="http://www.garmin.com/xmlschemas/TrackPointExtension/v1">
            <gpxtpx:hr>110</gpxtpx:hr>
          </gpxtpx:TrackPointExtension>
        </extensions>
      </trkpt>
      <trkpt lat="48.6546" lon="2.07627">
        <ele>171.8</ele>
        <time>2023-03-05T14:59:38Z</time>
        <extensions>
          <gpxtpx:TrackPointExtension xmlns:gpxtpx="http://www.garmin.com/xmlschemas/TrackPointExtension/v1">
            <gpxtpx:hr>110</gpxtpx:hr>
          </gpxtpx:TrackPointExtension>
        </extensions>
      </trkpt>
      <trkpt lat="48.65459" lon="2.07622">
        <ele>171.6</ele>
        <time>2023-03-05T14:59:40Z</time>
        <extensions>
          <gpxtpx:TrackPointExtension xmlns:gpxtpx="http://www.garmin.com/xmlschemas/TrackPointExtension/v1">
            <gpxtpx:hr>110</gpxtpx:hr>
          </gpxtpx:TrackPointExtension>
        </extensions>
      </trkpt>
      <trkpt lat="48.65457" lon="2.07618">
        <ele>171.6</ele>
        <time>2023-03-05T14:59:42Z</time>
        <extensions>
          <gpxtpx:TrackPointExtension xmlns:gpxtpx="http://www.garmin.com/xmlschemas/TrackPointExtension/v1">
            <gpxtpx:hr>110</gpxtpx:hr>
          </gpxtpx:TrackPointExtension>
        </extensions>
      </trkpt>
      <trkpt lat="48.65455" lon="2.07614">
        <ele>171.6</ele>
        <time>2023-03-05T14:59:44Z</time>
        <extensions>
          <gpxtpx:TrackPointExtension xmlns:gpxtpx="http://www.garmin.com/xmlschemas/TrackPointExtension/v1">
            <gpxtpx:hr>109</gpxtpx:hr>
          </gpxtpx:TrackPointExtension>
        </extensions>
      </trkpt>
      <trkpt lat="48.65454" lon="2.0761">
        <ele>171.6</ele>
        <time>2023-03-05T14:59:46Z</time>
        <extensions>
          <gpxtpx:TrackPointExtension xmlns:gpxtpx="http://www.garmin.com/xmlschemas/TrackPointExtension/v1">
            <gpxtpx:hr>109</gpxtpx:hr>
          </gpxtpx:TrackPointExtension>
        </extensions>
      </trkpt>
      <trkpt lat="48.65452" lon="2.07607">
        <ele>171.6</ele>
        <time>2023-03-05T14:59:48Z</time>
        <extensions>
          <gpxtpx:TrackPointExtension xmlns:gpxtpx="http://www.garmin.com/xmlschemas/TrackPointExtension/v1">
            <gpxtpx:hr>109</gpxtpx:hr>
          </gpxtpx:TrackPointExtension>
        </extensions>
      </trkpt>
      <trkpt lat="48.6545" lon="2.07602">
        <ele>171.6</ele>
        <time>2023-03-05T14:59:50Z</time>
        <extensions>
          <gpxtpx:TrackPointExtension xmlns:gpxtpx="http://www.garmin.com/xmlschemas/TrackPointExtension/v1">
            <gpxtpx:hr>109</gpxtpx:hr>
          </gpxtpx:TrackPointExtension>
        </extensions>
      </trkpt>
      <trkpt lat="48.65448" lon="2.07598">
        <ele>171.6</ele>
        <time>2023-03-05T14:59:52Z</time>
        <extensions>
          <gpxtpx:TrackPointExtension xmlns:gpxtpx="http://www.garmin.com/xmlschemas/TrackPointExtension/v1">
            <gpxtpx:hr>110</gpxtpx:hr>
          </gpxtpx:TrackPointExtension>
        </extensions>
      </trkpt>
      <trkpt lat="48.65446" lon="2.07594">
        <ele>171.8</ele>
        <time>2023-03-05T14:59:54Z</time>
        <extensions>
          <gpxtpx:TrackPointExtension xmlns:gpxtpx="http://www.garmin.com/xmlschemas/TrackPointExtension/v1">
            <gpxtpx:hr>110</gpxtpx:hr>
          </gpxtpx:TrackPointExtension>
        </extensions>
      </trkpt>
      <trkpt lat="48.65444" lon="2.0759">
        <ele>171.6</ele>
        <time>2023-03-05T14:59:56Z</time>
        <extensions>
          <gpxtpx:TrackPointExtension xmlns:gpxtpx="http://www.garmin.com/xmlschemas/TrackPointExtension/v1">
            <gpxtpx:hr>110</gpxtpx:hr>
          </gpxtpx:TrackPointExtension>
        </extensions>
      </trkpt>
      <trkpt lat="48.65442" lon="2.07586">
        <ele>171.6</ele>
        <time>2023-03-05T14:59:58Z</time>
        <extensions>
          <gpxtpx:TrackPointExtension xmlns:gpxtpx="http://www.garmin.com/xmlschemas/TrackPointExtension/v1">
            <gpxtpx:hr>110</gpxtpx:hr>
          </gpxtpx:TrackPointExtension>
        </extensions>
      </trkpt>
      <trkpt lat="48.6544" lon="2.07583">
        <ele>171.6</ele>
        <time>2023-03-05T15:00:00Z</time>
        <extensions>
          <gpxtpx:TrackPointExtension xmlns:gpxtpx="http://www.garmin.com/xmlschemas/TrackPointExtension/v1">
            <gpxtpx:hr>110</gpxtpx:hr>
          </gpxtpx:TrackPointExtension>
        </extensions>
      </trkpt>
      <trkpt lat="48.65438" lon="2.07581">
        <ele>171.6</ele>
        <time>2023-03-05T15:00:01Z</time>
        <extensions>
          <gpxtpx:TrackPointExtension xmlns:gpxtpx="http://www.garmin.com/xmlschemas/TrackPointExtension/v1">
            <gpxtpx:hr>110</gpxtpx:hr>
          </gpxtpx:TrackPointExtension>
        </extensions>
      </trkpt>
      <trkpt lat="48.65436" lon="2.07576">
        <ele>171.6</ele>
        <time>2023-03-05T15:00:03Z</time>
        <extensions>
          <gpxtpx:TrackPointExtension xmlns:gpxtpx="http://www.garmin.com/xmlschemas/TrackPointExtension/v1">
            <gpxtpx:hr>110</gpxtpx:hr>
          </gpxtpx:TrackPointExtension>
        </extensions>
      </trkpt>
      <trkpt lat="48.65435" lon="2.07572">
        <ele>171.6</ele>
        <time>2023-03-05T15:00:05Z</time>
        <extensions>
          <gpxtpx:TrackPointExtension xmlns:gpxtpx="http://www.garmin.com/xmlschemas/TrackPointExtension/v1">
            <gpxtpx:hr>110</gpxtpx:hr>
          </gpxtpx:TrackPointExtension>
        </extensions>
      </trkpt>
      <trkpt lat="48.65434" lon="2.07567">
        <ele>171.8</ele>
        <time>2023-03-05T15:00:07Z</time>
        <extensions>
          <gpxtpx:TrackPointExtension xmlns:gpxtpx="http://www.garmin.com/xmlschemas/TrackPointExtension/v1">
            <gpxtpx:hr>110</gpxtpx:hr>
          </gpxtpx:TrackPointExtension>
        </extensions>
      </trkpt>
      <trkpt lat="48.65433" lon="2.07564">
        <ele>171.8</ele>
        <time>2023-03-05T15:00:08Z</time>
        <extensions>
          <gpxtpx:TrackPointExtension xmlns:gpxtpx="http://www.garmin.com/xmlschemas/TrackPointExtension/v1">
            <gpxtpx:hr>110</gpxtpx:hr>
          </gpxtpx:TrackPointExtension>
        </extensions>
      </trkpt>
      <trkpt lat="48.65433" lon="2.07562">
        <ele>171.8</ele>
        <time>2023-03-05T15:00:09Z</time>
        <extensions>
          <gpxtpx:TrackPointExtension xmlns:gpxtpx="http://www.garmin.com/xmlschemas/TrackPointExtension/v1">
            <gpxtpx:hr>110</gpxtpx:hr>
          </gpxtpx:TrackPointExtension>
        </extensions>
      </trkpt>
      <trkpt lat="48.65432" lon="2.07559">
        <ele>171.8</ele>
        <time>2023-03-05T15:00:10Z</time>
        <extensions>
          <gpxtpx:TrackPointExtension xmlns:gpxtpx="http://www.garmin.com/xmlschemas/TrackPointExtension/v1">
            <gpxtpx:hr>110</gpxtpx:hr>
          </gpxtpx:TrackPointExtension>
        </extensions>
      </trkpt>
      <trkpt lat="48.6543" lon="2.07554">
        <ele>171.6</ele>
        <time>2023-03-05T15:00:12Z</time>
        <extensions>
          <gpxtpx:TrackPointExtension xmlns:gpxtpx="http://www.garmin.com/xmlschemas/TrackPointExtension/v1">
            <gpxtpx:hr>110</gpxtpx:hr>
          </gpxtpx:TrackPointExtension>
        </extensions>
      </trkpt>
      <trkpt lat="48.65428" lon="2.0755">
        <ele>171.6</ele>
        <time>2023-03-05T15:00:14Z</time>
        <extensions>
          <gpxtpx:TrackPointExtension xmlns:gpxtpx="http://www.garmin.com/xmlschemas/TrackPointExtension/v1">
            <gpxtpx:hr>110</gpxtpx:hr>
          </gpxtpx:TrackPointExtension>
        </extensions>
      </trkpt>
      <trkpt lat="48.65427" lon="2.07546">
        <ele>171.8</ele>
        <time>2023-03-05T15:00:16Z</time>
        <extensions>
          <gpxtpx:TrackPointExtension xmlns:gpxtpx="http://www.garmin.com/xmlschemas/TrackPointExtension/v1">
            <gpxtpx:hr>110</gpxtpx:hr>
          </gpxtpx:TrackPointExtension>
        </extensions>
      </trkpt>
      <trkpt lat="48.65425" lon="2.07542">
        <ele>172</ele>
        <time>2023-03-05T15:00:18Z</time>
        <extensions>
          <gpxtpx:TrackPointExtension xmlns:gpxtpx="http://www.garmin.com/xmlschemas/TrackPointExtension/v1">
            <gpxtpx:hr>110</gpxtpx:hr>
          </gpxtpx:TrackPointExtension>
        </extensions>
      </trkpt>
      <trkpt lat="48.65423" lon="2.07538">
        <ele>171.8</ele>
        <time>2023-03-05T15:00:20Z</time>
        <extensions>
          <gpxtpx:TrackPointExtension xmlns:gpxtpx="http://www.garmin.com/xmlschemas/TrackPointExtension/v1">
            <gpxtpx:hr>110</gpxtpx:hr>
          </gpxtpx:TrackPointExtension>
        </extensions>
      </trkpt>
      <trkpt lat="48.65421" lon="2.07534">
        <ele>171.8</ele>
        <time>2023-03-05T15:00:22Z</time>
        <extensions>
          <gpxtpx:TrackPointExtension xmlns:gpxtpx="http://www.garmin.com/xmlschemas/TrackPointExtension/v1">
            <gpxtpx:hr>110</gpxtpx:hr>
          </gpxtpx:TrackPointExtension>
        </extensions>
      </trkpt>
      <trkpt lat="48.65419" lon="2.0753">
        <ele>171.8</ele>
        <time>2023-03-05T15:00:24Z</time>
        <extensions>
          <gpxtpx:TrackPointExtension xmlns:gpxtpx="http://www.garmin.com/xmlschemas/TrackPointExtension/v1">
            <gpxtpx:hr>110</gpxtpx:hr>
          </gpxtpx:TrackPointExtension>
        </extensions>
      </trkpt>
      <trkpt lat="48.65417" lon="2.07525">
        <ele>172</ele>
        <time>2023-03-05T15:00:26Z</time>
        <extensions>
          <gpxtpx:TrackPointExtension xmlns:gpxtpx="http://www.garmin.com/xmlschemas/TrackPointExtension/v1">
            <gpxtpx:hr>110</gpxtpx:hr>
          </gpxtpx:TrackPointExtension>
        </extensions>
      </trkpt>
      <trkpt lat="48.65416" lon="2.07522">
        <ele>172</ele>
        <time>2023-03-05T15:00:27Z</time>
        <extensions>
          <gpxtpx:TrackPointExtension xmlns:gpxtpx="http://www.garmin.com/xmlschemas/TrackPointExtension/v1">
            <gpxtpx:hr>110</gpxtpx:hr>
          </gpxtpx:TrackPointExtension>
        </extensions>
      </trkpt>
      <trkpt lat="48.65415" lon="2.0752">
        <ele>172</ele>
        <time>2023-03-05T15:00:28Z</time>
        <extensions>
          <gpxtpx:TrackPointExtension xmlns:gpxtpx="http://www.garmin.com/xmlschemas/TrackPointExtension/v1">
            <gpxtpx:hr>110</gpxtpx:hr>
          </gpxtpx:TrackPointExtension>
        </extensions>
      </trkpt>
      <trkpt lat="48.65414" lon="2.07517">
        <ele>172</ele>
        <time>2023-03-05T15:00:29Z</time>
        <extensions>
          <gpxtpx:TrackPointExtension xmlns:gpxtpx="http://www.garmin.com/xmlschemas/TrackPointExtension/v1">
            <gpxtpx:hr>110</gpxtpx:hr>
          </gpxtpx:TrackPointExtension>
        </extensions>
      </trkpt>
      <trkpt lat="48.65413" lon="2.07515">
        <ele>172.2</ele>
        <time>2023-03-05T15:00:30Z</time>
        <extensions>
          <gpxtpx:TrackPointExtension xmlns:gpxtpx="http://www.garmin.com/xmlschemas/TrackPointExtension/v1">
            <gpxtpx:hr>110</gpxtpx:hr>
          </gpxtpx:TrackPointExtension>
        </extensions>
      </trkpt>
      <trkpt lat="48.65412" lon="2.07511">
        <ele>172.2</ele>
        <time>2023-03-05T15:00:32Z</time>
        <extensions>
          <gpxtpx:TrackPointExtension xmlns:gpxtpx="http://www.garmin.com/xmlschemas/TrackPointExtension/v1">
            <gpxtpx:hr>110</gpxtpx:hr>
          </gpxtpx:TrackPointExtension>
        </extensions>
      </trkpt>
      <trkpt lat="48.6541" lon="2.07508">
        <ele>172.4</ele>
        <time>2023-03-05T15:00:34Z</time>
        <extensions>
          <gpxtpx:TrackPointExtension xmlns:gpxtpx="http://www.garmin.com/xmlschemas/TrackPointExtension/v1">
            <gpxtpx:hr>110</gpxtpx:hr>
          </gpxtpx:TrackPointExtension>
        </extensions>
      </trkpt>
      <trkpt lat="48.65408" lon="2.07505">
        <ele>172.6</ele>
        <time>2023-03-05T15:00:36Z</time>
        <extensions>
          <gpxtpx:TrackPointExtension xmlns:gpxtpx="http://www.garmin.com/xmlschemas/TrackPointExtension/v1">
            <gpxtpx:hr>111</gpxtpx:hr>
          </gpxtpx:TrackPointExtension>
        </extensions>
      </trkpt>
      <trkpt lat="48.65407" lon="2.07501">
        <ele>172.6</ele>
        <time>2023-03-05T15:00:38Z</time>
        <extensions>
          <gpxtpx:TrackPointExtension xmlns:gpxtpx="http://www.garmin.com/xmlschemas/TrackPointExtension/v1">
            <gpxtpx:hr>111</gpxtpx:hr>
          </gpxtpx:TrackPointExtension>
        </extensions>
      </trkpt>
      <trkpt lat="48.65406" lon="2.07497">
        <ele>172.8</ele>
        <time>2023-03-05T15:00:40Z</time>
        <extensions>
          <gpxtpx:TrackPointExtension xmlns:gpxtpx="http://www.garmin.com/xmlschemas/TrackPointExtension/v1">
            <gpxtpx:hr>111</gpxtpx:hr>
          </gpxtpx:TrackPointExtension>
        </extensions>
      </trkpt>
      <trkpt lat="48.65404" lon="2.07495">
        <ele>172.8</ele>
        <time>2023-03-05T15:00:41Z</time>
        <extensions>
          <gpxtpx:TrackPointExtension xmlns:gpxtpx="http://www.garmin.com/xmlschemas/TrackPointExtension/v1">
            <gpxtpx:hr>111</gpxtpx:hr>
          </gpxtpx:TrackPointExtension>
        </extensions>
      </trkpt>
      <trkpt lat="48.65403" lon="2.07491">
        <ele>172.8</ele>
        <time>2023-03-05T15:00:43Z</time>
        <extensions>
          <gpxtpx:TrackPointExtension xmlns:gpxtpx="http://www.garmin.com/xmlschemas/TrackPointExtension/v1">
            <gpxtpx:hr>111</gpxtpx:hr>
          </gpxtpx:TrackPointExtension>
        </extensions>
      </trkpt>
      <trkpt lat="48.65401" lon="2.07487">
        <ele>172.8</ele>
        <time>2023-03-05T15:00:45Z</time>
        <extensions>
          <gpxtpx:TrackPointExtension xmlns:gpxtpx="http://www.garmin.com/xmlschemas/TrackPointExtension/v1">
            <gpxtpx:hr>112</gpxtpx:hr>
          </gpxtpx:TrackPointExtension>
        </extensions>
      </trkpt>
      <trkpt lat="48.65398" lon="2.07483">
        <ele>172.6</ele>
        <time>2023-03-05T15:00:47Z</time>
        <extensions>
          <gpxtpx:TrackPointExtension xmlns:gpxtpx="http://www.garmin.com/xmlschemas/TrackPointExtension/v1">
            <gpxtpx:hr>112</gpxtpx:hr>
          </gpxtpx:TrackPointExtension>
        </extensions>
      </trkpt>
      <trkpt lat="48.65396" lon="2.07479">
        <ele>172.6</ele>
        <time>2023-03-05T15:00:49Z</time>
        <extensions>
          <gpxtpx:TrackPointExtension xmlns:gpxtpx="http://www.garmin.com/xmlschemas/TrackPointExtension/v1">
            <gpxtpx:hr>112</gpxtpx:hr>
          </gpxtpx:TrackPointExtension>
        </extensions>
      </trkpt>
      <trkpt lat="48.65395" lon="2.07477">
        <ele>172.6</ele>
        <time>2023-03-05T15:00:50Z</time>
        <extensions>
          <gpxtpx:TrackPointExtension xmlns:gpxtpx="http://www.garmin.com/xmlschemas/TrackPointExtension/v1">
            <gpxtpx:hr>112</gpxtpx:hr>
          </gpxtpx:TrackPointExtension>
        </extensions>
      </trkpt>
      <trkpt lat="48.65394" lon="2.07472">
        <ele>172.6</ele>
        <time>2023-03-05T15:00:52Z</time>
        <extensions>
          <gpxtpx:TrackPointExtension xmlns:gpxtpx="http://www.garmin.com/xmlschemas/TrackPointExtension/v1">
            <gpxtpx:hr>111</gpxtpx:hr>
          </gpxtpx:TrackPointExtension>
        </extensions>
      </trkpt>
      <trkpt lat="48.65392" lon="2.0747">
        <ele>172.6</ele>
        <time>2023-03-05T15:00:53Z</time>
        <extensions>
          <gpxtpx:TrackPointExtension xmlns:gpxtpx="http://www.garmin.com/xmlschemas/TrackPointExtension/v1">
            <gpxtpx:hr>111</gpxtpx:hr>
          </gpxtpx:TrackPointExtension>
        </extensions>
      </trkpt>
      <trkpt lat="48.65391" lon="2.07468">
        <ele>172.6</ele>
        <time>2023-03-05T15:00:54Z</time>
        <extensions>
          <gpxtpx:TrackPointExtension xmlns:gpxtpx="http://www.garmin.com/xmlschemas/TrackPointExtension/v1">
            <gpxtpx:hr>111</gpxtpx:hr>
          </gpxtpx:TrackPointExtension>
        </extensions>
      </trkpt>
      <trkpt lat="48.65389" lon="2.07464">
        <ele>172.6</ele>
        <time>2023-03-05T15:00:56Z</time>
        <extensions>
          <gpxtpx:TrackPointExtension xmlns:gpxtpx="http://www.garmin.com/xmlschemas/TrackPointExtension/v1">
            <gpxtpx:hr>111</gpxtpx:hr>
          </gpxtpx:TrackPointExtension>
        </extensions>
      </trkpt>
      <trkpt lat="48.65387" lon="2.07462">
        <ele>172.6</ele>
        <time>2023-03-05T15:00:57Z</time>
        <extensions>
          <gpxtpx:TrackPointExtension xmlns:gpxtpx="http://www.garmin.com/xmlschemas/TrackPointExtension/v1">
            <gpxtpx:hr>111</gpxtpx:hr>
          </gpxtpx:TrackPointExtension>
        </extensions>
      </trkpt>
      <trkpt lat="48.65385" lon="2.07458">
        <ele>172.6</ele>
        <time>2023-03-05T15:00:59Z</time>
        <extensions>
          <gpxtpx:TrackPointExtension xmlns:gpxtpx="http://www.garmin.com/xmlschemas/TrackPointExtension/v1">
            <gpxtpx:hr>111</gpxtpx:hr>
          </gpxtpx:TrackPointExtension>
        </extensions>
      </trkpt>
      <trkpt lat="48.65383" lon="2.07454">
        <ele>172.6</ele>
        <time>2023-03-05T15:01:01Z</time>
        <extensions>
          <gpxtpx:TrackPointExtension xmlns:gpxtpx="http://www.garmin.com/xmlschemas/TrackPointExtension/v1">
            <gpxtpx:hr>111</gpxtpx:hr>
          </gpxtpx:TrackPointExtension>
        </extensions>
      </trkpt>
      <trkpt lat="48.65381" lon="2.0745">
        <ele>172.6</ele>
        <time>2023-03-05T15:01:03Z</time>
        <extensions>
          <gpxtpx:TrackPointExtension xmlns:gpxtpx="http://www.garmin.com/xmlschemas/TrackPointExtension/v1">
            <gpxtpx:hr>111</gpxtpx:hr>
          </gpxtpx:TrackPointExtension>
        </extensions>
      </trkpt>
      <trkpt lat="48.65379" lon="2.07445">
        <ele>172.6</ele>
        <time>2023-03-05T15:01:05Z</time>
        <extensions>
          <gpxtpx:TrackPointExtension xmlns:gpxtpx="http://www.garmin.com/xmlschemas/TrackPointExtension/v1">
            <gpxtpx:hr>111</gpxtpx:hr>
          </gpxtpx:TrackPointExtension>
        </extensions>
      </trkpt>
      <trkpt lat="48.65378" lon="2.07442">
        <ele>172.6</ele>
        <time>2023-03-05T15:01:06Z</time>
        <extensions>
          <gpxtpx:TrackPointExtension xmlns:gpxtpx="http://www.garmin.com/xmlschemas/TrackPointExtension/v1">
            <gpxtpx:hr>111</gpxtpx:hr>
          </gpxtpx:TrackPointExtension>
        </extensions>
      </trkpt>
      <trkpt lat="48.65377" lon="2.07439">
        <ele>172.4</ele>
        <time>2023-03-05T15:01:07Z</time>
        <extensions>
          <gpxtpx:TrackPointExtension xmlns:gpxtpx="http://www.garmin.com/xmlschemas/TrackPointExtension/v1">
            <gpxtpx:hr>111</gpxtpx:hr>
          </gpxtpx:TrackPointExtension>
        </extensions>
      </trkpt>
      <trkpt lat="48.65376" lon="2.07436">
        <ele>172.4</ele>
        <time>2023-03-05T15:01:08Z</time>
        <extensions>
          <gpxtpx:TrackPointExtension xmlns:gpxtpx="http://www.garmin.com/xmlschemas/TrackPointExtension/v1">
            <gpxtpx:hr>111</gpxtpx:hr>
          </gpxtpx:TrackPointExtension>
        </extensions>
      </trkpt>
      <trkpt lat="48.65375" lon="2.07434">
        <ele>172.4</ele>
        <time>2023-03-05T15:01:09Z</time>
        <extensions>
          <gpxtpx:TrackPointExtension xmlns:gpxtpx="http://www.garmin.com/xmlschemas/TrackPointExtension/v1">
            <gpxtpx:hr>111</gpxtpx:hr>
          </gpxtpx:TrackPointExtension>
        </extensions>
      </trkpt>
      <trkpt lat="48.65374" lon="2.07431">
        <ele>172.4</ele>
        <time>2023-03-05T15:01:10Z</time>
        <extensions>
          <gpxtpx:TrackPointExtension xmlns:gpxtpx="http://www.garmin.com/xmlschemas/TrackPointExtension/v1">
            <gpxtpx:hr>111</gpxtpx:hr>
          </gpxtpx:TrackPointExtension>
        </extensions>
      </trkpt>
      <trkpt lat="48.65374" lon="2.07428">
        <ele>172.4</ele>
        <time>2023-03-05T15:01:11Z</time>
        <extensions>
          <gpxtpx:TrackPointExtension xmlns:gpxtpx="http://www.garmin.com/xmlschemas/TrackPointExtension/v1">
            <gpxtpx:hr>111</gpxtpx:hr>
          </gpxtpx:TrackPointExtension>
        </extensions>
      </trkpt>
      <trkpt lat="48.65372" lon="2.07426">
        <ele>172.4</ele>
        <time>2023-03-05T15:01:12Z</time>
        <extensions>
          <gpxtpx:TrackPointExtension xmlns:gpxtpx="http://www.garmin.com/xmlschemas/TrackPointExtension/v1">
            <gpxtpx:hr>111</gpxtpx:hr>
          </gpxtpx:TrackPointExtension>
        </extensions>
      </trkpt>
      <trkpt lat="48.65371" lon="2.07423">
        <ele>172.6</ele>
        <time>2023-03-05T15:01:13Z</time>
        <extensions>
          <gpxtpx:TrackPointExtension xmlns:gpxtpx="http://www.garmin.com/xmlschemas/TrackPointExtension/v1">
            <gpxtpx:hr>111</gpxtpx:hr>
          </gpxtpx:TrackPointExtension>
        </extensions>
      </trkpt>
      <trkpt lat="48.65369" lon="2.07419">
        <ele>172.6</ele>
        <time>2023-03-05T15:01:15Z</time>
        <extensions>
          <gpxtpx:TrackPointExtension xmlns:gpxtpx="http://www.garmin.com/xmlschemas/TrackPointExtension/v1">
            <gpxtpx:hr>111</gpxtpx:hr>
          </gpxtpx:TrackPointExtension>
        </extensions>
      </trkpt>
      <trkpt lat="48.65367" lon="2.07415">
        <ele>172.6</ele>
        <time>2023-03-05T15:01:17Z</time>
        <extensions>
          <gpxtpx:TrackPointExtension xmlns:gpxtpx="http://www.garmin.com/xmlschemas/TrackPointExtension/v1">
            <gpxtpx:hr>111</gpxtpx:hr>
          </gpxtpx:TrackPointExtension>
        </extensions>
      </trkpt>
      <trkpt lat="48.65365" lon="2.07411">
        <ele>172.6</ele>
        <time>2023-03-05T15:01:19Z</time>
        <extensions>
          <gpxtpx:TrackPointExtension xmlns:gpxtpx="http://www.garmin.com/xmlschemas/TrackPointExtension/v1">
            <gpxtpx:hr>111</gpxtpx:hr>
          </gpxtpx:TrackPointExtension>
        </extensions>
      </trkpt>
      <trkpt lat="48.65363" lon="2.07406">
        <ele>172.6</ele>
        <time>2023-03-05T15:01:21Z</time>
        <extensions>
          <gpxtpx:TrackPointExtension xmlns:gpxtpx="http://www.garmin.com/xmlschemas/TrackPointExtension/v1">
            <gpxtpx:hr>111</gpxtpx:hr>
          </gpxtpx:TrackPointExtension>
        </extensions>
      </trkpt>
      <trkpt lat="48.65361" lon="2.07402">
        <ele>172.8</ele>
        <time>2023-03-05T15:01:23Z</time>
        <extensions>
          <gpxtpx:TrackPointExtension xmlns:gpxtpx="http://www.garmin.com/xmlschemas/TrackPointExtension/v1">
            <gpxtpx:hr>110</gpxtpx:hr>
          </gpxtpx:TrackPointExtension>
        </extensions>
      </trkpt>
      <trkpt lat="48.65359" lon="2.07399">
        <ele>172.8</ele>
        <time>2023-03-05T15:01:25Z</time>
        <extensions>
          <gpxtpx:TrackPointExtension xmlns:gpxtpx="http://www.garmin.com/xmlschemas/TrackPointExtension/v1">
            <gpxtpx:hr>110</gpxtpx:hr>
          </gpxtpx:TrackPointExtension>
        </extensions>
      </trkpt>
      <trkpt lat="48.65357" lon="2.07395">
        <ele>172.6</ele>
        <time>2023-03-05T15:01:29Z</time>
        <extensions>
          <gpxtpx:TrackPointExtension xmlns:gpxtpx="http://www.garmin.com/xmlschemas/TrackPointExtension/v1">
            <gpxtpx:hr>110</gpxtpx:hr>
          </gpxtpx:TrackPointExtension>
        </extensions>
      </trkpt>
      <trkpt lat="48.65356" lon="2.07392">
        <ele>171.8</ele>
        <time>2023-03-05T15:01:37Z</time>
        <extensions>
          <gpxtpx:TrackPointExtension xmlns:gpxtpx="http://www.garmin.com/xmlschemas/TrackPointExtension/v1">
            <gpxtpx:hr>108</gpxtpx:hr>
          </gpxtpx:TrackPointExtension>
        </extensions>
      </trkpt>
      <trkpt lat="48.65354" lon="2.07389">
        <ele>171.8</ele>
        <time>2023-03-05T15:01:39Z</time>
        <extensions>
          <gpxtpx:TrackPointExtension xmlns:gpxtpx="http://www.garmin.com/xmlschemas/TrackPointExtension/v1">
            <gpxtpx:hr>108</gpxtpx:hr>
          </gpxtpx:TrackPointExtension>
        </extensions>
      </trkpt>
      <trkpt lat="48.65351" lon="2.07386">
        <ele>171.8</ele>
        <time>2023-03-05T15:01:41Z</time>
        <extensions>
          <gpxtpx:TrackPointExtension xmlns:gpxtpx="http://www.garmin.com/xmlschemas/TrackPointExtension/v1">
            <gpxtpx:hr>108</gpxtpx:hr>
          </gpxtpx:TrackPointExtension>
        </extensions>
      </trkpt>
      <trkpt lat="48.65349" lon="2.07382">
        <ele>171.6</ele>
        <time>2023-03-05T15:01:43Z</time>
        <extensions>
          <gpxtpx:TrackPointExtension xmlns:gpxtpx="http://www.garmin.com/xmlschemas/TrackPointExtension/v1">
            <gpxtpx:hr>108</gpxtpx:hr>
          </gpxtpx:TrackPointExtension>
        </extensions>
      </trkpt>
      <trkpt lat="48.65347" lon="2.07378">
        <ele>171.6</ele>
        <time>2023-03-05T15:01:45Z</time>
        <extensions>
          <gpxtpx:TrackPointExtension xmlns:gpxtpx="http://www.garmin.com/xmlschemas/TrackPointExtension/v1">
            <gpxtpx:hr>108</gpxtpx:hr>
          </gpxtpx:TrackPointExtension>
        </extensions>
      </trkpt>
      <trkpt lat="48.65345" lon="2.07374">
        <ele>171.6</ele>
        <time>2023-03-05T15:01:47Z</time>
        <extensions>
          <gpxtpx:TrackPointExtension xmlns:gpxtpx="http://www.garmin.com/xmlschemas/TrackPointExtension/v1">
            <gpxtpx:hr>108</gpxtpx:hr>
          </gpxtpx:TrackPointExtension>
        </extensions>
      </trkpt>
      <trkpt lat="48.65343" lon="2.07369">
        <ele>171.6</ele>
        <time>2023-03-05T15:01:49Z</time>
        <extensions>
          <gpxtpx:TrackPointExtension xmlns:gpxtpx="http://www.garmin.com/xmlschemas/TrackPointExtension/v1">
            <gpxtpx:hr>108</gpxtpx:hr>
          </gpxtpx:TrackPointExtension>
        </extensions>
      </trkpt>
      <trkpt lat="48.65342" lon="2.07367">
        <ele>171.6</ele>
        <time>2023-03-05T15:01:50Z</time>
      </trkpt>
      <trkpt lat="48.65341" lon="2.07364">
        <ele>171.8</ele>
        <time>2023-03-05T15:01:51Z</time>
        <extensions>
          <gpxtpx:TrackPointExtension xmlns:gpxtpx="http://www.garmin.com/xmlschemas/TrackPointExtension/v1">
            <gpxtpx:hr>108</gpxtpx:hr>
          </gpxtpx:TrackPointExtension>
        </extensions>
      </trkpt>
      <trkpt lat="48.6534" lon="2.0736">
        <ele>171.8</ele>
        <time>2023-03-05T15:01:53Z</time>
        <extensions>
          <gpxtpx:TrackPointExtension xmlns:gpxtpx="http://www.garmin.com/xmlschemas/TrackPointExtension/v1">
            <gpxtpx:hr>108</gpxtpx:hr>
          </gpxtpx:TrackPointExtension>
        </extensions>
      </trkpt>
      <trkpt lat="48.65338" lon="2.07356">
        <ele>172</ele>
        <time>2023-03-05T15:01:55Z</time>
        <extensions>
          <gpxtpx:TrackPointExtension xmlns:gpxtpx="http://www.garmin.com/xmlschemas/TrackPointExtension/v1">
            <gpxtpx:hr>108</gpxtpx:hr>
          </gpxtpx:TrackPointExtension>
        </extensions>
      </trkpt>
      <trkpt lat="48.65336" lon="2.07352">
        <ele>172</ele>
        <time>2023-03-05T15:01:57Z</time>
        <extensions>
          <gpxtpx:TrackPointExtension xmlns:gpxtpx="http://www.garmin.com/xmlschemas/TrackPointExtension/v1">
            <gpxtpx:hr>108</gpxtpx:hr>
          </gpxtpx:TrackPointExtension>
        </extensions>
      </trkpt>
      <trkpt lat="48.65334" lon="2.07349">
        <ele>172.4</ele>
        <time>2023-03-05T15:01:59Z</time>
        <extensions>
          <gpxtpx:TrackPointExtension xmlns:gpxtpx="http://www.garmin.com/xmlschemas/TrackPointExtension/v1">
            <gpxtpx:hr>107</gpxtpx:hr>
          </gpxtpx:TrackPointExtension>
        </extensions>
      </trkpt>
      <trkpt lat="48.65332" lon="2.07345">
        <ele>172.4</ele>
        <time>2023-03-05T15:02:01Z</time>
        <extensions>
          <gpxtpx:TrackPointExtension xmlns:gpxtpx="http://www.garmin.com/xmlschemas/TrackPointExtension/v1">
            <gpxtpx:hr>107</gpxtpx:hr>
          </gpxtpx:TrackPointExtension>
        </extensions>
      </trkpt>
      <trkpt lat="48.65331" lon="2.07341">
        <ele>172.4</ele>
        <time>2023-03-05T15:02:03Z</time>
        <extensions>
          <gpxtpx:TrackPointExtension xmlns:gpxtpx="http://www.garmin.com/xmlschemas/TrackPointExtension/v1">
            <gpxtpx:hr>107</gpxtpx:hr>
          </gpxtpx:TrackPointExtension>
        </extensions>
      </trkpt>
      <trkpt lat="48.65329" lon="2.07337">
        <ele>172.4</ele>
        <time>2023-03-05T15:02:05Z</time>
        <extensions>
          <gpxtpx:TrackPointExtension xmlns:gpxtpx="http://www.garmin.com/xmlschemas/TrackPointExtension/v1">
            <gpxtpx:hr>107</gpxtpx:hr>
          </gpxtpx:TrackPointExtension>
        </extensions>
      </trkpt>
      <trkpt lat="48.65327" lon="2.07335">
        <ele>172.6</ele>
        <time>2023-03-05T15:02:06Z</time>
        <extensions>
          <gpxtpx:TrackPointExtension xmlns:gpxtpx="http://www.garmin.com/xmlschemas/TrackPointExtension/v1">
            <gpxtpx:hr>107</gpxtpx:hr>
          </gpxtpx:TrackPointExtension>
        </extensions>
      </trkpt>
      <trkpt lat="48.65325" lon="2.0733">
        <ele>172.4</ele>
        <time>2023-03-05T15:02:08Z</time>
        <extensions>
          <gpxtpx:TrackPointExtension xmlns:gpxtpx="http://www.garmin.com/xmlschemas/TrackPointExtension/v1">
            <gpxtpx:hr>107</gpxtpx:hr>
          </gpxtpx:TrackPointExtension>
        </extensions>
      </trkpt>
      <trkpt lat="48.65323" lon="2.07327">
        <ele>172.4</ele>
        <time>2023-03-05T15:02:10Z</time>
        <extensions>
          <gpxtpx:TrackPointExtension xmlns:gpxtpx="http://www.garmin.com/xmlschemas/TrackPointExtension/v1">
            <gpxtpx:hr>107</gpxtpx:hr>
          </gpxtpx:TrackPointExtension>
        </extensions>
      </trkpt>
      <trkpt lat="48.65322" lon="2.07325">
        <ele>172.2</ele>
        <time>2023-03-05T15:02:11Z</time>
        <extensions>
          <gpxtpx:TrackPointExtension xmlns:gpxtpx="http://www.garmin.com/xmlschemas/TrackPointExtension/v1">
            <gpxtpx:hr>107</gpxtpx:hr>
          </gpxtpx:TrackPointExtension>
        </extensions>
      </trkpt>
      <trkpt lat="48.65319" lon="2.0732">
        <ele>172.2</ele>
        <time>2023-03-05T15:02:13Z</time>
        <extensions>
          <gpxtpx:TrackPointExtension xmlns:gpxtpx="http://www.garmin.com/xmlschemas/TrackPointExtension/v1">
            <gpxtpx:hr>107</gpxtpx:hr>
          </gpxtpx:TrackPointExtension>
        </extensions>
      </trkpt>
      <trkpt lat="48.65317" lon="2.07316">
        <ele>172.2</ele>
        <time>2023-03-05T15:02:15Z</time>
        <extensions>
          <gpxtpx:TrackPointExtension xmlns:gpxtpx="http://www.garmin.com/xmlschemas/TrackPointExtension/v1">
            <gpxtpx:hr>107</gpxtpx:hr>
          </gpxtpx:TrackPointExtension>
        </extensions>
      </trkpt>
      <trkpt lat="48.65315" lon="2.07312">
        <ele>172.4</ele>
        <time>2023-03-05T15:02:17Z</time>
        <extensions>
          <gpxtpx:TrackPointExtension xmlns:gpxtpx="http://www.garmin.com/xmlschemas/TrackPointExtension/v1">
            <gpxtpx:hr>107</gpxtpx:hr>
          </gpxtpx:TrackPointExtension>
        </extensions>
      </trkpt>
      <trkpt lat="48.65314" lon="2.07308">
        <ele>172.4</ele>
        <time>2023-03-05T15:02:19Z</time>
        <extensions>
          <gpxtpx:TrackPointExtension xmlns:gpxtpx="http://www.garmin.com/xmlschemas/TrackPointExtension/v1">
            <gpxtpx:hr>107</gpxtpx:hr>
          </gpxtpx:TrackPointExtension>
        </extensions>
      </trkpt>
      <trkpt lat="48.65312" lon="2.07305">
        <ele>172.6</ele>
        <time>2023-03-05T15:02:21Z</time>
        <extensions>
          <gpxtpx:TrackPointExtension xmlns:gpxtpx="http://www.garmin.com/xmlschemas/TrackPointExtension/v1">
            <gpxtpx:hr>107</gpxtpx:hr>
          </gpxtpx:TrackPointExtension>
        </extensions>
      </trkpt>
      <trkpt lat="48.65309" lon="2.07301">
        <ele>172.8</ele>
        <time>2023-03-05T15:02:23Z</time>
        <extensions>
          <gpxtpx:TrackPointExtension xmlns:gpxtpx="http://www.garmin.com/xmlschemas/TrackPointExtension/v1">
            <gpxtpx:hr>107</gpxtpx:hr>
          </gpxtpx:TrackPointExtension>
        </extensions>
      </trkpt>
      <trkpt lat="48.65307" lon="2.07298">
        <ele>172.8</ele>
        <time>2023-03-05T15:02:25Z</time>
        <extensions>
          <gpxtpx:TrackPointExtension xmlns:gpxtpx="http://www.garmin.com/xmlschemas/TrackPointExtension/v1">
            <gpxtpx:hr>107</gpxtpx:hr>
          </gpxtpx:TrackPointExtension>
        </extensions>
      </trkpt>
      <trkpt lat="48.65306" lon="2.07296">
        <ele>172.8</ele>
        <time>2023-03-05T15:02:26Z</time>
        <extensions>
          <gpxtpx:TrackPointExtension xmlns:gpxtpx="http://www.garmin.com/xmlschemas/TrackPointExtension/v1">
            <gpxtpx:hr>107</gpxtpx:hr>
          </gpxtpx:TrackPointExtension>
        </extensions>
      </trkpt>
      <trkpt lat="48.65303" lon="2.07292">
        <ele>172.8</ele>
        <time>2023-03-05T15:02:28Z</time>
        <extensions>
          <gpxtpx:TrackPointExtension xmlns:gpxtpx="http://www.garmin.com/xmlschemas/TrackPointExtension/v1">
            <gpxtpx:hr>107</gpxtpx:hr>
          </gpxtpx:TrackPointExtension>
        </extensions>
      </trkpt>
      <trkpt lat="48.65301" lon="2.07288">
        <ele>172.8</ele>
        <time>2023-03-05T15:02:30Z</time>
        <extensions>
          <gpxtpx:TrackPointExtension xmlns:gpxtpx="http://www.garmin.com/xmlschemas/TrackPointExtension/v1">
            <gpxtpx:hr>107</gpxtpx:hr>
          </gpxtpx:TrackPointExtension>
        </extensions>
      </trkpt>
      <trkpt lat="48.65299" lon="2.07284">
        <ele>172.8</ele>
        <time>2023-03-05T15:02:32Z</time>
        <extensions>
          <gpxtpx:TrackPointExtension xmlns:gpxtpx="http://www.garmin.com/xmlschemas/TrackPointExtension/v1">
            <gpxtpx:hr>107</gpxtpx:hr>
          </gpxtpx:TrackPointExtension>
        </extensions>
      </trkpt>
      <trkpt lat="48.65297" lon="2.07281">
        <ele>172.6</ele>
        <time>2023-03-05T15:02:34Z</time>
        <extensions>
          <gpxtpx:TrackPointExtension xmlns:gpxtpx="http://www.garmin.com/xmlschemas/TrackPointExtension/v1">
            <gpxtpx:hr>107</gpxtpx:hr>
          </gpxtpx:TrackPointExtension>
        </extensions>
      </trkpt>
      <trkpt lat="48.65295" lon="2.07277">
        <ele>172.6</ele>
        <time>2023-03-05T15:02:36Z</time>
        <extensions>
          <gpxtpx:TrackPointExtension xmlns:gpxtpx="http://www.garmin.com/xmlschemas/TrackPointExtension/v1">
            <gpxtpx:hr>107</gpxtpx:hr>
          </gpxtpx:TrackPointExtension>
        </extensions>
      </trkpt>
      <trkpt lat="48.65293" lon="2.07275">
        <ele>172.8</ele>
        <time>2023-03-05T15:02:37Z</time>
        <extensions>
          <gpxtpx:TrackPointExtension xmlns:gpxtpx="http://www.garmin.com/xmlschemas/TrackPointExtension/v1">
            <gpxtpx:hr>107</gpxtpx:hr>
          </gpxtpx:TrackPointExtension>
        </extensions>
      </trkpt>
      <trkpt lat="48.65291" lon="2.07272">
        <ele>172.8</ele>
        <time>2023-03-05T15:02:39Z</time>
        <extensions>
          <gpxtpx:TrackPointExtension xmlns:gpxtpx="http://www.garmin.com/xmlschemas/TrackPointExtension/v1">
            <gpxtpx:hr>107</gpxtpx:hr>
          </gpxtpx:TrackPointExtension>
        </extensions>
      </trkpt>
      <trkpt lat="48.65288" lon="2.07269">
        <ele>172.8</ele>
        <time>2023-03-05T15:02:41Z</time>
        <extensions>
          <gpxtpx:TrackPointExtension xmlns:gpxtpx="http://www.garmin.com/xmlschemas/TrackPointExtension/v1">
            <gpxtpx:hr>107</gpxtpx:hr>
          </gpxtpx:TrackPointExtension>
        </extensions>
      </trkpt>
      <trkpt lat="48.65286" lon="2.07266">
        <ele>172.8</ele>
        <time>2023-03-05T15:02:43Z</time>
        <extensions>
          <gpxtpx:TrackPointExtension xmlns:gpxtpx="http://www.garmin.com/xmlschemas/TrackPointExtension/v1">
            <gpxtpx:hr>107</gpxtpx:hr>
          </gpxtpx:TrackPointExtension>
        </extensions>
      </trkpt>
      <trkpt lat="48.65284" lon="2.07263">
        <ele>172.8</ele>
        <time>2023-03-05T15:02:45Z</time>
        <extensions>
          <gpxtpx:TrackPointExtension xmlns:gpxtpx="http://www.garmin.com/xmlschemas/TrackPointExtension/v1">
            <gpxtpx:hr>107</gpxtpx:hr>
          </gpxtpx:TrackPointExtension>
        </extensions>
      </trkpt>
      <trkpt lat="48.65283" lon="2.07259">
        <ele>172.8</ele>
        <time>2023-03-05T15:02:47Z</time>
        <extensions>
          <gpxtpx:TrackPointExtension xmlns:gpxtpx="http://www.garmin.com/xmlschemas/TrackPointExtension/v1">
            <gpxtpx:hr>107</gpxtpx:hr>
          </gpxtpx:TrackPointExtension>
        </extensions>
      </trkpt>
      <trkpt lat="48.65281" lon="2.07257">
        <ele>172.8</ele>
        <time>2023-03-05T15:02:48Z</time>
        <extensions>
          <gpxtpx:TrackPointExtension xmlns:gpxtpx="http://www.garmin.com/xmlschemas/TrackPointExtension/v1">
            <gpxtpx:hr>107</gpxtpx:hr>
          </gpxtpx:TrackPointExtension>
        </extensions>
      </trkpt>
      <trkpt lat="48.65279" lon="2.07256">
        <ele>172.8</ele>
        <time>2023-03-05T15:02:49Z</time>
        <extensions>
          <gpxtpx:TrackPointExtension xmlns:gpxtpx="http://www.garmin.com/xmlschemas/TrackPointExtension/v1">
            <gpxtpx:hr>106</gpxtpx:hr>
          </gpxtpx:TrackPointExtension>
        </extensions>
      </trkpt>
      <trkpt lat="48.65277" lon="2.07255">
        <ele>172.8</ele>
        <time>2023-03-05T15:02:50Z</time>
        <extensions>
          <gpxtpx:TrackPointExtension xmlns:gpxtpx="http://www.garmin.com/xmlschemas/TrackPointExtension/v1">
            <gpxtpx:hr>106</gpxtpx:hr>
          </gpxtpx:TrackPointExtension>
        </extensions>
      </trkpt>
      <trkpt lat="48.65275" lon="2.07254">
        <ele>172.8</ele>
        <time>2023-03-05T15:02:51Z</time>
        <extensions>
          <gpxtpx:TrackPointExtension xmlns:gpxtpx="http://www.garmin.com/xmlschemas/TrackPointExtension/v1">
            <gpxtpx:hr>106</gpxtpx:hr>
          </gpxtpx:TrackPointExtension>
        </extensions>
      </trkpt>
      <trkpt lat="48.65273" lon="2.07253">
        <ele>172.8</ele>
        <time>2023-03-05T15:02:52Z</time>
        <extensions>
          <gpxtpx:TrackPointExtension xmlns:gpxtpx="http://www.garmin.com/xmlschemas/TrackPointExtension/v1">
            <gpxtpx:hr>106</gpxtpx:hr>
          </gpxtpx:TrackPointExtension>
        </extensions>
      </trkpt>
      <trkpt lat="48.65271" lon="2.07251">
        <ele>172.8</ele>
        <time>2023-03-05T15:02:53Z</time>
        <extensions>
          <gpxtpx:TrackPointExtension xmlns:gpxtpx="http://www.garmin.com/xmlschemas/TrackPointExtension/v1">
            <gpxtpx:hr>106</gpxtpx:hr>
          </gpxtpx:TrackPointExtension>
        </extensions>
      </trkpt>
      <trkpt lat="48.6527" lon="2.07249">
        <ele>172.8</ele>
        <time>2023-03-05T15:02:54Z</time>
        <extensions>
          <gpxtpx:TrackPointExtension xmlns:gpxtpx="http://www.garmin.com/xmlschemas/TrackPointExtension/v1">
            <gpxtpx:hr>106</gpxtpx:hr>
          </gpxtpx:TrackPointExtension>
        </extensions>
      </trkpt>
      <trkpt lat="48.65268" lon="2.07244">
        <ele>172.8</ele>
        <time>2023-03-05T15:02:56Z</time>
        <extensions>
          <gpxtpx:TrackPointExtension xmlns:gpxtpx="http://www.garmin.com/xmlschemas/TrackPointExtension/v1">
            <gpxtpx:hr>106</gpxtpx:hr>
          </gpxtpx:TrackPointExtension>
        </extensions>
      </trkpt>
      <trkpt lat="48.65268" lon="2.07242">
        <ele>172.8</ele>
        <time>2023-03-05T15:02:57Z</time>
        <extensions>
          <gpxtpx:TrackPointExtension xmlns:gpxtpx="http://www.garmin.com/xmlschemas/TrackPointExtension/v1">
            <gpxtpx:hr>106</gpxtpx:hr>
          </gpxtpx:TrackPointExtension>
        </extensions>
      </trkpt>
      <trkpt lat="48.65267" lon="2.07239">
        <ele>172.8</ele>
        <time>2023-03-05T15:02:58Z</time>
        <extensions>
          <gpxtpx:TrackPointExtension xmlns:gpxtpx="http://www.garmin.com/xmlschemas/TrackPointExtension/v1">
            <gpxtpx:hr>106</gpxtpx:hr>
          </gpxtpx:TrackPointExtension>
        </extensions>
      </trkpt>
      <trkpt lat="48.65266" lon="2.07237">
        <ele>172.8</ele>
        <time>2023-03-05T15:02:59Z</time>
        <extensions>
          <gpxtpx:TrackPointExtension xmlns:gpxtpx="http://www.garmin.com/xmlschemas/TrackPointExtension/v1">
            <gpxtpx:hr>106</gpxtpx:hr>
          </gpxtpx:TrackPointExtension>
        </extensions>
      </trkpt>
      <trkpt lat="48.65264" lon="2.07232">
        <ele>172.8</ele>
        <time>2023-03-05T15:03:01Z</time>
        <extensions>
          <gpxtpx:TrackPointExtension xmlns:gpxtpx="http://www.garmin.com/xmlschemas/TrackPointExtension/v1">
            <gpxtpx:hr>106</gpxtpx:hr>
          </gpxtpx:TrackPointExtension>
        </extensions>
      </trkpt>
      <trkpt lat="48.65262" lon="2.07228">
        <ele>173</ele>
        <time>2023-03-05T15:03:03Z</time>
        <extensions>
          <gpxtpx:TrackPointExtension xmlns:gpxtpx="http://www.garmin.com/xmlschemas/TrackPointExtension/v1">
            <gpxtpx:hr>107</gpxtpx:hr>
          </gpxtpx:TrackPointExtension>
        </extensions>
      </trkpt>
      <trkpt lat="48.6526" lon="2.07224">
        <ele>173</ele>
        <time>2023-03-05T15:03:05Z</time>
        <extensions>
          <gpxtpx:TrackPointExtension xmlns:gpxtpx="http://www.garmin.com/xmlschemas/TrackPointExtension/v1">
            <gpxtpx:hr>107</gpxtpx:hr>
          </gpxtpx:TrackPointExtension>
        </extensions>
      </trkpt>
      <trkpt lat="48.65257" lon="2.0722">
        <ele>173</ele>
        <time>2023-03-05T15:03:07Z</time>
        <extensions>
          <gpxtpx:TrackPointExtension xmlns:gpxtpx="http://www.garmin.com/xmlschemas/TrackPointExtension/v1">
            <gpxtpx:hr>107</gpxtpx:hr>
          </gpxtpx:TrackPointExtension>
        </extensions>
      </trkpt>
      <trkpt lat="48.65256" lon="2.07218">
        <ele>173.2</ele>
        <time>2023-03-05T15:03:08Z</time>
        <extensions>
          <gpxtpx:TrackPointExtension xmlns:gpxtpx="http://www.garmin.com/xmlschemas/TrackPointExtension/v1">
            <gpxtpx:hr>107</gpxtpx:hr>
          </gpxtpx:TrackPointExtension>
        </extensions>
      </trkpt>
      <trkpt lat="48.65254" lon="2.07215">
        <ele>173.4</ele>
        <time>2023-03-05T15:03:10Z</time>
        <extensions>
          <gpxtpx:TrackPointExtension xmlns:gpxtpx="http://www.garmin.com/xmlschemas/TrackPointExtension/v1">
            <gpxtpx:hr>107</gpxtpx:hr>
          </gpxtpx:TrackPointExtension>
        </extensions>
      </trkpt>
      <trkpt lat="48.65252" lon="2.07211">
        <ele>173.6</ele>
        <time>2023-03-05T15:03:12Z</time>
        <extensions>
          <gpxtpx:TrackPointExtension xmlns:gpxtpx="http://www.garmin.com/xmlschemas/TrackPointExtension/v1">
            <gpxtpx:hr>107</gpxtpx:hr>
          </gpxtpx:TrackPointExtension>
        </extensions>
      </trkpt>
      <trkpt lat="48.65251" lon="2.07207">
        <ele>173.6</ele>
        <time>2023-03-05T15:03:14Z</time>
        <extensions>
          <gpxtpx:TrackPointExtension xmlns:gpxtpx="http://www.garmin.com/xmlschemas/TrackPointExtension/v1">
            <gpxtpx:hr>107</gpxtpx:hr>
          </gpxtpx:TrackPointExtension>
        </extensions>
      </trkpt>
      <trkpt lat="48.6525" lon="2.07203">
        <ele>174</ele>
        <time>2023-03-05T15:03:16Z</time>
        <extensions>
          <gpxtpx:TrackPointExtension xmlns:gpxtpx="http://www.garmin.com/xmlschemas/TrackPointExtension/v1">
            <gpxtpx:hr>107</gpxtpx:hr>
          </gpxtpx:TrackPointExtension>
        </extensions>
      </trkpt>
      <trkpt lat="48.65249" lon="2.072">
        <ele>174.2</ele>
        <time>2023-03-05T15:03:18Z</time>
        <extensions>
          <gpxtpx:TrackPointExtension xmlns:gpxtpx="http://www.garmin.com/xmlschemas/TrackPointExtension/v1">
            <gpxtpx:hr>106</gpxtpx:hr>
          </gpxtpx:TrackPointExtension>
        </extensions>
      </trkpt>
      <trkpt lat="48.65247" lon="2.07196">
        <ele>174.4</ele>
        <time>2023-03-05T15:03:20Z</time>
        <extensions>
          <gpxtpx:TrackPointExtension xmlns:gpxtpx="http://www.garmin.com/xmlschemas/TrackPointExtension/v1">
            <gpxtpx:hr>106</gpxtpx:hr>
          </gpxtpx:TrackPointExtension>
        </extensions>
      </trkpt>
      <trkpt lat="48.65245" lon="2.07193">
        <ele>174.6</ele>
        <time>2023-03-05T15:03:22Z</time>
        <extensions>
          <gpxtpx:TrackPointExtension xmlns:gpxtpx="http://www.garmin.com/xmlschemas/TrackPointExtension/v1">
            <gpxtpx:hr>106</gpxtpx:hr>
          </gpxtpx:TrackPointExtension>
        </extensions>
      </trkpt>
      <trkpt lat="48.65242" lon="2.07189">
        <ele>174.8</ele>
        <time>2023-03-05T15:03:24Z</time>
        <extensions>
          <gpxtpx:TrackPointExtension xmlns:gpxtpx="http://www.garmin.com/xmlschemas/TrackPointExtension/v1">
            <gpxtpx:hr>106</gpxtpx:hr>
          </gpxtpx:TrackPointExtension>
        </extensions>
      </trkpt>
      <trkpt lat="48.6524" lon="2.07186">
        <ele>174.8</ele>
        <time>2023-03-05T15:03:26Z</time>
        <extensions>
          <gpxtpx:TrackPointExtension xmlns:gpxtpx="http://www.garmin.com/xmlschemas/TrackPointExtension/v1">
            <gpxtpx:hr>106</gpxtpx:hr>
          </gpxtpx:TrackPointExtension>
        </extensions>
      </trkpt>
      <trkpt lat="48.65238" lon="2.07182">
        <ele>175</ele>
        <time>2023-03-05T15:03:28Z</time>
        <extensions>
          <gpxtpx:TrackPointExtension xmlns:gpxtpx="http://www.garmin.com/xmlschemas/TrackPointExtension/v1">
            <gpxtpx:hr>106</gpxtpx:hr>
          </gpxtpx:TrackPointExtension>
        </extensions>
      </trkpt>
      <trkpt lat="48.65236" lon="2.07179">
        <ele>175</ele>
        <time>2023-03-05T15:03:30Z</time>
        <extensions>
          <gpxtpx:TrackPointExtension xmlns:gpxtpx="http://www.garmin.com/xmlschemas/TrackPointExtension/v1">
            <gpxtpx:hr>106</gpxtpx:hr>
          </gpxtpx:TrackPointExtension>
        </extensions>
      </trkpt>
      <trkpt lat="48.65234" lon="2.07176">
        <ele>174.8</ele>
        <time>2023-03-05T15:03:32Z</time>
        <extensions>
          <gpxtpx:TrackPointExtension xmlns:gpxtpx="http://www.garmin.com/xmlschemas/TrackPointExtension/v1">
            <gpxtpx:hr>106</gpxtpx:hr>
          </gpxtpx:TrackPointExtension>
        </extensions>
      </trkpt>
      <trkpt lat="48.65232" lon="2.07173">
        <ele>174.8</ele>
        <time>2023-03-05T15:03:34Z</time>
        <extensions>
          <gpxtpx:TrackPointExtension xmlns:gpxtpx="http://www.garmin.com/xmlschemas/TrackPointExtension/v1">
            <gpxtpx:hr>106</gpxtpx:hr>
          </gpxtpx:TrackPointExtension>
        </extensions>
      </trkpt>
      <trkpt lat="48.6523" lon="2.07169">
        <ele>174.6</ele>
        <time>2023-03-05T15:03:36Z</time>
        <extensions>
          <gpxtpx:TrackPointExtension xmlns:gpxtpx="http://www.garmin.com/xmlschemas/TrackPointExtension/v1">
            <gpxtpx:hr>105</gpxtpx:hr>
          </gpxtpx:TrackPointExtension>
        </extensions>
      </trkpt>
      <trkpt lat="48.65228" lon="2.07166">
        <ele>174.4</ele>
        <time>2023-03-05T15:03:38Z</time>
        <extensions>
          <gpxtpx:TrackPointExtension xmlns:gpxtpx="http://www.garmin.com/xmlschemas/TrackPointExtension/v1">
            <gpxtpx:hr>105</gpxtpx:hr>
          </gpxtpx:TrackPointExtension>
        </extensions>
      </trkpt>
      <trkpt lat="48.65226" lon="2.07163">
        <ele>174.2</ele>
        <time>2023-03-05T15:03:40Z</time>
        <extensions>
          <gpxtpx:TrackPointExtension xmlns:gpxtpx="http://www.garmin.com/xmlschemas/TrackPointExtension/v1">
            <gpxtpx:hr>105</gpxtpx:hr>
          </gpxtpx:TrackPointExtension>
        </extensions>
      </trkpt>
      <trkpt lat="48.65223" lon="2.07159">
        <ele>174.2</ele>
        <time>2023-03-05T15:03:42Z</time>
        <extensions>
          <gpxtpx:TrackPointExtension xmlns:gpxtpx="http://www.garmin.com/xmlschemas/TrackPointExtension/v1">
            <gpxtpx:hr>105</gpxtpx:hr>
          </gpxtpx:TrackPointExtension>
        </extensions>
      </trkpt>
      <trkpt lat="48.65221" lon="2.07156">
        <ele>174</ele>
        <time>2023-03-05T15:03:44Z</time>
        <extensions>
          <gpxtpx:TrackPointExtension xmlns:gpxtpx="http://www.garmin.com/xmlschemas/TrackPointExtension/v1">
            <gpxtpx:hr>105</gpxtpx:hr>
          </gpxtpx:TrackPointExtension>
        </extensions>
      </trkpt>
      <trkpt lat="48.65219" lon="2.07153">
        <ele>174</ele>
        <time>2023-03-05T15:03:46Z</time>
        <extensions>
          <gpxtpx:TrackPointExtension xmlns:gpxtpx="http://www.garmin.com/xmlschemas/TrackPointExtension/v1">
            <gpxtpx:hr>105</gpxtpx:hr>
          </gpxtpx:TrackPointExtension>
        </extensions>
      </trkpt>
      <trkpt lat="48.65217" lon="2.0715">
        <ele>174</ele>
        <time>2023-03-05T15:03:48Z</time>
        <extensions>
          <gpxtpx:TrackPointExtension xmlns:gpxtpx="http://www.garmin.com/xmlschemas/TrackPointExtension/v1">
            <gpxtpx:hr>105</gpxtpx:hr>
          </gpxtpx:TrackPointExtension>
        </extensions>
      </trkpt>
      <trkpt lat="48.65215" lon="2.07147">
        <ele>174.2</ele>
        <time>2023-03-05T15:03:50Z</time>
        <extensions>
          <gpxtpx:TrackPointExtension xmlns:gpxtpx="http://www.garmin.com/xmlschemas/TrackPointExtension/v1">
            <gpxtpx:hr>105</gpxtpx:hr>
          </gpxtpx:TrackPointExtension>
        </extensions>
      </trkpt>
      <trkpt lat="48.65212" lon="2.07143">
        <ele>174.2</ele>
        <time>2023-03-05T15:03:52Z</time>
        <extensions>
          <gpxtpx:TrackPointExtension xmlns:gpxtpx="http://www.garmin.com/xmlschemas/TrackPointExtension/v1">
            <gpxtpx:hr>105</gpxtpx:hr>
          </gpxtpx:TrackPointExtension>
        </extensions>
      </trkpt>
      <trkpt lat="48.65211" lon="2.0714">
        <ele>174.2</ele>
        <time>2023-03-05T15:03:54Z</time>
        <extensions>
          <gpxtpx:TrackPointExtension xmlns:gpxtpx="http://www.garmin.com/xmlschemas/TrackPointExtension/v1">
            <gpxtpx:hr>105</gpxtpx:hr>
          </gpxtpx:TrackPointExtension>
        </extensions>
      </trkpt>
      <trkpt lat="48.65208" lon="2.07136">
        <ele>174.2</ele>
        <time>2023-03-05T15:03:56Z</time>
        <extensions>
          <gpxtpx:TrackPointExtension xmlns:gpxtpx="http://www.garmin.com/xmlschemas/TrackPointExtension/v1">
            <gpxtpx:hr>105</gpxtpx:hr>
          </gpxtpx:TrackPointExtension>
        </extensions>
      </trkpt>
      <trkpt lat="48.65205" lon="2.07133">
        <ele>174.2</ele>
        <time>2023-03-05T15:03:58Z</time>
        <extensions>
          <gpxtpx:TrackPointExtension xmlns:gpxtpx="http://www.garmin.com/xmlschemas/TrackPointExtension/v1">
            <gpxtpx:hr>104</gpxtpx:hr>
          </gpxtpx:TrackPointExtension>
        </extensions>
      </trkpt>
      <trkpt lat="48.65203" lon="2.07129">
        <ele>174.2</ele>
        <time>2023-03-05T15:04:00Z</time>
        <extensions>
          <gpxtpx:TrackPointExtension xmlns:gpxtpx="http://www.garmin.com/xmlschemas/TrackPointExtension/v1">
            <gpxtpx:hr>104</gpxtpx:hr>
          </gpxtpx:TrackPointExtension>
        </extensions>
      </trkpt>
      <trkpt lat="48.652" lon="2.07126">
        <ele>174.2</ele>
        <time>2023-03-05T15:04:02Z</time>
        <extensions>
          <gpxtpx:TrackPointExtension xmlns:gpxtpx="http://www.garmin.com/xmlschemas/TrackPointExtension/v1">
            <gpxtpx:hr>105</gpxtpx:hr>
          </gpxtpx:TrackPointExtension>
        </extensions>
      </trkpt>
      <trkpt lat="48.65197" lon="2.07123">
        <ele>174.2</ele>
        <time>2023-03-05T15:04:04Z</time>
        <extensions>
          <gpxtpx:TrackPointExtension xmlns:gpxtpx="http://www.garmin.com/xmlschemas/TrackPointExtension/v1">
            <gpxtpx:hr>105</gpxtpx:hr>
          </gpxtpx:TrackPointExtension>
        </extensions>
      </trkpt>
      <trkpt lat="48.65196" lon="2.0712">
        <ele>174.2</ele>
        <time>2023-03-05T15:04:06Z</time>
        <extensions>
          <gpxtpx:TrackPointExtension xmlns:gpxtpx="http://www.garmin.com/xmlschemas/TrackPointExtension/v1">
            <gpxtpx:hr>104</gpxtpx:hr>
          </gpxtpx:TrackPointExtension>
        </extensions>
      </trkpt>
      <trkpt lat="48.65193" lon="2.07117">
        <ele>174.2</ele>
        <time>2023-03-05T15:04:08Z</time>
        <extensions>
          <gpxtpx:TrackPointExtension xmlns:gpxtpx="http://www.garmin.com/xmlschemas/TrackPointExtension/v1">
            <gpxtpx:hr>104</gpxtpx:hr>
          </gpxtpx:TrackPointExtension>
        </extensions>
      </trkpt>
      <trkpt lat="48.65191" lon="2.07114">
        <ele>174</ele>
        <time>2023-03-05T15:04:10Z</time>
        <extensions>
          <gpxtpx:TrackPointExtension xmlns:gpxtpx="http://www.garmin.com/xmlschemas/TrackPointExtension/v1">
            <gpxtpx:hr>104</gpxtpx:hr>
          </gpxtpx:TrackPointExtension>
        </extensions>
      </trkpt>
      <trkpt lat="48.65189" lon="2.07111">
        <ele>173.6</ele>
        <time>2023-03-05T15:04:12Z</time>
        <extensions>
          <gpxtpx:TrackPointExtension xmlns:gpxtpx="http://www.garmin.com/xmlschemas/TrackPointExtension/v1">
            <gpxtpx:hr>104</gpxtpx:hr>
          </gpxtpx:TrackPointExtension>
        </extensions>
      </trkpt>
      <trkpt lat="48.65187" lon="2.07108">
        <ele>173.4</ele>
        <time>2023-03-05T15:04:14Z</time>
        <extensions>
          <gpxtpx:TrackPointExtension xmlns:gpxtpx="http://www.garmin.com/xmlschemas/TrackPointExtension/v1">
            <gpxtpx:hr>104</gpxtpx:hr>
          </gpxtpx:TrackPointExtension>
        </extensions>
      </trkpt>
      <trkpt lat="48.65185" lon="2.07105">
        <ele>173.2</ele>
        <time>2023-03-05T15:04:16Z</time>
        <extensions>
          <gpxtpx:TrackPointExtension xmlns:gpxtpx="http://www.garmin.com/xmlschemas/TrackPointExtension/v1">
            <gpxtpx:hr>104</gpxtpx:hr>
          </gpxtpx:TrackPointExtension>
        </extensions>
      </trkpt>
      <trkpt lat="48.65184" lon="2.07104">
        <ele>173.4</ele>
        <time>2023-03-05T15:04:17Z</time>
        <extensions>
          <gpxtpx:TrackPointExtension xmlns:gpxtpx="http://www.garmin.com/xmlschemas/TrackPointExtension/v1">
            <gpxtpx:hr>104</gpxtpx:hr>
          </gpxtpx:TrackPointExtension>
        </extensions>
      </trkpt>
      <trkpt lat="48.65181" lon="2.07101">
        <ele>173.4</ele>
        <time>2023-03-05T15:04:19Z</time>
        <extensions>
          <gpxtpx:TrackPointExtension xmlns:gpxtpx="http://www.garmin.com/xmlschemas/TrackPointExtension/v1">
            <gpxtpx:hr>104</gpxtpx:hr>
          </gpxtpx:TrackPointExtension>
        </extensions>
      </trkpt>
      <trkpt lat="48.65179" lon="2.07097">
        <ele>173.6</ele>
        <time>2023-03-05T15:04:21Z</time>
        <extensions>
          <gpxtpx:TrackPointExtension xmlns:gpxtpx="http://www.garmin.com/xmlschemas/TrackPointExtension/v1">
            <gpxtpx:hr>104</gpxtpx:hr>
          </gpxtpx:TrackPointExtension>
        </extensions>
      </trkpt>
      <trkpt lat="48.65178" lon="2.07095">
        <ele>173.6</ele>
        <time>2023-03-05T15:04:22Z</time>
        <extensions>
          <gpxtpx:TrackPointExtension xmlns:gpxtpx="http://www.garmin.com/xmlschemas/TrackPointExtension/v1">
            <gpxtpx:hr>104</gpxtpx:hr>
          </gpxtpx:TrackPointExtension>
        </extensions>
      </trkpt>
      <trkpt lat="48.65177" lon="2.07093">
        <ele>173.6</ele>
        <time>2023-03-05T15:04:23Z</time>
        <extensions>
          <gpxtpx:TrackPointExtension xmlns:gpxtpx="http://www.garmin.com/xmlschemas/TrackPointExtension/v1">
            <gpxtpx:hr>104</gpxtpx:hr>
          </gpxtpx:TrackPointExtension>
        </extensions>
      </trkpt>
      <trkpt lat="48.65175" lon="2.07089">
        <ele>173.6</ele>
        <time>2023-03-05T15:04:25Z</time>
        <extensions>
          <gpxtpx:TrackPointExtension xmlns:gpxtpx="http://www.garmin.com/xmlschemas/TrackPointExtension/v1">
            <gpxtpx:hr>104</gpxtpx:hr>
          </gpxtpx:TrackPointExtension>
        </extensions>
      </trkpt>
      <trkpt lat="48.65173" lon="2.07085">
        <ele>173.6</ele>
        <time>2023-03-05T15:04:27Z</time>
        <extensions>
          <gpxtpx:TrackPointExtension xmlns:gpxtpx="http://www.garmin.com/xmlschemas/TrackPointExtension/v1">
            <gpxtpx:hr>104</gpxtpx:hr>
          </gpxtpx:TrackPointExtension>
        </extensions>
      </trkpt>
      <trkpt lat="48.65171" lon="2.07082">
        <ele>173.2</ele>
        <time>2023-03-05T15:04:29Z</time>
        <extensions>
          <gpxtpx:TrackPointExtension xmlns:gpxtpx="http://www.garmin.com/xmlschemas/TrackPointExtension/v1">
            <gpxtpx:hr>104</gpxtpx:hr>
          </gpxtpx:TrackPointExtension>
        </extensions>
      </trkpt>
      <trkpt lat="48.65168" lon="2.07078">
        <ele>172.8</ele>
        <time>2023-03-05T15:04:31Z</time>
        <extensions>
          <gpxtpx:TrackPointExtension xmlns:gpxtpx="http://www.garmin.com/xmlschemas/TrackPointExtension/v1">
            <gpxtpx:hr>104</gpxtpx:hr>
          </gpxtpx:TrackPointExtension>
        </extensions>
      </trkpt>
      <trkpt lat="48.65166" lon="2.07075">
        <ele>172.6</ele>
        <time>2023-03-05T15:04:33Z</time>
        <extensions>
          <gpxtpx:TrackPointExtension xmlns:gpxtpx="http://www.garmin.com/xmlschemas/TrackPointExtension/v1">
            <gpxtpx:hr>104</gpxtpx:hr>
          </gpxtpx:TrackPointExtension>
        </extensions>
      </trkpt>
      <trkpt lat="48.65164" lon="2.07073">
        <ele>172.6</ele>
        <time>2023-03-05T15:04:34Z</time>
        <extensions>
          <gpxtpx:TrackPointExtension xmlns:gpxtpx="http://www.garmin.com/xmlschemas/TrackPointExtension/v1">
            <gpxtpx:hr>104</gpxtpx:hr>
          </gpxtpx:TrackPointExtension>
        </extensions>
      </trkpt>
      <trkpt lat="48.65163" lon="2.07071">
        <ele>172.6</ele>
        <time>2023-03-05T15:04:35Z</time>
        <extensions>
          <gpxtpx:TrackPointExtension xmlns:gpxtpx="http://www.garmin.com/xmlschemas/TrackPointExtension/v1">
            <gpxtpx:hr>104</gpxtpx:hr>
          </gpxtpx:TrackPointExtension>
        </extensions>
      </trkpt>
      <trkpt lat="48.6516" lon="2.07068">
        <ele>172.6</ele>
        <time>2023-03-05T15:04:37Z</time>
        <extensions>
          <gpxtpx:TrackPointExtension xmlns:gpxtpx="http://www.garmin.com/xmlschemas/TrackPointExtension/v1">
            <gpxtpx:hr>104</gpxtpx:hr>
          </gpxtpx:TrackPointExtension>
        </extensions>
      </trkpt>
      <trkpt lat="48.65158" lon="2.07064">
        <ele>172.4</ele>
        <time>2023-03-05T15:04:39Z</time>
        <extensions>
          <gpxtpx:TrackPointExtension xmlns:gpxtpx="http://www.garmin.com/xmlschemas/TrackPointExtension/v1">
            <gpxtpx:hr>104</gpxtpx:hr>
          </gpxtpx:TrackPointExtension>
        </extensions>
      </trkpt>
      <trkpt lat="48.65156" lon="2.07061">
        <ele>172.2</ele>
        <time>2023-03-05T15:04:41Z</time>
        <extensions>
          <gpxtpx:TrackPointExtension xmlns:gpxtpx="http://www.garmin.com/xmlschemas/TrackPointExtension/v1">
            <gpxtpx:hr>104</gpxtpx:hr>
          </gpxtpx:TrackPointExtension>
        </extensions>
      </trkpt>
      <trkpt lat="48.65154" lon="2.07057">
        <ele>172.2</ele>
        <time>2023-03-05T15:04:43Z</time>
        <extensions>
          <gpxtpx:TrackPointExtension xmlns:gpxtpx="http://www.garmin.com/xmlschemas/TrackPointExtension/v1">
            <gpxtpx:hr>104</gpxtpx:hr>
          </gpxtpx:TrackPointExtension>
        </extensions>
      </trkpt>
      <trkpt lat="48.65152" lon="2.07054">
        <ele>172</ele>
        <time>2023-03-05T15:04:45Z</time>
        <extensions>
          <gpxtpx:TrackPointExtension xmlns:gpxtpx="http://www.garmin.com/xmlschemas/TrackPointExtension/v1">
            <gpxtpx:hr>104</gpxtpx:hr>
          </gpxtpx:TrackPointExtension>
        </extensions>
      </trkpt>
      <trkpt lat="48.65149" lon="2.07051">
        <ele>172</ele>
        <time>2023-03-05T15:04:47Z</time>
        <extensions>
          <gpxtpx:TrackPointExtension xmlns:gpxtpx="http://www.garmin.com/xmlschemas/TrackPointExtension/v1">
            <gpxtpx:hr>104</gpxtpx:hr>
          </gpxtpx:TrackPointExtension>
        </extensions>
      </trkpt>
      <trkpt lat="48.65147" lon="2.07047">
        <ele>172</ele>
        <time>2023-03-05T15:04:49Z</time>
        <extensions>
          <gpxtpx:TrackPointExtension xmlns:gpxtpx="http://www.garmin.com/xmlschemas/TrackPointExtension/v1">
            <gpxtpx:hr>104</gpxtpx:hr>
          </gpxtpx:TrackPointExtension>
        </extensions>
      </trkpt>
      <trkpt lat="48.65144" lon="2.07044">
        <ele>171.8</ele>
        <time>2023-03-05T15:04:51Z</time>
        <extensions>
          <gpxtpx:TrackPointExtension xmlns:gpxtpx="http://www.garmin.com/xmlschemas/TrackPointExtension/v1">
            <gpxtpx:hr>104</gpxtpx:hr>
          </gpxtpx:TrackPointExtension>
        </extensions>
      </trkpt>
      <trkpt lat="48.65142" lon="2.07041">
        <ele>171.8</ele>
        <time>2023-03-05T15:04:53Z</time>
        <extensions>
          <gpxtpx:TrackPointExtension xmlns:gpxtpx="http://www.garmin.com/xmlschemas/TrackPointExtension/v1">
            <gpxtpx:hr>104</gpxtpx:hr>
          </gpxtpx:TrackPointExtension>
        </extensions>
      </trkpt>
      <trkpt lat="48.6514" lon="2.07038">
        <ele>171.6</ele>
        <time>2023-03-05T15:04:55Z</time>
        <extensions>
          <gpxtpx:TrackPointExtension xmlns:gpxtpx="http://www.garmin.com/xmlschemas/TrackPointExtension/v1">
            <gpxtpx:hr>104</gpxtpx:hr>
          </gpxtpx:TrackPointExtension>
        </extensions>
      </trkpt>
      <trkpt lat="48.65138" lon="2.07036">
        <ele>171.4</ele>
        <time>2023-03-05T15:04:56Z</time>
        <extensions>
          <gpxtpx:TrackPointExtension xmlns:gpxtpx="http://www.garmin.com/xmlschemas/TrackPointExtension/v1">
            <gpxtpx:hr>104</gpxtpx:hr>
          </gpxtpx:TrackPointExtension>
        </extensions>
      </trkpt>
      <trkpt lat="48.65136" lon="2.07033">
        <ele>171.2</ele>
        <time>2023-03-05T15:04:58Z</time>
        <extensions>
          <gpxtpx:TrackPointExtension xmlns:gpxtpx="http://www.garmin.com/xmlschemas/TrackPointExtension/v1">
            <gpxtpx:hr>104</gpxtpx:hr>
          </gpxtpx:TrackPointExtension>
        </extensions>
      </trkpt>
      <trkpt lat="48.65134" lon="2.07029">
        <ele>171.2</ele>
        <time>2023-03-05T15:05:00Z</time>
        <extensions>
          <gpxtpx:TrackPointExtension xmlns:gpxtpx="http://www.garmin.com/xmlschemas/TrackPointExtension/v1">
            <gpxtpx:hr>104</gpxtpx:hr>
          </gpxtpx:TrackPointExtension>
        </extensions>
      </trkpt>
      <trkpt lat="48.65131" lon="2.07026">
        <ele>171</ele>
        <time>2023-03-05T15:05:02Z</time>
        <extensions>
          <gpxtpx:TrackPointExtension xmlns:gpxtpx="http://www.garmin.com/xmlschemas/TrackPointExtension/v1">
            <gpxtpx:hr>104</gpxtpx:hr>
          </gpxtpx:TrackPointExtension>
        </extensions>
      </trkpt>
      <trkpt lat="48.65129" lon="2.07022">
        <ele>171</ele>
        <time>2023-03-05T15:05:04Z</time>
        <extensions>
          <gpxtpx:TrackPointExtension xmlns:gpxtpx="http://www.garmin.com/xmlschemas/TrackPointExtension/v1">
            <gpxtpx:hr>104</gpxtpx:hr>
          </gpxtpx:TrackPointExtension>
        </extensions>
      </trkpt>
      <trkpt lat="48.65126" lon="2.07019">
        <ele>171</ele>
        <time>2023-03-05T15:05:06Z</time>
        <extensions>
          <gpxtpx:TrackPointExtension xmlns:gpxtpx="http://www.garmin.com/xmlschemas/TrackPointExtension/v1">
            <gpxtpx:hr>104</gpxtpx:hr>
          </gpxtpx:TrackPointExtension>
        </extensions>
      </trkpt>
      <trkpt lat="48.65124" lon="2.07016">
        <ele>171.2</ele>
        <time>2023-03-05T15:05:08Z</time>
        <extensions>
          <gpxtpx:TrackPointExtension xmlns:gpxtpx="http://www.garmin.com/xmlschemas/TrackPointExtension/v1">
            <gpxtpx:hr>103</gpxtpx:hr>
          </gpxtpx:TrackPointExtension>
        </extensions>
      </trkpt>
      <trkpt lat="48.65121" lon="2.07013">
        <ele>171.2</ele>
        <time>2023-03-05T15:05:10Z</time>
        <extensions>
          <gpxtpx:TrackPointExtension xmlns:gpxtpx="http://www.garmin.com/xmlschemas/TrackPointExtension/v1">
            <gpxtpx:hr>103</gpxtpx:hr>
          </gpxtpx:TrackPointExtension>
        </extensions>
      </trkpt>
      <trkpt lat="48.65118" lon="2.07009">
        <ele>171.4</ele>
        <time>2023-03-05T15:05:12Z</time>
        <extensions>
          <gpxtpx:TrackPointExtension xmlns:gpxtpx="http://www.garmin.com/xmlschemas/TrackPointExtension/v1">
            <gpxtpx:hr>103</gpxtpx:hr>
          </gpxtpx:TrackPointExtension>
        </extensions>
      </trkpt>
      <trkpt lat="48.65116" lon="2.07006">
        <ele>171.6</ele>
        <time>2023-03-05T15:05:14Z</time>
        <extensions>
          <gpxtpx:TrackPointExtension xmlns:gpxtpx="http://www.garmin.com/xmlschemas/TrackPointExtension/v1">
            <gpxtpx:hr>103</gpxtpx:hr>
          </gpxtpx:TrackPointExtension>
        </extensions>
      </trkpt>
      <trkpt lat="48.65114" lon="2.07004">
        <ele>171.6</ele>
        <time>2023-03-05T15:05:16Z</time>
        <extensions>
          <gpxtpx:TrackPointExtension xmlns:gpxtpx="http://www.garmin.com/xmlschemas/TrackPointExtension/v1">
            <gpxtpx:hr>103</gpxtpx:hr>
          </gpxtpx:TrackPointExtension>
        </extensions>
      </trkpt>
      <trkpt lat="48.65111" lon="2.07002">
        <ele>171.6</ele>
        <time>2023-03-05T15:05:18Z</time>
        <extensions>
          <gpxtpx:TrackPointExtension xmlns:gpxtpx="http://www.garmin.com/xmlschemas/TrackPointExtension/v1">
            <gpxtpx:hr>103</gpxtpx:hr>
          </gpxtpx:TrackPointExtension>
        </extensions>
      </trkpt>
      <trkpt lat="48.65108" lon="2.07">
        <ele>171.6</ele>
        <time>2023-03-05T15:05:20Z</time>
        <extensions>
          <gpxtpx:TrackPointExtension xmlns:gpxtpx="http://www.garmin.com/xmlschemas/TrackPointExtension/v1">
            <gpxtpx:hr>103</gpxtpx:hr>
          </gpxtpx:TrackPointExtension>
        </extensions>
      </trkpt>
      <trkpt lat="48.65106" lon="2.06996">
        <ele>171.6</ele>
        <time>2023-03-05T15:05:22Z</time>
        <extensions>
          <gpxtpx:TrackPointExtension xmlns:gpxtpx="http://www.garmin.com/xmlschemas/TrackPointExtension/v1">
            <gpxtpx:hr>103</gpxtpx:hr>
          </gpxtpx:TrackPointExtension>
        </extensions>
      </trkpt>
      <trkpt lat="48.65105" lon="2.06993">
        <ele>171.8</ele>
        <time>2023-03-05T15:05:24Z</time>
        <extensions>
          <gpxtpx:TrackPointExtension xmlns:gpxtpx="http://www.garmin.com/xmlschemas/TrackPointExtension/v1">
            <gpxtpx:hr>103</gpxtpx:hr>
          </gpxtpx:TrackPointExtension>
        </extensions>
      </trkpt>
      <trkpt lat="48.65104" lon="2.0699">
        <ele>171.8</ele>
        <time>2023-03-05T15:05:27Z</time>
        <extensions>
          <gpxtpx:TrackPointExtension xmlns:gpxtpx="http://www.garmin.com/xmlschemas/TrackPointExtension/v1">
            <gpxtpx:hr>103</gpxtpx:hr>
          </gpxtpx:TrackPointExtension>
        </extensions>
      </trkpt>
      <trkpt lat="48.65102" lon="2.0699">
        <ele>171.8</ele>
        <time>2023-03-05T15:05:32Z</time>
        <extensions>
          <gpxtpx:TrackPointExtension xmlns:gpxtpx="http://www.garmin.com/xmlschemas/TrackPointExtension/v1">
            <gpxtpx:hr>102</gpxtpx:hr>
          </gpxtpx:TrackPointExtension>
        </extensions>
      </trkpt>
      <trkpt lat="48.651" lon="2.06987">
        <ele>171.8</ele>
        <time>2023-03-05T15:05:34Z</time>
        <extensions>
          <gpxtpx:TrackPointExtension xmlns:gpxtpx="http://www.garmin.com/xmlschemas/TrackPointExtension/v1">
            <gpxtpx:hr>101</gpxtpx:hr>
          </gpxtpx:TrackPointExtension>
        </extensions>
      </trkpt>
      <trkpt lat="48.65098" lon="2.06984">
        <ele>172</ele>
        <time>2023-03-05T15:05:36Z</time>
        <extensions>
          <gpxtpx:TrackPointExtension xmlns:gpxtpx="http://www.garmin.com/xmlschemas/TrackPointExtension/v1">
            <gpxtpx:hr>101</gpxtpx:hr>
          </gpxtpx:TrackPointExtension>
        </extensions>
      </trkpt>
      <trkpt lat="48.65097" lon="2.06982">
        <ele>172</ele>
        <time>2023-03-05T15:05:37Z</time>
        <extensions>
          <gpxtpx:TrackPointExtension xmlns:gpxtpx="http://www.garmin.com/xmlschemas/TrackPointExtension/v1">
            <gpxtpx:hr>101</gpxtpx:hr>
          </gpxtpx:TrackPointExtension>
        </extensions>
      </trkpt>
      <trkpt lat="48.65094" lon="2.06978">
        <ele>172</ele>
        <time>2023-03-05T15:05:39Z</time>
        <extensions>
          <gpxtpx:TrackPointExtension xmlns:gpxtpx="http://www.garmin.com/xmlschemas/TrackPointExtension/v1">
            <gpxtpx:hr>101</gpxtpx:hr>
          </gpxtpx:TrackPointExtension>
        </extensions>
      </trkpt>
      <trkpt lat="48.65093" lon="2.06976">
        <ele>172</ele>
        <time>2023-03-05T15:05:40Z</time>
        <extensions>
          <gpxtpx:TrackPointExtension xmlns:gpxtpx="http://www.garmin.com/xmlschemas/TrackPointExtension/v1">
            <gpxtpx:hr>101</gpxtpx:hr>
          </gpxtpx:TrackPointExtension>
        </extensions>
      </trkpt>
      <trkpt lat="48.65091" lon="2.06974">
        <ele>172.2</ele>
        <time>2023-03-05T15:05:41Z</time>
        <extensions>
          <gpxtpx:TrackPointExtension xmlns:gpxtpx="http://www.garmin.com/xmlschemas/TrackPointExtension/v1">
            <gpxtpx:hr>101</gpxtpx:hr>
          </gpxtpx:TrackPointExtension>
        </extensions>
      </trkpt>
      <trkpt lat="48.65088" lon="2.0697">
        <ele>172.2</ele>
        <time>2023-03-05T15:05:43Z</time>
        <extensions>
          <gpxtpx:TrackPointExtension xmlns:gpxtpx="http://www.garmin.com/xmlschemas/TrackPointExtension/v1">
            <gpxtpx:hr>101</gpxtpx:hr>
          </gpxtpx:TrackPointExtension>
        </extensions>
      </trkpt>
      <trkpt lat="48.65087" lon="2.06969">
        <ele>172.2</ele>
        <time>2023-03-05T15:05:44Z</time>
        <extensions>
          <gpxtpx:TrackPointExtension xmlns:gpxtpx="http://www.garmin.com/xmlschemas/TrackPointExtension/v1">
            <gpxtpx:hr>101</gpxtpx:hr>
          </gpxtpx:TrackPointExtension>
        </extensions>
      </trkpt>
      <trkpt lat="48.65084" lon="2.06965">
        <ele>172.2</ele>
        <time>2023-03-05T15:05:46Z</time>
        <extensions>
          <gpxtpx:TrackPointExtension xmlns:gpxtpx="http://www.garmin.com/xmlschemas/TrackPointExtension/v1">
            <gpxtpx:hr>101</gpxtpx:hr>
          </gpxtpx:TrackPointExtension>
        </extensions>
      </trkpt>
      <trkpt lat="48.65083" lon="2.06963">
        <ele>172.4</ele>
        <time>2023-03-05T15:05:47Z</time>
        <extensions>
          <gpxtpx:TrackPointExtension xmlns:gpxtpx="http://www.garmin.com/xmlschemas/TrackPointExtension/v1">
            <gpxtpx:hr>101</gpxtpx:hr>
          </gpxtpx:TrackPointExtension>
        </extensions>
      </trkpt>
      <trkpt lat="48.65081" lon="2.06961">
        <ele>172.4</ele>
        <time>2023-03-05T15:05:48Z</time>
        <extensions>
          <gpxtpx:TrackPointExtension xmlns:gpxtpx="http://www.garmin.com/xmlschemas/TrackPointExtension/v1">
            <gpxtpx:hr>101</gpxtpx:hr>
          </gpxtpx:TrackPointExtension>
        </extensions>
      </trkpt>
      <trkpt lat="48.65078" lon="2.06958">
        <ele>172.4</ele>
        <time>2023-03-05T15:05:50Z</time>
        <extensions>
          <gpxtpx:TrackPointExtension xmlns:gpxtpx="http://www.garmin.com/xmlschemas/TrackPointExtension/v1">
            <gpxtpx:hr>101</gpxtpx:hr>
          </gpxtpx:TrackPointExtension>
        </extensions>
      </trkpt>
      <trkpt lat="48.65076" lon="2.06954">
        <ele>172.4</ele>
        <time>2023-03-05T15:05:52Z</time>
        <extensions>
          <gpxtpx:TrackPointExtension xmlns:gpxtpx="http://www.garmin.com/xmlschemas/TrackPointExtension/v1">
            <gpxtpx:hr>101</gpxtpx:hr>
          </gpxtpx:TrackPointExtension>
        </extensions>
      </trkpt>
      <trkpt lat="48.65075" lon="2.06952">
        <ele>172.4</ele>
        <time>2023-03-05T15:05:53Z</time>
        <extensions>
          <gpxtpx:TrackPointExtension xmlns:gpxtpx="http://www.garmin.com/xmlschemas/TrackPointExtension/v1">
            <gpxtpx:hr>101</gpxtpx:hr>
          </gpxtpx:TrackPointExtension>
        </extensions>
      </trkpt>
      <trkpt lat="48.65072" lon="2.06949">
        <ele>172.2</ele>
        <time>2023-03-05T15:05:55Z</time>
        <extensions>
          <gpxtpx:TrackPointExtension xmlns:gpxtpx="http://www.garmin.com/xmlschemas/TrackPointExtension/v1">
            <gpxtpx:hr>101</gpxtpx:hr>
          </gpxtpx:TrackPointExtension>
        </extensions>
      </trkpt>
      <trkpt lat="48.65071" lon="2.06948">
        <ele>172.2</ele>
        <time>2023-03-05T15:05:56Z</time>
        <extensions>
          <gpxtpx:TrackPointExtension xmlns:gpxtpx="http://www.garmin.com/xmlschemas/TrackPointExtension/v1">
            <gpxtpx:hr>101</gpxtpx:hr>
          </gpxtpx:TrackPointExtension>
        </extensions>
      </trkpt>
      <trkpt lat="48.65069" lon="2.06947">
        <ele>172.2</ele>
        <time>2023-03-05T15:05:57Z</time>
        <extensions>
          <gpxtpx:TrackPointExtension xmlns:gpxtpx="http://www.garmin.com/xmlschemas/TrackPointExtension/v1">
            <gpxtpx:hr>101</gpxtpx:hr>
          </gpxtpx:TrackPointExtension>
        </extensions>
      </trkpt>
      <trkpt lat="48.65068" lon="2.06945">
        <ele>172</ele>
        <time>2023-03-05T15:05:58Z</time>
        <extensions>
          <gpxtpx:TrackPointExtension xmlns:gpxtpx="http://www.garmin.com/xmlschemas/TrackPointExtension/v1">
            <gpxtpx:hr>101</gpxtpx:hr>
          </gpxtpx:TrackPointExtension>
        </extensions>
      </trkpt>
      <trkpt lat="48.65065" lon="2.06942">
        <ele>171.8</ele>
        <time>2023-03-05T15:06:00Z</time>
        <extensions>
          <gpxtpx:TrackPointExtension xmlns:gpxtpx="http://www.garmin.com/xmlschemas/TrackPointExtension/v1">
            <gpxtpx:hr>101</gpxtpx:hr>
          </gpxtpx:TrackPointExtension>
        </extensions>
      </trkpt>
      <trkpt lat="48.65063" lon="2.0694">
        <ele>171.6</ele>
        <time>2023-03-05T15:06:01Z</time>
        <extensions>
          <gpxtpx:TrackPointExtension xmlns:gpxtpx="http://www.garmin.com/xmlschemas/TrackPointExtension/v1">
            <gpxtpx:hr>101</gpxtpx:hr>
          </gpxtpx:TrackPointExtension>
        </extensions>
      </trkpt>
      <trkpt lat="48.65061" lon="2.06937">
        <ele>171.4</ele>
        <time>2023-03-05T15:06:03Z</time>
        <extensions>
          <gpxtpx:TrackPointExtension xmlns:gpxtpx="http://www.garmin.com/xmlschemas/TrackPointExtension/v1">
            <gpxtpx:hr>101</gpxtpx:hr>
          </gpxtpx:TrackPointExtension>
        </extensions>
      </trkpt>
      <trkpt lat="48.65059" lon="2.06933">
        <ele>171.2</ele>
        <time>2023-03-05T15:06:05Z</time>
        <extensions>
          <gpxtpx:TrackPointExtension xmlns:gpxtpx="http://www.garmin.com/xmlschemas/TrackPointExtension/v1">
            <gpxtpx:hr>102</gpxtpx:hr>
          </gpxtpx:TrackPointExtension>
        </extensions>
      </trkpt>
      <trkpt lat="48.65056" lon="2.0693">
        <ele>171.2</ele>
        <time>2023-03-05T15:06:07Z</time>
        <extensions>
          <gpxtpx:TrackPointExtension xmlns:gpxtpx="http://www.garmin.com/xmlschemas/TrackPointExtension/v1">
            <gpxtpx:hr>102</gpxtpx:hr>
          </gpxtpx:TrackPointExtension>
        </extensions>
      </trkpt>
      <trkpt lat="48.65053" lon="2.06928">
        <ele>171.2</ele>
        <time>2023-03-05T15:06:09Z</time>
        <extensions>
          <gpxtpx:TrackPointExtension xmlns:gpxtpx="http://www.garmin.com/xmlschemas/TrackPointExtension/v1">
            <gpxtpx:hr>102</gpxtpx:hr>
          </gpxtpx:TrackPointExtension>
        </extensions>
      </trkpt>
      <trkpt lat="48.6505" lon="2.06926">
        <ele>171.2</ele>
        <time>2023-03-05T15:06:11Z</time>
        <extensions>
          <gpxtpx:TrackPointExtension xmlns:gpxtpx="http://www.garmin.com/xmlschemas/TrackPointExtension/v1">
            <gpxtpx:hr>102</gpxtpx:hr>
          </gpxtpx:TrackPointExtension>
        </extensions>
      </trkpt>
      <trkpt lat="48.65047" lon="2.06923">
        <ele>171</ele>
        <time>2023-03-05T15:06:13Z</time>
        <extensions>
          <gpxtpx:TrackPointExtension xmlns:gpxtpx="http://www.garmin.com/xmlschemas/TrackPointExtension/v1">
            <gpxtpx:hr>102</gpxtpx:hr>
          </gpxtpx:TrackPointExtension>
        </extensions>
      </trkpt>
      <trkpt lat="48.65045" lon="2.06919">
        <ele>170.8</ele>
        <time>2023-03-05T15:06:15Z</time>
        <extensions>
          <gpxtpx:TrackPointExtension xmlns:gpxtpx="http://www.garmin.com/xmlschemas/TrackPointExtension/v1">
            <gpxtpx:hr>102</gpxtpx:hr>
          </gpxtpx:TrackPointExtension>
        </extensions>
      </trkpt>
      <trkpt lat="48.65044" lon="2.06918">
        <ele>170.8</ele>
        <time>2023-03-05T15:06:16Z</time>
        <extensions>
          <gpxtpx:TrackPointExtension xmlns:gpxtpx="http://www.garmin.com/xmlschemas/TrackPointExtension/v1">
            <gpxtpx:hr>102</gpxtpx:hr>
          </gpxtpx:TrackPointExtension>
        </extensions>
      </trkpt>
      <trkpt lat="48.65041" lon="2.06914">
        <ele>170.8</ele>
        <time>2023-03-05T15:06:18Z</time>
        <extensions>
          <gpxtpx:TrackPointExtension xmlns:gpxtpx="http://www.garmin.com/xmlschemas/TrackPointExtension/v1">
            <gpxtpx:hr>102</gpxtpx:hr>
          </gpxtpx:TrackPointExtension>
        </extensions>
      </trkpt>
      <trkpt lat="48.65039" lon="2.06912">
        <ele>170.8</ele>
        <time>2023-03-05T15:06:19Z</time>
        <extensions>
          <gpxtpx:TrackPointExtension xmlns:gpxtpx="http://www.garmin.com/xmlschemas/TrackPointExtension/v1">
            <gpxtpx:hr>102</gpxtpx:hr>
          </gpxtpx:TrackPointExtension>
        </extensions>
      </trkpt>
      <trkpt lat="48.65038" lon="2.0691">
        <ele>170.8</ele>
        <time>2023-03-05T15:06:20Z</time>
        <extensions>
          <gpxtpx:TrackPointExtension xmlns:gpxtpx="http://www.garmin.com/xmlschemas/TrackPointExtension/v1">
            <gpxtpx:hr>102</gpxtpx:hr>
          </gpxtpx:TrackPointExtension>
        </extensions>
      </trkpt>
      <trkpt lat="48.65035" lon="2.06907">
        <ele>170.8</ele>
        <time>2023-03-05T15:06:22Z</time>
        <extensions>
          <gpxtpx:TrackPointExtension xmlns:gpxtpx="http://www.garmin.com/xmlschemas/TrackPointExtension/v1">
            <gpxtpx:hr>102</gpxtpx:hr>
          </gpxtpx:TrackPointExtension>
        </extensions>
      </trkpt>
      <trkpt lat="48.65034" lon="2.06905">
        <ele>170.8</ele>
        <time>2023-03-05T15:06:23Z</time>
        <extensions>
          <gpxtpx:TrackPointExtension xmlns:gpxtpx="http://www.garmin.com/xmlschemas/TrackPointExtension/v1">
            <gpxtpx:hr>102</gpxtpx:hr>
          </gpxtpx:TrackPointExtension>
        </extensions>
      </trkpt>
      <trkpt lat="48.65031" lon="2.06902">
        <ele>170.8</ele>
        <time>2023-03-05T15:06:25Z</time>
        <extensions>
          <gpxtpx:TrackPointExtension xmlns:gpxtpx="http://www.garmin.com/xmlschemas/TrackPointExtension/v1">
            <gpxtpx:hr>102</gpxtpx:hr>
          </gpxtpx:TrackPointExtension>
        </extensions>
      </trkpt>
      <trkpt lat="48.65029" lon="2.069">
        <ele>170.8</ele>
        <time>2023-03-05T15:06:26Z</time>
        <extensions>
          <gpxtpx:TrackPointExtension xmlns:gpxtpx="http://www.garmin.com/xmlschemas/TrackPointExtension/v1">
            <gpxtpx:hr>102</gpxtpx:hr>
          </gpxtpx:TrackPointExtension>
        </extensions>
      </trkpt>
      <trkpt lat="48.65028" lon="2.06899">
        <ele>170.6</ele>
        <time>2023-03-05T15:06:27Z</time>
        <extensions>
          <gpxtpx:TrackPointExtension xmlns:gpxtpx="http://www.garmin.com/xmlschemas/TrackPointExtension/v1">
            <gpxtpx:hr>102</gpxtpx:hr>
          </gpxtpx:TrackPointExtension>
        </extensions>
      </trkpt>
      <trkpt lat="48.65025" lon="2.06896">
        <ele>170.6</ele>
        <time>2023-03-05T15:06:29Z</time>
        <extensions>
          <gpxtpx:TrackPointExtension xmlns:gpxtpx="http://www.garmin.com/xmlschemas/TrackPointExtension/v1">
            <gpxtpx:hr>102</gpxtpx:hr>
          </gpxtpx:TrackPointExtension>
        </extensions>
      </trkpt>
      <trkpt lat="48.65024" lon="2.06894">
        <ele>170.4</ele>
        <time>2023-03-05T15:06:30Z</time>
        <extensions>
          <gpxtpx:TrackPointExtension xmlns:gpxtpx="http://www.garmin.com/xmlschemas/TrackPointExtension/v1">
            <gpxtpx:hr>102</gpxtpx:hr>
          </gpxtpx:TrackPointExtension>
        </extensions>
      </trkpt>
      <trkpt lat="48.65021" lon="2.06891">
        <ele>170.4</ele>
        <time>2023-03-05T15:06:32Z</time>
        <extensions>
          <gpxtpx:TrackPointExtension xmlns:gpxtpx="http://www.garmin.com/xmlschemas/TrackPointExtension/v1">
            <gpxtpx:hr>102</gpxtpx:hr>
          </gpxtpx:TrackPointExtension>
        </extensions>
      </trkpt>
      <trkpt lat="48.6502" lon="2.0689">
        <ele>170.4</ele>
        <time>2023-03-05T15:06:33Z</time>
        <extensions>
          <gpxtpx:TrackPointExtension xmlns:gpxtpx="http://www.garmin.com/xmlschemas/TrackPointExtension/v1">
            <gpxtpx:hr>102</gpxtpx:hr>
          </gpxtpx:TrackPointExtension>
        </extensions>
      </trkpt>
      <trkpt lat="48.65017" lon="2.06887">
        <ele>170.2</ele>
        <time>2023-03-05T15:06:35Z</time>
        <extensions>
          <gpxtpx:TrackPointExtension xmlns:gpxtpx="http://www.garmin.com/xmlschemas/TrackPointExtension/v1">
            <gpxtpx:hr>102</gpxtpx:hr>
          </gpxtpx:TrackPointExtension>
        </extensions>
      </trkpt>
      <trkpt lat="48.65015" lon="2.06886">
        <ele>170.2</ele>
        <time>2023-03-05T15:06:36Z</time>
        <extensions>
          <gpxtpx:TrackPointExtension xmlns:gpxtpx="http://www.garmin.com/xmlschemas/TrackPointExtension/v1">
            <gpxtpx:hr>102</gpxtpx:hr>
          </gpxtpx:TrackPointExtension>
        </extensions>
      </trkpt>
      <trkpt lat="48.65013" lon="2.06884">
        <ele>170.2</ele>
        <time>2023-03-05T15:06:37Z</time>
        <extensions>
          <gpxtpx:TrackPointExtension xmlns:gpxtpx="http://www.garmin.com/xmlschemas/TrackPointExtension/v1">
            <gpxtpx:hr>102</gpxtpx:hr>
          </gpxtpx:TrackPointExtension>
        </extensions>
      </trkpt>
      <trkpt lat="48.65012" lon="2.06883">
        <ele>170.2</ele>
        <time>2023-03-05T15:06:38Z</time>
        <extensions>
          <gpxtpx:TrackPointExtension xmlns:gpxtpx="http://www.garmin.com/xmlschemas/TrackPointExtension/v1">
            <gpxtpx:hr>102</gpxtpx:hr>
          </gpxtpx:TrackPointExtension>
        </extensions>
      </trkpt>
      <trkpt lat="48.65009" lon="2.0688">
        <ele>170.2</ele>
        <time>2023-03-05T15:06:40Z</time>
        <extensions>
          <gpxtpx:TrackPointExtension xmlns:gpxtpx="http://www.garmin.com/xmlschemas/TrackPointExtension/v1">
            <gpxtpx:hr>102</gpxtpx:hr>
          </gpxtpx:TrackPointExtension>
        </extensions>
      </trkpt>
      <trkpt lat="48.65007" lon="2.06877">
        <ele>170.4</ele>
        <time>2023-03-05T15:06:42Z</time>
        <extensions>
          <gpxtpx:TrackPointExtension xmlns:gpxtpx="http://www.garmin.com/xmlschemas/TrackPointExtension/v1">
            <gpxtpx:hr>102</gpxtpx:hr>
          </gpxtpx:TrackPointExtension>
        </extensions>
      </trkpt>
      <trkpt lat="48.65004" lon="2.06873">
        <ele>170.6</ele>
        <time>2023-03-05T15:06:44Z</time>
        <extensions>
          <gpxtpx:TrackPointExtension xmlns:gpxtpx="http://www.garmin.com/xmlschemas/TrackPointExtension/v1">
            <gpxtpx:hr>102</gpxtpx:hr>
          </gpxtpx:TrackPointExtension>
        </extensions>
      </trkpt>
      <trkpt lat="48.65003" lon="2.0687">
        <ele>170.8</ele>
        <time>2023-03-05T15:06:46Z</time>
        <extensions>
          <gpxtpx:TrackPointExtension xmlns:gpxtpx="http://www.garmin.com/xmlschemas/TrackPointExtension/v1">
            <gpxtpx:hr>101</gpxtpx:hr>
          </gpxtpx:TrackPointExtension>
        </extensions>
      </trkpt>
      <trkpt lat="48.65" lon="2.06867">
        <ele>171</ele>
        <time>2023-03-05T15:06:48Z</time>
        <extensions>
          <gpxtpx:TrackPointExtension xmlns:gpxtpx="http://www.garmin.com/xmlschemas/TrackPointExtension/v1">
            <gpxtpx:hr>101</gpxtpx:hr>
          </gpxtpx:TrackPointExtension>
        </extensions>
      </trkpt>
      <trkpt lat="48.64998" lon="2.06864">
        <ele>171.2</ele>
        <time>2023-03-05T15:06:50Z</time>
        <extensions>
          <gpxtpx:TrackPointExtension xmlns:gpxtpx="http://www.garmin.com/xmlschemas/TrackPointExtension/v1">
            <gpxtpx:hr>101</gpxtpx:hr>
          </gpxtpx:TrackPointExtension>
        </extensions>
      </trkpt>
      <trkpt lat="48.64996" lon="2.06861">
        <ele>171.4</ele>
        <time>2023-03-05T15:06:52Z</time>
        <extensions>
          <gpxtpx:TrackPointExtension xmlns:gpxtpx="http://www.garmin.com/xmlschemas/TrackPointExtension/v1">
            <gpxtpx:hr>101</gpxtpx:hr>
          </gpxtpx:TrackPointExtension>
        </extensions>
      </trkpt>
      <trkpt lat="48.64994" lon="2.06858">
        <ele>171.6</ele>
        <time>2023-03-05T15:06:54Z</time>
        <extensions>
          <gpxtpx:TrackPointExtension xmlns:gpxtpx="http://www.garmin.com/xmlschemas/TrackPointExtension/v1">
            <gpxtpx:hr>101</gpxtpx:hr>
          </gpxtpx:TrackPointExtension>
        </extensions>
      </trkpt>
      <trkpt lat="48.64991" lon="2.06856">
        <ele>171.4</ele>
        <time>2023-03-05T15:06:56Z</time>
        <extensions>
          <gpxtpx:TrackPointExtension xmlns:gpxtpx="http://www.garmin.com/xmlschemas/TrackPointExtension/v1">
            <gpxtpx:hr>101</gpxtpx:hr>
          </gpxtpx:TrackPointExtension>
        </extensions>
      </trkpt>
      <trkpt lat="48.64989" lon="2.06853">
        <ele>171.4</ele>
        <time>2023-03-05T15:06:58Z</time>
        <extensions>
          <gpxtpx:TrackPointExtension xmlns:gpxtpx="http://www.garmin.com/xmlschemas/TrackPointExtension/v1">
            <gpxtpx:hr>101</gpxtpx:hr>
          </gpxtpx:TrackPointExtension>
        </extensions>
      </trkpt>
      <trkpt lat="48.64986" lon="2.0685">
        <ele>171.4</ele>
        <time>2023-03-05T15:07:00Z</time>
        <extensions>
          <gpxtpx:TrackPointExtension xmlns:gpxtpx="http://www.garmin.com/xmlschemas/TrackPointExtension/v1">
            <gpxtpx:hr>102</gpxtpx:hr>
          </gpxtpx:TrackPointExtension>
        </extensions>
      </trkpt>
      <trkpt lat="48.64983" lon="2.06847">
        <ele>171.2</ele>
        <time>2023-03-05T15:07:02Z</time>
        <extensions>
          <gpxtpx:TrackPointExtension xmlns:gpxtpx="http://www.garmin.com/xmlschemas/TrackPointExtension/v1">
            <gpxtpx:hr>102</gpxtpx:hr>
          </gpxtpx:TrackPointExtension>
        </extensions>
      </trkpt>
      <trkpt lat="48.64981" lon="2.06843">
        <ele>171.2</ele>
        <time>2023-03-05T15:07:04Z</time>
        <extensions>
          <gpxtpx:TrackPointExtension xmlns:gpxtpx="http://www.garmin.com/xmlschemas/TrackPointExtension/v1">
            <gpxtpx:hr>102</gpxtpx:hr>
          </gpxtpx:TrackPointExtension>
        </extensions>
      </trkpt>
      <trkpt lat="48.64979" lon="2.0684">
        <ele>171.2</ele>
        <time>2023-03-05T15:07:06Z</time>
        <extensions>
          <gpxtpx:TrackPointExtension xmlns:gpxtpx="http://www.garmin.com/xmlschemas/TrackPointExtension/v1">
            <gpxtpx:hr>102</gpxtpx:hr>
          </gpxtpx:TrackPointExtension>
        </extensions>
      </trkpt>
      <trkpt lat="48.64977" lon="2.06839">
        <ele>171.2</ele>
        <time>2023-03-05T15:07:07Z</time>
        <extensions>
          <gpxtpx:TrackPointExtension xmlns:gpxtpx="http://www.garmin.com/xmlschemas/TrackPointExtension/v1">
            <gpxtpx:hr>102</gpxtpx:hr>
          </gpxtpx:TrackPointExtension>
        </extensions>
      </trkpt>
      <trkpt lat="48.64974" lon="2.06836">
        <ele>171.2</ele>
        <time>2023-03-05T15:07:09Z</time>
        <extensions>
          <gpxtpx:TrackPointExtension xmlns:gpxtpx="http://www.garmin.com/xmlschemas/TrackPointExtension/v1">
            <gpxtpx:hr>101</gpxtpx:hr>
          </gpxtpx:TrackPointExtension>
        </extensions>
      </trkpt>
      <trkpt lat="48.64972" lon="2.06834">
        <ele>171.2</ele>
        <time>2023-03-05T15:07:11Z</time>
        <extensions>
          <gpxtpx:TrackPointExtension xmlns:gpxtpx="http://www.garmin.com/xmlschemas/TrackPointExtension/v1">
            <gpxtpx:hr>101</gpxtpx:hr>
          </gpxtpx:TrackPointExtension>
        </extensions>
      </trkpt>
      <trkpt lat="48.6497" lon="2.06832">
        <ele>171</ele>
        <time>2023-03-05T15:07:13Z</time>
        <extensions>
          <gpxtpx:TrackPointExtension xmlns:gpxtpx="http://www.garmin.com/xmlschemas/TrackPointExtension/v1">
            <gpxtpx:hr>101</gpxtpx:hr>
          </gpxtpx:TrackPointExtension>
        </extensions>
      </trkpt>
      <trkpt lat="48.64967" lon="2.06831">
        <ele>170.8</ele>
        <time>2023-03-05T15:07:15Z</time>
        <extensions>
          <gpxtpx:TrackPointExtension xmlns:gpxtpx="http://www.garmin.com/xmlschemas/TrackPointExtension/v1">
            <gpxtpx:hr>101</gpxtpx:hr>
          </gpxtpx:TrackPointExtension>
        </extensions>
      </trkpt>
      <trkpt lat="48.64965" lon="2.06827">
        <ele>170.8</ele>
        <time>2023-03-05T15:07:22Z</time>
        <extensions>
          <gpxtpx:TrackPointExtension xmlns:gpxtpx="http://www.garmin.com/xmlschemas/TrackPointExtension/v1">
            <gpxtpx:hr>101</gpxtpx:hr>
          </gpxtpx:TrackPointExtension>
        </extensions>
      </trkpt>
      <trkpt lat="48.64963" lon="2.06827">
        <ele>171.2</ele>
        <time>2023-03-05T15:07:34Z</time>
      </trkpt>
      <trkpt lat="48.6496" lon="2.06827">
        <ele>171.4</ele>
        <time>2023-03-05T15:07:36Z</time>
      </trkpt>
      <trkpt lat="48.64958" lon="2.06826">
        <ele>171.4</ele>
        <time>2023-03-05T15:07:38Z</time>
      </trkpt>
      <trkpt lat="48.64956" lon="2.06824">
        <ele>171.2</ele>
        <time>2023-03-05T15:07:40Z</time>
      </trkpt>
      <trkpt lat="48.64954" lon="2.06823">
        <ele>171.2</ele>
        <time>2023-03-05T15:07:41Z</time>
      </trkpt>
      <trkpt lat="48.64952" lon="2.06819">
        <ele>171</ele>
        <time>2023-03-05T15:07:43Z</time>
      </trkpt>
      <trkpt lat="48.6495" lon="2.06818">
        <ele>170.8</ele>
        <time>2023-03-05T15:07:44Z</time>
      </trkpt>
      <trkpt lat="48.64949" lon="2.06816">
        <ele>170.6</ele>
        <time>2023-03-05T15:07:45Z</time>
      </trkpt>
      <trkpt lat="48.64947" lon="2.06814">
        <ele>170.6</ele>
        <time>2023-03-05T15:07:46Z</time>
      </trkpt>
      <trkpt lat="48.64944" lon="2.06811">
        <ele>170.4</ele>
        <time>2023-03-05T15:07:48Z</time>
      </trkpt>
      <trkpt lat="48.64942" lon="2.06808">
        <ele>170</ele>
        <time>2023-03-05T15:07:50Z</time>
      </trkpt>
      <trkpt lat="48.6494" lon="2.06806">
        <ele>170</ele>
        <time>2023-03-05T15:07:51Z</time>
      </trkpt>
      <trkpt lat="48.64938" lon="2.06804">
        <ele>169.8</ele>
        <time>2023-03-05T15:07:53Z</time>
      </trkpt>
      <trkpt lat="48.64934" lon="2.06802">
        <ele>169.6</ele>
        <time>2023-03-05T15:07:55Z</time>
      </trkpt>
      <trkpt lat="48.64932" lon="2.06799">
        <ele>169.4</ele>
        <time>2023-03-05T15:07:57Z</time>
      </trkpt>
      <trkpt lat="48.64929" lon="2.06796">
        <ele>169.4</ele>
        <time>2023-03-05T15:07:59Z</time>
      </trkpt>
      <trkpt lat="48.64926" lon="2.06793">
        <ele>169.4</ele>
        <time>2023-03-05T15:08:01Z</time>
      </trkpt>
      <trkpt lat="48.64924" lon="2.06789">
        <ele>169.2</ele>
        <time>2023-03-05T15:08:03Z</time>
      </trkpt>
      <trkpt lat="48.64922" lon="2.06788">
        <ele>169.2</ele>
        <time>2023-03-05T15:08:04Z</time>
      </trkpt>
      <trkpt lat="48.6492" lon="2.06785">
        <ele>169.2</ele>
        <time>2023-03-05T15:08:06Z</time>
      </trkpt>
      <trkpt lat="48.64916" lon="2.06783">
        <ele>169</ele>
        <time>2023-03-05T15:08:08Z</time>
      </trkpt>
      <trkpt lat="48.64914" lon="2.06782">
        <ele>169.2</ele>
        <time>2023-03-05T15:08:10Z</time>
      </trkpt>
      <trkpt lat="48.64911" lon="2.0678">
        <ele>169.2</ele>
        <time>2023-03-05T15:08:12Z</time>
      </trkpt>
      <trkpt lat="48.64908" lon="2.06778">
        <ele>169.2</ele>
        <time>2023-03-05T15:08:14Z</time>
      </trkpt>
      <trkpt lat="48.64906" lon="2.06776">
        <ele>169.2</ele>
        <time>2023-03-05T15:08:16Z</time>
      </trkpt>
      <trkpt lat="48.64903" lon="2.06774">
        <ele>169</ele>
        <time>2023-03-05T15:08:18Z</time>
      </trkpt>
      <trkpt lat="48.64902" lon="2.06772">
        <ele>169</ele>
        <time>2023-03-05T15:08:19Z</time>
      </trkpt>
      <trkpt lat="48.649" lon="2.0677">
        <ele>168.8</ele>
        <time>2023-03-05T15:08:21Z</time>
      </trkpt>
      <trkpt lat="48.64897" lon="2.06768">
        <ele>168.8</ele>
        <time>2023-03-05T15:08:23Z</time>
      </trkpt>
      <trkpt lat="48.64894" lon="2.06766">
        <ele>168.6</ele>
        <time>2023-03-05T15:08:25Z</time>
      </trkpt>
      <trkpt lat="48.64892" lon="2.06764">
        <ele>168.4</ele>
        <time>2023-03-05T15:08:27Z</time>
      </trkpt>
      <trkpt lat="48.64889" lon="2.06762">
        <ele>168.4</ele>
        <time>2023-03-05T15:08:29Z</time>
      </trkpt>
      <trkpt lat="48.64886" lon="2.06759">
        <ele>168.4</ele>
        <time>2023-03-05T15:08:31Z</time>
      </trkpt>
      <trkpt lat="48.64884" lon="2.06757">
        <ele>168.4</ele>
        <time>2023-03-05T15:08:33Z</time>
      </trkpt>
      <trkpt lat="48.64881" lon="2.06755">
        <ele>168.4</ele>
        <time>2023-03-05T15:08:35Z</time>
      </trkpt>
      <trkpt lat="48.64878" lon="2.06752">
        <ele>168.4</ele>
        <time>2023-03-05T15:08:37Z</time>
      </trkpt>
      <trkpt lat="48.64875" lon="2.0675">
        <ele>168.2</ele>
        <time>2023-03-05T15:08:39Z</time>
      </trkpt>
      <trkpt lat="48.64872" lon="2.06748">
        <ele>167.8</ele>
        <time>2023-03-05T15:08:41Z</time>
      </trkpt>
      <trkpt lat="48.6487" lon="2.06746">
        <ele>167.6</ele>
        <time>2023-03-05T15:08:43Z</time>
      </trkpt>
      <trkpt lat="48.64867" lon="2.06743">
        <ele>167.4</ele>
        <time>2023-03-05T15:08:45Z</time>
      </trkpt>
      <trkpt lat="48.64864" lon="2.06741">
        <ele>167.2</ele>
        <time>2023-03-05T15:08:47Z</time>
      </trkpt>
      <trkpt lat="48.64863" lon="2.0674">
        <ele>167.2</ele>
        <time>2023-03-05T15:08:48Z</time>
      </trkpt>
      <trkpt lat="48.6486" lon="2.06737">
        <ele>167</ele>
        <time>2023-03-05T15:08:50Z</time>
      </trkpt>
      <trkpt lat="48.64857" lon="2.06735">
        <ele>166.8</ele>
        <time>2023-03-05T15:08:52Z</time>
      </trkpt>
      <trkpt lat="48.64854" lon="2.06732">
        <ele>166.6</ele>
        <time>2023-03-05T15:08:54Z</time>
      </trkpt>
      <trkpt lat="48.64853" lon="2.06731">
        <ele>166.6</ele>
        <time>2023-03-05T15:08:55Z</time>
      </trkpt>
      <trkpt lat="48.64851" lon="2.06728">
        <ele>166.6</ele>
        <time>2023-03-05T15:08:57Z</time>
      </trkpt>
      <trkpt lat="48.64848" lon="2.06726">
        <ele>166.6</ele>
        <time>2023-03-05T15:08:59Z</time>
      </trkpt>
      <trkpt lat="48.64846" lon="2.06724">
        <ele>166.8</ele>
        <time>2023-03-05T15:09:01Z</time>
      </trkpt>
      <trkpt lat="48.64843" lon="2.06721">
        <ele>166.8</ele>
        <time>2023-03-05T15:09:03Z</time>
      </trkpt>
      <trkpt lat="48.6484" lon="2.06719">
        <ele>166.8</ele>
        <time>2023-03-05T15:09:05Z</time>
      </trkpt>
      <trkpt lat="48.64838" lon="2.06717">
        <ele>167</ele>
        <time>2023-03-05T15:09:07Z</time>
      </trkpt>
      <trkpt lat="48.64835" lon="2.06715">
        <ele>167</ele>
        <time>2023-03-05T15:09:09Z</time>
      </trkpt>
      <trkpt lat="48.64833" lon="2.06714">
        <ele>167</ele>
        <time>2023-03-05T15:09:11Z</time>
      </trkpt>
      <trkpt lat="48.64831" lon="2.06712">
        <ele>167</ele>
        <time>2023-03-05T15:09:13Z</time>
      </trkpt>
      <trkpt lat="48.64828" lon="2.0671">
        <ele>166.8</ele>
        <time>2023-03-05T15:09:15Z</time>
      </trkpt>
      <trkpt lat="48.64826" lon="2.06708">
        <ele>166.8</ele>
        <time>2023-03-05T15:09:17Z</time>
      </trkpt>
      <trkpt lat="48.64823" lon="2.06706">
        <ele>166.8</ele>
        <time>2023-03-05T15:09:19Z</time>
      </trkpt>
      <trkpt lat="48.6482" lon="2.06704">
        <ele>166.6</ele>
        <time>2023-03-05T15:09:21Z</time>
      </trkpt>
      <trkpt lat="48.64818" lon="2.06703">
        <ele>166.6</ele>
        <time>2023-03-05T15:09:22Z</time>
      </trkpt>
      <trkpt lat="48.64815" lon="2.06701">
        <ele>166.6</ele>
        <time>2023-03-05T15:09:24Z</time>
      </trkpt>
      <trkpt lat="48.64812" lon="2.06699">
        <ele>166.6</ele>
        <time>2023-03-05T15:09:26Z</time>
      </trkpt>
      <trkpt lat="48.64809" lon="2.06697">
        <ele>166.6</ele>
        <time>2023-03-05T15:09:28Z</time>
      </trkpt>
      <trkpt lat="48.64806" lon="2.06694">
        <ele>166.6</ele>
        <time>2023-03-05T15:09:30Z</time>
      </trkpt>
      <trkpt lat="48.64804" lon="2.06694">
        <ele>166.6</ele>
        <time>2023-03-05T15:09:31Z</time>
      </trkpt>
      <trkpt lat="48.64801" lon="2.06691">
        <ele>166.4</ele>
        <time>2023-03-05T15:09:33Z</time>
      </trkpt>
      <trkpt lat="48.64799" lon="2.06689">
        <ele>166.4</ele>
        <time>2023-03-05T15:09:35Z</time>
      </trkpt>
      <trkpt lat="48.64797" lon="2.06686">
        <ele>166.4</ele>
        <time>2023-03-05T15:09:37Z</time>
      </trkpt>
      <trkpt lat="48.64795" lon="2.06683">
        <ele>166.6</ele>
        <time>2023-03-05T15:09:39Z</time>
      </trkpt>
      <trkpt lat="48.64793" lon="2.06681">
        <ele>166.8</ele>
        <time>2023-03-05T15:09:41Z</time>
      </trkpt>
      <trkpt lat="48.6479" lon="2.06678">
        <ele>166.8</ele>
        <time>2023-03-05T15:09:43Z</time>
      </trkpt>
      <trkpt lat="48.64788" lon="2.06676">
        <ele>167</ele>
        <time>2023-03-05T15:09:45Z</time>
      </trkpt>
      <trkpt lat="48.64786" lon="2.06674">
        <ele>167</ele>
        <time>2023-03-05T15:09:47Z</time>
      </trkpt>
      <trkpt lat="48.64783" lon="2.06672">
        <ele>167</ele>
        <time>2023-03-05T15:09:49Z</time>
      </trkpt>
      <trkpt lat="48.6478" lon="2.0667">
        <ele>167</ele>
        <time>2023-03-05T15:09:51Z</time>
      </trkpt>
      <trkpt lat="48.64777" lon="2.06668">
        <ele>167</ele>
        <time>2023-03-05T15:09:53Z</time>
      </trkpt>
      <trkpt lat="48.64774" lon="2.06666">
        <ele>166.8</ele>
        <time>2023-03-05T15:09:55Z</time>
      </trkpt>
      <trkpt lat="48.64772" lon="2.06664">
        <ele>166.8</ele>
        <time>2023-03-05T15:09:57Z</time>
      </trkpt>
      <trkpt lat="48.64769" lon="2.06662">
        <ele>166.6</ele>
        <time>2023-03-05T15:09:59Z</time>
      </trkpt>
      <trkpt lat="48.64767" lon="2.0666">
        <ele>166.4</ele>
        <time>2023-03-05T15:10:01Z</time>
      </trkpt>
      <trkpt lat="48.64764" lon="2.06657">
        <ele>166.4</ele>
        <time>2023-03-05T15:10:03Z</time>
      </trkpt>
      <trkpt lat="48.64761" lon="2.06655">
        <ele>166.2</ele>
        <time>2023-03-05T15:10:05Z</time>
      </trkpt>
      <trkpt lat="48.64759" lon="2.06652">
        <ele>166</ele>
        <time>2023-03-05T15:10:07Z</time>
      </trkpt>
      <trkpt lat="48.64756" lon="2.0665">
        <ele>166</ele>
        <time>2023-03-05T15:10:09Z</time>
      </trkpt>
      <trkpt lat="48.64754" lon="2.06648">
        <ele>165.8</ele>
        <time>2023-03-05T15:10:11Z</time>
      </trkpt>
      <trkpt lat="48.64751" lon="2.06646">
        <ele>165.8</ele>
        <time>2023-03-05T15:10:13Z</time>
      </trkpt>
      <trkpt lat="48.64748" lon="2.06644">
        <ele>165.8</ele>
        <time>2023-03-05T15:10:15Z</time>
      </trkpt>
      <trkpt lat="48.64745" lon="2.06642">
        <ele>165.6</ele>
        <time>2023-03-05T15:10:17Z</time>
      </trkpt>
      <trkpt lat="48.64743" lon="2.0664">
        <ele>165.6</ele>
        <time>2023-03-05T15:10:19Z</time>
      </trkpt>
      <trkpt lat="48.6474" lon="2.06638">
        <ele>165.6</ele>
        <time>2023-03-05T15:10:21Z</time>
      </trkpt>
      <trkpt lat="48.64737" lon="2.06635">
        <ele>165.6</ele>
        <time>2023-03-05T15:10:23Z</time>
      </trkpt>
      <trkpt lat="48.64735" lon="2.06633">
        <ele>165.6</ele>
        <time>2023-03-05T15:10:25Z</time>
      </trkpt>
      <trkpt lat="48.64732" lon="2.06631">
        <ele>165.4</ele>
        <time>2023-03-05T15:10:27Z</time>
      </trkpt>
      <trkpt lat="48.6473" lon="2.06629">
        <ele>165.4</ele>
        <time>2023-03-05T15:10:29Z</time>
      </trkpt>
      <trkpt lat="48.64727" lon="2.06626">
        <ele>165.4</ele>
        <time>2023-03-05T15:10:31Z</time>
      </trkpt>
      <trkpt lat="48.64724" lon="2.06624">
        <ele>165.2</ele>
        <time>2023-03-05T15:10:33Z</time>
      </trkpt>
      <trkpt lat="48.64721" lon="2.06622">
        <ele>165.2</ele>
        <time>2023-03-05T15:10:35Z</time>
      </trkpt>
      <trkpt lat="48.64719" lon="2.0662">
        <ele>165.2</ele>
        <time>2023-03-05T15:10:37Z</time>
      </trkpt>
      <trkpt lat="48.64716" lon="2.06618">
        <ele>165</ele>
        <time>2023-03-05T15:10:39Z</time>
      </trkpt>
      <trkpt lat="48.64713" lon="2.06616">
        <ele>165</ele>
        <time>2023-03-05T15:10:41Z</time>
      </trkpt>
      <trkpt lat="48.6471" lon="2.06614">
        <ele>165</ele>
        <time>2023-03-05T15:10:43Z</time>
      </trkpt>
      <trkpt lat="48.64707" lon="2.06612">
        <ele>165.2</ele>
        <time>2023-03-05T15:10:45Z</time>
      </trkpt>
      <trkpt lat="48.64705" lon="2.0661">
        <ele>165.2</ele>
        <time>2023-03-05T15:10:47Z</time>
      </trkpt>
      <trkpt lat="48.64703" lon="2.06607">
        <ele>165</ele>
        <time>2023-03-05T15:10:49Z</time>
      </trkpt>
      <trkpt lat="48.647" lon="2.06606">
        <ele>165</ele>
        <time>2023-03-05T15:10:51Z</time>
      </trkpt>
      <trkpt lat="48.64697" lon="2.06604">
        <ele>165</ele>
        <time>2023-03-05T15:10:53Z</time>
      </trkpt>
      <trkpt lat="48.64694" lon="2.06602">
        <ele>165.2</ele>
        <time>2023-03-05T15:10:55Z</time>
      </trkpt>
      <trkpt lat="48.64692" lon="2.066">
        <ele>165.2</ele>
        <time>2023-03-05T15:10:57Z</time>
      </trkpt>
      <trkpt lat="48.6469" lon="2.06597">
        <ele>165.2</ele>
        <time>2023-03-05T15:10:59Z</time>
      </trkpt>
      <trkpt lat="48.64687" lon="2.06594">
        <ele>165.2</ele>
        <time>2023-03-05T15:11:01Z</time>
      </trkpt>
      <trkpt lat="48.64685" lon="2.06592">
        <ele>165.4</ele>
        <time>2023-03-05T15:11:03Z</time>
      </trkpt>
      <trkpt lat="48.64682" lon="2.0659">
        <ele>165.4</ele>
        <time>2023-03-05T15:11:05Z</time>
      </trkpt>
      <trkpt lat="48.64679" lon="2.06588">
        <ele>165.2</ele>
        <time>2023-03-05T15:11:07Z</time>
      </trkpt>
      <trkpt lat="48.64675" lon="2.06586">
        <ele>165.2</ele>
        <time>2023-03-05T15:11:09Z</time>
      </trkpt>
      <trkpt lat="48.64672" lon="2.06584">
        <ele>165.2</ele>
        <time>2023-03-05T15:11:11Z</time>
      </trkpt>
      <trkpt lat="48.64669" lon="2.06581">
        <ele>165</ele>
        <time>2023-03-05T15:11:13Z</time>
      </trkpt>
      <trkpt lat="48.64668" lon="2.06579">
        <ele>165.2</ele>
        <time>2023-03-05T15:11:14Z</time>
      </trkpt>
      <trkpt lat="48.64666" lon="2.06578">
        <ele>165.2</ele>
        <time>2023-03-05T15:11:15Z</time>
      </trkpt>
      <trkpt lat="48.64663" lon="2.06575">
        <ele>165</ele>
        <time>2023-03-05T15:11:17Z</time>
      </trkpt>
      <trkpt lat="48.64661" lon="2.06572">
        <ele>165</ele>
        <time>2023-03-05T15:11:19Z</time>
      </trkpt>
      <trkpt lat="48.64658" lon="2.06569">
        <ele>164.8</ele>
        <time>2023-03-05T15:11:21Z</time>
      </trkpt>
      <trkpt lat="48.64655" lon="2.06567">
        <ele>164.8</ele>
        <time>2023-03-05T15:11:23Z</time>
      </trkpt>
      <trkpt lat="48.64652" lon="2.06565">
        <ele>164.6</ele>
        <time>2023-03-05T15:11:25Z</time>
      </trkpt>
      <trkpt lat="48.6465" lon="2.06563">
        <ele>164.6</ele>
        <time>2023-03-05T15:11:27Z</time>
      </trkpt>
      <trkpt lat="48.64647" lon="2.0656">
        <ele>164.6</ele>
        <time>2023-03-05T15:11:29Z</time>
      </trkpt>
      <trkpt lat="48.64644" lon="2.06558">
        <ele>164.6</ele>
        <time>2023-03-05T15:11:31Z</time>
      </trkpt>
      <trkpt lat="48.64642" lon="2.06556">
        <ele>164.4</ele>
        <time>2023-03-05T15:11:33Z</time>
      </trkpt>
      <trkpt lat="48.64639" lon="2.06553">
        <ele>164.4</ele>
        <time>2023-03-05T15:11:35Z</time>
      </trkpt>
      <trkpt lat="48.64638" lon="2.06552">
        <ele>164.4</ele>
        <time>2023-03-05T15:11:36Z</time>
      </trkpt>
      <trkpt lat="48.64636" lon="2.0655">
        <ele>164.2</ele>
        <time>2023-03-05T15:11:38Z</time>
      </trkpt>
      <trkpt lat="48.64633" lon="2.06547">
        <ele>164.2</ele>
        <time>2023-03-05T15:11:40Z</time>
      </trkpt>
      <trkpt lat="48.64632" lon="2.06546">
        <ele>164.2</ele>
        <time>2023-03-05T15:11:41Z</time>
      </trkpt>
      <trkpt lat="48.64629" lon="2.06543">
        <ele>164</ele>
        <time>2023-03-05T15:11:43Z</time>
      </trkpt>
      <trkpt lat="48.64627" lon="2.0654">
        <ele>164</ele>
        <time>2023-03-05T15:11:45Z</time>
      </trkpt>
      <trkpt lat="48.64625" lon="2.06537">
        <ele>164</ele>
        <time>2023-03-05T15:11:47Z</time>
      </trkpt>
      <trkpt lat="48.64622" lon="2.06535">
        <ele>164</ele>
        <time>2023-03-05T15:11:49Z</time>
      </trkpt>
      <trkpt lat="48.6462" lon="2.06534">
        <ele>163.8</ele>
        <time>2023-03-05T15:11:50Z</time>
      </trkpt>
      <trkpt lat="48.64618" lon="2.06531">
        <ele>163.6</ele>
        <time>2023-03-05T15:11:52Z</time>
      </trkpt>
      <trkpt lat="48.64616" lon="2.06529">
        <ele>163.2</ele>
        <time>2023-03-05T15:11:54Z</time>
      </trkpt>
      <trkpt lat="48.64613" lon="2.06526">
        <ele>163.2</ele>
        <time>2023-03-05T15:11:56Z</time>
      </trkpt>
      <trkpt lat="48.6461" lon="2.06524">
        <ele>163</ele>
        <time>2023-03-05T15:11:58Z</time>
      </trkpt>
      <trkpt lat="48.64608" lon="2.06521">
        <ele>163</ele>
        <time>2023-03-05T15:12:00Z</time>
      </trkpt>
      <trkpt lat="48.64606" lon="2.0652">
        <ele>162.8</ele>
        <time>2023-03-05T15:12:01Z</time>
      </trkpt>
      <trkpt lat="48.64604" lon="2.06517">
        <ele>162.8</ele>
        <time>2023-03-05T15:12:03Z</time>
      </trkpt>
      <trkpt lat="48.64602" lon="2.06515">
        <ele>162.8</ele>
        <time>2023-03-05T15:12:05Z</time>
      </trkpt>
      <trkpt lat="48.646" lon="2.06512">
        <ele>162.6</ele>
        <time>2023-03-05T15:12:07Z</time>
      </trkpt>
      <trkpt lat="48.64597" lon="2.0651">
        <ele>162.6</ele>
        <time>2023-03-05T15:12:09Z</time>
      </trkpt>
      <trkpt lat="48.64595" lon="2.06507">
        <ele>162.4</ele>
        <time>2023-03-05T15:12:11Z</time>
      </trkpt>
      <trkpt lat="48.64592" lon="2.06504">
        <ele>162.2</ele>
        <time>2023-03-05T15:12:13Z</time>
      </trkpt>
      <trkpt lat="48.6459" lon="2.06501">
        <ele>162</ele>
        <time>2023-03-05T15:12:15Z</time>
      </trkpt>
      <trkpt lat="48.64588" lon="2.06497">
        <ele>162</ele>
        <time>2023-03-05T15:12:17Z</time>
      </trkpt>
      <trkpt lat="48.64587" lon="2.06493">
        <ele>161.8</ele>
        <time>2023-03-05T15:12:19Z</time>
      </trkpt>
      <trkpt lat="48.64586" lon="2.0649">
        <ele>161.4</ele>
        <time>2023-03-05T15:12:21Z</time>
      </trkpt>
      <trkpt lat="48.64584" lon="2.06486">
        <ele>161.2</ele>
        <time>2023-03-05T15:12:23Z</time>
      </trkpt>
      <trkpt lat="48.64583" lon="2.06482">
        <ele>160.8</ele>
        <time>2023-03-05T15:12:25Z</time>
      </trkpt>
      <trkpt lat="48.64581" lon="2.06478">
        <ele>160.6</ele>
        <time>2023-03-05T15:12:27Z</time>
      </trkpt>
      <trkpt lat="48.6458" lon="2.06473">
        <ele>160.4</ele>
        <time>2023-03-05T15:12:30Z</time>
      </trkpt>
      <trkpt lat="48.64579" lon="2.06471">
        <ele>160</ele>
        <time>2023-03-05T15:12:33Z</time>
      </trkpt>
      <trkpt lat="48.64578" lon="2.06468">
        <ele>158</ele>
        <time>2023-03-05T15:12:59Z</time>
      </trkpt>
      <trkpt lat="48.64576" lon="2.06464">
        <ele>158</ele>
        <time>2023-03-05T15:13:01Z</time>
      </trkpt>
      <trkpt lat="48.64574" lon="2.06461">
        <ele>157.8</ele>
        <time>2023-03-05T15:13:03Z</time>
      </trkpt>
      <trkpt lat="48.64571" lon="2.06458">
        <ele>157.8</ele>
        <time>2023-03-05T15:13:05Z</time>
      </trkpt>
      <trkpt lat="48.64568" lon="2.06455">
        <ele>157.8</ele>
        <time>2023-03-05T15:13:07Z</time>
      </trkpt>
      <trkpt lat="48.64565" lon="2.06453">
        <ele>157.6</ele>
        <time>2023-03-05T15:13:09Z</time>
      </trkpt>
      <trkpt lat="48.64563" lon="2.06451">
        <ele>157.6</ele>
        <time>2023-03-05T15:13:11Z</time>
      </trkpt>
      <trkpt lat="48.6456" lon="2.06448">
        <ele>157.4</ele>
        <time>2023-03-05T15:13:13Z</time>
      </trkpt>
      <trkpt lat="48.64558" lon="2.06447">
        <ele>157.6</ele>
        <time>2023-03-05T15:13:15Z</time>
      </trkpt>
      <trkpt lat="48.64555" lon="2.06444">
        <ele>157.4</ele>
        <time>2023-03-05T15:13:17Z</time>
      </trkpt>
      <trkpt lat="48.64553" lon="2.06442">
        <ele>157.4</ele>
        <time>2023-03-05T15:13:19Z</time>
      </trkpt>
      <trkpt lat="48.64551" lon="2.0644">
        <ele>157.6</ele>
        <time>2023-03-05T15:13:21Z</time>
      </trkpt>
      <trkpt lat="48.64548" lon="2.06438">
        <ele>157.6</ele>
        <time>2023-03-05T15:13:23Z</time>
      </trkpt>
      <trkpt lat="48.64546" lon="2.06437">
        <ele>157.6</ele>
        <time>2023-03-05T15:13:25Z</time>
      </trkpt>
      <trkpt lat="48.64543" lon="2.06435">
        <ele>157.8</ele>
        <time>2023-03-05T15:13:27Z</time>
      </trkpt>
      <trkpt lat="48.6454" lon="2.06432">
        <ele>157.8</ele>
        <time>2023-03-05T15:13:29Z</time>
      </trkpt>
      <trkpt lat="48.64537" lon="2.06431">
        <ele>157.8</ele>
        <time>2023-03-05T15:13:31Z</time>
      </trkpt>
      <trkpt lat="48.64534" lon="2.06429">
        <ele>158</ele>
        <time>2023-03-05T15:13:33Z</time>
      </trkpt>
      <trkpt lat="48.64531" lon="2.06427">
        <ele>158</ele>
        <time>2023-03-05T15:13:35Z</time>
      </trkpt>
      <trkpt lat="48.64529" lon="2.06426">
        <ele>157.8</ele>
        <time>2023-03-05T15:13:37Z</time>
      </trkpt>
      <trkpt lat="48.64526" lon="2.06424">
        <ele>157.8</ele>
        <time>2023-03-05T15:13:39Z</time>
      </trkpt>
      <trkpt lat="48.64523" lon="2.06422">
        <ele>157.8</ele>
        <time>2023-03-05T15:13:41Z</time>
      </trkpt>
      <trkpt lat="48.64521" lon="2.0642">
        <ele>157.8</ele>
        <time>2023-03-05T15:13:43Z</time>
      </trkpt>
      <trkpt lat="48.64519" lon="2.06417">
        <ele>157.6</ele>
        <time>2023-03-05T15:13:45Z</time>
      </trkpt>
      <trkpt lat="48.64516" lon="2.06415">
        <ele>157.4</ele>
        <time>2023-03-05T15:13:47Z</time>
      </trkpt>
      <trkpt lat="48.64513" lon="2.06413">
        <ele>157.4</ele>
        <time>2023-03-05T15:13:49Z</time>
      </trkpt>
      <trkpt lat="48.64511" lon="2.06411">
        <ele>157.2</ele>
        <time>2023-03-05T15:13:51Z</time>
      </trkpt>
      <trkpt lat="48.64508" lon="2.06409">
        <ele>157.2</ele>
        <time>2023-03-05T15:13:53Z</time>
      </trkpt>
      <trkpt lat="48.64505" lon="2.06408">
        <ele>157</ele>
        <time>2023-03-05T15:13:55Z</time>
      </trkpt>
      <trkpt lat="48.64503" lon="2.06406">
        <ele>157</ele>
        <time>2023-03-05T15:13:57Z</time>
      </trkpt>
      <trkpt lat="48.645" lon="2.06406">
        <ele>157</ele>
        <time>2023-03-05T15:13:59Z</time>
      </trkpt>
      <trkpt lat="48.64497" lon="2.06406">
        <ele>157.2</ele>
        <time>2023-03-05T15:14:01Z</time>
      </trkpt>
      <trkpt lat="48.64495" lon="2.06408">
        <ele>157.2</ele>
        <time>2023-03-05T15:14:03Z</time>
      </trkpt>
      <trkpt lat="48.64494" lon="2.06412">
        <ele>157</ele>
        <time>2023-03-05T15:14:06Z</time>
      </trkpt>
      <trkpt lat="48.64493" lon="2.06415">
        <ele>156.8</ele>
        <time>2023-03-05T15:14:12Z</time>
      </trkpt>
      <trkpt lat="48.64492" lon="2.06416">
        <ele>156.8</ele>
        <time>2023-03-05T15:14:15Z</time>
      </trkpt>
      <trkpt lat="48.6449" lon="2.06417">
        <ele>156.6</ele>
        <time>2023-03-05T15:14:17Z</time>
      </trkpt>
      <trkpt lat="48.64488" lon="2.06418">
        <ele>156.6</ele>
        <time>2023-03-05T15:14:19Z</time>
      </trkpt>
      <trkpt lat="48.64486" lon="2.0642">
        <ele>156.6</ele>
        <time>2023-03-05T15:14:21Z</time>
      </trkpt>
      <trkpt lat="48.64485" lon="2.06423">
        <ele>156.6</ele>
        <time>2023-03-05T15:14:23Z</time>
      </trkpt>
      <trkpt lat="48.64485" lon="2.06427">
        <ele>156.6</ele>
        <time>2023-03-05T15:14:25Z</time>
      </trkpt>
      <trkpt lat="48.64483" lon="2.06429">
        <ele>156.6</ele>
        <time>2023-03-05T15:14:27Z</time>
      </trkpt>
      <trkpt lat="48.64481" lon="2.0643">
        <ele>156.6</ele>
        <time>2023-03-05T15:14:29Z</time>
      </trkpt>
      <trkpt lat="48.64479" lon="2.0643">
        <ele>156.6</ele>
        <time>2023-03-05T15:14:31Z</time>
      </trkpt>
      <trkpt lat="48.64476" lon="2.06431">
        <ele>156.6</ele>
        <time>2023-03-05T15:14:33Z</time>
      </trkpt>
      <trkpt lat="48.64473" lon="2.06431">
        <ele>156.4</ele>
        <time>2023-03-05T15:14:35Z</time>
      </trkpt>
      <trkpt lat="48.6447" lon="2.0643">
        <ele>156.4</ele>
        <time>2023-03-05T15:14:37Z</time>
      </trkpt>
      <trkpt lat="48.64467" lon="2.06429">
        <ele>156.4</ele>
        <time>2023-03-05T15:14:39Z</time>
      </trkpt>
      <trkpt lat="48.64464" lon="2.06426">
        <ele>156.6</ele>
        <time>2023-03-05T15:14:41Z</time>
      </trkpt>
      <trkpt lat="48.64461" lon="2.06424">
        <ele>156.6</ele>
        <time>2023-03-05T15:14:43Z</time>
      </trkpt>
      <trkpt lat="48.64459" lon="2.06421">
        <ele>156.8</ele>
        <time>2023-03-05T15:14:45Z</time>
      </trkpt>
      <trkpt lat="48.64456" lon="2.06419">
        <ele>156.8</ele>
        <time>2023-03-05T15:14:47Z</time>
      </trkpt>
      <trkpt lat="48.64454" lon="2.06417">
        <ele>156.8</ele>
        <time>2023-03-05T15:14:49Z</time>
      </trkpt>
      <trkpt lat="48.64451" lon="2.06415">
        <ele>156.6</ele>
        <time>2023-03-05T15:14:51Z</time>
      </trkpt>
      <trkpt lat="48.64448" lon="2.06413">
        <ele>156.6</ele>
        <time>2023-03-05T15:14:53Z</time>
      </trkpt>
      <trkpt lat="48.64445" lon="2.06411">
        <ele>156.8</ele>
        <time>2023-03-05T15:14:55Z</time>
      </trkpt>
      <trkpt lat="48.64443" lon="2.06409">
        <ele>156.8</ele>
        <time>2023-03-05T15:14:57Z</time>
      </trkpt>
      <trkpt lat="48.64441" lon="2.06406">
        <ele>156.8</ele>
        <time>2023-03-05T15:14:59Z</time>
      </trkpt>
      <trkpt lat="48.64438" lon="2.06404">
        <ele>156.8</ele>
        <time>2023-03-05T15:15:01Z</time>
      </trkpt>
      <trkpt lat="48.64436" lon="2.06401">
        <ele>156.8</ele>
        <time>2023-03-05T15:15:03Z</time>
      </trkpt>
      <trkpt lat="48.64433" lon="2.06399">
        <ele>156.8</ele>
        <time>2023-03-05T15:15:05Z</time>
      </trkpt>
      <trkpt lat="48.6443" lon="2.06397">
        <ele>156.8</ele>
        <time>2023-03-05T15:15:07Z</time>
      </trkpt>
      <trkpt lat="48.64428" lon="2.06396">
        <ele>157</ele>
        <time>2023-03-05T15:15:09Z</time>
      </trkpt>
      <trkpt lat="48.64425" lon="2.06394">
        <ele>157.2</ele>
        <time>2023-03-05T15:15:11Z</time>
      </trkpt>
      <trkpt lat="48.64422" lon="2.06393">
        <ele>157.6</ele>
        <time>2023-03-05T15:15:13Z</time>
      </trkpt>
      <trkpt lat="48.6442" lon="2.06392">
        <ele>157.8</ele>
        <time>2023-03-05T15:15:15Z</time>
      </trkpt>
      <trkpt lat="48.64417" lon="2.0639">
        <ele>158</ele>
        <time>2023-03-05T15:15:17Z</time>
      </trkpt>
      <trkpt lat="48.64415" lon="2.06389">
        <ele>158.2</ele>
        <time>2023-03-05T15:15:19Z</time>
      </trkpt>
      <trkpt lat="48.64412" lon="2.06388">
        <ele>158.4</ele>
        <time>2023-03-05T15:15:21Z</time>
      </trkpt>
      <trkpt lat="48.64409" lon="2.06386">
        <ele>158.4</ele>
        <time>2023-03-05T15:15:23Z</time>
      </trkpt>
      <trkpt lat="48.64407" lon="2.06385">
        <ele>158.8</ele>
        <time>2023-03-05T15:15:25Z</time>
      </trkpt>
      <trkpt lat="48.64404" lon="2.06383">
        <ele>159</ele>
        <time>2023-03-05T15:15:27Z</time>
      </trkpt>
      <trkpt lat="48.64402" lon="2.06381">
        <ele>159.4</ele>
        <time>2023-03-05T15:15:29Z</time>
      </trkpt>
      <trkpt lat="48.64399" lon="2.06379">
        <ele>159.6</ele>
        <time>2023-03-05T15:15:31Z</time>
      </trkpt>
      <trkpt lat="48.64396" lon="2.06377">
        <ele>159.8</ele>
        <time>2023-03-05T15:15:33Z</time>
      </trkpt>
      <trkpt lat="48.64394" lon="2.06375">
        <ele>160</ele>
        <time>2023-03-05T15:15:35Z</time>
      </trkpt>
      <trkpt lat="48.64391" lon="2.06373">
        <ele>160.2</ele>
        <time>2023-03-05T15:15:37Z</time>
      </trkpt>
      <trkpt lat="48.64388" lon="2.06372">
        <ele>160.4</ele>
        <time>2023-03-05T15:15:39Z</time>
      </trkpt>
      <trkpt lat="48.64386" lon="2.0637">
        <ele>160.6</ele>
        <time>2023-03-05T15:15:41Z</time>
      </trkpt>
      <trkpt lat="48.64384" lon="2.06368">
        <ele>160.6</ele>
        <time>2023-03-05T15:15:43Z</time>
      </trkpt>
      <trkpt lat="48.64381" lon="2.06366">
        <ele>160.8</ele>
        <time>2023-03-05T15:15:45Z</time>
      </trkpt>
      <trkpt lat="48.64378" lon="2.06364">
        <ele>160.8</ele>
        <time>2023-03-05T15:15:47Z</time>
      </trkpt>
      <trkpt lat="48.64376" lon="2.06361">
        <ele>161</ele>
        <time>2023-03-05T15:15:49Z</time>
      </trkpt>
      <trkpt lat="48.64374" lon="2.06359">
        <ele>161</ele>
        <time>2023-03-05T15:15:51Z</time>
      </trkpt>
      <trkpt lat="48.64372" lon="2.06356">
        <ele>161.2</ele>
        <time>2023-03-05T15:15:53Z</time>
      </trkpt>
      <trkpt lat="48.64369" lon="2.06353">
        <ele>161.2</ele>
        <time>2023-03-05T15:15:55Z</time>
      </trkpt>
      <trkpt lat="48.64367" lon="2.06351">
        <ele>161.2</ele>
        <time>2023-03-05T15:15:57Z</time>
      </trkpt>
      <trkpt lat="48.64365" lon="2.06348">
        <ele>161.2</ele>
        <time>2023-03-05T15:15:59Z</time>
      </trkpt>
      <trkpt lat="48.64363" lon="2.06346">
        <ele>161.2</ele>
        <time>2023-03-05T15:16:01Z</time>
      </trkpt>
      <trkpt lat="48.6436" lon="2.06343">
        <ele>161.2</ele>
        <time>2023-03-05T15:16:03Z</time>
      </trkpt>
      <trkpt lat="48.64358" lon="2.06341">
        <ele>161.2</ele>
        <time>2023-03-05T15:16:05Z</time>
      </trkpt>
      <trkpt lat="48.64356" lon="2.06338">
        <ele>161.2</ele>
        <time>2023-03-05T15:16:07Z</time>
      </trkpt>
      <trkpt lat="48.64353" lon="2.06336">
        <ele>161.4</ele>
        <time>2023-03-05T15:16:09Z</time>
      </trkpt>
      <trkpt lat="48.6435" lon="2.06334">
        <ele>161.6</ele>
        <time>2023-03-05T15:16:11Z</time>
      </trkpt>
      <trkpt lat="48.64348" lon="2.06331">
        <ele>161.6</ele>
        <time>2023-03-05T15:16:13Z</time>
      </trkpt>
      <trkpt lat="48.64346" lon="2.06329">
        <ele>161.6</ele>
        <time>2023-03-05T15:16:15Z</time>
      </trkpt>
      <trkpt lat="48.64344" lon="2.06326">
        <ele>161.6</ele>
        <time>2023-03-05T15:16:17Z</time>
      </trkpt>
      <trkpt lat="48.64341" lon="2.06323">
        <ele>161.8</ele>
        <time>2023-03-05T15:16:19Z</time>
      </trkpt>
      <trkpt lat="48.64339" lon="2.06321">
        <ele>161.8</ele>
        <time>2023-03-05T15:16:21Z</time>
      </trkpt>
      <trkpt lat="48.64336" lon="2.06319">
        <ele>161.8</ele>
        <time>2023-03-05T15:16:23Z</time>
      </trkpt>
      <trkpt lat="48.64334" lon="2.06317">
        <ele>162</ele>
        <time>2023-03-05T15:16:25Z</time>
      </trkpt>
      <trkpt lat="48.64332" lon="2.06314">
        <ele>161.8</ele>
        <time>2023-03-05T15:16:27Z</time>
      </trkpt>
      <trkpt lat="48.64329" lon="2.06312">
        <ele>161.8</ele>
        <time>2023-03-05T15:16:29Z</time>
      </trkpt>
      <trkpt lat="48.64326" lon="2.0631">
        <ele>162</ele>
        <time>2023-03-05T15:16:31Z</time>
      </trkpt>
      <trkpt lat="48.64323" lon="2.06308">
        <ele>162</ele>
        <time>2023-03-05T15:16:33Z</time>
      </trkpt>
      <trkpt lat="48.6432" lon="2.06306">
        <ele>162.2</ele>
        <time>2023-03-05T15:16:35Z</time>
      </trkpt>
      <trkpt lat="48.64317" lon="2.06304">
        <ele>162.2</ele>
        <time>2023-03-05T15:16:37Z</time>
      </trkpt>
      <trkpt lat="48.64315" lon="2.06302">
        <ele>162.4</ele>
        <time>2023-03-05T15:16:39Z</time>
      </trkpt>
      <trkpt lat="48.64313" lon="2.06299">
        <ele>162.6</ele>
        <time>2023-03-05T15:16:41Z</time>
      </trkpt>
      <trkpt lat="48.6431" lon="2.06297">
        <ele>162.6</ele>
        <time>2023-03-05T15:16:43Z</time>
      </trkpt>
      <trkpt lat="48.64308" lon="2.06295">
        <ele>162.8</ele>
        <time>2023-03-05T15:16:45Z</time>
      </trkpt>
      <trkpt lat="48.64306" lon="2.06293">
        <ele>163</ele>
        <time>2023-03-05T15:16:47Z</time>
      </trkpt>
      <trkpt lat="48.64303" lon="2.06291">
        <ele>163</ele>
        <time>2023-03-05T15:16:49Z</time>
      </trkpt>
      <trkpt lat="48.643" lon="2.06289">
        <ele>163.2</ele>
        <time>2023-03-05T15:16:51Z</time>
      </trkpt>
      <trkpt lat="48.64298" lon="2.06286">
        <ele>163.4</ele>
        <time>2023-03-05T15:16:53Z</time>
      </trkpt>
      <trkpt lat="48.64296" lon="2.06284">
        <ele>163.6</ele>
        <time>2023-03-05T15:16:55Z</time>
      </trkpt>
      <trkpt lat="48.64294" lon="2.06281">
        <ele>163.8</ele>
        <time>2023-03-05T15:16:57Z</time>
      </trkpt>
      <trkpt lat="48.64291" lon="2.06279">
        <ele>163.8</ele>
        <time>2023-03-05T15:16:59Z</time>
      </trkpt>
      <trkpt lat="48.64288" lon="2.06277">
        <ele>164</ele>
        <time>2023-03-05T15:17:01Z</time>
      </trkpt>
      <trkpt lat="48.64286" lon="2.06276">
        <ele>164</ele>
        <time>2023-03-05T15:17:03Z</time>
      </trkpt>
      <trkpt lat="48.64284" lon="2.06274">
        <ele>164.2</ele>
        <time>2023-03-05T15:17:05Z</time>
      </trkpt>
      <trkpt lat="48.64281" lon="2.06272">
        <ele>164.2</ele>
        <time>2023-03-05T15:17:07Z</time>
      </trkpt>
      <trkpt lat="48.64278" lon="2.06271">
        <ele>164.4</ele>
        <time>2023-03-05T15:17:09Z</time>
      </trkpt>
      <trkpt lat="48.64276" lon="2.06269">
        <ele>164.6</ele>
        <time>2023-03-05T15:17:11Z</time>
      </trkpt>
      <trkpt lat="48.64273" lon="2.06266">
        <ele>164.6</ele>
        <time>2023-03-05T15:17:13Z</time>
      </trkpt>
      <trkpt lat="48.6427" lon="2.06264">
        <ele>164.6</ele>
        <time>2023-03-05T15:17:15Z</time>
      </trkpt>
      <trkpt lat="48.64268" lon="2.06262">
        <ele>164.8</ele>
        <time>2023-03-05T15:17:17Z</time>
      </trkpt>
      <trkpt lat="48.64265" lon="2.06261">
        <ele>164.8</ele>
        <time>2023-03-05T15:17:19Z</time>
      </trkpt>
      <trkpt lat="48.64262" lon="2.06259">
        <ele>165</ele>
        <time>2023-03-05T15:17:21Z</time>
      </trkpt>
      <trkpt lat="48.6426" lon="2.06257">
        <ele>165.2</ele>
        <time>2023-03-05T15:17:23Z</time>
      </trkpt>
      <trkpt lat="48.64257" lon="2.06255">
        <ele>165.2</ele>
        <time>2023-03-05T15:17:25Z</time>
      </trkpt>
      <trkpt lat="48.64255" lon="2.06253">
        <ele>165.2</ele>
        <time>2023-03-05T15:17:27Z</time>
      </trkpt>
      <trkpt lat="48.64252" lon="2.0625">
        <ele>165.2</ele>
        <time>2023-03-05T15:17:29Z</time>
      </trkpt>
      <trkpt lat="48.6425" lon="2.06248">
        <ele>165.2</ele>
        <time>2023-03-05T15:17:31Z</time>
      </trkpt>
      <trkpt lat="48.64247" lon="2.06245">
        <ele>165.2</ele>
        <time>2023-03-05T15:17:34Z</time>
      </trkpt>
      <trkpt lat="48.64246" lon="2.06242">
        <ele>165.2</ele>
        <time>2023-03-05T15:17:37Z</time>
      </trkpt>
      <trkpt lat="48.64244" lon="2.0624">
        <ele>165.2</ele>
        <time>2023-03-05T15:18:05Z</time>
      </trkpt>
      <trkpt lat="48.64241" lon="2.06237">
        <ele>165.4</ele>
        <time>2023-03-05T15:18:07Z</time>
      </trkpt>
      <trkpt lat="48.64238" lon="2.06235">
        <ele>165.4</ele>
        <time>2023-03-05T15:18:09Z</time>
      </trkpt>
      <trkpt lat="48.64236" lon="2.06234">
        <ele>165.4</ele>
        <time>2023-03-05T15:18:10Z</time>
      </trkpt>
      <trkpt lat="48.64234" lon="2.06231">
        <ele>165.6</ele>
        <time>2023-03-05T15:18:12Z</time>
      </trkpt>
      <trkpt lat="48.64232" lon="2.06229">
        <ele>165.4</ele>
        <time>2023-03-05T15:18:14Z</time>
      </trkpt>
      <trkpt lat="48.6423" lon="2.06227">
        <ele>165.6</ele>
        <time>2023-03-05T15:18:16Z</time>
      </trkpt>
      <trkpt lat="48.64227" lon="2.06225">
        <ele>165.6</ele>
        <time>2023-03-05T15:18:18Z</time>
      </trkpt>
      <trkpt lat="48.64224" lon="2.06223">
        <ele>165.4</ele>
        <time>2023-03-05T15:18:20Z</time>
      </trkpt>
      <trkpt lat="48.64221" lon="2.06222">
        <ele>165.4</ele>
        <time>2023-03-05T15:18:22Z</time>
      </trkpt>
      <trkpt lat="48.64219" lon="2.0622">
        <ele>165.4</ele>
        <time>2023-03-05T15:18:24Z</time>
      </trkpt>
      <trkpt lat="48.64216" lon="2.06218">
        <ele>165.4</ele>
        <time>2023-03-05T15:18:26Z</time>
      </trkpt>
      <trkpt lat="48.64214" lon="2.06215">
        <ele>165.4</ele>
        <time>2023-03-05T15:18:28Z</time>
      </trkpt>
      <trkpt lat="48.64212" lon="2.06213">
        <ele>165.4</ele>
        <time>2023-03-05T15:18:30Z</time>
      </trkpt>
      <trkpt lat="48.6421" lon="2.0621">
        <ele>165.4</ele>
        <time>2023-03-05T15:18:32Z</time>
      </trkpt>
      <trkpt lat="48.64208" lon="2.06208">
        <ele>165.6</ele>
        <time>2023-03-05T15:18:34Z</time>
      </trkpt>
      <trkpt lat="48.64205" lon="2.06206">
        <ele>165.6</ele>
        <time>2023-03-05T15:18:36Z</time>
      </trkpt>
      <trkpt lat="48.64203" lon="2.06204">
        <ele>165.6</ele>
        <time>2023-03-05T15:18:38Z</time>
      </trkpt>
      <trkpt lat="48.64201" lon="2.06202">
        <ele>165.6</ele>
        <time>2023-03-05T15:18:40Z</time>
      </trkpt>
      <trkpt lat="48.64199" lon="2.062">
        <ele>165.8</ele>
        <time>2023-03-05T15:18:42Z</time>
      </trkpt>
      <trkpt lat="48.64196" lon="2.06198">
        <ele>166</ele>
        <time>2023-03-05T15:18:44Z</time>
      </trkpt>
      <trkpt lat="48.64195" lon="2.06196">
        <ele>166</ele>
        <time>2023-03-05T15:18:46Z</time>
      </trkpt>
      <trkpt lat="48.64192" lon="2.06194">
        <ele>166.2</ele>
        <time>2023-03-05T15:18:48Z</time>
      </trkpt>
      <trkpt lat="48.6419" lon="2.06192">
        <ele>166.4</ele>
        <time>2023-03-05T15:18:50Z</time>
      </trkpt>
      <trkpt lat="48.64188" lon="2.06191">
        <ele>166.4</ele>
        <time>2023-03-05T15:18:52Z</time>
      </trkpt>
      <trkpt lat="48.64185" lon="2.06189">
        <ele>166.6</ele>
        <time>2023-03-05T15:18:54Z</time>
      </trkpt>
      <trkpt lat="48.64183" lon="2.06187">
        <ele>166.8</ele>
        <time>2023-03-05T15:18:56Z</time>
      </trkpt>
      <trkpt lat="48.6418" lon="2.06186">
        <ele>166.8</ele>
        <time>2023-03-05T15:18:58Z</time>
      </trkpt>
      <trkpt lat="48.64179" lon="2.06184">
        <ele>167</ele>
        <time>2023-03-05T15:19:00Z</time>
      </trkpt>
      <trkpt lat="48.64176" lon="2.06182">
        <ele>167</ele>
        <time>2023-03-05T15:19:02Z</time>
      </trkpt>
      <trkpt lat="48.64174" lon="2.0618">
        <ele>167.2</ele>
        <time>2023-03-05T15:19:04Z</time>
      </trkpt>
      <trkpt lat="48.64172" lon="2.06179">
        <ele>167.2</ele>
        <time>2023-03-05T15:19:06Z</time>
      </trkpt>
      <trkpt lat="48.6417" lon="2.06178">
        <ele>167.2</ele>
        <time>2023-03-05T15:19:08Z</time>
      </trkpt>
      <trkpt lat="48.64168" lon="2.06176">
        <ele>167.4</ele>
        <time>2023-03-05T15:19:10Z</time>
      </trkpt>
      <trkpt lat="48.64166" lon="2.06174">
        <ele>167.6</ele>
        <time>2023-03-05T15:19:12Z</time>
      </trkpt>
      <trkpt lat="48.64164" lon="2.06172">
        <ele>167.8</ele>
        <time>2023-03-05T15:19:14Z</time>
      </trkpt>
      <trkpt lat="48.64162" lon="2.0617">
        <ele>168</ele>
        <time>2023-03-05T15:19:16Z</time>
      </trkpt>
      <trkpt lat="48.64159" lon="2.06168">
        <ele>168.2</ele>
        <time>2023-03-05T15:19:18Z</time>
      </trkpt>
      <trkpt lat="48.64157" lon="2.06167">
        <ele>168.4</ele>
        <time>2023-03-05T15:19:20Z</time>
      </trkpt>
      <trkpt lat="48.64154" lon="2.06166">
        <ele>168.6</ele>
        <time>2023-03-05T15:19:22Z</time>
      </trkpt>
      <trkpt lat="48.64151" lon="2.06164">
        <ele>168.8</ele>
        <time>2023-03-05T15:19:24Z</time>
      </trkpt>
      <trkpt lat="48.64149" lon="2.06162">
        <ele>168.8</ele>
        <time>2023-03-05T15:19:26Z</time>
      </trkpt>
      <trkpt lat="48.64147" lon="2.0616">
        <ele>168.8</ele>
        <time>2023-03-05T15:19:28Z</time>
      </trkpt>
      <trkpt lat="48.64145" lon="2.06158">
        <ele>169</ele>
        <time>2023-03-05T15:19:30Z</time>
      </trkpt>
      <trkpt lat="48.64142" lon="2.06156">
        <ele>168.8</ele>
        <time>2023-03-05T15:19:32Z</time>
      </trkpt>
      <trkpt lat="48.6414" lon="2.06154">
        <ele>168.6</ele>
        <time>2023-03-05T15:19:34Z</time>
      </trkpt>
      <trkpt lat="48.64138" lon="2.06152">
        <ele>168.6</ele>
        <time>2023-03-05T15:19:36Z</time>
      </trkpt>
      <trkpt lat="48.64136" lon="2.0615">
        <ele>168.4</ele>
        <time>2023-03-05T15:19:38Z</time>
      </trkpt>
      <trkpt lat="48.64133" lon="2.06148">
        <ele>168.4</ele>
        <time>2023-03-05T15:19:40Z</time>
      </trkpt>
      <trkpt lat="48.64132" lon="2.06146">
        <ele>168.4</ele>
        <time>2023-03-05T15:19:42Z</time>
      </trkpt>
      <trkpt lat="48.64129" lon="2.06144">
        <ele>168.4</ele>
        <time>2023-03-05T15:19:44Z</time>
      </trkpt>
      <trkpt lat="48.64127" lon="2.06142">
        <ele>168.4</ele>
        <time>2023-03-05T15:19:46Z</time>
      </trkpt>
      <trkpt lat="48.64124" lon="2.0614">
        <ele>168.4</ele>
        <time>2023-03-05T15:19:48Z</time>
      </trkpt>
      <trkpt lat="48.64122" lon="2.06138">
        <ele>168.4</ele>
        <time>2023-03-05T15:19:50Z</time>
      </trkpt>
      <trkpt lat="48.64119" lon="2.06135">
        <ele>168.4</ele>
        <time>2023-03-05T15:19:52Z</time>
      </trkpt>
      <trkpt lat="48.64117" lon="2.06133">
        <ele>168.4</ele>
        <time>2023-03-05T15:19:54Z</time>
      </trkpt>
      <trkpt lat="48.64115" lon="2.0613">
        <ele>168.6</ele>
        <time>2023-03-05T15:19:56Z</time>
      </trkpt>
      <trkpt lat="48.64113" lon="2.06128">
        <ele>168.6</ele>
        <time>2023-03-05T15:19:58Z</time>
      </trkpt>
      <trkpt lat="48.64111" lon="2.06127">
        <ele>168.8</ele>
        <time>2023-03-05T15:20:00Z</time>
      </trkpt>
      <trkpt lat="48.64108" lon="2.06125">
        <ele>168.8</ele>
        <time>2023-03-05T15:20:02Z</time>
      </trkpt>
      <trkpt lat="48.64104" lon="2.06123">
        <ele>169</ele>
        <time>2023-03-05T15:20:04Z</time>
      </trkpt>
      <trkpt lat="48.64102" lon="2.06123">
        <ele>169.2</ele>
        <time>2023-03-05T15:20:05Z</time>
      </trkpt>
      <trkpt lat="48.641" lon="2.06121">
        <ele>169.2</ele>
        <time>2023-03-05T15:20:07Z</time>
      </trkpt>
      <trkpt lat="48.64097" lon="2.0612">
        <ele>169.2</ele>
        <time>2023-03-05T15:20:09Z</time>
      </trkpt>
      <trkpt lat="48.64094" lon="2.06118">
        <ele>169.2</ele>
        <time>2023-03-05T15:20:11Z</time>
      </trkpt>
      <trkpt lat="48.64092" lon="2.06116">
        <ele>169.2</ele>
        <time>2023-03-05T15:20:13Z</time>
      </trkpt>
      <trkpt lat="48.6409" lon="2.06114">
        <ele>169.2</ele>
        <time>2023-03-05T15:20:15Z</time>
      </trkpt>
      <trkpt lat="48.64087" lon="2.06112">
        <ele>169.2</ele>
        <time>2023-03-05T15:20:17Z</time>
      </trkpt>
      <trkpt lat="48.64085" lon="2.0611">
        <ele>169.2</ele>
        <time>2023-03-05T15:20:19Z</time>
      </trkpt>
      <trkpt lat="48.64083" lon="2.06108">
        <ele>169.2</ele>
        <time>2023-03-05T15:20:21Z</time>
      </trkpt>
      <trkpt lat="48.6408" lon="2.06107">
        <ele>169.2</ele>
        <time>2023-03-05T15:20:23Z</time>
      </trkpt>
      <trkpt lat="48.64078" lon="2.06105">
        <ele>169.2</ele>
        <time>2023-03-05T15:20:25Z</time>
      </trkpt>
      <trkpt lat="48.64076" lon="2.06103">
        <ele>169.2</ele>
        <time>2023-03-05T15:20:27Z</time>
      </trkpt>
      <trkpt lat="48.64073" lon="2.061">
        <ele>169.2</ele>
        <time>2023-03-05T15:20:29Z</time>
      </trkpt>
      <trkpt lat="48.64072" lon="2.06098">
        <ele>169</ele>
        <time>2023-03-05T15:20:31Z</time>
      </trkpt>
      <trkpt lat="48.6407" lon="2.06096">
        <ele>169</ele>
        <time>2023-03-05T15:20:33Z</time>
      </trkpt>
      <trkpt lat="48.64068" lon="2.06094">
        <ele>169.2</ele>
        <time>2023-03-05T15:20:35Z</time>
      </trkpt>
      <trkpt lat="48.64066" lon="2.06092">
        <ele>169.4</ele>
        <time>2023-03-05T15:20:37Z</time>
      </trkpt>
      <trkpt lat="48.64063" lon="2.0609">
        <ele>169.4</ele>
        <time>2023-03-05T15:20:39Z</time>
      </trkpt>
      <trkpt lat="48.64061" lon="2.06088">
        <ele>169.4</ele>
        <time>2023-03-05T15:20:41Z</time>
      </trkpt>
      <trkpt lat="48.64059" lon="2.06086">
        <ele>169.6</ele>
        <time>2023-03-05T15:20:43Z</time>
      </trkpt>
      <trkpt lat="48.64056" lon="2.06083">
        <ele>169.8</ele>
        <time>2023-03-05T15:20:45Z</time>
      </trkpt>
      <trkpt lat="48.64054" lon="2.06081">
        <ele>169.8</ele>
        <time>2023-03-05T15:20:46Z</time>
      </trkpt>
      <trkpt lat="48.64051" lon="2.06077">
        <ele>169.8</ele>
        <time>2023-03-05T15:20:48Z</time>
      </trkpt>
      <trkpt lat="48.6405" lon="2.06076">
        <ele>169.8</ele>
        <time>2023-03-05T15:20:49Z</time>
      </trkpt>
      <trkpt lat="48.64048" lon="2.06075">
        <ele>169.8</ele>
        <time>2023-03-05T15:20:50Z</time>
      </trkpt>
      <trkpt lat="48.64046" lon="2.06072">
        <ele>169.6</ele>
        <time>2023-03-05T15:20:52Z</time>
      </trkpt>
      <trkpt lat="48.64044" lon="2.0607">
        <ele>169.6</ele>
        <time>2023-03-05T15:20:54Z</time>
      </trkpt>
      <trkpt lat="48.64041" lon="2.06068">
        <ele>169.6</ele>
        <time>2023-03-05T15:20:56Z</time>
      </trkpt>
      <trkpt lat="48.64038" lon="2.06066">
        <ele>169.6</ele>
        <time>2023-03-05T15:20:58Z</time>
      </trkpt>
      <trkpt lat="48.64036" lon="2.06063">
        <ele>169.6</ele>
        <time>2023-03-05T15:21:00Z</time>
      </trkpt>
      <trkpt lat="48.64034" lon="2.06061">
        <ele>169.4</ele>
        <time>2023-03-05T15:21:02Z</time>
      </trkpt>
      <trkpt lat="48.64031" lon="2.06059">
        <ele>169.4</ele>
        <time>2023-03-05T15:21:04Z</time>
      </trkpt>
      <trkpt lat="48.64028" lon="2.06056">
        <ele>169.4</ele>
        <time>2023-03-05T15:21:06Z</time>
      </trkpt>
      <trkpt lat="48.64026" lon="2.06055">
        <ele>169.2</ele>
        <time>2023-03-05T15:21:08Z</time>
      </trkpt>
      <trkpt lat="48.64023" lon="2.06053">
        <ele>169.2</ele>
        <time>2023-03-05T15:21:10Z</time>
      </trkpt>
      <trkpt lat="48.6402" lon="2.06051">
        <ele>169.2</ele>
        <time>2023-03-05T15:21:12Z</time>
      </trkpt>
      <trkpt lat="48.64017" lon="2.0605">
        <ele>169.2</ele>
        <time>2023-03-05T15:21:14Z</time>
      </trkpt>
      <trkpt lat="48.64014" lon="2.06048">
        <ele>169.2</ele>
        <time>2023-03-05T15:21:16Z</time>
      </trkpt>
      <trkpt lat="48.64012" lon="2.06045">
        <ele>169</ele>
        <time>2023-03-05T15:21:18Z</time>
      </trkpt>
      <trkpt lat="48.6401" lon="2.06043">
        <ele>169</ele>
        <time>2023-03-05T15:21:20Z</time>
      </trkpt>
      <trkpt lat="48.64008" lon="2.06041">
        <ele>169</ele>
        <time>2023-03-05T15:21:22Z</time>
      </trkpt>
      <trkpt lat="48.64005" lon="2.06039">
        <ele>169</ele>
        <time>2023-03-05T15:21:24Z</time>
      </trkpt>
      <trkpt lat="48.64003" lon="2.06037">
        <ele>169</ele>
        <time>2023-03-05T15:21:26Z</time>
      </trkpt>
      <trkpt lat="48.64" lon="2.06035">
        <ele>169</ele>
        <time>2023-03-05T15:21:28Z</time>
      </trkpt>
      <trkpt lat="48.63998" lon="2.06033">
        <ele>169.2</ele>
        <time>2023-03-05T15:21:30Z</time>
      </trkpt>
      <trkpt lat="48.63996" lon="2.06031">
        <ele>169</ele>
        <time>2023-03-05T15:21:32Z</time>
      </trkpt>
      <trkpt lat="48.63993" lon="2.0603">
        <ele>169</ele>
        <time>2023-03-05T15:21:34Z</time>
      </trkpt>
      <trkpt lat="48.6399" lon="2.06029">
        <ele>169.2</ele>
        <time>2023-03-05T15:21:36Z</time>
      </trkpt>
      <trkpt lat="48.63987" lon="2.06027">
        <ele>169.2</ele>
        <time>2023-03-05T15:21:38Z</time>
      </trkpt>
      <trkpt lat="48.63985" lon="2.06024">
        <ele>169.4</ele>
        <time>2023-03-05T15:21:40Z</time>
      </trkpt>
      <trkpt lat="48.63982" lon="2.0602">
        <ele>169.6</ele>
        <time>2023-03-05T15:21:42Z</time>
      </trkpt>
      <trkpt lat="48.6398" lon="2.06017">
        <ele>169.8</ele>
        <time>2023-03-05T15:21:44Z</time>
      </trkpt>
      <trkpt lat="48.63979" lon="2.06015">
        <ele>169.8</ele>
        <time>2023-03-05T15:21:46Z</time>
      </trkpt>
      <trkpt lat="48.63978" lon="2.06012">
        <ele>170</ele>
        <time>2023-03-05T15:21:49Z</time>
      </trkpt>
      <trkpt lat="48.63976" lon="2.0601">
        <ele>170</ele>
        <time>2023-03-05T15:21:51Z</time>
      </trkpt>
      <trkpt lat="48.63973" lon="2.06009">
        <ele>170</ele>
        <time>2023-03-05T15:21:53Z</time>
      </trkpt>
      <trkpt lat="48.63971" lon="2.06006">
        <ele>169.8</ele>
        <time>2023-03-05T15:21:55Z</time>
      </trkpt>
      <trkpt lat="48.63969" lon="2.06004">
        <ele>169.8</ele>
        <time>2023-03-05T15:21:57Z</time>
      </trkpt>
      <trkpt lat="48.63966" lon="2.06001">
        <ele>169.8</ele>
        <time>2023-03-05T15:21:59Z</time>
      </trkpt>
      <trkpt lat="48.63964" lon="2.05999">
        <ele>169.8</ele>
        <time>2023-03-05T15:22:01Z</time>
      </trkpt>
      <trkpt lat="48.63961" lon="2.05997">
        <ele>169.8</ele>
        <time>2023-03-05T15:22:03Z</time>
      </trkpt>
      <trkpt lat="48.63959" lon="2.05995">
        <ele>170</ele>
        <time>2023-03-05T15:22:05Z</time>
      </trkpt>
      <trkpt lat="48.63956" lon="2.05992">
        <ele>170.2</ele>
        <time>2023-03-05T15:22:07Z</time>
      </trkpt>
      <trkpt lat="48.63953" lon="2.0599">
        <ele>170.2</ele>
        <time>2023-03-05T15:22:09Z</time>
      </trkpt>
      <trkpt lat="48.6395" lon="2.05989">
        <ele>170.4</ele>
        <time>2023-03-05T15:22:11Z</time>
      </trkpt>
      <trkpt lat="48.63948" lon="2.05987">
        <ele>170.6</ele>
        <time>2023-03-05T15:22:13Z</time>
      </trkpt>
      <trkpt lat="48.63945" lon="2.05985">
        <ele>170.4</ele>
        <time>2023-03-05T15:22:15Z</time>
      </trkpt>
      <trkpt lat="48.63942" lon="2.05984">
        <ele>170.4</ele>
        <time>2023-03-05T15:22:17Z</time>
      </trkpt>
      <trkpt lat="48.6394" lon="2.05982">
        <ele>170.4</ele>
        <time>2023-03-05T15:22:19Z</time>
      </trkpt>
      <trkpt lat="48.63937" lon="2.0598">
        <ele>170.4</ele>
        <time>2023-03-05T15:22:21Z</time>
      </trkpt>
      <trkpt lat="48.63934" lon="2.05978">
        <ele>170.4</ele>
        <time>2023-03-05T15:22:23Z</time>
      </trkpt>
      <trkpt lat="48.63931" lon="2.05976">
        <ele>170.4</ele>
        <time>2023-03-05T15:22:25Z</time>
      </trkpt>
      <trkpt lat="48.63929" lon="2.05974">
        <ele>170.4</ele>
        <time>2023-03-05T15:22:27Z</time>
      </trkpt>
      <trkpt lat="48.63925" lon="2.05972">
        <ele>170.4</ele>
        <time>2023-03-05T15:22:29Z</time>
      </trkpt>
      <trkpt lat="48.63923" lon="2.0597">
        <ele>170.4</ele>
        <time>2023-03-05T15:22:31Z</time>
      </trkpt>
      <trkpt lat="48.6392" lon="2.05967">
        <ele>170.4</ele>
        <time>2023-03-05T15:22:33Z</time>
      </trkpt>
      <trkpt lat="48.63917" lon="2.05965">
        <ele>170.4</ele>
        <time>2023-03-05T15:22:35Z</time>
      </trkpt>
      <trkpt lat="48.63915" lon="2.05964">
        <ele>170.4</ele>
        <time>2023-03-05T15:22:36Z</time>
      </trkpt>
      <trkpt lat="48.63914" lon="2.05963">
        <ele>170.4</ele>
        <time>2023-03-05T15:22:37Z</time>
      </trkpt>
      <trkpt lat="48.63911" lon="2.0596">
        <ele>170.2</ele>
        <time>2023-03-05T15:22:39Z</time>
      </trkpt>
      <trkpt lat="48.63909" lon="2.05957">
        <ele>170.2</ele>
        <time>2023-03-05T15:22:41Z</time>
      </trkpt>
      <trkpt lat="48.63907" lon="2.05954">
        <ele>170</ele>
        <time>2023-03-05T15:22:43Z</time>
      </trkpt>
      <trkpt lat="48.63905" lon="2.05951">
        <ele>170</ele>
        <time>2023-03-05T15:22:45Z</time>
      </trkpt>
      <trkpt lat="48.63903" lon="2.05948">
        <ele>170</ele>
        <time>2023-03-05T15:22:47Z</time>
      </trkpt>
      <trkpt lat="48.63901" lon="2.05946">
        <ele>170</ele>
        <time>2023-03-05T15:22:49Z</time>
      </trkpt>
      <trkpt lat="48.63899" lon="2.05943">
        <ele>170.2</ele>
        <time>2023-03-05T15:22:51Z</time>
      </trkpt>
      <trkpt lat="48.63897" lon="2.05939">
        <ele>170.2</ele>
        <time>2023-03-05T15:22:53Z</time>
      </trkpt>
      <trkpt lat="48.63895" lon="2.05937">
        <ele>170.2</ele>
        <time>2023-03-05T15:22:54Z</time>
      </trkpt>
      <trkpt lat="48.63893" lon="2.05935">
        <ele>170</ele>
        <time>2023-03-05T15:22:55Z</time>
      </trkpt>
      <trkpt lat="48.6389" lon="2.05932">
        <ele>170</ele>
        <time>2023-03-05T15:22:56Z</time>
      </trkpt>
      <trkpt lat="48.63887" lon="2.05929">
        <ele>169.8</ele>
        <time>2023-03-05T15:22:57Z</time>
      </trkpt>
      <trkpt lat="48.63885" lon="2.05926">
        <ele>169.8</ele>
        <time>2023-03-05T15:22:58Z</time>
      </trkpt>
      <trkpt lat="48.63881" lon="2.05923">
        <ele>169.6</ele>
        <time>2023-03-05T15:22:59Z</time>
      </trkpt>
      <trkpt lat="48.63878" lon="2.05919">
        <ele>169.6</ele>
        <time>2023-03-05T15:23:00Z</time>
      </trkpt>
      <trkpt lat="48.63875" lon="2.05916">
        <ele>169.4</ele>
        <time>2023-03-05T15:23:01Z</time>
      </trkpt>
      <trkpt lat="48.63871" lon="2.05913">
        <ele>169.4</ele>
        <time>2023-03-05T15:23:02Z</time>
      </trkpt>
      <trkpt lat="48.63867" lon="2.05909">
        <ele>169.2</ele>
        <time>2023-03-05T15:23:03Z</time>
      </trkpt>
      <trkpt lat="48.63863" lon="2.05906">
        <ele>169.2</ele>
        <time>2023-03-05T15:23:04Z</time>
      </trkpt>
      <trkpt lat="48.6386" lon="2.05902">
        <ele>169</ele>
        <time>2023-03-05T15:23:05Z</time>
      </trkpt>
      <trkpt lat="48.63856" lon="2.05899">
        <ele>169</ele>
        <time>2023-03-05T15:23:06Z</time>
      </trkpt>
      <trkpt lat="48.63853" lon="2.05895">
        <ele>169</ele>
        <time>2023-03-05T15:23:07Z</time>
      </trkpt>
      <trkpt lat="48.6385" lon="2.05892">
        <ele>168.8</ele>
        <time>2023-03-05T15:23:08Z</time>
      </trkpt>
      <trkpt lat="48.63847" lon="2.05888">
        <ele>168.8</ele>
        <time>2023-03-05T15:23:09Z</time>
      </trkpt>
      <trkpt lat="48.63845" lon="2.05885">
        <ele>168.6</ele>
        <time>2023-03-05T15:23:10Z</time>
      </trkpt>
      <trkpt lat="48.63842" lon="2.05881">
        <ele>168.6</ele>
        <time>2023-03-05T15:23:11Z</time>
      </trkpt>
      <trkpt lat="48.63839" lon="2.05878">
        <ele>168.4</ele>
        <time>2023-03-05T15:23:12Z</time>
      </trkpt>
      <trkpt lat="48.63837" lon="2.05874">
        <ele>168.4</ele>
        <time>2023-03-05T15:23:13Z</time>
      </trkpt>
      <trkpt lat="48.63834" lon="2.0587">
        <ele>168.2</ele>
        <time>2023-03-05T15:23:14Z</time>
      </trkpt>
      <trkpt lat="48.63831" lon="2.05866">
        <ele>168.2</ele>
        <time>2023-03-05T15:23:15Z</time>
      </trkpt>
      <trkpt lat="48.63828" lon="2.05861">
        <ele>168</ele>
        <time>2023-03-05T15:23:16Z</time>
      </trkpt>
      <trkpt lat="48.63825" lon="2.05857">
        <ele>168</ele>
        <time>2023-03-05T15:23:17Z</time>
      </trkpt>
      <trkpt lat="48.63822" lon="2.05853">
        <ele>167.8</ele>
        <time>2023-03-05T15:23:18Z</time>
      </trkpt>
      <trkpt lat="48.63819" lon="2.05849">
        <ele>167.8</ele>
        <time>2023-03-05T15:23:19Z</time>
      </trkpt>
      <trkpt lat="48.63816" lon="2.05844">
        <ele>167.6</ele>
        <time>2023-03-05T15:23:20Z</time>
      </trkpt>
      <trkpt lat="48.63812" lon="2.0584">
        <ele>167.6</ele>
        <time>2023-03-05T15:23:21Z</time>
      </trkpt>
      <trkpt lat="48.63809" lon="2.05834">
        <ele>167.6</ele>
        <time>2023-03-05T15:23:22Z</time>
      </trkpt>
      <trkpt lat="48.63806" lon="2.05829">
        <ele>167.6</ele>
        <time>2023-03-05T15:23:23Z</time>
      </trkpt>
      <trkpt lat="48.63802" lon="2.05823">
        <ele>167.6</ele>
        <time>2023-03-05T15:23:24Z</time>
      </trkpt>
      <trkpt lat="48.63799" lon="2.05817">
        <ele>167.6</ele>
        <time>2023-03-05T15:23:25Z</time>
      </trkpt>
      <trkpt lat="48.63796" lon="2.05811">
        <ele>167.6</ele>
        <time>2023-03-05T15:23:26Z</time>
      </trkpt>
      <trkpt lat="48.63792" lon="2.05805">
        <ele>167.6</ele>
        <time>2023-03-05T15:23:27Z</time>
      </trkpt>
      <trkpt lat="48.63788" lon="2.05799">
        <ele>167.6</ele>
        <time>2023-03-05T15:23:28Z</time>
      </trkpt>
      <trkpt lat="48.63784" lon="2.05793">
        <ele>167.6</ele>
        <time>2023-03-05T15:23:29Z</time>
      </trkpt>
      <trkpt lat="48.6378" lon="2.05787">
        <ele>167.6</ele>
        <time>2023-03-05T15:23:30Z</time>
      </trkpt>
      <trkpt lat="48.63776" lon="2.05781">
        <ele>167.6</ele>
        <time>2023-03-05T15:23:31Z</time>
      </trkpt>
      <trkpt lat="48.63772" lon="2.05775">
        <ele>167.6</ele>
        <time>2023-03-05T15:23:32Z</time>
      </trkpt>
      <trkpt lat="48.63767" lon="2.0577">
        <ele>167.4</ele>
        <time>2023-03-05T15:23:33Z</time>
      </trkpt>
      <trkpt lat="48.63763" lon="2.05764">
        <ele>167.4</ele>
        <time>2023-03-05T15:23:34Z</time>
      </trkpt>
      <trkpt lat="48.63759" lon="2.05759">
        <ele>167.4</ele>
        <time>2023-03-05T15:23:35Z</time>
      </trkpt>
      <trkpt lat="48.63755" lon="2.05753">
        <ele>167.4</ele>
        <time>2023-03-05T15:23:36Z</time>
      </trkpt>
      <trkpt lat="48.6375" lon="2.05747">
        <ele>167.2</ele>
        <time>2023-03-05T15:23:37Z</time>
      </trkpt>
      <trkpt lat="48.63747" lon="2.05741">
        <ele>167.2</ele>
        <time>2023-03-05T15:23:38Z</time>
      </trkpt>
      <trkpt lat="48.63743" lon="2.05734">
        <ele>167.2</ele>
        <time>2023-03-05T15:23:39Z</time>
      </trkpt>
      <trkpt lat="48.6374" lon="2.05727">
        <ele>167</ele>
        <time>2023-03-05T15:23:40Z</time>
      </trkpt>
      <trkpt lat="48.63736" lon="2.0572">
        <ele>167</ele>
        <time>2023-03-05T15:23:41Z</time>
      </trkpt>
      <trkpt lat="48.63733" lon="2.05713">
        <ele>166.8</ele>
        <time>2023-03-05T15:23:42Z</time>
      </trkpt>
      <trkpt lat="48.6373" lon="2.05706">
        <ele>166.8</ele>
        <time>2023-03-05T15:23:43Z</time>
      </trkpt>
      <trkpt lat="48.63726" lon="2.05698">
        <ele>166.8</ele>
        <time>2023-03-05T15:23:44Z</time>
      </trkpt>
      <trkpt lat="48.63722" lon="2.05691">
        <ele>166.8</ele>
        <time>2023-03-05T15:23:45Z</time>
      </trkpt>
      <trkpt lat="48.63718" lon="2.05683">
        <ele>166.6</ele>
        <time>2023-03-05T15:23:46Z</time>
      </trkpt>
      <trkpt lat="48.63715" lon="2.05675">
        <ele>166.6</ele>
        <time>2023-03-05T15:23:47Z</time>
      </trkpt>
      <trkpt lat="48.63711" lon="2.05667">
        <ele>166.6</ele>
        <time>2023-03-05T15:23:48Z</time>
      </trkpt>
      <trkpt lat="48.63708" lon="2.0566">
        <ele>166.4</ele>
        <time>2023-03-05T15:23:49Z</time>
      </trkpt>
      <trkpt lat="48.63704" lon="2.05653">
        <ele>166.4</ele>
        <time>2023-03-05T15:23:50Z</time>
      </trkpt>
      <trkpt lat="48.63701" lon="2.05646">
        <ele>166.2</ele>
        <time>2023-03-05T15:23:51Z</time>
      </trkpt>
      <trkpt lat="48.63698" lon="2.0564">
        <ele>166.2</ele>
        <time>2023-03-05T15:23:52Z</time>
      </trkpt>
      <trkpt lat="48.63695" lon="2.05633">
        <ele>166</ele>
        <time>2023-03-05T15:23:53Z</time>
      </trkpt>
      <trkpt lat="48.63692" lon="2.05626">
        <ele>166</ele>
        <time>2023-03-05T15:23:54Z</time>
      </trkpt>
      <trkpt lat="48.63689" lon="2.05619">
        <ele>166</ele>
        <time>2023-03-05T15:23:55Z</time>
      </trkpt>
      <trkpt lat="48.63686" lon="2.05612">
        <ele>165.8</ele>
        <time>2023-03-05T15:23:56Z</time>
      </trkpt>
      <trkpt lat="48.63683" lon="2.05604">
        <ele>165.8</ele>
        <time>2023-03-05T15:23:57Z</time>
      </trkpt>
      <trkpt lat="48.63679" lon="2.05597">
        <ele>165.6</ele>
        <time>2023-03-05T15:23:58Z</time>
      </trkpt>
      <trkpt lat="48.63676" lon="2.05589">
        <ele>165.6</ele>
        <time>2023-03-05T15:23:59Z</time>
      </trkpt>
      <trkpt lat="48.63673" lon="2.05582">
        <ele>165.4</ele>
        <time>2023-03-05T15:24:00Z</time>
      </trkpt>
      <trkpt lat="48.63669" lon="2.05575">
        <ele>165.4</ele>
        <time>2023-03-05T15:24:01Z</time>
      </trkpt>
      <trkpt lat="48.63666" lon="2.05567">
        <ele>165.2</ele>
        <time>2023-03-05T15:24:02Z</time>
      </trkpt>
      <trkpt lat="48.63663" lon="2.0556">
        <ele>165.2</ele>
        <time>2023-03-05T15:24:03Z</time>
      </trkpt>
      <trkpt lat="48.6366" lon="2.05554">
        <ele>165.2</ele>
        <time>2023-03-05T15:24:04Z</time>
      </trkpt>
      <trkpt lat="48.63657" lon="2.05547">
        <ele>165</ele>
        <time>2023-03-05T15:24:05Z</time>
      </trkpt>
      <trkpt lat="48.63654" lon="2.0554">
        <ele>165</ele>
        <time>2023-03-05T15:24:06Z</time>
      </trkpt>
      <trkpt lat="48.63652" lon="2.05532">
        <ele>165</ele>
        <time>2023-03-05T15:24:07Z</time>
      </trkpt>
      <trkpt lat="48.63649" lon="2.05525">
        <ele>165</ele>
        <time>2023-03-05T15:24:08Z</time>
      </trkpt>
      <trkpt lat="48.63646" lon="2.05516">
        <ele>164.8</ele>
        <time>2023-03-05T15:24:09Z</time>
      </trkpt>
      <trkpt lat="48.63643" lon="2.05508">
        <ele>164.8</ele>
        <time>2023-03-05T15:24:10Z</time>
      </trkpt>
      <trkpt lat="48.63641" lon="2.055">
        <ele>164.8</ele>
        <time>2023-03-05T15:24:11Z</time>
      </trkpt>
      <trkpt lat="48.63637" lon="2.05492">
        <ele>164.8</ele>
        <time>2023-03-05T15:24:12Z</time>
      </trkpt>
      <trkpt lat="48.63635" lon="2.05484">
        <ele>165</ele>
        <time>2023-03-05T15:24:13Z</time>
      </trkpt>
      <trkpt lat="48.63632" lon="2.05476">
        <ele>165</ele>
        <time>2023-03-05T15:24:14Z</time>
      </trkpt>
      <trkpt lat="48.63629" lon="2.05468">
        <ele>165</ele>
        <time>2023-03-05T15:24:15Z</time>
      </trkpt>
      <trkpt lat="48.63627" lon="2.0546">
        <ele>165</ele>
        <time>2023-03-05T15:24:16Z</time>
      </trkpt>
      <trkpt lat="48.63625" lon="2.05452">
        <ele>165</ele>
        <time>2023-03-05T15:24:17Z</time>
      </trkpt>
      <trkpt lat="48.63622" lon="2.05444">
        <ele>164.8</ele>
        <time>2023-03-05T15:24:18Z</time>
      </trkpt>
      <trkpt lat="48.6362" lon="2.05436">
        <ele>164.8</ele>
        <time>2023-03-05T15:24:19Z</time>
      </trkpt>
      <trkpt lat="48.63619" lon="2.05428">
        <ele>164.8</ele>
        <time>2023-03-05T15:24:20Z</time>
      </trkpt>
      <trkpt lat="48.63616" lon="2.05419">
        <ele>164.8</ele>
        <time>2023-03-05T15:24:21Z</time>
      </trkpt>
      <trkpt lat="48.63614" lon="2.05411">
        <ele>164.8</ele>
        <time>2023-03-05T15:24:22Z</time>
      </trkpt>
      <trkpt lat="48.63613" lon="2.05402">
        <ele>164.6</ele>
        <time>2023-03-05T15:24:23Z</time>
      </trkpt>
      <trkpt lat="48.63611" lon="2.05394">
        <ele>164.6</ele>
        <time>2023-03-05T15:24:24Z</time>
      </trkpt>
      <trkpt lat="48.63609" lon="2.05386">
        <ele>164.6</ele>
        <time>2023-03-05T15:24:25Z</time>
      </trkpt>
      <trkpt lat="48.63608" lon="2.05378">
        <ele>164.6</ele>
        <time>2023-03-05T15:24:26Z</time>
      </trkpt>
      <trkpt lat="48.63606" lon="2.0537">
        <ele>164.4</ele>
        <time>2023-03-05T15:24:27Z</time>
      </trkpt>
      <trkpt lat="48.63605" lon="2.05362">
        <ele>164.4</ele>
        <time>2023-03-05T15:24:28Z</time>
      </trkpt>
      <trkpt lat="48.63603" lon="2.05354">
        <ele>164.4</ele>
        <time>2023-03-05T15:24:29Z</time>
      </trkpt>
      <trkpt lat="48.63601" lon="2.05345">
        <ele>164.2</ele>
        <time>2023-03-05T15:24:30Z</time>
      </trkpt>
      <trkpt lat="48.63599" lon="2.05336">
        <ele>164.2</ele>
        <time>2023-03-05T15:24:31Z</time>
      </trkpt>
      <trkpt lat="48.63598" lon="2.05328">
        <ele>164.2</ele>
        <time>2023-03-05T15:24:32Z</time>
      </trkpt>
      <trkpt lat="48.63596" lon="2.05319">
        <ele>164</ele>
        <time>2023-03-05T15:24:33Z</time>
      </trkpt>
      <trkpt lat="48.63595" lon="2.05311">
        <ele>164</ele>
        <time>2023-03-05T15:24:34Z</time>
      </trkpt>
      <trkpt lat="48.63593" lon="2.05303">
        <ele>163.8</ele>
        <time>2023-03-05T15:24:35Z</time>
      </trkpt>
      <trkpt lat="48.63591" lon="2.05295">
        <ele>163.6</ele>
        <time>2023-03-05T15:24:36Z</time>
      </trkpt>
      <trkpt lat="48.63589" lon="2.05287">
        <ele>163.6</ele>
        <time>2023-03-05T15:24:37Z</time>
      </trkpt>
      <trkpt lat="48.63588" lon="2.05279">
        <ele>163.4</ele>
        <time>2023-03-05T15:24:38Z</time>
      </trkpt>
      <trkpt lat="48.63587" lon="2.05272">
        <ele>163.2</ele>
        <time>2023-03-05T15:24:39Z</time>
      </trkpt>
      <trkpt lat="48.63585" lon="2.05265">
        <ele>163</ele>
        <time>2023-03-05T15:24:40Z</time>
      </trkpt>
      <trkpt lat="48.63583" lon="2.05257">
        <ele>162.8</ele>
        <time>2023-03-05T15:24:41Z</time>
      </trkpt>
      <trkpt lat="48.63581" lon="2.0525">
        <ele>162.8</ele>
        <time>2023-03-05T15:24:42Z</time>
      </trkpt>
      <trkpt lat="48.63579" lon="2.05244">
        <ele>162.6</ele>
        <time>2023-03-05T15:24:43Z</time>
      </trkpt>
      <trkpt lat="48.63577" lon="2.05237">
        <ele>162.4</ele>
        <time>2023-03-05T15:24:44Z</time>
      </trkpt>
      <trkpt lat="48.63575" lon="2.05231">
        <ele>162.2</ele>
        <time>2023-03-05T15:24:45Z</time>
      </trkpt>
      <trkpt lat="48.63573" lon="2.05224">
        <ele>162.2</ele>
        <time>2023-03-05T15:24:46Z</time>
      </trkpt>
      <trkpt lat="48.63572" lon="2.05217">
        <ele>162</ele>
        <time>2023-03-05T15:24:47Z</time>
      </trkpt>
      <trkpt lat="48.6357" lon="2.0521">
        <ele>162</ele>
        <time>2023-03-05T15:24:48Z</time>
      </trkpt>
      <trkpt lat="48.63568" lon="2.05202">
        <ele>161.8</ele>
        <time>2023-03-05T15:24:49Z</time>
      </trkpt>
      <trkpt lat="48.63566" lon="2.05194">
        <ele>161.8</ele>
        <time>2023-03-05T15:24:50Z</time>
      </trkpt>
      <trkpt lat="48.63564" lon="2.05186">
        <ele>161.6</ele>
        <time>2023-03-05T15:24:51Z</time>
      </trkpt>
      <trkpt lat="48.63562" lon="2.05177">
        <ele>161.4</ele>
        <time>2023-03-05T15:24:52Z</time>
      </trkpt>
      <trkpt lat="48.6356" lon="2.05169">
        <ele>161.4</ele>
        <time>2023-03-05T15:24:53Z</time>
      </trkpt>
      <trkpt lat="48.63558" lon="2.05162">
        <ele>161.2</ele>
        <time>2023-03-05T15:24:54Z</time>
      </trkpt>
      <trkpt lat="48.63556" lon="2.05154">
        <ele>161.2</ele>
        <time>2023-03-05T15:24:55Z</time>
      </trkpt>
      <trkpt lat="48.63554" lon="2.05146">
        <ele>161.2</ele>
        <time>2023-03-05T15:24:56Z</time>
      </trkpt>
      <trkpt lat="48.63552" lon="2.05138">
        <ele>161</ele>
        <time>2023-03-05T15:24:57Z</time>
      </trkpt>
      <trkpt lat="48.6355" lon="2.0513">
        <ele>161.2</ele>
        <time>2023-03-05T15:24:58Z</time>
      </trkpt>
      <trkpt lat="48.63547" lon="2.05123">
        <ele>161.2</ele>
        <time>2023-03-05T15:24:59Z</time>
      </trkpt>
      <trkpt lat="48.63545" lon="2.05115">
        <ele>161.2</ele>
        <time>2023-03-05T15:25:00Z</time>
      </trkpt>
      <trkpt lat="48.63542" lon="2.05106">
        <ele>161.4</ele>
        <time>2023-03-05T15:25:01Z</time>
      </trkpt>
      <trkpt lat="48.63539" lon="2.05098">
        <ele>161.4</ele>
        <time>2023-03-05T15:25:02Z</time>
      </trkpt>
      <trkpt lat="48.63537" lon="2.05089">
        <ele>161.4</ele>
        <time>2023-03-05T15:25:03Z</time>
      </trkpt>
      <trkpt lat="48.63535" lon="2.05079">
        <ele>161.4</ele>
        <time>2023-03-05T15:25:04Z</time>
      </trkpt>
      <trkpt lat="48.63533" lon="2.0507">
        <ele>161.4</ele>
        <time>2023-03-05T15:25:05Z</time>
      </trkpt>
      <trkpt lat="48.63532" lon="2.05062">
        <ele>161.4</ele>
        <time>2023-03-05T15:25:06Z</time>
      </trkpt>
      <trkpt lat="48.63531" lon="2.05053">
        <ele>161.4</ele>
        <time>2023-03-05T15:25:07Z</time>
      </trkpt>
      <trkpt lat="48.6353" lon="2.05045">
        <ele>161.4</ele>
        <time>2023-03-05T15:25:08Z</time>
      </trkpt>
      <trkpt lat="48.63529" lon="2.05038">
        <ele>161.2</ele>
        <time>2023-03-05T15:25:09Z</time>
      </trkpt>
      <trkpt lat="48.63528" lon="2.05031">
        <ele>161</ele>
        <time>2023-03-05T15:25:10Z</time>
      </trkpt>
      <trkpt lat="48.63527" lon="2.05024">
        <ele>160.8</ele>
        <time>2023-03-05T15:25:11Z</time>
      </trkpt>
      <trkpt lat="48.63526" lon="2.05018">
        <ele>160.6</ele>
        <time>2023-03-05T15:25:12Z</time>
      </trkpt>
      <trkpt lat="48.63525" lon="2.05012">
        <ele>160.6</ele>
        <time>2023-03-05T15:25:13Z</time>
      </trkpt>
      <trkpt lat="48.63524" lon="2.05006">
        <ele>160.4</ele>
        <time>2023-03-05T15:25:14Z</time>
      </trkpt>
      <trkpt lat="48.63522" lon="2.05">
        <ele>160.4</ele>
        <time>2023-03-05T15:25:15Z</time>
      </trkpt>
      <trkpt lat="48.63521" lon="2.04993">
        <ele>160.2</ele>
        <time>2023-03-05T15:25:16Z</time>
      </trkpt>
      <trkpt lat="48.63518" lon="2.04985">
        <ele>160.2</ele>
        <time>2023-03-05T15:25:17Z</time>
      </trkpt>
      <trkpt lat="48.63516" lon="2.04978">
        <ele>160.2</ele>
        <time>2023-03-05T15:25:18Z</time>
      </trkpt>
      <trkpt lat="48.63514" lon="2.04969">
        <ele>160</ele>
        <time>2023-03-05T15:25:19Z</time>
      </trkpt>
      <trkpt lat="48.63511" lon="2.04961">
        <ele>160</ele>
        <time>2023-03-05T15:25:20Z</time>
      </trkpt>
      <trkpt lat="48.63508" lon="2.04952">
        <ele>160</ele>
        <time>2023-03-05T15:25:21Z</time>
      </trkpt>
      <trkpt lat="48.63506" lon="2.04943">
        <ele>159.8</ele>
        <time>2023-03-05T15:25:22Z</time>
      </trkpt>
      <trkpt lat="48.63504" lon="2.04934">
        <ele>159.8</ele>
        <time>2023-03-05T15:25:23Z</time>
      </trkpt>
      <trkpt lat="48.63501" lon="2.04924">
        <ele>159.6</ele>
        <time>2023-03-05T15:25:24Z</time>
      </trkpt>
      <trkpt lat="48.63499" lon="2.04915">
        <ele>159.6</ele>
        <time>2023-03-05T15:25:25Z</time>
      </trkpt>
      <trkpt lat="48.63496" lon="2.04906">
        <ele>159.4</ele>
        <time>2023-03-05T15:25:26Z</time>
      </trkpt>
      <trkpt lat="48.63494" lon="2.04896">
        <ele>159.4</ele>
        <time>2023-03-05T15:25:27Z</time>
      </trkpt>
      <trkpt lat="48.63492" lon="2.04887">
        <ele>159.2</ele>
        <time>2023-03-05T15:25:28Z</time>
      </trkpt>
      <trkpt lat="48.63489" lon="2.04878">
        <ele>159</ele>
        <time>2023-03-05T15:25:29Z</time>
      </trkpt>
      <trkpt lat="48.63487" lon="2.04869">
        <ele>159</ele>
        <time>2023-03-05T15:25:30Z</time>
      </trkpt>
      <trkpt lat="48.63485" lon="2.0486">
        <ele>158.8</ele>
        <time>2023-03-05T15:25:31Z</time>
      </trkpt>
      <trkpt lat="48.63483" lon="2.04851">
        <ele>158.8</ele>
        <time>2023-03-05T15:25:32Z</time>
      </trkpt>
      <trkpt lat="48.6348" lon="2.04843">
        <ele>158.8</ele>
        <time>2023-03-05T15:25:33Z</time>
      </trkpt>
      <trkpt lat="48.63478" lon="2.04834">
        <ele>158.8</ele>
        <time>2023-03-05T15:25:34Z</time>
      </trkpt>
      <trkpt lat="48.63476" lon="2.04825">
        <ele>158.8</ele>
        <time>2023-03-05T15:25:35Z</time>
      </trkpt>
      <trkpt lat="48.63473" lon="2.04817">
        <ele>158.8</ele>
        <time>2023-03-05T15:25:36Z</time>
      </trkpt>
      <trkpt lat="48.6347" lon="2.04808">
        <ele>158.8</ele>
        <time>2023-03-05T15:25:37Z</time>
      </trkpt>
      <trkpt lat="48.63468" lon="2.048">
        <ele>158.6</ele>
        <time>2023-03-05T15:25:38Z</time>
      </trkpt>
      <trkpt lat="48.63466" lon="2.04792">
        <ele>158.6</ele>
        <time>2023-03-05T15:25:39Z</time>
      </trkpt>
      <trkpt lat="48.63464" lon="2.04784">
        <ele>158.6</ele>
        <time>2023-03-05T15:25:40Z</time>
      </trkpt>
      <trkpt lat="48.63462" lon="2.04776">
        <ele>158.6</ele>
        <time>2023-03-05T15:25:41Z</time>
      </trkpt>
      <trkpt lat="48.6346" lon="2.0477">
        <ele>158.4</ele>
        <time>2023-03-05T15:25:42Z</time>
      </trkpt>
      <trkpt lat="48.63458" lon="2.04764">
        <ele>158.4</ele>
        <time>2023-03-05T15:25:43Z</time>
      </trkpt>
      <trkpt lat="48.63457" lon="2.04758">
        <ele>158.2</ele>
        <time>2023-03-05T15:25:44Z</time>
      </trkpt>
      <trkpt lat="48.63455" lon="2.04753">
        <ele>158.2</ele>
        <time>2023-03-05T15:25:45Z</time>
      </trkpt>
      <trkpt lat="48.63454" lon="2.04748">
        <ele>158.2</ele>
        <time>2023-03-05T15:25:46Z</time>
      </trkpt>
      <trkpt lat="48.63453" lon="2.04744">
        <ele>158</ele>
        <time>2023-03-05T15:25:47Z</time>
      </trkpt>
      <trkpt lat="48.63452" lon="2.04741">
        <ele>158</ele>
        <time>2023-03-05T15:25:48Z</time>
      </trkpt>
      <trkpt lat="48.63452" lon="2.04738">
        <ele>157.8</ele>
        <time>2023-03-05T15:25:49Z</time>
      </trkpt>
      <trkpt lat="48.6345" lon="2.04735">
        <ele>157.8</ele>
        <time>2023-03-05T15:25:50Z</time>
      </trkpt>
      <trkpt lat="48.63449" lon="2.04731">
        <ele>157.6</ele>
        <time>2023-03-05T15:25:51Z</time>
      </trkpt>
      <trkpt lat="48.63448" lon="2.04728">
        <ele>157.4</ele>
        <time>2023-03-05T15:25:52Z</time>
      </trkpt>
      <trkpt lat="48.63446" lon="2.04725">
        <ele>157.4</ele>
        <time>2023-03-05T15:25:53Z</time>
      </trkpt>
      <trkpt lat="48.63444" lon="2.04723">
        <ele>157.2</ele>
        <time>2023-03-05T15:25:54Z</time>
      </trkpt>
      <trkpt lat="48.63443" lon="2.0472">
        <ele>157</ele>
        <time>2023-03-05T15:25:55Z</time>
      </trkpt>
      <trkpt lat="48.63442" lon="2.04717">
        <ele>157</ele>
        <time>2023-03-05T15:25:56Z</time>
      </trkpt>
      <trkpt lat="48.6344" lon="2.04714">
        <ele>157</ele>
        <time>2023-03-05T15:25:57Z</time>
      </trkpt>
      <trkpt lat="48.63439" lon="2.04711">
        <ele>156.8</ele>
        <time>2023-03-05T15:25:58Z</time>
      </trkpt>
      <trkpt lat="48.63437" lon="2.04707">
        <ele>156.8</ele>
        <time>2023-03-05T15:26:00Z</time>
      </trkpt>
      <trkpt lat="48.63436" lon="2.04703">
        <ele>156.6</ele>
        <time>2023-03-05T15:26:02Z</time>
      </trkpt>
      <trkpt lat="48.63435" lon="2.04699">
        <ele>156.2</ele>
        <time>2023-03-05T15:26:04Z</time>
      </trkpt>
      <trkpt lat="48.63434" lon="2.04695">
        <ele>156.2</ele>
        <time>2023-03-05T15:26:06Z</time>
      </trkpt>
      <trkpt lat="48.63432" lon="2.04692">
        <ele>156</ele>
        <time>2023-03-05T15:26:08Z</time>
      </trkpt>
      <trkpt lat="48.63431" lon="2.04688">
        <ele>155.8</ele>
        <time>2023-03-05T15:26:10Z</time>
      </trkpt>
      <trkpt lat="48.63429" lon="2.04684">
        <ele>155.8</ele>
        <time>2023-03-05T15:26:12Z</time>
      </trkpt>
      <trkpt lat="48.63427" lon="2.0468">
        <ele>155.8</ele>
        <time>2023-03-05T15:26:14Z</time>
      </trkpt>
      <trkpt lat="48.63426" lon="2.04676">
        <ele>155.6</ele>
        <time>2023-03-05T15:26:16Z</time>
      </trkpt>
      <trkpt lat="48.63424" lon="2.04673">
        <ele>155.4</ele>
        <time>2023-03-05T15:26:18Z</time>
      </trkpt>
      <trkpt lat="48.63423" lon="2.0467">
        <ele>155.4</ele>
        <time>2023-03-05T15:26:20Z</time>
      </trkpt>
      <trkpt lat="48.63421" lon="2.04667">
        <ele>155.2</ele>
        <time>2023-03-05T15:26:22Z</time>
      </trkpt>
      <trkpt lat="48.6342" lon="2.04664">
        <ele>155</ele>
        <time>2023-03-05T15:26:24Z</time>
      </trkpt>
      <trkpt lat="48.63418" lon="2.04661">
        <ele>155</ele>
        <time>2023-03-05T15:26:26Z</time>
      </trkpt>
      <trkpt lat="48.63416" lon="2.04657">
        <ele>155</ele>
        <time>2023-03-05T15:26:28Z</time>
      </trkpt>
      <trkpt lat="48.63415" lon="2.04653">
        <ele>155.2</ele>
        <time>2023-03-05T15:26:30Z</time>
      </trkpt>
      <trkpt lat="48.63413" lon="2.0465">
        <ele>155.2</ele>
        <time>2023-03-05T15:26:32Z</time>
      </trkpt>
      <trkpt lat="48.63411" lon="2.04647">
        <ele>155.2</ele>
        <time>2023-03-05T15:26:34Z</time>
      </trkpt>
      <trkpt lat="48.63409" lon="2.04644">
        <ele>155</ele>
        <time>2023-03-05T15:26:36Z</time>
      </trkpt>
      <trkpt lat="48.63407" lon="2.0464">
        <ele>155</ele>
        <time>2023-03-05T15:26:38Z</time>
      </trkpt>
      <trkpt lat="48.63406" lon="2.04636">
        <ele>155</ele>
        <time>2023-03-05T15:26:40Z</time>
      </trkpt>
      <trkpt lat="48.63404" lon="2.04633">
        <ele>155</ele>
        <time>2023-03-05T15:26:42Z</time>
      </trkpt>
      <trkpt lat="48.63401" lon="2.04629">
        <ele>155</ele>
        <time>2023-03-05T15:26:44Z</time>
      </trkpt>
      <trkpt lat="48.63399" lon="2.04625">
        <ele>155.2</ele>
        <time>2023-03-05T15:26:46Z</time>
      </trkpt>
      <trkpt lat="48.63397" lon="2.04621">
        <ele>155.2</ele>
        <time>2023-03-05T15:26:48Z</time>
      </trkpt>
      <trkpt lat="48.63396" lon="2.04617">
        <ele>155.2</ele>
        <time>2023-03-05T15:26:50Z</time>
      </trkpt>
      <trkpt lat="48.63394" lon="2.04613">
        <ele>155.2</ele>
        <time>2023-03-05T15:26:52Z</time>
      </trkpt>
      <trkpt lat="48.63392" lon="2.0461">
        <ele>155.2</ele>
        <time>2023-03-05T15:26:54Z</time>
      </trkpt>
      <trkpt lat="48.6339" lon="2.04606">
        <ele>155.4</ele>
        <time>2023-03-05T15:26:56Z</time>
      </trkpt>
      <trkpt lat="48.63389" lon="2.04603">
        <ele>155.4</ele>
        <time>2023-03-05T15:26:58Z</time>
      </trkpt>
      <trkpt lat="48.63387" lon="2.04599">
        <ele>155.4</ele>
        <time>2023-03-05T15:27:00Z</time>
      </trkpt>
      <trkpt lat="48.63385" lon="2.04595">
        <ele>155.4</ele>
        <time>2023-03-05T15:27:02Z</time>
      </trkpt>
      <trkpt lat="48.63383" lon="2.04592">
        <ele>155.4</ele>
        <time>2023-03-05T15:27:04Z</time>
      </trkpt>
      <trkpt lat="48.63381" lon="2.04589">
        <ele>155.4</ele>
        <time>2023-03-05T15:27:06Z</time>
      </trkpt>
      <trkpt lat="48.6338" lon="2.04586">
        <ele>155.6</ele>
        <time>2023-03-05T15:27:08Z</time>
      </trkpt>
      <trkpt lat="48.63379" lon="2.04583">
        <ele>155.6</ele>
        <time>2023-03-05T15:27:10Z</time>
      </trkpt>
      <trkpt lat="48.63377" lon="2.04579">
        <ele>155.4</ele>
        <time>2023-03-05T15:27:12Z</time>
      </trkpt>
      <trkpt lat="48.63375" lon="2.04576">
        <ele>155.4</ele>
        <time>2023-03-05T15:27:14Z</time>
      </trkpt>
      <trkpt lat="48.63373" lon="2.04573">
        <ele>155.2</ele>
        <time>2023-03-05T15:27:16Z</time>
      </trkpt>
      <trkpt lat="48.63372" lon="2.0457">
        <ele>155.2</ele>
        <time>2023-03-05T15:27:18Z</time>
      </trkpt>
      <trkpt lat="48.6337" lon="2.04567">
        <ele>155.2</ele>
        <time>2023-03-05T15:27:20Z</time>
      </trkpt>
      <trkpt lat="48.63368" lon="2.04565">
        <ele>155.2</ele>
        <time>2023-03-05T15:27:22Z</time>
      </trkpt>
      <trkpt lat="48.63366" lon="2.04562">
        <ele>155</ele>
        <time>2023-03-05T15:27:24Z</time>
      </trkpt>
      <trkpt lat="48.63365" lon="2.04559">
        <ele>155</ele>
        <time>2023-03-05T15:27:26Z</time>
      </trkpt>
      <trkpt lat="48.63363" lon="2.04557">
        <ele>155</ele>
        <time>2023-03-05T15:27:28Z</time>
      </trkpt>
      <trkpt lat="48.63362" lon="2.04554">
        <ele>155</ele>
        <time>2023-03-05T15:27:30Z</time>
      </trkpt>
      <trkpt lat="48.6336" lon="2.04551">
        <ele>154.8</ele>
        <time>2023-03-05T15:27:32Z</time>
      </trkpt>
      <trkpt lat="48.63358" lon="2.04548">
        <ele>154.8</ele>
        <time>2023-03-05T15:27:34Z</time>
      </trkpt>
      <trkpt lat="48.63356" lon="2.04545">
        <ele>154.6</ele>
        <time>2023-03-05T15:27:36Z</time>
      </trkpt>
      <trkpt lat="48.63355" lon="2.04542">
        <ele>154.6</ele>
        <time>2023-03-05T15:27:38Z</time>
      </trkpt>
      <trkpt lat="48.63353" lon="2.04539">
        <ele>154.6</ele>
        <time>2023-03-05T15:27:40Z</time>
      </trkpt>
      <trkpt lat="48.63351" lon="2.04535">
        <ele>154.6</ele>
        <time>2023-03-05T15:27:42Z</time>
      </trkpt>
      <trkpt lat="48.63348" lon="2.04531">
        <ele>154.6</ele>
        <time>2023-03-05T15:27:44Z</time>
      </trkpt>
      <trkpt lat="48.63347" lon="2.04529">
        <ele>154.4</ele>
        <time>2023-03-05T15:27:45Z</time>
      </trkpt>
      <trkpt lat="48.63345" lon="2.04525">
        <ele>154.4</ele>
        <time>2023-03-05T15:27:47Z</time>
      </trkpt>
      <trkpt lat="48.63343" lon="2.04522">
        <ele>154.2</ele>
        <time>2023-03-05T15:27:49Z</time>
      </trkpt>
      <trkpt lat="48.63341" lon="2.04518">
        <ele>154</ele>
        <time>2023-03-05T15:27:51Z</time>
      </trkpt>
      <trkpt lat="48.63339" lon="2.04515">
        <ele>154</ele>
        <time>2023-03-05T15:27:53Z</time>
      </trkpt>
      <trkpt lat="48.63337" lon="2.04512">
        <ele>154</ele>
        <time>2023-03-05T15:27:55Z</time>
      </trkpt>
      <trkpt lat="48.63335" lon="2.04508">
        <ele>153.8</ele>
        <time>2023-03-05T15:27:57Z</time>
      </trkpt>
      <trkpt lat="48.63332" lon="2.04505">
        <ele>153.6</ele>
        <time>2023-03-05T15:27:59Z</time>
      </trkpt>
      <trkpt lat="48.63331" lon="2.04503">
        <ele>153.6</ele>
        <time>2023-03-05T15:28:00Z</time>
      </trkpt>
      <trkpt lat="48.63329" lon="2.04499">
        <ele>153.6</ele>
        <time>2023-03-05T15:28:02Z</time>
      </trkpt>
      <trkpt lat="48.63327" lon="2.04496">
        <ele>153.4</ele>
        <time>2023-03-05T15:28:04Z</time>
      </trkpt>
      <trkpt lat="48.63324" lon="2.04493">
        <ele>153.4</ele>
        <time>2023-03-05T15:28:06Z</time>
      </trkpt>
      <trkpt lat="48.63322" lon="2.0449">
        <ele>153.4</ele>
        <time>2023-03-05T15:28:08Z</time>
      </trkpt>
      <trkpt lat="48.63319" lon="2.04487">
        <ele>153.2</ele>
        <time>2023-03-05T15:28:10Z</time>
      </trkpt>
      <trkpt lat="48.63318" lon="2.04485">
        <ele>153.2</ele>
        <time>2023-03-05T15:28:11Z</time>
      </trkpt>
      <trkpt lat="48.63316" lon="2.04482">
        <ele>153.2</ele>
        <time>2023-03-05T15:28:13Z</time>
      </trkpt>
      <trkpt lat="48.63313" lon="2.04479">
        <ele>153.2</ele>
        <time>2023-03-05T15:28:15Z</time>
      </trkpt>
      <trkpt lat="48.63311" lon="2.04476">
        <ele>153.2</ele>
        <time>2023-03-05T15:28:17Z</time>
      </trkpt>
      <trkpt lat="48.63308" lon="2.04475">
        <ele>153.2</ele>
        <time>2023-03-05T15:28:19Z</time>
      </trkpt>
      <trkpt lat="48.63306" lon="2.04473">
        <ele>153</ele>
        <time>2023-03-05T15:28:21Z</time>
      </trkpt>
      <trkpt lat="48.63303" lon="2.04471">
        <ele>152.8</ele>
        <time>2023-03-05T15:28:23Z</time>
      </trkpt>
      <trkpt lat="48.63302" lon="2.0447">
        <ele>152.8</ele>
        <time>2023-03-05T15:28:24Z</time>
      </trkpt>
      <trkpt lat="48.633" lon="2.04466">
        <ele>152.6</ele>
        <time>2023-03-05T15:28:26Z</time>
      </trkpt>
      <trkpt lat="48.63297" lon="2.04463">
        <ele>152.6</ele>
        <time>2023-03-05T15:28:28Z</time>
      </trkpt>
      <trkpt lat="48.63295" lon="2.0446">
        <ele>152.4</ele>
        <time>2023-03-05T15:28:30Z</time>
      </trkpt>
      <trkpt lat="48.63292" lon="2.04458">
        <ele>152.2</ele>
        <time>2023-03-05T15:28:32Z</time>
      </trkpt>
      <trkpt lat="48.6329" lon="2.04456">
        <ele>152</ele>
        <time>2023-03-05T15:28:34Z</time>
      </trkpt>
      <trkpt lat="48.63287" lon="2.04455">
        <ele>151.8</ele>
        <time>2023-03-05T15:28:36Z</time>
      </trkpt>
      <trkpt lat="48.63284" lon="2.04454">
        <ele>151.6</ele>
        <time>2023-03-05T15:28:38Z</time>
      </trkpt>
      <trkpt lat="48.63281" lon="2.04453">
        <ele>151.4</ele>
        <time>2023-03-05T15:28:40Z</time>
      </trkpt>
      <trkpt lat="48.63278" lon="2.04452">
        <ele>151.2</ele>
        <time>2023-03-05T15:28:42Z</time>
      </trkpt>
      <trkpt lat="48.63276" lon="2.0445">
        <ele>151</ele>
        <time>2023-03-05T15:28:44Z</time>
      </trkpt>
      <trkpt lat="48.63273" lon="2.04447">
        <ele>151</ele>
        <time>2023-03-05T15:28:46Z</time>
      </trkpt>
      <trkpt lat="48.63271" lon="2.04444">
        <ele>150.8</ele>
        <time>2023-03-05T15:28:48Z</time>
      </trkpt>
      <trkpt lat="48.63269" lon="2.04443">
        <ele>150.8</ele>
        <time>2023-03-05T15:28:49Z</time>
      </trkpt>
      <trkpt lat="48.63266" lon="2.04439">
        <ele>150.8</ele>
        <time>2023-03-05T15:28:51Z</time>
      </trkpt>
      <trkpt lat="48.63264" lon="2.04437">
        <ele>150.6</ele>
        <time>2023-03-05T15:28:53Z</time>
      </trkpt>
      <trkpt lat="48.63262" lon="2.04435">
        <ele>150.6</ele>
        <time>2023-03-05T15:28:54Z</time>
      </trkpt>
      <trkpt lat="48.6326" lon="2.04433">
        <ele>150.6</ele>
        <time>2023-03-05T15:28:56Z</time>
      </trkpt>
      <trkpt lat="48.63257" lon="2.0443">
        <ele>150.6</ele>
        <time>2023-03-05T15:28:58Z</time>
      </trkpt>
      <trkpt lat="48.63255" lon="2.04429">
        <ele>150.6</ele>
        <time>2023-03-05T15:28:59Z</time>
      </trkpt>
      <trkpt lat="48.63252" lon="2.04426">
        <ele>150.6</ele>
        <time>2023-03-05T15:29:01Z</time>
      </trkpt>
      <trkpt lat="48.6325" lon="2.04423">
        <ele>150.6</ele>
        <time>2023-03-05T15:29:03Z</time>
      </trkpt>
      <trkpt lat="48.63248" lon="2.04421">
        <ele>150.6</ele>
        <time>2023-03-05T15:29:05Z</time>
      </trkpt>
      <trkpt lat="48.63246" lon="2.04419">
        <ele>150.6</ele>
        <time>2023-03-05T15:29:06Z</time>
      </trkpt>
      <trkpt lat="48.63244" lon="2.04417">
        <ele>150.6</ele>
        <time>2023-03-05T15:29:08Z</time>
      </trkpt>
      <trkpt lat="48.63241" lon="2.04414">
        <ele>150.6</ele>
        <time>2023-03-05T15:29:10Z</time>
      </trkpt>
      <trkpt lat="48.63238" lon="2.04412">
        <ele>150.4</ele>
        <time>2023-03-05T15:29:12Z</time>
      </trkpt>
      <trkpt lat="48.63236" lon="2.04409">
        <ele>150.6</ele>
        <time>2023-03-05T15:29:14Z</time>
      </trkpt>
      <trkpt lat="48.63233" lon="2.04407">
        <ele>150.6</ele>
        <time>2023-03-05T15:29:16Z</time>
      </trkpt>
      <trkpt lat="48.6323" lon="2.04405">
        <ele>150.8</ele>
        <time>2023-03-05T15:29:18Z</time>
      </trkpt>
      <trkpt lat="48.63227" lon="2.04402">
        <ele>151</ele>
        <time>2023-03-05T15:29:20Z</time>
      </trkpt>
      <trkpt lat="48.63224" lon="2.044">
        <ele>151.2</ele>
        <time>2023-03-05T15:29:22Z</time>
      </trkpt>
      <trkpt lat="48.63221" lon="2.04398">
        <ele>151.2</ele>
        <time>2023-03-05T15:29:24Z</time>
      </trkpt>
      <trkpt lat="48.63219" lon="2.04395">
        <ele>151.2</ele>
        <time>2023-03-05T15:29:26Z</time>
      </trkpt>
      <trkpt lat="48.63216" lon="2.04393">
        <ele>151.2</ele>
        <time>2023-03-05T15:29:28Z</time>
      </trkpt>
      <trkpt lat="48.63214" lon="2.04391">
        <ele>151.2</ele>
        <time>2023-03-05T15:29:30Z</time>
      </trkpt>
      <trkpt lat="48.63212" lon="2.04389">
        <ele>151.2</ele>
        <time>2023-03-05T15:29:32Z</time>
      </trkpt>
      <trkpt lat="48.63209" lon="2.04387">
        <ele>151.2</ele>
        <time>2023-03-05T15:29:34Z</time>
      </trkpt>
      <trkpt lat="48.63206" lon="2.04385">
        <ele>151.4</ele>
        <time>2023-03-05T15:29:36Z</time>
      </trkpt>
      <trkpt lat="48.63204" lon="2.04382">
        <ele>151.6</ele>
        <time>2023-03-05T15:29:38Z</time>
      </trkpt>
      <trkpt lat="48.63202" lon="2.0438">
        <ele>151.8</ele>
        <time>2023-03-05T15:29:40Z</time>
      </trkpt>
      <trkpt lat="48.63199" lon="2.04377">
        <ele>152</ele>
        <time>2023-03-05T15:29:42Z</time>
      </trkpt>
      <trkpt lat="48.63197" lon="2.04375">
        <ele>152.2</ele>
        <time>2023-03-05T15:29:44Z</time>
      </trkpt>
      <trkpt lat="48.63195" lon="2.04373">
        <ele>152.2</ele>
        <time>2023-03-05T15:29:46Z</time>
      </trkpt>
      <trkpt lat="48.63192" lon="2.04371">
        <ele>152.4</ele>
        <time>2023-03-05T15:29:48Z</time>
      </trkpt>
      <trkpt lat="48.6319" lon="2.04368">
        <ele>152.4</ele>
        <time>2023-03-05T15:29:50Z</time>
      </trkpt>
      <trkpt lat="48.63188" lon="2.04366">
        <ele>152.6</ele>
        <time>2023-03-05T15:29:52Z</time>
      </trkpt>
      <trkpt lat="48.63186" lon="2.04363">
        <ele>152.6</ele>
        <time>2023-03-05T15:29:54Z</time>
      </trkpt>
      <trkpt lat="48.63183" lon="2.04361">
        <ele>152.8</ele>
        <time>2023-03-05T15:29:56Z</time>
      </trkpt>
      <trkpt lat="48.63181" lon="2.04358">
        <ele>153</ele>
        <time>2023-03-05T15:29:58Z</time>
      </trkpt>
      <trkpt lat="48.63179" lon="2.04356">
        <ele>153.2</ele>
        <time>2023-03-05T15:30:00Z</time>
      </trkpt>
      <trkpt lat="48.63176" lon="2.04355">
        <ele>153.4</ele>
        <time>2023-03-05T15:30:02Z</time>
      </trkpt>
      <trkpt lat="48.63174" lon="2.04352">
        <ele>153.6</ele>
        <time>2023-03-05T15:30:04Z</time>
      </trkpt>
      <trkpt lat="48.63172" lon="2.0435">
        <ele>154</ele>
        <time>2023-03-05T15:30:06Z</time>
      </trkpt>
      <trkpt lat="48.6317" lon="2.04348">
        <ele>154.2</ele>
        <time>2023-03-05T15:30:08Z</time>
      </trkpt>
      <trkpt lat="48.63168" lon="2.04345">
        <ele>154.4</ele>
        <time>2023-03-05T15:30:10Z</time>
      </trkpt>
      <trkpt lat="48.63165" lon="2.04343">
        <ele>154.4</ele>
        <time>2023-03-05T15:30:12Z</time>
      </trkpt>
      <trkpt lat="48.63163" lon="2.04341">
        <ele>154.6</ele>
        <time>2023-03-05T15:30:14Z</time>
      </trkpt>
      <trkpt lat="48.6316" lon="2.04339">
        <ele>154.6</ele>
        <time>2023-03-05T15:30:16Z</time>
      </trkpt>
      <trkpt lat="48.63158" lon="2.04337">
        <ele>154.6</ele>
        <time>2023-03-05T15:30:18Z</time>
      </trkpt>
      <trkpt lat="48.63156" lon="2.04335">
        <ele>154.6</ele>
        <time>2023-03-05T15:30:20Z</time>
      </trkpt>
      <trkpt lat="48.63154" lon="2.04333">
        <ele>154.6</ele>
        <time>2023-03-05T15:30:22Z</time>
      </trkpt>
      <trkpt lat="48.63151" lon="2.04331">
        <ele>154.6</ele>
        <time>2023-03-05T15:30:24Z</time>
      </trkpt>
      <trkpt lat="48.63149" lon="2.04329">
        <ele>154.6</ele>
        <time>2023-03-05T15:30:26Z</time>
      </trkpt>
      <trkpt lat="48.63147" lon="2.04327">
        <ele>154.8</ele>
        <time>2023-03-05T15:30:28Z</time>
      </trkpt>
      <trkpt lat="48.63144" lon="2.04324">
        <ele>154.8</ele>
        <time>2023-03-05T15:30:30Z</time>
      </trkpt>
      <trkpt lat="48.63142" lon="2.04322">
        <ele>154.8</ele>
        <time>2023-03-05T15:30:32Z</time>
      </trkpt>
      <trkpt lat="48.6314" lon="2.0432">
        <ele>154.8</ele>
        <time>2023-03-05T15:30:34Z</time>
      </trkpt>
      <trkpt lat="48.63138" lon="2.04317">
        <ele>154.8</ele>
        <time>2023-03-05T15:30:36Z</time>
      </trkpt>
      <trkpt lat="48.63136" lon="2.04315">
        <ele>154.8</ele>
        <time>2023-03-05T15:30:38Z</time>
      </trkpt>
      <trkpt lat="48.63134" lon="2.04312">
        <ele>154.8</ele>
        <time>2023-03-05T15:30:40Z</time>
      </trkpt>
      <trkpt lat="48.63131" lon="2.0431">
        <ele>154.8</ele>
        <time>2023-03-05T15:30:42Z</time>
      </trkpt>
      <trkpt lat="48.63129" lon="2.04307">
        <ele>155</ele>
        <time>2023-03-05T15:30:44Z</time>
      </trkpt>
      <trkpt lat="48.63127" lon="2.04305">
        <ele>155</ele>
        <time>2023-03-05T15:30:46Z</time>
      </trkpt>
      <trkpt lat="48.63125" lon="2.04302">
        <ele>155</ele>
        <time>2023-03-05T15:30:48Z</time>
      </trkpt>
      <trkpt lat="48.63123" lon="2.043">
        <ele>155</ele>
        <time>2023-03-05T15:30:50Z</time>
      </trkpt>
      <trkpt lat="48.63121" lon="2.04297">
        <ele>155.2</ele>
        <time>2023-03-05T15:30:52Z</time>
      </trkpt>
      <trkpt lat="48.63119" lon="2.04294">
        <ele>155.4</ele>
        <time>2023-03-05T15:30:54Z</time>
      </trkpt>
      <trkpt lat="48.63116" lon="2.04291">
        <ele>155.4</ele>
        <time>2023-03-05T15:30:56Z</time>
      </trkpt>
      <trkpt lat="48.63115" lon="2.0429">
        <ele>155.6</ele>
        <time>2023-03-05T15:30:57Z</time>
      </trkpt>
      <trkpt lat="48.63113" lon="2.04287">
        <ele>155.6</ele>
        <time>2023-03-05T15:30:59Z</time>
      </trkpt>
      <trkpt lat="48.63111" lon="2.04285">
        <ele>155.6</ele>
        <time>2023-03-05T15:31:01Z</time>
      </trkpt>
      <trkpt lat="48.63108" lon="2.04282">
        <ele>155.6</ele>
        <time>2023-03-05T15:31:03Z</time>
      </trkpt>
      <trkpt lat="48.63106" lon="2.0428">
        <ele>155.4</ele>
        <time>2023-03-05T15:31:05Z</time>
      </trkpt>
      <trkpt lat="48.63104" lon="2.04277">
        <ele>155.4</ele>
        <time>2023-03-05T15:31:07Z</time>
      </trkpt>
      <trkpt lat="48.63102" lon="2.04274">
        <ele>155.4</ele>
        <time>2023-03-05T15:31:09Z</time>
      </trkpt>
      <trkpt lat="48.631" lon="2.04272">
        <ele>155.4</ele>
        <time>2023-03-05T15:31:11Z</time>
      </trkpt>
      <trkpt lat="48.63097" lon="2.0427">
        <ele>155.4</ele>
        <time>2023-03-05T15:31:13Z</time>
      </trkpt>
      <trkpt lat="48.63095" lon="2.04268">
        <ele>155.6</ele>
        <time>2023-03-05T15:31:15Z</time>
      </trkpt>
      <trkpt lat="48.63093" lon="2.04266">
        <ele>155.6</ele>
        <time>2023-03-05T15:31:20Z</time>
      </trkpt>
      <trkpt lat="48.63091" lon="2.04264">
        <ele>155.2</ele>
        <time>2023-03-05T15:31:47Z</time>
      </trkpt>
      <trkpt lat="48.63089" lon="2.04262">
        <ele>155.2</ele>
        <time>2023-03-05T15:31:49Z</time>
      </trkpt>
      <trkpt lat="48.63087" lon="2.04259">
        <ele>155.2</ele>
        <time>2023-03-05T15:31:51Z</time>
      </trkpt>
      <trkpt lat="48.63084" lon="2.04255">
        <ele>155.2</ele>
        <time>2023-03-05T15:31:53Z</time>
      </trkpt>
      <trkpt lat="48.63083" lon="2.04254">
        <ele>155</ele>
        <time>2023-03-05T15:31:54Z</time>
      </trkpt>
      <trkpt lat="48.63081" lon="2.04252">
        <ele>155</ele>
        <time>2023-03-05T15:31:55Z</time>
      </trkpt>
      <trkpt lat="48.63079" lon="2.04249">
        <ele>155</ele>
        <time>2023-03-05T15:31:57Z</time>
      </trkpt>
      <trkpt lat="48.63077" lon="2.04247">
        <ele>154.8</ele>
        <time>2023-03-05T15:31:59Z</time>
      </trkpt>
      <trkpt lat="48.63076" lon="2.04244">
        <ele>154.8</ele>
        <time>2023-03-05T15:32:01Z</time>
      </trkpt>
      <trkpt lat="48.63075" lon="2.04242">
        <ele>154.8</ele>
        <time>2023-03-05T15:32:03Z</time>
      </trkpt>
      <trkpt lat="48.63073" lon="2.04239">
        <ele>154.8</ele>
        <time>2023-03-05T15:32:05Z</time>
      </trkpt>
      <trkpt lat="48.63071" lon="2.04238">
        <ele>154.8</ele>
        <time>2023-03-05T15:32:07Z</time>
      </trkpt>
      <trkpt lat="48.63068" lon="2.04237">
        <ele>154.8</ele>
        <time>2023-03-05T15:32:09Z</time>
      </trkpt>
      <trkpt lat="48.63066" lon="2.04236">
        <ele>154.8</ele>
        <time>2023-03-05T15:32:11Z</time>
      </trkpt>
      <trkpt lat="48.63064" lon="2.04237">
        <ele>154.8</ele>
        <time>2023-03-05T15:32:13Z</time>
      </trkpt>
      <trkpt lat="48.63062" lon="2.04239">
        <ele>154.6</ele>
        <time>2023-03-05T15:32:16Z</time>
      </trkpt>
      <trkpt lat="48.63061" lon="2.04243">
        <ele>154.6</ele>
        <time>2023-03-05T15:32:19Z</time>
      </trkpt>
      <trkpt lat="48.63061" lon="2.04246">
        <ele>154.6</ele>
        <time>2023-03-05T15:32:21Z</time>
      </trkpt>
      <trkpt lat="48.6306" lon="2.04249">
        <ele>154.6</ele>
        <time>2023-03-05T15:32:23Z</time>
      </trkpt>
      <trkpt lat="48.63059" lon="2.04252">
        <ele>154.4</ele>
        <time>2023-03-05T15:32:25Z</time>
      </trkpt>
      <trkpt lat="48.63058" lon="2.04256">
        <ele>154.4</ele>
        <time>2023-03-05T15:32:27Z</time>
      </trkpt>
      <trkpt lat="48.63057" lon="2.04259">
        <ele>154.4</ele>
        <time>2023-03-05T15:32:29Z</time>
      </trkpt>
      <trkpt lat="48.63055" lon="2.04262">
        <ele>154.6</ele>
        <time>2023-03-05T15:32:31Z</time>
      </trkpt>
      <trkpt lat="48.63054" lon="2.04266">
        <ele>154.6</ele>
        <time>2023-03-05T15:32:33Z</time>
      </trkpt>
      <trkpt lat="48.63052" lon="2.0427">
        <ele>154.8</ele>
        <time>2023-03-05T15:32:35Z</time>
      </trkpt>
      <trkpt lat="48.63051" lon="2.04274">
        <ele>154.8</ele>
        <time>2023-03-05T15:32:37Z</time>
      </trkpt>
      <trkpt lat="48.63049" lon="2.04277">
        <ele>154.8</ele>
        <time>2023-03-05T15:32:39Z</time>
      </trkpt>
      <trkpt lat="48.63047" lon="2.0428">
        <ele>154.8</ele>
        <time>2023-03-05T15:32:41Z</time>
      </trkpt>
      <trkpt lat="48.63046" lon="2.04284">
        <ele>154.6</ele>
        <time>2023-03-05T15:32:43Z</time>
      </trkpt>
      <trkpt lat="48.63044" lon="2.04286">
        <ele>154.6</ele>
        <time>2023-03-05T15:32:45Z</time>
      </trkpt>
      <trkpt lat="48.63043" lon="2.04289">
        <ele>154.4</ele>
        <time>2023-03-05T15:32:47Z</time>
      </trkpt>
      <trkpt lat="48.63041" lon="2.04292">
        <ele>154.4</ele>
        <time>2023-03-05T15:32:49Z</time>
      </trkpt>
      <trkpt lat="48.63039" lon="2.04295">
        <ele>154.4</ele>
        <time>2023-03-05T15:32:51Z</time>
      </trkpt>
      <trkpt lat="48.63037" lon="2.04299">
        <ele>154.4</ele>
        <time>2023-03-05T15:32:53Z</time>
      </trkpt>
      <trkpt lat="48.63036" lon="2.04303">
        <ele>154.4</ele>
        <time>2023-03-05T15:32:55Z</time>
      </trkpt>
      <trkpt lat="48.63035" lon="2.04307">
        <ele>154.4</ele>
        <time>2023-03-05T15:32:57Z</time>
      </trkpt>
      <trkpt lat="48.63034" lon="2.04311">
        <ele>154.4</ele>
        <time>2023-03-05T15:32:59Z</time>
      </trkpt>
      <trkpt lat="48.63033" lon="2.04314">
        <ele>154.2</ele>
        <time>2023-03-05T15:33:01Z</time>
      </trkpt>
      <trkpt lat="48.63032" lon="2.04318">
        <ele>154.2</ele>
        <time>2023-03-05T15:33:03Z</time>
      </trkpt>
      <trkpt lat="48.6303" lon="2.04321">
        <ele>154.2</ele>
        <time>2023-03-05T15:33:05Z</time>
      </trkpt>
      <trkpt lat="48.63029" lon="2.04324">
        <ele>154.2</ele>
        <time>2023-03-05T15:33:07Z</time>
      </trkpt>
      <trkpt lat="48.63027" lon="2.04327">
        <ele>154.2</ele>
        <time>2023-03-05T15:33:09Z</time>
      </trkpt>
      <trkpt lat="48.63026" lon="2.0433">
        <ele>154.2</ele>
        <time>2023-03-05T15:33:11Z</time>
      </trkpt>
      <trkpt lat="48.63024" lon="2.04334">
        <ele>154.2</ele>
        <time>2023-03-05T15:33:13Z</time>
      </trkpt>
      <trkpt lat="48.63023" lon="2.04338">
        <ele>154.2</ele>
        <time>2023-03-05T15:33:15Z</time>
      </trkpt>
      <trkpt lat="48.63022" lon="2.04342">
        <ele>154</ele>
        <time>2023-03-05T15:33:17Z</time>
      </trkpt>
      <trkpt lat="48.63021" lon="2.04345">
        <ele>154</ele>
        <time>2023-03-05T15:33:19Z</time>
      </trkpt>
      <trkpt lat="48.63019" lon="2.04349">
        <ele>153.8</ele>
        <time>2023-03-05T15:33:21Z</time>
      </trkpt>
      <trkpt lat="48.63018" lon="2.04351">
        <ele>153.8</ele>
        <time>2023-03-05T15:33:22Z</time>
      </trkpt>
      <trkpt lat="48.63016" lon="2.04355">
        <ele>153.6</ele>
        <time>2023-03-05T15:33:24Z</time>
      </trkpt>
      <trkpt lat="48.63015" lon="2.0436">
        <ele>153.6</ele>
        <time>2023-03-05T15:33:26Z</time>
      </trkpt>
      <trkpt lat="48.63013" lon="2.04364">
        <ele>153.2</ele>
        <time>2023-03-05T15:33:28Z</time>
      </trkpt>
      <trkpt lat="48.63012" lon="2.04368">
        <ele>153</ele>
        <time>2023-03-05T15:33:30Z</time>
      </trkpt>
      <trkpt lat="48.6301" lon="2.04372">
        <ele>152.8</ele>
        <time>2023-03-05T15:33:32Z</time>
      </trkpt>
      <trkpt lat="48.63009" lon="2.04376">
        <ele>152.6</ele>
        <time>2023-03-05T15:33:34Z</time>
      </trkpt>
      <trkpt lat="48.63007" lon="2.04378">
        <ele>152.6</ele>
        <time>2023-03-05T15:33:35Z</time>
      </trkpt>
      <trkpt lat="48.63006" lon="2.04382">
        <ele>152.4</ele>
        <time>2023-03-05T15:33:37Z</time>
      </trkpt>
      <trkpt lat="48.63005" lon="2.04386">
        <ele>152.4</ele>
        <time>2023-03-05T15:33:39Z</time>
      </trkpt>
      <trkpt lat="48.63003" lon="2.0439">
        <ele>152.2</ele>
        <time>2023-03-05T15:33:41Z</time>
      </trkpt>
      <trkpt lat="48.63001" lon="2.04394">
        <ele>152</ele>
        <time>2023-03-05T15:33:43Z</time>
      </trkpt>
      <trkpt lat="48.62999" lon="2.04397">
        <ele>151.6</ele>
        <time>2023-03-05T15:33:45Z</time>
      </trkpt>
      <trkpt lat="48.62997" lon="2.04401">
        <ele>151.4</ele>
        <time>2023-03-05T15:33:47Z</time>
      </trkpt>
      <trkpt lat="48.62996" lon="2.04404">
        <ele>151</ele>
        <time>2023-03-05T15:33:49Z</time>
      </trkpt>
      <trkpt lat="48.62994" lon="2.04408">
        <ele>150.8</ele>
        <time>2023-03-05T15:33:51Z</time>
      </trkpt>
      <trkpt lat="48.62992" lon="2.04412">
        <ele>150.6</ele>
        <time>2023-03-05T15:33:53Z</time>
      </trkpt>
      <trkpt lat="48.62989" lon="2.04416">
        <ele>150.4</ele>
        <time>2023-03-05T15:33:55Z</time>
      </trkpt>
      <trkpt lat="48.62988" lon="2.04418">
        <ele>150.2</ele>
        <time>2023-03-05T15:33:56Z</time>
      </trkpt>
      <trkpt lat="48.62986" lon="2.04423">
        <ele>150</ele>
        <time>2023-03-05T15:33:58Z</time>
      </trkpt>
      <trkpt lat="48.62985" lon="2.04427">
        <ele>149.8</ele>
        <time>2023-03-05T15:34:00Z</time>
      </trkpt>
      <trkpt lat="48.62983" lon="2.04431">
        <ele>149.8</ele>
        <time>2023-03-05T15:34:02Z</time>
      </trkpt>
      <trkpt lat="48.62982" lon="2.04435">
        <ele>149.6</ele>
        <time>2023-03-05T15:34:04Z</time>
      </trkpt>
      <trkpt lat="48.6298" lon="2.0444">
        <ele>149.2</ele>
        <time>2023-03-05T15:34:06Z</time>
      </trkpt>
      <trkpt lat="48.62979" lon="2.04444">
        <ele>148.8</ele>
        <time>2023-03-05T15:34:08Z</time>
      </trkpt>
      <trkpt lat="48.62978" lon="2.04448">
        <ele>148.4</ele>
        <time>2023-03-05T15:34:10Z</time>
      </trkpt>
      <trkpt lat="48.62976" lon="2.04452">
        <ele>148</ele>
        <time>2023-03-05T15:34:12Z</time>
      </trkpt>
      <trkpt lat="48.62975" lon="2.04456">
        <ele>147.8</ele>
        <time>2023-03-05T15:34:14Z</time>
      </trkpt>
      <trkpt lat="48.62974" lon="2.0446">
        <ele>147.6</ele>
        <time>2023-03-05T15:34:16Z</time>
      </trkpt>
      <trkpt lat="48.62973" lon="2.04463">
        <ele>147.4</ele>
        <time>2023-03-05T15:34:18Z</time>
      </trkpt>
      <trkpt lat="48.62971" lon="2.04467">
        <ele>147</ele>
        <time>2023-03-05T15:34:20Z</time>
      </trkpt>
      <trkpt lat="48.6297" lon="2.04469">
        <ele>146.8</ele>
        <time>2023-03-05T15:34:21Z</time>
      </trkpt>
      <trkpt lat="48.62968" lon="2.04473">
        <ele>146.6</ele>
        <time>2023-03-05T15:34:23Z</time>
      </trkpt>
      <trkpt lat="48.62966" lon="2.04477">
        <ele>146.4</ele>
        <time>2023-03-05T15:34:25Z</time>
      </trkpt>
      <trkpt lat="48.62965" lon="2.0448">
        <ele>146.2</ele>
        <time>2023-03-05T15:34:27Z</time>
      </trkpt>
      <trkpt lat="48.62963" lon="2.04484">
        <ele>146</ele>
        <time>2023-03-05T15:34:29Z</time>
      </trkpt>
      <trkpt lat="48.62962" lon="2.04489">
        <ele>145.8</ele>
        <time>2023-03-05T15:34:31Z</time>
      </trkpt>
      <trkpt lat="48.6296" lon="2.04491">
        <ele>145.6</ele>
        <time>2023-03-05T15:34:32Z</time>
      </trkpt>
      <trkpt lat="48.62959" lon="2.04495">
        <ele>145.4</ele>
        <time>2023-03-05T15:34:34Z</time>
      </trkpt>
      <trkpt lat="48.62958" lon="2.04498">
        <ele>145.2</ele>
        <time>2023-03-05T15:34:36Z</time>
      </trkpt>
      <trkpt lat="48.62956" lon="2.04502">
        <ele>145</ele>
        <time>2023-03-05T15:34:38Z</time>
      </trkpt>
      <trkpt lat="48.62955" lon="2.04506">
        <ele>144.8</ele>
        <time>2023-03-05T15:34:40Z</time>
      </trkpt>
      <trkpt lat="48.62954" lon="2.04509">
        <ele>144.4</ele>
        <time>2023-03-05T15:34:42Z</time>
      </trkpt>
      <trkpt lat="48.62952" lon="2.04513">
        <ele>144.2</ele>
        <time>2023-03-05T15:34:44Z</time>
      </trkpt>
      <trkpt lat="48.62951" lon="2.04516">
        <ele>143.8</ele>
        <time>2023-03-05T15:34:46Z</time>
      </trkpt>
      <trkpt lat="48.62949" lon="2.0452">
        <ele>143.6</ele>
        <time>2023-03-05T15:34:48Z</time>
      </trkpt>
      <trkpt lat="48.62948" lon="2.04524">
        <ele>143.4</ele>
        <time>2023-03-05T15:34:50Z</time>
      </trkpt>
      <trkpt lat="48.62946" lon="2.04529">
        <ele>143.2</ele>
        <time>2023-03-05T15:34:52Z</time>
      </trkpt>
      <trkpt lat="48.62945" lon="2.04533">
        <ele>143</ele>
        <time>2023-03-05T15:34:54Z</time>
      </trkpt>
      <trkpt lat="48.62943" lon="2.04536">
        <ele>143</ele>
        <time>2023-03-05T15:34:56Z</time>
      </trkpt>
      <trkpt lat="48.62942" lon="2.0454">
        <ele>142.8</ele>
        <time>2023-03-05T15:34:58Z</time>
      </trkpt>
      <trkpt lat="48.62941" lon="2.04543">
        <ele>142.6</ele>
        <time>2023-03-05T15:35:00Z</time>
      </trkpt>
      <trkpt lat="48.6294" lon="2.04546">
        <ele>142.4</ele>
        <time>2023-03-05T15:35:02Z</time>
      </trkpt>
      <trkpt lat="48.62938" lon="2.04549">
        <ele>142.2</ele>
        <time>2023-03-05T15:35:04Z</time>
      </trkpt>
      <trkpt lat="48.62936" lon="2.04553">
        <ele>142</ele>
        <time>2023-03-05T15:35:06Z</time>
      </trkpt>
      <trkpt lat="48.62935" lon="2.04557">
        <ele>141.8</ele>
        <time>2023-03-05T15:35:08Z</time>
      </trkpt>
      <trkpt lat="48.62934" lon="2.04561">
        <ele>141.4</ele>
        <time>2023-03-05T15:35:10Z</time>
      </trkpt>
      <trkpt lat="48.62932" lon="2.04565">
        <ele>141.2</ele>
        <time>2023-03-05T15:35:12Z</time>
      </trkpt>
      <trkpt lat="48.62931" lon="2.04569">
        <ele>141</ele>
        <time>2023-03-05T15:35:14Z</time>
      </trkpt>
      <trkpt lat="48.62929" lon="2.04574">
        <ele>140.6</ele>
        <time>2023-03-05T15:35:16Z</time>
      </trkpt>
      <trkpt lat="48.62928" lon="2.04578">
        <ele>140.2</ele>
        <time>2023-03-05T15:35:18Z</time>
      </trkpt>
      <trkpt lat="48.62926" lon="2.04583">
        <ele>140</ele>
        <time>2023-03-05T15:35:20Z</time>
      </trkpt>
      <trkpt lat="48.62925" lon="2.04587">
        <ele>139.6</ele>
        <time>2023-03-05T15:35:22Z</time>
      </trkpt>
      <trkpt lat="48.62924" lon="2.04592">
        <ele>139.4</ele>
        <time>2023-03-05T15:35:24Z</time>
      </trkpt>
      <trkpt lat="48.62922" lon="2.04596">
        <ele>139.2</ele>
        <time>2023-03-05T15:35:26Z</time>
      </trkpt>
      <trkpt lat="48.6292" lon="2.046">
        <ele>139</ele>
        <time>2023-03-05T15:35:28Z</time>
      </trkpt>
      <trkpt lat="48.62919" lon="2.04605">
        <ele>138.8</ele>
        <time>2023-03-05T15:35:30Z</time>
      </trkpt>
      <trkpt lat="48.62918" lon="2.04609">
        <ele>138.6</ele>
        <time>2023-03-05T15:35:32Z</time>
      </trkpt>
      <trkpt lat="48.62916" lon="2.04613">
        <ele>138.4</ele>
        <time>2023-03-05T15:35:34Z</time>
      </trkpt>
      <trkpt lat="48.62916" lon="2.04617">
        <ele>138.2</ele>
        <time>2023-03-05T15:35:36Z</time>
      </trkpt>
      <trkpt lat="48.62915" lon="2.0462">
        <ele>138</ele>
        <time>2023-03-05T15:35:38Z</time>
      </trkpt>
      <trkpt lat="48.62915" lon="2.04623">
        <ele>137.8</ele>
        <time>2023-03-05T15:35:40Z</time>
      </trkpt>
      <trkpt lat="48.62914" lon="2.04627">
        <ele>137.8</ele>
        <time>2023-03-05T15:35:42Z</time>
      </trkpt>
      <trkpt lat="48.62913" lon="2.04629">
        <ele>137.8</ele>
        <time>2023-03-05T15:35:44Z</time>
      </trkpt>
      <trkpt lat="48.62912" lon="2.04632">
        <ele>137.8</ele>
        <time>2023-03-05T15:35:48Z</time>
      </trkpt>
      <trkpt lat="48.62911" lon="2.04635">
        <ele>137.6</ele>
        <time>2023-03-05T15:35:51Z</time>
      </trkpt>
      <trkpt lat="48.6291" lon="2.04638">
        <ele>137.4</ele>
        <time>2023-03-05T15:35:53Z</time>
      </trkpt>
      <trkpt lat="48.6291" lon="2.04642">
        <ele>137.2</ele>
        <time>2023-03-05T15:35:55Z</time>
      </trkpt>
      <trkpt lat="48.62911" lon="2.04646">
        <ele>137</ele>
        <time>2023-03-05T15:35:57Z</time>
      </trkpt>
      <trkpt lat="48.62913" lon="2.04649">
        <ele>137.2</ele>
        <time>2023-03-05T15:35:59Z</time>
      </trkpt>
      <trkpt lat="48.62915" lon="2.04653">
        <ele>137.2</ele>
        <time>2023-03-05T15:36:01Z</time>
      </trkpt>
      <trkpt lat="48.62917" lon="2.04656">
        <ele>137.2</ele>
        <time>2023-03-05T15:36:03Z</time>
      </trkpt>
      <trkpt lat="48.6292" lon="2.04658">
        <ele>137.2</ele>
        <time>2023-03-05T15:36:05Z</time>
      </trkpt>
      <trkpt lat="48.62922" lon="2.04661">
        <ele>137</ele>
        <time>2023-03-05T15:36:07Z</time>
      </trkpt>
      <trkpt lat="48.62924" lon="2.04663">
        <ele>137</ele>
        <time>2023-03-05T15:36:09Z</time>
      </trkpt>
      <trkpt lat="48.62926" lon="2.04665">
        <ele>136.8</ele>
        <time>2023-03-05T15:36:11Z</time>
      </trkpt>
      <trkpt lat="48.62929" lon="2.04668">
        <ele>136.4</ele>
        <time>2023-03-05T15:36:13Z</time>
      </trkpt>
      <trkpt lat="48.62931" lon="2.04671">
        <ele>136.2</ele>
        <time>2023-03-05T15:36:15Z</time>
      </trkpt>
      <trkpt lat="48.62933" lon="2.04674">
        <ele>136</ele>
        <time>2023-03-05T15:36:17Z</time>
      </trkpt>
      <trkpt lat="48.62935" lon="2.04676">
        <ele>135.6</ele>
        <time>2023-03-05T15:36:19Z</time>
      </trkpt>
      <trkpt lat="48.62937" lon="2.04679">
        <ele>135.4</ele>
        <time>2023-03-05T15:36:21Z</time>
      </trkpt>
      <trkpt lat="48.6294" lon="2.04682">
        <ele>135.2</ele>
        <time>2023-03-05T15:36:23Z</time>
      </trkpt>
      <trkpt lat="48.62942" lon="2.04685">
        <ele>135</ele>
        <time>2023-03-05T15:36:25Z</time>
      </trkpt>
      <trkpt lat="48.62944" lon="2.04688">
        <ele>134.8</ele>
        <time>2023-03-05T15:36:27Z</time>
      </trkpt>
      <trkpt lat="48.62946" lon="2.0469">
        <ele>134.6</ele>
        <time>2023-03-05T15:36:29Z</time>
      </trkpt>
      <trkpt lat="48.62948" lon="2.04693">
        <ele>134.4</ele>
        <time>2023-03-05T15:36:31Z</time>
      </trkpt>
      <trkpt lat="48.6295" lon="2.04695">
        <ele>134</ele>
        <time>2023-03-05T15:36:33Z</time>
      </trkpt>
      <trkpt lat="48.62952" lon="2.04698">
        <ele>133.6</ele>
        <time>2023-03-05T15:36:35Z</time>
      </trkpt>
      <trkpt lat="48.62954" lon="2.04701">
        <ele>133.2</ele>
        <time>2023-03-05T15:36:37Z</time>
      </trkpt>
      <trkpt lat="48.62955" lon="2.04704">
        <ele>132.8</ele>
        <time>2023-03-05T15:36:39Z</time>
      </trkpt>
      <trkpt lat="48.62956" lon="2.04708">
        <ele>132.6</ele>
        <time>2023-03-05T15:36:41Z</time>
      </trkpt>
      <trkpt lat="48.62956" lon="2.04713">
        <ele>132.4</ele>
        <time>2023-03-05T15:36:43Z</time>
      </trkpt>
      <trkpt lat="48.62957" lon="2.04717">
        <ele>132</ele>
        <time>2023-03-05T15:36:45Z</time>
      </trkpt>
      <trkpt lat="48.62958" lon="2.04722">
        <ele>131.8</ele>
        <time>2023-03-05T15:36:47Z</time>
      </trkpt>
      <trkpt lat="48.62958" lon="2.04727">
        <ele>131.8</ele>
        <time>2023-03-05T15:36:49Z</time>
      </trkpt>
      <trkpt lat="48.62958" lon="2.04732">
        <ele>131.8</ele>
        <time>2023-03-05T15:36:51Z</time>
      </trkpt>
      <trkpt lat="48.62958" lon="2.04736">
        <ele>131.8</ele>
        <time>2023-03-05T15:36:53Z</time>
      </trkpt>
      <trkpt lat="48.62958" lon="2.04741">
        <ele>131.8</ele>
        <time>2023-03-05T15:36:55Z</time>
      </trkpt>
      <trkpt lat="48.62958" lon="2.04745">
        <ele>131.8</ele>
        <time>2023-03-05T15:36:57Z</time>
      </trkpt>
      <trkpt lat="48.62959" lon="2.0475">
        <ele>131.8</ele>
        <time>2023-03-05T15:36:59Z</time>
      </trkpt>
      <trkpt lat="48.62959" lon="2.04754">
        <ele>131.8</ele>
        <time>2023-03-05T15:37:01Z</time>
      </trkpt>
      <trkpt lat="48.6296" lon="2.04759">
        <ele>131.8</ele>
        <time>2023-03-05T15:37:03Z</time>
      </trkpt>
      <trkpt lat="48.6296" lon="2.04763">
        <ele>131.6</ele>
        <time>2023-03-05T15:37:05Z</time>
      </trkpt>
      <trkpt lat="48.6296" lon="2.04768">
        <ele>131.6</ele>
        <time>2023-03-05T15:37:07Z</time>
      </trkpt>
      <trkpt lat="48.6296" lon="2.04773">
        <ele>131.4</ele>
        <time>2023-03-05T15:37:09Z</time>
      </trkpt>
      <trkpt lat="48.6296" lon="2.04777">
        <ele>131.4</ele>
        <time>2023-03-05T15:37:11Z</time>
      </trkpt>
      <trkpt lat="48.6296" lon="2.04782">
        <ele>131.2</ele>
        <time>2023-03-05T15:37:13Z</time>
      </trkpt>
      <trkpt lat="48.62961" lon="2.04787">
        <ele>131</ele>
        <time>2023-03-05T15:37:15Z</time>
      </trkpt>
      <trkpt lat="48.62961" lon="2.04791">
        <ele>130.8</ele>
        <time>2023-03-05T15:37:17Z</time>
      </trkpt>
      <trkpt lat="48.62962" lon="2.04796">
        <ele>130.8</ele>
        <time>2023-03-05T15:37:19Z</time>
      </trkpt>
      <trkpt lat="48.62962" lon="2.04801">
        <ele>130.6</ele>
        <time>2023-03-05T15:37:21Z</time>
      </trkpt>
      <trkpt lat="48.62962" lon="2.04806">
        <ele>130.8</ele>
        <time>2023-03-05T15:37:23Z</time>
      </trkpt>
      <trkpt lat="48.62962" lon="2.04811">
        <ele>130.6</ele>
        <time>2023-03-05T15:37:25Z</time>
      </trkpt>
      <trkpt lat="48.62962" lon="2.04816">
        <ele>130.6</ele>
        <time>2023-03-05T15:37:27Z</time>
      </trkpt>
      <trkpt lat="48.62962" lon="2.0482">
        <ele>130.8</ele>
        <time>2023-03-05T15:37:29Z</time>
      </trkpt>
      <trkpt lat="48.62961" lon="2.04825">
        <ele>130.8</ele>
        <time>2023-03-05T15:37:31Z</time>
      </trkpt>
      <trkpt lat="48.6296" lon="2.04829">
        <ele>130.6</ele>
        <time>2023-03-05T15:37:33Z</time>
      </trkpt>
      <trkpt lat="48.62958" lon="2.04834">
        <ele>130.6</ele>
        <time>2023-03-05T15:37:35Z</time>
      </trkpt>
      <trkpt lat="48.62956" lon="2.04837">
        <ele>130.6</ele>
        <time>2023-03-05T15:37:37Z</time>
      </trkpt>
      <trkpt lat="48.62954" lon="2.04841">
        <ele>130.8</ele>
        <time>2023-03-05T15:37:39Z</time>
      </trkpt>
      <trkpt lat="48.62952" lon="2.04842">
        <ele>130.8</ele>
        <time>2023-03-05T15:37:40Z</time>
      </trkpt>
      <trkpt lat="48.62949" lon="2.04845">
        <ele>130.8</ele>
        <time>2023-03-05T15:37:42Z</time>
      </trkpt>
      <trkpt lat="48.62947" lon="2.04846">
        <ele>131</ele>
        <time>2023-03-05T15:37:43Z</time>
      </trkpt>
      <trkpt lat="48.62945" lon="2.04846">
        <ele>131</ele>
        <time>2023-03-05T15:37:44Z</time>
      </trkpt>
      <trkpt lat="48.62942" lon="2.04847">
        <ele>131</ele>
        <time>2023-03-05T15:37:46Z</time>
      </trkpt>
      <trkpt lat="48.62939" lon="2.04848">
        <ele>131</ele>
        <time>2023-03-05T15:37:48Z</time>
      </trkpt>
      <trkpt lat="48.62936" lon="2.04849">
        <ele>130.8</ele>
        <time>2023-03-05T15:37:50Z</time>
      </trkpt>
      <trkpt lat="48.62932" lon="2.04849">
        <ele>130.8</ele>
        <time>2023-03-05T15:37:52Z</time>
      </trkpt>
      <trkpt lat="48.6293" lon="2.0485">
        <ele>130.8</ele>
        <time>2023-03-05T15:37:54Z</time>
      </trkpt>
      <trkpt lat="48.62926" lon="2.0485">
        <ele>130.8</ele>
        <time>2023-03-05T15:37:56Z</time>
      </trkpt>
      <trkpt lat="48.62923" lon="2.04851">
        <ele>130.8</ele>
        <time>2023-03-05T15:37:58Z</time>
      </trkpt>
      <trkpt lat="48.6292" lon="2.04852">
        <ele>130.8</ele>
        <time>2023-03-05T15:38:00Z</time>
      </trkpt>
      <trkpt lat="48.62918" lon="2.04852">
        <ele>130.8</ele>
        <time>2023-03-05T15:38:01Z</time>
      </trkpt>
      <trkpt lat="48.62914" lon="2.04854">
        <ele>130.6</ele>
        <time>2023-03-05T15:38:03Z</time>
      </trkpt>
      <trkpt lat="48.62911" lon="2.04854">
        <ele>130.6</ele>
        <time>2023-03-05T15:38:05Z</time>
      </trkpt>
      <trkpt lat="48.62908" lon="2.04855">
        <ele>130.6</ele>
        <time>2023-03-05T15:38:07Z</time>
      </trkpt>
      <trkpt lat="48.62905" lon="2.04856">
        <ele>130.4</ele>
        <time>2023-03-05T15:38:09Z</time>
      </trkpt>
      <trkpt lat="48.62902" lon="2.04858">
        <ele>130.6</ele>
        <time>2023-03-05T15:38:11Z</time>
      </trkpt>
      <trkpt lat="48.62899" lon="2.04859">
        <ele>130.6</ele>
        <time>2023-03-05T15:38:13Z</time>
      </trkpt>
      <trkpt lat="48.62896" lon="2.04861">
        <ele>130.8</ele>
        <time>2023-03-05T15:38:15Z</time>
      </trkpt>
      <trkpt lat="48.62893" lon="2.04862">
        <ele>131</ele>
        <time>2023-03-05T15:38:17Z</time>
      </trkpt>
      <trkpt lat="48.62891" lon="2.04863">
        <ele>131.2</ele>
        <time>2023-03-05T15:38:19Z</time>
      </trkpt>
      <trkpt lat="48.62888" lon="2.04864">
        <ele>131.2</ele>
        <time>2023-03-05T15:38:21Z</time>
      </trkpt>
      <trkpt lat="48.62885" lon="2.04865">
        <ele>131.2</ele>
        <time>2023-03-05T15:38:23Z</time>
      </trkpt>
      <trkpt lat="48.62882" lon="2.04865">
        <ele>131.2</ele>
        <time>2023-03-05T15:38:25Z</time>
      </trkpt>
      <trkpt lat="48.6288" lon="2.04867">
        <ele>131.2</ele>
        <time>2023-03-05T15:38:27Z</time>
      </trkpt>
      <trkpt lat="48.62877" lon="2.04868">
        <ele>131.4</ele>
        <time>2023-03-05T15:38:29Z</time>
      </trkpt>
      <trkpt lat="48.62874" lon="2.0487">
        <ele>131.6</ele>
        <time>2023-03-05T15:38:31Z</time>
      </trkpt>
      <trkpt lat="48.62872" lon="2.04872">
        <ele>131.6</ele>
        <time>2023-03-05T15:38:33Z</time>
      </trkpt>
      <trkpt lat="48.6287" lon="2.04874">
        <ele>131.8</ele>
        <time>2023-03-05T15:38:35Z</time>
      </trkpt>
      <trkpt lat="48.62867" lon="2.04875">
        <ele>132</ele>
        <time>2023-03-05T15:38:37Z</time>
      </trkpt>
      <trkpt lat="48.62865" lon="2.04877">
        <ele>132</ele>
        <time>2023-03-05T15:38:39Z</time>
      </trkpt>
      <trkpt lat="48.62862" lon="2.04879">
        <ele>132</ele>
        <time>2023-03-05T15:38:41Z</time>
      </trkpt>
      <trkpt lat="48.62859" lon="2.04881">
        <ele>132</ele>
        <time>2023-03-05T15:38:43Z</time>
      </trkpt>
      <trkpt lat="48.62857" lon="2.04883">
        <ele>131.8</ele>
        <time>2023-03-05T15:38:45Z</time>
      </trkpt>
      <trkpt lat="48.62854" lon="2.04887">
        <ele>131.8</ele>
        <time>2023-03-05T15:38:47Z</time>
      </trkpt>
      <trkpt lat="48.62853" lon="2.04888">
        <ele>131.8</ele>
        <time>2023-03-05T15:38:48Z</time>
      </trkpt>
      <trkpt lat="48.62851" lon="2.04893">
        <ele>131.8</ele>
        <time>2023-03-05T15:38:50Z</time>
      </trkpt>
      <trkpt lat="48.62849" lon="2.04897">
        <ele>131.8</ele>
        <time>2023-03-05T15:38:52Z</time>
      </trkpt>
      <trkpt lat="48.62847" lon="2.049">
        <ele>131.8</ele>
        <time>2023-03-05T15:38:54Z</time>
      </trkpt>
      <trkpt lat="48.62844" lon="2.04904">
        <ele>131.8</ele>
        <time>2023-03-05T15:38:56Z</time>
      </trkpt>
      <trkpt lat="48.62843" lon="2.04907">
        <ele>131.6</ele>
        <time>2023-03-05T15:38:58Z</time>
      </trkpt>
      <trkpt lat="48.62841" lon="2.0491">
        <ele>131.6</ele>
        <time>2023-03-05T15:39:00Z</time>
      </trkpt>
      <trkpt lat="48.6284" lon="2.04913">
        <ele>131.6</ele>
        <time>2023-03-05T15:39:02Z</time>
      </trkpt>
      <trkpt lat="48.62839" lon="2.04916">
        <ele>131.6</ele>
        <time>2023-03-05T15:39:04Z</time>
      </trkpt>
      <trkpt lat="48.62839" lon="2.0492">
        <ele>131.6</ele>
        <time>2023-03-05T15:39:06Z</time>
      </trkpt>
      <trkpt lat="48.62838" lon="2.04924">
        <ele>131.6</ele>
        <time>2023-03-05T15:39:08Z</time>
      </trkpt>
      <trkpt lat="48.62837" lon="2.04929">
        <ele>131.8</ele>
        <time>2023-03-05T15:39:10Z</time>
      </trkpt>
      <trkpt lat="48.62836" lon="2.04932">
        <ele>131.8</ele>
        <time>2023-03-05T15:39:12Z</time>
      </trkpt>
      <trkpt lat="48.62835" lon="2.04935">
        <ele>131.8</ele>
        <time>2023-03-05T15:39:14Z</time>
      </trkpt>
      <trkpt lat="48.62833" lon="2.04937">
        <ele>132</ele>
        <time>2023-03-05T15:39:18Z</time>
      </trkpt>
      <trkpt lat="48.62831" lon="2.0494">
        <ele>132.2</ele>
        <time>2023-03-05T15:39:21Z</time>
      </trkpt>
      <trkpt lat="48.62831" lon="2.04943">
        <ele>132.2</ele>
        <time>2023-03-05T15:39:23Z</time>
      </trkpt>
      <trkpt lat="48.62829" lon="2.04946">
        <ele>132.2</ele>
        <time>2023-03-05T15:39:25Z</time>
      </trkpt>
      <trkpt lat="48.62829" lon="2.04949">
        <ele>132.2</ele>
        <time>2023-03-05T15:39:27Z</time>
      </trkpt>
      <trkpt lat="48.62828" lon="2.04952">
        <ele>132.2</ele>
        <time>2023-03-05T15:39:29Z</time>
      </trkpt>
      <trkpt lat="48.62827" lon="2.04956">
        <ele>132.4</ele>
        <time>2023-03-05T15:39:31Z</time>
      </trkpt>
      <trkpt lat="48.62825" lon="2.0496">
        <ele>132.4</ele>
        <time>2023-03-05T15:39:33Z</time>
      </trkpt>
      <trkpt lat="48.62825" lon="2.04964">
        <ele>132.6</ele>
        <time>2023-03-05T15:39:35Z</time>
      </trkpt>
      <trkpt lat="48.62823" lon="2.04968">
        <ele>132.8</ele>
        <time>2023-03-05T15:39:37Z</time>
      </trkpt>
      <trkpt lat="48.62822" lon="2.04973">
        <ele>133.2</ele>
        <time>2023-03-05T15:39:39Z</time>
      </trkpt>
      <trkpt lat="48.62821" lon="2.04975">
        <ele>133.2</ele>
        <time>2023-03-05T15:39:40Z</time>
      </trkpt>
      <trkpt lat="48.6282" lon="2.04979">
        <ele>133.4</ele>
        <time>2023-03-05T15:39:42Z</time>
      </trkpt>
      <trkpt lat="48.62819" lon="2.04983">
        <ele>133.4</ele>
        <time>2023-03-05T15:39:44Z</time>
      </trkpt>
      <trkpt lat="48.62818" lon="2.04987">
        <ele>133.2</ele>
        <time>2023-03-05T15:39:46Z</time>
      </trkpt>
      <trkpt lat="48.62817" lon="2.04991">
        <ele>133.2</ele>
        <time>2023-03-05T15:39:48Z</time>
      </trkpt>
      <trkpt lat="48.62817" lon="2.04995">
        <ele>133.2</ele>
        <time>2023-03-05T15:39:50Z</time>
      </trkpt>
      <trkpt lat="48.62817" lon="2.04999">
        <ele>133.2</ele>
        <time>2023-03-05T15:39:52Z</time>
      </trkpt>
      <trkpt lat="48.62816" lon="2.05004">
        <ele>133.2</ele>
        <time>2023-03-05T15:39:54Z</time>
      </trkpt>
      <trkpt lat="48.62815" lon="2.05008">
        <ele>133.2</ele>
        <time>2023-03-05T15:39:56Z</time>
      </trkpt>
      <trkpt lat="48.62814" lon="2.05013">
        <ele>133.2</ele>
        <time>2023-03-05T15:39:58Z</time>
      </trkpt>
      <trkpt lat="48.62813" lon="2.05017">
        <ele>133.2</ele>
        <time>2023-03-05T15:40:00Z</time>
      </trkpt>
      <trkpt lat="48.62813" lon="2.05021">
        <ele>133.4</ele>
        <time>2023-03-05T15:40:02Z</time>
      </trkpt>
      <trkpt lat="48.62812" lon="2.05025">
        <ele>133.4</ele>
        <time>2023-03-05T15:40:04Z</time>
      </trkpt>
      <trkpt lat="48.62811" lon="2.05029">
        <ele>133.6</ele>
        <time>2023-03-05T15:40:06Z</time>
      </trkpt>
      <trkpt lat="48.6281" lon="2.05033">
        <ele>133.6</ele>
        <time>2023-03-05T15:40:08Z</time>
      </trkpt>
      <trkpt lat="48.62809" lon="2.05038">
        <ele>133.8</ele>
        <time>2023-03-05T15:40:10Z</time>
      </trkpt>
      <trkpt lat="48.62808" lon="2.05042">
        <ele>133.8</ele>
        <time>2023-03-05T15:40:12Z</time>
      </trkpt>
      <trkpt lat="48.62807" lon="2.05046">
        <ele>134</ele>
        <time>2023-03-05T15:40:14Z</time>
      </trkpt>
      <trkpt lat="48.62806" lon="2.0505">
        <ele>134</ele>
        <time>2023-03-05T15:40:16Z</time>
      </trkpt>
      <trkpt lat="48.62805" lon="2.05054">
        <ele>134</ele>
        <time>2023-03-05T15:40:18Z</time>
      </trkpt>
      <trkpt lat="48.62804" lon="2.05058">
        <ele>134</ele>
        <time>2023-03-05T15:40:20Z</time>
      </trkpt>
      <trkpt lat="48.62803" lon="2.05061">
        <ele>134</ele>
        <time>2023-03-05T15:40:22Z</time>
      </trkpt>
      <trkpt lat="48.62802" lon="2.05064">
        <ele>134</ele>
        <time>2023-03-05T15:40:24Z</time>
      </trkpt>
      <trkpt lat="48.628" lon="2.05067">
        <ele>134</ele>
        <time>2023-03-05T15:40:26Z</time>
      </trkpt>
      <trkpt lat="48.62799" lon="2.0507">
        <ele>134.2</ele>
        <time>2023-03-05T15:40:28Z</time>
      </trkpt>
      <trkpt lat="48.62798" lon="2.05073">
        <ele>134.2</ele>
        <time>2023-03-05T15:40:30Z</time>
      </trkpt>
      <trkpt lat="48.62797" lon="2.05075">
        <ele>134.4</ele>
        <time>2023-03-05T15:40:32Z</time>
      </trkpt>
      <trkpt lat="48.62797" lon="2.05078">
        <ele>134.4</ele>
        <time>2023-03-05T15:40:34Z</time>
      </trkpt>
      <trkpt lat="48.62797" lon="2.05081">
        <ele>134.6</ele>
        <time>2023-03-05T15:40:36Z</time>
      </trkpt>
      <trkpt lat="48.62796" lon="2.05085">
        <ele>134.8</ele>
        <time>2023-03-05T15:40:38Z</time>
      </trkpt>
      <trkpt lat="48.62796" lon="2.05088">
        <ele>135</ele>
        <time>2023-03-05T15:40:40Z</time>
      </trkpt>
      <trkpt lat="48.62794" lon="2.05092">
        <ele>135.2</ele>
        <time>2023-03-05T15:40:42Z</time>
      </trkpt>
      <trkpt lat="48.62792" lon="2.05096">
        <ele>135.6</ele>
        <time>2023-03-05T15:40:44Z</time>
      </trkpt>
      <trkpt lat="48.6279" lon="2.05099">
        <ele>135.8</ele>
        <time>2023-03-05T15:40:46Z</time>
      </trkpt>
      <trkpt lat="48.62788" lon="2.05102">
        <ele>136</ele>
        <time>2023-03-05T15:40:48Z</time>
      </trkpt>
      <trkpt lat="48.62785" lon="2.05104">
        <ele>136</ele>
        <time>2023-03-05T15:40:50Z</time>
      </trkpt>
      <trkpt lat="48.62782" lon="2.05106">
        <ele>136.2</ele>
        <time>2023-03-05T15:40:52Z</time>
      </trkpt>
      <trkpt lat="48.62779" lon="2.05108">
        <ele>136.4</ele>
        <time>2023-03-05T15:40:54Z</time>
      </trkpt>
      <trkpt lat="48.62777" lon="2.0511">
        <ele>136.6</ele>
        <time>2023-03-05T15:40:56Z</time>
      </trkpt>
      <trkpt lat="48.62773" lon="2.05111">
        <ele>136.8</ele>
        <time>2023-03-05T15:40:58Z</time>
      </trkpt>
      <trkpt lat="48.62771" lon="2.05113">
        <ele>136.8</ele>
        <time>2023-03-05T15:41:00Z</time>
      </trkpt>
      <trkpt lat="48.62768" lon="2.05114">
        <ele>137</ele>
        <time>2023-03-05T15:41:02Z</time>
      </trkpt>
      <trkpt lat="48.62765" lon="2.05115">
        <ele>137.4</ele>
        <time>2023-03-05T15:41:04Z</time>
      </trkpt>
      <trkpt lat="48.62763" lon="2.05116">
        <ele>137.6</ele>
        <time>2023-03-05T15:41:06Z</time>
      </trkpt>
      <trkpt lat="48.62761" lon="2.05117">
        <ele>138</ele>
        <time>2023-03-05T15:41:08Z</time>
      </trkpt>
      <trkpt lat="48.62758" lon="2.05117">
        <ele>138.2</ele>
        <time>2023-03-05T15:41:10Z</time>
      </trkpt>
      <trkpt lat="48.62756" lon="2.05117">
        <ele>138.4</ele>
        <time>2023-03-05T15:41:12Z</time>
      </trkpt>
      <trkpt lat="48.62753" lon="2.05118">
        <ele>138.6</ele>
        <time>2023-03-05T15:41:14Z</time>
      </trkpt>
      <trkpt lat="48.62751" lon="2.05118">
        <ele>138.6</ele>
        <time>2023-03-05T15:41:16Z</time>
      </trkpt>
      <trkpt lat="48.62748" lon="2.05118">
        <ele>138.6</ele>
        <time>2023-03-05T15:41:18Z</time>
      </trkpt>
      <trkpt lat="48.62744" lon="2.05118">
        <ele>138.8</ele>
        <time>2023-03-05T15:41:20Z</time>
      </trkpt>
      <trkpt lat="48.62741" lon="2.05118">
        <ele>138.8</ele>
        <time>2023-03-05T15:41:22Z</time>
      </trkpt>
      <trkpt lat="48.62739" lon="2.05118">
        <ele>138.8</ele>
        <time>2023-03-05T15:41:23Z</time>
      </trkpt>
      <trkpt lat="48.62737" lon="2.05118">
        <ele>138.8</ele>
        <time>2023-03-05T15:41:24Z</time>
      </trkpt>
      <trkpt lat="48.62735" lon="2.05117">
        <ele>139</ele>
        <time>2023-03-05T15:41:25Z</time>
      </trkpt>
      <trkpt lat="48.62733" lon="2.05117">
        <ele>139</ele>
        <time>2023-03-05T15:41:26Z</time>
      </trkpt>
      <trkpt lat="48.6273" lon="2.05115">
        <ele>139</ele>
        <time>2023-03-05T15:41:28Z</time>
      </trkpt>
      <trkpt lat="48.62727" lon="2.05115">
        <ele>139</ele>
        <time>2023-03-05T15:41:30Z</time>
      </trkpt>
      <trkpt lat="48.62724" lon="2.05114">
        <ele>139</ele>
        <time>2023-03-05T15:41:32Z</time>
      </trkpt>
      <trkpt lat="48.62722" lon="2.05114">
        <ele>139</ele>
        <time>2023-03-05T15:41:33Z</time>
      </trkpt>
      <trkpt lat="48.62718" lon="2.05113">
        <ele>139</ele>
        <time>2023-03-05T15:41:35Z</time>
      </trkpt>
      <trkpt lat="48.62715" lon="2.05112">
        <ele>139</ele>
        <time>2023-03-05T15:41:37Z</time>
      </trkpt>
      <trkpt lat="48.62712" lon="2.05111">
        <ele>139</ele>
        <time>2023-03-05T15:41:39Z</time>
      </trkpt>
      <trkpt lat="48.62709" lon="2.0511">
        <ele>138.8</ele>
        <time>2023-03-05T15:41:41Z</time>
      </trkpt>
      <trkpt lat="48.62706" lon="2.05109">
        <ele>138.8</ele>
        <time>2023-03-05T15:41:43Z</time>
      </trkpt>
      <trkpt lat="48.62703" lon="2.05107">
        <ele>138.6</ele>
        <time>2023-03-05T15:41:45Z</time>
      </trkpt>
      <trkpt lat="48.62701" lon="2.05106">
        <ele>138.4</ele>
        <time>2023-03-05T15:41:47Z</time>
      </trkpt>
      <trkpt lat="48.62698" lon="2.05104">
        <ele>138.4</ele>
        <time>2023-03-05T15:41:49Z</time>
      </trkpt>
      <trkpt lat="48.62696" lon="2.05103">
        <ele>138.2</ele>
        <time>2023-03-05T15:41:51Z</time>
      </trkpt>
      <trkpt lat="48.62693" lon="2.05101">
        <ele>138</ele>
        <time>2023-03-05T15:41:53Z</time>
      </trkpt>
      <trkpt lat="48.62691" lon="2.05099">
        <ele>137.8</ele>
        <time>2023-03-05T15:41:55Z</time>
      </trkpt>
      <trkpt lat="48.62688" lon="2.05097">
        <ele>137.6</ele>
        <time>2023-03-05T15:41:57Z</time>
      </trkpt>
      <trkpt lat="48.62686" lon="2.05096">
        <ele>137.6</ele>
        <time>2023-03-05T15:41:59Z</time>
      </trkpt>
      <trkpt lat="48.62683" lon="2.05094">
        <ele>137.4</ele>
        <time>2023-03-05T15:42:01Z</time>
      </trkpt>
      <trkpt lat="48.6268" lon="2.05093">
        <ele>137.4</ele>
        <time>2023-03-05T15:42:03Z</time>
      </trkpt>
      <trkpt lat="48.62678" lon="2.05092">
        <ele>137.2</ele>
        <time>2023-03-05T15:42:05Z</time>
      </trkpt>
      <trkpt lat="48.62675" lon="2.05092">
        <ele>137.2</ele>
        <time>2023-03-05T15:42:07Z</time>
      </trkpt>
      <trkpt lat="48.62672" lon="2.05091">
        <ele>137</ele>
        <time>2023-03-05T15:42:09Z</time>
      </trkpt>
      <trkpt lat="48.62669" lon="2.0509">
        <ele>137</ele>
        <time>2023-03-05T15:42:11Z</time>
      </trkpt>
      <trkpt lat="48.62666" lon="2.05089">
        <ele>136.8</ele>
        <time>2023-03-05T15:42:13Z</time>
      </trkpt>
      <trkpt lat="48.62663" lon="2.05087">
        <ele>136.8</ele>
        <time>2023-03-05T15:42:15Z</time>
      </trkpt>
      <trkpt lat="48.6266" lon="2.05086">
        <ele>136.8</ele>
        <time>2023-03-05T15:42:17Z</time>
      </trkpt>
      <trkpt lat="48.62657" lon="2.05085">
        <ele>136.6</ele>
        <time>2023-03-05T15:42:19Z</time>
      </trkpt>
      <trkpt lat="48.62654" lon="2.05084">
        <ele>136.6</ele>
        <time>2023-03-05T15:42:21Z</time>
      </trkpt>
      <trkpt lat="48.62651" lon="2.05083">
        <ele>136.6</ele>
        <time>2023-03-05T15:42:23Z</time>
      </trkpt>
      <trkpt lat="48.62648" lon="2.05082">
        <ele>136.6</ele>
        <time>2023-03-05T15:42:25Z</time>
      </trkpt>
      <trkpt lat="48.62645" lon="2.05081">
        <ele>136.6</ele>
        <time>2023-03-05T15:42:27Z</time>
      </trkpt>
      <trkpt lat="48.62642" lon="2.0508">
        <ele>136.6</ele>
        <time>2023-03-05T15:42:29Z</time>
      </trkpt>
      <trkpt lat="48.6264" lon="2.0508">
        <ele>136.6</ele>
        <time>2023-03-05T15:42:31Z</time>
      </trkpt>
      <trkpt lat="48.62638" lon="2.05079">
        <ele>136.6</ele>
        <time>2023-03-05T15:42:33Z</time>
      </trkpt>
      <trkpt lat="48.62636" lon="2.05079">
        <ele>136.6</ele>
        <time>2023-03-05T15:42:35Z</time>
      </trkpt>
      <trkpt lat="48.62634" lon="2.05079">
        <ele>136.6</ele>
        <time>2023-03-05T15:42:37Z</time>
      </trkpt>
      <trkpt lat="48.6263" lon="2.05078">
        <ele>136.6</ele>
        <time>2023-03-05T15:42:39Z</time>
      </trkpt>
      <trkpt lat="48.62628" lon="2.05078">
        <ele>136.6</ele>
        <time>2023-03-05T15:42:41Z</time>
      </trkpt>
      <trkpt lat="48.62624" lon="2.05079">
        <ele>136.6</ele>
        <time>2023-03-05T15:42:43Z</time>
      </trkpt>
      <trkpt lat="48.62622" lon="2.05079">
        <ele>136.6</ele>
        <time>2023-03-05T15:42:45Z</time>
      </trkpt>
      <trkpt lat="48.62619" lon="2.05079">
        <ele>136.6</ele>
        <time>2023-03-05T15:42:47Z</time>
      </trkpt>
      <trkpt lat="48.62616" lon="2.05078">
        <ele>136.6</ele>
        <time>2023-03-05T15:42:49Z</time>
      </trkpt>
      <trkpt lat="48.62612" lon="2.05078">
        <ele>136.6</ele>
        <time>2023-03-05T15:42:51Z</time>
      </trkpt>
      <trkpt lat="48.62609" lon="2.05078">
        <ele>136.6</ele>
        <time>2023-03-05T15:42:53Z</time>
      </trkpt>
      <trkpt lat="48.62606" lon="2.05078">
        <ele>136.6</ele>
        <time>2023-03-05T15:42:55Z</time>
      </trkpt>
      <trkpt lat="48.62602" lon="2.05077">
        <ele>136.6</ele>
        <time>2023-03-05T15:42:57Z</time>
      </trkpt>
      <trkpt lat="48.62599" lon="2.05077">
        <ele>136.6</ele>
        <time>2023-03-05T15:42:59Z</time>
      </trkpt>
      <trkpt lat="48.62596" lon="2.05077">
        <ele>136.4</ele>
        <time>2023-03-05T15:43:01Z</time>
      </trkpt>
      <trkpt lat="48.62593" lon="2.05076">
        <ele>136.4</ele>
        <time>2023-03-05T15:43:03Z</time>
      </trkpt>
      <trkpt lat="48.6259" lon="2.05076">
        <ele>136.4</ele>
        <time>2023-03-05T15:43:05Z</time>
      </trkpt>
      <trkpt lat="48.62587" lon="2.05075">
        <ele>136.4</ele>
        <time>2023-03-05T15:43:07Z</time>
      </trkpt>
      <trkpt lat="48.62584" lon="2.05075">
        <ele>136.4</ele>
        <time>2023-03-05T15:43:09Z</time>
      </trkpt>
      <trkpt lat="48.62581" lon="2.05074">
        <ele>136.6</ele>
        <time>2023-03-05T15:43:11Z</time>
      </trkpt>
      <trkpt lat="48.62579" lon="2.05074">
        <ele>136.6</ele>
        <time>2023-03-05T15:43:12Z</time>
      </trkpt>
      <trkpt lat="48.62576" lon="2.05073">
        <ele>136.4</ele>
        <time>2023-03-05T15:43:14Z</time>
      </trkpt>
      <trkpt lat="48.62574" lon="2.05073">
        <ele>136.4</ele>
        <time>2023-03-05T15:43:15Z</time>
      </trkpt>
      <trkpt lat="48.62571" lon="2.05072">
        <ele>136.2</ele>
        <time>2023-03-05T15:43:17Z</time>
      </trkpt>
      <trkpt lat="48.62569" lon="2.05071">
        <ele>136</ele>
        <time>2023-03-05T15:43:18Z</time>
      </trkpt>
      <trkpt lat="48.62566" lon="2.0507">
        <ele>136</ele>
        <time>2023-03-05T15:43:20Z</time>
      </trkpt>
      <trkpt lat="48.62564" lon="2.05069">
        <ele>135.8</ele>
        <time>2023-03-05T15:43:21Z</time>
      </trkpt>
      <trkpt lat="48.62561" lon="2.05068">
        <ele>135.8</ele>
        <time>2023-03-05T15:43:23Z</time>
      </trkpt>
      <trkpt lat="48.62558" lon="2.05067">
        <ele>135.6</ele>
        <time>2023-03-05T15:43:25Z</time>
      </trkpt>
      <trkpt lat="48.62555" lon="2.05066">
        <ele>135.4</ele>
        <time>2023-03-05T15:43:27Z</time>
      </trkpt>
      <trkpt lat="48.62553" lon="2.05065">
        <ele>135.4</ele>
        <time>2023-03-05T15:43:28Z</time>
      </trkpt>
      <trkpt lat="48.6255" lon="2.05064">
        <ele>135</ele>
        <time>2023-03-05T15:43:30Z</time>
      </trkpt>
      <trkpt lat="48.62547" lon="2.05062">
        <ele>134.8</ele>
        <time>2023-03-05T15:43:32Z</time>
      </trkpt>
      <trkpt lat="48.62543" lon="2.0506">
        <ele>134.6</ele>
        <time>2023-03-05T15:43:34Z</time>
      </trkpt>
      <trkpt lat="48.6254" lon="2.05058">
        <ele>134.4</ele>
        <time>2023-03-05T15:43:36Z</time>
      </trkpt>
      <trkpt lat="48.62539" lon="2.05056">
        <ele>134.4</ele>
        <time>2023-03-05T15:43:37Z</time>
      </trkpt>
      <trkpt lat="48.62536" lon="2.05054">
        <ele>134.2</ele>
        <time>2023-03-05T15:43:39Z</time>
      </trkpt>
      <trkpt lat="48.62533" lon="2.05052">
        <ele>134.2</ele>
        <time>2023-03-05T15:43:41Z</time>
      </trkpt>
      <trkpt lat="48.6253" lon="2.0505">
        <ele>134</ele>
        <time>2023-03-05T15:43:43Z</time>
      </trkpt>
      <trkpt lat="48.62527" lon="2.05048">
        <ele>134</ele>
        <time>2023-03-05T15:43:45Z</time>
      </trkpt>
      <trkpt lat="48.62524" lon="2.05046">
        <ele>133.8</ele>
        <time>2023-03-05T15:43:47Z</time>
      </trkpt>
      <trkpt lat="48.62522" lon="2.05044">
        <ele>133.8</ele>
        <time>2023-03-05T15:43:49Z</time>
      </trkpt>
      <trkpt lat="48.62519" lon="2.05042">
        <ele>133.6</ele>
        <time>2023-03-05T15:43:51Z</time>
      </trkpt>
      <trkpt lat="48.62517" lon="2.0504">
        <ele>133.4</ele>
        <time>2023-03-05T15:43:53Z</time>
      </trkpt>
      <trkpt lat="48.62515" lon="2.05039">
        <ele>133.4</ele>
        <time>2023-03-05T15:43:55Z</time>
      </trkpt>
      <trkpt lat="48.62512" lon="2.05037">
        <ele>133.4</ele>
        <time>2023-03-05T15:43:57Z</time>
      </trkpt>
      <trkpt lat="48.62509" lon="2.05036">
        <ele>133.6</ele>
        <time>2023-03-05T15:43:59Z</time>
      </trkpt>
      <trkpt lat="48.62507" lon="2.05035">
        <ele>133.6</ele>
        <time>2023-03-05T15:44:01Z</time>
      </trkpt>
      <trkpt lat="48.62504" lon="2.05033">
        <ele>133.6</ele>
        <time>2023-03-05T15:44:03Z</time>
      </trkpt>
      <trkpt lat="48.62501" lon="2.05032">
        <ele>133.6</ele>
        <time>2023-03-05T15:44:05Z</time>
      </trkpt>
      <trkpt lat="48.62499" lon="2.0503">
        <ele>133.6</ele>
        <time>2023-03-05T15:44:07Z</time>
      </trkpt>
      <trkpt lat="48.62497" lon="2.05029">
        <ele>133.4</ele>
        <time>2023-03-05T15:44:09Z</time>
      </trkpt>
      <trkpt lat="48.62494" lon="2.05027">
        <ele>133.2</ele>
        <time>2023-03-05T15:44:11Z</time>
      </trkpt>
      <trkpt lat="48.62491" lon="2.05025">
        <ele>133.2</ele>
        <time>2023-03-05T15:44:13Z</time>
      </trkpt>
      <trkpt lat="48.62489" lon="2.05024">
        <ele>133</ele>
        <time>2023-03-05T15:44:15Z</time>
      </trkpt>
      <trkpt lat="48.62486" lon="2.05023">
        <ele>133</ele>
        <time>2023-03-05T15:44:17Z</time>
      </trkpt>
      <trkpt lat="48.62484" lon="2.05021">
        <ele>133</ele>
        <time>2023-03-05T15:44:19Z</time>
      </trkpt>
      <trkpt lat="48.62482" lon="2.0502">
        <ele>133</ele>
        <time>2023-03-05T15:44:21Z</time>
      </trkpt>
      <trkpt lat="48.62479" lon="2.05019">
        <ele>133.2</ele>
        <time>2023-03-05T15:44:23Z</time>
      </trkpt>
      <trkpt lat="48.62476" lon="2.05019">
        <ele>133.2</ele>
        <time>2023-03-05T15:44:25Z</time>
      </trkpt>
      <trkpt lat="48.62473" lon="2.05018">
        <ele>133.2</ele>
        <time>2023-03-05T15:44:27Z</time>
      </trkpt>
      <trkpt lat="48.62469" lon="2.05016">
        <ele>133.2</ele>
        <time>2023-03-05T15:44:29Z</time>
      </trkpt>
      <trkpt lat="48.62467" lon="2.05015">
        <ele>133.2</ele>
        <time>2023-03-05T15:44:31Z</time>
      </trkpt>
      <trkpt lat="48.62463" lon="2.05013">
        <ele>133.4</ele>
        <time>2023-03-05T15:44:33Z</time>
      </trkpt>
      <trkpt lat="48.6246" lon="2.05011">
        <ele>133.4</ele>
        <time>2023-03-05T15:44:35Z</time>
      </trkpt>
      <trkpt lat="48.62457" lon="2.0501">
        <ele>133.4</ele>
        <time>2023-03-05T15:44:37Z</time>
      </trkpt>
      <trkpt lat="48.62454" lon="2.05009">
        <ele>133.6</ele>
        <time>2023-03-05T15:44:39Z</time>
      </trkpt>
      <trkpt lat="48.62451" lon="2.05007">
        <ele>133.6</ele>
        <time>2023-03-05T15:44:41Z</time>
      </trkpt>
      <trkpt lat="48.62448" lon="2.05006">
        <ele>133.8</ele>
        <time>2023-03-05T15:44:43Z</time>
      </trkpt>
      <trkpt lat="48.62445" lon="2.05005">
        <ele>134</ele>
        <time>2023-03-05T15:44:45Z</time>
      </trkpt>
      <trkpt lat="48.62443" lon="2.05005">
        <ele>134.4</ele>
        <time>2023-03-05T15:44:47Z</time>
      </trkpt>
      <trkpt lat="48.62441" lon="2.05003">
        <ele>134.6</ele>
        <time>2023-03-05T15:44:49Z</time>
      </trkpt>
      <trkpt lat="48.62438" lon="2.05002">
        <ele>134.8</ele>
        <time>2023-03-05T15:44:51Z</time>
      </trkpt>
      <trkpt lat="48.62435" lon="2.05">
        <ele>135</ele>
        <time>2023-03-05T15:44:53Z</time>
      </trkpt>
      <trkpt lat="48.62432" lon="2.04997">
        <ele>135</ele>
        <time>2023-03-05T15:44:55Z</time>
      </trkpt>
      <trkpt lat="48.6243" lon="2.04995">
        <ele>135</ele>
        <time>2023-03-05T15:44:57Z</time>
      </trkpt>
      <trkpt lat="48.62427" lon="2.04993">
        <ele>135.2</ele>
        <time>2023-03-05T15:44:59Z</time>
      </trkpt>
      <trkpt lat="48.62424" lon="2.04991">
        <ele>135.2</ele>
        <time>2023-03-05T15:45:01Z</time>
      </trkpt>
      <trkpt lat="48.62421" lon="2.04989">
        <ele>135.4</ele>
        <time>2023-03-05T15:45:03Z</time>
      </trkpt>
      <trkpt lat="48.62419" lon="2.04988">
        <ele>135.4</ele>
        <time>2023-03-05T15:45:05Z</time>
      </trkpt>
      <trkpt lat="48.62416" lon="2.04988">
        <ele>135.6</ele>
        <time>2023-03-05T15:45:07Z</time>
      </trkpt>
      <trkpt lat="48.62414" lon="2.04988">
        <ele>135.6</ele>
        <time>2023-03-05T15:45:09Z</time>
      </trkpt>
      <trkpt lat="48.62412" lon="2.04989">
        <ele>135.8</ele>
        <time>2023-03-05T15:45:11Z</time>
      </trkpt>
      <trkpt lat="48.62408" lon="2.04988">
        <ele>136</ele>
        <time>2023-03-05T15:45:13Z</time>
      </trkpt>
      <trkpt lat="48.62405" lon="2.04988">
        <ele>136.2</ele>
        <time>2023-03-05T15:45:15Z</time>
      </trkpt>
      <trkpt lat="48.62402" lon="2.04987">
        <ele>136.2</ele>
        <time>2023-03-05T15:45:17Z</time>
      </trkpt>
      <trkpt lat="48.624" lon="2.04987">
        <ele>136.4</ele>
        <time>2023-03-05T15:45:19Z</time>
      </trkpt>
      <trkpt lat="48.62397" lon="2.04986">
        <ele>136.4</ele>
        <time>2023-03-05T15:45:21Z</time>
      </trkpt>
      <trkpt lat="48.62394" lon="2.04986">
        <ele>136.6</ele>
        <time>2023-03-05T15:45:23Z</time>
      </trkpt>
      <trkpt lat="48.62392" lon="2.04985">
        <ele>136.6</ele>
        <time>2023-03-05T15:45:25Z</time>
      </trkpt>
      <trkpt lat="48.62388" lon="2.04985">
        <ele>136.6</ele>
        <time>2023-03-05T15:45:27Z</time>
      </trkpt>
      <trkpt lat="48.62386" lon="2.04985">
        <ele>136.6</ele>
        <time>2023-03-05T15:45:29Z</time>
      </trkpt>
      <trkpt lat="48.62382" lon="2.04985">
        <ele>136.6</ele>
        <time>2023-03-05T15:45:31Z</time>
      </trkpt>
      <trkpt lat="48.6238" lon="2.04986">
        <ele>136.8</ele>
        <time>2023-03-05T15:45:33Z</time>
      </trkpt>
      <trkpt lat="48.62377" lon="2.04988">
        <ele>136.8</ele>
        <time>2023-03-05T15:45:35Z</time>
      </trkpt>
      <trkpt lat="48.62374" lon="2.0499">
        <ele>136.8</ele>
        <time>2023-03-05T15:45:37Z</time>
      </trkpt>
      <trkpt lat="48.62372" lon="2.04993">
        <ele>136.8</ele>
        <time>2023-03-05T15:45:39Z</time>
      </trkpt>
      <trkpt lat="48.62369" lon="2.04996">
        <ele>136.8</ele>
        <time>2023-03-05T15:45:41Z</time>
      </trkpt>
      <trkpt lat="48.62366" lon="2.04999">
        <ele>137</ele>
        <time>2023-03-05T15:45:43Z</time>
      </trkpt>
      <trkpt lat="48.62364" lon="2.05001">
        <ele>137</ele>
        <time>2023-03-05T15:45:44Z</time>
      </trkpt>
      <trkpt lat="48.62362" lon="2.05003">
        <ele>137.2</ele>
        <time>2023-03-05T15:45:45Z</time>
      </trkpt>
      <trkpt lat="48.62359" lon="2.05005">
        <ele>137.2</ele>
        <time>2023-03-05T15:45:46Z</time>
      </trkpt>
      <trkpt lat="48.62356" lon="2.05008">
        <ele>137.2</ele>
        <time>2023-03-05T15:45:47Z</time>
      </trkpt>
      <trkpt lat="48.62353" lon="2.0501">
        <ele>137.4</ele>
        <time>2023-03-05T15:45:48Z</time>
      </trkpt>
      <trkpt lat="48.62349" lon="2.05012">
        <ele>137.4</ele>
        <time>2023-03-05T15:45:49Z</time>
      </trkpt>
      <trkpt lat="48.62346" lon="2.05015">
        <ele>137.4</ele>
        <time>2023-03-05T15:45:50Z</time>
      </trkpt>
      <trkpt lat="48.62342" lon="2.05017">
        <ele>137.6</ele>
        <time>2023-03-05T15:45:51Z</time>
      </trkpt>
      <trkpt lat="48.62339" lon="2.05018">
        <ele>137.6</ele>
        <time>2023-03-05T15:45:52Z</time>
      </trkpt>
      <trkpt lat="48.62336" lon="2.0502">
        <ele>137.6</ele>
        <time>2023-03-05T15:45:53Z</time>
      </trkpt>
      <trkpt lat="48.62332" lon="2.05021">
        <ele>137.6</ele>
        <time>2023-03-05T15:45:54Z</time>
      </trkpt>
      <trkpt lat="48.62329" lon="2.05022">
        <ele>137.6</ele>
        <time>2023-03-05T15:45:55Z</time>
      </trkpt>
      <trkpt lat="48.62326" lon="2.05023">
        <ele>137.6</ele>
        <time>2023-03-05T15:45:56Z</time>
      </trkpt>
      <trkpt lat="48.62323" lon="2.05024">
        <ele>137.6</ele>
        <time>2023-03-05T15:45:57Z</time>
      </trkpt>
      <trkpt lat="48.6232" lon="2.05025">
        <ele>137.6</ele>
        <time>2023-03-05T15:45:58Z</time>
      </trkpt>
      <trkpt lat="48.62317" lon="2.05026">
        <ele>137.6</ele>
        <time>2023-03-05T15:45:59Z</time>
      </trkpt>
      <trkpt lat="48.62315" lon="2.05027">
        <ele>137.6</ele>
        <time>2023-03-05T15:46:00Z</time>
      </trkpt>
      <trkpt lat="48.62313" lon="2.05029">
        <ele>137.8</ele>
        <time>2023-03-05T15:46:01Z</time>
      </trkpt>
      <trkpt lat="48.6231" lon="2.0503">
        <ele>137.8</ele>
        <time>2023-03-05T15:46:02Z</time>
      </trkpt>
      <trkpt lat="48.62308" lon="2.05032">
        <ele>137.8</ele>
        <time>2023-03-05T15:46:03Z</time>
      </trkpt>
      <trkpt lat="48.62306" lon="2.05033">
        <ele>138</ele>
        <time>2023-03-05T15:46:04Z</time>
      </trkpt>
      <trkpt lat="48.62304" lon="2.05035">
        <ele>138</ele>
        <time>2023-03-05T15:46:05Z</time>
      </trkpt>
      <trkpt lat="48.62302" lon="2.05037">
        <ele>138.2</ele>
        <time>2023-03-05T15:46:06Z</time>
      </trkpt>
      <trkpt lat="48.623" lon="2.0504">
        <ele>138.4</ele>
        <time>2023-03-05T15:46:07Z</time>
      </trkpt>
      <trkpt lat="48.62299" lon="2.05042">
        <ele>138.4</ele>
        <time>2023-03-05T15:46:08Z</time>
      </trkpt>
      <trkpt lat="48.62298" lon="2.05046">
        <ele>138.6</ele>
        <time>2023-03-05T15:46:09Z</time>
      </trkpt>
      <trkpt lat="48.62297" lon="2.05049">
        <ele>138.8</ele>
        <time>2023-03-05T15:46:10Z</time>
      </trkpt>
      <trkpt lat="48.62296" lon="2.05054">
        <ele>139</ele>
        <time>2023-03-05T15:46:11Z</time>
      </trkpt>
      <trkpt lat="48.62295" lon="2.05058">
        <ele>139.2</ele>
        <time>2023-03-05T15:46:12Z</time>
      </trkpt>
      <trkpt lat="48.62294" lon="2.05063">
        <ele>139.4</ele>
        <time>2023-03-05T15:46:13Z</time>
      </trkpt>
      <trkpt lat="48.62294" lon="2.05068">
        <ele>139.6</ele>
        <time>2023-03-05T15:46:14Z</time>
      </trkpt>
      <trkpt lat="48.62293" lon="2.05073">
        <ele>140</ele>
        <time>2023-03-05T15:46:15Z</time>
      </trkpt>
      <trkpt lat="48.62293" lon="2.05078">
        <ele>140.2</ele>
        <time>2023-03-05T15:46:16Z</time>
      </trkpt>
      <trkpt lat="48.62293" lon="2.05083">
        <ele>140.4</ele>
        <time>2023-03-05T15:46:17Z</time>
      </trkpt>
      <trkpt lat="48.62292" lon="2.05088">
        <ele>140.8</ele>
        <time>2023-03-05T15:46:18Z</time>
      </trkpt>
      <trkpt lat="48.62292" lon="2.05094">
        <ele>141</ele>
        <time>2023-03-05T15:46:19Z</time>
      </trkpt>
      <trkpt lat="48.62292" lon="2.05099">
        <ele>141.4</ele>
        <time>2023-03-05T15:46:20Z</time>
      </trkpt>
      <trkpt lat="48.62292" lon="2.05104">
        <ele>141.6</ele>
        <time>2023-03-05T15:46:21Z</time>
      </trkpt>
      <trkpt lat="48.62292" lon="2.05109">
        <ele>142</ele>
        <time>2023-03-05T15:46:22Z</time>
      </trkpt>
      <trkpt lat="48.62292" lon="2.05115">
        <ele>142.4</ele>
        <time>2023-03-05T15:46:23Z</time>
      </trkpt>
      <trkpt lat="48.62292" lon="2.0512">
        <ele>142.6</ele>
        <time>2023-03-05T15:46:24Z</time>
      </trkpt>
      <trkpt lat="48.62291" lon="2.05126">
        <ele>143</ele>
        <time>2023-03-05T15:46:25Z</time>
      </trkpt>
      <trkpt lat="48.62291" lon="2.05132">
        <ele>143.4</ele>
        <time>2023-03-05T15:46:26Z</time>
      </trkpt>
      <trkpt lat="48.62291" lon="2.05138">
        <ele>143.8</ele>
        <time>2023-03-05T15:46:27Z</time>
      </trkpt>
      <trkpt lat="48.62291" lon="2.05144">
        <ele>144.4</ele>
        <time>2023-03-05T15:46:28Z</time>
      </trkpt>
      <trkpt lat="48.62291" lon="2.0515">
        <ele>144.8</ele>
        <time>2023-03-05T15:46:29Z</time>
      </trkpt>
      <trkpt lat="48.62291" lon="2.05157">
        <ele>145.2</ele>
        <time>2023-03-05T15:46:30Z</time>
      </trkpt>
      <trkpt lat="48.62291" lon="2.05163">
        <ele>145.6</ele>
        <time>2023-03-05T15:46:31Z</time>
      </trkpt>
      <trkpt lat="48.62291" lon="2.0517">
        <ele>146</ele>
        <time>2023-03-05T15:46:32Z</time>
      </trkpt>
      <trkpt lat="48.62291" lon="2.05177">
        <ele>146.4</ele>
        <time>2023-03-05T15:46:33Z</time>
      </trkpt>
      <trkpt lat="48.62291" lon="2.05183">
        <ele>147</ele>
        <time>2023-03-05T15:46:34Z</time>
      </trkpt>
      <trkpt lat="48.6229" lon="2.0519">
        <ele>147.4</ele>
        <time>2023-03-05T15:46:35Z</time>
      </trkpt>
      <trkpt lat="48.62289" lon="2.05196">
        <ele>147.8</ele>
        <time>2023-03-05T15:46:36Z</time>
      </trkpt>
      <trkpt lat="48.62289" lon="2.05202">
        <ele>148.2</ele>
        <time>2023-03-05T15:46:37Z</time>
      </trkpt>
      <trkpt lat="48.62288" lon="2.05208">
        <ele>148.6</ele>
        <time>2023-03-05T15:46:38Z</time>
      </trkpt>
      <trkpt lat="48.62287" lon="2.05214">
        <ele>149</ele>
        <time>2023-03-05T15:46:39Z</time>
      </trkpt>
      <trkpt lat="48.62286" lon="2.05219">
        <ele>149.4</ele>
        <time>2023-03-05T15:46:40Z</time>
      </trkpt>
      <trkpt lat="48.62285" lon="2.05225">
        <ele>149.8</ele>
        <time>2023-03-05T15:46:41Z</time>
      </trkpt>
      <trkpt lat="48.62284" lon="2.0523">
        <ele>150.2</ele>
        <time>2023-03-05T15:46:42Z</time>
      </trkpt>
      <trkpt lat="48.62283" lon="2.05236">
        <ele>150.4</ele>
        <time>2023-03-05T15:46:43Z</time>
      </trkpt>
      <trkpt lat="48.62283" lon="2.05242">
        <ele>150.8</ele>
        <time>2023-03-05T15:46:44Z</time>
      </trkpt>
      <trkpt lat="48.62281" lon="2.05248">
        <ele>151.2</ele>
        <time>2023-03-05T15:46:45Z</time>
      </trkpt>
      <trkpt lat="48.62281" lon="2.05254">
        <ele>151.6</ele>
        <time>2023-03-05T15:46:46Z</time>
      </trkpt>
      <trkpt lat="48.62279" lon="2.0526">
        <ele>152</ele>
        <time>2023-03-05T15:46:47Z</time>
      </trkpt>
      <trkpt lat="48.62279" lon="2.05266">
        <ele>152.2</ele>
        <time>2023-03-05T15:46:48Z</time>
      </trkpt>
      <trkpt lat="48.62278" lon="2.05272">
        <ele>152.6</ele>
        <time>2023-03-05T15:46:49Z</time>
      </trkpt>
      <trkpt lat="48.62277" lon="2.05278">
        <ele>152.8</ele>
        <time>2023-03-05T15:46:50Z</time>
      </trkpt>
      <trkpt lat="48.62276" lon="2.05284">
        <ele>153.2</ele>
        <time>2023-03-05T15:46:51Z</time>
      </trkpt>
      <trkpt lat="48.62275" lon="2.0529">
        <ele>153.4</ele>
        <time>2023-03-05T15:46:52Z</time>
      </trkpt>
      <trkpt lat="48.62273" lon="2.05296">
        <ele>153.6</ele>
        <time>2023-03-05T15:46:53Z</time>
      </trkpt>
      <trkpt lat="48.62272" lon="2.05302">
        <ele>153.8</ele>
        <time>2023-03-05T15:46:54Z</time>
      </trkpt>
      <trkpt lat="48.62271" lon="2.05309">
        <ele>154</ele>
        <time>2023-03-05T15:46:55Z</time>
      </trkpt>
      <trkpt lat="48.6227" lon="2.05315">
        <ele>154.2</ele>
        <time>2023-03-05T15:46:56Z</time>
      </trkpt>
      <trkpt lat="48.62269" lon="2.05322">
        <ele>154.4</ele>
        <time>2023-03-05T15:46:57Z</time>
      </trkpt>
      <trkpt lat="48.62269" lon="2.05329">
        <ele>154.6</ele>
        <time>2023-03-05T15:46:58Z</time>
      </trkpt>
      <trkpt lat="48.62268" lon="2.05336">
        <ele>154.8</ele>
        <time>2023-03-05T15:46:59Z</time>
      </trkpt>
      <trkpt lat="48.62267" lon="2.05344">
        <ele>155</ele>
        <time>2023-03-05T15:47:00Z</time>
      </trkpt>
      <trkpt lat="48.62266" lon="2.05351">
        <ele>155.2</ele>
        <time>2023-03-05T15:47:01Z</time>
      </trkpt>
      <trkpt lat="48.62265" lon="2.05358">
        <ele>155.4</ele>
        <time>2023-03-05T15:47:02Z</time>
      </trkpt>
      <trkpt lat="48.62264" lon="2.05365">
        <ele>155.6</ele>
        <time>2023-03-05T15:47:03Z</time>
      </trkpt>
      <trkpt lat="48.62263" lon="2.05373">
        <ele>155.8</ele>
        <time>2023-03-05T15:47:04Z</time>
      </trkpt>
      <trkpt lat="48.62263" lon="2.0538">
        <ele>156</ele>
        <time>2023-03-05T15:47:05Z</time>
      </trkpt>
      <trkpt lat="48.62262" lon="2.05387">
        <ele>156.2</ele>
        <time>2023-03-05T15:47:06Z</time>
      </trkpt>
      <trkpt lat="48.62261" lon="2.05395">
        <ele>156.2</ele>
        <time>2023-03-05T15:47:07Z</time>
      </trkpt>
      <trkpt lat="48.6226" lon="2.05402">
        <ele>156.4</ele>
        <time>2023-03-05T15:47:08Z</time>
      </trkpt>
      <trkpt lat="48.62259" lon="2.0541">
        <ele>156.6</ele>
        <time>2023-03-05T15:47:09Z</time>
      </trkpt>
      <trkpt lat="48.62259" lon="2.05417">
        <ele>156.8</ele>
        <time>2023-03-05T15:47:10Z</time>
      </trkpt>
      <trkpt lat="48.62257" lon="2.05424">
        <ele>157</ele>
        <time>2023-03-05T15:47:11Z</time>
      </trkpt>
      <trkpt lat="48.62256" lon="2.05431">
        <ele>157</ele>
        <time>2023-03-05T15:47:12Z</time>
      </trkpt>
      <trkpt lat="48.62255" lon="2.05438">
        <ele>157.2</ele>
        <time>2023-03-05T15:47:13Z</time>
      </trkpt>
      <trkpt lat="48.62254" lon="2.05444">
        <ele>157.2</ele>
        <time>2023-03-05T15:47:14Z</time>
      </trkpt>
      <trkpt lat="48.62253" lon="2.05451">
        <ele>157.4</ele>
        <time>2023-03-05T15:47:15Z</time>
      </trkpt>
      <trkpt lat="48.62252" lon="2.05457">
        <ele>157.6</ele>
        <time>2023-03-05T15:47:16Z</time>
      </trkpt>
      <trkpt lat="48.62251" lon="2.05463">
        <ele>157.8</ele>
        <time>2023-03-05T15:47:17Z</time>
      </trkpt>
      <trkpt lat="48.6225" lon="2.05469">
        <ele>158</ele>
        <time>2023-03-05T15:47:18Z</time>
      </trkpt>
      <trkpt lat="48.6225" lon="2.05476">
        <ele>158.2</ele>
        <time>2023-03-05T15:47:19Z</time>
      </trkpt>
      <trkpt lat="48.62249" lon="2.05482">
        <ele>158.4</ele>
        <time>2023-03-05T15:47:20Z</time>
      </trkpt>
      <trkpt lat="48.62249" lon="2.05488">
        <ele>158.6</ele>
        <time>2023-03-05T15:47:21Z</time>
      </trkpt>
      <trkpt lat="48.62248" lon="2.05495">
        <ele>158.8</ele>
        <time>2023-03-05T15:47:22Z</time>
      </trkpt>
      <trkpt lat="48.62248" lon="2.05502">
        <ele>159.2</ele>
        <time>2023-03-05T15:47:23Z</time>
      </trkpt>
      <trkpt lat="48.62247" lon="2.0551">
        <ele>159.4</ele>
        <time>2023-03-05T15:47:24Z</time>
      </trkpt>
      <trkpt lat="48.62246" lon="2.05517">
        <ele>159.6</ele>
        <time>2023-03-05T15:47:25Z</time>
      </trkpt>
      <trkpt lat="48.62245" lon="2.05525">
        <ele>159.8</ele>
        <time>2023-03-05T15:47:26Z</time>
      </trkpt>
      <trkpt lat="48.62245" lon="2.05532">
        <ele>160.2</ele>
        <time>2023-03-05T15:47:27Z</time>
      </trkpt>
      <trkpt lat="48.62245" lon="2.05539">
        <ele>160.4</ele>
        <time>2023-03-05T15:47:28Z</time>
      </trkpt>
      <trkpt lat="48.62244" lon="2.05546">
        <ele>160.6</ele>
        <time>2023-03-05T15:47:29Z</time>
      </trkpt>
      <trkpt lat="48.62244" lon="2.05553">
        <ele>161</ele>
        <time>2023-03-05T15:47:30Z</time>
      </trkpt>
      <trkpt lat="48.62244" lon="2.0556">
        <ele>161.2</ele>
        <time>2023-03-05T15:47:31Z</time>
      </trkpt>
      <trkpt lat="48.62243" lon="2.05567">
        <ele>161.4</ele>
        <time>2023-03-05T15:47:32Z</time>
      </trkpt>
      <trkpt lat="48.62243" lon="2.05575">
        <ele>161.6</ele>
        <time>2023-03-05T15:47:33Z</time>
      </trkpt>
      <trkpt lat="48.62242" lon="2.05582">
        <ele>161.8</ele>
        <time>2023-03-05T15:47:34Z</time>
      </trkpt>
      <trkpt lat="48.62241" lon="2.0559">
        <ele>162</ele>
        <time>2023-03-05T15:47:35Z</time>
      </trkpt>
      <trkpt lat="48.62241" lon="2.05598">
        <ele>162.2</ele>
        <time>2023-03-05T15:47:36Z</time>
      </trkpt>
      <trkpt lat="48.6224" lon="2.05606">
        <ele>162.2</ele>
        <time>2023-03-05T15:47:37Z</time>
      </trkpt>
      <trkpt lat="48.62239" lon="2.05613">
        <ele>162.4</ele>
        <time>2023-03-05T15:47:38Z</time>
      </trkpt>
      <trkpt lat="48.62238" lon="2.05621">
        <ele>162.6</ele>
        <time>2023-03-05T15:47:39Z</time>
      </trkpt>
      <trkpt lat="48.62238" lon="2.05629">
        <ele>162.8</ele>
        <time>2023-03-05T15:47:40Z</time>
      </trkpt>
      <trkpt lat="48.62237" lon="2.05637">
        <ele>163</ele>
        <time>2023-03-05T15:47:41Z</time>
      </trkpt>
      <trkpt lat="48.62237" lon="2.05644">
        <ele>163.4</ele>
        <time>2023-03-05T15:47:42Z</time>
      </trkpt>
      <trkpt lat="48.62236" lon="2.05651">
        <ele>163.4</ele>
        <time>2023-03-05T15:47:43Z</time>
      </trkpt>
      <trkpt lat="48.62236" lon="2.05658">
        <ele>163.6</ele>
        <time>2023-03-05T15:47:44Z</time>
      </trkpt>
      <trkpt lat="48.62235" lon="2.05665">
        <ele>163.8</ele>
        <time>2023-03-05T15:47:45Z</time>
      </trkpt>
      <trkpt lat="48.62235" lon="2.05672">
        <ele>164</ele>
        <time>2023-03-05T15:47:46Z</time>
      </trkpt>
      <trkpt lat="48.62233" lon="2.05678">
        <ele>164.2</ele>
        <time>2023-03-05T15:47:47Z</time>
      </trkpt>
      <trkpt lat="48.62233" lon="2.05684">
        <ele>164.2</ele>
        <time>2023-03-05T15:47:48Z</time>
      </trkpt>
      <trkpt lat="48.62231" lon="2.0569">
        <ele>164.4</ele>
        <time>2023-03-05T15:47:49Z</time>
      </trkpt>
      <trkpt lat="48.62231" lon="2.05696">
        <ele>164.4</ele>
        <time>2023-03-05T15:47:50Z</time>
      </trkpt>
      <trkpt lat="48.62229" lon="2.05702">
        <ele>164.4</ele>
        <time>2023-03-05T15:47:51Z</time>
      </trkpt>
      <trkpt lat="48.62228" lon="2.05709">
        <ele>164.6</ele>
        <time>2023-03-05T15:47:52Z</time>
      </trkpt>
      <trkpt lat="48.62228" lon="2.05715">
        <ele>164.6</ele>
        <time>2023-03-05T15:47:53Z</time>
      </trkpt>
      <trkpt lat="48.62227" lon="2.05722">
        <ele>164.6</ele>
        <time>2023-03-05T15:47:54Z</time>
      </trkpt>
      <trkpt lat="48.62227" lon="2.0573">
        <ele>164.8</ele>
        <time>2023-03-05T15:47:55Z</time>
      </trkpt>
      <trkpt lat="48.62227" lon="2.05738">
        <ele>164.8</ele>
        <time>2023-03-05T15:47:56Z</time>
      </trkpt>
      <trkpt lat="48.62228" lon="2.05746">
        <ele>164.8</ele>
        <time>2023-03-05T15:47:57Z</time>
      </trkpt>
      <trkpt lat="48.62229" lon="2.05754">
        <ele>165</ele>
        <time>2023-03-05T15:47:58Z</time>
      </trkpt>
      <trkpt lat="48.6223" lon="2.05761">
        <ele>165</ele>
        <time>2023-03-05T15:47:59Z</time>
      </trkpt>
      <trkpt lat="48.62232" lon="2.05769">
        <ele>165</ele>
        <time>2023-03-05T15:48:00Z</time>
      </trkpt>
      <trkpt lat="48.62235" lon="2.05776">
        <ele>165</ele>
        <time>2023-03-05T15:48:01Z</time>
      </trkpt>
      <trkpt lat="48.62237" lon="2.05782">
        <ele>165.2</ele>
        <time>2023-03-05T15:48:02Z</time>
      </trkpt>
      <trkpt lat="48.6224" lon="2.05789">
        <ele>165.2</ele>
        <time>2023-03-05T15:48:03Z</time>
      </trkpt>
      <trkpt lat="48.62243" lon="2.05795">
        <ele>165.2</ele>
        <time>2023-03-05T15:48:04Z</time>
      </trkpt>
      <trkpt lat="48.62245" lon="2.05801">
        <ele>165.2</ele>
        <time>2023-03-05T15:48:05Z</time>
      </trkpt>
      <trkpt lat="48.62247" lon="2.05807">
        <ele>165.2</ele>
        <time>2023-03-05T15:48:06Z</time>
      </trkpt>
      <trkpt lat="48.6225" lon="2.05813">
        <ele>165</ele>
        <time>2023-03-05T15:48:07Z</time>
      </trkpt>
      <trkpt lat="48.62252" lon="2.05818">
        <ele>165</ele>
        <time>2023-03-05T15:48:08Z</time>
      </trkpt>
      <trkpt lat="48.62254" lon="2.05823">
        <ele>165</ele>
        <time>2023-03-05T15:48:09Z</time>
      </trkpt>
      <trkpt lat="48.62256" lon="2.05828">
        <ele>165</ele>
        <time>2023-03-05T15:48:10Z</time>
      </trkpt>
      <trkpt lat="48.62258" lon="2.05833">
        <ele>165</ele>
        <time>2023-03-05T15:48:11Z</time>
      </trkpt>
      <trkpt lat="48.6226" lon="2.05838">
        <ele>165</ele>
        <time>2023-03-05T15:48:12Z</time>
      </trkpt>
      <trkpt lat="48.62262" lon="2.05843">
        <ele>164.8</ele>
        <time>2023-03-05T15:48:13Z</time>
      </trkpt>
      <trkpt lat="48.62263" lon="2.05847">
        <ele>164.8</ele>
        <time>2023-03-05T15:48:14Z</time>
      </trkpt>
      <trkpt lat="48.62265" lon="2.05852">
        <ele>164.6</ele>
        <time>2023-03-05T15:48:15Z</time>
      </trkpt>
      <trkpt lat="48.62267" lon="2.05856">
        <ele>164.6</ele>
        <time>2023-03-05T15:48:16Z</time>
      </trkpt>
      <trkpt lat="48.62268" lon="2.05861">
        <ele>164.6</ele>
        <time>2023-03-05T15:48:17Z</time>
      </trkpt>
      <trkpt lat="48.62269" lon="2.05866">
        <ele>164.4</ele>
        <time>2023-03-05T15:48:18Z</time>
      </trkpt>
      <trkpt lat="48.6227" lon="2.0587">
        <ele>164.4</ele>
        <time>2023-03-05T15:48:19Z</time>
      </trkpt>
      <trkpt lat="48.62272" lon="2.05875">
        <ele>164.2</ele>
        <time>2023-03-05T15:48:20Z</time>
      </trkpt>
      <trkpt lat="48.62273" lon="2.0588">
        <ele>164.2</ele>
        <time>2023-03-05T15:48:21Z</time>
      </trkpt>
      <trkpt lat="48.62274" lon="2.05884">
        <ele>164</ele>
        <time>2023-03-05T15:48:22Z</time>
      </trkpt>
      <trkpt lat="48.62276" lon="2.05889">
        <ele>163.8</ele>
        <time>2023-03-05T15:48:23Z</time>
      </trkpt>
      <trkpt lat="48.62277" lon="2.05893">
        <ele>163.8</ele>
        <time>2023-03-05T15:48:24Z</time>
      </trkpt>
      <trkpt lat="48.62278" lon="2.05898">
        <ele>163.8</ele>
        <time>2023-03-05T15:48:25Z</time>
      </trkpt>
      <trkpt lat="48.6228" lon="2.05902">
        <ele>163.6</ele>
        <time>2023-03-05T15:48:26Z</time>
      </trkpt>
      <trkpt lat="48.62281" lon="2.05907">
        <ele>163.6</ele>
        <time>2023-03-05T15:48:27Z</time>
      </trkpt>
      <trkpt lat="48.62282" lon="2.05911">
        <ele>163.6</ele>
        <time>2023-03-05T15:48:28Z</time>
      </trkpt>
      <trkpt lat="48.62283" lon="2.05916">
        <ele>163.4</ele>
        <time>2023-03-05T15:48:29Z</time>
      </trkpt>
      <trkpt lat="48.62283" lon="2.05921">
        <ele>163.4</ele>
        <time>2023-03-05T15:48:30Z</time>
      </trkpt>
      <trkpt lat="48.62284" lon="2.05925">
        <ele>163.2</ele>
        <time>2023-03-05T15:48:31Z</time>
      </trkpt>
      <trkpt lat="48.62285" lon="2.0593">
        <ele>163.2</ele>
        <time>2023-03-05T15:48:32Z</time>
      </trkpt>
      <trkpt lat="48.62286" lon="2.05934">
        <ele>163.2</ele>
        <time>2023-03-05T15:48:33Z</time>
      </trkpt>
      <trkpt lat="48.62287" lon="2.05938">
        <ele>163.4</ele>
        <time>2023-03-05T15:48:34Z</time>
      </trkpt>
      <trkpt lat="48.62288" lon="2.05941">
        <ele>163.4</ele>
        <time>2023-03-05T15:48:35Z</time>
      </trkpt>
      <trkpt lat="48.62289" lon="2.05944">
        <ele>163.4</ele>
        <time>2023-03-05T15:48:36Z</time>
      </trkpt>
      <trkpt lat="48.6229" lon="2.05947">
        <ele>163.2</ele>
        <time>2023-03-05T15:48:37Z</time>
      </trkpt>
      <trkpt lat="48.62291" lon="2.05952">
        <ele>163.2</ele>
        <time>2023-03-05T15:48:39Z</time>
      </trkpt>
      <trkpt lat="48.62292" lon="2.05956">
        <ele>163.2</ele>
        <time>2023-03-05T15:48:41Z</time>
      </trkpt>
      <trkpt lat="48.62293" lon="2.0596">
        <ele>163.2</ele>
        <time>2023-03-05T15:48:43Z</time>
      </trkpt>
      <trkpt lat="48.62294" lon="2.05964">
        <ele>163</ele>
        <time>2023-03-05T15:48:45Z</time>
      </trkpt>
      <trkpt lat="48.62295" lon="2.05968">
        <ele>163</ele>
        <time>2023-03-05T15:48:47Z</time>
      </trkpt>
      <trkpt lat="48.62296" lon="2.05972">
        <ele>163</ele>
        <time>2023-03-05T15:48:49Z</time>
      </trkpt>
      <trkpt lat="48.62297" lon="2.05977">
        <ele>162.8</ele>
        <time>2023-03-05T15:48:51Z</time>
      </trkpt>
      <trkpt lat="48.62298" lon="2.05981">
        <ele>162.8</ele>
        <time>2023-03-05T15:48:53Z</time>
      </trkpt>
      <trkpt lat="48.62299" lon="2.05986">
        <ele>162.8</ele>
        <time>2023-03-05T15:48:55Z</time>
      </trkpt>
      <trkpt lat="48.623" lon="2.0599">
        <ele>162.8</ele>
        <time>2023-03-05T15:48:57Z</time>
      </trkpt>
      <trkpt lat="48.62301" lon="2.05994">
        <ele>162.8</ele>
        <time>2023-03-05T15:48:59Z</time>
      </trkpt>
      <trkpt lat="48.62302" lon="2.05998">
        <ele>162.6</ele>
        <time>2023-03-05T15:49:01Z</time>
      </trkpt>
      <trkpt lat="48.62304" lon="2.06002">
        <ele>162.6</ele>
        <time>2023-03-05T15:49:03Z</time>
      </trkpt>
      <trkpt lat="48.62306" lon="2.06006">
        <ele>162.4</ele>
        <time>2023-03-05T15:49:05Z</time>
      </trkpt>
      <trkpt lat="48.62307" lon="2.0601">
        <ele>162.4</ele>
        <time>2023-03-05T15:49:07Z</time>
      </trkpt>
      <trkpt lat="48.62309" lon="2.06015">
        <ele>162.2</ele>
        <time>2023-03-05T15:49:09Z</time>
      </trkpt>
      <trkpt lat="48.6231" lon="2.06019">
        <ele>162.2</ele>
        <time>2023-03-05T15:49:11Z</time>
      </trkpt>
      <trkpt lat="48.62312" lon="2.06024">
        <ele>162</ele>
        <time>2023-03-05T15:49:13Z</time>
      </trkpt>
      <trkpt lat="48.62314" lon="2.06028">
        <ele>162</ele>
        <time>2023-03-05T15:49:15Z</time>
      </trkpt>
      <trkpt lat="48.62316" lon="2.06032">
        <ele>161.8</ele>
        <time>2023-03-05T15:49:17Z</time>
      </trkpt>
      <trkpt lat="48.62316" lon="2.06036">
        <ele>161.6</ele>
        <time>2023-03-05T15:49:19Z</time>
      </trkpt>
      <trkpt lat="48.62318" lon="2.06041">
        <ele>161.6</ele>
        <time>2023-03-05T15:49:21Z</time>
      </trkpt>
      <trkpt lat="48.62319" lon="2.06046">
        <ele>161.4</ele>
        <time>2023-03-05T15:49:23Z</time>
      </trkpt>
      <trkpt lat="48.6232" lon="2.06048">
        <ele>161.4</ele>
        <time>2023-03-05T15:49:24Z</time>
      </trkpt>
      <trkpt lat="48.62322" lon="2.06052">
        <ele>161.2</ele>
        <time>2023-03-05T15:49:26Z</time>
      </trkpt>
      <trkpt lat="48.62324" lon="2.06057">
        <ele>161</ele>
        <time>2023-03-05T15:49:28Z</time>
      </trkpt>
      <trkpt lat="48.62325" lon="2.06061">
        <ele>161</ele>
        <time>2023-03-05T15:49:30Z</time>
      </trkpt>
      <trkpt lat="48.62326" lon="2.06065">
        <ele>161</ele>
        <time>2023-03-05T15:49:32Z</time>
      </trkpt>
      <trkpt lat="48.62327" lon="2.0607">
        <ele>161</ele>
        <time>2023-03-05T15:49:34Z</time>
      </trkpt>
      <trkpt lat="48.62328" lon="2.06074">
        <ele>161</ele>
        <time>2023-03-05T15:49:36Z</time>
      </trkpt>
      <trkpt lat="48.6233" lon="2.06079">
        <ele>160.8</ele>
        <time>2023-03-05T15:49:38Z</time>
      </trkpt>
      <trkpt lat="48.62331" lon="2.06083">
        <ele>160.8</ele>
        <time>2023-03-05T15:49:40Z</time>
      </trkpt>
      <trkpt lat="48.62332" lon="2.06088">
        <ele>160.6</ele>
        <time>2023-03-05T15:49:42Z</time>
      </trkpt>
      <trkpt lat="48.62333" lon="2.06093">
        <ele>160.6</ele>
        <time>2023-03-05T15:49:44Z</time>
      </trkpt>
      <trkpt lat="48.62334" lon="2.06097">
        <ele>160.4</ele>
        <time>2023-03-05T15:49:46Z</time>
      </trkpt>
      <trkpt lat="48.62335" lon="2.06101">
        <ele>160.4</ele>
        <time>2023-03-05T15:49:48Z</time>
      </trkpt>
      <trkpt lat="48.62336" lon="2.06105">
        <ele>160.2</ele>
        <time>2023-03-05T15:49:50Z</time>
      </trkpt>
      <trkpt lat="48.62337" lon="2.06107">
        <ele>160.2</ele>
        <time>2023-03-05T15:49:52Z</time>
      </trkpt>
      <trkpt lat="48.6234" lon="2.06109">
        <ele>160.2</ele>
        <time>2023-03-05T15:49:54Z</time>
      </trkpt>
      <trkpt lat="48.62343" lon="2.06107">
        <ele>160.2</ele>
        <time>2023-03-05T15:49:56Z</time>
      </trkpt>
      <trkpt lat="48.62345" lon="2.06106">
        <ele>160.2</ele>
        <time>2023-03-05T15:49:57Z</time>
      </trkpt>
      <trkpt lat="48.62348" lon="2.06105">
        <ele>160.2</ele>
        <time>2023-03-05T15:49:58Z</time>
      </trkpt>
      <trkpt lat="48.6235" lon="2.06103">
        <ele>160.4</ele>
        <time>2023-03-05T15:49:59Z</time>
      </trkpt>
      <trkpt lat="48.62353" lon="2.06101">
        <ele>160.4</ele>
        <time>2023-03-05T15:50:00Z</time>
      </trkpt>
      <trkpt lat="48.62356" lon="2.06099">
        <ele>160.4</ele>
        <time>2023-03-05T15:50:01Z</time>
      </trkpt>
      <trkpt lat="48.62358" lon="2.06097">
        <ele>160.4</ele>
        <time>2023-03-05T15:50:02Z</time>
      </trkpt>
      <trkpt lat="48.62361" lon="2.06095">
        <ele>160.4</ele>
        <time>2023-03-05T15:50:03Z</time>
      </trkpt>
      <trkpt lat="48.62364" lon="2.06093">
        <ele>160.4</ele>
        <time>2023-03-05T15:50:04Z</time>
      </trkpt>
      <trkpt lat="48.62368" lon="2.0609">
        <ele>160.4</ele>
        <time>2023-03-05T15:50:05Z</time>
      </trkpt>
      <trkpt lat="48.62371" lon="2.06087">
        <ele>160.4</ele>
        <time>2023-03-05T15:50:06Z</time>
      </trkpt>
      <trkpt lat="48.62374" lon="2.06085">
        <ele>160.4</ele>
        <time>2023-03-05T15:50:07Z</time>
      </trkpt>
      <trkpt lat="48.62378" lon="2.06082">
        <ele>160.2</ele>
        <time>2023-03-05T15:50:08Z</time>
      </trkpt>
      <trkpt lat="48.62381" lon="2.06079">
        <ele>160.2</ele>
        <time>2023-03-05T15:50:09Z</time>
      </trkpt>
      <trkpt lat="48.62385" lon="2.06076">
        <ele>160.2</ele>
        <time>2023-03-05T15:50:10Z</time>
      </trkpt>
      <trkpt lat="48.62389" lon="2.06072">
        <ele>160.2</ele>
        <time>2023-03-05T15:50:11Z</time>
      </trkpt>
      <trkpt lat="48.62393" lon="2.06069">
        <ele>160.2</ele>
        <time>2023-03-05T15:50:12Z</time>
      </trkpt>
      <trkpt lat="48.62398" lon="2.06065">
        <ele>160.2</ele>
        <time>2023-03-05T15:50:13Z</time>
      </trkpt>
      <trkpt lat="48.62402" lon="2.06062">
        <ele>160</ele>
        <time>2023-03-05T15:50:14Z</time>
      </trkpt>
      <trkpt lat="48.62406" lon="2.06058">
        <ele>160</ele>
        <time>2023-03-05T15:50:15Z</time>
      </trkpt>
      <trkpt lat="48.62411" lon="2.06054">
        <ele>160</ele>
        <time>2023-03-05T15:50:16Z</time>
      </trkpt>
      <trkpt lat="48.62415" lon="2.0605">
        <ele>160</ele>
        <time>2023-03-05T15:50:17Z</time>
      </trkpt>
      <trkpt lat="48.6242" lon="2.06045">
        <ele>160</ele>
        <time>2023-03-05T15:50:18Z</time>
      </trkpt>
      <trkpt lat="48.62424" lon="2.06041">
        <ele>160</ele>
        <time>2023-03-05T15:50:19Z</time>
      </trkpt>
      <trkpt lat="48.62429" lon="2.06036">
        <ele>159.8</ele>
        <time>2023-03-05T15:50:20Z</time>
      </trkpt>
      <trkpt lat="48.62434" lon="2.06031">
        <ele>159.8</ele>
        <time>2023-03-05T15:50:21Z</time>
      </trkpt>
      <trkpt lat="48.62439" lon="2.06026">
        <ele>159.8</ele>
        <time>2023-03-05T15:50:22Z</time>
      </trkpt>
      <trkpt lat="48.62444" lon="2.0602">
        <ele>159.8</ele>
        <time>2023-03-05T15:50:23Z</time>
      </trkpt>
      <trkpt lat="48.62448" lon="2.06015">
        <ele>159.8</ele>
        <time>2023-03-05T15:50:24Z</time>
      </trkpt>
      <trkpt lat="48.62453" lon="2.06009">
        <ele>159.6</ele>
        <time>2023-03-05T15:50:25Z</time>
      </trkpt>
      <trkpt lat="48.62458" lon="2.06004">
        <ele>159.6</ele>
        <time>2023-03-05T15:50:26Z</time>
      </trkpt>
      <trkpt lat="48.62463" lon="2.05998">
        <ele>159.6</ele>
        <time>2023-03-05T15:50:27Z</time>
      </trkpt>
      <trkpt lat="48.62468" lon="2.05993">
        <ele>159.4</ele>
        <time>2023-03-05T15:50:28Z</time>
      </trkpt>
      <trkpt lat="48.62472" lon="2.05987">
        <ele>159.4</ele>
        <time>2023-03-05T15:50:29Z</time>
      </trkpt>
      <trkpt lat="48.62477" lon="2.05982">
        <ele>159.4</ele>
        <time>2023-03-05T15:50:30Z</time>
      </trkpt>
      <trkpt lat="48.62482" lon="2.05976">
        <ele>159.4</ele>
        <time>2023-03-05T15:50:31Z</time>
      </trkpt>
      <trkpt lat="48.62487" lon="2.05971">
        <ele>159.4</ele>
        <time>2023-03-05T15:50:32Z</time>
      </trkpt>
      <trkpt lat="48.62492" lon="2.05966">
        <ele>159.2</ele>
        <time>2023-03-05T15:50:33Z</time>
      </trkpt>
      <trkpt lat="48.62497" lon="2.0596">
        <ele>159.2</ele>
        <time>2023-03-05T15:50:34Z</time>
      </trkpt>
      <trkpt lat="48.62502" lon="2.05955">
        <ele>159.2</ele>
        <time>2023-03-05T15:50:35Z</time>
      </trkpt>
      <trkpt lat="48.62507" lon="2.05949">
        <ele>159.2</ele>
        <time>2023-03-05T15:50:36Z</time>
      </trkpt>
      <trkpt lat="48.62513" lon="2.05944">
        <ele>159.2</ele>
        <time>2023-03-05T15:50:37Z</time>
      </trkpt>
      <trkpt lat="48.62518" lon="2.05939">
        <ele>159.2</ele>
        <time>2023-03-05T15:50:38Z</time>
      </trkpt>
      <trkpt lat="48.62523" lon="2.05935">
        <ele>159</ele>
        <time>2023-03-05T15:50:39Z</time>
      </trkpt>
      <trkpt lat="48.62529" lon="2.0593">
        <ele>159</ele>
        <time>2023-03-05T15:50:40Z</time>
      </trkpt>
      <trkpt lat="48.62534" lon="2.05926">
        <ele>159</ele>
        <time>2023-03-05T15:50:41Z</time>
      </trkpt>
      <trkpt lat="48.6254" lon="2.05922">
        <ele>158.8</ele>
        <time>2023-03-05T15:50:42Z</time>
      </trkpt>
      <trkpt lat="48.62545" lon="2.05918">
        <ele>158.8</ele>
        <time>2023-03-05T15:50:43Z</time>
      </trkpt>
      <trkpt lat="48.6255" lon="2.05914">
        <ele>158.8</ele>
        <time>2023-03-05T15:50:44Z</time>
      </trkpt>
      <trkpt lat="48.62556" lon="2.05911">
        <ele>158.8</ele>
        <time>2023-03-05T15:50:45Z</time>
      </trkpt>
      <trkpt lat="48.62561" lon="2.05907">
        <ele>158.8</ele>
        <time>2023-03-05T15:50:46Z</time>
      </trkpt>
      <trkpt lat="48.62567" lon="2.05903">
        <ele>158.8</ele>
        <time>2023-03-05T15:50:47Z</time>
      </trkpt>
      <trkpt lat="48.62572" lon="2.059">
        <ele>158.8</ele>
        <time>2023-03-05T15:50:48Z</time>
      </trkpt>
      <trkpt lat="48.62579" lon="2.05896">
        <ele>158.8</ele>
        <time>2023-03-05T15:50:49Z</time>
      </trkpt>
      <trkpt lat="48.62584" lon="2.05892">
        <ele>158.8</ele>
        <time>2023-03-05T15:50:50Z</time>
      </trkpt>
      <trkpt lat="48.6259" lon="2.05888">
        <ele>158.8</ele>
        <time>2023-03-05T15:50:51Z</time>
      </trkpt>
      <trkpt lat="48.62596" lon="2.05884">
        <ele>158.8</ele>
        <time>2023-03-05T15:50:52Z</time>
      </trkpt>
      <trkpt lat="48.62602" lon="2.0588">
        <ele>159</ele>
        <time>2023-03-05T15:50:53Z</time>
      </trkpt>
      <trkpt lat="48.62607" lon="2.05876">
        <ele>159</ele>
        <time>2023-03-05T15:50:54Z</time>
      </trkpt>
      <trkpt lat="48.62613" lon="2.05872">
        <ele>159</ele>
        <time>2023-03-05T15:50:55Z</time>
      </trkpt>
      <trkpt lat="48.62618" lon="2.05868">
        <ele>159</ele>
        <time>2023-03-05T15:50:56Z</time>
      </trkpt>
      <trkpt lat="48.62624" lon="2.05864">
        <ele>159</ele>
        <time>2023-03-05T15:50:57Z</time>
      </trkpt>
      <trkpt lat="48.62629" lon="2.0586">
        <ele>159</ele>
        <time>2023-03-05T15:50:58Z</time>
      </trkpt>
      <trkpt lat="48.62634" lon="2.05856">
        <ele>159</ele>
        <time>2023-03-05T15:50:59Z</time>
      </trkpt>
      <trkpt lat="48.62639" lon="2.05853">
        <ele>159</ele>
        <time>2023-03-05T15:51:00Z</time>
      </trkpt>
      <trkpt lat="48.62644" lon="2.05849">
        <ele>159</ele>
        <time>2023-03-05T15:51:01Z</time>
      </trkpt>
      <trkpt lat="48.6265" lon="2.05845">
        <ele>159</ele>
        <time>2023-03-05T15:51:02Z</time>
      </trkpt>
      <trkpt lat="48.62654" lon="2.05841">
        <ele>159</ele>
        <time>2023-03-05T15:51:03Z</time>
      </trkpt>
      <trkpt lat="48.62659" lon="2.05837">
        <ele>158.8</ele>
        <time>2023-03-05T15:51:04Z</time>
      </trkpt>
      <trkpt lat="48.62664" lon="2.05833">
        <ele>158.8</ele>
        <time>2023-03-05T15:51:05Z</time>
      </trkpt>
      <trkpt lat="48.62668" lon="2.05828">
        <ele>158.6</ele>
        <time>2023-03-05T15:51:06Z</time>
      </trkpt>
      <trkpt lat="48.62673" lon="2.05824">
        <ele>158.6</ele>
        <time>2023-03-05T15:51:07Z</time>
      </trkpt>
      <trkpt lat="48.62677" lon="2.05819">
        <ele>158.6</ele>
        <time>2023-03-05T15:51:08Z</time>
      </trkpt>
      <trkpt lat="48.62681" lon="2.05815">
        <ele>158.4</ele>
        <time>2023-03-05T15:51:09Z</time>
      </trkpt>
      <trkpt lat="48.62685" lon="2.05811">
        <ele>158.4</ele>
        <time>2023-03-05T15:51:10Z</time>
      </trkpt>
      <trkpt lat="48.62689" lon="2.05807">
        <ele>158.4</ele>
        <time>2023-03-05T15:51:11Z</time>
      </trkpt>
      <trkpt lat="48.62692" lon="2.05803">
        <ele>158.4</ele>
        <time>2023-03-05T15:51:12Z</time>
      </trkpt>
      <trkpt lat="48.62695" lon="2.05799">
        <ele>158.4</ele>
        <time>2023-03-05T15:51:13Z</time>
      </trkpt>
      <trkpt lat="48.62698" lon="2.05796">
        <ele>158.6</ele>
        <time>2023-03-05T15:51:14Z</time>
      </trkpt>
      <trkpt lat="48.62701" lon="2.05792">
        <ele>158.6</ele>
        <time>2023-03-05T15:51:15Z</time>
      </trkpt>
      <trkpt lat="48.62704" lon="2.05789">
        <ele>158.6</ele>
        <time>2023-03-05T15:51:16Z</time>
      </trkpt>
      <trkpt lat="48.62706" lon="2.05786">
        <ele>158.8</ele>
        <time>2023-03-05T15:51:17Z</time>
      </trkpt>
      <trkpt lat="48.62708" lon="2.05783">
        <ele>158.8</ele>
        <time>2023-03-05T15:51:18Z</time>
      </trkpt>
      <trkpt lat="48.6271" lon="2.0578">
        <ele>159</ele>
        <time>2023-03-05T15:51:19Z</time>
      </trkpt>
      <trkpt lat="48.62711" lon="2.05778">
        <ele>159</ele>
        <time>2023-03-05T15:51:20Z</time>
      </trkpt>
      <trkpt lat="48.62713" lon="2.05776">
        <ele>159.2</ele>
        <time>2023-03-05T15:51:21Z</time>
      </trkpt>
      <trkpt lat="48.62715" lon="2.05772">
        <ele>159.2</ele>
        <time>2023-03-05T15:51:23Z</time>
      </trkpt>
      <trkpt lat="48.62717" lon="2.05768">
        <ele>159.4</ele>
        <time>2023-03-05T15:51:25Z</time>
      </trkpt>
      <trkpt lat="48.62719" lon="2.05764">
        <ele>159.4</ele>
        <time>2023-03-05T15:51:27Z</time>
      </trkpt>
      <trkpt lat="48.62722" lon="2.05761">
        <ele>159.4</ele>
        <time>2023-03-05T15:51:29Z</time>
      </trkpt>
      <trkpt lat="48.62724" lon="2.05757">
        <ele>159.6</ele>
        <time>2023-03-05T15:51:31Z</time>
      </trkpt>
      <trkpt lat="48.62727" lon="2.05754">
        <ele>159.6</ele>
        <time>2023-03-05T15:51:33Z</time>
      </trkpt>
      <trkpt lat="48.62729" lon="2.0575">
        <ele>159.8</ele>
        <time>2023-03-05T15:51:35Z</time>
      </trkpt>
      <trkpt lat="48.62731" lon="2.05747">
        <ele>160</ele>
        <time>2023-03-05T15:51:37Z</time>
      </trkpt>
      <trkpt lat="48.62734" lon="2.05745">
        <ele>160.2</ele>
        <time>2023-03-05T15:51:39Z</time>
      </trkpt>
      <trkpt lat="48.62736" lon="2.05745">
        <ele>160.2</ele>
        <time>2023-03-05T15:51:41Z</time>
      </trkpt>
      <trkpt lat="48.62739" lon="2.05748">
        <ele>160.6</ele>
        <time>2023-03-05T15:51:43Z</time>
      </trkpt>
      <trkpt lat="48.62741" lon="2.05752">
        <ele>160.6</ele>
        <time>2023-03-05T15:51:45Z</time>
      </trkpt>
      <trkpt lat="48.62742" lon="2.05755">
        <ele>160.8</ele>
        <time>2023-03-05T15:51:46Z</time>
      </trkpt>
      <trkpt lat="48.62743" lon="2.05757">
        <ele>160.8</ele>
        <time>2023-03-05T15:51:47Z</time>
      </trkpt>
      <trkpt lat="48.62744" lon="2.05759">
        <ele>160.8</ele>
        <time>2023-03-05T15:51:48Z</time>
      </trkpt>
      <trkpt lat="48.62745" lon="2.05762">
        <ele>161</ele>
        <time>2023-03-05T15:51:49Z</time>
      </trkpt>
      <trkpt lat="48.62746" lon="2.05766">
        <ele>161</ele>
        <time>2023-03-05T15:51:51Z</time>
      </trkpt>
      <trkpt lat="48.62747" lon="2.05769">
        <ele>161.2</ele>
        <time>2023-03-05T15:51:52Z</time>
      </trkpt>
      <trkpt lat="48.62748" lon="2.05774">
        <ele>161.2</ele>
        <time>2023-03-05T15:51:54Z</time>
      </trkpt>
      <trkpt lat="48.62749" lon="2.05778">
        <ele>161.2</ele>
        <time>2023-03-05T15:51:56Z</time>
      </trkpt>
      <trkpt lat="48.6275" lon="2.05783">
        <ele>161.4</ele>
        <time>2023-03-05T15:51:58Z</time>
      </trkpt>
      <trkpt lat="48.62752" lon="2.05787">
        <ele>161.6</ele>
        <time>2023-03-05T15:52:00Z</time>
      </trkpt>
      <trkpt lat="48.62753" lon="2.05792">
        <ele>161.8</ele>
        <time>2023-03-05T15:52:02Z</time>
      </trkpt>
      <trkpt lat="48.62755" lon="2.05796">
        <ele>162</ele>
        <time>2023-03-05T15:52:04Z</time>
      </trkpt>
      <trkpt lat="48.62756" lon="2.058">
        <ele>162</ele>
        <time>2023-03-05T15:52:06Z</time>
      </trkpt>
      <trkpt lat="48.62758" lon="2.05805">
        <ele>162</ele>
        <time>2023-03-05T15:52:08Z</time>
      </trkpt>
      <trkpt lat="48.62759" lon="2.05809">
        <ele>162</ele>
        <time>2023-03-05T15:52:10Z</time>
      </trkpt>
      <trkpt lat="48.62761" lon="2.05813">
        <ele>162.2</ele>
        <time>2023-03-05T15:52:12Z</time>
      </trkpt>
      <trkpt lat="48.62762" lon="2.05818">
        <ele>162.4</ele>
        <time>2023-03-05T15:52:14Z</time>
      </trkpt>
      <trkpt lat="48.62763" lon="2.0582">
        <ele>162.4</ele>
        <time>2023-03-05T15:52:15Z</time>
      </trkpt>
      <trkpt lat="48.62764" lon="2.05824">
        <ele>162.6</ele>
        <time>2023-03-05T15:52:17Z</time>
      </trkpt>
      <trkpt lat="48.62764" lon="2.05829">
        <ele>162.6</ele>
        <time>2023-03-05T15:52:19Z</time>
      </trkpt>
      <trkpt lat="48.62765" lon="2.05833">
        <ele>162.6</ele>
        <time>2023-03-05T15:52:21Z</time>
      </trkpt>
      <trkpt lat="48.62766" lon="2.05838">
        <ele>162.4</ele>
        <time>2023-03-05T15:52:23Z</time>
      </trkpt>
      <trkpt lat="48.62767" lon="2.05842">
        <ele>162.4</ele>
        <time>2023-03-05T15:52:25Z</time>
      </trkpt>
      <trkpt lat="48.62768" lon="2.05847">
        <ele>162.6</ele>
        <time>2023-03-05T15:52:27Z</time>
      </trkpt>
      <trkpt lat="48.62769" lon="2.05851">
        <ele>162.6</ele>
        <time>2023-03-05T15:52:29Z</time>
      </trkpt>
      <trkpt lat="48.62771" lon="2.05856">
        <ele>162.6</ele>
        <time>2023-03-05T15:52:31Z</time>
      </trkpt>
      <trkpt lat="48.62771" lon="2.0586">
        <ele>162.4</ele>
        <time>2023-03-05T15:52:33Z</time>
      </trkpt>
      <trkpt lat="48.62772" lon="2.05864">
        <ele>162.4</ele>
        <time>2023-03-05T15:52:35Z</time>
      </trkpt>
      <trkpt lat="48.62773" lon="2.05869">
        <ele>162.4</ele>
        <time>2023-03-05T15:52:37Z</time>
      </trkpt>
      <trkpt lat="48.62774" lon="2.05872">
        <ele>162.4</ele>
        <time>2023-03-05T15:52:39Z</time>
      </trkpt>
      <trkpt lat="48.62774" lon="2.05876">
        <ele>162.4</ele>
        <time>2023-03-05T15:52:41Z</time>
      </trkpt>
      <trkpt lat="48.62775" lon="2.05879">
        <ele>162.2</ele>
        <time>2023-03-05T15:52:43Z</time>
      </trkpt>
      <trkpt lat="48.62775" lon="2.05883">
        <ele>162.4</ele>
        <time>2023-03-05T15:52:45Z</time>
      </trkpt>
      <trkpt lat="48.62775" lon="2.05888">
        <ele>162.4</ele>
        <time>2023-03-05T15:52:47Z</time>
      </trkpt>
      <trkpt lat="48.62776" lon="2.05892">
        <ele>162.2</ele>
        <time>2023-03-05T15:52:49Z</time>
      </trkpt>
      <trkpt lat="48.62776" lon="2.05897">
        <ele>162.4</ele>
        <time>2023-03-05T15:52:51Z</time>
      </trkpt>
      <trkpt lat="48.62776" lon="2.05901">
        <ele>162.4</ele>
        <time>2023-03-05T15:52:53Z</time>
      </trkpt>
      <trkpt lat="48.62776" lon="2.05906">
        <ele>162.4</ele>
        <time>2023-03-05T15:52:55Z</time>
      </trkpt>
      <trkpt lat="48.62777" lon="2.05911">
        <ele>162.4</ele>
        <time>2023-03-05T15:52:57Z</time>
      </trkpt>
      <trkpt lat="48.62777" lon="2.05915">
        <ele>162.4</ele>
        <time>2023-03-05T15:52:59Z</time>
      </trkpt>
      <trkpt lat="48.62777" lon="2.0592">
        <ele>162.4</ele>
        <time>2023-03-05T15:53:01Z</time>
      </trkpt>
      <trkpt lat="48.62778" lon="2.05925">
        <ele>162.4</ele>
        <time>2023-03-05T15:53:03Z</time>
      </trkpt>
      <trkpt lat="48.62779" lon="2.0593">
        <ele>162.2</ele>
        <time>2023-03-05T15:53:05Z</time>
      </trkpt>
      <trkpt lat="48.62779" lon="2.05935">
        <ele>162.2</ele>
        <time>2023-03-05T15:53:07Z</time>
      </trkpt>
      <trkpt lat="48.62779" lon="2.0594">
        <ele>162.4</ele>
        <time>2023-03-05T15:53:09Z</time>
      </trkpt>
      <trkpt lat="48.62779" lon="2.05945">
        <ele>162.4</ele>
        <time>2023-03-05T15:53:11Z</time>
      </trkpt>
      <trkpt lat="48.62779" lon="2.0595">
        <ele>162.4</ele>
        <time>2023-03-05T15:53:13Z</time>
      </trkpt>
      <trkpt lat="48.62779" lon="2.05955">
        <ele>162.2</ele>
        <time>2023-03-05T15:53:15Z</time>
      </trkpt>
      <trkpt lat="48.62779" lon="2.05959">
        <ele>162.2</ele>
        <time>2023-03-05T15:53:17Z</time>
      </trkpt>
      <trkpt lat="48.62779" lon="2.05965">
        <ele>162.4</ele>
        <time>2023-03-05T15:53:19Z</time>
      </trkpt>
      <trkpt lat="48.62779" lon="2.05967">
        <ele>162.4</ele>
        <time>2023-03-05T15:53:20Z</time>
      </trkpt>
      <trkpt lat="48.62779" lon="2.05971">
        <ele>162.4</ele>
        <time>2023-03-05T15:53:21Z</time>
      </trkpt>
      <trkpt lat="48.62779" lon="2.05974">
        <ele>162.4</ele>
        <time>2023-03-05T15:53:22Z</time>
      </trkpt>
      <trkpt lat="48.6278" lon="2.05978">
        <ele>162.2</ele>
        <time>2023-03-05T15:53:23Z</time>
      </trkpt>
      <trkpt lat="48.6278" lon="2.05982">
        <ele>162.2</ele>
        <time>2023-03-05T15:53:24Z</time>
      </trkpt>
      <trkpt lat="48.6278" lon="2.05986">
        <ele>162.2</ele>
        <time>2023-03-05T15:53:25Z</time>
      </trkpt>
      <trkpt lat="48.6278" lon="2.05991">
        <ele>162</ele>
        <time>2023-03-05T15:53:26Z</time>
      </trkpt>
      <trkpt lat="48.6278" lon="2.05996">
        <ele>162</ele>
        <time>2023-03-05T15:53:27Z</time>
      </trkpt>
      <trkpt lat="48.62781" lon="2.06001">
        <ele>162</ele>
        <time>2023-03-05T15:53:28Z</time>
      </trkpt>
      <trkpt lat="48.62781" lon="2.06007">
        <ele>162</ele>
        <time>2023-03-05T15:53:29Z</time>
      </trkpt>
      <trkpt lat="48.62781" lon="2.06013">
        <ele>162</ele>
        <time>2023-03-05T15:53:30Z</time>
      </trkpt>
      <trkpt lat="48.62781" lon="2.06019">
        <ele>162</ele>
        <time>2023-03-05T15:53:31Z</time>
      </trkpt>
      <trkpt lat="48.62782" lon="2.06025">
        <ele>161.8</ele>
        <time>2023-03-05T15:53:32Z</time>
      </trkpt>
      <trkpt lat="48.62782" lon="2.06031">
        <ele>161.8</ele>
        <time>2023-03-05T15:53:33Z</time>
      </trkpt>
      <trkpt lat="48.62782" lon="2.06036">
        <ele>161.8</ele>
        <time>2023-03-05T15:53:34Z</time>
      </trkpt>
      <trkpt lat="48.62782" lon="2.06042">
        <ele>161.6</ele>
        <time>2023-03-05T15:53:35Z</time>
      </trkpt>
      <trkpt lat="48.62782" lon="2.06047">
        <ele>161.6</ele>
        <time>2023-03-05T15:53:36Z</time>
      </trkpt>
      <trkpt lat="48.62782" lon="2.06052">
        <ele>161.4</ele>
        <time>2023-03-05T15:53:37Z</time>
      </trkpt>
      <trkpt lat="48.62783" lon="2.06057">
        <ele>161.4</ele>
        <time>2023-03-05T15:53:38Z</time>
      </trkpt>
      <trkpt lat="48.62783" lon="2.06061">
        <ele>161.2</ele>
        <time>2023-03-05T15:53:39Z</time>
      </trkpt>
      <trkpt lat="48.62783" lon="2.06066">
        <ele>161.2</ele>
        <time>2023-03-05T15:53:40Z</time>
      </trkpt>
      <trkpt lat="48.62783" lon="2.06071">
        <ele>161.2</ele>
        <time>2023-03-05T15:53:41Z</time>
      </trkpt>
      <trkpt lat="48.62783" lon="2.06075">
        <ele>161.2</ele>
        <time>2023-03-05T15:53:42Z</time>
      </trkpt>
      <trkpt lat="48.62783" lon="2.0608">
        <ele>161.2</ele>
        <time>2023-03-05T15:53:43Z</time>
      </trkpt>
      <trkpt lat="48.62783" lon="2.06085">
        <ele>161</ele>
        <time>2023-03-05T15:53:44Z</time>
      </trkpt>
      <trkpt lat="48.62784" lon="2.06089">
        <ele>161</ele>
        <time>2023-03-05T15:53:45Z</time>
      </trkpt>
      <trkpt lat="48.62784" lon="2.06094">
        <ele>161</ele>
        <time>2023-03-05T15:53:46Z</time>
      </trkpt>
      <trkpt lat="48.62785" lon="2.06099">
        <ele>160.8</ele>
        <time>2023-03-05T15:53:47Z</time>
      </trkpt>
      <trkpt lat="48.62785" lon="2.06104">
        <ele>160.8</ele>
        <time>2023-03-05T15:53:48Z</time>
      </trkpt>
      <trkpt lat="48.62785" lon="2.06109">
        <ele>160.8</ele>
        <time>2023-03-05T15:53:49Z</time>
      </trkpt>
      <trkpt lat="48.62785" lon="2.06114">
        <ele>160.8</ele>
        <time>2023-03-05T15:53:50Z</time>
      </trkpt>
      <trkpt lat="48.62785" lon="2.0612">
        <ele>160.6</ele>
        <time>2023-03-05T15:53:51Z</time>
      </trkpt>
      <trkpt lat="48.62786" lon="2.06125">
        <ele>160.6</ele>
        <time>2023-03-05T15:53:52Z</time>
      </trkpt>
      <trkpt lat="48.62786" lon="2.06131">
        <ele>160.6</ele>
        <time>2023-03-05T15:53:53Z</time>
      </trkpt>
      <trkpt lat="48.62786" lon="2.06136">
        <ele>160.4</ele>
        <time>2023-03-05T15:53:54Z</time>
      </trkpt>
      <trkpt lat="48.62786" lon="2.06141">
        <ele>160.4</ele>
        <time>2023-03-05T15:53:55Z</time>
      </trkpt>
      <trkpt lat="48.62786" lon="2.06147">
        <ele>160.4</ele>
        <time>2023-03-05T15:53:56Z</time>
      </trkpt>
      <trkpt lat="48.62786" lon="2.06152">
        <ele>160.2</ele>
        <time>2023-03-05T15:53:57Z</time>
      </trkpt>
      <trkpt lat="48.62786" lon="2.06157">
        <ele>160.2</ele>
        <time>2023-03-05T15:53:58Z</time>
      </trkpt>
      <trkpt lat="48.62787" lon="2.06162">
        <ele>160</ele>
        <time>2023-03-05T15:53:59Z</time>
      </trkpt>
      <trkpt lat="48.62787" lon="2.06167">
        <ele>160</ele>
        <time>2023-03-05T15:54:00Z</time>
      </trkpt>
      <trkpt lat="48.62787" lon="2.06171">
        <ele>160</ele>
        <time>2023-03-05T15:54:01Z</time>
      </trkpt>
      <trkpt lat="48.62787" lon="2.06176">
        <ele>159.8</ele>
        <time>2023-03-05T15:54:02Z</time>
      </trkpt>
      <trkpt lat="48.62787" lon="2.06181">
        <ele>159.8</ele>
        <time>2023-03-05T15:54:03Z</time>
      </trkpt>
      <trkpt lat="48.62787" lon="2.06185">
        <ele>159.6</ele>
        <time>2023-03-05T15:54:04Z</time>
      </trkpt>
      <trkpt lat="48.62788" lon="2.0619">
        <ele>159.6</ele>
        <time>2023-03-05T15:54:05Z</time>
      </trkpt>
      <trkpt lat="48.62788" lon="2.06194">
        <ele>159.6</ele>
        <time>2023-03-05T15:54:06Z</time>
      </trkpt>
      <trkpt lat="48.62788" lon="2.06199">
        <ele>159.4</ele>
        <time>2023-03-05T15:54:07Z</time>
      </trkpt>
      <trkpt lat="48.62788" lon="2.06203">
        <ele>159.4</ele>
        <time>2023-03-05T15:54:08Z</time>
      </trkpt>
      <trkpt lat="48.62789" lon="2.06208">
        <ele>159.4</ele>
        <time>2023-03-05T15:54:09Z</time>
      </trkpt>
      <trkpt lat="48.62789" lon="2.06213">
        <ele>159.4</ele>
        <time>2023-03-05T15:54:10Z</time>
      </trkpt>
      <trkpt lat="48.62789" lon="2.06218">
        <ele>159.4</ele>
        <time>2023-03-05T15:54:11Z</time>
      </trkpt>
      <trkpt lat="48.6279" lon="2.06223">
        <ele>159.4</ele>
        <time>2023-03-05T15:54:12Z</time>
      </trkpt>
      <trkpt lat="48.6279" lon="2.06229">
        <ele>159.4</ele>
        <time>2023-03-05T15:54:13Z</time>
      </trkpt>
      <trkpt lat="48.62791" lon="2.06234">
        <ele>159.4</ele>
        <time>2023-03-05T15:54:14Z</time>
      </trkpt>
      <trkpt lat="48.62791" lon="2.06239">
        <ele>159.4</ele>
        <time>2023-03-05T15:54:15Z</time>
      </trkpt>
      <trkpt lat="48.62791" lon="2.06244">
        <ele>159.4</ele>
        <time>2023-03-05T15:54:16Z</time>
      </trkpt>
      <trkpt lat="48.62792" lon="2.06249">
        <ele>159.4</ele>
        <time>2023-03-05T15:54:17Z</time>
      </trkpt>
      <trkpt lat="48.62792" lon="2.06254">
        <ele>159.2</ele>
        <time>2023-03-05T15:54:18Z</time>
      </trkpt>
      <trkpt lat="48.62792" lon="2.06259">
        <ele>159.2</ele>
        <time>2023-03-05T15:54:19Z</time>
      </trkpt>
      <trkpt lat="48.62793" lon="2.06264">
        <ele>159.2</ele>
        <time>2023-03-05T15:54:20Z</time>
      </trkpt>
      <trkpt lat="48.62793" lon="2.06269">
        <ele>159</ele>
        <time>2023-03-05T15:54:21Z</time>
      </trkpt>
      <trkpt lat="48.62793" lon="2.06274">
        <ele>159</ele>
        <time>2023-03-05T15:54:22Z</time>
      </trkpt>
      <trkpt lat="48.62793" lon="2.0628">
        <ele>159</ele>
        <time>2023-03-05T15:54:23Z</time>
      </trkpt>
      <trkpt lat="48.62794" lon="2.06285">
        <ele>159</ele>
        <time>2023-03-05T15:54:24Z</time>
      </trkpt>
      <trkpt lat="48.62794" lon="2.0629">
        <ele>159</ele>
        <time>2023-03-05T15:54:25Z</time>
      </trkpt>
      <trkpt lat="48.62795" lon="2.06296">
        <ele>159</ele>
        <time>2023-03-05T15:54:26Z</time>
      </trkpt>
      <trkpt lat="48.62795" lon="2.06301">
        <ele>159</ele>
        <time>2023-03-05T15:54:27Z</time>
      </trkpt>
      <trkpt lat="48.62795" lon="2.06307">
        <ele>158.8</ele>
        <time>2023-03-05T15:54:28Z</time>
      </trkpt>
      <trkpt lat="48.62796" lon="2.06312">
        <ele>158.8</ele>
        <time>2023-03-05T15:54:29Z</time>
      </trkpt>
      <trkpt lat="48.62796" lon="2.06317">
        <ele>158.6</ele>
        <time>2023-03-05T15:54:30Z</time>
      </trkpt>
      <trkpt lat="48.62796" lon="2.06323">
        <ele>158.6</ele>
        <time>2023-03-05T15:54:31Z</time>
      </trkpt>
      <trkpt lat="48.62797" lon="2.06328">
        <ele>158.6</ele>
        <time>2023-03-05T15:54:32Z</time>
      </trkpt>
      <trkpt lat="48.62797" lon="2.06334">
        <ele>158.4</ele>
        <time>2023-03-05T15:54:33Z</time>
      </trkpt>
      <trkpt lat="48.62797" lon="2.06339">
        <ele>158.4</ele>
        <time>2023-03-05T15:54:34Z</time>
      </trkpt>
      <trkpt lat="48.62797" lon="2.06345">
        <ele>158.2</ele>
        <time>2023-03-05T15:54:35Z</time>
      </trkpt>
      <trkpt lat="48.62797" lon="2.06351">
        <ele>158.2</ele>
        <time>2023-03-05T15:54:36Z</time>
      </trkpt>
      <trkpt lat="48.62797" lon="2.06356">
        <ele>158</ele>
        <time>2023-03-05T15:54:37Z</time>
      </trkpt>
      <trkpt lat="48.62797" lon="2.06362">
        <ele>158</ele>
        <time>2023-03-05T15:54:38Z</time>
      </trkpt>
      <trkpt lat="48.62798" lon="2.06367">
        <ele>157.8</ele>
        <time>2023-03-05T15:54:39Z</time>
      </trkpt>
      <trkpt lat="48.62798" lon="2.06372">
        <ele>157.8</ele>
        <time>2023-03-05T15:54:40Z</time>
      </trkpt>
      <trkpt lat="48.62798" lon="2.06377">
        <ele>157.6</ele>
        <time>2023-03-05T15:54:41Z</time>
      </trkpt>
      <trkpt lat="48.62798" lon="2.06382">
        <ele>157.6</ele>
        <time>2023-03-05T15:54:42Z</time>
      </trkpt>
      <trkpt lat="48.62798" lon="2.06387">
        <ele>157.6</ele>
        <time>2023-03-05T15:54:43Z</time>
      </trkpt>
      <trkpt lat="48.62799" lon="2.06392">
        <ele>157.6</ele>
        <time>2023-03-05T15:54:44Z</time>
      </trkpt>
      <trkpt lat="48.62799" lon="2.06397">
        <ele>157.4</ele>
        <time>2023-03-05T15:54:45Z</time>
      </trkpt>
      <trkpt lat="48.62799" lon="2.06402">
        <ele>157.4</ele>
        <time>2023-03-05T15:54:46Z</time>
      </trkpt>
      <trkpt lat="48.62799" lon="2.06407">
        <ele>157.4</ele>
        <time>2023-03-05T15:54:47Z</time>
      </trkpt>
      <trkpt lat="48.628" lon="2.06412">
        <ele>157.4</ele>
        <time>2023-03-05T15:54:48Z</time>
      </trkpt>
      <trkpt lat="48.628" lon="2.06417">
        <ele>157.4</ele>
        <time>2023-03-05T15:54:49Z</time>
      </trkpt>
      <trkpt lat="48.62801" lon="2.06421">
        <ele>157.4</ele>
        <time>2023-03-05T15:54:50Z</time>
      </trkpt>
      <trkpt lat="48.62801" lon="2.06426">
        <ele>157.2</ele>
        <time>2023-03-05T15:54:51Z</time>
      </trkpt>
      <trkpt lat="48.62801" lon="2.06431">
        <ele>157.2</ele>
        <time>2023-03-05T15:54:52Z</time>
      </trkpt>
      <trkpt lat="48.62802" lon="2.06436">
        <ele>157.2</ele>
        <time>2023-03-05T15:54:53Z</time>
      </trkpt>
      <trkpt lat="48.62802" lon="2.06441">
        <ele>157</ele>
        <time>2023-03-05T15:54:54Z</time>
      </trkpt>
      <trkpt lat="48.62802" lon="2.06446">
        <ele>157</ele>
        <time>2023-03-05T15:54:55Z</time>
      </trkpt>
      <trkpt lat="48.62803" lon="2.06451">
        <ele>156.8</ele>
        <time>2023-03-05T15:54:56Z</time>
      </trkpt>
      <trkpt lat="48.62803" lon="2.06456">
        <ele>156.6</ele>
        <time>2023-03-05T15:54:57Z</time>
      </trkpt>
      <trkpt lat="48.62803" lon="2.06461">
        <ele>156.4</ele>
        <time>2023-03-05T15:54:58Z</time>
      </trkpt>
      <trkpt lat="48.62802" lon="2.06467">
        <ele>156.4</ele>
        <time>2023-03-05T15:54:59Z</time>
      </trkpt>
      <trkpt lat="48.62802" lon="2.06472">
        <ele>156.2</ele>
        <time>2023-03-05T15:55:00Z</time>
      </trkpt>
      <trkpt lat="48.62803" lon="2.06477">
        <ele>156.2</ele>
        <time>2023-03-05T15:55:01Z</time>
      </trkpt>
      <trkpt lat="48.62803" lon="2.06482">
        <ele>156</ele>
        <time>2023-03-05T15:55:02Z</time>
      </trkpt>
      <trkpt lat="48.62803" lon="2.06487">
        <ele>156</ele>
        <time>2023-03-05T15:55:03Z</time>
      </trkpt>
      <trkpt lat="48.62803" lon="2.06492">
        <ele>156</ele>
        <time>2023-03-05T15:55:04Z</time>
      </trkpt>
      <trkpt lat="48.62804" lon="2.06497">
        <ele>155.8</ele>
        <time>2023-03-05T15:55:05Z</time>
      </trkpt>
      <trkpt lat="48.62804" lon="2.06502">
        <ele>155.8</ele>
        <time>2023-03-05T15:55:06Z</time>
      </trkpt>
      <trkpt lat="48.62804" lon="2.06507">
        <ele>155.6</ele>
        <time>2023-03-05T15:55:07Z</time>
      </trkpt>
      <trkpt lat="48.62804" lon="2.06512">
        <ele>155.6</ele>
        <time>2023-03-05T15:55:08Z</time>
      </trkpt>
      <trkpt lat="48.62804" lon="2.06517">
        <ele>155.4</ele>
        <time>2023-03-05T15:55:09Z</time>
      </trkpt>
      <trkpt lat="48.62804" lon="2.06522">
        <ele>155.4</ele>
        <time>2023-03-05T15:55:10Z</time>
      </trkpt>
      <trkpt lat="48.62804" lon="2.06527">
        <ele>155.2</ele>
        <time>2023-03-05T15:55:11Z</time>
      </trkpt>
      <trkpt lat="48.62804" lon="2.06532">
        <ele>155.2</ele>
        <time>2023-03-05T15:55:12Z</time>
      </trkpt>
      <trkpt lat="48.62804" lon="2.06536">
        <ele>155</ele>
        <time>2023-03-05T15:55:13Z</time>
      </trkpt>
      <trkpt lat="48.62804" lon="2.06542">
        <ele>155</ele>
        <time>2023-03-05T15:55:14Z</time>
      </trkpt>
      <trkpt lat="48.62804" lon="2.06547">
        <ele>154.8</ele>
        <time>2023-03-05T15:55:15Z</time>
      </trkpt>
      <trkpt lat="48.62804" lon="2.06552">
        <ele>154.8</ele>
        <time>2023-03-05T15:55:16Z</time>
      </trkpt>
      <trkpt lat="48.62804" lon="2.06557">
        <ele>154.8</ele>
        <time>2023-03-05T15:55:17Z</time>
      </trkpt>
      <trkpt lat="48.62805" lon="2.06562">
        <ele>154.8</ele>
        <time>2023-03-05T15:55:18Z</time>
      </trkpt>
      <trkpt lat="48.62805" lon="2.06567">
        <ele>154.6</ele>
        <time>2023-03-05T15:55:19Z</time>
      </trkpt>
      <trkpt lat="48.62805" lon="2.06572">
        <ele>154.6</ele>
        <time>2023-03-05T15:55:20Z</time>
      </trkpt>
      <trkpt lat="48.62805" lon="2.06577">
        <ele>154.6</ele>
        <time>2023-03-05T15:55:21Z</time>
      </trkpt>
      <trkpt lat="48.62805" lon="2.06582">
        <ele>154.6</ele>
        <time>2023-03-05T15:55:22Z</time>
      </trkpt>
      <trkpt lat="48.62805" lon="2.06588">
        <ele>154.4</ele>
        <time>2023-03-05T15:55:23Z</time>
      </trkpt>
      <trkpt lat="48.62806" lon="2.06593">
        <ele>154.4</ele>
        <time>2023-03-05T15:55:24Z</time>
      </trkpt>
      <trkpt lat="48.62806" lon="2.06598">
        <ele>154.2</ele>
        <time>2023-03-05T15:55:25Z</time>
      </trkpt>
      <trkpt lat="48.62806" lon="2.06603">
        <ele>154.2</ele>
        <time>2023-03-05T15:55:26Z</time>
      </trkpt>
      <trkpt lat="48.62806" lon="2.06608">
        <ele>154</ele>
        <time>2023-03-05T15:55:27Z</time>
      </trkpt>
      <trkpt lat="48.62807" lon="2.06612">
        <ele>154</ele>
        <time>2023-03-05T15:55:28Z</time>
      </trkpt>
      <trkpt lat="48.62807" lon="2.06617">
        <ele>153.8</ele>
        <time>2023-03-05T15:55:29Z</time>
      </trkpt>
      <trkpt lat="48.62807" lon="2.06622">
        <ele>153.8</ele>
        <time>2023-03-05T15:55:30Z</time>
      </trkpt>
      <trkpt lat="48.62807" lon="2.06626">
        <ele>153.6</ele>
        <time>2023-03-05T15:55:31Z</time>
      </trkpt>
      <trkpt lat="48.62807" lon="2.06631">
        <ele>153.6</ele>
        <time>2023-03-05T15:55:32Z</time>
      </trkpt>
      <trkpt lat="48.62807" lon="2.06634">
        <ele>153.6</ele>
        <time>2023-03-05T15:55:33Z</time>
      </trkpt>
      <trkpt lat="48.62808" lon="2.06638">
        <ele>153.6</ele>
        <time>2023-03-05T15:55:34Z</time>
      </trkpt>
      <trkpt lat="48.62808" lon="2.06641">
        <ele>153.8</ele>
        <time>2023-03-05T15:55:35Z</time>
      </trkpt>
      <trkpt lat="48.62808" lon="2.06646">
        <ele>154</ele>
        <time>2023-03-05T15:55:37Z</time>
      </trkpt>
      <trkpt lat="48.62808" lon="2.06648">
        <ele>154</ele>
        <time>2023-03-05T15:55:39Z</time>
      </trkpt>
      <trkpt lat="48.62808" lon="2.06652">
        <ele>154</ele>
        <time>2023-03-05T15:55:42Z</time>
      </trkpt>
      <trkpt lat="48.62807" lon="2.06655">
        <ele>153.8</ele>
        <time>2023-03-05T15:55:44Z</time>
      </trkpt>
      <trkpt lat="48.62808" lon="2.06659">
        <ele>153.6</ele>
        <time>2023-03-05T15:55:46Z</time>
      </trkpt>
      <trkpt lat="48.62809" lon="2.06664">
        <ele>153.6</ele>
        <time>2023-03-05T15:55:48Z</time>
      </trkpt>
      <trkpt lat="48.62809" lon="2.06668">
        <ele>153.4</ele>
        <time>2023-03-05T15:55:50Z</time>
      </trkpt>
      <trkpt lat="48.62809" lon="2.06672">
        <ele>153.2</ele>
        <time>2023-03-05T15:55:52Z</time>
      </trkpt>
      <trkpt lat="48.6281" lon="2.06676">
        <ele>153</ele>
        <time>2023-03-05T15:55:54Z</time>
      </trkpt>
      <trkpt lat="48.6281" lon="2.06681">
        <ele>152.8</ele>
        <time>2023-03-05T15:55:56Z</time>
      </trkpt>
      <trkpt lat="48.6281" lon="2.06685">
        <ele>152.6</ele>
        <time>2023-03-05T15:55:58Z</time>
      </trkpt>
      <trkpt lat="48.6281" lon="2.0669">
        <ele>152.4</ele>
        <time>2023-03-05T15:56:00Z</time>
      </trkpt>
      <trkpt lat="48.62811" lon="2.06694">
        <ele>152.4</ele>
        <time>2023-03-05T15:56:02Z</time>
      </trkpt>
      <trkpt lat="48.62811" lon="2.06699">
        <ele>152.4</ele>
        <time>2023-03-05T15:56:04Z</time>
      </trkpt>
      <trkpt lat="48.62811" lon="2.06703">
        <ele>152.2</ele>
        <time>2023-03-05T15:56:06Z</time>
      </trkpt>
      <trkpt lat="48.62811" lon="2.06707">
        <ele>152</ele>
        <time>2023-03-05T15:56:08Z</time>
      </trkpt>
      <trkpt lat="48.62811" lon="2.06712">
        <ele>151.8</ele>
        <time>2023-03-05T15:56:10Z</time>
      </trkpt>
      <trkpt lat="48.62811" lon="2.06717">
        <ele>151.6</ele>
        <time>2023-03-05T15:56:12Z</time>
      </trkpt>
      <trkpt lat="48.62811" lon="2.06721">
        <ele>151.6</ele>
        <time>2023-03-05T15:56:14Z</time>
      </trkpt>
      <trkpt lat="48.62811" lon="2.06726">
        <ele>151.6</ele>
        <time>2023-03-05T15:56:16Z</time>
      </trkpt>
      <trkpt lat="48.62811" lon="2.0673">
        <ele>151.4</ele>
        <time>2023-03-05T15:56:18Z</time>
      </trkpt>
      <trkpt lat="48.62812" lon="2.06734">
        <ele>151.4</ele>
        <time>2023-03-05T15:56:20Z</time>
      </trkpt>
      <trkpt lat="48.62813" lon="2.06738">
        <ele>151.4</ele>
        <time>2023-03-05T15:56:22Z</time>
      </trkpt>
      <trkpt lat="48.62813" lon="2.06742">
        <ele>151.4</ele>
        <time>2023-03-05T15:56:24Z</time>
      </trkpt>
      <trkpt lat="48.62813" lon="2.06745">
        <ele>151.2</ele>
        <time>2023-03-05T15:56:26Z</time>
      </trkpt>
      <trkpt lat="48.62814" lon="2.06748">
        <ele>150.8</ele>
        <time>2023-03-05T15:56:29Z</time>
      </trkpt>
      <trkpt lat="48.62814" lon="2.06751">
        <ele>150</ele>
        <time>2023-03-05T15:56:36Z</time>
      </trkpt>
      <trkpt lat="48.62814" lon="2.06755">
        <ele>150.2</ele>
        <time>2023-03-05T15:56:38Z</time>
      </trkpt>
      <trkpt lat="48.62814" lon="2.0676">
        <ele>150.2</ele>
        <time>2023-03-05T15:56:40Z</time>
      </trkpt>
      <trkpt lat="48.62814" lon="2.06764">
        <ele>150</ele>
        <time>2023-03-05T15:56:42Z</time>
      </trkpt>
      <trkpt lat="48.62814" lon="2.06769">
        <ele>150</ele>
        <time>2023-03-05T15:56:44Z</time>
      </trkpt>
      <trkpt lat="48.62813" lon="2.06773">
        <ele>149.8</ele>
        <time>2023-03-05T15:56:46Z</time>
      </trkpt>
      <trkpt lat="48.62813" lon="2.06777">
        <ele>149.6</ele>
        <time>2023-03-05T15:56:48Z</time>
      </trkpt>
      <trkpt lat="48.62813" lon="2.06782">
        <ele>149.4</ele>
        <time>2023-03-05T15:56:50Z</time>
      </trkpt>
      <trkpt lat="48.62813" lon="2.06786">
        <ele>149.2</ele>
        <time>2023-03-05T15:56:52Z</time>
      </trkpt>
      <trkpt lat="48.62813" lon="2.06791">
        <ele>149</ele>
        <time>2023-03-05T15:56:54Z</time>
      </trkpt>
      <trkpt lat="48.62812" lon="2.06795">
        <ele>148.8</ele>
        <time>2023-03-05T15:56:56Z</time>
      </trkpt>
      <trkpt lat="48.62811" lon="2.06799">
        <ele>148.8</ele>
        <time>2023-03-05T15:56:58Z</time>
      </trkpt>
      <trkpt lat="48.62809" lon="2.06803">
        <ele>148.8</ele>
        <time>2023-03-05T15:57:00Z</time>
      </trkpt>
      <trkpt lat="48.62807" lon="2.06807">
        <ele>148.6</ele>
        <time>2023-03-05T15:57:02Z</time>
      </trkpt>
      <trkpt lat="48.62805" lon="2.06812">
        <ele>148.4</ele>
        <time>2023-03-05T15:57:04Z</time>
      </trkpt>
      <trkpt lat="48.62804" lon="2.06814">
        <ele>148.4</ele>
        <time>2023-03-05T15:57:05Z</time>
      </trkpt>
      <trkpt lat="48.62802" lon="2.06818">
        <ele>148.2</ele>
        <time>2023-03-05T15:57:07Z</time>
      </trkpt>
      <trkpt lat="48.62799" lon="2.06822">
        <ele>148</ele>
        <time>2023-03-05T15:57:09Z</time>
      </trkpt>
      <trkpt lat="48.62797" lon="2.06826">
        <ele>147.8</ele>
        <time>2023-03-05T15:57:11Z</time>
      </trkpt>
      <trkpt lat="48.62796" lon="2.0683">
        <ele>147.6</ele>
        <time>2023-03-05T15:57:13Z</time>
      </trkpt>
      <trkpt lat="48.62794" lon="2.06834">
        <ele>147.6</ele>
        <time>2023-03-05T15:57:15Z</time>
      </trkpt>
      <trkpt lat="48.62792" lon="2.06838">
        <ele>147.4</ele>
        <time>2023-03-05T15:57:17Z</time>
      </trkpt>
      <trkpt lat="48.62791" lon="2.06842">
        <ele>147.4</ele>
        <time>2023-03-05T15:57:19Z</time>
      </trkpt>
      <trkpt lat="48.62789" lon="2.06846">
        <ele>147.2</ele>
        <time>2023-03-05T15:57:21Z</time>
      </trkpt>
      <trkpt lat="48.62788" lon="2.06851">
        <ele>147.2</ele>
        <time>2023-03-05T15:57:23Z</time>
      </trkpt>
      <trkpt lat="48.62787" lon="2.06855">
        <ele>147.2</ele>
        <time>2023-03-05T15:57:25Z</time>
      </trkpt>
      <trkpt lat="48.62785" lon="2.06859">
        <ele>147.2</ele>
        <time>2023-03-05T15:57:27Z</time>
      </trkpt>
      <trkpt lat="48.62784" lon="2.06863">
        <ele>147.2</ele>
        <time>2023-03-05T15:57:29Z</time>
      </trkpt>
      <trkpt lat="48.62783" lon="2.06867">
        <ele>147</ele>
        <time>2023-03-05T15:57:31Z</time>
      </trkpt>
      <trkpt lat="48.62782" lon="2.06871">
        <ele>147</ele>
        <time>2023-03-05T15:57:33Z</time>
      </trkpt>
      <trkpt lat="48.62781" lon="2.06876">
        <ele>147.2</ele>
        <time>2023-03-05T15:57:35Z</time>
      </trkpt>
      <trkpt lat="48.62781" lon="2.06881">
        <ele>147.2</ele>
        <time>2023-03-05T15:57:37Z</time>
      </trkpt>
      <trkpt lat="48.62781" lon="2.06885">
        <ele>147.2</ele>
        <time>2023-03-05T15:57:39Z</time>
      </trkpt>
      <trkpt lat="48.62781" lon="2.0689">
        <ele>147.2</ele>
        <time>2023-03-05T15:57:41Z</time>
      </trkpt>
      <trkpt lat="48.62781" lon="2.06894">
        <ele>147.2</ele>
        <time>2023-03-05T15:57:43Z</time>
      </trkpt>
      <trkpt lat="48.6278" lon="2.06899">
        <ele>147.2</ele>
        <time>2023-03-05T15:57:45Z</time>
      </trkpt>
      <trkpt lat="48.6278" lon="2.06903">
        <ele>147.2</ele>
        <time>2023-03-05T15:57:47Z</time>
      </trkpt>
      <trkpt lat="48.6278" lon="2.06908">
        <ele>147.2</ele>
        <time>2023-03-05T15:57:49Z</time>
      </trkpt>
      <trkpt lat="48.6278" lon="2.06913">
        <ele>147.2</ele>
        <time>2023-03-05T15:57:51Z</time>
      </trkpt>
      <trkpt lat="48.6278" lon="2.06918">
        <ele>147</ele>
        <time>2023-03-05T15:57:53Z</time>
      </trkpt>
      <trkpt lat="48.6278" lon="2.06923">
        <ele>146.6</ele>
        <time>2023-03-05T15:57:55Z</time>
      </trkpt>
      <trkpt lat="48.6278" lon="2.06927">
        <ele>146.6</ele>
        <time>2023-03-05T15:57:57Z</time>
      </trkpt>
      <trkpt lat="48.62779" lon="2.06932">
        <ele>146.6</ele>
        <time>2023-03-05T15:57:59Z</time>
      </trkpt>
      <trkpt lat="48.62779" lon="2.06936">
        <ele>146.6</ele>
        <time>2023-03-05T15:58:01Z</time>
      </trkpt>
      <trkpt lat="48.62779" lon="2.06939">
        <ele>146.6</ele>
        <time>2023-03-05T15:58:03Z</time>
      </trkpt>
      <trkpt lat="48.62779" lon="2.06944">
        <ele>146.6</ele>
        <time>2023-03-05T15:58:05Z</time>
      </trkpt>
      <trkpt lat="48.62778" lon="2.06948">
        <ele>146.6</ele>
        <time>2023-03-05T15:58:07Z</time>
      </trkpt>
      <trkpt lat="48.62778" lon="2.06952">
        <ele>146.8</ele>
        <time>2023-03-05T15:58:09Z</time>
      </trkpt>
      <trkpt lat="48.62777" lon="2.06955">
        <ele>146.8</ele>
        <time>2023-03-05T15:58:11Z</time>
      </trkpt>
      <trkpt lat="48.62777" lon="2.06958">
        <ele>146.8</ele>
        <time>2023-03-05T15:58:13Z</time>
      </trkpt>
      <trkpt lat="48.62777" lon="2.06961">
        <ele>146.6</ele>
        <time>2023-03-05T15:58:15Z</time>
      </trkpt>
      <trkpt lat="48.62776" lon="2.06964">
        <ele>146.8</ele>
        <time>2023-03-05T15:58:17Z</time>
      </trkpt>
      <trkpt lat="48.62774" lon="2.06968">
        <ele>146.8</ele>
        <time>2023-03-05T15:58:19Z</time>
      </trkpt>
      <trkpt lat="48.62773" lon="2.06971">
        <ele>147</ele>
        <time>2023-03-05T15:58:21Z</time>
      </trkpt>
      <trkpt lat="48.62773" lon="2.06974">
        <ele>147</ele>
        <time>2023-03-05T15:58:23Z</time>
      </trkpt>
      <trkpt lat="48.62773" lon="2.06977">
        <ele>147.2</ele>
        <time>2023-03-05T15:58:25Z</time>
      </trkpt>
      <trkpt lat="48.62772" lon="2.06981">
        <ele>147.2</ele>
        <time>2023-03-05T15:58:27Z</time>
      </trkpt>
      <trkpt lat="48.6277" lon="2.06985">
        <ele>147.2</ele>
        <time>2023-03-05T15:58:29Z</time>
      </trkpt>
      <trkpt lat="48.62769" lon="2.06989">
        <ele>147.2</ele>
        <time>2023-03-05T15:58:31Z</time>
      </trkpt>
      <trkpt lat="48.62766" lon="2.06992">
        <ele>147.2</ele>
        <time>2023-03-05T15:58:33Z</time>
      </trkpt>
      <trkpt lat="48.62764" lon="2.06995">
        <ele>147.4</ele>
        <time>2023-03-05T15:58:35Z</time>
      </trkpt>
      <trkpt lat="48.62762" lon="2.06998">
        <ele>147.6</ele>
        <time>2023-03-05T15:58:37Z</time>
      </trkpt>
      <trkpt lat="48.62759" lon="2.07001">
        <ele>147.8</ele>
        <time>2023-03-05T15:58:39Z</time>
      </trkpt>
      <trkpt lat="48.62758" lon="2.07003">
        <ele>147.8</ele>
        <time>2023-03-05T15:58:40Z</time>
      </trkpt>
      <trkpt lat="48.62756" lon="2.07006">
        <ele>147.8</ele>
        <time>2023-03-05T15:58:42Z</time>
      </trkpt>
      <trkpt lat="48.62753" lon="2.07009">
        <ele>147.8</ele>
        <time>2023-03-05T15:58:44Z</time>
      </trkpt>
      <trkpt lat="48.6275" lon="2.07011">
        <ele>147.6</ele>
        <time>2023-03-05T15:58:46Z</time>
      </trkpt>
      <trkpt lat="48.62748" lon="2.07014">
        <ele>147.4</ele>
        <time>2023-03-05T15:58:48Z</time>
      </trkpt>
      <trkpt lat="48.62746" lon="2.07016">
        <ele>147.6</ele>
        <time>2023-03-05T15:58:50Z</time>
      </trkpt>
      <trkpt lat="48.62743" lon="2.07019">
        <ele>147.8</ele>
        <time>2023-03-05T15:58:52Z</time>
      </trkpt>
      <trkpt lat="48.62741" lon="2.07022">
        <ele>147.8</ele>
        <time>2023-03-05T15:58:54Z</time>
      </trkpt>
      <trkpt lat="48.62739" lon="2.07025">
        <ele>148.2</ele>
        <time>2023-03-05T15:58:56Z</time>
      </trkpt>
      <trkpt lat="48.62736" lon="2.07028">
        <ele>148.6</ele>
        <time>2023-03-05T15:58:58Z</time>
      </trkpt>
      <trkpt lat="48.62734" lon="2.07031">
        <ele>148.6</ele>
        <time>2023-03-05T15:59:00Z</time>
      </trkpt>
      <trkpt lat="48.62732" lon="2.07033">
        <ele>148.8</ele>
        <time>2023-03-05T15:59:02Z</time>
      </trkpt>
      <trkpt lat="48.62729" lon="2.07035">
        <ele>148.6</ele>
        <time>2023-03-05T15:59:04Z</time>
      </trkpt>
      <trkpt lat="48.62727" lon="2.07037">
        <ele>148.6</ele>
        <time>2023-03-05T15:59:06Z</time>
      </trkpt>
      <trkpt lat="48.62724" lon="2.07038">
        <ele>148.6</ele>
        <time>2023-03-05T15:59:08Z</time>
      </trkpt>
      <trkpt lat="48.62721" lon="2.07039">
        <ele>148.8</ele>
        <time>2023-03-05T15:59:10Z</time>
      </trkpt>
      <trkpt lat="48.62719" lon="2.0704">
        <ele>149</ele>
        <time>2023-03-05T15:59:12Z</time>
      </trkpt>
      <trkpt lat="48.62716" lon="2.07042">
        <ele>149</ele>
        <time>2023-03-05T15:59:14Z</time>
      </trkpt>
      <trkpt lat="48.62714" lon="2.07043">
        <ele>149</ele>
        <time>2023-03-05T15:59:16Z</time>
      </trkpt>
      <trkpt lat="48.62711" lon="2.07043">
        <ele>149</ele>
        <time>2023-03-05T15:59:18Z</time>
      </trkpt>
      <trkpt lat="48.62708" lon="2.07044">
        <ele>149.2</ele>
        <time>2023-03-05T15:59:20Z</time>
      </trkpt>
      <trkpt lat="48.62706" lon="2.07046">
        <ele>149.2</ele>
        <time>2023-03-05T15:59:22Z</time>
      </trkpt>
      <trkpt lat="48.62703" lon="2.07047">
        <ele>149.4</ele>
        <time>2023-03-05T15:59:24Z</time>
      </trkpt>
      <trkpt lat="48.62701" lon="2.07049">
        <ele>149.4</ele>
        <time>2023-03-05T15:59:26Z</time>
      </trkpt>
      <trkpt lat="48.62698" lon="2.07052">
        <ele>149.4</ele>
        <time>2023-03-05T15:59:28Z</time>
      </trkpt>
      <trkpt lat="48.62696" lon="2.07054">
        <ele>149.6</ele>
        <time>2023-03-05T15:59:30Z</time>
      </trkpt>
      <trkpt lat="48.62695" lon="2.07057">
        <ele>149.6</ele>
        <time>2023-03-05T15:59:32Z</time>
      </trkpt>
      <trkpt lat="48.62694" lon="2.07061">
        <ele>149.8</ele>
        <time>2023-03-05T15:59:34Z</time>
      </trkpt>
      <trkpt lat="48.62694" lon="2.07066">
        <ele>149.8</ele>
        <time>2023-03-05T15:59:36Z</time>
      </trkpt>
      <trkpt lat="48.62694" lon="2.07071">
        <ele>150</ele>
        <time>2023-03-05T15:59:38Z</time>
      </trkpt>
      <trkpt lat="48.62694" lon="2.07076">
        <ele>150.2</ele>
        <time>2023-03-05T15:59:40Z</time>
      </trkpt>
      <trkpt lat="48.62694" lon="2.0708">
        <ele>150.2</ele>
        <time>2023-03-05T15:59:42Z</time>
      </trkpt>
      <trkpt lat="48.62694" lon="2.07085">
        <ele>150.2</ele>
        <time>2023-03-05T15:59:44Z</time>
      </trkpt>
      <trkpt lat="48.62694" lon="2.07089">
        <ele>150.2</ele>
        <time>2023-03-05T15:59:46Z</time>
      </trkpt>
      <trkpt lat="48.62693" lon="2.07093">
        <ele>150.4</ele>
        <time>2023-03-05T15:59:48Z</time>
      </trkpt>
      <trkpt lat="48.62693" lon="2.07098">
        <ele>150.8</ele>
        <time>2023-03-05T15:59:50Z</time>
      </trkpt>
      <trkpt lat="48.62692" lon="2.07102">
        <ele>151</ele>
        <time>2023-03-05T15:59:52Z</time>
      </trkpt>
      <trkpt lat="48.6269" lon="2.07106">
        <ele>151</ele>
        <time>2023-03-05T15:59:54Z</time>
      </trkpt>
      <trkpt lat="48.62687" lon="2.07108">
        <ele>151.2</ele>
        <time>2023-03-05T15:59:56Z</time>
      </trkpt>
      <trkpt lat="48.62684" lon="2.07109">
        <ele>151.4</ele>
        <time>2023-03-05T15:59:58Z</time>
      </trkpt>
      <trkpt lat="48.62682" lon="2.0711">
        <ele>151.6</ele>
        <time>2023-03-05T16:00:00Z</time>
      </trkpt>
      <trkpt lat="48.62679" lon="2.07111">
        <ele>151.6</ele>
        <time>2023-03-05T16:00:02Z</time>
      </trkpt>
      <trkpt lat="48.62676" lon="2.07113">
        <ele>152</ele>
        <time>2023-03-05T16:00:04Z</time>
      </trkpt>
      <trkpt lat="48.62674" lon="2.07114">
        <ele>152</ele>
        <time>2023-03-05T16:00:06Z</time>
      </trkpt>
      <trkpt lat="48.62672" lon="2.07116">
        <ele>152.2</ele>
        <time>2023-03-05T16:00:08Z</time>
      </trkpt>
      <trkpt lat="48.6267" lon="2.07118">
        <ele>152.4</ele>
        <time>2023-03-05T16:00:10Z</time>
      </trkpt>
      <trkpt lat="48.62668" lon="2.0712">
        <ele>152.8</ele>
        <time>2023-03-05T16:00:12Z</time>
      </trkpt>
      <trkpt lat="48.62666" lon="2.07124">
        <ele>152.8</ele>
        <time>2023-03-05T16:00:14Z</time>
      </trkpt>
      <trkpt lat="48.62665" lon="2.07128">
        <ele>152.8</ele>
        <time>2023-03-05T16:00:16Z</time>
      </trkpt>
      <trkpt lat="48.62664" lon="2.07131">
        <ele>152.8</ele>
        <time>2023-03-05T16:00:18Z</time>
      </trkpt>
      <trkpt lat="48.62662" lon="2.07135">
        <ele>153</ele>
        <time>2023-03-05T16:00:20Z</time>
      </trkpt>
      <trkpt lat="48.62662" lon="2.07139">
        <ele>153</ele>
        <time>2023-03-05T16:00:22Z</time>
      </trkpt>
      <trkpt lat="48.62661" lon="2.07144">
        <ele>153.2</ele>
        <time>2023-03-05T16:00:24Z</time>
      </trkpt>
      <trkpt lat="48.6266" lon="2.07148">
        <ele>153.4</ele>
        <time>2023-03-05T16:00:26Z</time>
      </trkpt>
      <trkpt lat="48.62659" lon="2.07152">
        <ele>153.6</ele>
        <time>2023-03-05T16:00:28Z</time>
      </trkpt>
      <trkpt lat="48.62658" lon="2.07156">
        <ele>153.6</ele>
        <time>2023-03-05T16:00:30Z</time>
      </trkpt>
      <trkpt lat="48.62657" lon="2.0716">
        <ele>153.8</ele>
        <time>2023-03-05T16:00:32Z</time>
      </trkpt>
      <trkpt lat="48.62656" lon="2.07164">
        <ele>153.8</ele>
        <time>2023-03-05T16:00:34Z</time>
      </trkpt>
      <trkpt lat="48.62654" lon="2.07168">
        <ele>154</ele>
        <time>2023-03-05T16:00:36Z</time>
      </trkpt>
      <trkpt lat="48.62652" lon="2.07172">
        <ele>154.2</ele>
        <time>2023-03-05T16:00:38Z</time>
      </trkpt>
      <trkpt lat="48.6265" lon="2.07175">
        <ele>154.4</ele>
        <time>2023-03-05T16:00:40Z</time>
      </trkpt>
      <trkpt lat="48.62648" lon="2.07177">
        <ele>154.6</ele>
        <time>2023-03-05T16:00:42Z</time>
      </trkpt>
      <trkpt lat="48.62646" lon="2.0718">
        <ele>154.8</ele>
        <time>2023-03-05T16:00:44Z</time>
      </trkpt>
      <trkpt lat="48.62644" lon="2.07183">
        <ele>155.2</ele>
        <time>2023-03-05T16:00:46Z</time>
      </trkpt>
      <trkpt lat="48.62641" lon="2.07185">
        <ele>155.4</ele>
        <time>2023-03-05T16:00:48Z</time>
      </trkpt>
      <trkpt lat="48.62639" lon="2.07187">
        <ele>155.6</ele>
        <time>2023-03-05T16:00:50Z</time>
      </trkpt>
      <trkpt lat="48.62636" lon="2.0719">
        <ele>155.8</ele>
        <time>2023-03-05T16:00:52Z</time>
      </trkpt>
      <trkpt lat="48.62635" lon="2.07192">
        <ele>156.2</ele>
        <time>2023-03-05T16:00:54Z</time>
      </trkpt>
      <trkpt lat="48.62633" lon="2.07195">
        <ele>156.4</ele>
        <time>2023-03-05T16:00:56Z</time>
      </trkpt>
      <trkpt lat="48.62631" lon="2.07198">
        <ele>156.4</ele>
        <time>2023-03-05T16:00:58Z</time>
      </trkpt>
      <trkpt lat="48.62629" lon="2.07201">
        <ele>156.4</ele>
        <time>2023-03-05T16:01:00Z</time>
      </trkpt>
      <trkpt lat="48.62627" lon="2.07205">
        <ele>156.6</ele>
        <time>2023-03-05T16:01:02Z</time>
      </trkpt>
      <trkpt lat="48.62626" lon="2.07207">
        <ele>156.6</ele>
        <time>2023-03-05T16:01:03Z</time>
      </trkpt>
      <trkpt lat="48.62624" lon="2.0721">
        <ele>156.6</ele>
        <time>2023-03-05T16:01:04Z</time>
      </trkpt>
      <trkpt lat="48.62623" lon="2.07215">
        <ele>156.8</ele>
        <time>2023-03-05T16:01:06Z</time>
      </trkpt>
      <trkpt lat="48.62621" lon="2.07219">
        <ele>157</ele>
        <time>2023-03-05T16:01:08Z</time>
      </trkpt>
      <trkpt lat="48.6262" lon="2.07222">
        <ele>157.2</ele>
        <time>2023-03-05T16:01:10Z</time>
      </trkpt>
      <trkpt lat="48.6262" lon="2.07225">
        <ele>157.4</ele>
        <time>2023-03-05T16:01:12Z</time>
      </trkpt>
      <trkpt lat="48.62619" lon="2.07228">
        <ele>157.4</ele>
        <time>2023-03-05T16:01:14Z</time>
      </trkpt>
      <trkpt lat="48.62618" lon="2.07231">
        <ele>157.6</ele>
        <time>2023-03-05T16:01:16Z</time>
      </trkpt>
      <trkpt lat="48.62616" lon="2.07235">
        <ele>157.8</ele>
        <time>2023-03-05T16:01:18Z</time>
      </trkpt>
      <trkpt lat="48.62615" lon="2.07238">
        <ele>157.8</ele>
        <time>2023-03-05T16:01:20Z</time>
      </trkpt>
      <trkpt lat="48.62614" lon="2.07241">
        <ele>157.8</ele>
        <time>2023-03-05T16:01:22Z</time>
      </trkpt>
      <trkpt lat="48.62613" lon="2.07244">
        <ele>158</ele>
        <time>2023-03-05T16:01:24Z</time>
      </trkpt>
      <trkpt lat="48.62612" lon="2.07246">
        <ele>158</ele>
        <time>2023-03-05T16:01:26Z</time>
      </trkpt>
      <trkpt lat="48.6261" lon="2.07249">
        <ele>158</ele>
        <time>2023-03-05T16:01:28Z</time>
      </trkpt>
      <trkpt lat="48.62608" lon="2.07252">
        <ele>158</ele>
        <time>2023-03-05T16:01:30Z</time>
      </trkpt>
      <trkpt lat="48.62606" lon="2.07256">
        <ele>158</ele>
        <time>2023-03-05T16:01:32Z</time>
      </trkpt>
      <trkpt lat="48.62604" lon="2.07259">
        <ele>158</ele>
        <time>2023-03-05T16:01:34Z</time>
      </trkpt>
      <trkpt lat="48.62603" lon="2.07262">
        <ele>158.2</ele>
        <time>2023-03-05T16:01:36Z</time>
      </trkpt>
      <trkpt lat="48.62601" lon="2.07265">
        <ele>158.2</ele>
        <time>2023-03-05T16:01:38Z</time>
      </trkpt>
      <trkpt lat="48.62599" lon="2.07268">
        <ele>158.2</ele>
        <time>2023-03-05T16:01:40Z</time>
      </trkpt>
      <trkpt lat="48.62597" lon="2.07271">
        <ele>158.2</ele>
        <time>2023-03-05T16:01:43Z</time>
      </trkpt>
      <trkpt lat="48.62596" lon="2.07273">
        <ele>158.4</ele>
        <time>2023-03-05T16:01:45Z</time>
      </trkpt>
      <trkpt lat="48.62594" lon="2.07275">
        <ele>158.4</ele>
        <time>2023-03-05T16:01:47Z</time>
      </trkpt>
      <trkpt lat="48.62592" lon="2.07278">
        <ele>158.4</ele>
        <time>2023-03-05T16:01:49Z</time>
      </trkpt>
      <trkpt lat="48.6259" lon="2.07281">
        <ele>158.4</ele>
        <time>2023-03-05T16:01:51Z</time>
      </trkpt>
      <trkpt lat="48.62589" lon="2.07284">
        <ele>158.4</ele>
        <time>2023-03-05T16:01:53Z</time>
      </trkpt>
      <trkpt lat="48.62587" lon="2.07287">
        <ele>158.4</ele>
        <time>2023-03-05T16:01:55Z</time>
      </trkpt>
      <trkpt lat="48.62586" lon="2.0729">
        <ele>158.4</ele>
        <time>2023-03-05T16:01:57Z</time>
      </trkpt>
      <trkpt lat="48.62584" lon="2.07293">
        <ele>158.6</ele>
        <time>2023-03-05T16:01:59Z</time>
      </trkpt>
      <trkpt lat="48.62583" lon="2.07296">
        <ele>158.8</ele>
        <time>2023-03-05T16:02:01Z</time>
      </trkpt>
      <trkpt lat="48.62582" lon="2.07299">
        <ele>159</ele>
        <time>2023-03-05T16:02:03Z</time>
      </trkpt>
      <trkpt lat="48.62581" lon="2.07302">
        <ele>159</ele>
        <time>2023-03-05T16:02:05Z</time>
      </trkpt>
      <trkpt lat="48.62581" lon="2.07305">
        <ele>159.2</ele>
        <time>2023-03-05T16:02:07Z</time>
      </trkpt>
      <trkpt lat="48.62581" lon="2.07309">
        <ele>159.4</ele>
        <time>2023-03-05T16:02:09Z</time>
      </trkpt>
      <trkpt lat="48.62582" lon="2.07312">
        <ele>159.4</ele>
        <time>2023-03-05T16:02:11Z</time>
      </trkpt>
      <trkpt lat="48.62584" lon="2.07316">
        <ele>159.6</ele>
        <time>2023-03-05T16:02:13Z</time>
      </trkpt>
      <trkpt lat="48.62586" lon="2.07319">
        <ele>159.6</ele>
        <time>2023-03-05T16:02:15Z</time>
      </trkpt>
      <trkpt lat="48.62587" lon="2.07322">
        <ele>159.8</ele>
        <time>2023-03-05T16:02:17Z</time>
      </trkpt>
      <trkpt lat="48.62589" lon="2.07325">
        <ele>159.8</ele>
        <time>2023-03-05T16:02:19Z</time>
      </trkpt>
      <trkpt lat="48.62592" lon="2.07328">
        <ele>159.8</ele>
        <time>2023-03-05T16:02:21Z</time>
      </trkpt>
      <trkpt lat="48.62594" lon="2.07331">
        <ele>159.8</ele>
        <time>2023-03-05T16:02:23Z</time>
      </trkpt>
      <trkpt lat="48.62596" lon="2.07335">
        <ele>160</ele>
        <time>2023-03-05T16:02:25Z</time>
      </trkpt>
      <trkpt lat="48.62597" lon="2.0734">
        <ele>160.2</ele>
        <time>2023-03-05T16:02:27Z</time>
      </trkpt>
      <trkpt lat="48.62598" lon="2.07342">
        <ele>160.2</ele>
        <time>2023-03-05T16:02:28Z</time>
      </trkpt>
      <trkpt lat="48.62598" lon="2.07347">
        <ele>160.2</ele>
        <time>2023-03-05T16:02:30Z</time>
      </trkpt>
      <trkpt lat="48.62598" lon="2.0735">
        <ele>160.2</ele>
        <time>2023-03-05T16:02:31Z</time>
      </trkpt>
      <trkpt lat="48.62597" lon="2.07355">
        <ele>160.2</ele>
        <time>2023-03-05T16:02:33Z</time>
      </trkpt>
      <trkpt lat="48.62596" lon="2.0736">
        <ele>160.2</ele>
        <time>2023-03-05T16:02:35Z</time>
      </trkpt>
      <trkpt lat="48.62594" lon="2.07364">
        <ele>160.2</ele>
        <time>2023-03-05T16:02:37Z</time>
      </trkpt>
      <trkpt lat="48.62592" lon="2.07368">
        <ele>160.2</ele>
        <time>2023-03-05T16:02:39Z</time>
      </trkpt>
      <trkpt lat="48.62591" lon="2.07373">
        <ele>160.2</ele>
        <time>2023-03-05T16:02:41Z</time>
      </trkpt>
      <trkpt lat="48.6259" lon="2.07376">
        <ele>160.2</ele>
        <time>2023-03-05T16:02:43Z</time>
      </trkpt>
      <trkpt lat="48.62588" lon="2.0738">
        <ele>160.2</ele>
        <time>2023-03-05T16:02:45Z</time>
      </trkpt>
      <trkpt lat="48.62587" lon="2.07383">
        <ele>160.2</ele>
        <time>2023-03-05T16:02:47Z</time>
      </trkpt>
      <trkpt lat="48.62586" lon="2.07386">
        <ele>160.2</ele>
        <time>2023-03-05T16:02:49Z</time>
      </trkpt>
      <trkpt lat="48.62584" lon="2.07389">
        <ele>160.4</ele>
        <time>2023-03-05T16:02:51Z</time>
      </trkpt>
      <trkpt lat="48.62582" lon="2.07392">
        <ele>160.4</ele>
        <time>2023-03-05T16:02:53Z</time>
      </trkpt>
      <trkpt lat="48.62581" lon="2.07396">
        <ele>160.4</ele>
        <time>2023-03-05T16:02:55Z</time>
      </trkpt>
      <trkpt lat="48.6258" lon="2.07399">
        <ele>160.6</ele>
        <time>2023-03-05T16:02:57Z</time>
      </trkpt>
      <trkpt lat="48.6258" lon="2.07402">
        <ele>160.8</ele>
        <time>2023-03-05T16:02:59Z</time>
      </trkpt>
      <trkpt lat="48.62579" lon="2.07406">
        <ele>161</ele>
        <time>2023-03-05T16:03:01Z</time>
      </trkpt>
      <trkpt lat="48.62578" lon="2.07411">
        <ele>161</ele>
        <time>2023-03-05T16:03:03Z</time>
      </trkpt>
      <trkpt lat="48.62577" lon="2.07415">
        <ele>161</ele>
        <time>2023-03-05T16:03:05Z</time>
      </trkpt>
      <trkpt lat="48.62576" lon="2.07419">
        <ele>160.8</ele>
        <time>2023-03-05T16:03:07Z</time>
      </trkpt>
      <trkpt lat="48.62576" lon="2.07424">
        <ele>160.8</ele>
        <time>2023-03-05T16:03:09Z</time>
      </trkpt>
      <trkpt lat="48.62574" lon="2.07428">
        <ele>160.8</ele>
        <time>2023-03-05T16:03:11Z</time>
      </trkpt>
      <trkpt lat="48.62573" lon="2.07432">
        <ele>160.6</ele>
        <time>2023-03-05T16:03:13Z</time>
      </trkpt>
      <trkpt lat="48.62572" lon="2.07436">
        <ele>160.6</ele>
        <time>2023-03-05T16:03:15Z</time>
      </trkpt>
      <trkpt lat="48.62571" lon="2.07441">
        <ele>160.6</ele>
        <time>2023-03-05T16:03:17Z</time>
      </trkpt>
      <trkpt lat="48.62571" lon="2.07445">
        <ele>160.8</ele>
        <time>2023-03-05T16:03:19Z</time>
      </trkpt>
      <trkpt lat="48.6257" lon="2.07449">
        <ele>160.8</ele>
        <time>2023-03-05T16:03:21Z</time>
      </trkpt>
      <trkpt lat="48.62569" lon="2.07454">
        <ele>160.8</ele>
        <time>2023-03-05T16:03:23Z</time>
      </trkpt>
      <trkpt lat="48.62568" lon="2.07458">
        <ele>160.8</ele>
        <time>2023-03-05T16:03:25Z</time>
      </trkpt>
      <trkpt lat="48.62567" lon="2.07461">
        <ele>160.8</ele>
        <time>2023-03-05T16:03:27Z</time>
      </trkpt>
      <trkpt lat="48.62566" lon="2.07465">
        <ele>160.6</ele>
        <time>2023-03-05T16:03:29Z</time>
      </trkpt>
      <trkpt lat="48.62565" lon="2.07468">
        <ele>160.6</ele>
        <time>2023-03-05T16:03:31Z</time>
      </trkpt>
      <trkpt lat="48.62564" lon="2.07472">
        <ele>160.6</ele>
        <time>2023-03-05T16:03:33Z</time>
      </trkpt>
      <trkpt lat="48.62563" lon="2.07475">
        <ele>160.6</ele>
        <time>2023-03-05T16:03:35Z</time>
      </trkpt>
      <trkpt lat="48.62561" lon="2.07478">
        <ele>160.4</ele>
        <time>2023-03-05T16:03:37Z</time>
      </trkpt>
      <trkpt lat="48.62559" lon="2.07481">
        <ele>160.4</ele>
        <time>2023-03-05T16:03:39Z</time>
      </trkpt>
      <trkpt lat="48.62558" lon="2.07483">
        <ele>160.6</ele>
        <time>2023-03-05T16:03:41Z</time>
      </trkpt>
      <trkpt lat="48.62555" lon="2.07486">
        <ele>160.6</ele>
        <time>2023-03-05T16:03:43Z</time>
      </trkpt>
      <trkpt lat="48.62553" lon="2.07488">
        <ele>160.6</ele>
        <time>2023-03-05T16:03:45Z</time>
      </trkpt>
      <trkpt lat="48.62551" lon="2.0749">
        <ele>160.6</ele>
        <time>2023-03-05T16:03:46Z</time>
      </trkpt>
      <trkpt lat="48.62549" lon="2.07492">
        <ele>160.6</ele>
        <time>2023-03-05T16:03:48Z</time>
      </trkpt>
      <trkpt lat="48.62547" lon="2.07494">
        <ele>160.8</ele>
        <time>2023-03-05T16:03:50Z</time>
      </trkpt>
      <trkpt lat="48.62544" lon="2.07496">
        <ele>160.8</ele>
        <time>2023-03-05T16:03:52Z</time>
      </trkpt>
      <trkpt lat="48.62541" lon="2.07498">
        <ele>160.8</ele>
        <time>2023-03-05T16:03:54Z</time>
      </trkpt>
      <trkpt lat="48.62539" lon="2.07499">
        <ele>160.6</ele>
        <time>2023-03-05T16:03:56Z</time>
      </trkpt>
      <trkpt lat="48.62536" lon="2.075">
        <ele>160.6</ele>
        <time>2023-03-05T16:03:58Z</time>
      </trkpt>
      <trkpt lat="48.62533" lon="2.07501">
        <ele>160.4</ele>
        <time>2023-03-05T16:04:00Z</time>
      </trkpt>
      <trkpt lat="48.6253" lon="2.07502">
        <ele>160.4</ele>
        <time>2023-03-05T16:04:02Z</time>
      </trkpt>
      <trkpt lat="48.62526" lon="2.07502">
        <ele>160.2</ele>
        <time>2023-03-05T16:04:04Z</time>
      </trkpt>
      <trkpt lat="48.62524" lon="2.07502">
        <ele>160.2</ele>
        <time>2023-03-05T16:04:06Z</time>
      </trkpt>
      <trkpt lat="48.62521" lon="2.07501">
        <ele>160.2</ele>
        <time>2023-03-05T16:04:08Z</time>
      </trkpt>
      <trkpt lat="48.62517" lon="2.07501">
        <ele>160.2</ele>
        <time>2023-03-05T16:04:10Z</time>
      </trkpt>
      <trkpt lat="48.62515" lon="2.075">
        <ele>160</ele>
        <time>2023-03-05T16:04:12Z</time>
      </trkpt>
      <trkpt lat="48.62512" lon="2.07499">
        <ele>160</ele>
        <time>2023-03-05T16:04:14Z</time>
      </trkpt>
      <trkpt lat="48.62509" lon="2.07498">
        <ele>160</ele>
        <time>2023-03-05T16:04:16Z</time>
      </trkpt>
      <trkpt lat="48.62507" lon="2.07497">
        <ele>160</ele>
        <time>2023-03-05T16:04:18Z</time>
      </trkpt>
      <trkpt lat="48.62504" lon="2.07497">
        <ele>160.2</ele>
        <time>2023-03-05T16:04:20Z</time>
      </trkpt>
      <trkpt lat="48.62501" lon="2.07496">
        <ele>160.2</ele>
        <time>2023-03-05T16:04:22Z</time>
      </trkpt>
      <trkpt lat="48.62498" lon="2.07496">
        <ele>160</ele>
        <time>2023-03-05T16:04:24Z</time>
      </trkpt>
      <trkpt lat="48.62495" lon="2.07496">
        <ele>160</ele>
        <time>2023-03-05T16:04:26Z</time>
      </trkpt>
      <trkpt lat="48.62492" lon="2.07495">
        <ele>160</ele>
        <time>2023-03-05T16:04:28Z</time>
      </trkpt>
      <trkpt lat="48.62489" lon="2.07495">
        <ele>160</ele>
        <time>2023-03-05T16:04:30Z</time>
      </trkpt>
      <trkpt lat="48.62487" lon="2.07495">
        <ele>160</ele>
        <time>2023-03-05T16:04:32Z</time>
      </trkpt>
      <trkpt lat="48.62484" lon="2.07495">
        <ele>160</ele>
        <time>2023-03-05T16:04:34Z</time>
      </trkpt>
      <trkpt lat="48.62482" lon="2.07494">
        <ele>160.2</ele>
        <time>2023-03-05T16:04:36Z</time>
      </trkpt>
      <trkpt lat="48.62479" lon="2.07494">
        <ele>160.4</ele>
        <time>2023-03-05T16:04:38Z</time>
      </trkpt>
      <trkpt lat="48.62476" lon="2.07494">
        <ele>160.4</ele>
        <time>2023-03-05T16:04:40Z</time>
      </trkpt>
      <trkpt lat="48.62473" lon="2.07494">
        <ele>160.4</ele>
        <time>2023-03-05T16:04:42Z</time>
      </trkpt>
      <trkpt lat="48.62471" lon="2.07494">
        <ele>160.6</ele>
        <time>2023-03-05T16:04:44Z</time>
      </trkpt>
      <trkpt lat="48.62468" lon="2.07494">
        <ele>160.6</ele>
        <time>2023-03-05T16:04:46Z</time>
      </trkpt>
      <trkpt lat="48.62465" lon="2.07494">
        <ele>160.6</ele>
        <time>2023-03-05T16:04:48Z</time>
      </trkpt>
      <trkpt lat="48.62462" lon="2.07494">
        <ele>160.6</ele>
        <time>2023-03-05T16:04:50Z</time>
      </trkpt>
      <trkpt lat="48.6246" lon="2.07493">
        <ele>160.8</ele>
        <time>2023-03-05T16:04:52Z</time>
      </trkpt>
      <trkpt lat="48.62457" lon="2.07492">
        <ele>160.8</ele>
        <time>2023-03-05T16:04:54Z</time>
      </trkpt>
      <trkpt lat="48.62455" lon="2.07491">
        <ele>161</ele>
        <time>2023-03-05T16:04:56Z</time>
      </trkpt>
      <trkpt lat="48.62452" lon="2.0749">
        <ele>161.2</ele>
        <time>2023-03-05T16:04:58Z</time>
      </trkpt>
      <trkpt lat="48.62449" lon="2.07489">
        <ele>161.2</ele>
        <time>2023-03-05T16:05:00Z</time>
      </trkpt>
      <trkpt lat="48.62447" lon="2.07488">
        <ele>161.2</ele>
        <time>2023-03-05T16:05:02Z</time>
      </trkpt>
      <trkpt lat="48.62444" lon="2.07487">
        <ele>161.2</ele>
        <time>2023-03-05T16:05:04Z</time>
      </trkpt>
      <trkpt lat="48.62441" lon="2.07486">
        <ele>161.2</ele>
        <time>2023-03-05T16:05:06Z</time>
      </trkpt>
      <trkpt lat="48.62438" lon="2.07485">
        <ele>161.2</ele>
        <time>2023-03-05T16:05:08Z</time>
      </trkpt>
      <trkpt lat="48.62435" lon="2.07484">
        <ele>161.2</ele>
        <time>2023-03-05T16:05:10Z</time>
      </trkpt>
      <trkpt lat="48.62432" lon="2.07483">
        <ele>161</ele>
        <time>2023-03-05T16:05:12Z</time>
      </trkpt>
      <trkpt lat="48.6243" lon="2.07482">
        <ele>161</ele>
        <time>2023-03-05T16:05:14Z</time>
      </trkpt>
      <trkpt lat="48.62427" lon="2.0748">
        <ele>161</ele>
        <time>2023-03-05T16:05:16Z</time>
      </trkpt>
      <trkpt lat="48.62425" lon="2.07479">
        <ele>160.8</ele>
        <time>2023-03-05T16:05:18Z</time>
      </trkpt>
      <trkpt lat="48.62422" lon="2.07478">
        <ele>160.6</ele>
        <time>2023-03-05T16:05:20Z</time>
      </trkpt>
      <trkpt lat="48.6242" lon="2.07476">
        <ele>160.6</ele>
        <time>2023-03-05T16:05:22Z</time>
      </trkpt>
      <trkpt lat="48.62417" lon="2.07475">
        <ele>160.4</ele>
        <time>2023-03-05T16:05:24Z</time>
      </trkpt>
      <trkpt lat="48.62414" lon="2.07473">
        <ele>160.4</ele>
        <time>2023-03-05T16:05:26Z</time>
      </trkpt>
      <trkpt lat="48.62412" lon="2.07472">
        <ele>160.4</ele>
        <time>2023-03-05T16:05:28Z</time>
      </trkpt>
      <trkpt lat="48.6241" lon="2.07471">
        <ele>160.4</ele>
        <time>2023-03-05T16:05:30Z</time>
      </trkpt>
      <trkpt lat="48.62407" lon="2.07471">
        <ele>160.4</ele>
        <time>2023-03-05T16:05:32Z</time>
      </trkpt>
      <trkpt lat="48.62404" lon="2.07471">
        <ele>160.2</ele>
        <time>2023-03-05T16:05:34Z</time>
      </trkpt>
      <trkpt lat="48.62402" lon="2.07472">
        <ele>160.2</ele>
        <time>2023-03-05T16:05:36Z</time>
      </trkpt>
      <trkpt lat="48.62398" lon="2.07472">
        <ele>160.2</ele>
        <time>2023-03-05T16:05:38Z</time>
      </trkpt>
      <trkpt lat="48.62396" lon="2.07472">
        <ele>160</ele>
        <time>2023-03-05T16:05:40Z</time>
      </trkpt>
      <trkpt lat="48.62393" lon="2.07471">
        <ele>159.8</ele>
        <time>2023-03-05T16:05:42Z</time>
      </trkpt>
      <trkpt lat="48.6239" lon="2.07471">
        <ele>159.8</ele>
        <time>2023-03-05T16:05:44Z</time>
      </trkpt>
      <trkpt lat="48.62388" lon="2.07469">
        <ele>159.6</ele>
        <time>2023-03-05T16:05:46Z</time>
      </trkpt>
      <trkpt lat="48.62385" lon="2.07468">
        <ele>159.4</ele>
        <time>2023-03-05T16:05:48Z</time>
      </trkpt>
      <trkpt lat="48.62382" lon="2.07466">
        <ele>159.4</ele>
        <time>2023-03-05T16:05:50Z</time>
      </trkpt>
      <trkpt lat="48.6238" lon="2.07464">
        <ele>159.2</ele>
        <time>2023-03-05T16:05:52Z</time>
      </trkpt>
      <trkpt lat="48.62377" lon="2.07461">
        <ele>159</ele>
        <time>2023-03-05T16:05:54Z</time>
      </trkpt>
      <trkpt lat="48.62374" lon="2.07459">
        <ele>159</ele>
        <time>2023-03-05T16:05:56Z</time>
      </trkpt>
      <trkpt lat="48.62372" lon="2.07457">
        <ele>159</ele>
        <time>2023-03-05T16:05:58Z</time>
      </trkpt>
      <trkpt lat="48.62369" lon="2.07455">
        <ele>159</ele>
        <time>2023-03-05T16:06:00Z</time>
      </trkpt>
      <trkpt lat="48.62366" lon="2.07453">
        <ele>158.8</ele>
        <time>2023-03-05T16:06:02Z</time>
      </trkpt>
      <trkpt lat="48.62364" lon="2.07451">
        <ele>158.6</ele>
        <time>2023-03-05T16:06:04Z</time>
      </trkpt>
      <trkpt lat="48.62362" lon="2.07449">
        <ele>158.6</ele>
        <time>2023-03-05T16:06:06Z</time>
      </trkpt>
      <trkpt lat="48.6236" lon="2.07447">
        <ele>158.6</ele>
        <time>2023-03-05T16:06:08Z</time>
      </trkpt>
      <trkpt lat="48.62357" lon="2.07445">
        <ele>158.6</ele>
        <time>2023-03-05T16:06:10Z</time>
      </trkpt>
      <trkpt lat="48.62355" lon="2.07443">
        <ele>158.6</ele>
        <time>2023-03-05T16:06:12Z</time>
      </trkpt>
      <trkpt lat="48.62352" lon="2.07441">
        <ele>158.4</ele>
        <time>2023-03-05T16:06:14Z</time>
      </trkpt>
      <trkpt lat="48.6235" lon="2.07438">
        <ele>158.2</ele>
        <time>2023-03-05T16:06:16Z</time>
      </trkpt>
      <trkpt lat="48.62348" lon="2.07435">
        <ele>158</ele>
        <time>2023-03-05T16:06:18Z</time>
      </trkpt>
      <trkpt lat="48.62345" lon="2.07432">
        <ele>157.8</ele>
        <time>2023-03-05T16:06:20Z</time>
      </trkpt>
      <trkpt lat="48.62343" lon="2.07429">
        <ele>157.6</ele>
        <time>2023-03-05T16:06:22Z</time>
      </trkpt>
      <trkpt lat="48.6234" lon="2.07426">
        <ele>157.4</ele>
        <time>2023-03-05T16:06:24Z</time>
      </trkpt>
      <trkpt lat="48.62338" lon="2.07423">
        <ele>157.2</ele>
        <time>2023-03-05T16:06:26Z</time>
      </trkpt>
      <trkpt lat="48.62336" lon="2.0742">
        <ele>156.8</ele>
        <time>2023-03-05T16:06:28Z</time>
      </trkpt>
      <trkpt lat="48.62334" lon="2.07417">
        <ele>156.6</ele>
        <time>2023-03-05T16:06:30Z</time>
      </trkpt>
      <trkpt lat="48.62332" lon="2.07414">
        <ele>156.4</ele>
        <time>2023-03-05T16:06:32Z</time>
      </trkpt>
      <trkpt lat="48.6233" lon="2.0741">
        <ele>156.2</ele>
        <time>2023-03-05T16:06:34Z</time>
      </trkpt>
      <trkpt lat="48.62328" lon="2.07407">
        <ele>156</ele>
        <time>2023-03-05T16:06:36Z</time>
      </trkpt>
      <trkpt lat="48.62326" lon="2.07405">
        <ele>156</ele>
        <time>2023-03-05T16:06:38Z</time>
      </trkpt>
      <trkpt lat="48.62324" lon="2.07402">
        <ele>155.8</ele>
        <time>2023-03-05T16:06:40Z</time>
      </trkpt>
      <trkpt lat="48.62321" lon="2.074">
        <ele>155.8</ele>
        <time>2023-03-05T16:06:42Z</time>
      </trkpt>
      <trkpt lat="48.62318" lon="2.07397">
        <ele>155.6</ele>
        <time>2023-03-05T16:06:44Z</time>
      </trkpt>
      <trkpt lat="48.62316" lon="2.07394">
        <ele>155.4</ele>
        <time>2023-03-05T16:06:46Z</time>
      </trkpt>
      <trkpt lat="48.62314" lon="2.07393">
        <ele>155.4</ele>
        <time>2023-03-05T16:06:47Z</time>
      </trkpt>
      <trkpt lat="48.62311" lon="2.07391">
        <ele>155.2</ele>
        <time>2023-03-05T16:06:49Z</time>
      </trkpt>
      <trkpt lat="48.62308" lon="2.07388">
        <ele>155.2</ele>
        <time>2023-03-05T16:06:51Z</time>
      </trkpt>
      <trkpt lat="48.62306" lon="2.07387">
        <ele>155.2</ele>
        <time>2023-03-05T16:06:53Z</time>
      </trkpt>
      <trkpt lat="48.62302" lon="2.07385">
        <ele>155</ele>
        <time>2023-03-05T16:06:55Z</time>
      </trkpt>
      <trkpt lat="48.623" lon="2.07383">
        <ele>154.8</ele>
        <time>2023-03-05T16:06:57Z</time>
      </trkpt>
      <trkpt lat="48.62297" lon="2.07381">
        <ele>154.6</ele>
        <time>2023-03-05T16:06:59Z</time>
      </trkpt>
      <trkpt lat="48.62294" lon="2.0738">
        <ele>154.6</ele>
        <time>2023-03-05T16:07:01Z</time>
      </trkpt>
      <trkpt lat="48.62292" lon="2.07379">
        <ele>154.6</ele>
        <time>2023-03-05T16:07:03Z</time>
      </trkpt>
      <trkpt lat="48.62289" lon="2.07379">
        <ele>154.4</ele>
        <time>2023-03-05T16:07:05Z</time>
      </trkpt>
      <trkpt lat="48.62286" lon="2.0738">
        <ele>154.4</ele>
        <time>2023-03-05T16:07:07Z</time>
      </trkpt>
      <trkpt lat="48.62284" lon="2.07381">
        <ele>154.4</ele>
        <time>2023-03-05T16:07:08Z</time>
      </trkpt>
      <trkpt lat="48.62281" lon="2.07382">
        <ele>154.4</ele>
        <time>2023-03-05T16:07:10Z</time>
      </trkpt>
      <trkpt lat="48.62278" lon="2.07384">
        <ele>154.4</ele>
        <time>2023-03-05T16:07:12Z</time>
      </trkpt>
      <trkpt lat="48.62275" lon="2.07385">
        <ele>154.2</ele>
        <time>2023-03-05T16:07:14Z</time>
      </trkpt>
      <trkpt lat="48.62272" lon="2.07386">
        <ele>154</ele>
        <time>2023-03-05T16:07:16Z</time>
      </trkpt>
      <trkpt lat="48.62269" lon="2.07386">
        <ele>154</ele>
        <time>2023-03-05T16:07:18Z</time>
      </trkpt>
      <trkpt lat="48.62266" lon="2.07387">
        <ele>153.8</ele>
        <time>2023-03-05T16:07:20Z</time>
      </trkpt>
      <trkpt lat="48.62263" lon="2.07387">
        <ele>153.8</ele>
        <time>2023-03-05T16:07:22Z</time>
      </trkpt>
      <trkpt lat="48.6226" lon="2.07388">
        <ele>153.8</ele>
        <time>2023-03-05T16:07:24Z</time>
      </trkpt>
      <trkpt lat="48.62258" lon="2.07389">
        <ele>153.8</ele>
        <time>2023-03-05T16:07:26Z</time>
      </trkpt>
      <trkpt lat="48.62255" lon="2.0739">
        <ele>153.6</ele>
        <time>2023-03-05T16:07:28Z</time>
      </trkpt>
      <trkpt lat="48.62253" lon="2.0739">
        <ele>153.8</ele>
        <time>2023-03-05T16:07:30Z</time>
      </trkpt>
      <trkpt lat="48.6225" lon="2.07391">
        <ele>153.8</ele>
        <time>2023-03-05T16:07:32Z</time>
      </trkpt>
      <trkpt lat="48.62247" lon="2.07391">
        <ele>153.8</ele>
        <time>2023-03-05T16:07:34Z</time>
      </trkpt>
      <trkpt lat="48.62245" lon="2.07391">
        <ele>154</ele>
        <time>2023-03-05T16:07:36Z</time>
      </trkpt>
      <trkpt lat="48.62242" lon="2.07391">
        <ele>154.2</ele>
        <time>2023-03-05T16:07:38Z</time>
      </trkpt>
      <trkpt lat="48.62239" lon="2.07391">
        <ele>154.4</ele>
        <time>2023-03-05T16:07:40Z</time>
      </trkpt>
      <trkpt lat="48.62237" lon="2.07391">
        <ele>154.6</ele>
        <time>2023-03-05T16:07:42Z</time>
      </trkpt>
      <trkpt lat="48.62234" lon="2.07391">
        <ele>154.8</ele>
        <time>2023-03-05T16:07:44Z</time>
      </trkpt>
      <trkpt lat="48.62231" lon="2.0739">
        <ele>155</ele>
        <time>2023-03-05T16:07:46Z</time>
      </trkpt>
      <trkpt lat="48.62229" lon="2.07389">
        <ele>155.2</ele>
        <time>2023-03-05T16:07:48Z</time>
      </trkpt>
      <trkpt lat="48.62227" lon="2.07389">
        <ele>155.4</ele>
        <time>2023-03-05T16:07:50Z</time>
      </trkpt>
      <trkpt lat="48.62224" lon="2.07389">
        <ele>155.6</ele>
        <time>2023-03-05T16:07:52Z</time>
      </trkpt>
      <trkpt lat="48.62221" lon="2.07389">
        <ele>155.8</ele>
        <time>2023-03-05T16:07:54Z</time>
      </trkpt>
      <trkpt lat="48.62219" lon="2.07388">
        <ele>155.8</ele>
        <time>2023-03-05T16:07:56Z</time>
      </trkpt>
      <trkpt lat="48.62216" lon="2.07387">
        <ele>156</ele>
        <time>2023-03-05T16:07:58Z</time>
      </trkpt>
      <trkpt lat="48.62213" lon="2.07386">
        <ele>156.2</ele>
        <time>2023-03-05T16:08:00Z</time>
      </trkpt>
      <trkpt lat="48.62211" lon="2.07384">
        <ele>156.2</ele>
        <time>2023-03-05T16:08:02Z</time>
      </trkpt>
      <trkpt lat="48.62208" lon="2.07382">
        <ele>156.4</ele>
        <time>2023-03-05T16:08:04Z</time>
      </trkpt>
      <trkpt lat="48.62205" lon="2.0738">
        <ele>156.6</ele>
        <time>2023-03-05T16:08:06Z</time>
      </trkpt>
      <trkpt lat="48.62204" lon="2.07379">
        <ele>156.6</ele>
        <time>2023-03-05T16:08:08Z</time>
      </trkpt>
      <trkpt lat="48.62202" lon="2.07376">
        <ele>156.8</ele>
        <time>2023-03-05T16:08:10Z</time>
      </trkpt>
      <trkpt lat="48.62201" lon="2.07374">
        <ele>157</ele>
        <time>2023-03-05T16:08:12Z</time>
      </trkpt>
      <trkpt lat="48.62199" lon="2.07373">
        <ele>157.2</ele>
        <time>2023-03-05T16:08:14Z</time>
      </trkpt>
      <trkpt lat="48.62197" lon="2.07372">
        <ele>157.6</ele>
        <time>2023-03-05T16:08:16Z</time>
      </trkpt>
      <trkpt lat="48.62195" lon="2.07372">
        <ele>158</ele>
        <time>2023-03-05T16:08:18Z</time>
      </trkpt>
      <trkpt lat="48.62192" lon="2.07371">
        <ele>158.2</ele>
        <time>2023-03-05T16:08:20Z</time>
      </trkpt>
      <trkpt lat="48.6219" lon="2.07369">
        <ele>158.4</ele>
        <time>2023-03-05T16:08:22Z</time>
      </trkpt>
      <trkpt lat="48.62188" lon="2.07368">
        <ele>158.8</ele>
        <time>2023-03-05T16:08:24Z</time>
      </trkpt>
      <trkpt lat="48.62187" lon="2.07366">
        <ele>159.2</ele>
        <time>2023-03-05T16:08:26Z</time>
      </trkpt>
      <trkpt lat="48.62184" lon="2.07364">
        <ele>159.6</ele>
        <time>2023-03-05T16:08:28Z</time>
      </trkpt>
      <trkpt lat="48.62181" lon="2.07362">
        <ele>160.2</ele>
        <time>2023-03-05T16:08:30Z</time>
      </trkpt>
      <trkpt lat="48.62179" lon="2.0736">
        <ele>160.6</ele>
        <time>2023-03-05T16:08:32Z</time>
      </trkpt>
      <trkpt lat="48.62177" lon="2.07359">
        <ele>161.2</ele>
        <time>2023-03-05T16:08:34Z</time>
      </trkpt>
      <trkpt lat="48.62174" lon="2.07358">
        <ele>161.6</ele>
        <time>2023-03-05T16:08:36Z</time>
      </trkpt>
      <trkpt lat="48.62171" lon="2.07356">
        <ele>162</ele>
        <time>2023-03-05T16:08:38Z</time>
      </trkpt>
      <trkpt lat="48.62167" lon="2.07354">
        <ele>162.6</ele>
        <time>2023-03-05T16:08:40Z</time>
      </trkpt>
      <trkpt lat="48.62165" lon="2.07353">
        <ele>162.8</ele>
        <time>2023-03-05T16:08:41Z</time>
      </trkpt>
      <trkpt lat="48.62163" lon="2.07352">
        <ele>163.2</ele>
        <time>2023-03-05T16:08:42Z</time>
      </trkpt>
      <trkpt lat="48.62161" lon="2.07351">
        <ele>163.4</ele>
        <time>2023-03-05T16:08:43Z</time>
      </trkpt>
      <trkpt lat="48.62159" lon="2.07351">
        <ele>163.8</ele>
        <time>2023-03-05T16:08:44Z</time>
      </trkpt>
      <trkpt lat="48.62157" lon="2.0735">
        <ele>164</ele>
        <time>2023-03-05T16:08:45Z</time>
      </trkpt>
      <trkpt lat="48.62155" lon="2.0735">
        <ele>164.4</ele>
        <time>2023-03-05T16:08:46Z</time>
      </trkpt>
      <trkpt lat="48.62153" lon="2.0735">
        <ele>164.8</ele>
        <time>2023-03-05T16:08:47Z</time>
      </trkpt>
      <trkpt lat="48.62151" lon="2.0735">
        <ele>165</ele>
        <time>2023-03-05T16:08:48Z</time>
      </trkpt>
      <trkpt lat="48.62148" lon="2.07349">
        <ele>165.6</ele>
        <time>2023-03-05T16:08:50Z</time>
      </trkpt>
      <trkpt lat="48.62146" lon="2.07348">
        <ele>166</ele>
        <time>2023-03-05T16:08:51Z</time>
      </trkpt>
      <trkpt lat="48.62144" lon="2.07347">
        <ele>166.2</ele>
        <time>2023-03-05T16:08:52Z</time>
      </trkpt>
      <trkpt lat="48.62141" lon="2.07346">
        <ele>166.8</ele>
        <time>2023-03-05T16:08:54Z</time>
      </trkpt>
      <trkpt lat="48.62139" lon="2.07345">
        <ele>167.2</ele>
        <time>2023-03-05T16:08:55Z</time>
      </trkpt>
      <trkpt lat="48.62137" lon="2.07345">
        <ele>167.6</ele>
        <time>2023-03-05T16:08:56Z</time>
      </trkpt>
      <trkpt lat="48.62135" lon="2.07344">
        <ele>167.8</ele>
        <time>2023-03-05T16:08:57Z</time>
      </trkpt>
      <trkpt lat="48.62132" lon="2.07343">
        <ele>168.4</ele>
        <time>2023-03-05T16:08:59Z</time>
      </trkpt>
      <trkpt lat="48.6213" lon="2.07343">
        <ele>168.6</ele>
        <time>2023-03-05T16:09:00Z</time>
      </trkpt>
      <trkpt lat="48.62128" lon="2.07344">
        <ele>169</ele>
        <time>2023-03-05T16:09:01Z</time>
      </trkpt>
      <trkpt lat="48.62124" lon="2.07344">
        <ele>169.4</ele>
        <time>2023-03-05T16:09:03Z</time>
      </trkpt>
      <trkpt lat="48.62121" lon="2.07345">
        <ele>169.8</ele>
        <time>2023-03-05T16:09:05Z</time>
      </trkpt>
      <trkpt lat="48.62118" lon="2.07346">
        <ele>170.2</ele>
        <time>2023-03-05T16:09:07Z</time>
      </trkpt>
      <trkpt lat="48.62116" lon="2.07347">
        <ele>170.6</ele>
        <time>2023-03-05T16:09:09Z</time>
      </trkpt>
      <trkpt lat="48.62112" lon="2.07348">
        <ele>170.8</ele>
        <time>2023-03-05T16:09:11Z</time>
      </trkpt>
      <trkpt lat="48.62109" lon="2.0735">
        <ele>171.2</ele>
        <time>2023-03-05T16:09:13Z</time>
      </trkpt>
      <trkpt lat="48.62106" lon="2.07352">
        <ele>171.4</ele>
        <time>2023-03-05T16:09:15Z</time>
      </trkpt>
      <trkpt lat="48.62104" lon="2.07354">
        <ele>171.8</ele>
        <time>2023-03-05T16:09:17Z</time>
      </trkpt>
      <trkpt lat="48.621" lon="2.07355">
        <ele>172.4</ele>
        <time>2023-03-05T16:09:19Z</time>
      </trkpt>
      <trkpt lat="48.62097" lon="2.07356">
        <ele>172.8</ele>
        <time>2023-03-05T16:09:21Z</time>
      </trkpt>
      <trkpt lat="48.62094" lon="2.07357">
        <ele>173.2</ele>
        <time>2023-03-05T16:09:23Z</time>
      </trkpt>
      <trkpt lat="48.62091" lon="2.07358">
        <ele>173.6</ele>
        <time>2023-03-05T16:09:25Z</time>
      </trkpt>
      <trkpt lat="48.62088" lon="2.07359">
        <ele>173.8</ele>
        <time>2023-03-05T16:09:27Z</time>
      </trkpt>
      <trkpt lat="48.62086" lon="2.07359">
        <ele>174.2</ele>
        <time>2023-03-05T16:09:29Z</time>
      </trkpt>
      <trkpt lat="48.62084" lon="2.07359">
        <ele>174.4</ele>
        <time>2023-03-05T16:09:31Z</time>
      </trkpt>
      <trkpt lat="48.62081" lon="2.07359">
        <ele>174.8</ele>
        <time>2023-03-05T16:09:33Z</time>
      </trkpt>
      <trkpt lat="48.62078" lon="2.07359">
        <ele>175.2</ele>
        <time>2023-03-05T16:09:35Z</time>
      </trkpt>
      <trkpt lat="48.62075" lon="2.0736">
        <ele>175.6</ele>
        <time>2023-03-05T16:09:37Z</time>
        <extensions>
          <gpxtpx:TrackPointExtension xmlns:gpxtpx="http://www.garmin.com/xmlschemas/TrackPointExtension/v1">
            <gpxtpx:hr>103</gpxtpx:hr>
          </gpxtpx:TrackPointExtension>
        </extensions>
      </trkpt>
      <trkpt lat="48.62072" lon="2.0736">
        <ele>176</ele>
        <time>2023-03-05T16:09:39Z</time>
      </trkpt>
      <trkpt lat="48.62068" lon="2.0736">
        <ele>176.4</ele>
        <time>2023-03-05T16:09:41Z</time>
      </trkpt>
      <trkpt lat="48.62066" lon="2.0736">
        <ele>176.8</ele>
        <time>2023-03-05T16:09:43Z</time>
      </trkpt>
      <trkpt lat="48.62064" lon="2.0736">
        <ele>177.4</ele>
        <time>2023-03-05T16:09:48Z</time>
      </trkpt>
      <trkpt lat="48.62062" lon="2.07361">
        <ele>178.2</ele>
        <time>2023-03-05T16:09:53Z</time>
      </trkpt>
      <trkpt lat="48.6206" lon="2.0736">
        <ele>178.4</ele>
        <time>2023-03-05T16:09:59Z</time>
      </trkpt>
      <trkpt lat="48.62057" lon="2.07361">
        <ele>178.6</ele>
        <time>2023-03-05T16:10:06Z</time>
      </trkpt>
      <trkpt lat="48.62055" lon="2.07362">
        <ele>178.8</ele>
        <time>2023-03-05T16:10:08Z</time>
      </trkpt>
      <trkpt lat="48.62052" lon="2.07364">
        <ele>178.8</ele>
        <time>2023-03-05T16:10:10Z</time>
      </trkpt>
      <trkpt lat="48.62049" lon="2.07366">
        <ele>179</ele>
        <time>2023-03-05T16:10:12Z</time>
      </trkpt>
      <trkpt lat="48.62046" lon="2.07367">
        <ele>179</ele>
        <time>2023-03-05T16:10:14Z</time>
      </trkpt>
      <trkpt lat="48.62043" lon="2.07369">
        <ele>179</ele>
        <time>2023-03-05T16:10:16Z</time>
      </trkpt>
      <trkpt lat="48.6204" lon="2.07369">
        <ele>179</ele>
        <time>2023-03-05T16:10:18Z</time>
      </trkpt>
      <trkpt lat="48.62037" lon="2.0737">
        <ele>179</ele>
        <time>2023-03-05T16:10:20Z</time>
      </trkpt>
      <trkpt lat="48.62034" lon="2.07371">
        <ele>179</ele>
        <time>2023-03-05T16:10:22Z</time>
      </trkpt>
      <trkpt lat="48.62032" lon="2.07371">
        <ele>179</ele>
        <time>2023-03-05T16:10:23Z</time>
      </trkpt>
      <trkpt lat="48.6203" lon="2.07372">
        <ele>179</ele>
        <time>2023-03-05T16:10:24Z</time>
      </trkpt>
      <trkpt lat="48.62028" lon="2.07372">
        <ele>179</ele>
        <time>2023-03-05T16:10:25Z</time>
      </trkpt>
      <trkpt lat="48.62026" lon="2.07373">
        <ele>179</ele>
        <time>2023-03-05T16:10:26Z</time>
      </trkpt>
      <trkpt lat="48.62023" lon="2.07373">
        <ele>179</ele>
        <time>2023-03-05T16:10:27Z</time>
      </trkpt>
      <trkpt lat="48.62021" lon="2.07373">
        <ele>179</ele>
        <time>2023-03-05T16:10:28Z</time>
      </trkpt>
      <trkpt lat="48.62019" lon="2.07374">
        <ele>179</ele>
        <time>2023-03-05T16:10:29Z</time>
      </trkpt>
      <trkpt lat="48.62017" lon="2.07374">
        <ele>179</ele>
        <time>2023-03-05T16:10:30Z</time>
      </trkpt>
      <trkpt lat="48.62015" lon="2.07375">
        <ele>179</ele>
        <time>2023-03-05T16:10:31Z</time>
      </trkpt>
      <trkpt lat="48.62013" lon="2.07375">
        <ele>179</ele>
        <time>2023-03-05T16:10:32Z</time>
      </trkpt>
      <trkpt lat="48.6201" lon="2.07377">
        <ele>178.8</ele>
        <time>2023-03-05T16:10:34Z</time>
      </trkpt>
      <trkpt lat="48.62008" lon="2.07378">
        <ele>178.8</ele>
        <time>2023-03-05T16:10:36Z</time>
      </trkpt>
      <trkpt lat="48.62005" lon="2.0738">
        <ele>178.8</ele>
        <time>2023-03-05T16:10:38Z</time>
      </trkpt>
      <trkpt lat="48.62002" lon="2.07382">
        <ele>178.8</ele>
        <time>2023-03-05T16:10:40Z</time>
      </trkpt>
      <trkpt lat="48.62" lon="2.07383">
        <ele>178.8</ele>
        <time>2023-03-05T16:10:41Z</time>
      </trkpt>
      <trkpt lat="48.61998" lon="2.07385">
        <ele>179</ele>
        <time>2023-03-05T16:10:42Z</time>
      </trkpt>
      <trkpt lat="48.61995" lon="2.07387">
        <ele>179</ele>
        <time>2023-03-05T16:10:44Z</time>
      </trkpt>
      <trkpt lat="48.61991" lon="2.07388">
        <ele>179.2</ele>
        <time>2023-03-05T16:10:46Z</time>
      </trkpt>
      <trkpt lat="48.61988" lon="2.0739">
        <ele>179.4</ele>
        <time>2023-03-05T16:10:48Z</time>
      </trkpt>
      <trkpt lat="48.61986" lon="2.07392">
        <ele>179.4</ele>
        <time>2023-03-05T16:10:50Z</time>
      </trkpt>
      <trkpt lat="48.61984" lon="2.07394">
        <ele>179.6</ele>
        <time>2023-03-05T16:10:52Z</time>
      </trkpt>
      <trkpt lat="48.61982" lon="2.07397">
        <ele>179.6</ele>
        <time>2023-03-05T16:10:54Z</time>
      </trkpt>
      <trkpt lat="48.6198" lon="2.07399">
        <ele>179.6</ele>
        <time>2023-03-05T16:10:56Z</time>
      </trkpt>
      <trkpt lat="48.61979" lon="2.07403">
        <ele>179.4</ele>
        <time>2023-03-05T16:10:58Z</time>
      </trkpt>
      <trkpt lat="48.61978" lon="2.07407">
        <ele>179.2</ele>
        <time>2023-03-05T16:11:00Z</time>
      </trkpt>
      <trkpt lat="48.61977" lon="2.07412">
        <ele>179.4</ele>
        <time>2023-03-05T16:11:02Z</time>
      </trkpt>
      <trkpt lat="48.61975" lon="2.07416">
        <ele>179.4</ele>
        <time>2023-03-05T16:11:04Z</time>
      </trkpt>
      <trkpt lat="48.61974" lon="2.0742">
        <ele>179.2</ele>
        <time>2023-03-05T16:11:06Z</time>
      </trkpt>
      <trkpt lat="48.61972" lon="2.07423">
        <ele>179</ele>
        <time>2023-03-05T16:11:08Z</time>
      </trkpt>
      <trkpt lat="48.61972" lon="2.07427">
        <ele>179</ele>
        <time>2023-03-05T16:11:10Z</time>
      </trkpt>
      <trkpt lat="48.61971" lon="2.07431">
        <ele>178.8</ele>
        <time>2023-03-05T16:11:12Z</time>
      </trkpt>
      <trkpt lat="48.6197" lon="2.07435">
        <ele>178.6</ele>
        <time>2023-03-05T16:11:14Z</time>
      </trkpt>
      <trkpt lat="48.61969" lon="2.0744">
        <ele>178.2</ele>
        <time>2023-03-05T16:11:16Z</time>
      </trkpt>
      <trkpt lat="48.61967" lon="2.07444">
        <ele>177.8</ele>
        <time>2023-03-05T16:11:18Z</time>
      </trkpt>
      <trkpt lat="48.61966" lon="2.07449">
        <ele>177.6</ele>
        <time>2023-03-05T16:11:20Z</time>
      </trkpt>
      <trkpt lat="48.61964" lon="2.07453">
        <ele>177.2</ele>
        <time>2023-03-05T16:11:22Z</time>
      </trkpt>
      <trkpt lat="48.61964" lon="2.07456">
        <ele>177</ele>
        <time>2023-03-05T16:11:23Z</time>
      </trkpt>
      <trkpt lat="48.61963" lon="2.07458">
        <ele>176.8</ele>
        <time>2023-03-05T16:11:24Z</time>
      </trkpt>
      <trkpt lat="48.61962" lon="2.0746">
        <ele>176.6</ele>
        <time>2023-03-05T16:11:25Z</time>
      </trkpt>
      <trkpt lat="48.6196" lon="2.07465">
        <ele>176.2</ele>
        <time>2023-03-05T16:11:27Z</time>
      </trkpt>
      <trkpt lat="48.61959" lon="2.07468">
        <ele>176</ele>
        <time>2023-03-05T16:11:28Z</time>
      </trkpt>
      <trkpt lat="48.61958" lon="2.07472">
        <ele>175.8</ele>
        <time>2023-03-05T16:11:30Z</time>
      </trkpt>
      <trkpt lat="48.61957" lon="2.07477">
        <ele>175.6</ele>
        <time>2023-03-05T16:11:32Z</time>
      </trkpt>
      <trkpt lat="48.61956" lon="2.07481">
        <ele>175.2</ele>
        <time>2023-03-05T16:11:34Z</time>
      </trkpt>
      <trkpt lat="48.61955" lon="2.07486">
        <ele>175.2</ele>
        <time>2023-03-05T16:11:36Z</time>
      </trkpt>
      <trkpt lat="48.61955" lon="2.07491">
        <ele>175</ele>
        <time>2023-03-05T16:11:38Z</time>
      </trkpt>
      <trkpt lat="48.61953" lon="2.07495">
        <ele>175</ele>
        <time>2023-03-05T16:11:40Z</time>
      </trkpt>
      <trkpt lat="48.61951" lon="2.07499">
        <ele>174.8</ele>
        <time>2023-03-05T16:11:42Z</time>
      </trkpt>
      <trkpt lat="48.61949" lon="2.07503">
        <ele>174.8</ele>
        <time>2023-03-05T16:11:44Z</time>
      </trkpt>
      <trkpt lat="48.61948" lon="2.07507">
        <ele>174.6</ele>
        <time>2023-03-05T16:11:46Z</time>
      </trkpt>
      <trkpt lat="48.61945" lon="2.0751">
        <ele>174.6</ele>
        <time>2023-03-05T16:11:48Z</time>
      </trkpt>
      <trkpt lat="48.61943" lon="2.07514">
        <ele>174.6</ele>
        <time>2023-03-05T16:11:50Z</time>
      </trkpt>
      <trkpt lat="48.61942" lon="2.07516">
        <ele>174.4</ele>
        <time>2023-03-05T16:11:51Z</time>
      </trkpt>
      <trkpt lat="48.6194" lon="2.0752">
        <ele>174.4</ele>
        <time>2023-03-05T16:11:53Z</time>
      </trkpt>
      <trkpt lat="48.61938" lon="2.07524">
        <ele>174.2</ele>
        <time>2023-03-05T16:11:55Z</time>
      </trkpt>
      <trkpt lat="48.61936" lon="2.07528">
        <ele>174</ele>
        <time>2023-03-05T16:11:57Z</time>
      </trkpt>
      <trkpt lat="48.61935" lon="2.07532">
        <ele>173.8</ele>
        <time>2023-03-05T16:11:59Z</time>
      </trkpt>
      <trkpt lat="48.61933" lon="2.07535">
        <ele>173.4</ele>
        <time>2023-03-05T16:12:01Z</time>
      </trkpt>
      <trkpt lat="48.61931" lon="2.0754">
        <ele>173.2</ele>
        <time>2023-03-05T16:12:03Z</time>
      </trkpt>
      <trkpt lat="48.6193" lon="2.07543">
        <ele>173</ele>
        <time>2023-03-05T16:12:04Z</time>
      </trkpt>
      <trkpt lat="48.61929" lon="2.07545">
        <ele>173</ele>
        <time>2023-03-05T16:12:05Z</time>
      </trkpt>
      <trkpt lat="48.61928" lon="2.07548">
        <ele>172.8</ele>
        <time>2023-03-05T16:12:06Z</time>
      </trkpt>
      <trkpt lat="48.61927" lon="2.07552">
        <ele>172.8</ele>
        <time>2023-03-05T16:12:08Z</time>
      </trkpt>
      <trkpt lat="48.61927" lon="2.07557">
        <ele>172.8</ele>
        <time>2023-03-05T16:12:10Z</time>
      </trkpt>
      <trkpt lat="48.61925" lon="2.0756">
        <ele>172.8</ele>
        <time>2023-03-05T16:12:12Z</time>
      </trkpt>
      <trkpt lat="48.61923" lon="2.07563">
        <ele>172.8</ele>
        <time>2023-03-05T16:12:14Z</time>
      </trkpt>
      <trkpt lat="48.61921" lon="2.07564">
        <ele>173.2</ele>
        <time>2023-03-05T16:12:18Z</time>
      </trkpt>
      <trkpt lat="48.61921" lon="2.07567">
        <ele>173.4</ele>
        <time>2023-03-05T16:12:22Z</time>
      </trkpt>
      <trkpt lat="48.61921" lon="2.07571">
        <ele>173.4</ele>
        <time>2023-03-05T16:12:24Z</time>
      </trkpt>
      <trkpt lat="48.6192" lon="2.07574">
        <ele>173.4</ele>
        <time>2023-03-05T16:12:26Z</time>
      </trkpt>
      <trkpt lat="48.61919" lon="2.07578">
        <ele>173.4</ele>
        <time>2023-03-05T16:12:28Z</time>
      </trkpt>
      <trkpt lat="48.61918" lon="2.07582">
        <ele>173.2</ele>
        <time>2023-03-05T16:12:30Z</time>
      </trkpt>
      <trkpt lat="48.61917" lon="2.07586">
        <ele>173.2</ele>
        <time>2023-03-05T16:12:32Z</time>
      </trkpt>
      <trkpt lat="48.61916" lon="2.0759">
        <ele>173.2</ele>
        <time>2023-03-05T16:12:34Z</time>
      </trkpt>
      <trkpt lat="48.61915" lon="2.07594">
        <ele>173</ele>
        <time>2023-03-05T16:12:36Z</time>
      </trkpt>
      <trkpt lat="48.61915" lon="2.07598">
        <ele>173</ele>
        <time>2023-03-05T16:12:38Z</time>
      </trkpt>
      <trkpt lat="48.61914" lon="2.07602">
        <ele>173</ele>
        <time>2023-03-05T16:12:40Z</time>
      </trkpt>
      <trkpt lat="48.61912" lon="2.07607">
        <ele>172.8</ele>
        <time>2023-03-05T16:12:42Z</time>
      </trkpt>
      <trkpt lat="48.61911" lon="2.07609">
        <ele>172.6</ele>
        <time>2023-03-05T16:12:43Z</time>
      </trkpt>
      <trkpt lat="48.61909" lon="2.07612">
        <ele>172.6</ele>
        <time>2023-03-05T16:12:44Z</time>
      </trkpt>
      <trkpt lat="48.61908" lon="2.07615">
        <ele>172.6</ele>
        <time>2023-03-05T16:12:45Z</time>
      </trkpt>
      <trkpt lat="48.61907" lon="2.07618">
        <ele>172.4</ele>
        <time>2023-03-05T16:12:46Z</time>
      </trkpt>
      <trkpt lat="48.61906" lon="2.0762">
        <ele>172.4</ele>
        <time>2023-03-05T16:12:47Z</time>
      </trkpt>
      <trkpt lat="48.61905" lon="2.07623">
        <ele>172.2</ele>
        <time>2023-03-05T16:12:48Z</time>
      </trkpt>
      <trkpt lat="48.61904" lon="2.07626">
        <ele>172.2</ele>
        <time>2023-03-05T16:12:49Z</time>
      </trkpt>
      <trkpt lat="48.61903" lon="2.07628">
        <ele>172.2</ele>
        <time>2023-03-05T16:12:50Z</time>
      </trkpt>
      <trkpt lat="48.61902" lon="2.07631">
        <ele>172.2</ele>
        <time>2023-03-05T16:12:51Z</time>
      </trkpt>
      <trkpt lat="48.61901" lon="2.07633">
        <ele>172</ele>
        <time>2023-03-05T16:12:52Z</time>
      </trkpt>
      <trkpt lat="48.619" lon="2.07636">
        <ele>172</ele>
        <time>2023-03-05T16:12:53Z</time>
      </trkpt>
      <trkpt lat="48.61899" lon="2.0764">
        <ele>172</ele>
        <time>2023-03-05T16:12:55Z</time>
      </trkpt>
      <trkpt lat="48.61898" lon="2.07642">
        <ele>172</ele>
        <time>2023-03-05T16:12:56Z</time>
      </trkpt>
      <trkpt lat="48.61897" lon="2.07647">
        <ele>172</ele>
        <time>2023-03-05T16:12:58Z</time>
      </trkpt>
      <trkpt lat="48.61897" lon="2.07651">
        <ele>172</ele>
        <time>2023-03-05T16:13:00Z</time>
      </trkpt>
      <trkpt lat="48.61895" lon="2.07656">
        <ele>172</ele>
        <time>2023-03-05T16:13:02Z</time>
      </trkpt>
      <trkpt lat="48.61893" lon="2.07662">
        <ele>172.4</ele>
        <time>2023-03-05T16:13:05Z</time>
      </trkpt>
      <trkpt lat="48.61891" lon="2.07664">
        <ele>172.6</ele>
        <time>2023-03-05T16:13:08Z</time>
      </trkpt>
      <trkpt lat="48.6189" lon="2.07667">
        <ele>173.2</ele>
        <time>2023-03-05T16:13:13Z</time>
      </trkpt>
      <trkpt lat="48.61889" lon="2.07669">
        <ele>173.4</ele>
        <time>2023-03-05T16:13:15Z</time>
      </trkpt>
      <trkpt lat="48.61888" lon="2.07673">
        <ele>173.4</ele>
        <time>2023-03-05T16:13:17Z</time>
      </trkpt>
      <trkpt lat="48.61888" lon="2.07677">
        <ele>173.4</ele>
        <time>2023-03-05T16:13:19Z</time>
      </trkpt>
      <trkpt lat="48.61887" lon="2.07681">
        <ele>173.4</ele>
        <time>2023-03-05T16:13:21Z</time>
      </trkpt>
      <trkpt lat="48.61885" lon="2.07684">
        <ele>173.4</ele>
        <time>2023-03-05T16:13:22Z</time>
      </trkpt>
      <trkpt lat="48.61885" lon="2.07686">
        <ele>173.4</ele>
        <time>2023-03-05T16:13:23Z</time>
      </trkpt>
      <trkpt lat="48.61884" lon="2.07689">
        <ele>173.6</ele>
        <time>2023-03-05T16:13:24Z</time>
      </trkpt>
      <trkpt lat="48.61883" lon="2.07692">
        <ele>173.6</ele>
        <time>2023-03-05T16:13:25Z</time>
      </trkpt>
      <trkpt lat="48.61882" lon="2.07694">
        <ele>173.6</ele>
        <time>2023-03-05T16:13:26Z</time>
      </trkpt>
      <trkpt lat="48.6188" lon="2.07698">
        <ele>173.6</ele>
        <time>2023-03-05T16:13:28Z</time>
      </trkpt>
      <trkpt lat="48.61879" lon="2.07701">
        <ele>173.6</ele>
        <time>2023-03-05T16:13:30Z</time>
      </trkpt>
      <trkpt lat="48.61879" lon="2.07704">
        <ele>173.8</ele>
        <time>2023-03-05T16:13:32Z</time>
      </trkpt>
      <trkpt lat="48.61878" lon="2.07708">
        <ele>173.8</ele>
        <time>2023-03-05T16:13:34Z</time>
      </trkpt>
      <trkpt lat="48.61877" lon="2.07712">
        <ele>174</ele>
        <time>2023-03-05T16:13:36Z</time>
      </trkpt>
      <trkpt lat="48.61875" lon="2.07716">
        <ele>174.2</ele>
        <time>2023-03-05T16:13:38Z</time>
      </trkpt>
      <trkpt lat="48.61875" lon="2.07719">
        <ele>174.4</ele>
        <time>2023-03-05T16:13:40Z</time>
      </trkpt>
      <trkpt lat="48.61874" lon="2.07722">
        <ele>174.4</ele>
        <time>2023-03-05T16:13:42Z</time>
      </trkpt>
      <trkpt lat="48.61873" lon="2.07725">
        <ele>174.4</ele>
        <time>2023-03-05T16:13:44Z</time>
      </trkpt>
      <trkpt lat="48.61871" lon="2.07729">
        <ele>174</ele>
        <time>2023-03-05T16:13:46Z</time>
      </trkpt>
      <trkpt lat="48.6187" lon="2.07733">
        <ele>173.8</ele>
        <time>2023-03-05T16:13:48Z</time>
      </trkpt>
      <trkpt lat="48.61868" lon="2.07737">
        <ele>173.4</ele>
        <time>2023-03-05T16:13:50Z</time>
      </trkpt>
      <trkpt lat="48.61867" lon="2.0774">
        <ele>173</ele>
        <time>2023-03-05T16:13:52Z</time>
      </trkpt>
      <trkpt lat="48.61866" lon="2.07743">
        <ele>173</ele>
        <time>2023-03-05T16:13:54Z</time>
      </trkpt>
      <trkpt lat="48.61865" lon="2.07747">
        <ele>172.8</ele>
        <time>2023-03-05T16:13:56Z</time>
      </trkpt>
      <trkpt lat="48.61864" lon="2.07751">
        <ele>173</ele>
        <time>2023-03-05T16:13:58Z</time>
      </trkpt>
      <trkpt lat="48.61862" lon="2.07756">
        <ele>173</ele>
        <time>2023-03-05T16:14:00Z</time>
      </trkpt>
      <trkpt lat="48.6186" lon="2.07761">
        <ele>173</ele>
        <time>2023-03-05T16:14:02Z</time>
      </trkpt>
      <trkpt lat="48.61859" lon="2.07763">
        <ele>173</ele>
        <time>2023-03-05T16:14:03Z</time>
      </trkpt>
      <trkpt lat="48.61858" lon="2.07766">
        <ele>173</ele>
        <time>2023-03-05T16:14:04Z</time>
      </trkpt>
      <trkpt lat="48.61857" lon="2.07768">
        <ele>173</ele>
        <time>2023-03-05T16:14:05Z</time>
      </trkpt>
      <trkpt lat="48.61856" lon="2.07771">
        <ele>173.2</ele>
        <time>2023-03-05T16:14:06Z</time>
      </trkpt>
      <trkpt lat="48.61854" lon="2.07774">
        <ele>173.2</ele>
        <time>2023-03-05T16:14:07Z</time>
      </trkpt>
      <trkpt lat="48.61853" lon="2.07776">
        <ele>173.2</ele>
        <time>2023-03-05T16:14:08Z</time>
      </trkpt>
      <trkpt lat="48.61851" lon="2.07779">
        <ele>173.4</ele>
        <time>2023-03-05T16:14:09Z</time>
      </trkpt>
      <trkpt lat="48.6185" lon="2.07782">
        <ele>173.4</ele>
        <time>2023-03-05T16:14:10Z</time>
      </trkpt>
      <trkpt lat="48.61848" lon="2.07784">
        <ele>173.4</ele>
        <time>2023-03-05T16:14:11Z</time>
      </trkpt>
      <trkpt lat="48.61847" lon="2.07787">
        <ele>173.4</ele>
        <time>2023-03-05T16:14:12Z</time>
      </trkpt>
      <trkpt lat="48.61846" lon="2.07789">
        <ele>173.2</ele>
        <time>2023-03-05T16:14:13Z</time>
      </trkpt>
      <trkpt lat="48.61844" lon="2.07791">
        <ele>173.2</ele>
        <time>2023-03-05T16:14:14Z</time>
      </trkpt>
      <trkpt lat="48.61843" lon="2.07794">
        <ele>173.2</ele>
        <time>2023-03-05T16:14:15Z</time>
      </trkpt>
      <trkpt lat="48.61842" lon="2.07796">
        <ele>173.2</ele>
        <time>2023-03-05T16:14:16Z</time>
      </trkpt>
      <trkpt lat="48.61841" lon="2.07799">
        <ele>173</ele>
        <time>2023-03-05T16:14:17Z</time>
      </trkpt>
      <trkpt lat="48.6184" lon="2.07802">
        <ele>173</ele>
        <time>2023-03-05T16:14:18Z</time>
      </trkpt>
      <trkpt lat="48.61838" lon="2.07804">
        <ele>172.8</ele>
        <time>2023-03-05T16:14:19Z</time>
      </trkpt>
      <trkpt lat="48.61837" lon="2.07807">
        <ele>172.8</ele>
        <time>2023-03-05T16:14:20Z</time>
      </trkpt>
      <trkpt lat="48.61836" lon="2.07809">
        <ele>172.8</ele>
        <time>2023-03-05T16:14:21Z</time>
      </trkpt>
      <trkpt lat="48.61834" lon="2.07814">
        <ele>172.8</ele>
        <time>2023-03-05T16:14:23Z</time>
      </trkpt>
      <trkpt lat="48.61831" lon="2.07817">
        <ele>172.6</ele>
        <time>2023-03-05T16:14:25Z</time>
      </trkpt>
      <trkpt lat="48.61828" lon="2.07821">
        <ele>172.8</ele>
        <time>2023-03-05T16:14:27Z</time>
      </trkpt>
      <trkpt lat="48.61827" lon="2.07824">
        <ele>173</ele>
        <time>2023-03-05T16:14:29Z</time>
      </trkpt>
      <trkpt lat="48.61826" lon="2.07828">
        <ele>173.2</ele>
        <time>2023-03-05T16:14:31Z</time>
      </trkpt>
      <trkpt lat="48.61824" lon="2.07832">
        <ele>173.6</ele>
        <time>2023-03-05T16:14:33Z</time>
      </trkpt>
      <trkpt lat="48.61822" lon="2.07836">
        <ele>173.8</ele>
        <time>2023-03-05T16:14:35Z</time>
      </trkpt>
      <trkpt lat="48.6182" lon="2.07841">
        <ele>173.8</ele>
        <time>2023-03-05T16:14:37Z</time>
      </trkpt>
      <trkpt lat="48.61818" lon="2.07845">
        <ele>173.8</ele>
        <time>2023-03-05T16:14:39Z</time>
      </trkpt>
      <trkpt lat="48.61816" lon="2.07848">
        <ele>174</ele>
        <time>2023-03-05T16:14:41Z</time>
      </trkpt>
      <trkpt lat="48.61813" lon="2.07851">
        <ele>174.2</ele>
        <time>2023-03-05T16:14:43Z</time>
      </trkpt>
      <trkpt lat="48.61811" lon="2.07854">
        <ele>174.2</ele>
        <time>2023-03-05T16:14:45Z</time>
      </trkpt>
      <trkpt lat="48.6181" lon="2.07856">
        <ele>174.2</ele>
        <time>2023-03-05T16:14:46Z</time>
      </trkpt>
      <trkpt lat="48.61808" lon="2.07859">
        <ele>174.2</ele>
        <time>2023-03-05T16:14:48Z</time>
      </trkpt>
      <trkpt lat="48.61806" lon="2.07862">
        <ele>174.2</ele>
        <time>2023-03-05T16:14:50Z</time>
      </trkpt>
      <trkpt lat="48.61804" lon="2.07865">
        <ele>174.2</ele>
        <time>2023-03-05T16:14:52Z</time>
      </trkpt>
      <trkpt lat="48.61803" lon="2.07869">
        <ele>174.4</ele>
        <time>2023-03-05T16:14:54Z</time>
      </trkpt>
      <trkpt lat="48.61802" lon="2.07873">
        <ele>174.4</ele>
        <time>2023-03-05T16:14:56Z</time>
      </trkpt>
      <trkpt lat="48.618" lon="2.07875">
        <ele>174.4</ele>
        <time>2023-03-05T16:14:57Z</time>
      </trkpt>
      <trkpt lat="48.61799" lon="2.07878">
        <ele>174.4</ele>
        <time>2023-03-05T16:14:58Z</time>
      </trkpt>
      <trkpt lat="48.61798" lon="2.0788">
        <ele>174.4</ele>
        <time>2023-03-05T16:14:59Z</time>
      </trkpt>
      <trkpt lat="48.61797" lon="2.07882">
        <ele>174.4</ele>
        <time>2023-03-05T16:15:00Z</time>
      </trkpt>
      <trkpt lat="48.61796" lon="2.07885">
        <ele>174.4</ele>
        <time>2023-03-05T16:15:01Z</time>
      </trkpt>
      <trkpt lat="48.61794" lon="2.07888">
        <ele>174.2</ele>
        <time>2023-03-05T16:15:03Z</time>
      </trkpt>
      <trkpt lat="48.61793" lon="2.07892">
        <ele>174.2</ele>
        <time>2023-03-05T16:15:05Z</time>
      </trkpt>
      <trkpt lat="48.61792" lon="2.07895">
        <ele>174</ele>
        <time>2023-03-05T16:15:07Z</time>
      </trkpt>
      <trkpt lat="48.61791" lon="2.07899">
        <ele>174</ele>
        <time>2023-03-05T16:15:09Z</time>
      </trkpt>
      <trkpt lat="48.6179" lon="2.07903">
        <ele>174.2</ele>
        <time>2023-03-05T16:15:11Z</time>
      </trkpt>
      <trkpt lat="48.61789" lon="2.07905">
        <ele>174.4</ele>
        <time>2023-03-05T16:15:12Z</time>
      </trkpt>
      <trkpt lat="48.61788" lon="2.07907">
        <ele>174.6</ele>
        <time>2023-03-05T16:15:13Z</time>
      </trkpt>
      <trkpt lat="48.61786" lon="2.0791">
        <ele>174.6</ele>
        <time>2023-03-05T16:15:14Z</time>
      </trkpt>
      <trkpt lat="48.61785" lon="2.07913">
        <ele>174.6</ele>
        <time>2023-03-05T16:15:15Z</time>
      </trkpt>
      <trkpt lat="48.61784" lon="2.07915">
        <ele>174.6</ele>
        <time>2023-03-05T16:15:16Z</time>
      </trkpt>
      <trkpt lat="48.61782" lon="2.07917">
        <ele>174.8</ele>
        <time>2023-03-05T16:15:17Z</time>
      </trkpt>
      <trkpt lat="48.6178" lon="2.07921">
        <ele>174.8</ele>
        <time>2023-03-05T16:15:19Z</time>
      </trkpt>
      <trkpt lat="48.61778" lon="2.07924">
        <ele>174.6</ele>
        <time>2023-03-05T16:15:21Z</time>
      </trkpt>
      <trkpt lat="48.61777" lon="2.07927">
        <ele>174.6</ele>
        <time>2023-03-05T16:15:23Z</time>
      </trkpt>
      <trkpt lat="48.61775" lon="2.0793">
        <ele>174.6</ele>
        <time>2023-03-05T16:15:25Z</time>
      </trkpt>
      <trkpt lat="48.61773" lon="2.07934">
        <ele>174.6</ele>
        <time>2023-03-05T16:15:27Z</time>
      </trkpt>
      <trkpt lat="48.61772" lon="2.07937">
        <ele>174.8</ele>
        <time>2023-03-05T16:15:29Z</time>
      </trkpt>
      <trkpt lat="48.6177" lon="2.07939">
        <ele>174.8</ele>
        <time>2023-03-05T16:15:30Z</time>
      </trkpt>
      <trkpt lat="48.61768" lon="2.07944">
        <ele>174.8</ele>
        <time>2023-03-05T16:15:32Z</time>
      </trkpt>
      <trkpt lat="48.61767" lon="2.07946">
        <ele>174.8</ele>
        <time>2023-03-05T16:15:33Z</time>
      </trkpt>
      <trkpt lat="48.61764" lon="2.0795">
        <ele>174.6</ele>
        <time>2023-03-05T16:15:35Z</time>
      </trkpt>
      <trkpt lat="48.61762" lon="2.07954">
        <ele>174.6</ele>
        <time>2023-03-05T16:15:37Z</time>
      </trkpt>
      <trkpt lat="48.6176" lon="2.07957">
        <ele>174.4</ele>
        <time>2023-03-05T16:15:39Z</time>
      </trkpt>
      <trkpt lat="48.61758" lon="2.07961">
        <ele>174.2</ele>
        <time>2023-03-05T16:15:41Z</time>
      </trkpt>
      <trkpt lat="48.61756" lon="2.07964">
        <ele>174</ele>
        <time>2023-03-05T16:15:43Z</time>
      </trkpt>
      <trkpt lat="48.61755" lon="2.07966">
        <ele>173.6</ele>
        <time>2023-03-05T16:15:45Z</time>
      </trkpt>
      <trkpt lat="48.61753" lon="2.07969">
        <ele>173.2</ele>
        <time>2023-03-05T16:15:47Z</time>
      </trkpt>
      <trkpt lat="48.61752" lon="2.07971">
        <ele>172.8</ele>
        <time>2023-03-05T16:15:49Z</time>
      </trkpt>
      <trkpt lat="48.6175" lon="2.07973">
        <ele>172.4</ele>
        <time>2023-03-05T16:15:51Z</time>
      </trkpt>
      <trkpt lat="48.61748" lon="2.07976">
        <ele>172</ele>
        <time>2023-03-05T16:15:53Z</time>
      </trkpt>
      <trkpt lat="48.61748" lon="2.07979">
        <ele>171.8</ele>
        <time>2023-03-05T16:15:55Z</time>
      </trkpt>
      <trkpt lat="48.61746" lon="2.07982">
        <ele>171.6</ele>
        <time>2023-03-05T16:15:57Z</time>
      </trkpt>
      <trkpt lat="48.61744" lon="2.07985">
        <ele>171.4</ele>
        <time>2023-03-05T16:15:59Z</time>
      </trkpt>
      <trkpt lat="48.61742" lon="2.07988">
        <ele>171.2</ele>
        <time>2023-03-05T16:16:01Z</time>
      </trkpt>
      <trkpt lat="48.61741" lon="2.07991">
        <ele>171</ele>
        <time>2023-03-05T16:16:03Z</time>
      </trkpt>
      <trkpt lat="48.61739" lon="2.07994">
        <ele>170.8</ele>
        <time>2023-03-05T16:16:05Z</time>
      </trkpt>
      <trkpt lat="48.61737" lon="2.07997">
        <ele>170.8</ele>
        <time>2023-03-05T16:16:07Z</time>
      </trkpt>
      <trkpt lat="48.61736" lon="2.08">
        <ele>171</ele>
        <time>2023-03-05T16:16:09Z</time>
      </trkpt>
      <trkpt lat="48.61736" lon="2.08003">
        <ele>171.2</ele>
        <time>2023-03-05T16:16:11Z</time>
      </trkpt>
      <trkpt lat="48.61736" lon="2.08008">
        <ele>171.2</ele>
        <time>2023-03-05T16:16:13Z</time>
      </trkpt>
      <trkpt lat="48.61737" lon="2.08012">
        <ele>171.2</ele>
        <time>2023-03-05T16:16:15Z</time>
      </trkpt>
      <trkpt lat="48.61737" lon="2.08017">
        <ele>171.4</ele>
        <time>2023-03-05T16:16:17Z</time>
      </trkpt>
      <trkpt lat="48.61737" lon="2.08021">
        <ele>171.4</ele>
        <time>2023-03-05T16:16:19Z</time>
      </trkpt>
      <trkpt lat="48.61737" lon="2.08025">
        <ele>171.4</ele>
        <time>2023-03-05T16:16:21Z</time>
      </trkpt>
      <trkpt lat="48.61737" lon="2.08028">
        <ele>171.6</ele>
        <time>2023-03-05T16:16:23Z</time>
      </trkpt>
      <trkpt lat="48.61737" lon="2.08032">
        <ele>171.6</ele>
        <time>2023-03-05T16:16:25Z</time>
      </trkpt>
      <trkpt lat="48.61736" lon="2.08036">
        <ele>171.8</ele>
        <time>2023-03-05T16:16:27Z</time>
      </trkpt>
      <trkpt lat="48.61735" lon="2.0804">
        <ele>171.8</ele>
        <time>2023-03-05T16:16:29Z</time>
      </trkpt>
      <trkpt lat="48.61734" lon="2.08046">
        <ele>171.8</ele>
        <time>2023-03-05T16:16:31Z</time>
      </trkpt>
      <trkpt lat="48.61734" lon="2.08049">
        <ele>171.8</ele>
        <time>2023-03-05T16:16:32Z</time>
      </trkpt>
      <trkpt lat="48.61733" lon="2.08052">
        <ele>171.8</ele>
        <time>2023-03-05T16:16:33Z</time>
      </trkpt>
      <trkpt lat="48.61733" lon="2.08055">
        <ele>171.8</ele>
        <time>2023-03-05T16:16:34Z</time>
      </trkpt>
      <trkpt lat="48.61732" lon="2.08058">
        <ele>171.8</ele>
        <time>2023-03-05T16:16:35Z</time>
      </trkpt>
      <trkpt lat="48.61732" lon="2.08061">
        <ele>171.6</ele>
        <time>2023-03-05T16:16:36Z</time>
      </trkpt>
      <trkpt lat="48.61731" lon="2.08064">
        <ele>171.6</ele>
        <time>2023-03-05T16:16:37Z</time>
      </trkpt>
      <trkpt lat="48.61731" lon="2.08068">
        <ele>171.6</ele>
        <time>2023-03-05T16:16:39Z</time>
      </trkpt>
      <trkpt lat="48.6173" lon="2.08072">
        <ele>171.6</ele>
        <time>2023-03-05T16:16:41Z</time>
      </trkpt>
      <trkpt lat="48.6173" lon="2.08076">
        <ele>171.4</ele>
        <time>2023-03-05T16:16:43Z</time>
      </trkpt>
      <trkpt lat="48.61729" lon="2.0808">
        <ele>171.4</ele>
        <time>2023-03-05T16:16:45Z</time>
      </trkpt>
      <trkpt lat="48.61727" lon="2.08085">
        <ele>171.2</ele>
        <time>2023-03-05T16:16:47Z</time>
      </trkpt>
      <trkpt lat="48.61726" lon="2.0809">
        <ele>171.2</ele>
        <time>2023-03-05T16:16:49Z</time>
      </trkpt>
      <trkpt lat="48.61726" lon="2.08095">
        <ele>171</ele>
        <time>2023-03-05T16:16:51Z</time>
      </trkpt>
      <trkpt lat="48.61726" lon="2.081">
        <ele>170.8</ele>
        <time>2023-03-05T16:16:53Z</time>
      </trkpt>
      <trkpt lat="48.61726" lon="2.08105">
        <ele>170.8</ele>
        <time>2023-03-05T16:16:55Z</time>
      </trkpt>
      <trkpt lat="48.61726" lon="2.08109">
        <ele>170.8</ele>
        <time>2023-03-05T16:16:57Z</time>
      </trkpt>
      <trkpt lat="48.61726" lon="2.08114">
        <ele>170.6</ele>
        <time>2023-03-05T16:16:59Z</time>
      </trkpt>
      <trkpt lat="48.61725" lon="2.08119">
        <ele>170.4</ele>
        <time>2023-03-05T16:17:01Z</time>
      </trkpt>
      <trkpt lat="48.61724" lon="2.08124">
        <ele>170.2</ele>
        <time>2023-03-05T16:17:03Z</time>
      </trkpt>
      <trkpt lat="48.61724" lon="2.08129">
        <ele>170</ele>
        <time>2023-03-05T16:17:05Z</time>
      </trkpt>
      <trkpt lat="48.61723" lon="2.08133">
        <ele>169.8</ele>
        <time>2023-03-05T16:17:07Z</time>
      </trkpt>
      <trkpt lat="48.61723" lon="2.08137">
        <ele>169.8</ele>
        <time>2023-03-05T16:17:09Z</time>
      </trkpt>
      <trkpt lat="48.61723" lon="2.08142">
        <ele>169.6</ele>
        <time>2023-03-05T16:17:11Z</time>
      </trkpt>
      <trkpt lat="48.61723" lon="2.08146">
        <ele>169.4</ele>
        <time>2023-03-05T16:17:13Z</time>
      </trkpt>
      <trkpt lat="48.61722" lon="2.08151">
        <ele>169.2</ele>
        <time>2023-03-05T16:17:15Z</time>
      </trkpt>
      <trkpt lat="48.61721" lon="2.08156">
        <ele>169.2</ele>
        <time>2023-03-05T16:17:17Z</time>
      </trkpt>
      <trkpt lat="48.61721" lon="2.08161">
        <ele>169</ele>
        <time>2023-03-05T16:17:19Z</time>
      </trkpt>
      <trkpt lat="48.6172" lon="2.08165">
        <ele>169</ele>
        <time>2023-03-05T16:17:21Z</time>
      </trkpt>
      <trkpt lat="48.61719" lon="2.0817">
        <ele>169</ele>
        <time>2023-03-05T16:17:23Z</time>
      </trkpt>
      <trkpt lat="48.61719" lon="2.08175">
        <ele>169</ele>
        <time>2023-03-05T16:17:25Z</time>
      </trkpt>
      <trkpt lat="48.61718" lon="2.0818">
        <ele>168.8</ele>
        <time>2023-03-05T16:17:27Z</time>
      </trkpt>
      <trkpt lat="48.61718" lon="2.08185">
        <ele>168.4</ele>
        <time>2023-03-05T16:17:29Z</time>
      </trkpt>
      <trkpt lat="48.61717" lon="2.0819">
        <ele>168.2</ele>
        <time>2023-03-05T16:17:31Z</time>
      </trkpt>
      <trkpt lat="48.61716" lon="2.08196">
        <ele>168.2</ele>
        <time>2023-03-05T16:17:33Z</time>
      </trkpt>
      <trkpt lat="48.61715" lon="2.08198">
        <ele>168.2</ele>
        <time>2023-03-05T16:17:34Z</time>
      </trkpt>
      <trkpt lat="48.61715" lon="2.08204">
        <ele>168.2</ele>
        <time>2023-03-05T16:17:36Z</time>
      </trkpt>
      <trkpt lat="48.61713" lon="2.08208">
        <ele>168</ele>
        <time>2023-03-05T16:17:38Z</time>
      </trkpt>
      <trkpt lat="48.61712" lon="2.08212">
        <ele>167.8</ele>
        <time>2023-03-05T16:17:40Z</time>
      </trkpt>
      <trkpt lat="48.61709" lon="2.08215">
        <ele>167.8</ele>
        <time>2023-03-05T16:17:42Z</time>
      </trkpt>
      <trkpt lat="48.61707" lon="2.08218">
        <ele>168</ele>
        <time>2023-03-05T16:17:44Z</time>
      </trkpt>
      <trkpt lat="48.61705" lon="2.08219">
        <ele>168</ele>
        <time>2023-03-05T16:17:45Z</time>
      </trkpt>
      <trkpt lat="48.61701" lon="2.08223">
        <ele>168.2</ele>
        <time>2023-03-05T16:17:48Z</time>
      </trkpt>
      <trkpt lat="48.61699" lon="2.08226">
        <ele>168.4</ele>
        <time>2023-03-05T16:17:50Z</time>
      </trkpt>
      <trkpt lat="48.61697" lon="2.08229">
        <ele>168.4</ele>
        <time>2023-03-05T16:17:52Z</time>
      </trkpt>
      <trkpt lat="48.61695" lon="2.08232">
        <ele>168.4</ele>
        <time>2023-03-05T16:17:54Z</time>
      </trkpt>
      <trkpt lat="48.61693" lon="2.08233">
        <ele>168.4</ele>
        <time>2023-03-05T16:17:55Z</time>
      </trkpt>
      <trkpt lat="48.61691" lon="2.08236">
        <ele>168.4</ele>
        <time>2023-03-05T16:17:57Z</time>
      </trkpt>
      <trkpt lat="48.61688" lon="2.08238">
        <ele>168.6</ele>
        <time>2023-03-05T16:17:59Z</time>
      </trkpt>
      <trkpt lat="48.61685" lon="2.08241">
        <ele>168.6</ele>
        <time>2023-03-05T16:18:01Z</time>
      </trkpt>
      <trkpt lat="48.61683" lon="2.08244">
        <ele>168.8</ele>
        <time>2023-03-05T16:18:03Z</time>
      </trkpt>
      <trkpt lat="48.61682" lon="2.08245">
        <ele>168.8</ele>
        <time>2023-03-05T16:18:04Z</time>
      </trkpt>
      <trkpt lat="48.61679" lon="2.08249">
        <ele>169</ele>
        <time>2023-03-05T16:18:06Z</time>
      </trkpt>
      <trkpt lat="48.61677" lon="2.08252">
        <ele>169.2</ele>
        <time>2023-03-05T16:18:07Z</time>
      </trkpt>
      <trkpt lat="48.61676" lon="2.08254">
        <ele>169.2</ele>
        <time>2023-03-05T16:18:08Z</time>
      </trkpt>
      <trkpt lat="48.61674" lon="2.08256">
        <ele>169.2</ele>
        <time>2023-03-05T16:18:09Z</time>
      </trkpt>
      <trkpt lat="48.61673" lon="2.08258">
        <ele>169.2</ele>
        <time>2023-03-05T16:18:10Z</time>
      </trkpt>
      <trkpt lat="48.61671" lon="2.08262">
        <ele>169</ele>
        <time>2023-03-05T16:18:12Z</time>
      </trkpt>
      <trkpt lat="48.61669" lon="2.08265">
        <ele>168.8</ele>
        <time>2023-03-05T16:18:14Z</time>
      </trkpt>
      <trkpt lat="48.61668" lon="2.08268">
        <ele>168.4</ele>
        <time>2023-03-05T16:18:16Z</time>
      </trkpt>
      <trkpt lat="48.61666" lon="2.08271">
        <ele>168.4</ele>
        <time>2023-03-05T16:18:18Z</time>
      </trkpt>
      <trkpt lat="48.61663" lon="2.08275">
        <ele>168.4</ele>
        <time>2023-03-05T16:18:20Z</time>
      </trkpt>
      <trkpt lat="48.61661" lon="2.08279">
        <ele>168.4</ele>
        <time>2023-03-05T16:18:22Z</time>
      </trkpt>
      <trkpt lat="48.61659" lon="2.08283">
        <ele>168.6</ele>
        <time>2023-03-05T16:18:24Z</time>
      </trkpt>
      <trkpt lat="48.61657" lon="2.08287">
        <ele>168.6</ele>
        <time>2023-03-05T16:18:26Z</time>
      </trkpt>
      <trkpt lat="48.61654" lon="2.0829">
        <ele>168.6</ele>
        <time>2023-03-05T16:18:28Z</time>
      </trkpt>
      <trkpt lat="48.61651" lon="2.08292">
        <ele>168.8</ele>
        <time>2023-03-05T16:18:30Z</time>
      </trkpt>
      <trkpt lat="48.61648" lon="2.08294">
        <ele>169</ele>
        <time>2023-03-05T16:18:32Z</time>
      </trkpt>
      <trkpt lat="48.61645" lon="2.08296">
        <ele>169.2</ele>
        <time>2023-03-05T16:18:34Z</time>
      </trkpt>
      <trkpt lat="48.61643" lon="2.08298">
        <ele>169.2</ele>
        <time>2023-03-05T16:18:35Z</time>
      </trkpt>
      <trkpt lat="48.61641" lon="2.08299">
        <ele>169.2</ele>
        <time>2023-03-05T16:18:36Z</time>
      </trkpt>
      <trkpt lat="48.6164" lon="2.08301">
        <ele>169.4</ele>
        <time>2023-03-05T16:18:37Z</time>
      </trkpt>
      <trkpt lat="48.61637" lon="2.08303">
        <ele>169.4</ele>
        <time>2023-03-05T16:18:39Z</time>
      </trkpt>
      <trkpt lat="48.61634" lon="2.08305">
        <ele>169.4</ele>
        <time>2023-03-05T16:18:41Z</time>
      </trkpt>
      <trkpt lat="48.61631" lon="2.08307">
        <ele>169.4</ele>
        <time>2023-03-05T16:18:43Z</time>
      </trkpt>
      <trkpt lat="48.61628" lon="2.08309">
        <ele>169.2</ele>
        <time>2023-03-05T16:18:45Z</time>
      </trkpt>
      <trkpt lat="48.61625" lon="2.08313">
        <ele>169.2</ele>
        <time>2023-03-05T16:18:47Z</time>
      </trkpt>
      <trkpt lat="48.61623" lon="2.08314">
        <ele>169.4</ele>
        <time>2023-03-05T16:18:48Z</time>
      </trkpt>
      <trkpt lat="48.61621" lon="2.08317">
        <ele>169.2</ele>
        <time>2023-03-05T16:18:50Z</time>
      </trkpt>
      <trkpt lat="48.61619" lon="2.08319">
        <ele>169.2</ele>
        <time>2023-03-05T16:18:52Z</time>
      </trkpt>
      <trkpt lat="48.61617" lon="2.08321">
        <ele>169</ele>
        <time>2023-03-05T16:18:54Z</time>
      </trkpt>
      <trkpt lat="48.61615" lon="2.08324">
        <ele>168.8</ele>
        <time>2023-03-05T16:18:56Z</time>
      </trkpt>
      <trkpt lat="48.61612" lon="2.08327">
        <ele>168.6</ele>
        <time>2023-03-05T16:18:58Z</time>
      </trkpt>
      <trkpt lat="48.6161" lon="2.0833">
        <ele>168.4</ele>
        <time>2023-03-05T16:19:00Z</time>
      </trkpt>
      <trkpt lat="48.61607" lon="2.08334">
        <ele>168.4</ele>
        <time>2023-03-05T16:19:02Z</time>
      </trkpt>
      <trkpt lat="48.61605" lon="2.08338">
        <ele>168.2</ele>
        <time>2023-03-05T16:19:04Z</time>
      </trkpt>
      <trkpt lat="48.61603" lon="2.0834">
        <ele>168.2</ele>
        <time>2023-03-05T16:19:05Z</time>
      </trkpt>
      <trkpt lat="48.61602" lon="2.08341">
        <ele>168</ele>
        <time>2023-03-05T16:19:06Z</time>
      </trkpt>
      <trkpt lat="48.61599" lon="2.08345">
        <ele>167.8</ele>
        <time>2023-03-05T16:19:08Z</time>
      </trkpt>
      <trkpt lat="48.61597" lon="2.08348">
        <ele>167.8</ele>
        <time>2023-03-05T16:19:10Z</time>
      </trkpt>
      <trkpt lat="48.61594" lon="2.08352">
        <ele>167.4</ele>
        <time>2023-03-05T16:19:12Z</time>
      </trkpt>
      <trkpt lat="48.61592" lon="2.08354">
        <ele>167.2</ele>
        <time>2023-03-05T16:19:14Z</time>
      </trkpt>
      <trkpt lat="48.6159" lon="2.08357">
        <ele>166.8</ele>
        <time>2023-03-05T16:19:16Z</time>
      </trkpt>
      <trkpt lat="48.61588" lon="2.08358">
        <ele>166.6</ele>
        <time>2023-03-05T16:19:18Z</time>
      </trkpt>
      <trkpt lat="48.61586" lon="2.08361">
        <ele>166.2</ele>
        <time>2023-03-05T16:19:21Z</time>
      </trkpt>
      <trkpt lat="48.61584" lon="2.08363">
        <ele>166</ele>
        <time>2023-03-05T16:19:23Z</time>
      </trkpt>
      <trkpt lat="48.61583" lon="2.08366">
        <ele>165.8</ele>
        <time>2023-03-05T16:19:25Z</time>
      </trkpt>
      <trkpt lat="48.61582" lon="2.08369">
        <ele>165.4</ele>
        <time>2023-03-05T16:19:27Z</time>
      </trkpt>
      <trkpt lat="48.61581" lon="2.08373">
        <ele>165</ele>
        <time>2023-03-05T16:19:29Z</time>
      </trkpt>
      <trkpt lat="48.6158" lon="2.08377">
        <ele>164.8</ele>
        <time>2023-03-05T16:19:31Z</time>
      </trkpt>
      <trkpt lat="48.61578" lon="2.08381">
        <ele>164.6</ele>
        <time>2023-03-05T16:19:33Z</time>
      </trkpt>
      <trkpt lat="48.61576" lon="2.08383">
        <ele>164.6</ele>
        <time>2023-03-05T16:19:34Z</time>
      </trkpt>
      <trkpt lat="48.61574" lon="2.08386">
        <ele>164.4</ele>
        <time>2023-03-05T16:19:36Z</time>
      </trkpt>
      <trkpt lat="48.61573" lon="2.08389">
        <ele>164.2</ele>
        <time>2023-03-05T16:19:38Z</time>
      </trkpt>
      <trkpt lat="48.61572" lon="2.08392">
        <ele>164</ele>
        <time>2023-03-05T16:19:40Z</time>
      </trkpt>
      <trkpt lat="48.6157" lon="2.08395">
        <ele>163.8</ele>
        <time>2023-03-05T16:19:42Z</time>
      </trkpt>
      <trkpt lat="48.61569" lon="2.08399">
        <ele>163.8</ele>
        <time>2023-03-05T16:19:44Z</time>
      </trkpt>
      <trkpt lat="48.61568" lon="2.08401">
        <ele>163.8</ele>
        <time>2023-03-05T16:19:45Z</time>
      </trkpt>
      <trkpt lat="48.61566" lon="2.08403">
        <ele>163.6</ele>
        <time>2023-03-05T16:19:46Z</time>
      </trkpt>
      <trkpt lat="48.61565" lon="2.08406">
        <ele>163.6</ele>
        <time>2023-03-05T16:19:47Z</time>
      </trkpt>
      <trkpt lat="48.61564" lon="2.08408">
        <ele>163.4</ele>
        <time>2023-03-05T16:19:48Z</time>
      </trkpt>
      <trkpt lat="48.61563" lon="2.08411">
        <ele>163.2</ele>
        <time>2023-03-05T16:19:49Z</time>
      </trkpt>
      <trkpt lat="48.61562" lon="2.08413">
        <ele>163</ele>
        <time>2023-03-05T16:19:50Z</time>
      </trkpt>
      <trkpt lat="48.61561" lon="2.08415">
        <ele>163</ele>
        <time>2023-03-05T16:19:51Z</time>
      </trkpt>
      <trkpt lat="48.6156" lon="2.08418">
        <ele>162.8</ele>
        <time>2023-03-05T16:19:52Z</time>
      </trkpt>
      <trkpt lat="48.61559" lon="2.0842">
        <ele>162.6</ele>
        <time>2023-03-05T16:19:53Z</time>
      </trkpt>
      <trkpt lat="48.61558" lon="2.08422">
        <ele>162.6</ele>
        <time>2023-03-05T16:19:54Z</time>
      </trkpt>
      <trkpt lat="48.61556" lon="2.08427">
        <ele>162.2</ele>
        <time>2023-03-05T16:19:56Z</time>
      </trkpt>
      <trkpt lat="48.61555" lon="2.08431">
        <ele>161.8</ele>
        <time>2023-03-05T16:19:58Z</time>
      </trkpt>
      <trkpt lat="48.61554" lon="2.08435">
        <ele>161.4</ele>
        <time>2023-03-05T16:20:00Z</time>
      </trkpt>
      <trkpt lat="48.61554" lon="2.08438">
        <ele>161</ele>
        <time>2023-03-05T16:20:02Z</time>
      </trkpt>
      <trkpt lat="48.61553" lon="2.08442">
        <ele>160.4</ele>
        <time>2023-03-05T16:20:04Z</time>
      </trkpt>
      <trkpt lat="48.61552" lon="2.08446">
        <ele>160</ele>
        <time>2023-03-05T16:20:06Z</time>
      </trkpt>
      <trkpt lat="48.6155" lon="2.0845">
        <ele>159.6</ele>
        <time>2023-03-05T16:20:08Z</time>
      </trkpt>
      <trkpt lat="48.61548" lon="2.08455">
        <ele>159.2</ele>
        <time>2023-03-05T16:20:10Z</time>
      </trkpt>
      <trkpt lat="48.61547" lon="2.08459">
        <ele>158.8</ele>
        <time>2023-03-05T16:20:12Z</time>
      </trkpt>
      <trkpt lat="48.61545" lon="2.08463">
        <ele>158.6</ele>
        <time>2023-03-05T16:20:14Z</time>
      </trkpt>
      <trkpt lat="48.61544" lon="2.08467">
        <ele>158.4</ele>
        <time>2023-03-05T16:20:16Z</time>
      </trkpt>
      <trkpt lat="48.61543" lon="2.08471">
        <ele>158.2</ele>
        <time>2023-03-05T16:20:18Z</time>
      </trkpt>
      <trkpt lat="48.61542" lon="2.08474">
        <ele>158.2</ele>
        <time>2023-03-05T16:20:20Z</time>
      </trkpt>
      <trkpt lat="48.6154" lon="2.08478">
        <ele>158</ele>
        <time>2023-03-05T16:20:22Z</time>
      </trkpt>
      <trkpt lat="48.61539" lon="2.08482">
        <ele>158</ele>
        <time>2023-03-05T16:20:24Z</time>
      </trkpt>
      <trkpt lat="48.61538" lon="2.08487">
        <ele>157.8</ele>
        <time>2023-03-05T16:20:26Z</time>
      </trkpt>
      <trkpt lat="48.61536" lon="2.08491">
        <ele>157.6</ele>
        <time>2023-03-05T16:20:28Z</time>
      </trkpt>
      <trkpt lat="48.61535" lon="2.08496">
        <ele>157.4</ele>
        <time>2023-03-05T16:20:30Z</time>
      </trkpt>
      <trkpt lat="48.61534" lon="2.08499">
        <ele>157</ele>
        <time>2023-03-05T16:20:32Z</time>
      </trkpt>
      <trkpt lat="48.61533" lon="2.08503">
        <ele>156.8</ele>
        <time>2023-03-05T16:20:34Z</time>
      </trkpt>
      <trkpt lat="48.61532" lon="2.08507">
        <ele>156.6</ele>
        <time>2023-03-05T16:20:36Z</time>
      </trkpt>
      <trkpt lat="48.6153" lon="2.08512">
        <ele>156.4</ele>
        <time>2023-03-05T16:20:38Z</time>
      </trkpt>
      <trkpt lat="48.61529" lon="2.08514">
        <ele>156.4</ele>
        <time>2023-03-05T16:20:39Z</time>
      </trkpt>
      <trkpt lat="48.61528" lon="2.08517">
        <ele>156.2</ele>
        <time>2023-03-05T16:20:40Z</time>
      </trkpt>
      <trkpt lat="48.61527" lon="2.08519">
        <ele>156</ele>
        <time>2023-03-05T16:20:41Z</time>
      </trkpt>
      <trkpt lat="48.61526" lon="2.08522">
        <ele>156</ele>
        <time>2023-03-05T16:20:42Z</time>
      </trkpt>
      <trkpt lat="48.61524" lon="2.08524">
        <ele>155.8</ele>
        <time>2023-03-05T16:20:43Z</time>
      </trkpt>
      <trkpt lat="48.61524" lon="2.08526">
        <ele>155.8</ele>
        <time>2023-03-05T16:20:44Z</time>
      </trkpt>
      <trkpt lat="48.61522" lon="2.08529">
        <ele>155.6</ele>
        <time>2023-03-05T16:20:45Z</time>
      </trkpt>
      <trkpt lat="48.61521" lon="2.08531">
        <ele>155.4</ele>
        <time>2023-03-05T16:20:46Z</time>
      </trkpt>
      <trkpt lat="48.6152" lon="2.08533">
        <ele>155.4</ele>
        <time>2023-03-05T16:20:47Z</time>
      </trkpt>
      <trkpt lat="48.61519" lon="2.08536">
        <ele>155.2</ele>
        <time>2023-03-05T16:20:48Z</time>
      </trkpt>
      <trkpt lat="48.61518" lon="2.08538">
        <ele>155</ele>
        <time>2023-03-05T16:20:49Z</time>
      </trkpt>
      <trkpt lat="48.61516" lon="2.0854">
        <ele>155</ele>
        <time>2023-03-05T16:20:50Z</time>
      </trkpt>
      <trkpt lat="48.61516" lon="2.08543">
        <ele>154.8</ele>
        <time>2023-03-05T16:20:51Z</time>
      </trkpt>
      <trkpt lat="48.61514" lon="2.08545">
        <ele>154.6</ele>
        <time>2023-03-05T16:20:52Z</time>
      </trkpt>
      <trkpt lat="48.61513" lon="2.08547">
        <ele>154.4</ele>
        <time>2023-03-05T16:20:53Z</time>
      </trkpt>
      <trkpt lat="48.6151" lon="2.08551">
        <ele>154</ele>
        <time>2023-03-05T16:20:55Z</time>
        <extensions>
          <gpxtpx:TrackPointExtension xmlns:gpxtpx="http://www.garmin.com/xmlschemas/TrackPointExtension/v1">
            <gpxtpx:hr>108</gpxtpx:hr>
          </gpxtpx:TrackPointExtension>
        </extensions>
      </trkpt>
      <trkpt lat="48.61508" lon="2.08554">
        <ele>153.8</ele>
        <time>2023-03-05T16:20:57Z</time>
        <extensions>
          <gpxtpx:TrackPointExtension xmlns:gpxtpx="http://www.garmin.com/xmlschemas/TrackPointExtension/v1">
            <gpxtpx:hr>106</gpxtpx:hr>
          </gpxtpx:TrackPointExtension>
        </extensions>
      </trkpt>
      <trkpt lat="48.61507" lon="2.08555">
        <ele>153.6</ele>
        <time>2023-03-05T16:20:58Z</time>
        <extensions>
          <gpxtpx:TrackPointExtension xmlns:gpxtpx="http://www.garmin.com/xmlschemas/TrackPointExtension/v1">
            <gpxtpx:hr>104</gpxtpx:hr>
          </gpxtpx:TrackPointExtension>
        </extensions>
      </trkpt>
      <trkpt lat="48.61504" lon="2.08558">
        <ele>153.4</ele>
        <time>2023-03-05T16:21:00Z</time>
        <extensions>
          <gpxtpx:TrackPointExtension xmlns:gpxtpx="http://www.garmin.com/xmlschemas/TrackPointExtension/v1">
            <gpxtpx:hr>102</gpxtpx:hr>
          </gpxtpx:TrackPointExtension>
        </extensions>
      </trkpt>
      <trkpt lat="48.61502" lon="2.0856">
        <ele>153.2</ele>
        <time>2023-03-05T16:21:01Z</time>
        <extensions>
          <gpxtpx:TrackPointExtension xmlns:gpxtpx="http://www.garmin.com/xmlschemas/TrackPointExtension/v1">
            <gpxtpx:hr>101</gpxtpx:hr>
          </gpxtpx:TrackPointExtension>
        </extensions>
      </trkpt>
      <trkpt lat="48.615" lon="2.08561">
        <ele>153.2</ele>
        <time>2023-03-05T16:21:02Z</time>
        <extensions>
          <gpxtpx:TrackPointExtension xmlns:gpxtpx="http://www.garmin.com/xmlschemas/TrackPointExtension/v1">
            <gpxtpx:hr>101</gpxtpx:hr>
          </gpxtpx:TrackPointExtension>
        </extensions>
      </trkpt>
      <trkpt lat="48.61499" lon="2.08562">
        <ele>153</ele>
        <time>2023-03-05T16:21:03Z</time>
        <extensions>
          <gpxtpx:TrackPointExtension xmlns:gpxtpx="http://www.garmin.com/xmlschemas/TrackPointExtension/v1">
            <gpxtpx:hr>101</gpxtpx:hr>
          </gpxtpx:TrackPointExtension>
        </extensions>
      </trkpt>
      <trkpt lat="48.61497" lon="2.08563">
        <ele>153</ele>
        <time>2023-03-05T16:21:04Z</time>
        <extensions>
          <gpxtpx:TrackPointExtension xmlns:gpxtpx="http://www.garmin.com/xmlschemas/TrackPointExtension/v1">
            <gpxtpx:hr>101</gpxtpx:hr>
          </gpxtpx:TrackPointExtension>
        </extensions>
      </trkpt>
      <trkpt lat="48.61494" lon="2.08566">
        <ele>152.8</ele>
        <time>2023-03-05T16:21:06Z</time>
        <extensions>
          <gpxtpx:TrackPointExtension xmlns:gpxtpx="http://www.garmin.com/xmlschemas/TrackPointExtension/v1">
            <gpxtpx:hr>100</gpxtpx:hr>
          </gpxtpx:TrackPointExtension>
        </extensions>
      </trkpt>
      <trkpt lat="48.61491" lon="2.08568">
        <ele>152.4</ele>
        <time>2023-03-05T16:21:08Z</time>
        <extensions>
          <gpxtpx:TrackPointExtension xmlns:gpxtpx="http://www.garmin.com/xmlschemas/TrackPointExtension/v1">
            <gpxtpx:hr>100</gpxtpx:hr>
          </gpxtpx:TrackPointExtension>
        </extensions>
      </trkpt>
      <trkpt lat="48.61488" lon="2.08569">
        <ele>152.4</ele>
        <time>2023-03-05T16:21:10Z</time>
        <extensions>
          <gpxtpx:TrackPointExtension xmlns:gpxtpx="http://www.garmin.com/xmlschemas/TrackPointExtension/v1">
            <gpxtpx:hr>100</gpxtpx:hr>
          </gpxtpx:TrackPointExtension>
        </extensions>
      </trkpt>
      <trkpt lat="48.61484" lon="2.08571">
        <ele>152.2</ele>
        <time>2023-03-05T16:21:12Z</time>
        <extensions>
          <gpxtpx:TrackPointExtension xmlns:gpxtpx="http://www.garmin.com/xmlschemas/TrackPointExtension/v1">
            <gpxtpx:hr>100</gpxtpx:hr>
          </gpxtpx:TrackPointExtension>
        </extensions>
      </trkpt>
      <trkpt lat="48.61482" lon="2.08572">
        <ele>152</ele>
        <time>2023-03-05T16:21:14Z</time>
        <extensions>
          <gpxtpx:TrackPointExtension xmlns:gpxtpx="http://www.garmin.com/xmlschemas/TrackPointExtension/v1">
            <gpxtpx:hr>100</gpxtpx:hr>
          </gpxtpx:TrackPointExtension>
        </extensions>
      </trkpt>
      <trkpt lat="48.61478" lon="2.08574">
        <ele>152</ele>
        <time>2023-03-05T16:21:16Z</time>
        <extensions>
          <gpxtpx:TrackPointExtension xmlns:gpxtpx="http://www.garmin.com/xmlschemas/TrackPointExtension/v1">
            <gpxtpx:hr>100</gpxtpx:hr>
          </gpxtpx:TrackPointExtension>
        </extensions>
      </trkpt>
      <trkpt lat="48.61476" lon="2.08575">
        <ele>151.8</ele>
        <time>2023-03-05T16:21:18Z</time>
        <extensions>
          <gpxtpx:TrackPointExtension xmlns:gpxtpx="http://www.garmin.com/xmlschemas/TrackPointExtension/v1">
            <gpxtpx:hr>100</gpxtpx:hr>
          </gpxtpx:TrackPointExtension>
        </extensions>
      </trkpt>
      <trkpt lat="48.61473" lon="2.08576">
        <ele>151.6</ele>
        <time>2023-03-05T16:21:20Z</time>
        <extensions>
          <gpxtpx:TrackPointExtension xmlns:gpxtpx="http://www.garmin.com/xmlschemas/TrackPointExtension/v1">
            <gpxtpx:hr>99</gpxtpx:hr>
          </gpxtpx:TrackPointExtension>
        </extensions>
      </trkpt>
      <trkpt lat="48.6147" lon="2.08578">
        <ele>151.4</ele>
        <time>2023-03-05T16:21:22Z</time>
        <extensions>
          <gpxtpx:TrackPointExtension xmlns:gpxtpx="http://www.garmin.com/xmlschemas/TrackPointExtension/v1">
            <gpxtpx:hr>99</gpxtpx:hr>
          </gpxtpx:TrackPointExtension>
        </extensions>
      </trkpt>
      <trkpt lat="48.61467" lon="2.08579">
        <ele>151.4</ele>
        <time>2023-03-05T16:21:24Z</time>
        <extensions>
          <gpxtpx:TrackPointExtension xmlns:gpxtpx="http://www.garmin.com/xmlschemas/TrackPointExtension/v1">
            <gpxtpx:hr>99</gpxtpx:hr>
          </gpxtpx:TrackPointExtension>
        </extensions>
      </trkpt>
      <trkpt lat="48.61464" lon="2.08581">
        <ele>151.4</ele>
        <time>2023-03-05T16:21:26Z</time>
        <extensions>
          <gpxtpx:TrackPointExtension xmlns:gpxtpx="http://www.garmin.com/xmlschemas/TrackPointExtension/v1">
            <gpxtpx:hr>99</gpxtpx:hr>
          </gpxtpx:TrackPointExtension>
        </extensions>
      </trkpt>
      <trkpt lat="48.61461" lon="2.08583">
        <ele>151</ele>
        <time>2023-03-05T16:21:28Z</time>
        <extensions>
          <gpxtpx:TrackPointExtension xmlns:gpxtpx="http://www.garmin.com/xmlschemas/TrackPointExtension/v1">
            <gpxtpx:hr>99</gpxtpx:hr>
          </gpxtpx:TrackPointExtension>
        </extensions>
      </trkpt>
      <trkpt lat="48.61458" lon="2.08585">
        <ele>150.8</ele>
        <time>2023-03-05T16:21:30Z</time>
        <extensions>
          <gpxtpx:TrackPointExtension xmlns:gpxtpx="http://www.garmin.com/xmlschemas/TrackPointExtension/v1">
            <gpxtpx:hr>100</gpxtpx:hr>
          </gpxtpx:TrackPointExtension>
        </extensions>
      </trkpt>
      <trkpt lat="48.61456" lon="2.08588">
        <ele>150.6</ele>
        <time>2023-03-05T16:21:32Z</time>
        <extensions>
          <gpxtpx:TrackPointExtension xmlns:gpxtpx="http://www.garmin.com/xmlschemas/TrackPointExtension/v1">
            <gpxtpx:hr>101</gpxtpx:hr>
          </gpxtpx:TrackPointExtension>
        </extensions>
      </trkpt>
      <trkpt lat="48.61454" lon="2.08591">
        <ele>150.4</ele>
        <time>2023-03-05T16:21:34Z</time>
        <extensions>
          <gpxtpx:TrackPointExtension xmlns:gpxtpx="http://www.garmin.com/xmlschemas/TrackPointExtension/v1">
            <gpxtpx:hr>101</gpxtpx:hr>
          </gpxtpx:TrackPointExtension>
        </extensions>
      </trkpt>
      <trkpt lat="48.61451" lon="2.08594">
        <ele>150.4</ele>
        <time>2023-03-05T16:21:36Z</time>
        <extensions>
          <gpxtpx:TrackPointExtension xmlns:gpxtpx="http://www.garmin.com/xmlschemas/TrackPointExtension/v1">
            <gpxtpx:hr>101</gpxtpx:hr>
          </gpxtpx:TrackPointExtension>
        </extensions>
      </trkpt>
      <trkpt lat="48.61449" lon="2.08596">
        <ele>150.4</ele>
        <time>2023-03-05T16:21:38Z</time>
        <extensions>
          <gpxtpx:TrackPointExtension xmlns:gpxtpx="http://www.garmin.com/xmlschemas/TrackPointExtension/v1">
            <gpxtpx:hr>101</gpxtpx:hr>
          </gpxtpx:TrackPointExtension>
        </extensions>
      </trkpt>
      <trkpt lat="48.61447" lon="2.08597">
        <ele>150.4</ele>
        <time>2023-03-05T16:21:39Z</time>
        <extensions>
          <gpxtpx:TrackPointExtension xmlns:gpxtpx="http://www.garmin.com/xmlschemas/TrackPointExtension/v1">
            <gpxtpx:hr>101</gpxtpx:hr>
          </gpxtpx:TrackPointExtension>
        </extensions>
      </trkpt>
      <trkpt lat="48.61444" lon="2.086">
        <ele>150.4</ele>
        <time>2023-03-05T16:21:41Z</time>
        <extensions>
          <gpxtpx:TrackPointExtension xmlns:gpxtpx="http://www.garmin.com/xmlschemas/TrackPointExtension/v1">
            <gpxtpx:hr>101</gpxtpx:hr>
          </gpxtpx:TrackPointExtension>
        </extensions>
      </trkpt>
      <trkpt lat="48.61442" lon="2.08603">
        <ele>150.4</ele>
        <time>2023-03-05T16:21:43Z</time>
        <extensions>
          <gpxtpx:TrackPointExtension xmlns:gpxtpx="http://www.garmin.com/xmlschemas/TrackPointExtension/v1">
            <gpxtpx:hr>101</gpxtpx:hr>
          </gpxtpx:TrackPointExtension>
        </extensions>
      </trkpt>
      <trkpt lat="48.6144" lon="2.08604">
        <ele>150.4</ele>
        <time>2023-03-05T16:21:44Z</time>
        <extensions>
          <gpxtpx:TrackPointExtension xmlns:gpxtpx="http://www.garmin.com/xmlschemas/TrackPointExtension/v1">
            <gpxtpx:hr>101</gpxtpx:hr>
          </gpxtpx:TrackPointExtension>
        </extensions>
      </trkpt>
      <trkpt lat="48.61438" lon="2.08607">
        <ele>150.2</ele>
        <time>2023-03-05T16:21:46Z</time>
        <extensions>
          <gpxtpx:TrackPointExtension xmlns:gpxtpx="http://www.garmin.com/xmlschemas/TrackPointExtension/v1">
            <gpxtpx:hr>100</gpxtpx:hr>
          </gpxtpx:TrackPointExtension>
        </extensions>
      </trkpt>
      <trkpt lat="48.61435" lon="2.08609">
        <ele>150.2</ele>
        <time>2023-03-05T16:21:48Z</time>
        <extensions>
          <gpxtpx:TrackPointExtension xmlns:gpxtpx="http://www.garmin.com/xmlschemas/TrackPointExtension/v1">
            <gpxtpx:hr>100</gpxtpx:hr>
          </gpxtpx:TrackPointExtension>
        </extensions>
      </trkpt>
      <trkpt lat="48.61431" lon="2.08612">
        <ele>150</ele>
        <time>2023-03-05T16:21:50Z</time>
        <extensions>
          <gpxtpx:TrackPointExtension xmlns:gpxtpx="http://www.garmin.com/xmlschemas/TrackPointExtension/v1">
            <gpxtpx:hr>100</gpxtpx:hr>
          </gpxtpx:TrackPointExtension>
        </extensions>
      </trkpt>
      <trkpt lat="48.61428" lon="2.08614">
        <ele>149.8</ele>
        <time>2023-03-05T16:21:52Z</time>
        <extensions>
          <gpxtpx:TrackPointExtension xmlns:gpxtpx="http://www.garmin.com/xmlschemas/TrackPointExtension/v1">
            <gpxtpx:hr>100</gpxtpx:hr>
          </gpxtpx:TrackPointExtension>
        </extensions>
      </trkpt>
      <trkpt lat="48.61425" lon="2.08617">
        <ele>149.6</ele>
        <time>2023-03-05T16:21:54Z</time>
        <extensions>
          <gpxtpx:TrackPointExtension xmlns:gpxtpx="http://www.garmin.com/xmlschemas/TrackPointExtension/v1">
            <gpxtpx:hr>100</gpxtpx:hr>
          </gpxtpx:TrackPointExtension>
        </extensions>
      </trkpt>
      <trkpt lat="48.61422" lon="2.08619">
        <ele>149.4</ele>
        <time>2023-03-05T16:21:56Z</time>
        <extensions>
          <gpxtpx:TrackPointExtension xmlns:gpxtpx="http://www.garmin.com/xmlschemas/TrackPointExtension/v1">
            <gpxtpx:hr>101</gpxtpx:hr>
          </gpxtpx:TrackPointExtension>
        </extensions>
      </trkpt>
      <trkpt lat="48.6142" lon="2.08622">
        <ele>149.2</ele>
        <time>2023-03-05T16:21:58Z</time>
        <extensions>
          <gpxtpx:TrackPointExtension xmlns:gpxtpx="http://www.garmin.com/xmlschemas/TrackPointExtension/v1">
            <gpxtpx:hr>101</gpxtpx:hr>
          </gpxtpx:TrackPointExtension>
        </extensions>
      </trkpt>
      <trkpt lat="48.61417" lon="2.08625">
        <ele>149</ele>
        <time>2023-03-05T16:22:00Z</time>
        <extensions>
          <gpxtpx:TrackPointExtension xmlns:gpxtpx="http://www.garmin.com/xmlschemas/TrackPointExtension/v1">
            <gpxtpx:hr>101</gpxtpx:hr>
          </gpxtpx:TrackPointExtension>
        </extensions>
      </trkpt>
      <trkpt lat="48.61415" lon="2.08629">
        <ele>148.8</ele>
        <time>2023-03-05T16:22:02Z</time>
        <extensions>
          <gpxtpx:TrackPointExtension xmlns:gpxtpx="http://www.garmin.com/xmlschemas/TrackPointExtension/v1">
            <gpxtpx:hr>102</gpxtpx:hr>
          </gpxtpx:TrackPointExtension>
        </extensions>
      </trkpt>
      <trkpt lat="48.61414" lon="2.08633">
        <ele>148.6</ele>
        <time>2023-03-05T16:22:04Z</time>
        <extensions>
          <gpxtpx:TrackPointExtension xmlns:gpxtpx="http://www.garmin.com/xmlschemas/TrackPointExtension/v1">
            <gpxtpx:hr>102</gpxtpx:hr>
          </gpxtpx:TrackPointExtension>
        </extensions>
      </trkpt>
      <trkpt lat="48.61413" lon="2.08637">
        <ele>148.8</ele>
        <time>2023-03-05T16:22:06Z</time>
        <extensions>
          <gpxtpx:TrackPointExtension xmlns:gpxtpx="http://www.garmin.com/xmlschemas/TrackPointExtension/v1">
            <gpxtpx:hr>102</gpxtpx:hr>
          </gpxtpx:TrackPointExtension>
        </extensions>
      </trkpt>
      <trkpt lat="48.61412" lon="2.08642">
        <ele>148.6</ele>
        <time>2023-03-05T16:22:08Z</time>
        <extensions>
          <gpxtpx:TrackPointExtension xmlns:gpxtpx="http://www.garmin.com/xmlschemas/TrackPointExtension/v1">
            <gpxtpx:hr>102</gpxtpx:hr>
          </gpxtpx:TrackPointExtension>
        </extensions>
      </trkpt>
      <trkpt lat="48.61411" lon="2.08647">
        <ele>148.6</ele>
        <time>2023-03-05T16:22:10Z</time>
        <extensions>
          <gpxtpx:TrackPointExtension xmlns:gpxtpx="http://www.garmin.com/xmlschemas/TrackPointExtension/v1">
            <gpxtpx:hr>103</gpxtpx:hr>
          </gpxtpx:TrackPointExtension>
        </extensions>
      </trkpt>
      <trkpt lat="48.61409" lon="2.08652">
        <ele>148.4</ele>
        <time>2023-03-05T16:22:12Z</time>
        <extensions>
          <gpxtpx:TrackPointExtension xmlns:gpxtpx="http://www.garmin.com/xmlschemas/TrackPointExtension/v1">
            <gpxtpx:hr>103</gpxtpx:hr>
          </gpxtpx:TrackPointExtension>
        </extensions>
      </trkpt>
      <trkpt lat="48.61408" lon="2.08656">
        <ele>148.4</ele>
        <time>2023-03-05T16:22:14Z</time>
        <extensions>
          <gpxtpx:TrackPointExtension xmlns:gpxtpx="http://www.garmin.com/xmlschemas/TrackPointExtension/v1">
            <gpxtpx:hr>103</gpxtpx:hr>
          </gpxtpx:TrackPointExtension>
        </extensions>
      </trkpt>
      <trkpt lat="48.61406" lon="2.0866">
        <ele>148.2</ele>
        <time>2023-03-05T16:22:16Z</time>
        <extensions>
          <gpxtpx:TrackPointExtension xmlns:gpxtpx="http://www.garmin.com/xmlschemas/TrackPointExtension/v1">
            <gpxtpx:hr>103</gpxtpx:hr>
          </gpxtpx:TrackPointExtension>
        </extensions>
      </trkpt>
      <trkpt lat="48.61405" lon="2.08665">
        <ele>148</ele>
        <time>2023-03-05T16:22:18Z</time>
        <extensions>
          <gpxtpx:TrackPointExtension xmlns:gpxtpx="http://www.garmin.com/xmlschemas/TrackPointExtension/v1">
            <gpxtpx:hr>103</gpxtpx:hr>
          </gpxtpx:TrackPointExtension>
        </extensions>
      </trkpt>
      <trkpt lat="48.61403" lon="2.08669">
        <ele>147.8</ele>
        <time>2023-03-05T16:22:20Z</time>
        <extensions>
          <gpxtpx:TrackPointExtension xmlns:gpxtpx="http://www.garmin.com/xmlschemas/TrackPointExtension/v1">
            <gpxtpx:hr>103</gpxtpx:hr>
          </gpxtpx:TrackPointExtension>
        </extensions>
      </trkpt>
      <trkpt lat="48.61402" lon="2.08673">
        <ele>147.8</ele>
        <time>2023-03-05T16:22:22Z</time>
        <extensions>
          <gpxtpx:TrackPointExtension xmlns:gpxtpx="http://www.garmin.com/xmlschemas/TrackPointExtension/v1">
            <gpxtpx:hr>103</gpxtpx:hr>
          </gpxtpx:TrackPointExtension>
        </extensions>
      </trkpt>
      <trkpt lat="48.614" lon="2.08678">
        <ele>147.8</ele>
        <time>2023-03-05T16:22:24Z</time>
        <extensions>
          <gpxtpx:TrackPointExtension xmlns:gpxtpx="http://www.garmin.com/xmlschemas/TrackPointExtension/v1">
            <gpxtpx:hr>104</gpxtpx:hr>
          </gpxtpx:TrackPointExtension>
        </extensions>
      </trkpt>
      <trkpt lat="48.61399" lon="2.08682">
        <ele>147.6</ele>
        <time>2023-03-05T16:22:26Z</time>
        <extensions>
          <gpxtpx:TrackPointExtension xmlns:gpxtpx="http://www.garmin.com/xmlschemas/TrackPointExtension/v1">
            <gpxtpx:hr>104</gpxtpx:hr>
          </gpxtpx:TrackPointExtension>
        </extensions>
      </trkpt>
      <trkpt lat="48.61397" lon="2.08686">
        <ele>147.4</ele>
        <time>2023-03-05T16:22:28Z</time>
        <extensions>
          <gpxtpx:TrackPointExtension xmlns:gpxtpx="http://www.garmin.com/xmlschemas/TrackPointExtension/v1">
            <gpxtpx:hr>104</gpxtpx:hr>
          </gpxtpx:TrackPointExtension>
        </extensions>
      </trkpt>
      <trkpt lat="48.61395" lon="2.08689">
        <ele>147.4</ele>
        <time>2023-03-05T16:22:30Z</time>
        <extensions>
          <gpxtpx:TrackPointExtension xmlns:gpxtpx="http://www.garmin.com/xmlschemas/TrackPointExtension/v1">
            <gpxtpx:hr>104</gpxtpx:hr>
          </gpxtpx:TrackPointExtension>
        </extensions>
      </trkpt>
      <trkpt lat="48.61393" lon="2.08693">
        <ele>147.2</ele>
        <time>2023-03-05T16:22:32Z</time>
        <extensions>
          <gpxtpx:TrackPointExtension xmlns:gpxtpx="http://www.garmin.com/xmlschemas/TrackPointExtension/v1">
            <gpxtpx:hr>104</gpxtpx:hr>
          </gpxtpx:TrackPointExtension>
        </extensions>
      </trkpt>
      <trkpt lat="48.61391" lon="2.08697">
        <ele>147.2</ele>
        <time>2023-03-05T16:22:34Z</time>
        <extensions>
          <gpxtpx:TrackPointExtension xmlns:gpxtpx="http://www.garmin.com/xmlschemas/TrackPointExtension/v1">
            <gpxtpx:hr>104</gpxtpx:hr>
          </gpxtpx:TrackPointExtension>
        </extensions>
      </trkpt>
      <trkpt lat="48.61389" lon="2.08701">
        <ele>147.2</ele>
        <time>2023-03-05T16:22:36Z</time>
        <extensions>
          <gpxtpx:TrackPointExtension xmlns:gpxtpx="http://www.garmin.com/xmlschemas/TrackPointExtension/v1">
            <gpxtpx:hr>104</gpxtpx:hr>
          </gpxtpx:TrackPointExtension>
        </extensions>
      </trkpt>
      <trkpt lat="48.61387" lon="2.08706">
        <ele>147</ele>
        <time>2023-03-05T16:22:38Z</time>
        <extensions>
          <gpxtpx:TrackPointExtension xmlns:gpxtpx="http://www.garmin.com/xmlschemas/TrackPointExtension/v1">
            <gpxtpx:hr>105</gpxtpx:hr>
          </gpxtpx:TrackPointExtension>
        </extensions>
      </trkpt>
      <trkpt lat="48.61386" lon="2.0871">
        <ele>147</ele>
        <time>2023-03-05T16:22:40Z</time>
        <extensions>
          <gpxtpx:TrackPointExtension xmlns:gpxtpx="http://www.garmin.com/xmlschemas/TrackPointExtension/v1">
            <gpxtpx:hr>105</gpxtpx:hr>
          </gpxtpx:TrackPointExtension>
        </extensions>
      </trkpt>
      <trkpt lat="48.61384" lon="2.08715">
        <ele>147</ele>
        <time>2023-03-05T16:22:42Z</time>
        <extensions>
          <gpxtpx:TrackPointExtension xmlns:gpxtpx="http://www.garmin.com/xmlschemas/TrackPointExtension/v1">
            <gpxtpx:hr>105</gpxtpx:hr>
          </gpxtpx:TrackPointExtension>
        </extensions>
      </trkpt>
      <trkpt lat="48.61382" lon="2.08719">
        <ele>146.8</ele>
        <time>2023-03-05T16:22:44Z</time>
        <extensions>
          <gpxtpx:TrackPointExtension xmlns:gpxtpx="http://www.garmin.com/xmlschemas/TrackPointExtension/v1">
            <gpxtpx:hr>105</gpxtpx:hr>
          </gpxtpx:TrackPointExtension>
        </extensions>
      </trkpt>
      <trkpt lat="48.6138" lon="2.08724">
        <ele>146.6</ele>
        <time>2023-03-05T16:22:46Z</time>
        <extensions>
          <gpxtpx:TrackPointExtension xmlns:gpxtpx="http://www.garmin.com/xmlschemas/TrackPointExtension/v1">
            <gpxtpx:hr>105</gpxtpx:hr>
          </gpxtpx:TrackPointExtension>
        </extensions>
      </trkpt>
      <trkpt lat="48.61379" lon="2.08728">
        <ele>146.6</ele>
        <time>2023-03-05T16:22:48Z</time>
        <extensions>
          <gpxtpx:TrackPointExtension xmlns:gpxtpx="http://www.garmin.com/xmlschemas/TrackPointExtension/v1">
            <gpxtpx:hr>105</gpxtpx:hr>
          </gpxtpx:TrackPointExtension>
        </extensions>
      </trkpt>
      <trkpt lat="48.61377" lon="2.0873">
        <ele>146.6</ele>
        <time>2023-03-05T16:22:49Z</time>
        <extensions>
          <gpxtpx:TrackPointExtension xmlns:gpxtpx="http://www.garmin.com/xmlschemas/TrackPointExtension/v1">
            <gpxtpx:hr>105</gpxtpx:hr>
          </gpxtpx:TrackPointExtension>
        </extensions>
      </trkpt>
      <trkpt lat="48.61376" lon="2.08735">
        <ele>146.4</ele>
        <time>2023-03-05T16:22:51Z</time>
        <extensions>
          <gpxtpx:TrackPointExtension xmlns:gpxtpx="http://www.garmin.com/xmlschemas/TrackPointExtension/v1">
            <gpxtpx:hr>105</gpxtpx:hr>
          </gpxtpx:TrackPointExtension>
        </extensions>
      </trkpt>
      <trkpt lat="48.61375" lon="2.0874">
        <ele>146.4</ele>
        <time>2023-03-05T16:22:53Z</time>
        <extensions>
          <gpxtpx:TrackPointExtension xmlns:gpxtpx="http://www.garmin.com/xmlschemas/TrackPointExtension/v1">
            <gpxtpx:hr>105</gpxtpx:hr>
          </gpxtpx:TrackPointExtension>
        </extensions>
      </trkpt>
      <trkpt lat="48.61373" lon="2.08744">
        <ele>146.4</ele>
        <time>2023-03-05T16:22:55Z</time>
        <extensions>
          <gpxtpx:TrackPointExtension xmlns:gpxtpx="http://www.garmin.com/xmlschemas/TrackPointExtension/v1">
            <gpxtpx:hr>105</gpxtpx:hr>
          </gpxtpx:TrackPointExtension>
        </extensions>
      </trkpt>
      <trkpt lat="48.61373" lon="2.08749">
        <ele>146.2</ele>
        <time>2023-03-05T16:22:57Z</time>
        <extensions>
          <gpxtpx:TrackPointExtension xmlns:gpxtpx="http://www.garmin.com/xmlschemas/TrackPointExtension/v1">
            <gpxtpx:hr>105</gpxtpx:hr>
          </gpxtpx:TrackPointExtension>
        </extensions>
      </trkpt>
      <trkpt lat="48.61372" lon="2.08754">
        <ele>146.2</ele>
        <time>2023-03-05T16:22:59Z</time>
        <extensions>
          <gpxtpx:TrackPointExtension xmlns:gpxtpx="http://www.garmin.com/xmlschemas/TrackPointExtension/v1">
            <gpxtpx:hr>105</gpxtpx:hr>
          </gpxtpx:TrackPointExtension>
        </extensions>
      </trkpt>
      <trkpt lat="48.61371" lon="2.08759">
        <ele>145.8</ele>
        <time>2023-03-05T16:23:01Z</time>
        <extensions>
          <gpxtpx:TrackPointExtension xmlns:gpxtpx="http://www.garmin.com/xmlschemas/TrackPointExtension/v1">
            <gpxtpx:hr>105</gpxtpx:hr>
          </gpxtpx:TrackPointExtension>
        </extensions>
      </trkpt>
      <trkpt lat="48.61369" lon="2.08763">
        <ele>145.6</ele>
        <time>2023-03-05T16:23:03Z</time>
        <extensions>
          <gpxtpx:TrackPointExtension xmlns:gpxtpx="http://www.garmin.com/xmlschemas/TrackPointExtension/v1">
            <gpxtpx:hr>105</gpxtpx:hr>
          </gpxtpx:TrackPointExtension>
        </extensions>
      </trkpt>
      <trkpt lat="48.61368" lon="2.08767">
        <ele>145.4</ele>
        <time>2023-03-05T16:23:05Z</time>
        <extensions>
          <gpxtpx:TrackPointExtension xmlns:gpxtpx="http://www.garmin.com/xmlschemas/TrackPointExtension/v1">
            <gpxtpx:hr>105</gpxtpx:hr>
          </gpxtpx:TrackPointExtension>
        </extensions>
      </trkpt>
      <trkpt lat="48.61366" lon="2.08772">
        <ele>145.2</ele>
        <time>2023-03-05T16:23:07Z</time>
        <extensions>
          <gpxtpx:TrackPointExtension xmlns:gpxtpx="http://www.garmin.com/xmlschemas/TrackPointExtension/v1">
            <gpxtpx:hr>105</gpxtpx:hr>
          </gpxtpx:TrackPointExtension>
        </extensions>
      </trkpt>
      <trkpt lat="48.61365" lon="2.08777">
        <ele>145</ele>
        <time>2023-03-05T16:23:09Z</time>
        <extensions>
          <gpxtpx:TrackPointExtension xmlns:gpxtpx="http://www.garmin.com/xmlschemas/TrackPointExtension/v1">
            <gpxtpx:hr>105</gpxtpx:hr>
          </gpxtpx:TrackPointExtension>
        </extensions>
      </trkpt>
      <trkpt lat="48.61364" lon="2.08782">
        <ele>144.8</ele>
        <time>2023-03-05T16:23:11Z</time>
        <extensions>
          <gpxtpx:TrackPointExtension xmlns:gpxtpx="http://www.garmin.com/xmlschemas/TrackPointExtension/v1">
            <gpxtpx:hr>105</gpxtpx:hr>
          </gpxtpx:TrackPointExtension>
        </extensions>
      </trkpt>
      <trkpt lat="48.61364" lon="2.08785">
        <ele>144.8</ele>
        <time>2023-03-05T16:23:12Z</time>
        <extensions>
          <gpxtpx:TrackPointExtension xmlns:gpxtpx="http://www.garmin.com/xmlschemas/TrackPointExtension/v1">
            <gpxtpx:hr>105</gpxtpx:hr>
          </gpxtpx:TrackPointExtension>
        </extensions>
      </trkpt>
      <trkpt lat="48.61363" lon="2.08788">
        <ele>144.6</ele>
        <time>2023-03-05T16:23:13Z</time>
        <extensions>
          <gpxtpx:TrackPointExtension xmlns:gpxtpx="http://www.garmin.com/xmlschemas/TrackPointExtension/v1">
            <gpxtpx:hr>106</gpxtpx:hr>
          </gpxtpx:TrackPointExtension>
        </extensions>
      </trkpt>
      <trkpt lat="48.61363" lon="2.0879">
        <ele>144.6</ele>
        <time>2023-03-05T16:23:14Z</time>
        <extensions>
          <gpxtpx:TrackPointExtension xmlns:gpxtpx="http://www.garmin.com/xmlschemas/TrackPointExtension/v1">
            <gpxtpx:hr>106</gpxtpx:hr>
          </gpxtpx:TrackPointExtension>
        </extensions>
      </trkpt>
      <trkpt lat="48.61363" lon="2.08793">
        <ele>144.6</ele>
        <time>2023-03-05T16:23:15Z</time>
        <extensions>
          <gpxtpx:TrackPointExtension xmlns:gpxtpx="http://www.garmin.com/xmlschemas/TrackPointExtension/v1">
            <gpxtpx:hr>106</gpxtpx:hr>
          </gpxtpx:TrackPointExtension>
        </extensions>
      </trkpt>
      <trkpt lat="48.61363" lon="2.08796">
        <ele>144.6</ele>
        <time>2023-03-05T16:23:16Z</time>
        <extensions>
          <gpxtpx:TrackPointExtension xmlns:gpxtpx="http://www.garmin.com/xmlschemas/TrackPointExtension/v1">
            <gpxtpx:hr>106</gpxtpx:hr>
          </gpxtpx:TrackPointExtension>
        </extensions>
      </trkpt>
      <trkpt lat="48.61362" lon="2.08798">
        <ele>144.6</ele>
        <time>2023-03-05T16:23:17Z</time>
        <extensions>
          <gpxtpx:TrackPointExtension xmlns:gpxtpx="http://www.garmin.com/xmlschemas/TrackPointExtension/v1">
            <gpxtpx:hr>106</gpxtpx:hr>
          </gpxtpx:TrackPointExtension>
        </extensions>
      </trkpt>
      <trkpt lat="48.61362" lon="2.08804">
        <ele>144.6</ele>
        <time>2023-03-05T16:23:19Z</time>
        <extensions>
          <gpxtpx:TrackPointExtension xmlns:gpxtpx="http://www.garmin.com/xmlschemas/TrackPointExtension/v1">
            <gpxtpx:hr>106</gpxtpx:hr>
          </gpxtpx:TrackPointExtension>
        </extensions>
      </trkpt>
      <trkpt lat="48.61361" lon="2.08809">
        <ele>144.6</ele>
        <time>2023-03-05T16:23:21Z</time>
        <extensions>
          <gpxtpx:TrackPointExtension xmlns:gpxtpx="http://www.garmin.com/xmlschemas/TrackPointExtension/v1">
            <gpxtpx:hr>105</gpxtpx:hr>
          </gpxtpx:TrackPointExtension>
        </extensions>
      </trkpt>
      <trkpt lat="48.61361" lon="2.08814">
        <ele>144.6</ele>
        <time>2023-03-05T16:23:23Z</time>
        <extensions>
          <gpxtpx:TrackPointExtension xmlns:gpxtpx="http://www.garmin.com/xmlschemas/TrackPointExtension/v1">
            <gpxtpx:hr>105</gpxtpx:hr>
          </gpxtpx:TrackPointExtension>
        </extensions>
      </trkpt>
      <trkpt lat="48.61361" lon="2.08819">
        <ele>144.6</ele>
        <time>2023-03-05T16:23:25Z</time>
        <extensions>
          <gpxtpx:TrackPointExtension xmlns:gpxtpx="http://www.garmin.com/xmlschemas/TrackPointExtension/v1">
            <gpxtpx:hr>105</gpxtpx:hr>
          </gpxtpx:TrackPointExtension>
        </extensions>
      </trkpt>
      <trkpt lat="48.61361" lon="2.08824">
        <ele>144.4</ele>
        <time>2023-03-05T16:23:27Z</time>
        <extensions>
          <gpxtpx:TrackPointExtension xmlns:gpxtpx="http://www.garmin.com/xmlschemas/TrackPointExtension/v1">
            <gpxtpx:hr>106</gpxtpx:hr>
          </gpxtpx:TrackPointExtension>
        </extensions>
      </trkpt>
      <trkpt lat="48.61361" lon="2.08829">
        <ele>144.2</ele>
        <time>2023-03-05T16:23:29Z</time>
        <extensions>
          <gpxtpx:TrackPointExtension xmlns:gpxtpx="http://www.garmin.com/xmlschemas/TrackPointExtension/v1">
            <gpxtpx:hr>106</gpxtpx:hr>
          </gpxtpx:TrackPointExtension>
        </extensions>
      </trkpt>
      <trkpt lat="48.61361" lon="2.08834">
        <ele>144</ele>
        <time>2023-03-05T16:23:31Z</time>
        <extensions>
          <gpxtpx:TrackPointExtension xmlns:gpxtpx="http://www.garmin.com/xmlschemas/TrackPointExtension/v1">
            <gpxtpx:hr>106</gpxtpx:hr>
          </gpxtpx:TrackPointExtension>
        </extensions>
      </trkpt>
      <trkpt lat="48.61361" lon="2.08839">
        <ele>144</ele>
        <time>2023-03-05T16:23:33Z</time>
        <extensions>
          <gpxtpx:TrackPointExtension xmlns:gpxtpx="http://www.garmin.com/xmlschemas/TrackPointExtension/v1">
            <gpxtpx:hr>106</gpxtpx:hr>
          </gpxtpx:TrackPointExtension>
        </extensions>
      </trkpt>
      <trkpt lat="48.61362" lon="2.08844">
        <ele>143.8</ele>
        <time>2023-03-05T16:23:35Z</time>
        <extensions>
          <gpxtpx:TrackPointExtension xmlns:gpxtpx="http://www.garmin.com/xmlschemas/TrackPointExtension/v1">
            <gpxtpx:hr>106</gpxtpx:hr>
          </gpxtpx:TrackPointExtension>
        </extensions>
      </trkpt>
      <trkpt lat="48.61362" lon="2.08849">
        <ele>143.6</ele>
        <time>2023-03-05T16:23:37Z</time>
        <extensions>
          <gpxtpx:TrackPointExtension xmlns:gpxtpx="http://www.garmin.com/xmlschemas/TrackPointExtension/v1">
            <gpxtpx:hr>106</gpxtpx:hr>
          </gpxtpx:TrackPointExtension>
        </extensions>
      </trkpt>
      <trkpt lat="48.61363" lon="2.08852">
        <ele>143.6</ele>
        <time>2023-03-05T16:23:38Z</time>
        <extensions>
          <gpxtpx:TrackPointExtension xmlns:gpxtpx="http://www.garmin.com/xmlschemas/TrackPointExtension/v1">
            <gpxtpx:hr>106</gpxtpx:hr>
          </gpxtpx:TrackPointExtension>
        </extensions>
      </trkpt>
      <trkpt lat="48.61363" lon="2.08855">
        <ele>143.6</ele>
        <time>2023-03-05T16:23:39Z</time>
        <extensions>
          <gpxtpx:TrackPointExtension xmlns:gpxtpx="http://www.garmin.com/xmlschemas/TrackPointExtension/v1">
            <gpxtpx:hr>106</gpxtpx:hr>
          </gpxtpx:TrackPointExtension>
        </extensions>
      </trkpt>
      <trkpt lat="48.61364" lon="2.0886">
        <ele>143.4</ele>
        <time>2023-03-05T16:23:41Z</time>
        <extensions>
          <gpxtpx:TrackPointExtension xmlns:gpxtpx="http://www.garmin.com/xmlschemas/TrackPointExtension/v1">
            <gpxtpx:hr>106</gpxtpx:hr>
          </gpxtpx:TrackPointExtension>
        </extensions>
      </trkpt>
      <trkpt lat="48.61364" lon="2.08863">
        <ele>143.4</ele>
        <time>2023-03-05T16:23:42Z</time>
        <extensions>
          <gpxtpx:TrackPointExtension xmlns:gpxtpx="http://www.garmin.com/xmlschemas/TrackPointExtension/v1">
            <gpxtpx:hr>106</gpxtpx:hr>
          </gpxtpx:TrackPointExtension>
        </extensions>
      </trkpt>
      <trkpt lat="48.61365" lon="2.08868">
        <ele>143.2</ele>
        <time>2023-03-05T16:23:44Z</time>
        <extensions>
          <gpxtpx:TrackPointExtension xmlns:gpxtpx="http://www.garmin.com/xmlschemas/TrackPointExtension/v1">
            <gpxtpx:hr>106</gpxtpx:hr>
          </gpxtpx:TrackPointExtension>
        </extensions>
      </trkpt>
      <trkpt lat="48.61366" lon="2.08873">
        <ele>143</ele>
        <time>2023-03-05T16:23:46Z</time>
        <extensions>
          <gpxtpx:TrackPointExtension xmlns:gpxtpx="http://www.garmin.com/xmlschemas/TrackPointExtension/v1">
            <gpxtpx:hr>106</gpxtpx:hr>
          </gpxtpx:TrackPointExtension>
        </extensions>
      </trkpt>
      <trkpt lat="48.61367" lon="2.08878">
        <ele>143</ele>
        <time>2023-03-05T16:23:48Z</time>
        <extensions>
          <gpxtpx:TrackPointExtension xmlns:gpxtpx="http://www.garmin.com/xmlschemas/TrackPointExtension/v1">
            <gpxtpx:hr>107</gpxtpx:hr>
          </gpxtpx:TrackPointExtension>
        </extensions>
      </trkpt>
      <trkpt lat="48.61367" lon="2.08881">
        <ele>142.8</ele>
        <time>2023-03-05T16:23:49Z</time>
        <extensions>
          <gpxtpx:TrackPointExtension xmlns:gpxtpx="http://www.garmin.com/xmlschemas/TrackPointExtension/v1">
            <gpxtpx:hr>107</gpxtpx:hr>
          </gpxtpx:TrackPointExtension>
        </extensions>
      </trkpt>
      <trkpt lat="48.61367" lon="2.08886">
        <ele>142.6</ele>
        <time>2023-03-05T16:23:51Z</time>
        <extensions>
          <gpxtpx:TrackPointExtension xmlns:gpxtpx="http://www.garmin.com/xmlschemas/TrackPointExtension/v1">
            <gpxtpx:hr>107</gpxtpx:hr>
          </gpxtpx:TrackPointExtension>
        </extensions>
      </trkpt>
      <trkpt lat="48.61368" lon="2.08891">
        <ele>142.6</ele>
        <time>2023-03-05T16:23:53Z</time>
        <extensions>
          <gpxtpx:TrackPointExtension xmlns:gpxtpx="http://www.garmin.com/xmlschemas/TrackPointExtension/v1">
            <gpxtpx:hr>107</gpxtpx:hr>
          </gpxtpx:TrackPointExtension>
        </extensions>
      </trkpt>
      <trkpt lat="48.61369" lon="2.08896">
        <ele>142.4</ele>
        <time>2023-03-05T16:23:55Z</time>
        <extensions>
          <gpxtpx:TrackPointExtension xmlns:gpxtpx="http://www.garmin.com/xmlschemas/TrackPointExtension/v1">
            <gpxtpx:hr>107</gpxtpx:hr>
          </gpxtpx:TrackPointExtension>
        </extensions>
      </trkpt>
      <trkpt lat="48.61369" lon="2.08901">
        <ele>142.2</ele>
        <time>2023-03-05T16:23:57Z</time>
        <extensions>
          <gpxtpx:TrackPointExtension xmlns:gpxtpx="http://www.garmin.com/xmlschemas/TrackPointExtension/v1">
            <gpxtpx:hr>107</gpxtpx:hr>
          </gpxtpx:TrackPointExtension>
        </extensions>
      </trkpt>
      <trkpt lat="48.6137" lon="2.08906">
        <ele>142</ele>
        <time>2023-03-05T16:23:59Z</time>
        <extensions>
          <gpxtpx:TrackPointExtension xmlns:gpxtpx="http://www.garmin.com/xmlschemas/TrackPointExtension/v1">
            <gpxtpx:hr>107</gpxtpx:hr>
          </gpxtpx:TrackPointExtension>
        </extensions>
      </trkpt>
      <trkpt lat="48.61371" lon="2.08911">
        <ele>141.8</ele>
        <time>2023-03-05T16:24:01Z</time>
        <extensions>
          <gpxtpx:TrackPointExtension xmlns:gpxtpx="http://www.garmin.com/xmlschemas/TrackPointExtension/v1">
            <gpxtpx:hr>107</gpxtpx:hr>
          </gpxtpx:TrackPointExtension>
        </extensions>
      </trkpt>
      <trkpt lat="48.61371" lon="2.08916">
        <ele>141.8</ele>
        <time>2023-03-05T16:24:03Z</time>
        <extensions>
          <gpxtpx:TrackPointExtension xmlns:gpxtpx="http://www.garmin.com/xmlschemas/TrackPointExtension/v1">
            <gpxtpx:hr>107</gpxtpx:hr>
          </gpxtpx:TrackPointExtension>
        </extensions>
      </trkpt>
      <trkpt lat="48.61372" lon="2.08921">
        <ele>141.6</ele>
        <time>2023-03-05T16:24:05Z</time>
        <extensions>
          <gpxtpx:TrackPointExtension xmlns:gpxtpx="http://www.garmin.com/xmlschemas/TrackPointExtension/v1">
            <gpxtpx:hr>107</gpxtpx:hr>
          </gpxtpx:TrackPointExtension>
        </extensions>
      </trkpt>
      <trkpt lat="48.61372" lon="2.08926">
        <ele>141.4</ele>
        <time>2023-03-05T16:24:07Z</time>
        <extensions>
          <gpxtpx:TrackPointExtension xmlns:gpxtpx="http://www.garmin.com/xmlschemas/TrackPointExtension/v1">
            <gpxtpx:hr>107</gpxtpx:hr>
          </gpxtpx:TrackPointExtension>
        </extensions>
      </trkpt>
      <trkpt lat="48.61373" lon="2.08931">
        <ele>141.2</ele>
        <time>2023-03-05T16:24:09Z</time>
        <extensions>
          <gpxtpx:TrackPointExtension xmlns:gpxtpx="http://www.garmin.com/xmlschemas/TrackPointExtension/v1">
            <gpxtpx:hr>107</gpxtpx:hr>
          </gpxtpx:TrackPointExtension>
        </extensions>
      </trkpt>
      <trkpt lat="48.61373" lon="2.08936">
        <ele>141</ele>
        <time>2023-03-05T16:24:11Z</time>
        <extensions>
          <gpxtpx:TrackPointExtension xmlns:gpxtpx="http://www.garmin.com/xmlschemas/TrackPointExtension/v1">
            <gpxtpx:hr>107</gpxtpx:hr>
          </gpxtpx:TrackPointExtension>
        </extensions>
      </trkpt>
      <trkpt lat="48.61373" lon="2.08939">
        <ele>141</ele>
        <time>2023-03-05T16:24:12Z</time>
        <extensions>
          <gpxtpx:TrackPointExtension xmlns:gpxtpx="http://www.garmin.com/xmlschemas/TrackPointExtension/v1">
            <gpxtpx:hr>107</gpxtpx:hr>
          </gpxtpx:TrackPointExtension>
        </extensions>
      </trkpt>
      <trkpt lat="48.61373" lon="2.08942">
        <ele>141</ele>
        <time>2023-03-05T16:24:13Z</time>
        <extensions>
          <gpxtpx:TrackPointExtension xmlns:gpxtpx="http://www.garmin.com/xmlschemas/TrackPointExtension/v1">
            <gpxtpx:hr>107</gpxtpx:hr>
          </gpxtpx:TrackPointExtension>
        </extensions>
      </trkpt>
      <trkpt lat="48.61373" lon="2.08945">
        <ele>140.8</ele>
        <time>2023-03-05T16:24:14Z</time>
        <extensions>
          <gpxtpx:TrackPointExtension xmlns:gpxtpx="http://www.garmin.com/xmlschemas/TrackPointExtension/v1">
            <gpxtpx:hr>107</gpxtpx:hr>
          </gpxtpx:TrackPointExtension>
        </extensions>
      </trkpt>
      <trkpt lat="48.61372" lon="2.0895">
        <ele>140.6</ele>
        <time>2023-03-05T16:24:16Z</time>
        <extensions>
          <gpxtpx:TrackPointExtension xmlns:gpxtpx="http://www.garmin.com/xmlschemas/TrackPointExtension/v1">
            <gpxtpx:hr>107</gpxtpx:hr>
          </gpxtpx:TrackPointExtension>
        </extensions>
      </trkpt>
      <trkpt lat="48.61371" lon="2.08955">
        <ele>140.4</ele>
        <time>2023-03-05T16:24:18Z</time>
        <extensions>
          <gpxtpx:TrackPointExtension xmlns:gpxtpx="http://www.garmin.com/xmlschemas/TrackPointExtension/v1">
            <gpxtpx:hr>107</gpxtpx:hr>
          </gpxtpx:TrackPointExtension>
        </extensions>
      </trkpt>
      <trkpt lat="48.6137" lon="2.08959">
        <ele>140.2</ele>
        <time>2023-03-05T16:24:20Z</time>
        <extensions>
          <gpxtpx:TrackPointExtension xmlns:gpxtpx="http://www.garmin.com/xmlschemas/TrackPointExtension/v1">
            <gpxtpx:hr>107</gpxtpx:hr>
          </gpxtpx:TrackPointExtension>
        </extensions>
      </trkpt>
      <trkpt lat="48.61368" lon="2.08964">
        <ele>139.8</ele>
        <time>2023-03-05T16:24:22Z</time>
        <extensions>
          <gpxtpx:TrackPointExtension xmlns:gpxtpx="http://www.garmin.com/xmlschemas/TrackPointExtension/v1">
            <gpxtpx:hr>107</gpxtpx:hr>
          </gpxtpx:TrackPointExtension>
        </extensions>
      </trkpt>
      <trkpt lat="48.61366" lon="2.08968">
        <ele>139.6</ele>
        <time>2023-03-05T16:24:24Z</time>
        <extensions>
          <gpxtpx:TrackPointExtension xmlns:gpxtpx="http://www.garmin.com/xmlschemas/TrackPointExtension/v1">
            <gpxtpx:hr>107</gpxtpx:hr>
          </gpxtpx:TrackPointExtension>
        </extensions>
      </trkpt>
      <trkpt lat="48.61364" lon="2.08972">
        <ele>139.4</ele>
        <time>2023-03-05T16:24:26Z</time>
        <extensions>
          <gpxtpx:TrackPointExtension xmlns:gpxtpx="http://www.garmin.com/xmlschemas/TrackPointExtension/v1">
            <gpxtpx:hr>107</gpxtpx:hr>
          </gpxtpx:TrackPointExtension>
        </extensions>
      </trkpt>
      <trkpt lat="48.61363" lon="2.08977">
        <ele>139.4</ele>
        <time>2023-03-05T16:24:28Z</time>
        <extensions>
          <gpxtpx:TrackPointExtension xmlns:gpxtpx="http://www.garmin.com/xmlschemas/TrackPointExtension/v1">
            <gpxtpx:hr>107</gpxtpx:hr>
          </gpxtpx:TrackPointExtension>
        </extensions>
      </trkpt>
      <trkpt lat="48.61361" lon="2.08981">
        <ele>139.4</ele>
        <time>2023-03-05T16:24:30Z</time>
        <extensions>
          <gpxtpx:TrackPointExtension xmlns:gpxtpx="http://www.garmin.com/xmlschemas/TrackPointExtension/v1">
            <gpxtpx:hr>107</gpxtpx:hr>
          </gpxtpx:TrackPointExtension>
        </extensions>
      </trkpt>
      <trkpt lat="48.6136" lon="2.08986">
        <ele>139.2</ele>
        <time>2023-03-05T16:24:32Z</time>
        <extensions>
          <gpxtpx:TrackPointExtension xmlns:gpxtpx="http://www.garmin.com/xmlschemas/TrackPointExtension/v1">
            <gpxtpx:hr>107</gpxtpx:hr>
          </gpxtpx:TrackPointExtension>
        </extensions>
      </trkpt>
      <trkpt lat="48.61358" lon="2.08991">
        <ele>139</ele>
        <time>2023-03-05T16:24:34Z</time>
        <extensions>
          <gpxtpx:TrackPointExtension xmlns:gpxtpx="http://www.garmin.com/xmlschemas/TrackPointExtension/v1">
            <gpxtpx:hr>107</gpxtpx:hr>
          </gpxtpx:TrackPointExtension>
        </extensions>
      </trkpt>
      <trkpt lat="48.61357" lon="2.08993">
        <ele>139</ele>
        <time>2023-03-05T16:24:35Z</time>
        <extensions>
          <gpxtpx:TrackPointExtension xmlns:gpxtpx="http://www.garmin.com/xmlschemas/TrackPointExtension/v1">
            <gpxtpx:hr>107</gpxtpx:hr>
          </gpxtpx:TrackPointExtension>
        </extensions>
      </trkpt>
      <trkpt lat="48.61356" lon="2.08998">
        <ele>139.2</ele>
        <time>2023-03-05T16:24:37Z</time>
        <extensions>
          <gpxtpx:TrackPointExtension xmlns:gpxtpx="http://www.garmin.com/xmlschemas/TrackPointExtension/v1">
            <gpxtpx:hr>107</gpxtpx:hr>
          </gpxtpx:TrackPointExtension>
        </extensions>
      </trkpt>
      <trkpt lat="48.61355" lon="2.09003">
        <ele>139.2</ele>
        <time>2023-03-05T16:24:39Z</time>
        <extensions>
          <gpxtpx:TrackPointExtension xmlns:gpxtpx="http://www.garmin.com/xmlschemas/TrackPointExtension/v1">
            <gpxtpx:hr>107</gpxtpx:hr>
          </gpxtpx:TrackPointExtension>
        </extensions>
      </trkpt>
      <trkpt lat="48.61354" lon="2.09008">
        <ele>139.2</ele>
        <time>2023-03-05T16:24:41Z</time>
        <extensions>
          <gpxtpx:TrackPointExtension xmlns:gpxtpx="http://www.garmin.com/xmlschemas/TrackPointExtension/v1">
            <gpxtpx:hr>107</gpxtpx:hr>
          </gpxtpx:TrackPointExtension>
        </extensions>
      </trkpt>
      <trkpt lat="48.61353" lon="2.09013">
        <ele>139.2</ele>
        <time>2023-03-05T16:24:43Z</time>
        <extensions>
          <gpxtpx:TrackPointExtension xmlns:gpxtpx="http://www.garmin.com/xmlschemas/TrackPointExtension/v1">
            <gpxtpx:hr>107</gpxtpx:hr>
          </gpxtpx:TrackPointExtension>
        </extensions>
      </trkpt>
      <trkpt lat="48.61353" lon="2.09018">
        <ele>139.2</ele>
        <time>2023-03-05T16:24:45Z</time>
        <extensions>
          <gpxtpx:TrackPointExtension xmlns:gpxtpx="http://www.garmin.com/xmlschemas/TrackPointExtension/v1">
            <gpxtpx:hr>107</gpxtpx:hr>
          </gpxtpx:TrackPointExtension>
        </extensions>
      </trkpt>
      <trkpt lat="48.61353" lon="2.09023">
        <ele>139.2</ele>
        <time>2023-03-05T16:24:47Z</time>
        <extensions>
          <gpxtpx:TrackPointExtension xmlns:gpxtpx="http://www.garmin.com/xmlschemas/TrackPointExtension/v1">
            <gpxtpx:hr>107</gpxtpx:hr>
          </gpxtpx:TrackPointExtension>
        </extensions>
      </trkpt>
      <trkpt lat="48.61353" lon="2.09028">
        <ele>139.2</ele>
        <time>2023-03-05T16:24:49Z</time>
        <extensions>
          <gpxtpx:TrackPointExtension xmlns:gpxtpx="http://www.garmin.com/xmlschemas/TrackPointExtension/v1">
            <gpxtpx:hr>107</gpxtpx:hr>
          </gpxtpx:TrackPointExtension>
        </extensions>
      </trkpt>
      <trkpt lat="48.61353" lon="2.09033">
        <ele>139.2</ele>
        <time>2023-03-05T16:24:51Z</time>
        <extensions>
          <gpxtpx:TrackPointExtension xmlns:gpxtpx="http://www.garmin.com/xmlschemas/TrackPointExtension/v1">
            <gpxtpx:hr>107</gpxtpx:hr>
          </gpxtpx:TrackPointExtension>
        </extensions>
      </trkpt>
      <trkpt lat="48.61354" lon="2.09038">
        <ele>139.2</ele>
        <time>2023-03-05T16:24:53Z</time>
        <extensions>
          <gpxtpx:TrackPointExtension xmlns:gpxtpx="http://www.garmin.com/xmlschemas/TrackPointExtension/v1">
            <gpxtpx:hr>107</gpxtpx:hr>
          </gpxtpx:TrackPointExtension>
        </extensions>
      </trkpt>
      <trkpt lat="48.61354" lon="2.09043">
        <ele>139.2</ele>
        <time>2023-03-05T16:24:55Z</time>
        <extensions>
          <gpxtpx:TrackPointExtension xmlns:gpxtpx="http://www.garmin.com/xmlschemas/TrackPointExtension/v1">
            <gpxtpx:hr>107</gpxtpx:hr>
          </gpxtpx:TrackPointExtension>
        </extensions>
      </trkpt>
      <trkpt lat="48.61355" lon="2.09048">
        <ele>139</ele>
        <time>2023-03-05T16:24:57Z</time>
        <extensions>
          <gpxtpx:TrackPointExtension xmlns:gpxtpx="http://www.garmin.com/xmlschemas/TrackPointExtension/v1">
            <gpxtpx:hr>107</gpxtpx:hr>
          </gpxtpx:TrackPointExtension>
        </extensions>
      </trkpt>
      <trkpt lat="48.61355" lon="2.09053">
        <ele>139</ele>
        <time>2023-03-05T16:24:59Z</time>
        <extensions>
          <gpxtpx:TrackPointExtension xmlns:gpxtpx="http://www.garmin.com/xmlschemas/TrackPointExtension/v1">
            <gpxtpx:hr>107</gpxtpx:hr>
          </gpxtpx:TrackPointExtension>
        </extensions>
      </trkpt>
      <trkpt lat="48.61356" lon="2.09058">
        <ele>138.8</ele>
        <time>2023-03-05T16:25:01Z</time>
        <extensions>
          <gpxtpx:TrackPointExtension xmlns:gpxtpx="http://www.garmin.com/xmlschemas/TrackPointExtension/v1">
            <gpxtpx:hr>107</gpxtpx:hr>
          </gpxtpx:TrackPointExtension>
        </extensions>
      </trkpt>
      <trkpt lat="48.61356" lon="2.09063">
        <ele>138.8</ele>
        <time>2023-03-05T16:25:03Z</time>
        <extensions>
          <gpxtpx:TrackPointExtension xmlns:gpxtpx="http://www.garmin.com/xmlschemas/TrackPointExtension/v1">
            <gpxtpx:hr>107</gpxtpx:hr>
          </gpxtpx:TrackPointExtension>
        </extensions>
      </trkpt>
      <trkpt lat="48.61357" lon="2.09069">
        <ele>138.6</ele>
        <time>2023-03-05T16:25:05Z</time>
        <extensions>
          <gpxtpx:TrackPointExtension xmlns:gpxtpx="http://www.garmin.com/xmlschemas/TrackPointExtension/v1">
            <gpxtpx:hr>107</gpxtpx:hr>
          </gpxtpx:TrackPointExtension>
        </extensions>
      </trkpt>
      <trkpt lat="48.61357" lon="2.09074">
        <ele>138.4</ele>
        <time>2023-03-05T16:25:07Z</time>
        <extensions>
          <gpxtpx:TrackPointExtension xmlns:gpxtpx="http://www.garmin.com/xmlschemas/TrackPointExtension/v1">
            <gpxtpx:hr>107</gpxtpx:hr>
          </gpxtpx:TrackPointExtension>
        </extensions>
      </trkpt>
      <trkpt lat="48.61358" lon="2.09079">
        <ele>138.4</ele>
        <time>2023-03-05T16:25:09Z</time>
        <extensions>
          <gpxtpx:TrackPointExtension xmlns:gpxtpx="http://www.garmin.com/xmlschemas/TrackPointExtension/v1">
            <gpxtpx:hr>107</gpxtpx:hr>
          </gpxtpx:TrackPointExtension>
        </extensions>
      </trkpt>
      <trkpt lat="48.61359" lon="2.09084">
        <ele>138.6</ele>
        <time>2023-03-05T16:25:11Z</time>
        <extensions>
          <gpxtpx:TrackPointExtension xmlns:gpxtpx="http://www.garmin.com/xmlschemas/TrackPointExtension/v1">
            <gpxtpx:hr>107</gpxtpx:hr>
          </gpxtpx:TrackPointExtension>
        </extensions>
      </trkpt>
      <trkpt lat="48.6136" lon="2.09089">
        <ele>138.4</ele>
        <time>2023-03-05T16:25:13Z</time>
        <extensions>
          <gpxtpx:TrackPointExtension xmlns:gpxtpx="http://www.garmin.com/xmlschemas/TrackPointExtension/v1">
            <gpxtpx:hr>107</gpxtpx:hr>
          </gpxtpx:TrackPointExtension>
        </extensions>
      </trkpt>
      <trkpt lat="48.61361" lon="2.09095">
        <ele>138.4</ele>
        <time>2023-03-05T16:25:15Z</time>
        <extensions>
          <gpxtpx:TrackPointExtension xmlns:gpxtpx="http://www.garmin.com/xmlschemas/TrackPointExtension/v1">
            <gpxtpx:hr>107</gpxtpx:hr>
          </gpxtpx:TrackPointExtension>
        </extensions>
      </trkpt>
      <trkpt lat="48.61362" lon="2.091">
        <ele>138.2</ele>
        <time>2023-03-05T16:25:17Z</time>
        <extensions>
          <gpxtpx:TrackPointExtension xmlns:gpxtpx="http://www.garmin.com/xmlschemas/TrackPointExtension/v1">
            <gpxtpx:hr>106</gpxtpx:hr>
          </gpxtpx:TrackPointExtension>
        </extensions>
      </trkpt>
      <trkpt lat="48.61363" lon="2.09105">
        <ele>138.2</ele>
        <time>2023-03-05T16:25:19Z</time>
        <extensions>
          <gpxtpx:TrackPointExtension xmlns:gpxtpx="http://www.garmin.com/xmlschemas/TrackPointExtension/v1">
            <gpxtpx:hr>107</gpxtpx:hr>
          </gpxtpx:TrackPointExtension>
        </extensions>
      </trkpt>
      <trkpt lat="48.61363" lon="2.0911">
        <ele>138</ele>
        <time>2023-03-05T16:25:21Z</time>
        <extensions>
          <gpxtpx:TrackPointExtension xmlns:gpxtpx="http://www.garmin.com/xmlschemas/TrackPointExtension/v1">
            <gpxtpx:hr>106</gpxtpx:hr>
          </gpxtpx:TrackPointExtension>
        </extensions>
      </trkpt>
      <trkpt lat="48.61364" lon="2.09115">
        <ele>138</ele>
        <time>2023-03-05T16:25:23Z</time>
        <extensions>
          <gpxtpx:TrackPointExtension xmlns:gpxtpx="http://www.garmin.com/xmlschemas/TrackPointExtension/v1">
            <gpxtpx:hr>106</gpxtpx:hr>
          </gpxtpx:TrackPointExtension>
        </extensions>
      </trkpt>
      <trkpt lat="48.61364" lon="2.09117">
        <ele>137.8</ele>
        <time>2023-03-05T16:25:24Z</time>
        <extensions>
          <gpxtpx:TrackPointExtension xmlns:gpxtpx="http://www.garmin.com/xmlschemas/TrackPointExtension/v1">
            <gpxtpx:hr>106</gpxtpx:hr>
          </gpxtpx:TrackPointExtension>
        </extensions>
      </trkpt>
      <trkpt lat="48.61365" lon="2.09123">
        <ele>137.8</ele>
        <time>2023-03-05T16:25:26Z</time>
        <extensions>
          <gpxtpx:TrackPointExtension xmlns:gpxtpx="http://www.garmin.com/xmlschemas/TrackPointExtension/v1">
            <gpxtpx:hr>106</gpxtpx:hr>
          </gpxtpx:TrackPointExtension>
        </extensions>
      </trkpt>
      <trkpt lat="48.61365" lon="2.09128">
        <ele>137.6</ele>
        <time>2023-03-05T16:25:28Z</time>
        <extensions>
          <gpxtpx:TrackPointExtension xmlns:gpxtpx="http://www.garmin.com/xmlschemas/TrackPointExtension/v1">
            <gpxtpx:hr>106</gpxtpx:hr>
          </gpxtpx:TrackPointExtension>
        </extensions>
      </trkpt>
      <trkpt lat="48.61366" lon="2.09133">
        <ele>137.6</ele>
        <time>2023-03-05T16:25:30Z</time>
        <extensions>
          <gpxtpx:TrackPointExtension xmlns:gpxtpx="http://www.garmin.com/xmlschemas/TrackPointExtension/v1">
            <gpxtpx:hr>106</gpxtpx:hr>
          </gpxtpx:TrackPointExtension>
        </extensions>
      </trkpt>
      <trkpt lat="48.61367" lon="2.09138">
        <ele>137.4</ele>
        <time>2023-03-05T16:25:32Z</time>
        <extensions>
          <gpxtpx:TrackPointExtension xmlns:gpxtpx="http://www.garmin.com/xmlschemas/TrackPointExtension/v1">
            <gpxtpx:hr>106</gpxtpx:hr>
          </gpxtpx:TrackPointExtension>
        </extensions>
      </trkpt>
      <trkpt lat="48.61367" lon="2.09143">
        <ele>137.4</ele>
        <time>2023-03-05T16:25:34Z</time>
        <extensions>
          <gpxtpx:TrackPointExtension xmlns:gpxtpx="http://www.garmin.com/xmlschemas/TrackPointExtension/v1">
            <gpxtpx:hr>106</gpxtpx:hr>
          </gpxtpx:TrackPointExtension>
        </extensions>
      </trkpt>
      <trkpt lat="48.61368" lon="2.09148">
        <ele>137.4</ele>
        <time>2023-03-05T16:25:36Z</time>
        <extensions>
          <gpxtpx:TrackPointExtension xmlns:gpxtpx="http://www.garmin.com/xmlschemas/TrackPointExtension/v1">
            <gpxtpx:hr>106</gpxtpx:hr>
          </gpxtpx:TrackPointExtension>
        </extensions>
      </trkpt>
      <trkpt lat="48.61369" lon="2.09152">
        <ele>137.4</ele>
        <time>2023-03-05T16:25:38Z</time>
        <extensions>
          <gpxtpx:TrackPointExtension xmlns:gpxtpx="http://www.garmin.com/xmlschemas/TrackPointExtension/v1">
            <gpxtpx:hr>106</gpxtpx:hr>
          </gpxtpx:TrackPointExtension>
        </extensions>
      </trkpt>
      <trkpt lat="48.6137" lon="2.09157">
        <ele>137.4</ele>
        <time>2023-03-05T16:25:40Z</time>
        <extensions>
          <gpxtpx:TrackPointExtension xmlns:gpxtpx="http://www.garmin.com/xmlschemas/TrackPointExtension/v1">
            <gpxtpx:hr>106</gpxtpx:hr>
          </gpxtpx:TrackPointExtension>
        </extensions>
      </trkpt>
      <trkpt lat="48.61371" lon="2.09162">
        <ele>137.4</ele>
        <time>2023-03-05T16:25:42Z</time>
        <extensions>
          <gpxtpx:TrackPointExtension xmlns:gpxtpx="http://www.garmin.com/xmlschemas/TrackPointExtension/v1">
            <gpxtpx:hr>106</gpxtpx:hr>
          </gpxtpx:TrackPointExtension>
        </extensions>
      </trkpt>
      <trkpt lat="48.61371" lon="2.09167">
        <ele>137.2</ele>
        <time>2023-03-05T16:25:44Z</time>
        <extensions>
          <gpxtpx:TrackPointExtension xmlns:gpxtpx="http://www.garmin.com/xmlschemas/TrackPointExtension/v1">
            <gpxtpx:hr>106</gpxtpx:hr>
          </gpxtpx:TrackPointExtension>
        </extensions>
      </trkpt>
      <trkpt lat="48.61372" lon="2.09172">
        <ele>137</ele>
        <time>2023-03-05T16:25:46Z</time>
        <extensions>
          <gpxtpx:TrackPointExtension xmlns:gpxtpx="http://www.garmin.com/xmlschemas/TrackPointExtension/v1">
            <gpxtpx:hr>106</gpxtpx:hr>
          </gpxtpx:TrackPointExtension>
        </extensions>
      </trkpt>
      <trkpt lat="48.61372" lon="2.09177">
        <ele>137</ele>
        <time>2023-03-05T16:25:48Z</time>
        <extensions>
          <gpxtpx:TrackPointExtension xmlns:gpxtpx="http://www.garmin.com/xmlschemas/TrackPointExtension/v1">
            <gpxtpx:hr>107</gpxtpx:hr>
          </gpxtpx:TrackPointExtension>
        </extensions>
      </trkpt>
      <trkpt lat="48.61373" lon="2.09181">
        <ele>136.8</ele>
        <time>2023-03-05T16:25:50Z</time>
        <extensions>
          <gpxtpx:TrackPointExtension xmlns:gpxtpx="http://www.garmin.com/xmlschemas/TrackPointExtension/v1">
            <gpxtpx:hr>107</gpxtpx:hr>
          </gpxtpx:TrackPointExtension>
        </extensions>
      </trkpt>
      <trkpt lat="48.61373" lon="2.09185">
        <ele>136.8</ele>
        <time>2023-03-05T16:25:52Z</time>
        <extensions>
          <gpxtpx:TrackPointExtension xmlns:gpxtpx="http://www.garmin.com/xmlschemas/TrackPointExtension/v1">
            <gpxtpx:hr>107</gpxtpx:hr>
          </gpxtpx:TrackPointExtension>
        </extensions>
      </trkpt>
      <trkpt lat="48.61374" lon="2.0919">
        <ele>136.6</ele>
        <time>2023-03-05T16:25:54Z</time>
        <extensions>
          <gpxtpx:TrackPointExtension xmlns:gpxtpx="http://www.garmin.com/xmlschemas/TrackPointExtension/v1">
            <gpxtpx:hr>105</gpxtpx:hr>
          </gpxtpx:TrackPointExtension>
        </extensions>
      </trkpt>
      <trkpt lat="48.61375" lon="2.09194">
        <ele>136.4</ele>
        <time>2023-03-05T16:25:56Z</time>
        <extensions>
          <gpxtpx:TrackPointExtension xmlns:gpxtpx="http://www.garmin.com/xmlschemas/TrackPointExtension/v1">
            <gpxtpx:hr>105</gpxtpx:hr>
          </gpxtpx:TrackPointExtension>
        </extensions>
      </trkpt>
      <trkpt lat="48.61375" lon="2.09198">
        <ele>136.4</ele>
        <time>2023-03-05T16:25:58Z</time>
        <extensions>
          <gpxtpx:TrackPointExtension xmlns:gpxtpx="http://www.garmin.com/xmlschemas/TrackPointExtension/v1">
            <gpxtpx:hr>105</gpxtpx:hr>
          </gpxtpx:TrackPointExtension>
        </extensions>
      </trkpt>
      <trkpt lat="48.61376" lon="2.09203">
        <ele>136.2</ele>
        <time>2023-03-05T16:26:00Z</time>
        <extensions>
          <gpxtpx:TrackPointExtension xmlns:gpxtpx="http://www.garmin.com/xmlschemas/TrackPointExtension/v1">
            <gpxtpx:hr>105</gpxtpx:hr>
          </gpxtpx:TrackPointExtension>
        </extensions>
      </trkpt>
      <trkpt lat="48.61377" lon="2.09207">
        <ele>136.2</ele>
        <time>2023-03-05T16:26:02Z</time>
        <extensions>
          <gpxtpx:TrackPointExtension xmlns:gpxtpx="http://www.garmin.com/xmlschemas/TrackPointExtension/v1">
            <gpxtpx:hr>105</gpxtpx:hr>
          </gpxtpx:TrackPointExtension>
        </extensions>
      </trkpt>
      <trkpt lat="48.61379" lon="2.09211">
        <ele>136</ele>
        <time>2023-03-05T16:26:04Z</time>
        <extensions>
          <gpxtpx:TrackPointExtension xmlns:gpxtpx="http://www.garmin.com/xmlschemas/TrackPointExtension/v1">
            <gpxtpx:hr>105</gpxtpx:hr>
          </gpxtpx:TrackPointExtension>
        </extensions>
      </trkpt>
      <trkpt lat="48.61381" lon="2.09213">
        <ele>136</ele>
        <time>2023-03-05T16:26:06Z</time>
        <extensions>
          <gpxtpx:TrackPointExtension xmlns:gpxtpx="http://www.garmin.com/xmlschemas/TrackPointExtension/v1">
            <gpxtpx:hr>105</gpxtpx:hr>
          </gpxtpx:TrackPointExtension>
        </extensions>
      </trkpt>
      <trkpt lat="48.61386" lon="2.09215">
        <ele>136</ele>
        <time>2023-03-05T16:26:10Z</time>
        <extensions>
          <gpxtpx:TrackPointExtension xmlns:gpxtpx="http://www.garmin.com/xmlschemas/TrackPointExtension/v1">
            <gpxtpx:hr>105</gpxtpx:hr>
          </gpxtpx:TrackPointExtension>
        </extensions>
      </trkpt>
      <trkpt lat="48.61388" lon="2.09215">
        <ele>135.6</ele>
        <time>2023-03-05T16:26:14Z</time>
        <extensions>
          <gpxtpx:TrackPointExtension xmlns:gpxtpx="http://www.garmin.com/xmlschemas/TrackPointExtension/v1">
            <gpxtpx:hr>104</gpxtpx:hr>
          </gpxtpx:TrackPointExtension>
        </extensions>
      </trkpt>
      <trkpt lat="48.6139" lon="2.09215">
        <ele>134.6</ele>
        <time>2023-03-05T16:26:50Z</time>
        <extensions>
          <gpxtpx:TrackPointExtension xmlns:gpxtpx="http://www.garmin.com/xmlschemas/TrackPointExtension/v1">
            <gpxtpx:hr>101</gpxtpx:hr>
          </gpxtpx:TrackPointExtension>
        </extensions>
      </trkpt>
      <trkpt lat="48.61392" lon="2.09213">
        <ele>134.6</ele>
        <time>2023-03-05T16:26:52Z</time>
        <extensions>
          <gpxtpx:TrackPointExtension xmlns:gpxtpx="http://www.garmin.com/xmlschemas/TrackPointExtension/v1">
            <gpxtpx:hr>101</gpxtpx:hr>
          </gpxtpx:TrackPointExtension>
        </extensions>
      </trkpt>
      <trkpt lat="48.61395" lon="2.0921">
        <ele>134.8</ele>
        <time>2023-03-05T16:26:54Z</time>
        <extensions>
          <gpxtpx:TrackPointExtension xmlns:gpxtpx="http://www.garmin.com/xmlschemas/TrackPointExtension/v1">
            <gpxtpx:hr>101</gpxtpx:hr>
          </gpxtpx:TrackPointExtension>
        </extensions>
      </trkpt>
      <trkpt lat="48.61397" lon="2.09209">
        <ele>134.8</ele>
        <time>2023-03-05T16:26:55Z</time>
        <extensions>
          <gpxtpx:TrackPointExtension xmlns:gpxtpx="http://www.garmin.com/xmlschemas/TrackPointExtension/v1">
            <gpxtpx:hr>102</gpxtpx:hr>
          </gpxtpx:TrackPointExtension>
        </extensions>
      </trkpt>
      <trkpt lat="48.61399" lon="2.09207">
        <ele>134.8</ele>
        <time>2023-03-05T16:26:56Z</time>
        <extensions>
          <gpxtpx:TrackPointExtension xmlns:gpxtpx="http://www.garmin.com/xmlschemas/TrackPointExtension/v1">
            <gpxtpx:hr>102</gpxtpx:hr>
          </gpxtpx:TrackPointExtension>
        </extensions>
      </trkpt>
      <trkpt lat="48.61401" lon="2.09206">
        <ele>134.8</ele>
        <time>2023-03-05T16:26:57Z</time>
        <extensions>
          <gpxtpx:TrackPointExtension xmlns:gpxtpx="http://www.garmin.com/xmlschemas/TrackPointExtension/v1">
            <gpxtpx:hr>102</gpxtpx:hr>
          </gpxtpx:TrackPointExtension>
        </extensions>
      </trkpt>
      <trkpt lat="48.61403" lon="2.09204">
        <ele>134.8</ele>
        <time>2023-03-05T16:26:58Z</time>
        <extensions>
          <gpxtpx:TrackPointExtension xmlns:gpxtpx="http://www.garmin.com/xmlschemas/TrackPointExtension/v1">
            <gpxtpx:hr>102</gpxtpx:hr>
          </gpxtpx:TrackPointExtension>
        </extensions>
      </trkpt>
      <trkpt lat="48.61405" lon="2.09203">
        <ele>134.8</ele>
        <time>2023-03-05T16:26:59Z</time>
        <extensions>
          <gpxtpx:TrackPointExtension xmlns:gpxtpx="http://www.garmin.com/xmlschemas/TrackPointExtension/v1">
            <gpxtpx:hr>102</gpxtpx:hr>
          </gpxtpx:TrackPointExtension>
        </extensions>
      </trkpt>
      <trkpt lat="48.61407" lon="2.09202">
        <ele>134.8</ele>
        <time>2023-03-05T16:27:00Z</time>
        <extensions>
          <gpxtpx:TrackPointExtension xmlns:gpxtpx="http://www.garmin.com/xmlschemas/TrackPointExtension/v1">
            <gpxtpx:hr>102</gpxtpx:hr>
          </gpxtpx:TrackPointExtension>
        </extensions>
      </trkpt>
      <trkpt lat="48.6141" lon="2.092">
        <ele>134.8</ele>
        <time>2023-03-05T16:27:02Z</time>
        <extensions>
          <gpxtpx:TrackPointExtension xmlns:gpxtpx="http://www.garmin.com/xmlschemas/TrackPointExtension/v1">
            <gpxtpx:hr>103</gpxtpx:hr>
          </gpxtpx:TrackPointExtension>
        </extensions>
      </trkpt>
      <trkpt lat="48.61413" lon="2.09199">
        <ele>134.8</ele>
        <time>2023-03-05T16:27:04Z</time>
        <extensions>
          <gpxtpx:TrackPointExtension xmlns:gpxtpx="http://www.garmin.com/xmlschemas/TrackPointExtension/v1">
            <gpxtpx:hr>103</gpxtpx:hr>
          </gpxtpx:TrackPointExtension>
        </extensions>
      </trkpt>
      <trkpt lat="48.61416" lon="2.09198">
        <ele>134.8</ele>
        <time>2023-03-05T16:27:06Z</time>
        <extensions>
          <gpxtpx:TrackPointExtension xmlns:gpxtpx="http://www.garmin.com/xmlschemas/TrackPointExtension/v1">
            <gpxtpx:hr>103</gpxtpx:hr>
          </gpxtpx:TrackPointExtension>
        </extensions>
      </trkpt>
      <trkpt lat="48.61419" lon="2.09197">
        <ele>134.8</ele>
        <time>2023-03-05T16:27:08Z</time>
        <extensions>
          <gpxtpx:TrackPointExtension xmlns:gpxtpx="http://www.garmin.com/xmlschemas/TrackPointExtension/v1">
            <gpxtpx:hr>104</gpxtpx:hr>
          </gpxtpx:TrackPointExtension>
        </extensions>
      </trkpt>
      <trkpt lat="48.61421" lon="2.09196">
        <ele>134.8</ele>
        <time>2023-03-05T16:27:09Z</time>
        <extensions>
          <gpxtpx:TrackPointExtension xmlns:gpxtpx="http://www.garmin.com/xmlschemas/TrackPointExtension/v1">
            <gpxtpx:hr>104</gpxtpx:hr>
          </gpxtpx:TrackPointExtension>
        </extensions>
      </trkpt>
      <trkpt lat="48.61425" lon="2.09195">
        <ele>134.8</ele>
        <time>2023-03-05T16:27:11Z</time>
        <extensions>
          <gpxtpx:TrackPointExtension xmlns:gpxtpx="http://www.garmin.com/xmlschemas/TrackPointExtension/v1">
            <gpxtpx:hr>104</gpxtpx:hr>
          </gpxtpx:TrackPointExtension>
        </extensions>
      </trkpt>
      <trkpt lat="48.61428" lon="2.09195">
        <ele>135</ele>
        <time>2023-03-05T16:27:13Z</time>
        <extensions>
          <gpxtpx:TrackPointExtension xmlns:gpxtpx="http://www.garmin.com/xmlschemas/TrackPointExtension/v1">
            <gpxtpx:hr>104</gpxtpx:hr>
          </gpxtpx:TrackPointExtension>
        </extensions>
      </trkpt>
      <trkpt lat="48.61431" lon="2.09194">
        <ele>135</ele>
        <time>2023-03-05T16:27:15Z</time>
        <extensions>
          <gpxtpx:TrackPointExtension xmlns:gpxtpx="http://www.garmin.com/xmlschemas/TrackPointExtension/v1">
            <gpxtpx:hr>104</gpxtpx:hr>
          </gpxtpx:TrackPointExtension>
        </extensions>
      </trkpt>
      <trkpt lat="48.61435" lon="2.09194">
        <ele>135</ele>
        <time>2023-03-05T16:27:17Z</time>
        <extensions>
          <gpxtpx:TrackPointExtension xmlns:gpxtpx="http://www.garmin.com/xmlschemas/TrackPointExtension/v1">
            <gpxtpx:hr>105</gpxtpx:hr>
          </gpxtpx:TrackPointExtension>
        </extensions>
      </trkpt>
      <trkpt lat="48.61436" lon="2.09194">
        <ele>135</ele>
        <time>2023-03-05T16:27:18Z</time>
        <extensions>
          <gpxtpx:TrackPointExtension xmlns:gpxtpx="http://www.garmin.com/xmlschemas/TrackPointExtension/v1">
            <gpxtpx:hr>105</gpxtpx:hr>
          </gpxtpx:TrackPointExtension>
        </extensions>
      </trkpt>
      <trkpt lat="48.6144" lon="2.09194">
        <ele>135</ele>
        <time>2023-03-05T16:27:20Z</time>
        <extensions>
          <gpxtpx:TrackPointExtension xmlns:gpxtpx="http://www.garmin.com/xmlschemas/TrackPointExtension/v1">
            <gpxtpx:hr>105</gpxtpx:hr>
          </gpxtpx:TrackPointExtension>
        </extensions>
      </trkpt>
      <trkpt lat="48.61443" lon="2.09194">
        <ele>134.8</ele>
        <time>2023-03-05T16:27:22Z</time>
        <extensions>
          <gpxtpx:TrackPointExtension xmlns:gpxtpx="http://www.garmin.com/xmlschemas/TrackPointExtension/v1">
            <gpxtpx:hr>105</gpxtpx:hr>
          </gpxtpx:TrackPointExtension>
        </extensions>
      </trkpt>
      <trkpt lat="48.61446" lon="2.09195">
        <ele>134.8</ele>
        <time>2023-03-05T16:27:24Z</time>
        <extensions>
          <gpxtpx:TrackPointExtension xmlns:gpxtpx="http://www.garmin.com/xmlschemas/TrackPointExtension/v1">
            <gpxtpx:hr>106</gpxtpx:hr>
          </gpxtpx:TrackPointExtension>
        </extensions>
      </trkpt>
      <trkpt lat="48.61449" lon="2.09195">
        <ele>134.6</ele>
        <time>2023-03-05T16:27:26Z</time>
        <extensions>
          <gpxtpx:TrackPointExtension xmlns:gpxtpx="http://www.garmin.com/xmlschemas/TrackPointExtension/v1">
            <gpxtpx:hr>106</gpxtpx:hr>
          </gpxtpx:TrackPointExtension>
        </extensions>
      </trkpt>
      <trkpt lat="48.61452" lon="2.09196">
        <ele>134.6</ele>
        <time>2023-03-05T16:27:28Z</time>
        <extensions>
          <gpxtpx:TrackPointExtension xmlns:gpxtpx="http://www.garmin.com/xmlschemas/TrackPointExtension/v1">
            <gpxtpx:hr>106</gpxtpx:hr>
          </gpxtpx:TrackPointExtension>
        </extensions>
      </trkpt>
      <trkpt lat="48.61455" lon="2.09197">
        <ele>134.6</ele>
        <time>2023-03-05T16:27:30Z</time>
        <extensions>
          <gpxtpx:TrackPointExtension xmlns:gpxtpx="http://www.garmin.com/xmlschemas/TrackPointExtension/v1">
            <gpxtpx:hr>105</gpxtpx:hr>
          </gpxtpx:TrackPointExtension>
        </extensions>
      </trkpt>
      <trkpt lat="48.61458" lon="2.09198">
        <ele>134.6</ele>
        <time>2023-03-05T16:27:32Z</time>
        <extensions>
          <gpxtpx:TrackPointExtension xmlns:gpxtpx="http://www.garmin.com/xmlschemas/TrackPointExtension/v1">
            <gpxtpx:hr>106</gpxtpx:hr>
          </gpxtpx:TrackPointExtension>
        </extensions>
      </trkpt>
      <trkpt lat="48.6146" lon="2.09199">
        <ele>134.8</ele>
        <time>2023-03-05T16:27:34Z</time>
        <extensions>
          <gpxtpx:TrackPointExtension xmlns:gpxtpx="http://www.garmin.com/xmlschemas/TrackPointExtension/v1">
            <gpxtpx:hr>106</gpxtpx:hr>
          </gpxtpx:TrackPointExtension>
        </extensions>
      </trkpt>
      <trkpt lat="48.61462" lon="2.09202">
        <ele>134.8</ele>
        <time>2023-03-05T16:27:36Z</time>
        <extensions>
          <gpxtpx:TrackPointExtension xmlns:gpxtpx="http://www.garmin.com/xmlschemas/TrackPointExtension/v1">
            <gpxtpx:hr>106</gpxtpx:hr>
          </gpxtpx:TrackPointExtension>
        </extensions>
      </trkpt>
      <trkpt lat="48.61463" lon="2.09206">
        <ele>134.6</ele>
        <time>2023-03-05T16:27:38Z</time>
        <extensions>
          <gpxtpx:TrackPointExtension xmlns:gpxtpx="http://www.garmin.com/xmlschemas/TrackPointExtension/v1">
            <gpxtpx:hr>106</gpxtpx:hr>
          </gpxtpx:TrackPointExtension>
        </extensions>
      </trkpt>
      <trkpt lat="48.61464" lon="2.0921">
        <ele>134.6</ele>
        <time>2023-03-05T16:27:40Z</time>
        <extensions>
          <gpxtpx:TrackPointExtension xmlns:gpxtpx="http://www.garmin.com/xmlschemas/TrackPointExtension/v1">
            <gpxtpx:hr>106</gpxtpx:hr>
          </gpxtpx:TrackPointExtension>
        </extensions>
      </trkpt>
      <trkpt lat="48.61465" lon="2.09215">
        <ele>134.6</ele>
        <time>2023-03-05T16:27:42Z</time>
        <extensions>
          <gpxtpx:TrackPointExtension xmlns:gpxtpx="http://www.garmin.com/xmlschemas/TrackPointExtension/v1">
            <gpxtpx:hr>107</gpxtpx:hr>
          </gpxtpx:TrackPointExtension>
        </extensions>
      </trkpt>
      <trkpt lat="48.61466" lon="2.09221">
        <ele>134.6</ele>
        <time>2023-03-05T16:27:44Z</time>
        <extensions>
          <gpxtpx:TrackPointExtension xmlns:gpxtpx="http://www.garmin.com/xmlschemas/TrackPointExtension/v1">
            <gpxtpx:hr>107</gpxtpx:hr>
          </gpxtpx:TrackPointExtension>
        </extensions>
      </trkpt>
      <trkpt lat="48.61466" lon="2.09223">
        <ele>134.4</ele>
        <time>2023-03-05T16:27:45Z</time>
        <extensions>
          <gpxtpx:TrackPointExtension xmlns:gpxtpx="http://www.garmin.com/xmlschemas/TrackPointExtension/v1">
            <gpxtpx:hr>107</gpxtpx:hr>
          </gpxtpx:TrackPointExtension>
        </extensions>
      </trkpt>
      <trkpt lat="48.61467" lon="2.09226">
        <ele>134.4</ele>
        <time>2023-03-05T16:27:46Z</time>
        <extensions>
          <gpxtpx:TrackPointExtension xmlns:gpxtpx="http://www.garmin.com/xmlschemas/TrackPointExtension/v1">
            <gpxtpx:hr>107</gpxtpx:hr>
          </gpxtpx:TrackPointExtension>
        </extensions>
      </trkpt>
      <trkpt lat="48.61467" lon="2.09229">
        <ele>134.4</ele>
        <time>2023-03-05T16:27:47Z</time>
        <extensions>
          <gpxtpx:TrackPointExtension xmlns:gpxtpx="http://www.garmin.com/xmlschemas/TrackPointExtension/v1">
            <gpxtpx:hr>107</gpxtpx:hr>
          </gpxtpx:TrackPointExtension>
        </extensions>
      </trkpt>
      <trkpt lat="48.61468" lon="2.09231">
        <ele>134.4</ele>
        <time>2023-03-05T16:27:48Z</time>
        <extensions>
          <gpxtpx:TrackPointExtension xmlns:gpxtpx="http://www.garmin.com/xmlschemas/TrackPointExtension/v1">
            <gpxtpx:hr>107</gpxtpx:hr>
          </gpxtpx:TrackPointExtension>
        </extensions>
      </trkpt>
      <trkpt lat="48.61468" lon="2.09234">
        <ele>134.4</ele>
        <time>2023-03-05T16:27:49Z</time>
        <extensions>
          <gpxtpx:TrackPointExtension xmlns:gpxtpx="http://www.garmin.com/xmlschemas/TrackPointExtension/v1">
            <gpxtpx:hr>107</gpxtpx:hr>
          </gpxtpx:TrackPointExtension>
        </extensions>
      </trkpt>
      <trkpt lat="48.61469" lon="2.09239">
        <ele>134.4</ele>
        <time>2023-03-05T16:27:51Z</time>
        <extensions>
          <gpxtpx:TrackPointExtension xmlns:gpxtpx="http://www.garmin.com/xmlschemas/TrackPointExtension/v1">
            <gpxtpx:hr>107</gpxtpx:hr>
          </gpxtpx:TrackPointExtension>
        </extensions>
      </trkpt>
      <trkpt lat="48.6147" lon="2.09244">
        <ele>134.4</ele>
        <time>2023-03-05T16:27:53Z</time>
        <extensions>
          <gpxtpx:TrackPointExtension xmlns:gpxtpx="http://www.garmin.com/xmlschemas/TrackPointExtension/v1">
            <gpxtpx:hr>107</gpxtpx:hr>
          </gpxtpx:TrackPointExtension>
        </extensions>
      </trkpt>
      <trkpt lat="48.61471" lon="2.09248">
        <ele>134.2</ele>
        <time>2023-03-05T16:27:55Z</time>
        <extensions>
          <gpxtpx:TrackPointExtension xmlns:gpxtpx="http://www.garmin.com/xmlschemas/TrackPointExtension/v1">
            <gpxtpx:hr>107</gpxtpx:hr>
          </gpxtpx:TrackPointExtension>
        </extensions>
      </trkpt>
      <trkpt lat="48.61472" lon="2.09253">
        <ele>134</ele>
        <time>2023-03-05T16:27:57Z</time>
        <extensions>
          <gpxtpx:TrackPointExtension xmlns:gpxtpx="http://www.garmin.com/xmlschemas/TrackPointExtension/v1">
            <gpxtpx:hr>107</gpxtpx:hr>
          </gpxtpx:TrackPointExtension>
        </extensions>
      </trkpt>
      <trkpt lat="48.61473" lon="2.09258">
        <ele>134</ele>
        <time>2023-03-05T16:27:59Z</time>
        <extensions>
          <gpxtpx:TrackPointExtension xmlns:gpxtpx="http://www.garmin.com/xmlschemas/TrackPointExtension/v1">
            <gpxtpx:hr>107</gpxtpx:hr>
          </gpxtpx:TrackPointExtension>
        </extensions>
      </trkpt>
      <trkpt lat="48.61474" lon="2.09262">
        <ele>133.8</ele>
        <time>2023-03-05T16:28:01Z</time>
        <extensions>
          <gpxtpx:TrackPointExtension xmlns:gpxtpx="http://www.garmin.com/xmlschemas/TrackPointExtension/v1">
            <gpxtpx:hr>108</gpxtpx:hr>
          </gpxtpx:TrackPointExtension>
        </extensions>
      </trkpt>
      <trkpt lat="48.61474" lon="2.09267">
        <ele>133.8</ele>
        <time>2023-03-05T16:28:03Z</time>
        <extensions>
          <gpxtpx:TrackPointExtension xmlns:gpxtpx="http://www.garmin.com/xmlschemas/TrackPointExtension/v1">
            <gpxtpx:hr>108</gpxtpx:hr>
          </gpxtpx:TrackPointExtension>
        </extensions>
      </trkpt>
      <trkpt lat="48.61475" lon="2.09271">
        <ele>133.6</ele>
        <time>2023-03-05T16:28:05Z</time>
        <extensions>
          <gpxtpx:TrackPointExtension xmlns:gpxtpx="http://www.garmin.com/xmlschemas/TrackPointExtension/v1">
            <gpxtpx:hr>108</gpxtpx:hr>
          </gpxtpx:TrackPointExtension>
        </extensions>
      </trkpt>
      <trkpt lat="48.61475" lon="2.09276">
        <ele>133.6</ele>
        <time>2023-03-05T16:28:07Z</time>
        <extensions>
          <gpxtpx:TrackPointExtension xmlns:gpxtpx="http://www.garmin.com/xmlschemas/TrackPointExtension/v1">
            <gpxtpx:hr>108</gpxtpx:hr>
          </gpxtpx:TrackPointExtension>
        </extensions>
      </trkpt>
      <trkpt lat="48.61476" lon="2.0928">
        <ele>133.4</ele>
        <time>2023-03-05T16:28:09Z</time>
        <extensions>
          <gpxtpx:TrackPointExtension xmlns:gpxtpx="http://www.garmin.com/xmlschemas/TrackPointExtension/v1">
            <gpxtpx:hr>107</gpxtpx:hr>
          </gpxtpx:TrackPointExtension>
        </extensions>
      </trkpt>
      <trkpt lat="48.61476" lon="2.09285">
        <ele>133.2</ele>
        <time>2023-03-05T16:28:11Z</time>
        <extensions>
          <gpxtpx:TrackPointExtension xmlns:gpxtpx="http://www.garmin.com/xmlschemas/TrackPointExtension/v1">
            <gpxtpx:hr>108</gpxtpx:hr>
          </gpxtpx:TrackPointExtension>
        </extensions>
      </trkpt>
      <trkpt lat="48.61477" lon="2.09289">
        <ele>133</ele>
        <time>2023-03-05T16:28:13Z</time>
        <extensions>
          <gpxtpx:TrackPointExtension xmlns:gpxtpx="http://www.garmin.com/xmlschemas/TrackPointExtension/v1">
            <gpxtpx:hr>107</gpxtpx:hr>
          </gpxtpx:TrackPointExtension>
        </extensions>
      </trkpt>
      <trkpt lat="48.61478" lon="2.09294">
        <ele>133</ele>
        <time>2023-03-05T16:28:15Z</time>
        <extensions>
          <gpxtpx:TrackPointExtension xmlns:gpxtpx="http://www.garmin.com/xmlschemas/TrackPointExtension/v1">
            <gpxtpx:hr>107</gpxtpx:hr>
          </gpxtpx:TrackPointExtension>
        </extensions>
      </trkpt>
      <trkpt lat="48.61479" lon="2.09298">
        <ele>133</ele>
        <time>2023-03-05T16:28:17Z</time>
        <extensions>
          <gpxtpx:TrackPointExtension xmlns:gpxtpx="http://www.garmin.com/xmlschemas/TrackPointExtension/v1">
            <gpxtpx:hr>107</gpxtpx:hr>
          </gpxtpx:TrackPointExtension>
        </extensions>
      </trkpt>
      <trkpt lat="48.6148" lon="2.09303">
        <ele>133</ele>
        <time>2023-03-05T16:28:19Z</time>
        <extensions>
          <gpxtpx:TrackPointExtension xmlns:gpxtpx="http://www.garmin.com/xmlschemas/TrackPointExtension/v1">
            <gpxtpx:hr>107</gpxtpx:hr>
          </gpxtpx:TrackPointExtension>
        </extensions>
      </trkpt>
      <trkpt lat="48.61481" lon="2.09307">
        <ele>133</ele>
        <time>2023-03-05T16:28:21Z</time>
        <extensions>
          <gpxtpx:TrackPointExtension xmlns:gpxtpx="http://www.garmin.com/xmlschemas/TrackPointExtension/v1">
            <gpxtpx:hr>107</gpxtpx:hr>
          </gpxtpx:TrackPointExtension>
        </extensions>
      </trkpt>
      <trkpt lat="48.61482" lon="2.09312">
        <ele>133</ele>
        <time>2023-03-05T16:28:23Z</time>
        <extensions>
          <gpxtpx:TrackPointExtension xmlns:gpxtpx="http://www.garmin.com/xmlschemas/TrackPointExtension/v1">
            <gpxtpx:hr>107</gpxtpx:hr>
          </gpxtpx:TrackPointExtension>
        </extensions>
      </trkpt>
      <trkpt lat="48.61484" lon="2.09316">
        <ele>133</ele>
        <time>2023-03-05T16:28:25Z</time>
        <extensions>
          <gpxtpx:TrackPointExtension xmlns:gpxtpx="http://www.garmin.com/xmlschemas/TrackPointExtension/v1">
            <gpxtpx:hr>107</gpxtpx:hr>
          </gpxtpx:TrackPointExtension>
        </extensions>
      </trkpt>
      <trkpt lat="48.61484" lon="2.09321">
        <ele>132.8</ele>
        <time>2023-03-05T16:28:27Z</time>
        <extensions>
          <gpxtpx:TrackPointExtension xmlns:gpxtpx="http://www.garmin.com/xmlschemas/TrackPointExtension/v1">
            <gpxtpx:hr>106</gpxtpx:hr>
          </gpxtpx:TrackPointExtension>
        </extensions>
      </trkpt>
      <trkpt lat="48.61486" lon="2.09326">
        <ele>132.8</ele>
        <time>2023-03-05T16:28:29Z</time>
        <extensions>
          <gpxtpx:TrackPointExtension xmlns:gpxtpx="http://www.garmin.com/xmlschemas/TrackPointExtension/v1">
            <gpxtpx:hr>105</gpxtpx:hr>
          </gpxtpx:TrackPointExtension>
        </extensions>
      </trkpt>
      <trkpt lat="48.61486" lon="2.0933">
        <ele>132.6</ele>
        <time>2023-03-05T16:28:31Z</time>
        <extensions>
          <gpxtpx:TrackPointExtension xmlns:gpxtpx="http://www.garmin.com/xmlschemas/TrackPointExtension/v1">
            <gpxtpx:hr>106</gpxtpx:hr>
          </gpxtpx:TrackPointExtension>
        </extensions>
      </trkpt>
      <trkpt lat="48.61487" lon="2.09335">
        <ele>132.6</ele>
        <time>2023-03-05T16:28:33Z</time>
        <extensions>
          <gpxtpx:TrackPointExtension xmlns:gpxtpx="http://www.garmin.com/xmlschemas/TrackPointExtension/v1">
            <gpxtpx:hr>106</gpxtpx:hr>
          </gpxtpx:TrackPointExtension>
        </extensions>
      </trkpt>
      <trkpt lat="48.61488" lon="2.09339">
        <ele>132.4</ele>
        <time>2023-03-05T16:28:35Z</time>
        <extensions>
          <gpxtpx:TrackPointExtension xmlns:gpxtpx="http://www.garmin.com/xmlschemas/TrackPointExtension/v1">
            <gpxtpx:hr>106</gpxtpx:hr>
          </gpxtpx:TrackPointExtension>
        </extensions>
      </trkpt>
      <trkpt lat="48.6149" lon="2.09344">
        <ele>132.2</ele>
        <time>2023-03-05T16:28:37Z</time>
        <extensions>
          <gpxtpx:TrackPointExtension xmlns:gpxtpx="http://www.garmin.com/xmlschemas/TrackPointExtension/v1">
            <gpxtpx:hr>106</gpxtpx:hr>
          </gpxtpx:TrackPointExtension>
        </extensions>
      </trkpt>
      <trkpt lat="48.61491" lon="2.09348">
        <ele>132.2</ele>
        <time>2023-03-05T16:28:39Z</time>
        <extensions>
          <gpxtpx:TrackPointExtension xmlns:gpxtpx="http://www.garmin.com/xmlschemas/TrackPointExtension/v1">
            <gpxtpx:hr>105</gpxtpx:hr>
          </gpxtpx:TrackPointExtension>
        </extensions>
      </trkpt>
      <trkpt lat="48.61492" lon="2.0935">
        <ele>132.2</ele>
        <time>2023-03-05T16:28:40Z</time>
        <extensions>
          <gpxtpx:TrackPointExtension xmlns:gpxtpx="http://www.garmin.com/xmlschemas/TrackPointExtension/v1">
            <gpxtpx:hr>105</gpxtpx:hr>
          </gpxtpx:TrackPointExtension>
        </extensions>
      </trkpt>
      <trkpt lat="48.61492" lon="2.09355">
        <ele>132</ele>
        <time>2023-03-05T16:28:42Z</time>
        <extensions>
          <gpxtpx:TrackPointExtension xmlns:gpxtpx="http://www.garmin.com/xmlschemas/TrackPointExtension/v1">
            <gpxtpx:hr>105</gpxtpx:hr>
          </gpxtpx:TrackPointExtension>
        </extensions>
      </trkpt>
      <trkpt lat="48.61493" lon="2.0936">
        <ele>132</ele>
        <time>2023-03-05T16:28:44Z</time>
        <extensions>
          <gpxtpx:TrackPointExtension xmlns:gpxtpx="http://www.garmin.com/xmlschemas/TrackPointExtension/v1">
            <gpxtpx:hr>105</gpxtpx:hr>
          </gpxtpx:TrackPointExtension>
        </extensions>
      </trkpt>
      <trkpt lat="48.61494" lon="2.09364">
        <ele>131.8</ele>
        <time>2023-03-05T16:28:46Z</time>
        <extensions>
          <gpxtpx:TrackPointExtension xmlns:gpxtpx="http://www.garmin.com/xmlschemas/TrackPointExtension/v1">
            <gpxtpx:hr>106</gpxtpx:hr>
          </gpxtpx:TrackPointExtension>
        </extensions>
      </trkpt>
      <trkpt lat="48.61496" lon="2.09369">
        <ele>131.6</ele>
        <time>2023-03-05T16:28:48Z</time>
        <extensions>
          <gpxtpx:TrackPointExtension xmlns:gpxtpx="http://www.garmin.com/xmlschemas/TrackPointExtension/v1">
            <gpxtpx:hr>106</gpxtpx:hr>
          </gpxtpx:TrackPointExtension>
        </extensions>
      </trkpt>
      <trkpt lat="48.61497" lon="2.09374">
        <ele>131.4</ele>
        <time>2023-03-05T16:28:50Z</time>
        <extensions>
          <gpxtpx:TrackPointExtension xmlns:gpxtpx="http://www.garmin.com/xmlschemas/TrackPointExtension/v1">
            <gpxtpx:hr>106</gpxtpx:hr>
          </gpxtpx:TrackPointExtension>
        </extensions>
      </trkpt>
      <trkpt lat="48.61498" lon="2.09379">
        <ele>131.4</ele>
        <time>2023-03-05T16:28:52Z</time>
        <extensions>
          <gpxtpx:TrackPointExtension xmlns:gpxtpx="http://www.garmin.com/xmlschemas/TrackPointExtension/v1">
            <gpxtpx:hr>106</gpxtpx:hr>
          </gpxtpx:TrackPointExtension>
        </extensions>
      </trkpt>
      <trkpt lat="48.61498" lon="2.09383">
        <ele>131.2</ele>
        <time>2023-03-05T16:28:54Z</time>
        <extensions>
          <gpxtpx:TrackPointExtension xmlns:gpxtpx="http://www.garmin.com/xmlschemas/TrackPointExtension/v1">
            <gpxtpx:hr>106</gpxtpx:hr>
          </gpxtpx:TrackPointExtension>
        </extensions>
      </trkpt>
      <trkpt lat="48.61499" lon="2.09387">
        <ele>131</ele>
        <time>2023-03-05T16:28:56Z</time>
        <extensions>
          <gpxtpx:TrackPointExtension xmlns:gpxtpx="http://www.garmin.com/xmlschemas/TrackPointExtension/v1">
            <gpxtpx:hr>106</gpxtpx:hr>
          </gpxtpx:TrackPointExtension>
        </extensions>
      </trkpt>
      <trkpt lat="48.615" lon="2.09392">
        <ele>131</ele>
        <time>2023-03-05T16:28:58Z</time>
        <extensions>
          <gpxtpx:TrackPointExtension xmlns:gpxtpx="http://www.garmin.com/xmlschemas/TrackPointExtension/v1">
            <gpxtpx:hr>106</gpxtpx:hr>
          </gpxtpx:TrackPointExtension>
        </extensions>
      </trkpt>
      <trkpt lat="48.615" lon="2.09396">
        <ele>131</ele>
        <time>2023-03-05T16:29:00Z</time>
        <extensions>
          <gpxtpx:TrackPointExtension xmlns:gpxtpx="http://www.garmin.com/xmlschemas/TrackPointExtension/v1">
            <gpxtpx:hr>107</gpxtpx:hr>
          </gpxtpx:TrackPointExtension>
        </extensions>
      </trkpt>
      <trkpt lat="48.61502" lon="2.094">
        <ele>131.2</ele>
        <time>2023-03-05T16:29:02Z</time>
        <extensions>
          <gpxtpx:TrackPointExtension xmlns:gpxtpx="http://www.garmin.com/xmlschemas/TrackPointExtension/v1">
            <gpxtpx:hr>107</gpxtpx:hr>
          </gpxtpx:TrackPointExtension>
        </extensions>
      </trkpt>
      <trkpt lat="48.61503" lon="2.09404">
        <ele>131</ele>
        <time>2023-03-05T16:29:04Z</time>
        <extensions>
          <gpxtpx:TrackPointExtension xmlns:gpxtpx="http://www.garmin.com/xmlschemas/TrackPointExtension/v1">
            <gpxtpx:hr>107</gpxtpx:hr>
          </gpxtpx:TrackPointExtension>
        </extensions>
      </trkpt>
      <trkpt lat="48.61504" lon="2.09408">
        <ele>131</ele>
        <time>2023-03-05T16:29:06Z</time>
        <extensions>
          <gpxtpx:TrackPointExtension xmlns:gpxtpx="http://www.garmin.com/xmlschemas/TrackPointExtension/v1">
            <gpxtpx:hr>107</gpxtpx:hr>
          </gpxtpx:TrackPointExtension>
        </extensions>
      </trkpt>
      <trkpt lat="48.61504" lon="2.09413">
        <ele>131</ele>
        <time>2023-03-05T16:29:08Z</time>
        <extensions>
          <gpxtpx:TrackPointExtension xmlns:gpxtpx="http://www.garmin.com/xmlschemas/TrackPointExtension/v1">
            <gpxtpx:hr>107</gpxtpx:hr>
          </gpxtpx:TrackPointExtension>
        </extensions>
      </trkpt>
      <trkpt lat="48.61506" lon="2.09417">
        <ele>131</ele>
        <time>2023-03-05T16:29:10Z</time>
        <extensions>
          <gpxtpx:TrackPointExtension xmlns:gpxtpx="http://www.garmin.com/xmlschemas/TrackPointExtension/v1">
            <gpxtpx:hr>107</gpxtpx:hr>
          </gpxtpx:TrackPointExtension>
        </extensions>
      </trkpt>
      <trkpt lat="48.61506" lon="2.09422">
        <ele>131</ele>
        <time>2023-03-05T16:29:12Z</time>
        <extensions>
          <gpxtpx:TrackPointExtension xmlns:gpxtpx="http://www.garmin.com/xmlschemas/TrackPointExtension/v1">
            <gpxtpx:hr>108</gpxtpx:hr>
          </gpxtpx:TrackPointExtension>
        </extensions>
      </trkpt>
      <trkpt lat="48.61508" lon="2.09427">
        <ele>131</ele>
        <time>2023-03-05T16:29:14Z</time>
        <extensions>
          <gpxtpx:TrackPointExtension xmlns:gpxtpx="http://www.garmin.com/xmlschemas/TrackPointExtension/v1">
            <gpxtpx:hr>108</gpxtpx:hr>
          </gpxtpx:TrackPointExtension>
        </extensions>
      </trkpt>
      <trkpt lat="48.61508" lon="2.09431">
        <ele>131</ele>
        <time>2023-03-05T16:29:16Z</time>
        <extensions>
          <gpxtpx:TrackPointExtension xmlns:gpxtpx="http://www.garmin.com/xmlschemas/TrackPointExtension/v1">
            <gpxtpx:hr>108</gpxtpx:hr>
          </gpxtpx:TrackPointExtension>
        </extensions>
      </trkpt>
      <trkpt lat="48.6151" lon="2.09436">
        <ele>131</ele>
        <time>2023-03-05T16:29:18Z</time>
        <extensions>
          <gpxtpx:TrackPointExtension xmlns:gpxtpx="http://www.garmin.com/xmlschemas/TrackPointExtension/v1">
            <gpxtpx:hr>108</gpxtpx:hr>
          </gpxtpx:TrackPointExtension>
        </extensions>
      </trkpt>
      <trkpt lat="48.6151" lon="2.0944">
        <ele>130.8</ele>
        <time>2023-03-05T16:29:20Z</time>
        <extensions>
          <gpxtpx:TrackPointExtension xmlns:gpxtpx="http://www.garmin.com/xmlschemas/TrackPointExtension/v1">
            <gpxtpx:hr>108</gpxtpx:hr>
          </gpxtpx:TrackPointExtension>
        </extensions>
      </trkpt>
      <trkpt lat="48.61511" lon="2.09443">
        <ele>130.8</ele>
        <time>2023-03-05T16:29:21Z</time>
        <extensions>
          <gpxtpx:TrackPointExtension xmlns:gpxtpx="http://www.garmin.com/xmlschemas/TrackPointExtension/v1">
            <gpxtpx:hr>109</gpxtpx:hr>
          </gpxtpx:TrackPointExtension>
        </extensions>
      </trkpt>
      <trkpt lat="48.61512" lon="2.09447">
        <ele>130.8</ele>
        <time>2023-03-05T16:29:23Z</time>
        <extensions>
          <gpxtpx:TrackPointExtension xmlns:gpxtpx="http://www.garmin.com/xmlschemas/TrackPointExtension/v1">
            <gpxtpx:hr>109</gpxtpx:hr>
          </gpxtpx:TrackPointExtension>
        </extensions>
      </trkpt>
      <trkpt lat="48.61513" lon="2.09452">
        <ele>130.8</ele>
        <time>2023-03-05T16:29:25Z</time>
        <extensions>
          <gpxtpx:TrackPointExtension xmlns:gpxtpx="http://www.garmin.com/xmlschemas/TrackPointExtension/v1">
            <gpxtpx:hr>109</gpxtpx:hr>
          </gpxtpx:TrackPointExtension>
        </extensions>
      </trkpt>
      <trkpt lat="48.61514" lon="2.09457">
        <ele>130.6</ele>
        <time>2023-03-05T16:29:27Z</time>
        <extensions>
          <gpxtpx:TrackPointExtension xmlns:gpxtpx="http://www.garmin.com/xmlschemas/TrackPointExtension/v1">
            <gpxtpx:hr>109</gpxtpx:hr>
          </gpxtpx:TrackPointExtension>
        </extensions>
      </trkpt>
      <trkpt lat="48.61514" lon="2.09461">
        <ele>130.6</ele>
        <time>2023-03-05T16:29:29Z</time>
        <extensions>
          <gpxtpx:TrackPointExtension xmlns:gpxtpx="http://www.garmin.com/xmlschemas/TrackPointExtension/v1">
            <gpxtpx:hr>109</gpxtpx:hr>
          </gpxtpx:TrackPointExtension>
        </extensions>
      </trkpt>
      <trkpt lat="48.61515" lon="2.09464">
        <ele>130.6</ele>
        <time>2023-03-05T16:29:30Z</time>
        <extensions>
          <gpxtpx:TrackPointExtension xmlns:gpxtpx="http://www.garmin.com/xmlschemas/TrackPointExtension/v1">
            <gpxtpx:hr>109</gpxtpx:hr>
          </gpxtpx:TrackPointExtension>
        </extensions>
      </trkpt>
      <trkpt lat="48.61516" lon="2.09468">
        <ele>130.4</ele>
        <time>2023-03-05T16:29:32Z</time>
        <extensions>
          <gpxtpx:TrackPointExtension xmlns:gpxtpx="http://www.garmin.com/xmlschemas/TrackPointExtension/v1">
            <gpxtpx:hr>109</gpxtpx:hr>
          </gpxtpx:TrackPointExtension>
        </extensions>
      </trkpt>
      <trkpt lat="48.61516" lon="2.09473">
        <ele>130.2</ele>
        <time>2023-03-05T16:29:34Z</time>
        <extensions>
          <gpxtpx:TrackPointExtension xmlns:gpxtpx="http://www.garmin.com/xmlschemas/TrackPointExtension/v1">
            <gpxtpx:hr>109</gpxtpx:hr>
          </gpxtpx:TrackPointExtension>
        </extensions>
      </trkpt>
      <trkpt lat="48.61517" lon="2.09478">
        <ele>130</ele>
        <time>2023-03-05T16:29:36Z</time>
        <extensions>
          <gpxtpx:TrackPointExtension xmlns:gpxtpx="http://www.garmin.com/xmlschemas/TrackPointExtension/v1">
            <gpxtpx:hr>109</gpxtpx:hr>
          </gpxtpx:TrackPointExtension>
        </extensions>
      </trkpt>
      <trkpt lat="48.61518" lon="2.09482">
        <ele>130</ele>
        <time>2023-03-05T16:29:38Z</time>
        <extensions>
          <gpxtpx:TrackPointExtension xmlns:gpxtpx="http://www.garmin.com/xmlschemas/TrackPointExtension/v1">
            <gpxtpx:hr>109</gpxtpx:hr>
          </gpxtpx:TrackPointExtension>
        </extensions>
      </trkpt>
      <trkpt lat="48.61519" lon="2.09487">
        <ele>129.8</ele>
        <time>2023-03-05T16:29:40Z</time>
        <extensions>
          <gpxtpx:TrackPointExtension xmlns:gpxtpx="http://www.garmin.com/xmlschemas/TrackPointExtension/v1">
            <gpxtpx:hr>109</gpxtpx:hr>
          </gpxtpx:TrackPointExtension>
        </extensions>
      </trkpt>
      <trkpt lat="48.6152" lon="2.09492">
        <ele>129.8</ele>
        <time>2023-03-05T16:29:42Z</time>
        <extensions>
          <gpxtpx:TrackPointExtension xmlns:gpxtpx="http://www.garmin.com/xmlschemas/TrackPointExtension/v1">
            <gpxtpx:hr>109</gpxtpx:hr>
          </gpxtpx:TrackPointExtension>
        </extensions>
      </trkpt>
      <trkpt lat="48.61522" lon="2.09497">
        <ele>129.8</ele>
        <time>2023-03-05T16:29:44Z</time>
        <extensions>
          <gpxtpx:TrackPointExtension xmlns:gpxtpx="http://www.garmin.com/xmlschemas/TrackPointExtension/v1">
            <gpxtpx:hr>109</gpxtpx:hr>
          </gpxtpx:TrackPointExtension>
        </extensions>
      </trkpt>
      <trkpt lat="48.61523" lon="2.09501">
        <ele>129.6</ele>
        <time>2023-03-05T16:29:46Z</time>
        <extensions>
          <gpxtpx:TrackPointExtension xmlns:gpxtpx="http://www.garmin.com/xmlschemas/TrackPointExtension/v1">
            <gpxtpx:hr>109</gpxtpx:hr>
          </gpxtpx:TrackPointExtension>
        </extensions>
      </trkpt>
      <trkpt lat="48.61524" lon="2.09506">
        <ele>129.6</ele>
        <time>2023-03-05T16:29:48Z</time>
        <extensions>
          <gpxtpx:TrackPointExtension xmlns:gpxtpx="http://www.garmin.com/xmlschemas/TrackPointExtension/v1">
            <gpxtpx:hr>108</gpxtpx:hr>
          </gpxtpx:TrackPointExtension>
        </extensions>
      </trkpt>
      <trkpt lat="48.61526" lon="2.09511">
        <ele>129.4</ele>
        <time>2023-03-05T16:29:50Z</time>
        <extensions>
          <gpxtpx:TrackPointExtension xmlns:gpxtpx="http://www.garmin.com/xmlschemas/TrackPointExtension/v1">
            <gpxtpx:hr>108</gpxtpx:hr>
          </gpxtpx:TrackPointExtension>
        </extensions>
      </trkpt>
      <trkpt lat="48.61527" lon="2.09515">
        <ele>129.4</ele>
        <time>2023-03-05T16:29:52Z</time>
        <extensions>
          <gpxtpx:TrackPointExtension xmlns:gpxtpx="http://www.garmin.com/xmlschemas/TrackPointExtension/v1">
            <gpxtpx:hr>109</gpxtpx:hr>
          </gpxtpx:TrackPointExtension>
        </extensions>
      </trkpt>
      <trkpt lat="48.61527" lon="2.09519">
        <ele>129.2</ele>
        <time>2023-03-05T16:29:55Z</time>
        <extensions>
          <gpxtpx:TrackPointExtension xmlns:gpxtpx="http://www.garmin.com/xmlschemas/TrackPointExtension/v1">
            <gpxtpx:hr>108</gpxtpx:hr>
          </gpxtpx:TrackPointExtension>
        </extensions>
      </trkpt>
      <trkpt lat="48.61527" lon="2.09521">
        <ele>128.6</ele>
        <time>2023-03-05T16:30:13Z</time>
        <extensions>
          <gpxtpx:TrackPointExtension xmlns:gpxtpx="http://www.garmin.com/xmlschemas/TrackPointExtension/v1">
            <gpxtpx:hr>106</gpxtpx:hr>
          </gpxtpx:TrackPointExtension>
        </extensions>
      </trkpt>
      <trkpt lat="48.61528" lon="2.09524">
        <ele>128.6</ele>
        <time>2023-03-05T16:30:15Z</time>
        <extensions>
          <gpxtpx:TrackPointExtension xmlns:gpxtpx="http://www.garmin.com/xmlschemas/TrackPointExtension/v1">
            <gpxtpx:hr>106</gpxtpx:hr>
          </gpxtpx:TrackPointExtension>
        </extensions>
      </trkpt>
      <trkpt lat="48.6153" lon="2.09529">
        <ele>128.4</ele>
        <time>2023-03-05T16:30:17Z</time>
        <extensions>
          <gpxtpx:TrackPointExtension xmlns:gpxtpx="http://www.garmin.com/xmlschemas/TrackPointExtension/v1">
            <gpxtpx:hr>106</gpxtpx:hr>
          </gpxtpx:TrackPointExtension>
        </extensions>
      </trkpt>
      <trkpt lat="48.6153" lon="2.09532">
        <ele>128.4</ele>
        <time>2023-03-05T16:30:18Z</time>
        <extensions>
          <gpxtpx:TrackPointExtension xmlns:gpxtpx="http://www.garmin.com/xmlschemas/TrackPointExtension/v1">
            <gpxtpx:hr>106</gpxtpx:hr>
          </gpxtpx:TrackPointExtension>
        </extensions>
      </trkpt>
      <trkpt lat="48.61531" lon="2.09535">
        <ele>128.4</ele>
        <time>2023-03-05T16:30:19Z</time>
        <extensions>
          <gpxtpx:TrackPointExtension xmlns:gpxtpx="http://www.garmin.com/xmlschemas/TrackPointExtension/v1">
            <gpxtpx:hr>106</gpxtpx:hr>
          </gpxtpx:TrackPointExtension>
        </extensions>
      </trkpt>
      <trkpt lat="48.61532" lon="2.09538">
        <ele>128.4</ele>
        <time>2023-03-05T16:30:20Z</time>
        <extensions>
          <gpxtpx:TrackPointExtension xmlns:gpxtpx="http://www.garmin.com/xmlschemas/TrackPointExtension/v1">
            <gpxtpx:hr>106</gpxtpx:hr>
          </gpxtpx:TrackPointExtension>
        </extensions>
      </trkpt>
      <trkpt lat="48.61532" lon="2.09541">
        <ele>128.4</ele>
        <time>2023-03-05T16:30:21Z</time>
        <extensions>
          <gpxtpx:TrackPointExtension xmlns:gpxtpx="http://www.garmin.com/xmlschemas/TrackPointExtension/v1">
            <gpxtpx:hr>106</gpxtpx:hr>
          </gpxtpx:TrackPointExtension>
        </extensions>
      </trkpt>
      <trkpt lat="48.61533" lon="2.09543">
        <ele>128.4</ele>
        <time>2023-03-05T16:30:22Z</time>
        <extensions>
          <gpxtpx:TrackPointExtension xmlns:gpxtpx="http://www.garmin.com/xmlschemas/TrackPointExtension/v1">
            <gpxtpx:hr>106</gpxtpx:hr>
          </gpxtpx:TrackPointExtension>
        </extensions>
      </trkpt>
      <trkpt lat="48.61533" lon="2.09546">
        <ele>128.2</ele>
        <time>2023-03-05T16:30:23Z</time>
        <extensions>
          <gpxtpx:TrackPointExtension xmlns:gpxtpx="http://www.garmin.com/xmlschemas/TrackPointExtension/v1">
            <gpxtpx:hr>106</gpxtpx:hr>
          </gpxtpx:TrackPointExtension>
        </extensions>
      </trkpt>
      <trkpt lat="48.61534" lon="2.09549">
        <ele>128.2</ele>
        <time>2023-03-05T16:30:24Z</time>
        <extensions>
          <gpxtpx:TrackPointExtension xmlns:gpxtpx="http://www.garmin.com/xmlschemas/TrackPointExtension/v1">
            <gpxtpx:hr>106</gpxtpx:hr>
          </gpxtpx:TrackPointExtension>
        </extensions>
      </trkpt>
      <trkpt lat="48.61535" lon="2.09554">
        <ele>128</ele>
        <time>2023-03-05T16:30:26Z</time>
        <extensions>
          <gpxtpx:TrackPointExtension xmlns:gpxtpx="http://www.garmin.com/xmlschemas/TrackPointExtension/v1">
            <gpxtpx:hr>106</gpxtpx:hr>
          </gpxtpx:TrackPointExtension>
        </extensions>
      </trkpt>
      <trkpt lat="48.61536" lon="2.09559">
        <ele>127.8</ele>
        <time>2023-03-05T16:30:28Z</time>
        <extensions>
          <gpxtpx:TrackPointExtension xmlns:gpxtpx="http://www.garmin.com/xmlschemas/TrackPointExtension/v1">
            <gpxtpx:hr>106</gpxtpx:hr>
          </gpxtpx:TrackPointExtension>
        </extensions>
      </trkpt>
      <trkpt lat="48.61537" lon="2.09564">
        <ele>127.8</ele>
        <time>2023-03-05T16:30:30Z</time>
        <extensions>
          <gpxtpx:TrackPointExtension xmlns:gpxtpx="http://www.garmin.com/xmlschemas/TrackPointExtension/v1">
            <gpxtpx:hr>106</gpxtpx:hr>
          </gpxtpx:TrackPointExtension>
        </extensions>
      </trkpt>
      <trkpt lat="48.61538" lon="2.09569">
        <ele>127.8</ele>
        <time>2023-03-05T16:30:32Z</time>
        <extensions>
          <gpxtpx:TrackPointExtension xmlns:gpxtpx="http://www.garmin.com/xmlschemas/TrackPointExtension/v1">
            <gpxtpx:hr>106</gpxtpx:hr>
          </gpxtpx:TrackPointExtension>
        </extensions>
      </trkpt>
      <trkpt lat="48.61539" lon="2.09574">
        <ele>127.6</ele>
        <time>2023-03-05T16:30:34Z</time>
        <extensions>
          <gpxtpx:TrackPointExtension xmlns:gpxtpx="http://www.garmin.com/xmlschemas/TrackPointExtension/v1">
            <gpxtpx:hr>106</gpxtpx:hr>
          </gpxtpx:TrackPointExtension>
        </extensions>
      </trkpt>
      <trkpt lat="48.6154" lon="2.09578">
        <ele>127.6</ele>
        <time>2023-03-05T16:30:36Z</time>
        <extensions>
          <gpxtpx:TrackPointExtension xmlns:gpxtpx="http://www.garmin.com/xmlschemas/TrackPointExtension/v1">
            <gpxtpx:hr>106</gpxtpx:hr>
          </gpxtpx:TrackPointExtension>
        </extensions>
      </trkpt>
      <trkpt lat="48.61541" lon="2.09581">
        <ele>127.6</ele>
        <time>2023-03-05T16:30:37Z</time>
        <extensions>
          <gpxtpx:TrackPointExtension xmlns:gpxtpx="http://www.garmin.com/xmlschemas/TrackPointExtension/v1">
            <gpxtpx:hr>106</gpxtpx:hr>
          </gpxtpx:TrackPointExtension>
        </extensions>
      </trkpt>
      <trkpt lat="48.61542" lon="2.09586">
        <ele>127.6</ele>
        <time>2023-03-05T16:30:39Z</time>
        <extensions>
          <gpxtpx:TrackPointExtension xmlns:gpxtpx="http://www.garmin.com/xmlschemas/TrackPointExtension/v1">
            <gpxtpx:hr>106</gpxtpx:hr>
          </gpxtpx:TrackPointExtension>
        </extensions>
      </trkpt>
      <trkpt lat="48.61542" lon="2.0959">
        <ele>127.4</ele>
        <time>2023-03-05T16:30:41Z</time>
        <extensions>
          <gpxtpx:TrackPointExtension xmlns:gpxtpx="http://www.garmin.com/xmlschemas/TrackPointExtension/v1">
            <gpxtpx:hr>106</gpxtpx:hr>
          </gpxtpx:TrackPointExtension>
        </extensions>
      </trkpt>
      <trkpt lat="48.61543" lon="2.09595">
        <ele>127.2</ele>
        <time>2023-03-05T16:30:43Z</time>
        <extensions>
          <gpxtpx:TrackPointExtension xmlns:gpxtpx="http://www.garmin.com/xmlschemas/TrackPointExtension/v1">
            <gpxtpx:hr>106</gpxtpx:hr>
          </gpxtpx:TrackPointExtension>
        </extensions>
      </trkpt>
      <trkpt lat="48.61544" lon="2.096">
        <ele>127.2</ele>
        <time>2023-03-05T16:30:45Z</time>
        <extensions>
          <gpxtpx:TrackPointExtension xmlns:gpxtpx="http://www.garmin.com/xmlschemas/TrackPointExtension/v1">
            <gpxtpx:hr>107</gpxtpx:hr>
          </gpxtpx:TrackPointExtension>
        </extensions>
      </trkpt>
      <trkpt lat="48.61546" lon="2.09604">
        <ele>127</ele>
        <time>2023-03-05T16:30:47Z</time>
        <extensions>
          <gpxtpx:TrackPointExtension xmlns:gpxtpx="http://www.garmin.com/xmlschemas/TrackPointExtension/v1">
            <gpxtpx:hr>107</gpxtpx:hr>
          </gpxtpx:TrackPointExtension>
        </extensions>
      </trkpt>
      <trkpt lat="48.61547" lon="2.09609">
        <ele>127</ele>
        <time>2023-03-05T16:30:49Z</time>
        <extensions>
          <gpxtpx:TrackPointExtension xmlns:gpxtpx="http://www.garmin.com/xmlschemas/TrackPointExtension/v1">
            <gpxtpx:hr>107</gpxtpx:hr>
          </gpxtpx:TrackPointExtension>
        </extensions>
      </trkpt>
      <trkpt lat="48.61548" lon="2.09611">
        <ele>127</ele>
        <time>2023-03-05T16:30:50Z</time>
        <extensions>
          <gpxtpx:TrackPointExtension xmlns:gpxtpx="http://www.garmin.com/xmlschemas/TrackPointExtension/v1">
            <gpxtpx:hr>107</gpxtpx:hr>
          </gpxtpx:TrackPointExtension>
        </extensions>
      </trkpt>
      <trkpt lat="48.61549" lon="2.09616">
        <ele>127</ele>
        <time>2023-03-05T16:30:52Z</time>
        <extensions>
          <gpxtpx:TrackPointExtension xmlns:gpxtpx="http://www.garmin.com/xmlschemas/TrackPointExtension/v1">
            <gpxtpx:hr>107</gpxtpx:hr>
          </gpxtpx:TrackPointExtension>
        </extensions>
      </trkpt>
      <trkpt lat="48.6155" lon="2.09622">
        <ele>126.8</ele>
        <time>2023-03-05T16:30:54Z</time>
        <extensions>
          <gpxtpx:TrackPointExtension xmlns:gpxtpx="http://www.garmin.com/xmlschemas/TrackPointExtension/v1">
            <gpxtpx:hr>107</gpxtpx:hr>
          </gpxtpx:TrackPointExtension>
        </extensions>
      </trkpt>
      <trkpt lat="48.61551" lon="2.09624">
        <ele>126.8</ele>
        <time>2023-03-05T16:30:55Z</time>
        <extensions>
          <gpxtpx:TrackPointExtension xmlns:gpxtpx="http://www.garmin.com/xmlschemas/TrackPointExtension/v1">
            <gpxtpx:hr>107</gpxtpx:hr>
          </gpxtpx:TrackPointExtension>
        </extensions>
      </trkpt>
      <trkpt lat="48.61552" lon="2.0963">
        <ele>126.8</ele>
        <time>2023-03-05T16:30:57Z</time>
        <extensions>
          <gpxtpx:TrackPointExtension xmlns:gpxtpx="http://www.garmin.com/xmlschemas/TrackPointExtension/v1">
            <gpxtpx:hr>108</gpxtpx:hr>
          </gpxtpx:TrackPointExtension>
        </extensions>
      </trkpt>
      <trkpt lat="48.61553" lon="2.09632">
        <ele>126.8</ele>
        <time>2023-03-05T16:30:58Z</time>
        <extensions>
          <gpxtpx:TrackPointExtension xmlns:gpxtpx="http://www.garmin.com/xmlschemas/TrackPointExtension/v1">
            <gpxtpx:hr>108</gpxtpx:hr>
          </gpxtpx:TrackPointExtension>
        </extensions>
      </trkpt>
      <trkpt lat="48.61554" lon="2.09637">
        <ele>126.8</ele>
        <time>2023-03-05T16:31:00Z</time>
        <extensions>
          <gpxtpx:TrackPointExtension xmlns:gpxtpx="http://www.garmin.com/xmlschemas/TrackPointExtension/v1">
            <gpxtpx:hr>108</gpxtpx:hr>
          </gpxtpx:TrackPointExtension>
        </extensions>
      </trkpt>
      <trkpt lat="48.61555" lon="2.09642">
        <ele>126.6</ele>
        <time>2023-03-05T16:31:02Z</time>
        <extensions>
          <gpxtpx:TrackPointExtension xmlns:gpxtpx="http://www.garmin.com/xmlschemas/TrackPointExtension/v1">
            <gpxtpx:hr>108</gpxtpx:hr>
          </gpxtpx:TrackPointExtension>
        </extensions>
      </trkpt>
      <trkpt lat="48.61556" lon="2.09647">
        <ele>126.6</ele>
        <time>2023-03-05T16:31:04Z</time>
        <extensions>
          <gpxtpx:TrackPointExtension xmlns:gpxtpx="http://www.garmin.com/xmlschemas/TrackPointExtension/v1">
            <gpxtpx:hr>108</gpxtpx:hr>
          </gpxtpx:TrackPointExtension>
        </extensions>
      </trkpt>
      <trkpt lat="48.61557" lon="2.09652">
        <ele>126.6</ele>
        <time>2023-03-05T16:31:06Z</time>
        <extensions>
          <gpxtpx:TrackPointExtension xmlns:gpxtpx="http://www.garmin.com/xmlschemas/TrackPointExtension/v1">
            <gpxtpx:hr>109</gpxtpx:hr>
          </gpxtpx:TrackPointExtension>
        </extensions>
      </trkpt>
      <trkpt lat="48.61558" lon="2.09657">
        <ele>126.6</ele>
        <time>2023-03-05T16:31:08Z</time>
        <extensions>
          <gpxtpx:TrackPointExtension xmlns:gpxtpx="http://www.garmin.com/xmlschemas/TrackPointExtension/v1">
            <gpxtpx:hr>109</gpxtpx:hr>
          </gpxtpx:TrackPointExtension>
        </extensions>
      </trkpt>
      <trkpt lat="48.61559" lon="2.0966">
        <ele>126.4</ele>
        <time>2023-03-05T16:31:09Z</time>
        <extensions>
          <gpxtpx:TrackPointExtension xmlns:gpxtpx="http://www.garmin.com/xmlschemas/TrackPointExtension/v1">
            <gpxtpx:hr>109</gpxtpx:hr>
          </gpxtpx:TrackPointExtension>
        </extensions>
      </trkpt>
      <trkpt lat="48.6156" lon="2.09665">
        <ele>126.4</ele>
        <time>2023-03-05T16:31:11Z</time>
        <extensions>
          <gpxtpx:TrackPointExtension xmlns:gpxtpx="http://www.garmin.com/xmlschemas/TrackPointExtension/v1">
            <gpxtpx:hr>109</gpxtpx:hr>
          </gpxtpx:TrackPointExtension>
        </extensions>
      </trkpt>
      <trkpt lat="48.61561" lon="2.0967">
        <ele>126.6</ele>
        <time>2023-03-05T16:31:13Z</time>
        <extensions>
          <gpxtpx:TrackPointExtension xmlns:gpxtpx="http://www.garmin.com/xmlschemas/TrackPointExtension/v1">
            <gpxtpx:hr>109</gpxtpx:hr>
          </gpxtpx:TrackPointExtension>
        </extensions>
      </trkpt>
      <trkpt lat="48.61562" lon="2.09675">
        <ele>126.6</ele>
        <time>2023-03-05T16:31:15Z</time>
        <extensions>
          <gpxtpx:TrackPointExtension xmlns:gpxtpx="http://www.garmin.com/xmlschemas/TrackPointExtension/v1">
            <gpxtpx:hr>109</gpxtpx:hr>
          </gpxtpx:TrackPointExtension>
        </extensions>
      </trkpt>
      <trkpt lat="48.61563" lon="2.09681">
        <ele>126.6</ele>
        <time>2023-03-05T16:31:17Z</time>
        <extensions>
          <gpxtpx:TrackPointExtension xmlns:gpxtpx="http://www.garmin.com/xmlschemas/TrackPointExtension/v1">
            <gpxtpx:hr>109</gpxtpx:hr>
          </gpxtpx:TrackPointExtension>
        </extensions>
      </trkpt>
      <trkpt lat="48.61564" lon="2.09683">
        <ele>126.6</ele>
        <time>2023-03-05T16:31:18Z</time>
        <extensions>
          <gpxtpx:TrackPointExtension xmlns:gpxtpx="http://www.garmin.com/xmlschemas/TrackPointExtension/v1">
            <gpxtpx:hr>109</gpxtpx:hr>
          </gpxtpx:TrackPointExtension>
        </extensions>
      </trkpt>
      <trkpt lat="48.61564" lon="2.09686">
        <ele>126.8</ele>
        <time>2023-03-05T16:31:19Z</time>
        <extensions>
          <gpxtpx:TrackPointExtension xmlns:gpxtpx="http://www.garmin.com/xmlschemas/TrackPointExtension/v1">
            <gpxtpx:hr>110</gpxtpx:hr>
          </gpxtpx:TrackPointExtension>
        </extensions>
      </trkpt>
      <trkpt lat="48.61564" lon="2.09689">
        <ele>126.6</ele>
        <time>2023-03-05T16:31:20Z</time>
        <extensions>
          <gpxtpx:TrackPointExtension xmlns:gpxtpx="http://www.garmin.com/xmlschemas/TrackPointExtension/v1">
            <gpxtpx:hr>110</gpxtpx:hr>
          </gpxtpx:TrackPointExtension>
        </extensions>
      </trkpt>
      <trkpt lat="48.61565" lon="2.09691">
        <ele>126.6</ele>
        <time>2023-03-05T16:31:21Z</time>
        <extensions>
          <gpxtpx:TrackPointExtension xmlns:gpxtpx="http://www.garmin.com/xmlschemas/TrackPointExtension/v1">
            <gpxtpx:hr>110</gpxtpx:hr>
          </gpxtpx:TrackPointExtension>
        </extensions>
      </trkpt>
      <trkpt lat="48.61566" lon="2.09697">
        <ele>126.6</ele>
        <time>2023-03-05T16:31:23Z</time>
        <extensions>
          <gpxtpx:TrackPointExtension xmlns:gpxtpx="http://www.garmin.com/xmlschemas/TrackPointExtension/v1">
            <gpxtpx:hr>110</gpxtpx:hr>
          </gpxtpx:TrackPointExtension>
        </extensions>
      </trkpt>
      <trkpt lat="48.61567" lon="2.09702">
        <ele>126.6</ele>
        <time>2023-03-05T16:31:25Z</time>
        <extensions>
          <gpxtpx:TrackPointExtension xmlns:gpxtpx="http://www.garmin.com/xmlschemas/TrackPointExtension/v1">
            <gpxtpx:hr>110</gpxtpx:hr>
          </gpxtpx:TrackPointExtension>
        </extensions>
      </trkpt>
      <trkpt lat="48.61568" lon="2.09707">
        <ele>126.6</ele>
        <time>2023-03-05T16:31:27Z</time>
        <extensions>
          <gpxtpx:TrackPointExtension xmlns:gpxtpx="http://www.garmin.com/xmlschemas/TrackPointExtension/v1">
            <gpxtpx:hr>110</gpxtpx:hr>
          </gpxtpx:TrackPointExtension>
        </extensions>
      </trkpt>
      <trkpt lat="48.61568" lon="2.09711">
        <ele>126.4</ele>
        <time>2023-03-05T16:31:29Z</time>
        <extensions>
          <gpxtpx:TrackPointExtension xmlns:gpxtpx="http://www.garmin.com/xmlschemas/TrackPointExtension/v1">
            <gpxtpx:hr>110</gpxtpx:hr>
          </gpxtpx:TrackPointExtension>
        </extensions>
      </trkpt>
      <trkpt lat="48.61569" lon="2.09714">
        <ele>126.4</ele>
        <time>2023-03-05T16:31:30Z</time>
        <extensions>
          <gpxtpx:TrackPointExtension xmlns:gpxtpx="http://www.garmin.com/xmlschemas/TrackPointExtension/v1">
            <gpxtpx:hr>109</gpxtpx:hr>
          </gpxtpx:TrackPointExtension>
        </extensions>
      </trkpt>
      <trkpt lat="48.6157" lon="2.09719">
        <ele>126.2</ele>
        <time>2023-03-05T16:31:32Z</time>
        <extensions>
          <gpxtpx:TrackPointExtension xmlns:gpxtpx="http://www.garmin.com/xmlschemas/TrackPointExtension/v1">
            <gpxtpx:hr>109</gpxtpx:hr>
          </gpxtpx:TrackPointExtension>
        </extensions>
      </trkpt>
      <trkpt lat="48.61571" lon="2.09724">
        <ele>126.2</ele>
        <time>2023-03-05T16:31:34Z</time>
        <extensions>
          <gpxtpx:TrackPointExtension xmlns:gpxtpx="http://www.garmin.com/xmlschemas/TrackPointExtension/v1">
            <gpxtpx:hr>108</gpxtpx:hr>
          </gpxtpx:TrackPointExtension>
        </extensions>
      </trkpt>
      <trkpt lat="48.61572" lon="2.09729">
        <ele>126.2</ele>
        <time>2023-03-05T16:31:36Z</time>
        <extensions>
          <gpxtpx:TrackPointExtension xmlns:gpxtpx="http://www.garmin.com/xmlschemas/TrackPointExtension/v1">
            <gpxtpx:hr>108</gpxtpx:hr>
          </gpxtpx:TrackPointExtension>
        </extensions>
      </trkpt>
      <trkpt lat="48.61572" lon="2.09734">
        <ele>126</ele>
        <time>2023-03-05T16:31:38Z</time>
        <extensions>
          <gpxtpx:TrackPointExtension xmlns:gpxtpx="http://www.garmin.com/xmlschemas/TrackPointExtension/v1">
            <gpxtpx:hr>109</gpxtpx:hr>
          </gpxtpx:TrackPointExtension>
        </extensions>
      </trkpt>
      <trkpt lat="48.61573" lon="2.09739">
        <ele>126</ele>
        <time>2023-03-05T16:31:40Z</time>
        <extensions>
          <gpxtpx:TrackPointExtension xmlns:gpxtpx="http://www.garmin.com/xmlschemas/TrackPointExtension/v1">
            <gpxtpx:hr>109</gpxtpx:hr>
          </gpxtpx:TrackPointExtension>
        </extensions>
      </trkpt>
      <trkpt lat="48.61573" lon="2.09745">
        <ele>126</ele>
        <time>2023-03-05T16:31:42Z</time>
        <extensions>
          <gpxtpx:TrackPointExtension xmlns:gpxtpx="http://www.garmin.com/xmlschemas/TrackPointExtension/v1">
            <gpxtpx:hr>110</gpxtpx:hr>
          </gpxtpx:TrackPointExtension>
        </extensions>
      </trkpt>
      <trkpt lat="48.61574" lon="2.0975">
        <ele>126</ele>
        <time>2023-03-05T16:31:44Z</time>
        <extensions>
          <gpxtpx:TrackPointExtension xmlns:gpxtpx="http://www.garmin.com/xmlschemas/TrackPointExtension/v1">
            <gpxtpx:hr>110</gpxtpx:hr>
          </gpxtpx:TrackPointExtension>
        </extensions>
      </trkpt>
      <trkpt lat="48.61575" lon="2.09755">
        <ele>126</ele>
        <time>2023-03-05T16:31:46Z</time>
        <extensions>
          <gpxtpx:TrackPointExtension xmlns:gpxtpx="http://www.garmin.com/xmlschemas/TrackPointExtension/v1">
            <gpxtpx:hr>110</gpxtpx:hr>
          </gpxtpx:TrackPointExtension>
        </extensions>
      </trkpt>
      <trkpt lat="48.61575" lon="2.0976">
        <ele>126</ele>
        <time>2023-03-05T16:31:48Z</time>
        <extensions>
          <gpxtpx:TrackPointExtension xmlns:gpxtpx="http://www.garmin.com/xmlschemas/TrackPointExtension/v1">
            <gpxtpx:hr>109</gpxtpx:hr>
          </gpxtpx:TrackPointExtension>
        </extensions>
      </trkpt>
      <trkpt lat="48.61576" lon="2.09763">
        <ele>126</ele>
        <time>2023-03-05T16:31:49Z</time>
        <extensions>
          <gpxtpx:TrackPointExtension xmlns:gpxtpx="http://www.garmin.com/xmlschemas/TrackPointExtension/v1">
            <gpxtpx:hr>109</gpxtpx:hr>
          </gpxtpx:TrackPointExtension>
        </extensions>
      </trkpt>
      <trkpt lat="48.61576" lon="2.09766">
        <ele>125.8</ele>
        <time>2023-03-05T16:31:50Z</time>
        <extensions>
          <gpxtpx:TrackPointExtension xmlns:gpxtpx="http://www.garmin.com/xmlschemas/TrackPointExtension/v1">
            <gpxtpx:hr>109</gpxtpx:hr>
          </gpxtpx:TrackPointExtension>
        </extensions>
      </trkpt>
      <trkpt lat="48.61576" lon="2.09769">
        <ele>125.8</ele>
        <time>2023-03-05T16:31:51Z</time>
        <extensions>
          <gpxtpx:TrackPointExtension xmlns:gpxtpx="http://www.garmin.com/xmlschemas/TrackPointExtension/v1">
            <gpxtpx:hr>109</gpxtpx:hr>
          </gpxtpx:TrackPointExtension>
        </extensions>
      </trkpt>
      <trkpt lat="48.61577" lon="2.09774">
        <ele>125.8</ele>
        <time>2023-03-05T16:31:53Z</time>
        <extensions>
          <gpxtpx:TrackPointExtension xmlns:gpxtpx="http://www.garmin.com/xmlschemas/TrackPointExtension/v1">
            <gpxtpx:hr>109</gpxtpx:hr>
          </gpxtpx:TrackPointExtension>
        </extensions>
      </trkpt>
      <trkpt lat="48.61577" lon="2.0978">
        <ele>125.8</ele>
        <time>2023-03-05T16:31:55Z</time>
        <extensions>
          <gpxtpx:TrackPointExtension xmlns:gpxtpx="http://www.garmin.com/xmlschemas/TrackPointExtension/v1">
            <gpxtpx:hr>109</gpxtpx:hr>
          </gpxtpx:TrackPointExtension>
        </extensions>
      </trkpt>
      <trkpt lat="48.61578" lon="2.09785">
        <ele>125.8</ele>
        <time>2023-03-05T16:31:57Z</time>
        <extensions>
          <gpxtpx:TrackPointExtension xmlns:gpxtpx="http://www.garmin.com/xmlschemas/TrackPointExtension/v1">
            <gpxtpx:hr>109</gpxtpx:hr>
          </gpxtpx:TrackPointExtension>
        </extensions>
      </trkpt>
      <trkpt lat="48.61578" lon="2.0979">
        <ele>125.8</ele>
        <time>2023-03-05T16:31:59Z</time>
        <extensions>
          <gpxtpx:TrackPointExtension xmlns:gpxtpx="http://www.garmin.com/xmlschemas/TrackPointExtension/v1">
            <gpxtpx:hr>109</gpxtpx:hr>
          </gpxtpx:TrackPointExtension>
        </extensions>
      </trkpt>
      <trkpt lat="48.61578" lon="2.09795">
        <ele>125.8</ele>
        <time>2023-03-05T16:32:01Z</time>
        <extensions>
          <gpxtpx:TrackPointExtension xmlns:gpxtpx="http://www.garmin.com/xmlschemas/TrackPointExtension/v1">
            <gpxtpx:hr>109</gpxtpx:hr>
          </gpxtpx:TrackPointExtension>
        </extensions>
      </trkpt>
      <trkpt lat="48.61578" lon="2.098">
        <ele>125.6</ele>
        <time>2023-03-05T16:32:03Z</time>
        <extensions>
          <gpxtpx:TrackPointExtension xmlns:gpxtpx="http://www.garmin.com/xmlschemas/TrackPointExtension/v1">
            <gpxtpx:hr>109</gpxtpx:hr>
          </gpxtpx:TrackPointExtension>
        </extensions>
      </trkpt>
      <trkpt lat="48.61578" lon="2.09805">
        <ele>125.4</ele>
        <time>2023-03-05T16:32:05Z</time>
        <extensions>
          <gpxtpx:TrackPointExtension xmlns:gpxtpx="http://www.garmin.com/xmlschemas/TrackPointExtension/v1">
            <gpxtpx:hr>109</gpxtpx:hr>
          </gpxtpx:TrackPointExtension>
        </extensions>
      </trkpt>
      <trkpt lat="48.61578" lon="2.09809">
        <ele>125.4</ele>
        <time>2023-03-05T16:32:07Z</time>
        <extensions>
          <gpxtpx:TrackPointExtension xmlns:gpxtpx="http://www.garmin.com/xmlschemas/TrackPointExtension/v1">
            <gpxtpx:hr>109</gpxtpx:hr>
          </gpxtpx:TrackPointExtension>
        </extensions>
      </trkpt>
      <trkpt lat="48.61578" lon="2.09814">
        <ele>125.2</ele>
        <time>2023-03-05T16:32:09Z</time>
        <extensions>
          <gpxtpx:TrackPointExtension xmlns:gpxtpx="http://www.garmin.com/xmlschemas/TrackPointExtension/v1">
            <gpxtpx:hr>109</gpxtpx:hr>
          </gpxtpx:TrackPointExtension>
        </extensions>
      </trkpt>
      <trkpt lat="48.61578" lon="2.09819">
        <ele>125</ele>
        <time>2023-03-05T16:32:11Z</time>
        <extensions>
          <gpxtpx:TrackPointExtension xmlns:gpxtpx="http://www.garmin.com/xmlschemas/TrackPointExtension/v1">
            <gpxtpx:hr>109</gpxtpx:hr>
          </gpxtpx:TrackPointExtension>
        </extensions>
      </trkpt>
      <trkpt lat="48.61579" lon="2.09822">
        <ele>125</ele>
        <time>2023-03-05T16:32:12Z</time>
        <extensions>
          <gpxtpx:TrackPointExtension xmlns:gpxtpx="http://www.garmin.com/xmlschemas/TrackPointExtension/v1">
            <gpxtpx:hr>109</gpxtpx:hr>
          </gpxtpx:TrackPointExtension>
        </extensions>
      </trkpt>
      <trkpt lat="48.61579" lon="2.09824">
        <ele>124.8</ele>
        <time>2023-03-05T16:32:13Z</time>
        <extensions>
          <gpxtpx:TrackPointExtension xmlns:gpxtpx="http://www.garmin.com/xmlschemas/TrackPointExtension/v1">
            <gpxtpx:hr>109</gpxtpx:hr>
          </gpxtpx:TrackPointExtension>
        </extensions>
      </trkpt>
      <trkpt lat="48.61579" lon="2.09827">
        <ele>124.8</ele>
        <time>2023-03-05T16:32:14Z</time>
        <extensions>
          <gpxtpx:TrackPointExtension xmlns:gpxtpx="http://www.garmin.com/xmlschemas/TrackPointExtension/v1">
            <gpxtpx:hr>109</gpxtpx:hr>
          </gpxtpx:TrackPointExtension>
        </extensions>
      </trkpt>
      <trkpt lat="48.61579" lon="2.0983">
        <ele>124.6</ele>
        <time>2023-03-05T16:32:15Z</time>
        <extensions>
          <gpxtpx:TrackPointExtension xmlns:gpxtpx="http://www.garmin.com/xmlschemas/TrackPointExtension/v1">
            <gpxtpx:hr>109</gpxtpx:hr>
          </gpxtpx:TrackPointExtension>
        </extensions>
      </trkpt>
      <trkpt lat="48.6158" lon="2.09833">
        <ele>124.6</ele>
        <time>2023-03-05T16:32:16Z</time>
        <extensions>
          <gpxtpx:TrackPointExtension xmlns:gpxtpx="http://www.garmin.com/xmlschemas/TrackPointExtension/v1">
            <gpxtpx:hr>109</gpxtpx:hr>
          </gpxtpx:TrackPointExtension>
        </extensions>
      </trkpt>
      <trkpt lat="48.6158" lon="2.09838">
        <ele>124.4</ele>
        <time>2023-03-05T16:32:18Z</time>
        <extensions>
          <gpxtpx:TrackPointExtension xmlns:gpxtpx="http://www.garmin.com/xmlschemas/TrackPointExtension/v1">
            <gpxtpx:hr>109</gpxtpx:hr>
          </gpxtpx:TrackPointExtension>
        </extensions>
      </trkpt>
      <trkpt lat="48.6158" lon="2.09843">
        <ele>124.2</ele>
        <time>2023-03-05T16:32:20Z</time>
        <extensions>
          <gpxtpx:TrackPointExtension xmlns:gpxtpx="http://www.garmin.com/xmlschemas/TrackPointExtension/v1">
            <gpxtpx:hr>109</gpxtpx:hr>
          </gpxtpx:TrackPointExtension>
        </extensions>
      </trkpt>
      <trkpt lat="48.6158" lon="2.09848">
        <ele>124.2</ele>
        <time>2023-03-05T16:32:22Z</time>
        <extensions>
          <gpxtpx:TrackPointExtension xmlns:gpxtpx="http://www.garmin.com/xmlschemas/TrackPointExtension/v1">
            <gpxtpx:hr>109</gpxtpx:hr>
          </gpxtpx:TrackPointExtension>
        </extensions>
      </trkpt>
      <trkpt lat="48.6158" lon="2.09851">
        <ele>124.2</ele>
        <time>2023-03-05T16:32:23Z</time>
        <extensions>
          <gpxtpx:TrackPointExtension xmlns:gpxtpx="http://www.garmin.com/xmlschemas/TrackPointExtension/v1">
            <gpxtpx:hr>109</gpxtpx:hr>
          </gpxtpx:TrackPointExtension>
        </extensions>
      </trkpt>
      <trkpt lat="48.6158" lon="2.09854">
        <ele>124.2</ele>
        <time>2023-03-05T16:32:24Z</time>
        <extensions>
          <gpxtpx:TrackPointExtension xmlns:gpxtpx="http://www.garmin.com/xmlschemas/TrackPointExtension/v1">
            <gpxtpx:hr>109</gpxtpx:hr>
          </gpxtpx:TrackPointExtension>
        </extensions>
      </trkpt>
      <trkpt lat="48.6158" lon="2.09856">
        <ele>124.2</ele>
        <time>2023-03-05T16:32:25Z</time>
        <extensions>
          <gpxtpx:TrackPointExtension xmlns:gpxtpx="http://www.garmin.com/xmlschemas/TrackPointExtension/v1">
            <gpxtpx:hr>109</gpxtpx:hr>
          </gpxtpx:TrackPointExtension>
        </extensions>
      </trkpt>
      <trkpt lat="48.61581" lon="2.09859">
        <ele>124.2</ele>
        <time>2023-03-05T16:32:26Z</time>
        <extensions>
          <gpxtpx:TrackPointExtension xmlns:gpxtpx="http://www.garmin.com/xmlschemas/TrackPointExtension/v1">
            <gpxtpx:hr>109</gpxtpx:hr>
          </gpxtpx:TrackPointExtension>
        </extensions>
      </trkpt>
      <trkpt lat="48.61581" lon="2.09864">
        <ele>124</ele>
        <time>2023-03-05T16:32:28Z</time>
        <extensions>
          <gpxtpx:TrackPointExtension xmlns:gpxtpx="http://www.garmin.com/xmlschemas/TrackPointExtension/v1">
            <gpxtpx:hr>109</gpxtpx:hr>
          </gpxtpx:TrackPointExtension>
        </extensions>
      </trkpt>
      <trkpt lat="48.61581" lon="2.09869">
        <ele>124</ele>
        <time>2023-03-05T16:32:30Z</time>
        <extensions>
          <gpxtpx:TrackPointExtension xmlns:gpxtpx="http://www.garmin.com/xmlschemas/TrackPointExtension/v1">
            <gpxtpx:hr>109</gpxtpx:hr>
          </gpxtpx:TrackPointExtension>
        </extensions>
      </trkpt>
      <trkpt lat="48.61581" lon="2.09874">
        <ele>124</ele>
        <time>2023-03-05T16:32:32Z</time>
        <extensions>
          <gpxtpx:TrackPointExtension xmlns:gpxtpx="http://www.garmin.com/xmlschemas/TrackPointExtension/v1">
            <gpxtpx:hr>108</gpxtpx:hr>
          </gpxtpx:TrackPointExtension>
        </extensions>
      </trkpt>
      <trkpt lat="48.61581" lon="2.09879">
        <ele>123.8</ele>
        <time>2023-03-05T16:32:34Z</time>
        <extensions>
          <gpxtpx:TrackPointExtension xmlns:gpxtpx="http://www.garmin.com/xmlschemas/TrackPointExtension/v1">
            <gpxtpx:hr>108</gpxtpx:hr>
          </gpxtpx:TrackPointExtension>
        </extensions>
      </trkpt>
      <trkpt lat="48.61582" lon="2.09884">
        <ele>123.8</ele>
        <time>2023-03-05T16:32:36Z</time>
        <extensions>
          <gpxtpx:TrackPointExtension xmlns:gpxtpx="http://www.garmin.com/xmlschemas/TrackPointExtension/v1">
            <gpxtpx:hr>108</gpxtpx:hr>
          </gpxtpx:TrackPointExtension>
        </extensions>
      </trkpt>
      <trkpt lat="48.61582" lon="2.09889">
        <ele>124</ele>
        <time>2023-03-05T16:32:38Z</time>
        <extensions>
          <gpxtpx:TrackPointExtension xmlns:gpxtpx="http://www.garmin.com/xmlschemas/TrackPointExtension/v1">
            <gpxtpx:hr>108</gpxtpx:hr>
          </gpxtpx:TrackPointExtension>
        </extensions>
      </trkpt>
      <trkpt lat="48.61583" lon="2.09894">
        <ele>123.8</ele>
        <time>2023-03-05T16:32:40Z</time>
        <extensions>
          <gpxtpx:TrackPointExtension xmlns:gpxtpx="http://www.garmin.com/xmlschemas/TrackPointExtension/v1">
            <gpxtpx:hr>108</gpxtpx:hr>
          </gpxtpx:TrackPointExtension>
        </extensions>
      </trkpt>
      <trkpt lat="48.61583" lon="2.09898">
        <ele>123.8</ele>
        <time>2023-03-05T16:32:42Z</time>
        <extensions>
          <gpxtpx:TrackPointExtension xmlns:gpxtpx="http://www.garmin.com/xmlschemas/TrackPointExtension/v1">
            <gpxtpx:hr>108</gpxtpx:hr>
          </gpxtpx:TrackPointExtension>
        </extensions>
      </trkpt>
      <trkpt lat="48.61583" lon="2.09903">
        <ele>123.8</ele>
        <time>2023-03-05T16:32:44Z</time>
        <extensions>
          <gpxtpx:TrackPointExtension xmlns:gpxtpx="http://www.garmin.com/xmlschemas/TrackPointExtension/v1">
            <gpxtpx:hr>108</gpxtpx:hr>
          </gpxtpx:TrackPointExtension>
        </extensions>
      </trkpt>
      <trkpt lat="48.61582" lon="2.09908">
        <ele>123.8</ele>
        <time>2023-03-05T16:32:46Z</time>
        <extensions>
          <gpxtpx:TrackPointExtension xmlns:gpxtpx="http://www.garmin.com/xmlschemas/TrackPointExtension/v1">
            <gpxtpx:hr>108</gpxtpx:hr>
          </gpxtpx:TrackPointExtension>
        </extensions>
      </trkpt>
      <trkpt lat="48.61582" lon="2.09913">
        <ele>123.8</ele>
        <time>2023-03-05T16:32:48Z</time>
        <extensions>
          <gpxtpx:TrackPointExtension xmlns:gpxtpx="http://www.garmin.com/xmlschemas/TrackPointExtension/v1">
            <gpxtpx:hr>109</gpxtpx:hr>
          </gpxtpx:TrackPointExtension>
        </extensions>
      </trkpt>
      <trkpt lat="48.61582" lon="2.09916">
        <ele>123.6</ele>
        <time>2023-03-05T16:32:49Z</time>
        <extensions>
          <gpxtpx:TrackPointExtension xmlns:gpxtpx="http://www.garmin.com/xmlschemas/TrackPointExtension/v1">
            <gpxtpx:hr>109</gpxtpx:hr>
          </gpxtpx:TrackPointExtension>
        </extensions>
      </trkpt>
      <trkpt lat="48.61582" lon="2.09921">
        <ele>123.6</ele>
        <time>2023-03-05T16:32:51Z</time>
        <extensions>
          <gpxtpx:TrackPointExtension xmlns:gpxtpx="http://www.garmin.com/xmlschemas/TrackPointExtension/v1">
            <gpxtpx:hr>109</gpxtpx:hr>
          </gpxtpx:TrackPointExtension>
        </extensions>
      </trkpt>
      <trkpt lat="48.61581" lon="2.09926">
        <ele>123.4</ele>
        <time>2023-03-05T16:32:53Z</time>
        <extensions>
          <gpxtpx:TrackPointExtension xmlns:gpxtpx="http://www.garmin.com/xmlschemas/TrackPointExtension/v1">
            <gpxtpx:hr>109</gpxtpx:hr>
          </gpxtpx:TrackPointExtension>
        </extensions>
      </trkpt>
      <trkpt lat="48.61581" lon="2.09932">
        <ele>123.2</ele>
        <time>2023-03-05T16:32:55Z</time>
        <extensions>
          <gpxtpx:TrackPointExtension xmlns:gpxtpx="http://www.garmin.com/xmlschemas/TrackPointExtension/v1">
            <gpxtpx:hr>109</gpxtpx:hr>
          </gpxtpx:TrackPointExtension>
        </extensions>
      </trkpt>
      <trkpt lat="48.61581" lon="2.09935">
        <ele>123.2</ele>
        <time>2023-03-05T16:32:56Z</time>
        <extensions>
          <gpxtpx:TrackPointExtension xmlns:gpxtpx="http://www.garmin.com/xmlschemas/TrackPointExtension/v1">
            <gpxtpx:hr>109</gpxtpx:hr>
          </gpxtpx:TrackPointExtension>
        </extensions>
      </trkpt>
      <trkpt lat="48.61581" lon="2.09937">
        <ele>123</ele>
        <time>2023-03-05T16:32:57Z</time>
        <extensions>
          <gpxtpx:TrackPointExtension xmlns:gpxtpx="http://www.garmin.com/xmlschemas/TrackPointExtension/v1">
            <gpxtpx:hr>109</gpxtpx:hr>
          </gpxtpx:TrackPointExtension>
        </extensions>
      </trkpt>
      <trkpt lat="48.61581" lon="2.0994">
        <ele>123</ele>
        <time>2023-03-05T16:32:58Z</time>
        <extensions>
          <gpxtpx:TrackPointExtension xmlns:gpxtpx="http://www.garmin.com/xmlschemas/TrackPointExtension/v1">
            <gpxtpx:hr>109</gpxtpx:hr>
          </gpxtpx:TrackPointExtension>
        </extensions>
      </trkpt>
      <trkpt lat="48.61581" lon="2.09943">
        <ele>123</ele>
        <time>2023-03-05T16:32:59Z</time>
        <extensions>
          <gpxtpx:TrackPointExtension xmlns:gpxtpx="http://www.garmin.com/xmlschemas/TrackPointExtension/v1">
            <gpxtpx:hr>109</gpxtpx:hr>
          </gpxtpx:TrackPointExtension>
        </extensions>
      </trkpt>
      <trkpt lat="48.61581" lon="2.09946">
        <ele>122.8</ele>
        <time>2023-03-05T16:33:00Z</time>
        <extensions>
          <gpxtpx:TrackPointExtension xmlns:gpxtpx="http://www.garmin.com/xmlschemas/TrackPointExtension/v1">
            <gpxtpx:hr>109</gpxtpx:hr>
          </gpxtpx:TrackPointExtension>
        </extensions>
      </trkpt>
      <trkpt lat="48.61581" lon="2.09951">
        <ele>122.8</ele>
        <time>2023-03-05T16:33:02Z</time>
        <extensions>
          <gpxtpx:TrackPointExtension xmlns:gpxtpx="http://www.garmin.com/xmlschemas/TrackPointExtension/v1">
            <gpxtpx:hr>109</gpxtpx:hr>
          </gpxtpx:TrackPointExtension>
        </extensions>
      </trkpt>
      <trkpt lat="48.61581" lon="2.09956">
        <ele>122.8</ele>
        <time>2023-03-05T16:33:04Z</time>
        <extensions>
          <gpxtpx:TrackPointExtension xmlns:gpxtpx="http://www.garmin.com/xmlschemas/TrackPointExtension/v1">
            <gpxtpx:hr>109</gpxtpx:hr>
          </gpxtpx:TrackPointExtension>
        </extensions>
      </trkpt>
      <trkpt lat="48.61581" lon="2.09959">
        <ele>122.8</ele>
        <time>2023-03-05T16:33:05Z</time>
        <extensions>
          <gpxtpx:TrackPointExtension xmlns:gpxtpx="http://www.garmin.com/xmlschemas/TrackPointExtension/v1">
            <gpxtpx:hr>109</gpxtpx:hr>
          </gpxtpx:TrackPointExtension>
        </extensions>
      </trkpt>
      <trkpt lat="48.61581" lon="2.09962">
        <ele>122.8</ele>
        <time>2023-03-05T16:33:06Z</time>
        <extensions>
          <gpxtpx:TrackPointExtension xmlns:gpxtpx="http://www.garmin.com/xmlschemas/TrackPointExtension/v1">
            <gpxtpx:hr>109</gpxtpx:hr>
          </gpxtpx:TrackPointExtension>
        </extensions>
      </trkpt>
      <trkpt lat="48.6158" lon="2.09965">
        <ele>122.6</ele>
        <time>2023-03-05T16:33:07Z</time>
        <extensions>
          <gpxtpx:TrackPointExtension xmlns:gpxtpx="http://www.garmin.com/xmlschemas/TrackPointExtension/v1">
            <gpxtpx:hr>109</gpxtpx:hr>
          </gpxtpx:TrackPointExtension>
        </extensions>
      </trkpt>
      <trkpt lat="48.6158" lon="2.09967">
        <ele>122.6</ele>
        <time>2023-03-05T16:33:08Z</time>
        <extensions>
          <gpxtpx:TrackPointExtension xmlns:gpxtpx="http://www.garmin.com/xmlschemas/TrackPointExtension/v1">
            <gpxtpx:hr>109</gpxtpx:hr>
          </gpxtpx:TrackPointExtension>
        </extensions>
      </trkpt>
      <trkpt lat="48.6158" lon="2.0997">
        <ele>122.4</ele>
        <time>2023-03-05T16:33:09Z</time>
        <extensions>
          <gpxtpx:TrackPointExtension xmlns:gpxtpx="http://www.garmin.com/xmlschemas/TrackPointExtension/v1">
            <gpxtpx:hr>109</gpxtpx:hr>
          </gpxtpx:TrackPointExtension>
        </extensions>
      </trkpt>
      <trkpt lat="48.6158" lon="2.09973">
        <ele>122.4</ele>
        <time>2023-03-05T16:33:10Z</time>
        <extensions>
          <gpxtpx:TrackPointExtension xmlns:gpxtpx="http://www.garmin.com/xmlschemas/TrackPointExtension/v1">
            <gpxtpx:hr>109</gpxtpx:hr>
          </gpxtpx:TrackPointExtension>
        </extensions>
      </trkpt>
      <trkpt lat="48.61579" lon="2.09976">
        <ele>122.2</ele>
        <time>2023-03-05T16:33:11Z</time>
        <extensions>
          <gpxtpx:TrackPointExtension xmlns:gpxtpx="http://www.garmin.com/xmlschemas/TrackPointExtension/v1">
            <gpxtpx:hr>109</gpxtpx:hr>
          </gpxtpx:TrackPointExtension>
        </extensions>
      </trkpt>
      <trkpt lat="48.61579" lon="2.09981">
        <ele>122</ele>
        <time>2023-03-05T16:33:13Z</time>
        <extensions>
          <gpxtpx:TrackPointExtension xmlns:gpxtpx="http://www.garmin.com/xmlschemas/TrackPointExtension/v1">
            <gpxtpx:hr>109</gpxtpx:hr>
          </gpxtpx:TrackPointExtension>
        </extensions>
      </trkpt>
      <trkpt lat="48.61578" lon="2.09984">
        <ele>121.8</ele>
        <time>2023-03-05T16:33:14Z</time>
        <extensions>
          <gpxtpx:TrackPointExtension xmlns:gpxtpx="http://www.garmin.com/xmlschemas/TrackPointExtension/v1">
            <gpxtpx:hr>109</gpxtpx:hr>
          </gpxtpx:TrackPointExtension>
        </extensions>
      </trkpt>
      <trkpt lat="48.61578" lon="2.09989">
        <ele>121.8</ele>
        <time>2023-03-05T16:33:16Z</time>
        <extensions>
          <gpxtpx:TrackPointExtension xmlns:gpxtpx="http://www.garmin.com/xmlschemas/TrackPointExtension/v1">
            <gpxtpx:hr>109</gpxtpx:hr>
          </gpxtpx:TrackPointExtension>
        </extensions>
      </trkpt>
      <trkpt lat="48.61578" lon="2.09994">
        <ele>121.6</ele>
        <time>2023-03-05T16:33:18Z</time>
        <extensions>
          <gpxtpx:TrackPointExtension xmlns:gpxtpx="http://www.garmin.com/xmlschemas/TrackPointExtension/v1">
            <gpxtpx:hr>109</gpxtpx:hr>
          </gpxtpx:TrackPointExtension>
        </extensions>
      </trkpt>
      <trkpt lat="48.61577" lon="2.09999">
        <ele>121.4</ele>
        <time>2023-03-05T16:33:20Z</time>
        <extensions>
          <gpxtpx:TrackPointExtension xmlns:gpxtpx="http://www.garmin.com/xmlschemas/TrackPointExtension/v1">
            <gpxtpx:hr>109</gpxtpx:hr>
          </gpxtpx:TrackPointExtension>
        </extensions>
      </trkpt>
      <trkpt lat="48.61577" lon="2.10004">
        <ele>121.4</ele>
        <time>2023-03-05T16:33:22Z</time>
        <extensions>
          <gpxtpx:TrackPointExtension xmlns:gpxtpx="http://www.garmin.com/xmlschemas/TrackPointExtension/v1">
            <gpxtpx:hr>109</gpxtpx:hr>
          </gpxtpx:TrackPointExtension>
        </extensions>
      </trkpt>
      <trkpt lat="48.61576" lon="2.10007">
        <ele>121.2</ele>
        <time>2023-03-05T16:33:23Z</time>
        <extensions>
          <gpxtpx:TrackPointExtension xmlns:gpxtpx="http://www.garmin.com/xmlschemas/TrackPointExtension/v1">
            <gpxtpx:hr>109</gpxtpx:hr>
          </gpxtpx:TrackPointExtension>
        </extensions>
      </trkpt>
      <trkpt lat="48.61576" lon="2.10012">
        <ele>121.2</ele>
        <time>2023-03-05T16:33:25Z</time>
        <extensions>
          <gpxtpx:TrackPointExtension xmlns:gpxtpx="http://www.garmin.com/xmlschemas/TrackPointExtension/v1">
            <gpxtpx:hr>108</gpxtpx:hr>
          </gpxtpx:TrackPointExtension>
        </extensions>
      </trkpt>
      <trkpt lat="48.61575" lon="2.10017">
        <ele>121</ele>
        <time>2023-03-05T16:33:27Z</time>
        <extensions>
          <gpxtpx:TrackPointExtension xmlns:gpxtpx="http://www.garmin.com/xmlschemas/TrackPointExtension/v1">
            <gpxtpx:hr>108</gpxtpx:hr>
          </gpxtpx:TrackPointExtension>
        </extensions>
      </trkpt>
      <trkpt lat="48.61575" lon="2.10022">
        <ele>121</ele>
        <time>2023-03-05T16:33:29Z</time>
        <extensions>
          <gpxtpx:TrackPointExtension xmlns:gpxtpx="http://www.garmin.com/xmlschemas/TrackPointExtension/v1">
            <gpxtpx:hr>108</gpxtpx:hr>
          </gpxtpx:TrackPointExtension>
        </extensions>
      </trkpt>
      <trkpt lat="48.61574" lon="2.10027">
        <ele>121</ele>
        <time>2023-03-05T16:33:31Z</time>
        <extensions>
          <gpxtpx:TrackPointExtension xmlns:gpxtpx="http://www.garmin.com/xmlschemas/TrackPointExtension/v1">
            <gpxtpx:hr>107</gpxtpx:hr>
          </gpxtpx:TrackPointExtension>
        </extensions>
      </trkpt>
      <trkpt lat="48.61574" lon="2.10032">
        <ele>121</ele>
        <time>2023-03-05T16:33:33Z</time>
        <extensions>
          <gpxtpx:TrackPointExtension xmlns:gpxtpx="http://www.garmin.com/xmlschemas/TrackPointExtension/v1">
            <gpxtpx:hr>107</gpxtpx:hr>
          </gpxtpx:TrackPointExtension>
        </extensions>
      </trkpt>
      <trkpt lat="48.61574" lon="2.10038">
        <ele>120.8</ele>
        <time>2023-03-05T16:33:35Z</time>
      </trkpt>
      <trkpt lat="48.61574" lon="2.10043">
        <ele>120.8</ele>
        <time>2023-03-05T16:33:37Z</time>
      </trkpt>
      <trkpt lat="48.61573" lon="2.10048">
        <ele>120.6</ele>
        <time>2023-03-05T16:33:39Z</time>
      </trkpt>
      <trkpt lat="48.61573" lon="2.10053">
        <ele>120.4</ele>
        <time>2023-03-05T16:33:41Z</time>
      </trkpt>
      <trkpt lat="48.61573" lon="2.10058">
        <ele>120.2</ele>
        <time>2023-03-05T16:33:43Z</time>
      </trkpt>
      <trkpt lat="48.61573" lon="2.10063">
        <ele>120</ele>
        <time>2023-03-05T16:33:45Z</time>
      </trkpt>
      <trkpt lat="48.61572" lon="2.10068">
        <ele>119.8</ele>
        <time>2023-03-05T16:33:47Z</time>
      </trkpt>
      <trkpt lat="48.61572" lon="2.10073">
        <ele>119.6</ele>
        <time>2023-03-05T16:33:49Z</time>
      </trkpt>
      <trkpt lat="48.61571" lon="2.10078">
        <ele>119.4</ele>
        <time>2023-03-05T16:33:51Z</time>
      </trkpt>
      <trkpt lat="48.6157" lon="2.10083">
        <ele>119.4</ele>
        <time>2023-03-05T16:33:53Z</time>
      </trkpt>
      <trkpt lat="48.6157" lon="2.10088">
        <ele>119.4</ele>
        <time>2023-03-05T16:33:55Z</time>
      </trkpt>
      <trkpt lat="48.6157" lon="2.10093">
        <ele>119.4</ele>
        <time>2023-03-05T16:33:57Z</time>
      </trkpt>
      <trkpt lat="48.61569" lon="2.10098">
        <ele>119.4</ele>
        <time>2023-03-05T16:33:59Z</time>
      </trkpt>
      <trkpt lat="48.61569" lon="2.10101">
        <ele>119.4</ele>
        <time>2023-03-05T16:34:00Z</time>
      </trkpt>
      <trkpt lat="48.61568" lon="2.10103">
        <ele>119.4</ele>
        <time>2023-03-05T16:34:01Z</time>
      </trkpt>
      <trkpt lat="48.61568" lon="2.10106">
        <ele>119.2</ele>
        <time>2023-03-05T16:34:02Z</time>
      </trkpt>
      <trkpt lat="48.61568" lon="2.10109">
        <ele>119.2</ele>
        <time>2023-03-05T16:34:03Z</time>
      </trkpt>
      <trkpt lat="48.61568" lon="2.10112">
        <ele>119.2</ele>
        <time>2023-03-05T16:34:04Z</time>
      </trkpt>
      <trkpt lat="48.61567" lon="2.10114">
        <ele>119</ele>
        <time>2023-03-05T16:34:05Z</time>
      </trkpt>
      <trkpt lat="48.61566" lon="2.1012">
        <ele>118.8</ele>
        <time>2023-03-05T16:34:07Z</time>
      </trkpt>
      <trkpt lat="48.61566" lon="2.10125">
        <ele>118.6</ele>
        <time>2023-03-05T16:34:09Z</time>
      </trkpt>
      <trkpt lat="48.61564" lon="2.1013">
        <ele>118.4</ele>
        <time>2023-03-05T16:34:11Z</time>
      </trkpt>
      <trkpt lat="48.61564" lon="2.10134">
        <ele>118.4</ele>
        <time>2023-03-05T16:34:13Z</time>
      </trkpt>
      <trkpt lat="48.61564" lon="2.10139">
        <ele>118.4</ele>
        <time>2023-03-05T16:34:15Z</time>
      </trkpt>
      <trkpt lat="48.61563" lon="2.10144">
        <ele>118.4</ele>
        <time>2023-03-05T16:34:17Z</time>
      </trkpt>
      <trkpt lat="48.61563" lon="2.10149">
        <ele>118.2</ele>
        <time>2023-03-05T16:34:19Z</time>
      </trkpt>
      <trkpt lat="48.61562" lon="2.10154">
        <ele>118.2</ele>
        <time>2023-03-05T16:34:21Z</time>
      </trkpt>
      <trkpt lat="48.61561" lon="2.10159">
        <ele>118</ele>
        <time>2023-03-05T16:34:23Z</time>
      </trkpt>
      <trkpt lat="48.6156" lon="2.10164">
        <ele>117.8</ele>
        <time>2023-03-05T16:34:25Z</time>
      </trkpt>
      <trkpt lat="48.6156" lon="2.10168">
        <ele>117.8</ele>
        <time>2023-03-05T16:34:27Z</time>
      </trkpt>
      <trkpt lat="48.61559" lon="2.10173">
        <ele>117.8</ele>
        <time>2023-03-05T16:34:29Z</time>
      </trkpt>
      <trkpt lat="48.61558" lon="2.10178">
        <ele>117.6</ele>
        <time>2023-03-05T16:34:31Z</time>
      </trkpt>
      <trkpt lat="48.61557" lon="2.10182">
        <ele>117.4</ele>
        <time>2023-03-05T16:34:33Z</time>
      </trkpt>
      <trkpt lat="48.61556" lon="2.10187">
        <ele>117.2</ele>
        <time>2023-03-05T16:34:35Z</time>
      </trkpt>
      <trkpt lat="48.61555" lon="2.10191">
        <ele>117</ele>
        <time>2023-03-05T16:34:37Z</time>
      </trkpt>
      <trkpt lat="48.61554" lon="2.10195">
        <ele>116.8</ele>
        <time>2023-03-05T16:34:39Z</time>
      </trkpt>
      <trkpt lat="48.61552" lon="2.10198">
        <ele>117</ele>
        <time>2023-03-05T16:34:41Z</time>
      </trkpt>
      <trkpt lat="48.6155" lon="2.10201">
        <ele>117</ele>
        <time>2023-03-05T16:34:43Z</time>
      </trkpt>
      <trkpt lat="48.61548" lon="2.10204">
        <ele>116.8</ele>
        <time>2023-03-05T16:34:45Z</time>
      </trkpt>
      <trkpt lat="48.61547" lon="2.10208">
        <ele>116.8</ele>
        <time>2023-03-05T16:34:47Z</time>
      </trkpt>
      <trkpt lat="48.61545" lon="2.10212">
        <ele>116.6</ele>
        <time>2023-03-05T16:34:49Z</time>
      </trkpt>
      <trkpt lat="48.61544" lon="2.10216">
        <ele>116.4</ele>
        <time>2023-03-05T16:34:51Z</time>
      </trkpt>
      <trkpt lat="48.61542" lon="2.10221">
        <ele>116.4</ele>
        <time>2023-03-05T16:34:53Z</time>
      </trkpt>
      <trkpt lat="48.61541" lon="2.10226">
        <ele>116.2</ele>
        <time>2023-03-05T16:34:55Z</time>
      </trkpt>
      <trkpt lat="48.6154" lon="2.10228">
        <ele>116.2</ele>
        <time>2023-03-05T16:34:56Z</time>
      </trkpt>
      <trkpt lat="48.61539" lon="2.10233">
        <ele>116</ele>
        <time>2023-03-05T16:34:58Z</time>
      </trkpt>
      <trkpt lat="48.61538" lon="2.10238">
        <ele>116</ele>
        <time>2023-03-05T16:35:00Z</time>
      </trkpt>
      <trkpt lat="48.61537" lon="2.10242">
        <ele>115.8</ele>
        <time>2023-03-05T16:35:02Z</time>
      </trkpt>
      <trkpt lat="48.61536" lon="2.10247">
        <ele>115.8</ele>
        <time>2023-03-05T16:35:04Z</time>
      </trkpt>
      <trkpt lat="48.61535" lon="2.10251">
        <ele>115.8</ele>
        <time>2023-03-05T16:35:06Z</time>
      </trkpt>
      <trkpt lat="48.61534" lon="2.10255">
        <ele>115.6</ele>
        <time>2023-03-05T16:35:08Z</time>
      </trkpt>
      <trkpt lat="48.61532" lon="2.10259">
        <ele>115.6</ele>
        <time>2023-03-05T16:35:10Z</time>
      </trkpt>
      <trkpt lat="48.61531" lon="2.10264">
        <ele>115.6</ele>
        <time>2023-03-05T16:35:12Z</time>
      </trkpt>
      <trkpt lat="48.6153" lon="2.10268">
        <ele>115.6</ele>
        <time>2023-03-05T16:35:14Z</time>
      </trkpt>
      <trkpt lat="48.61529" lon="2.10273">
        <ele>115.8</ele>
        <time>2023-03-05T16:35:16Z</time>
      </trkpt>
      <trkpt lat="48.61528" lon="2.10277">
        <ele>115.8</ele>
        <time>2023-03-05T16:35:18Z</time>
      </trkpt>
      <trkpt lat="48.61526" lon="2.10281">
        <ele>115.8</ele>
        <time>2023-03-05T16:35:20Z</time>
      </trkpt>
      <trkpt lat="48.61525" lon="2.10286">
        <ele>115.8</ele>
        <time>2023-03-05T16:35:22Z</time>
      </trkpt>
      <trkpt lat="48.61524" lon="2.1029">
        <ele>115.8</ele>
        <time>2023-03-05T16:35:24Z</time>
      </trkpt>
      <trkpt lat="48.61523" lon="2.10293">
        <ele>115.8</ele>
        <time>2023-03-05T16:35:26Z</time>
      </trkpt>
      <trkpt lat="48.61521" lon="2.10297">
        <ele>115.8</ele>
        <time>2023-03-05T16:35:28Z</time>
      </trkpt>
      <trkpt lat="48.6152" lon="2.10301">
        <ele>115.6</ele>
        <time>2023-03-05T16:35:30Z</time>
      </trkpt>
      <trkpt lat="48.61518" lon="2.10305">
        <ele>115.6</ele>
        <time>2023-03-05T16:35:32Z</time>
      </trkpt>
      <trkpt lat="48.61516" lon="2.10309">
        <ele>115.4</ele>
        <time>2023-03-05T16:35:34Z</time>
      </trkpt>
      <trkpt lat="48.61515" lon="2.10313">
        <ele>115.2</ele>
        <time>2023-03-05T16:35:36Z</time>
      </trkpt>
      <trkpt lat="48.61514" lon="2.10317">
        <ele>115.2</ele>
        <time>2023-03-05T16:35:38Z</time>
      </trkpt>
      <trkpt lat="48.61512" lon="2.10321">
        <ele>115</ele>
        <time>2023-03-05T16:35:40Z</time>
      </trkpt>
      <trkpt lat="48.61511" lon="2.10326">
        <ele>114.8</ele>
        <time>2023-03-05T16:35:42Z</time>
      </trkpt>
      <trkpt lat="48.61509" lon="2.1033">
        <ele>114.6</ele>
        <time>2023-03-05T16:35:44Z</time>
      </trkpt>
      <trkpt lat="48.61508" lon="2.10333">
        <ele>114.6</ele>
        <time>2023-03-05T16:35:45Z</time>
      </trkpt>
      <trkpt lat="48.61507" lon="2.10337">
        <ele>114.4</ele>
        <time>2023-03-05T16:35:47Z</time>
      </trkpt>
      <trkpt lat="48.61505" lon="2.10341">
        <ele>114.2</ele>
        <time>2023-03-05T16:35:49Z</time>
      </trkpt>
      <trkpt lat="48.61503" lon="2.10345">
        <ele>114.2</ele>
        <time>2023-03-05T16:35:51Z</time>
      </trkpt>
      <trkpt lat="48.615" lon="2.10349">
        <ele>114</ele>
        <time>2023-03-05T16:35:53Z</time>
      </trkpt>
      <trkpt lat="48.61498" lon="2.10353">
        <ele>114</ele>
        <time>2023-03-05T16:35:55Z</time>
      </trkpt>
      <trkpt lat="48.61496" lon="2.10356">
        <ele>113.8</ele>
        <time>2023-03-05T16:35:57Z</time>
      </trkpt>
      <trkpt lat="48.61494" lon="2.1036">
        <ele>113.6</ele>
        <time>2023-03-05T16:35:59Z</time>
      </trkpt>
      <trkpt lat="48.61492" lon="2.10364">
        <ele>113.4</ele>
        <time>2023-03-05T16:36:01Z</time>
      </trkpt>
      <trkpt lat="48.61491" lon="2.10366">
        <ele>113.4</ele>
        <time>2023-03-05T16:36:02Z</time>
      </trkpt>
      <trkpt lat="48.6149" lon="2.10368">
        <ele>113.2</ele>
        <time>2023-03-05T16:36:03Z</time>
      </trkpt>
      <trkpt lat="48.61488" lon="2.1037">
        <ele>113.2</ele>
        <time>2023-03-05T16:36:04Z</time>
      </trkpt>
      <trkpt lat="48.61486" lon="2.10374">
        <ele>113</ele>
        <time>2023-03-05T16:36:06Z</time>
      </trkpt>
      <trkpt lat="48.61484" lon="2.10378">
        <ele>112.8</ele>
        <time>2023-03-05T16:36:08Z</time>
      </trkpt>
      <trkpt lat="48.61482" lon="2.10381">
        <ele>112.6</ele>
        <time>2023-03-05T16:36:10Z</time>
      </trkpt>
      <trkpt lat="48.6148" lon="2.10385">
        <ele>112.6</ele>
        <time>2023-03-05T16:36:12Z</time>
      </trkpt>
      <trkpt lat="48.61478" lon="2.10388">
        <ele>112.4</ele>
        <time>2023-03-05T16:36:14Z</time>
      </trkpt>
      <trkpt lat="48.61476" lon="2.10391">
        <ele>112.2</ele>
        <time>2023-03-05T16:36:16Z</time>
      </trkpt>
      <trkpt lat="48.61474" lon="2.10395">
        <ele>112.2</ele>
        <time>2023-03-05T16:36:18Z</time>
      </trkpt>
      <trkpt lat="48.61472" lon="2.10398">
        <ele>112.2</ele>
        <time>2023-03-05T16:36:20Z</time>
      </trkpt>
      <trkpt lat="48.6147" lon="2.10402">
        <ele>112</ele>
        <time>2023-03-05T16:36:22Z</time>
      </trkpt>
      <trkpt lat="48.61468" lon="2.10405">
        <ele>112</ele>
        <time>2023-03-05T16:36:24Z</time>
      </trkpt>
      <trkpt lat="48.61466" lon="2.10409">
        <ele>111.8</ele>
        <time>2023-03-05T16:36:26Z</time>
      </trkpt>
      <trkpt lat="48.61464" lon="2.10412">
        <ele>111.8</ele>
        <time>2023-03-05T16:36:28Z</time>
      </trkpt>
      <trkpt lat="48.61461" lon="2.10416">
        <ele>111.6</ele>
        <time>2023-03-05T16:36:30Z</time>
      </trkpt>
      <trkpt lat="48.61459" lon="2.10419">
        <ele>111.6</ele>
        <time>2023-03-05T16:36:32Z</time>
      </trkpt>
      <trkpt lat="48.61457" lon="2.10423">
        <ele>111.4</ele>
        <time>2023-03-05T16:36:34Z</time>
      </trkpt>
      <trkpt lat="48.61455" lon="2.10426">
        <ele>111.2</ele>
        <time>2023-03-05T16:36:36Z</time>
      </trkpt>
      <trkpt lat="48.61453" lon="2.10429">
        <ele>111</ele>
        <time>2023-03-05T16:36:38Z</time>
      </trkpt>
      <trkpt lat="48.61451" lon="2.10433">
        <ele>111</ele>
        <time>2023-03-05T16:36:40Z</time>
      </trkpt>
      <trkpt lat="48.61449" lon="2.10436">
        <ele>111</ele>
        <time>2023-03-05T16:36:42Z</time>
      </trkpt>
      <trkpt lat="48.61447" lon="2.1044">
        <ele>110.8</ele>
        <time>2023-03-05T16:36:44Z</time>
      </trkpt>
      <trkpt lat="48.61445" lon="2.10443">
        <ele>110.8</ele>
        <time>2023-03-05T16:36:46Z</time>
      </trkpt>
      <trkpt lat="48.61443" lon="2.10447">
        <ele>110.6</ele>
        <time>2023-03-05T16:36:48Z</time>
      </trkpt>
      <trkpt lat="48.61441" lon="2.10451">
        <ele>110.6</ele>
        <time>2023-03-05T16:36:50Z</time>
      </trkpt>
      <trkpt lat="48.61439" lon="2.10455">
        <ele>110.6</ele>
        <time>2023-03-05T16:36:52Z</time>
      </trkpt>
      <trkpt lat="48.61438" lon="2.1046">
        <ele>110.6</ele>
        <time>2023-03-05T16:36:54Z</time>
      </trkpt>
      <trkpt lat="48.61437" lon="2.10462">
        <ele>110.6</ele>
        <time>2023-03-05T16:36:55Z</time>
      </trkpt>
      <trkpt lat="48.61435" lon="2.10466">
        <ele>110.4</ele>
        <time>2023-03-05T16:36:57Z</time>
      </trkpt>
      <trkpt lat="48.61433" lon="2.10469">
        <ele>110.4</ele>
        <time>2023-03-05T16:36:59Z</time>
      </trkpt>
      <trkpt lat="48.61431" lon="2.10473">
        <ele>110.2</ele>
        <time>2023-03-05T16:37:01Z</time>
      </trkpt>
      <trkpt lat="48.61429" lon="2.10477">
        <ele>110.2</ele>
        <time>2023-03-05T16:37:03Z</time>
      </trkpt>
      <trkpt lat="48.61428" lon="2.10481">
        <ele>110</ele>
        <time>2023-03-05T16:37:05Z</time>
      </trkpt>
      <trkpt lat="48.61426" lon="2.10485">
        <ele>109.8</ele>
        <time>2023-03-05T16:37:07Z</time>
      </trkpt>
      <trkpt lat="48.61425" lon="2.10489">
        <ele>109.6</ele>
        <time>2023-03-05T16:37:09Z</time>
      </trkpt>
      <trkpt lat="48.61424" lon="2.10493">
        <ele>109.6</ele>
        <time>2023-03-05T16:37:11Z</time>
      </trkpt>
      <trkpt lat="48.61424" lon="2.10496">
        <ele>109.4</ele>
        <time>2023-03-05T16:37:13Z</time>
      </trkpt>
      <trkpt lat="48.61424" lon="2.10499">
        <ele>109.4</ele>
        <time>2023-03-05T16:37:16Z</time>
      </trkpt>
    </trkseg>
  </trk>
</gpx>